﻿<?xml version="1.0" encoding="UTF-8" standalone="no" ?>
<gpx xmlns="http://www.topografix.com/GPX/1/1" creator="CompeGPS" version="1.1" xmlns:xsi="http://www.w3.org/2001/XMLSchema-instance" xsi:schemaLocation="http://www.topografix.com/GPX/1/1 http://www.topografix.com/GPX/1/1/gpx.xsd http://www.garmin.com/xmlschemas/GpxExtensions/v3 http://www.garmin.com/xmlschemas/GpxExtensionsv3.xsd http://www.garmin.com/xmlschemas/TrackPointExtension/v1 http://www.garmin.com/xmlschemas/TrackPointExtensionv1.xsd" xmlns:gpxtpx="http://www.garmin.com/xmlschemas/TrackPointExtension/v1">
  <metadata>
    <link href="http://www.compegps.com">
      <text>CompeGPS TEAM, SL</text>
    </link>
    <time>2020-10-05T21:14:45Z</time>
    <bounds maxlat="30.854007" maxlon="34.813718" minlat="30.601917" minlon="34.741248"/>
  </metadata>
  <trk>
    <name>שדה בוקר מצפה רמון</name>
    <trkseg>
      <trkpt lat="30.854003" lon="34.770655">
        <ele>484.6</ele>
        <time>2020-05-06T05:52:53Z</time>
      </trkpt>
      <trkpt lat="30.854007" lon="34.770620">
        <ele>484.6</ele>
        <time>2020-05-06T05:52:54Z</time>
      </trkpt>
      <trkpt lat="30.853976" lon="34.770541">
        <ele>484.6</ele>
        <time>2020-05-06T05:52:58Z</time>
      </trkpt>
      <trkpt lat="30.853970" lon="34.770522">
        <ele>484.6</ele>
        <time>2020-05-06T05:53:01Z</time>
      </trkpt>
      <trkpt lat="30.853970" lon="34.770523">
        <ele>484.6</ele>
        <time>2020-05-06T05:53:02Z</time>
      </trkpt>
      <trkpt lat="30.853968" lon="34.770529">
        <ele>484.6</ele>
        <time>2020-05-06T05:53:05Z</time>
      </trkpt>
      <trkpt lat="30.853970" lon="34.770529">
        <ele>484.6</ele>
        <time>2020-05-06T05:53:13Z</time>
      </trkpt>
      <trkpt lat="30.853977" lon="34.770542">
        <ele>485.0</ele>
        <time>2020-05-06T05:53:22Z</time>
      </trkpt>
      <trkpt lat="30.853976" lon="34.770539">
        <ele>484.8</ele>
        <time>2020-05-06T05:53:27Z</time>
      </trkpt>
      <trkpt lat="30.853976" lon="34.770539">
        <ele>484.6</ele>
        <time>2020-05-06T05:53:31Z</time>
      </trkpt>
      <trkpt lat="30.853978" lon="34.770542">
        <ele>484.6</ele>
        <time>2020-05-06T05:53:32Z</time>
      </trkpt>
      <trkpt lat="30.853978" lon="34.770559">
        <ele>485.0</ele>
        <time>2020-05-06T05:53:38Z</time>
      </trkpt>
      <trkpt lat="30.853974" lon="34.770553">
        <ele>485.0</ele>
        <time>2020-05-06T05:53:39Z</time>
      </trkpt>
      <trkpt lat="30.853955" lon="34.770459">
        <ele>485.2</ele>
        <time>2020-05-06T05:53:43Z</time>
      </trkpt>
      <trkpt lat="30.853923" lon="34.770292">
        <ele>485.6</ele>
        <time>2020-05-06T05:53:48Z</time>
      </trkpt>
      <trkpt lat="30.853812" lon="34.770105">
        <ele>485.6</ele>
        <time>2020-05-06T05:53:53Z</time>
      </trkpt>
      <trkpt lat="30.853563" lon="34.769830">
        <ele>485.6</ele>
        <time>2020-05-06T05:54:01Z</time>
      </trkpt>
      <trkpt lat="30.853495" lon="34.769767">
        <ele>485.6</ele>
        <time>2020-05-06T05:54:03Z</time>
      </trkpt>
      <trkpt lat="30.853276" lon="34.769580">
        <ele>485.4</ele>
        <time>2020-05-06T05:54:09Z</time>
      </trkpt>
      <trkpt lat="30.852921" lon="34.769281">
        <ele>486.2</ele>
        <time>2020-05-06T05:54:19Z</time>
      </trkpt>
      <trkpt lat="30.852638" lon="34.769061">
        <ele>486.8</ele>
        <time>2020-05-06T05:54:28Z</time>
      </trkpt>
      <trkpt lat="30.852431" lon="34.768941">
        <ele>486.8</ele>
        <time>2020-05-06T05:54:35Z</time>
      </trkpt>
      <trkpt lat="30.852234" lon="34.768886">
        <ele>486.4</ele>
        <time>2020-05-06T05:54:42Z</time>
      </trkpt>
      <trkpt lat="30.852138" lon="34.768873">
        <ele>486.0</ele>
        <time>2020-05-06T05:54:46Z</time>
      </trkpt>
      <trkpt lat="30.852021" lon="34.768843">
        <ele>485.4</ele>
        <time>2020-05-06T05:54:51Z</time>
      </trkpt>
      <trkpt lat="30.851958" lon="34.768812">
        <ele>485.0</ele>
        <time>2020-05-06T05:54:54Z</time>
      </trkpt>
      <trkpt lat="30.851766" lon="34.768685">
        <ele>484.4</ele>
        <time>2020-05-06T05:55:03Z</time>
      </trkpt>
      <trkpt lat="30.851659" lon="34.768619">
        <ele>483.8</ele>
        <time>2020-05-06T05:55:09Z</time>
      </trkpt>
      <trkpt lat="30.851577" lon="34.768641">
        <ele>482.8</ele>
        <time>2020-05-06T05:55:14Z</time>
      </trkpt>
      <trkpt lat="30.851541" lon="34.768648">
        <ele>482.6</ele>
        <time>2020-05-06T05:55:16Z</time>
      </trkpt>
      <trkpt lat="30.851391" lon="34.768645">
        <ele>481.8</ele>
        <time>2020-05-06T05:55:24Z</time>
      </trkpt>
      <trkpt lat="30.851371" lon="34.768641">
        <ele>481.6</ele>
        <time>2020-05-06T05:55:25Z</time>
      </trkpt>
      <trkpt lat="30.851274" lon="34.768619">
        <ele>481.4</ele>
        <time>2020-05-06T05:55:30Z</time>
      </trkpt>
      <trkpt lat="30.851233" lon="34.768610">
        <ele>481.4</ele>
        <time>2020-05-06T05:55:32Z</time>
      </trkpt>
      <trkpt lat="30.851152" lon="34.768636">
        <ele>481.0</ele>
        <time>2020-05-06T05:55:36Z</time>
      </trkpt>
      <trkpt lat="30.851123" lon="34.768660">
        <ele>480.6</ele>
        <time>2020-05-06T05:55:38Z</time>
      </trkpt>
      <trkpt lat="30.851082" lon="34.768703">
        <ele>480.4</ele>
        <time>2020-05-06T05:55:41Z</time>
      </trkpt>
      <trkpt lat="30.851049" lon="34.768725">
        <ele>480.2</ele>
        <time>2020-05-06T05:55:43Z</time>
      </trkpt>
      <trkpt lat="30.851032" lon="34.768781">
        <ele>479.6</ele>
        <time>2020-05-06T05:55:46Z</time>
      </trkpt>
      <trkpt lat="30.851026" lon="34.768804">
        <ele>479.2</ele>
        <time>2020-05-06T05:55:47Z</time>
      </trkpt>
      <trkpt lat="30.851004" lon="34.768847">
        <ele>479.0</ele>
        <time>2020-05-06T05:55:49Z</time>
      </trkpt>
      <trkpt lat="30.850958" lon="34.768863">
        <ele>478.6</ele>
        <time>2020-05-06T05:55:51Z</time>
      </trkpt>
      <trkpt lat="30.850931" lon="34.768816">
        <ele>478.4</ele>
        <time>2020-05-06T05:55:53Z</time>
      </trkpt>
      <trkpt lat="30.850918" lon="34.768722">
        <ele>478.0</ele>
        <time>2020-05-06T05:55:56Z</time>
      </trkpt>
      <trkpt lat="30.850908" lon="34.768668">
        <ele>477.6</ele>
        <time>2020-05-06T05:55:58Z</time>
      </trkpt>
      <trkpt lat="30.850897" lon="34.768568">
        <ele>477.4</ele>
        <time>2020-05-06T05:56:01Z</time>
      </trkpt>
      <trkpt lat="30.850838" lon="34.768395">
        <ele>476.8</ele>
        <time>2020-05-06T05:56:07Z</time>
      </trkpt>
      <trkpt lat="30.850818" lon="34.768352">
        <ele>477.4</ele>
        <time>2020-05-06T05:56:10Z</time>
      </trkpt>
      <trkpt lat="30.850803" lon="34.768344">
        <ele>477.8</ele>
        <time>2020-05-06T05:56:11Z</time>
      </trkpt>
      <trkpt lat="30.850778" lon="34.768346">
        <ele>478.6</ele>
        <time>2020-05-06T05:56:12Z</time>
      </trkpt>
      <trkpt lat="30.850722" lon="34.768416">
        <ele>479.8</ele>
        <time>2020-05-06T05:56:14Z</time>
      </trkpt>
      <trkpt lat="30.850675" lon="34.768507">
        <ele>479.8</ele>
        <time>2020-05-06T05:56:16Z</time>
      </trkpt>
      <trkpt lat="30.850559" lon="34.768702">
        <ele>479.2</ele>
        <time>2020-05-06T05:56:22Z</time>
      </trkpt>
      <trkpt lat="30.850449" lon="34.768784">
        <ele>479.6</ele>
        <time>2020-05-06T05:56:26Z</time>
      </trkpt>
      <trkpt lat="30.850388" lon="34.768750">
        <ele>480.4</ele>
        <time>2020-05-06T05:56:28Z</time>
      </trkpt>
      <trkpt lat="30.850321" lon="34.768596">
        <ele>480.6</ele>
        <time>2020-05-06T05:56:31Z</time>
      </trkpt>
      <trkpt lat="30.850304" lon="34.768535">
        <ele>480.6</ele>
        <time>2020-05-06T05:56:32Z</time>
      </trkpt>
      <trkpt lat="30.850244" lon="34.768348">
        <ele>480.8</ele>
        <time>2020-05-06T05:56:35Z</time>
      </trkpt>
      <trkpt lat="30.850240" lon="34.768214">
        <ele>481.0</ele>
        <time>2020-05-06T05:56:37Z</time>
      </trkpt>
      <trkpt lat="30.850251" lon="34.768009">
        <ele>482.2</ele>
        <time>2020-05-06T05:56:40Z</time>
      </trkpt>
      <trkpt lat="30.850276" lon="34.767744">
        <ele>482.4</ele>
        <time>2020-05-06T05:56:45Z</time>
      </trkpt>
      <trkpt lat="30.850311" lon="34.767504">
        <ele>482.8</ele>
        <time>2020-05-06T05:56:51Z</time>
      </trkpt>
      <trkpt lat="30.850287" lon="34.767402">
        <ele>483.0</ele>
        <time>2020-05-06T05:56:54Z</time>
      </trkpt>
      <trkpt lat="30.850264" lon="34.767367">
        <ele>483.0</ele>
        <time>2020-05-06T05:56:55Z</time>
      </trkpt>
      <trkpt lat="30.850198" lon="34.767307">
        <ele>482.8</ele>
        <time>2020-05-06T05:56:58Z</time>
      </trkpt>
      <trkpt lat="30.850074" lon="34.767409">
        <ele>482.0</ele>
        <time>2020-05-06T05:57:03Z</time>
      </trkpt>
      <trkpt lat="30.849971" lon="34.767589">
        <ele>481.8</ele>
        <time>2020-05-06T05:57:09Z</time>
      </trkpt>
      <trkpt lat="30.849863" lon="34.767659">
        <ele>481.6</ele>
        <time>2020-05-06T05:57:13Z</time>
      </trkpt>
      <trkpt lat="30.849806" lon="34.767635">
        <ele>481.6</ele>
        <time>2020-05-06T05:57:15Z</time>
      </trkpt>
      <trkpt lat="30.849789" lon="34.767572">
        <ele>481.4</ele>
        <time>2020-05-06T05:57:17Z</time>
      </trkpt>
      <trkpt lat="30.849750" lon="34.767324">
        <ele>481.8</ele>
        <time>2020-05-06T05:57:23Z</time>
      </trkpt>
      <trkpt lat="30.849724" lon="34.767169">
        <ele>482.2</ele>
        <time>2020-05-06T05:57:27Z</time>
      </trkpt>
      <trkpt lat="30.849758" lon="34.767046">
        <ele>483.0</ele>
        <time>2020-05-06T05:57:30Z</time>
      </trkpt>
      <trkpt lat="30.849756" lon="34.766998">
        <ele>483.0</ele>
        <time>2020-05-06T05:57:31Z</time>
      </trkpt>
      <trkpt lat="30.849696" lon="34.766769">
        <ele>483.2</ele>
        <time>2020-05-06T05:57:37Z</time>
      </trkpt>
      <trkpt lat="30.849594" lon="34.766616">
        <ele>483.2</ele>
        <time>2020-05-06T05:57:43Z</time>
      </trkpt>
      <trkpt lat="30.849510" lon="34.766448">
        <ele>483.4</ele>
        <time>2020-05-06T05:57:49Z</time>
      </trkpt>
      <trkpt lat="30.849422" lon="34.766279">
        <ele>482.6</ele>
        <time>2020-05-06T05:57:54Z</time>
      </trkpt>
      <trkpt lat="30.849398" lon="34.766196">
        <ele>482.6</ele>
        <time>2020-05-06T05:57:56Z</time>
      </trkpt>
      <trkpt lat="30.849381" lon="34.766151">
        <ele>482.8</ele>
        <time>2020-05-06T05:57:57Z</time>
      </trkpt>
      <trkpt lat="30.849359" lon="34.766111">
        <ele>482.8</ele>
        <time>2020-05-06T05:57:58Z</time>
      </trkpt>
      <trkpt lat="30.849309" lon="34.766055">
        <ele>483.2</ele>
        <time>2020-05-06T05:58:00Z</time>
      </trkpt>
      <trkpt lat="30.849232" lon="34.765964">
        <ele>483.4</ele>
        <time>2020-05-06T05:58:03Z</time>
      </trkpt>
      <trkpt lat="30.849178" lon="34.765878">
        <ele>484.0</ele>
        <time>2020-05-06T05:58:05Z</time>
      </trkpt>
      <trkpt lat="30.849125" lon="34.765782">
        <ele>484.2</ele>
        <time>2020-05-06T05:58:07Z</time>
      </trkpt>
      <trkpt lat="30.849050" lon="34.765584">
        <ele>484.6</ele>
        <time>2020-05-06T05:58:12Z</time>
      </trkpt>
      <trkpt lat="30.849022" lon="34.765421">
        <ele>484.4</ele>
        <time>2020-05-06T05:58:17Z</time>
      </trkpt>
      <trkpt lat="30.849009" lon="34.765392">
        <ele>484.4</ele>
        <time>2020-05-06T05:58:18Z</time>
      </trkpt>
      <trkpt lat="30.848956" lon="34.765283">
        <ele>485.4</ele>
        <time>2020-05-06T05:58:21Z</time>
      </trkpt>
      <trkpt lat="30.848942" lon="34.765209">
        <ele>486.0</ele>
        <time>2020-05-06T05:58:23Z</time>
      </trkpt>
      <trkpt lat="30.848939" lon="34.765175">
        <ele>486.6</ele>
        <time>2020-05-06T05:58:24Z</time>
      </trkpt>
      <trkpt lat="30.848928" lon="34.765148">
        <ele>486.8</ele>
        <time>2020-05-06T05:58:25Z</time>
      </trkpt>
      <trkpt lat="30.848901" lon="34.765134">
        <ele>487.0</ele>
        <time>2020-05-06T05:58:26Z</time>
      </trkpt>
      <trkpt lat="30.848832" lon="34.765109">
        <ele>487.4</ele>
        <time>2020-05-06T05:58:28Z</time>
      </trkpt>
      <trkpt lat="30.848800" lon="34.765075">
        <ele>487.6</ele>
        <time>2020-05-06T05:58:29Z</time>
      </trkpt>
      <trkpt lat="30.848725" lon="34.764852">
        <ele>488.6</ele>
        <time>2020-05-06T05:58:34Z</time>
      </trkpt>
      <trkpt lat="30.848715" lon="34.764655">
        <ele>488.8</ele>
        <time>2020-05-06T05:58:39Z</time>
      </trkpt>
      <trkpt lat="30.848712" lon="34.764589">
        <ele>489.0</ele>
        <time>2020-05-06T05:58:41Z</time>
      </trkpt>
      <trkpt lat="30.848703" lon="34.764525">
        <ele>488.8</ele>
        <time>2020-05-06T05:58:43Z</time>
      </trkpt>
      <trkpt lat="30.848712" lon="34.764403">
        <ele>488.4</ele>
        <time>2020-05-06T05:58:48Z</time>
      </trkpt>
      <trkpt lat="30.848710" lon="34.764291">
        <ele>487.2</ele>
        <time>2020-05-06T05:58:54Z</time>
      </trkpt>
      <trkpt lat="30.848712" lon="34.764180">
        <ele>487.8</ele>
        <time>2020-05-06T05:58:58Z</time>
      </trkpt>
      <trkpt lat="30.848722" lon="34.764060">
        <ele>488.2</ele>
        <time>2020-05-06T05:59:02Z</time>
      </trkpt>
      <trkpt lat="30.848686" lon="34.764033">
        <ele>488.2</ele>
        <time>2020-05-06T05:59:04Z</time>
      </trkpt>
      <trkpt lat="30.848632" lon="34.764052">
        <ele>488.0</ele>
        <time>2020-05-06T05:59:06Z</time>
      </trkpt>
      <trkpt lat="30.848604" lon="34.764067">
        <ele>488.0</ele>
        <time>2020-05-06T05:59:07Z</time>
      </trkpt>
      <trkpt lat="30.848521" lon="34.764118">
        <ele>488.2</ele>
        <time>2020-05-06T05:59:10Z</time>
      </trkpt>
      <trkpt lat="30.848476" lon="34.764176">
        <ele>488.2</ele>
        <time>2020-05-06T05:59:12Z</time>
      </trkpt>
      <trkpt lat="30.848365" lon="34.764264">
        <ele>488.4</ele>
        <time>2020-05-06T05:59:16Z</time>
      </trkpt>
      <trkpt lat="30.848167" lon="34.764266">
        <ele>488.4</ele>
        <time>2020-05-06T05:59:21Z</time>
      </trkpt>
      <trkpt lat="30.847981" lon="34.764207">
        <ele>488.8</ele>
        <time>2020-05-06T05:59:26Z</time>
      </trkpt>
      <trkpt lat="30.847952" lon="34.764185">
        <ele>488.8</ele>
        <time>2020-05-06T05:59:27Z</time>
      </trkpt>
      <trkpt lat="30.847880" lon="34.764043">
        <ele>489.4</ele>
        <time>2020-05-06T05:59:31Z</time>
      </trkpt>
      <trkpt lat="30.847888" lon="34.763787">
        <ele>489.6</ele>
        <time>2020-05-06T05:59:37Z</time>
      </trkpt>
      <trkpt lat="30.847960" lon="34.763601">
        <ele>489.8</ele>
        <time>2020-05-06T05:59:42Z</time>
      </trkpt>
      <trkpt lat="30.848051" lon="34.763431">
        <ele>489.4</ele>
        <time>2020-05-06T05:59:48Z</time>
      </trkpt>
      <trkpt lat="30.848104" lon="34.763315">
        <ele>488.8</ele>
        <time>2020-05-06T05:59:53Z</time>
      </trkpt>
      <trkpt lat="30.848130" lon="34.763275">
        <ele>488.4</ele>
        <time>2020-05-06T05:59:55Z</time>
      </trkpt>
      <trkpt lat="30.848241" lon="34.763193">
        <ele>487.8</ele>
        <time>2020-05-06T06:00:01Z</time>
      </trkpt>
      <trkpt lat="30.848329" lon="34.763093">
        <ele>487.0</ele>
        <time>2020-05-06T06:00:06Z</time>
      </trkpt>
      <trkpt lat="30.848318" lon="34.762980">
        <ele>487.2</ele>
        <time>2020-05-06T06:00:09Z</time>
      </trkpt>
      <trkpt lat="30.848223" lon="34.762915">
        <ele>487.8</ele>
        <time>2020-05-06T06:00:12Z</time>
      </trkpt>
      <trkpt lat="30.848137" lon="34.762909">
        <ele>488.0</ele>
        <time>2020-05-06T06:00:14Z</time>
      </trkpt>
      <trkpt lat="30.848062" lon="34.762867">
        <ele>488.8</ele>
        <time>2020-05-06T06:00:16Z</time>
      </trkpt>
      <trkpt lat="30.848004" lon="34.762778">
        <ele>489.4</ele>
        <time>2020-05-06T06:00:18Z</time>
      </trkpt>
      <trkpt lat="30.847935" lon="34.762709">
        <ele>489.6</ele>
        <time>2020-05-06T06:00:20Z</time>
      </trkpt>
      <trkpt lat="30.847825" lon="34.762662">
        <ele>489.8</ele>
        <time>2020-05-06T06:00:23Z</time>
      </trkpt>
      <trkpt lat="30.847699" lon="34.762583">
        <ele>489.8</ele>
        <time>2020-05-06T06:00:28Z</time>
      </trkpt>
      <trkpt lat="30.847633" lon="34.762467">
        <ele>490.0</ele>
        <time>2020-05-06T06:00:32Z</time>
      </trkpt>
      <trkpt lat="30.847597" lon="34.762406">
        <ele>489.6</ele>
        <time>2020-05-06T06:00:34Z</time>
      </trkpt>
      <trkpt lat="30.847501" lon="34.762275">
        <ele>489.6</ele>
        <time>2020-05-06T06:00:40Z</time>
      </trkpt>
      <trkpt lat="30.847472" lon="34.762130">
        <ele>489.8</ele>
        <time>2020-05-06T06:00:45Z</time>
      </trkpt>
      <trkpt lat="30.847514" lon="34.761970">
        <ele>489.0</ele>
        <time>2020-05-06T06:00:51Z</time>
      </trkpt>
      <trkpt lat="30.847511" lon="34.761928">
        <ele>489.0</ele>
        <time>2020-05-06T06:00:53Z</time>
      </trkpt>
      <trkpt lat="30.847460" lon="34.761901">
        <ele>488.8</ele>
        <time>2020-05-06T06:00:56Z</time>
      </trkpt>
      <trkpt lat="30.847390" lon="34.761866">
        <ele>488.0</ele>
        <time>2020-05-06T06:01:00Z</time>
      </trkpt>
      <trkpt lat="30.847346" lon="34.761810">
        <ele>487.4</ele>
        <time>2020-05-06T06:01:04Z</time>
      </trkpt>
      <trkpt lat="30.847261" lon="34.761786">
        <ele>487.4</ele>
        <time>2020-05-06T06:01:09Z</time>
      </trkpt>
      <trkpt lat="30.847168" lon="34.761776">
        <ele>486.8</ele>
        <time>2020-05-06T06:01:14Z</time>
      </trkpt>
      <trkpt lat="30.847100" lon="34.761741">
        <ele>486.2</ele>
        <time>2020-05-06T06:01:18Z</time>
      </trkpt>
      <trkpt lat="30.847058" lon="34.761717">
        <ele>485.8</ele>
        <time>2020-05-06T06:01:21Z</time>
      </trkpt>
      <trkpt lat="30.846981" lon="34.761668">
        <ele>485.0</ele>
        <time>2020-05-06T06:01:27Z</time>
      </trkpt>
      <trkpt lat="30.846933" lon="34.761644">
        <ele>484.6</ele>
        <time>2020-05-06T06:01:30Z</time>
      </trkpt>
      <trkpt lat="30.846861" lon="34.761627">
        <ele>484.0</ele>
        <time>2020-05-06T06:01:34Z</time>
      </trkpt>
      <trkpt lat="30.846770" lon="34.761642">
        <ele>483.6</ele>
        <time>2020-05-06T06:01:39Z</time>
      </trkpt>
      <trkpt lat="30.846740" lon="34.761663">
        <ele>483.2</ele>
        <time>2020-05-06T06:01:41Z</time>
      </trkpt>
      <trkpt lat="30.846675" lon="34.761729">
        <ele>482.6</ele>
        <time>2020-05-06T06:01:46Z</time>
      </trkpt>
      <trkpt lat="30.846626" lon="34.761778">
        <ele>481.4</ele>
        <time>2020-05-06T06:01:50Z</time>
      </trkpt>
      <trkpt lat="30.846530" lon="34.761822">
        <ele>481.4</ele>
        <time>2020-05-06T06:01:55Z</time>
      </trkpt>
      <trkpt lat="30.846500" lon="34.761822">
        <ele>481.4</ele>
        <time>2020-05-06T06:01:56Z</time>
      </trkpt>
      <trkpt lat="30.846398" lon="34.761759">
        <ele>481.4</ele>
        <time>2020-05-06T06:02:00Z</time>
      </trkpt>
      <trkpt lat="30.846265" lon="34.761783">
        <ele>480.4</ele>
        <time>2020-05-06T06:02:07Z</time>
      </trkpt>
      <trkpt lat="30.846249" lon="34.761791">
        <ele>480.2</ele>
        <time>2020-05-06T06:02:08Z</time>
      </trkpt>
      <trkpt lat="30.846172" lon="34.761837">
        <ele>479.4</ele>
        <time>2020-05-06T06:02:14Z</time>
      </trkpt>
      <trkpt lat="30.846160" lon="34.761844">
        <ele>479.2</ele>
        <time>2020-05-06T06:02:15Z</time>
      </trkpt>
      <trkpt lat="30.846045" lon="34.761850">
        <ele>478.4</ele>
        <time>2020-05-06T06:02:21Z</time>
      </trkpt>
      <trkpt lat="30.845971" lon="34.761773">
        <ele>477.4</ele>
        <time>2020-05-06T06:02:26Z</time>
      </trkpt>
      <trkpt lat="30.845980" lon="34.761651">
        <ele>477.6</ele>
        <time>2020-05-06T06:02:32Z</time>
      </trkpt>
      <trkpt lat="30.845993" lon="34.761607">
        <ele>477.4</ele>
        <time>2020-05-06T06:02:34Z</time>
      </trkpt>
      <trkpt lat="30.846003" lon="34.761587">
        <ele>477.0</ele>
        <time>2020-05-06T06:02:35Z</time>
      </trkpt>
      <trkpt lat="30.846031" lon="34.761481">
        <ele>476.0</ele>
        <time>2020-05-06T06:02:40Z</time>
      </trkpt>
      <trkpt lat="30.846044" lon="34.761419">
        <ele>475.8</ele>
        <time>2020-05-06T06:02:43Z</time>
      </trkpt>
      <trkpt lat="30.846075" lon="34.761344">
        <ele>475.4</ele>
        <time>2020-05-06T06:02:47Z</time>
      </trkpt>
      <trkpt lat="30.846131" lon="34.761234">
        <ele>474.8</ele>
        <time>2020-05-06T06:02:53Z</time>
      </trkpt>
      <trkpt lat="30.846150" lon="34.761179">
        <ele>474.4</ele>
        <time>2020-05-06T06:02:56Z</time>
      </trkpt>
      <trkpt lat="30.846185" lon="34.761049">
        <ele>473.6</ele>
        <time>2020-05-06T06:03:05Z</time>
      </trkpt>
      <trkpt lat="30.846245" lon="34.760934">
        <ele>472.6</ele>
        <time>2020-05-06T06:03:14Z</time>
      </trkpt>
      <trkpt lat="30.846252" lon="34.760924">
        <ele>472.6</ele>
        <time>2020-05-06T06:03:15Z</time>
      </trkpt>
      <trkpt lat="30.846282" lon="34.760840">
        <ele>472.0</ele>
        <time>2020-05-06T06:03:21Z</time>
      </trkpt>
      <trkpt lat="30.846291" lon="34.760809">
        <ele>471.6</ele>
        <time>2020-05-06T06:03:23Z</time>
      </trkpt>
      <trkpt lat="30.846301" lon="34.760736">
        <ele>470.8</ele>
        <time>2020-05-06T06:03:28Z</time>
      </trkpt>
      <trkpt lat="30.846301" lon="34.760722">
        <ele>470.4</ele>
        <time>2020-05-06T06:03:29Z</time>
      </trkpt>
      <trkpt lat="30.846305" lon="34.760656">
        <ele>469.6</ele>
        <time>2020-05-06T06:03:34Z</time>
      </trkpt>
      <trkpt lat="30.846304" lon="34.760644">
        <ele>469.4</ele>
        <time>2020-05-06T06:03:35Z</time>
      </trkpt>
      <trkpt lat="30.846302" lon="34.760554">
        <ele>468.2</ele>
        <time>2020-05-06T06:03:42Z</time>
      </trkpt>
      <trkpt lat="30.846277" lon="34.760490">
        <ele>467.2</ele>
        <time>2020-05-06T06:03:47Z</time>
      </trkpt>
      <trkpt lat="30.846258" lon="34.760459">
        <ele>466.2</ele>
        <time>2020-05-06T06:03:50Z</time>
      </trkpt>
      <trkpt lat="30.846244" lon="34.760439">
        <ele>465.8</ele>
        <time>2020-05-06T06:03:52Z</time>
      </trkpt>
      <trkpt lat="30.846206" lon="34.760416">
        <ele>465.2</ele>
        <time>2020-05-06T06:03:56Z</time>
      </trkpt>
      <trkpt lat="30.846146" lon="34.760407">
        <ele>464.8</ele>
        <time>2020-05-06T06:04:01Z</time>
      </trkpt>
      <trkpt lat="30.846121" lon="34.760407">
        <ele>464.6</ele>
        <time>2020-05-06T06:04:03Z</time>
      </trkpt>
      <trkpt lat="30.846033" lon="34.760389">
        <ele>464.0</ele>
        <time>2020-05-06T06:04:10Z</time>
      </trkpt>
      <trkpt lat="30.846008" lon="34.760378">
        <ele>463.8</ele>
        <time>2020-05-06T06:04:12Z</time>
      </trkpt>
      <trkpt lat="30.845957" lon="34.760353">
        <ele>462.6</ele>
        <time>2020-05-06T06:04:16Z</time>
      </trkpt>
      <trkpt lat="30.845932" lon="34.760339">
        <ele>462.0</ele>
        <time>2020-05-06T06:04:18Z</time>
      </trkpt>
      <trkpt lat="30.845889" lon="34.760312">
        <ele>461.6</ele>
        <time>2020-05-06T06:04:22Z</time>
      </trkpt>
      <trkpt lat="30.845853" lon="34.760281">
        <ele>461.2</ele>
        <time>2020-05-06T06:04:25Z</time>
      </trkpt>
      <trkpt lat="30.845793" lon="34.760234">
        <ele>460.4</ele>
        <time>2020-05-06T06:04:31Z</time>
      </trkpt>
      <trkpt lat="30.845780" lon="34.760234">
        <ele>460.2</ele>
        <time>2020-05-06T06:04:32Z</time>
      </trkpt>
      <trkpt lat="30.845656" lon="34.760266">
        <ele>459.4</ele>
        <time>2020-05-06T06:04:41Z</time>
      </trkpt>
      <trkpt lat="30.845562" lon="34.760277">
        <ele>458.2</ele>
        <time>2020-05-06T06:04:48Z</time>
      </trkpt>
      <trkpt lat="30.845550" lon="34.760277">
        <ele>458.0</ele>
        <time>2020-05-06T06:04:49Z</time>
      </trkpt>
      <trkpt lat="30.845515" lon="34.760275">
        <ele>457.2</ele>
        <time>2020-05-06T06:04:52Z</time>
      </trkpt>
      <trkpt lat="30.845503" lon="34.760272">
        <ele>457.2</ele>
        <time>2020-05-06T06:04:53Z</time>
      </trkpt>
      <trkpt lat="30.845438" lon="34.760252">
        <ele>456.4</ele>
        <time>2020-05-06T06:04:58Z</time>
      </trkpt>
      <trkpt lat="30.845412" lon="34.760241">
        <ele>456.2</ele>
        <time>2020-05-06T06:05:00Z</time>
      </trkpt>
      <trkpt lat="30.845354" lon="34.760203">
        <ele>455.0</ele>
        <time>2020-05-06T06:05:05Z</time>
      </trkpt>
      <trkpt lat="30.845330" lon="34.760181">
        <ele>454.4</ele>
        <time>2020-05-06T06:05:07Z</time>
      </trkpt>
      <trkpt lat="30.845308" lon="34.760166">
        <ele>454.2</ele>
        <time>2020-05-06T06:05:09Z</time>
      </trkpt>
      <trkpt lat="30.845295" lon="34.760156">
        <ele>454.2</ele>
        <time>2020-05-06T06:05:10Z</time>
      </trkpt>
      <trkpt lat="30.845277" lon="34.760146">
        <ele>454.2</ele>
        <time>2020-05-06T06:05:11Z</time>
      </trkpt>
      <trkpt lat="30.845259" lon="34.760133">
        <ele>454.2</ele>
        <time>2020-05-06T06:05:12Z</time>
      </trkpt>
      <trkpt lat="30.845242" lon="34.760125">
        <ele>454.2</ele>
        <time>2020-05-06T06:05:13Z</time>
      </trkpt>
      <trkpt lat="30.845223" lon="34.760124">
        <ele>454.2</ele>
        <time>2020-05-06T06:05:14Z</time>
      </trkpt>
      <trkpt lat="30.845151" lon="34.760156">
        <ele>454.2</ele>
        <time>2020-05-06T06:05:18Z</time>
      </trkpt>
      <trkpt lat="30.845039" lon="34.760223">
        <ele>454.0</ele>
        <time>2020-05-06T06:05:22Z</time>
      </trkpt>
      <trkpt lat="30.844901" lon="34.760220">
        <ele>454.2</ele>
        <time>2020-05-06T06:05:26Z</time>
      </trkpt>
      <trkpt lat="30.844724" lon="34.760297">
        <ele>455.0</ele>
        <time>2020-05-06T06:05:31Z</time>
      </trkpt>
      <trkpt lat="30.844688" lon="34.760307">
        <ele>455.2</ele>
        <time>2020-05-06T06:05:32Z</time>
      </trkpt>
      <trkpt lat="30.844610" lon="34.760298">
        <ele>455.6</ele>
        <time>2020-05-06T06:05:35Z</time>
      </trkpt>
      <trkpt lat="30.844625" lon="34.760114">
        <ele>456.2</ele>
        <time>2020-05-06T06:05:41Z</time>
      </trkpt>
      <trkpt lat="30.844641" lon="34.760068">
        <ele>456.2</ele>
        <time>2020-05-06T06:05:43Z</time>
      </trkpt>
      <trkpt lat="30.844652" lon="34.760056">
        <ele>456.0</ele>
        <time>2020-05-06T06:05:45Z</time>
      </trkpt>
      <trkpt lat="30.844650" lon="34.760053">
        <ele>455.6</ele>
        <time>2020-05-06T06:05:56Z</time>
      </trkpt>
      <trkpt lat="30.844640" lon="34.760053">
        <ele>456.0</ele>
        <time>2020-05-06T06:06:08Z</time>
      </trkpt>
      <trkpt lat="30.844637" lon="34.760047">
        <ele>456.0</ele>
        <time>2020-05-06T06:06:10Z</time>
      </trkpt>
      <trkpt lat="30.844635" lon="34.760044">
        <ele>456.2</ele>
        <time>2020-05-06T06:06:12Z</time>
      </trkpt>
      <trkpt lat="30.844632" lon="34.760059">
        <ele>456.4</ele>
        <time>2020-05-06T06:06:16Z</time>
      </trkpt>
      <trkpt lat="30.844627" lon="34.760070">
        <ele>456.6</ele>
        <time>2020-05-06T06:06:21Z</time>
      </trkpt>
      <trkpt lat="30.844638" lon="34.760027">
        <ele>456.8</ele>
        <time>2020-05-06T06:06:23Z</time>
      </trkpt>
      <trkpt lat="30.844686" lon="34.759801">
        <ele>457.2</ele>
        <time>2020-05-06T06:06:28Z</time>
      </trkpt>
      <trkpt lat="30.844719" lon="34.759528">
        <ele>457.0</ele>
        <time>2020-05-06T06:06:34Z</time>
      </trkpt>
      <trkpt lat="30.844725" lon="34.759478">
        <ele>457.2</ele>
        <time>2020-05-06T06:06:35Z</time>
      </trkpt>
      <trkpt lat="30.844732" lon="34.759429">
        <ele>457.2</ele>
        <time>2020-05-06T06:06:36Z</time>
      </trkpt>
      <trkpt lat="30.844762" lon="34.759343">
        <ele>457.6</ele>
        <time>2020-05-06T06:06:38Z</time>
      </trkpt>
      <trkpt lat="30.844865" lon="34.759228">
        <ele>458.0</ele>
        <time>2020-05-06T06:06:42Z</time>
      </trkpt>
      <trkpt lat="30.844877" lon="34.759140">
        <ele>458.2</ele>
        <time>2020-05-06T06:06:44Z</time>
      </trkpt>
      <trkpt lat="30.844859" lon="34.759038">
        <ele>458.2</ele>
        <time>2020-05-06T06:06:46Z</time>
      </trkpt>
      <trkpt lat="30.844842" lon="34.758987">
        <ele>458.2</ele>
        <time>2020-05-06T06:06:47Z</time>
      </trkpt>
      <trkpt lat="30.844801" lon="34.758836">
        <ele>457.6</ele>
        <time>2020-05-06T06:06:51Z</time>
      </trkpt>
      <trkpt lat="30.844774" lon="34.758700">
        <ele>457.4</ele>
        <time>2020-05-06T06:06:55Z</time>
      </trkpt>
      <trkpt lat="30.844675" lon="34.758632">
        <ele>457.0</ele>
        <time>2020-05-06T06:06:59Z</time>
      </trkpt>
      <trkpt lat="30.844655" lon="34.758611">
        <ele>456.8</ele>
        <time>2020-05-06T06:07:00Z</time>
      </trkpt>
      <trkpt lat="30.844636" lon="34.758515">
        <ele>456.6</ele>
        <time>2020-05-06T06:07:03Z</time>
      </trkpt>
      <trkpt lat="30.844671" lon="34.758273">
        <ele>456.4</ele>
        <time>2020-05-06T06:07:10Z</time>
      </trkpt>
      <trkpt lat="30.844656" lon="34.758007">
        <ele>457.0</ele>
        <time>2020-05-06T06:07:16Z</time>
      </trkpt>
      <trkpt lat="30.844633" lon="34.757819">
        <ele>457.6</ele>
        <time>2020-05-06T06:07:21Z</time>
      </trkpt>
      <trkpt lat="30.844675" lon="34.757659">
        <ele>457.4</ele>
        <time>2020-05-06T06:07:26Z</time>
      </trkpt>
      <trkpt lat="30.844691" lon="34.757553">
        <ele>457.0</ele>
        <time>2020-05-06T06:07:31Z</time>
      </trkpt>
      <trkpt lat="30.844683" lon="34.757490">
        <ele>457.2</ele>
        <time>2020-05-06T06:07:33Z</time>
      </trkpt>
      <trkpt lat="30.844667" lon="34.757437">
        <ele>457.0</ele>
        <time>2020-05-06T06:07:35Z</time>
      </trkpt>
      <trkpt lat="30.844645" lon="34.757383">
        <ele>456.8</ele>
        <time>2020-05-06T06:07:38Z</time>
      </trkpt>
      <trkpt lat="30.844581" lon="34.757268">
        <ele>456.2</ele>
        <time>2020-05-06T06:07:44Z</time>
      </trkpt>
      <trkpt lat="30.844567" lon="34.757241">
        <ele>455.6</ele>
        <time>2020-05-06T06:07:46Z</time>
      </trkpt>
      <trkpt lat="30.844544" lon="34.757210">
        <ele>455.0</ele>
        <time>2020-05-06T06:07:49Z</time>
      </trkpt>
      <trkpt lat="30.844514" lon="34.757137">
        <ele>454.0</ele>
        <time>2020-05-06T06:07:53Z</time>
      </trkpt>
      <trkpt lat="30.844477" lon="34.757011">
        <ele>452.8</ele>
        <time>2020-05-06T06:08:00Z</time>
      </trkpt>
      <trkpt lat="30.844474" lon="34.756992">
        <ele>452.6</ele>
        <time>2020-05-06T06:08:01Z</time>
      </trkpt>
      <trkpt lat="30.844440" lon="34.756826">
        <ele>452.2</ele>
        <time>2020-05-06T06:08:08Z</time>
      </trkpt>
      <trkpt lat="30.844417" lon="34.756722">
        <ele>451.6</ele>
        <time>2020-05-06T06:08:12Z</time>
      </trkpt>
      <trkpt lat="30.844412" lon="34.756601">
        <ele>451.2</ele>
        <time>2020-05-06T06:08:17Z</time>
      </trkpt>
      <trkpt lat="30.844364" lon="34.756490">
        <ele>451.0</ele>
        <time>2020-05-06T06:08:22Z</time>
      </trkpt>
      <trkpt lat="30.844343" lon="34.756468">
        <ele>450.8</ele>
        <time>2020-05-06T06:08:23Z</time>
      </trkpt>
      <trkpt lat="30.844136" lon="34.756314">
        <ele>451.0</ele>
        <time>2020-05-06T06:08:31Z</time>
      </trkpt>
      <trkpt lat="30.844048" lon="34.756262">
        <ele>451.0</ele>
        <time>2020-05-06T06:08:34Z</time>
      </trkpt>
      <trkpt lat="30.843987" lon="34.756222">
        <ele>450.6</ele>
        <time>2020-05-06T06:08:37Z</time>
      </trkpt>
      <trkpt lat="30.843953" lon="34.756189">
        <ele>450.2</ele>
        <time>2020-05-06T06:08:39Z</time>
      </trkpt>
      <trkpt lat="30.843884" lon="34.756136">
        <ele>450.0</ele>
        <time>2020-05-06T06:08:42Z</time>
      </trkpt>
      <trkpt lat="30.843731" lon="34.756041">
        <ele>449.8</ele>
        <time>2020-05-06T06:08:47Z</time>
      </trkpt>
      <trkpt lat="30.843646" lon="34.755869">
        <ele>449.0</ele>
        <time>2020-05-06T06:08:55Z</time>
      </trkpt>
      <trkpt lat="30.843624" lon="34.755830">
        <ele>448.8</ele>
        <time>2020-05-06T06:08:57Z</time>
      </trkpt>
      <trkpt lat="30.843576" lon="34.755778">
        <ele>448.8</ele>
        <time>2020-05-06T06:09:00Z</time>
      </trkpt>
      <trkpt lat="30.843560" lon="34.755748">
        <ele>449.0</ele>
        <time>2020-05-06T06:09:01Z</time>
      </trkpt>
      <trkpt lat="30.843517" lon="34.755675">
        <ele>449.4</ele>
        <time>2020-05-06T06:09:03Z</time>
      </trkpt>
      <trkpt lat="30.843488" lon="34.755657">
        <ele>449.6</ele>
        <time>2020-05-06T06:09:04Z</time>
      </trkpt>
      <trkpt lat="30.843387" lon="34.755677">
        <ele>450.4</ele>
        <time>2020-05-06T06:09:07Z</time>
      </trkpt>
      <trkpt lat="30.843264" lon="34.755532">
        <ele>451.6</ele>
        <time>2020-05-06T06:09:11Z</time>
      </trkpt>
      <trkpt lat="30.843071" lon="34.755290">
        <ele>452.8</ele>
        <time>2020-05-06T06:09:16Z</time>
      </trkpt>
      <trkpt lat="30.842946" lon="34.755188">
        <ele>453.8</ele>
        <time>2020-05-06T06:09:19Z</time>
      </trkpt>
      <trkpt lat="30.842853" lon="34.755141">
        <ele>454.4</ele>
        <time>2020-05-06T06:09:21Z</time>
      </trkpt>
      <trkpt lat="30.842809" lon="34.755124">
        <ele>454.6</ele>
        <time>2020-05-06T06:09:22Z</time>
      </trkpt>
      <trkpt lat="30.842738" lon="34.755033">
        <ele>454.8</ele>
        <time>2020-05-06T06:09:25Z</time>
      </trkpt>
      <trkpt lat="30.842729" lon="34.754878">
        <ele>454.4</ele>
        <time>2020-05-06T06:09:30Z</time>
      </trkpt>
      <trkpt lat="30.842783" lon="34.754559">
        <ele>453.8</ele>
        <time>2020-05-06T06:09:37Z</time>
      </trkpt>
      <trkpt lat="30.842791" lon="34.754377">
        <ele>453.8</ele>
        <time>2020-05-06T06:09:41Z</time>
      </trkpt>
      <trkpt lat="30.842772" lon="34.754306">
        <ele>453.6</ele>
        <time>2020-05-06T06:09:43Z</time>
      </trkpt>
      <trkpt lat="30.842737" lon="34.754121">
        <ele>453.0</ele>
        <time>2020-05-06T06:09:48Z</time>
      </trkpt>
      <trkpt lat="30.842630" lon="34.753866">
        <ele>453.0</ele>
        <time>2020-05-06T06:09:55Z</time>
      </trkpt>
      <trkpt lat="30.842554" lon="34.753681">
        <ele>453.2</ele>
        <time>2020-05-06T06:10:00Z</time>
      </trkpt>
      <trkpt lat="30.842546" lon="34.753627">
        <ele>453.6</ele>
        <time>2020-05-06T06:10:02Z</time>
      </trkpt>
      <trkpt lat="30.842558" lon="34.753578">
        <ele>453.8</ele>
        <time>2020-05-06T06:10:04Z</time>
      </trkpt>
      <trkpt lat="30.842578" lon="34.753549">
        <ele>453.8</ele>
        <time>2020-05-06T06:10:05Z</time>
      </trkpt>
      <trkpt lat="30.842642" lon="34.753456">
        <ele>454.2</ele>
        <time>2020-05-06T06:10:08Z</time>
      </trkpt>
      <trkpt lat="30.842690" lon="34.753420">
        <ele>454.8</ele>
        <time>2020-05-06T06:10:10Z</time>
      </trkpt>
      <trkpt lat="30.842705" lon="34.753392">
        <ele>455.2</ele>
        <time>2020-05-06T06:10:11Z</time>
      </trkpt>
      <trkpt lat="30.842691" lon="34.753292">
        <ele>456.0</ele>
        <time>2020-05-06T06:10:13Z</time>
      </trkpt>
      <trkpt lat="30.842645" lon="34.753120">
        <ele>456.8</ele>
        <time>2020-05-06T06:10:16Z</time>
      </trkpt>
      <trkpt lat="30.842614" lon="34.753011">
        <ele>457.2</ele>
        <time>2020-05-06T06:10:18Z</time>
      </trkpt>
      <trkpt lat="30.842614" lon="34.752957">
        <ele>457.4</ele>
        <time>2020-05-06T06:10:19Z</time>
      </trkpt>
      <trkpt lat="30.842627" lon="34.752901">
        <ele>457.8</ele>
        <time>2020-05-06T06:10:20Z</time>
      </trkpt>
      <trkpt lat="30.842651" lon="34.752845">
        <ele>458.4</ele>
        <time>2020-05-06T06:10:21Z</time>
      </trkpt>
      <trkpt lat="30.842683" lon="34.752792">
        <ele>459.0</ele>
        <time>2020-05-06T06:10:22Z</time>
      </trkpt>
      <trkpt lat="30.842726" lon="34.752754">
        <ele>459.4</ele>
        <time>2020-05-06T06:10:23Z</time>
      </trkpt>
      <trkpt lat="30.842814" lon="34.752700">
        <ele>460.4</ele>
        <time>2020-05-06T06:10:25Z</time>
      </trkpt>
      <trkpt lat="30.842838" lon="34.752649">
        <ele>460.6</ele>
        <time>2020-05-06T06:10:26Z</time>
      </trkpt>
      <trkpt lat="30.842844" lon="34.752589">
        <ele>461.0</ele>
        <time>2020-05-06T06:10:27Z</time>
      </trkpt>
      <trkpt lat="30.842840" lon="34.752532">
        <ele>461.2</ele>
        <time>2020-05-06T06:10:28Z</time>
      </trkpt>
      <trkpt lat="30.842833" lon="34.752477">
        <ele>461.4</ele>
        <time>2020-05-06T06:10:29Z</time>
      </trkpt>
      <trkpt lat="30.842827" lon="34.752425">
        <ele>461.6</ele>
        <time>2020-05-06T06:10:30Z</time>
      </trkpt>
      <trkpt lat="30.842832" lon="34.752379">
        <ele>462.0</ele>
        <time>2020-05-06T06:10:31Z</time>
      </trkpt>
      <trkpt lat="30.842852" lon="34.752336">
        <ele>462.2</ele>
        <time>2020-05-06T06:10:32Z</time>
      </trkpt>
      <trkpt lat="30.842882" lon="34.752308">
        <ele>462.4</ele>
        <time>2020-05-06T06:10:33Z</time>
      </trkpt>
      <trkpt lat="30.842920" lon="34.752287">
        <ele>462.6</ele>
        <time>2020-05-06T06:10:34Z</time>
      </trkpt>
      <trkpt lat="30.842957" lon="34.752264">
        <ele>463.0</ele>
        <time>2020-05-06T06:10:35Z</time>
      </trkpt>
      <trkpt lat="30.842985" lon="34.752231">
        <ele>463.2</ele>
        <time>2020-05-06T06:10:36Z</time>
      </trkpt>
      <trkpt lat="30.842977" lon="34.752065">
        <ele>463.8</ele>
        <time>2020-05-06T06:10:40Z</time>
      </trkpt>
      <trkpt lat="30.842954" lon="34.752017">
        <ele>463.8</ele>
        <time>2020-05-06T06:10:41Z</time>
      </trkpt>
      <trkpt lat="30.842855" lon="34.751891">
        <ele>464.0</ele>
        <time>2020-05-06T06:10:44Z</time>
      </trkpt>
      <trkpt lat="30.842827" lon="34.751851">
        <ele>464.2</ele>
        <time>2020-05-06T06:10:45Z</time>
      </trkpt>
      <trkpt lat="30.842723" lon="34.751558">
        <ele>465.0</ele>
        <time>2020-05-06T06:10:52Z</time>
      </trkpt>
      <trkpt lat="30.842715" lon="34.751518">
        <ele>465.2</ele>
        <time>2020-05-06T06:10:53Z</time>
      </trkpt>
      <trkpt lat="30.842706" lon="34.751477">
        <ele>465.2</ele>
        <time>2020-05-06T06:10:54Z</time>
      </trkpt>
      <trkpt lat="30.842699" lon="34.751439">
        <ele>465.2</ele>
        <time>2020-05-06T06:10:55Z</time>
      </trkpt>
      <trkpt lat="30.842676" lon="34.751307">
        <ele>465.0</ele>
        <time>2020-05-06T06:10:59Z</time>
      </trkpt>
      <trkpt lat="30.842675" lon="34.751276">
        <ele>464.8</ele>
        <time>2020-05-06T06:11:00Z</time>
      </trkpt>
      <trkpt lat="30.842709" lon="34.751116">
        <ele>464.6</ele>
        <time>2020-05-06T06:11:05Z</time>
      </trkpt>
      <trkpt lat="30.842711" lon="34.751083">
        <ele>464.8</ele>
        <time>2020-05-06T06:11:06Z</time>
      </trkpt>
      <trkpt lat="30.842665" lon="34.750999">
        <ele>465.4</ele>
        <time>2020-05-06T06:11:09Z</time>
      </trkpt>
      <trkpt lat="30.842581" lon="34.750859">
        <ele>465.4</ele>
        <time>2020-05-06T06:11:14Z</time>
      </trkpt>
      <trkpt lat="30.842566" lon="34.750836">
        <ele>465.2</ele>
        <time>2020-05-06T06:11:15Z</time>
      </trkpt>
      <trkpt lat="30.842515" lon="34.750802">
        <ele>464.0</ele>
        <time>2020-05-06T06:11:18Z</time>
      </trkpt>
      <trkpt lat="30.842453" lon="34.750784">
        <ele>463.6</ele>
        <time>2020-05-06T06:11:21Z</time>
      </trkpt>
      <trkpt lat="30.842345" lon="34.750715">
        <ele>463.4</ele>
        <time>2020-05-06T06:11:27Z</time>
      </trkpt>
      <trkpt lat="30.842316" lon="34.750686">
        <ele>463.2</ele>
        <time>2020-05-06T06:11:29Z</time>
      </trkpt>
      <trkpt lat="30.842297" lon="34.750688">
        <ele>463.2</ele>
        <time>2020-05-06T06:11:30Z</time>
      </trkpt>
      <trkpt lat="30.842264" lon="34.750710">
        <ele>462.8</ele>
        <time>2020-05-06T06:11:32Z</time>
      </trkpt>
      <trkpt lat="30.842250" lon="34.750718">
        <ele>462.6</ele>
        <time>2020-05-06T06:11:33Z</time>
      </trkpt>
      <trkpt lat="30.842237" lon="34.750721">
        <ele>462.4</ele>
        <time>2020-05-06T06:11:34Z</time>
      </trkpt>
      <trkpt lat="30.842187" lon="34.750704">
        <ele>462.4</ele>
        <time>2020-05-06T06:11:37Z</time>
      </trkpt>
      <trkpt lat="30.842167" lon="34.750694">
        <ele>462.4</ele>
        <time>2020-05-06T06:11:38Z</time>
      </trkpt>
      <trkpt lat="30.842097" lon="34.750675">
        <ele>462.4</ele>
        <time>2020-05-06T06:11:41Z</time>
      </trkpt>
      <trkpt lat="30.842075" lon="34.750673">
        <ele>462.6</ele>
        <time>2020-05-06T06:11:42Z</time>
      </trkpt>
      <trkpt lat="30.842059" lon="34.750670">
        <ele>462.6</ele>
        <time>2020-05-06T06:11:43Z</time>
      </trkpt>
      <trkpt lat="30.842043" lon="34.750669">
        <ele>462.4</ele>
        <time>2020-05-06T06:11:44Z</time>
      </trkpt>
      <trkpt lat="30.841940" lon="34.750708">
        <ele>462.0</ele>
        <time>2020-05-06T06:11:50Z</time>
      </trkpt>
      <trkpt lat="30.841923" lon="34.750729">
        <ele>461.8</ele>
        <time>2020-05-06T06:11:52Z</time>
      </trkpt>
      <trkpt lat="30.841883" lon="34.750729">
        <ele>461.4</ele>
        <time>2020-05-06T06:11:55Z</time>
      </trkpt>
      <trkpt lat="30.841830" lon="34.750745">
        <ele>461.6</ele>
        <time>2020-05-06T06:11:57Z</time>
      </trkpt>
      <trkpt lat="30.841767" lon="34.750779">
        <ele>462.4</ele>
        <time>2020-05-06T06:11:59Z</time>
      </trkpt>
      <trkpt lat="30.841743" lon="34.750776">
        <ele>462.8</ele>
        <time>2020-05-06T06:12:00Z</time>
      </trkpt>
      <trkpt lat="30.841699" lon="34.750729">
        <ele>463.8</ele>
        <time>2020-05-06T06:12:02Z</time>
      </trkpt>
      <trkpt lat="30.841676" lon="34.750697">
        <ele>464.4</ele>
        <time>2020-05-06T06:12:03Z</time>
      </trkpt>
      <trkpt lat="30.841649" lon="34.750667">
        <ele>464.4</ele>
        <time>2020-05-06T06:12:04Z</time>
      </trkpt>
      <trkpt lat="30.841578" lon="34.750617">
        <ele>464.8</ele>
        <time>2020-05-06T06:12:07Z</time>
      </trkpt>
      <trkpt lat="30.841541" lon="34.750651">
        <ele>465.2</ele>
        <time>2020-05-06T06:12:09Z</time>
      </trkpt>
      <trkpt lat="30.841536" lon="34.750680">
        <ele>465.4</ele>
        <time>2020-05-06T06:12:10Z</time>
      </trkpt>
      <trkpt lat="30.841538" lon="34.750703">
        <ele>465.6</ele>
        <time>2020-05-06T06:12:11Z</time>
      </trkpt>
      <trkpt lat="30.841525" lon="34.750775">
        <ele>466.2</ele>
        <time>2020-05-06T06:12:13Z</time>
      </trkpt>
      <trkpt lat="30.841494" lon="34.750821">
        <ele>466.8</ele>
        <time>2020-05-06T06:12:14Z</time>
      </trkpt>
      <trkpt lat="30.841447" lon="34.750862">
        <ele>467.6</ele>
        <time>2020-05-06T06:12:15Z</time>
      </trkpt>
      <trkpt lat="30.841329" lon="34.750934">
        <ele>469.4</ele>
        <time>2020-05-06T06:12:17Z</time>
      </trkpt>
      <trkpt lat="30.841261" lon="34.750966">
        <ele>470.0</ele>
        <time>2020-05-06T06:12:18Z</time>
      </trkpt>
      <trkpt lat="30.841189" lon="34.750996">
        <ele>470.6</ele>
        <time>2020-05-06T06:12:19Z</time>
      </trkpt>
      <trkpt lat="30.841054" lon="34.751049">
        <ele>472.2</ele>
        <time>2020-05-06T06:12:21Z</time>
      </trkpt>
      <trkpt lat="30.840921" lon="34.751107">
        <ele>474.0</ele>
        <time>2020-05-06T06:12:23Z</time>
      </trkpt>
      <trkpt lat="30.840856" lon="34.751146">
        <ele>475.0</ele>
        <time>2020-05-06T06:12:24Z</time>
      </trkpt>
      <trkpt lat="30.840799" lon="34.751191">
        <ele>475.8</ele>
        <time>2020-05-06T06:12:25Z</time>
      </trkpt>
      <trkpt lat="30.840747" lon="34.751243">
        <ele>476.8</ele>
        <time>2020-05-06T06:12:26Z</time>
      </trkpt>
      <trkpt lat="30.840697" lon="34.751296">
        <ele>478.0</ele>
        <time>2020-05-06T06:12:27Z</time>
      </trkpt>
      <trkpt lat="30.840654" lon="34.751349">
        <ele>478.8</ele>
        <time>2020-05-06T06:12:28Z</time>
      </trkpt>
      <trkpt lat="30.840620" lon="34.751399">
        <ele>479.4</ele>
        <time>2020-05-06T06:12:29Z</time>
      </trkpt>
      <trkpt lat="30.840596" lon="34.751440">
        <ele>480.0</ele>
        <time>2020-05-06T06:12:30Z</time>
      </trkpt>
      <trkpt lat="30.840605" lon="34.751569">
        <ele>481.0</ele>
        <time>2020-05-06T06:12:35Z</time>
      </trkpt>
      <trkpt lat="30.840575" lon="34.751608">
        <ele>479.4</ele>
        <time>2020-05-06T06:15:47Z</time>
      </trkpt>
      <trkpt lat="30.840439" lon="34.751540">
        <ele>479.6</ele>
        <time>2020-05-06T06:15:51Z</time>
      </trkpt>
      <trkpt lat="30.840266" lon="34.751507">
        <ele>480.0</ele>
        <time>2020-05-06T06:15:56Z</time>
      </trkpt>
      <trkpt lat="30.840160" lon="34.751505">
        <ele>479.8</ele>
        <time>2020-05-06T06:15:59Z</time>
      </trkpt>
      <trkpt lat="30.840090" lon="34.751502">
        <ele>479.8</ele>
        <time>2020-05-06T06:16:01Z</time>
      </trkpt>
      <trkpt lat="30.839946" lon="34.751438">
        <ele>479.6</ele>
        <time>2020-05-06T06:16:05Z</time>
      </trkpt>
      <trkpt lat="30.839782" lon="34.751377">
        <ele>479.8</ele>
        <time>2020-05-06T06:16:11Z</time>
      </trkpt>
      <trkpt lat="30.839617" lon="34.751337">
        <ele>479.6</ele>
        <time>2020-05-06T06:16:17Z</time>
      </trkpt>
      <trkpt lat="30.839562" lon="34.751323">
        <ele>479.6</ele>
        <time>2020-05-06T06:16:19Z</time>
      </trkpt>
      <trkpt lat="30.839467" lon="34.751330">
        <ele>480.2</ele>
        <time>2020-05-06T06:16:23Z</time>
      </trkpt>
      <trkpt lat="30.839440" lon="34.751322">
        <ele>480.4</ele>
        <time>2020-05-06T06:16:25Z</time>
      </trkpt>
      <trkpt lat="30.839431" lon="34.751313">
        <ele>480.2</ele>
        <time>2020-05-06T06:16:28Z</time>
      </trkpt>
      <trkpt lat="30.839430" lon="34.751319">
        <ele>480.0</ele>
        <time>2020-05-06T06:16:29Z</time>
      </trkpt>
      <trkpt lat="30.839393" lon="34.751270">
        <ele>479.4</ele>
        <time>2020-05-06T06:16:34Z</time>
      </trkpt>
      <trkpt lat="30.839376" lon="34.751256">
        <ele>479.4</ele>
        <time>2020-05-06T06:16:35Z</time>
      </trkpt>
      <trkpt lat="30.839260" lon="34.751154">
        <ele>479.6</ele>
        <time>2020-05-06T06:16:39Z</time>
      </trkpt>
      <trkpt lat="30.839135" lon="34.751003">
        <ele>479.2</ele>
        <time>2020-05-06T06:16:43Z</time>
      </trkpt>
      <trkpt lat="30.839009" lon="34.750843">
        <ele>479.2</ele>
        <time>2020-05-06T06:16:47Z</time>
      </trkpt>
      <trkpt lat="30.838979" lon="34.750802">
        <ele>479.4</ele>
        <time>2020-05-06T06:16:48Z</time>
      </trkpt>
      <trkpt lat="30.838951" lon="34.750763">
        <ele>479.4</ele>
        <time>2020-05-06T06:16:49Z</time>
      </trkpt>
      <trkpt lat="30.838796" lon="34.750570">
        <ele>480.6</ele>
        <time>2020-05-06T06:16:54Z</time>
      </trkpt>
      <trkpt lat="30.838724" lon="34.750484">
        <ele>480.6</ele>
        <time>2020-05-06T06:16:56Z</time>
      </trkpt>
      <trkpt lat="30.838499" lon="34.750206">
        <ele>480.4</ele>
        <time>2020-05-06T06:17:02Z</time>
      </trkpt>
      <trkpt lat="30.838427" lon="34.750116">
        <ele>480.4</ele>
        <time>2020-05-06T06:17:04Z</time>
      </trkpt>
      <trkpt lat="30.838389" lon="34.750071">
        <ele>480.4</ele>
        <time>2020-05-06T06:17:05Z</time>
      </trkpt>
      <trkpt lat="30.838311" lon="34.749987">
        <ele>480.6</ele>
        <time>2020-05-06T06:17:07Z</time>
      </trkpt>
      <trkpt lat="30.838122" lon="34.749762">
        <ele>481.0</ele>
        <time>2020-05-06T06:17:12Z</time>
      </trkpt>
      <trkpt lat="30.837791" lon="34.749414">
        <ele>480.6</ele>
        <time>2020-05-06T06:17:21Z</time>
      </trkpt>
      <trkpt lat="30.837576" lon="34.749174">
        <ele>480.2</ele>
        <time>2020-05-06T06:17:27Z</time>
      </trkpt>
      <trkpt lat="30.837461" lon="34.749034">
        <ele>480.4</ele>
        <time>2020-05-06T06:17:30Z</time>
      </trkpt>
      <trkpt lat="30.837397" lon="34.748918">
        <ele>480.6</ele>
        <time>2020-05-06T06:17:32Z</time>
      </trkpt>
      <trkpt lat="30.837268" lon="34.748609">
        <ele>481.4</ele>
        <time>2020-05-06T06:17:37Z</time>
      </trkpt>
      <trkpt lat="30.837138" lon="34.748306">
        <ele>481.8</ele>
        <time>2020-05-06T06:17:42Z</time>
      </trkpt>
      <trkpt lat="30.836936" lon="34.747869">
        <ele>482.2</ele>
        <time>2020-05-06T06:17:49Z</time>
      </trkpt>
      <trkpt lat="30.836902" lon="34.747814">
        <ele>482.6</ele>
        <time>2020-05-06T06:17:50Z</time>
      </trkpt>
      <trkpt lat="30.836604" lon="34.747404">
        <ele>483.6</ele>
        <time>2020-05-06T06:17:58Z</time>
      </trkpt>
      <trkpt lat="30.836566" lon="34.747354">
        <ele>483.8</ele>
        <time>2020-05-06T06:17:59Z</time>
      </trkpt>
      <trkpt lat="30.836404" lon="34.747161">
        <ele>484.2</ele>
        <time>2020-05-06T06:18:03Z</time>
      </trkpt>
      <trkpt lat="30.836327" lon="34.747070">
        <ele>484.2</ele>
        <time>2020-05-06T06:18:05Z</time>
      </trkpt>
      <trkpt lat="30.836096" lon="34.746690">
        <ele>484.8</ele>
        <time>2020-05-06T06:18:13Z</time>
      </trkpt>
      <trkpt lat="30.835961" lon="34.746363">
        <ele>485.2</ele>
        <time>2020-05-06T06:18:20Z</time>
      </trkpt>
      <trkpt lat="30.835900" lon="34.746249">
        <ele>484.8</ele>
        <time>2020-05-06T06:18:23Z</time>
      </trkpt>
      <trkpt lat="30.835852" lon="34.746164">
        <ele>484.0</ele>
        <time>2020-05-06T06:18:26Z</time>
      </trkpt>
      <trkpt lat="30.835810" lon="34.746112">
        <ele>483.8</ele>
        <time>2020-05-06T06:18:28Z</time>
      </trkpt>
      <trkpt lat="30.835761" lon="34.746058">
        <ele>483.8</ele>
        <time>2020-05-06T06:18:30Z</time>
      </trkpt>
      <trkpt lat="30.835736" lon="34.746029">
        <ele>483.6</ele>
        <time>2020-05-06T06:18:31Z</time>
      </trkpt>
      <trkpt lat="30.835691" lon="34.745971">
        <ele>483.2</ele>
        <time>2020-05-06T06:18:33Z</time>
      </trkpt>
      <trkpt lat="30.835662" lon="34.745855">
        <ele>482.4</ele>
        <time>2020-05-06T06:18:37Z</time>
      </trkpt>
      <trkpt lat="30.835659" lon="34.745820">
        <ele>482.2</ele>
        <time>2020-05-06T06:18:38Z</time>
      </trkpt>
      <trkpt lat="30.835652" lon="34.745782">
        <ele>482.2</ele>
        <time>2020-05-06T06:18:39Z</time>
      </trkpt>
      <trkpt lat="30.835602" lon="34.745731">
        <ele>482.2</ele>
        <time>2020-05-06T06:18:41Z</time>
      </trkpt>
      <trkpt lat="30.835502" lon="34.745716">
        <ele>482.4</ele>
        <time>2020-05-06T06:18:43Z</time>
      </trkpt>
      <trkpt lat="30.835407" lon="34.745692">
        <ele>482.8</ele>
        <time>2020-05-06T06:18:45Z</time>
      </trkpt>
      <trkpt lat="30.835352" lon="34.745681">
        <ele>483.0</ele>
        <time>2020-05-06T06:18:46Z</time>
      </trkpt>
      <trkpt lat="30.835235" lon="34.745669">
        <ele>483.4</ele>
        <time>2020-05-06T06:18:48Z</time>
      </trkpt>
      <trkpt lat="30.835176" lon="34.745674">
        <ele>483.4</ele>
        <time>2020-05-06T06:18:49Z</time>
      </trkpt>
      <trkpt lat="30.835114" lon="34.745687">
        <ele>483.8</ele>
        <time>2020-05-06T06:18:50Z</time>
      </trkpt>
      <trkpt lat="30.834981" lon="34.745709">
        <ele>484.4</ele>
        <time>2020-05-06T06:18:52Z</time>
      </trkpt>
      <trkpt lat="30.834913" lon="34.745705">
        <ele>485.0</ele>
        <time>2020-05-06T06:18:53Z</time>
      </trkpt>
      <trkpt lat="30.834851" lon="34.745687">
        <ele>485.6</ele>
        <time>2020-05-06T06:18:54Z</time>
      </trkpt>
      <trkpt lat="30.834798" lon="34.745658">
        <ele>486.0</ele>
        <time>2020-05-06T06:18:55Z</time>
      </trkpt>
      <trkpt lat="30.834662" lon="34.745558">
        <ele>486.8</ele>
        <time>2020-05-06T06:18:58Z</time>
      </trkpt>
      <trkpt lat="30.834619" lon="34.745527">
        <ele>487.0</ele>
        <time>2020-05-06T06:18:59Z</time>
      </trkpt>
      <trkpt lat="30.834432" lon="34.745387">
        <ele>488.0</ele>
        <time>2020-05-06T06:19:04Z</time>
      </trkpt>
      <trkpt lat="30.834368" lon="34.745345">
        <ele>488.6</ele>
        <time>2020-05-06T06:19:06Z</time>
      </trkpt>
      <trkpt lat="30.834246" lon="34.745312">
        <ele>489.0</ele>
        <time>2020-05-06T06:19:10Z</time>
      </trkpt>
      <trkpt lat="30.834189" lon="34.745232">
        <ele>489.0</ele>
        <time>2020-05-06T06:19:13Z</time>
      </trkpt>
      <trkpt lat="30.834048" lon="34.744930">
        <ele>489.4</ele>
        <time>2020-05-06T06:19:18Z</time>
      </trkpt>
      <trkpt lat="30.834022" lon="34.744858">
        <ele>489.4</ele>
        <time>2020-05-06T06:19:19Z</time>
      </trkpt>
      <trkpt lat="30.833982" lon="34.744723">
        <ele>490.2</ele>
        <time>2020-05-06T06:19:21Z</time>
      </trkpt>
      <trkpt lat="30.833966" lon="34.744660">
        <ele>490.4</ele>
        <time>2020-05-06T06:19:22Z</time>
      </trkpt>
      <trkpt lat="30.833955" lon="34.744598">
        <ele>490.6</ele>
        <time>2020-05-06T06:19:23Z</time>
      </trkpt>
      <trkpt lat="30.833947" lon="34.744537">
        <ele>490.6</ele>
        <time>2020-05-06T06:19:24Z</time>
      </trkpt>
      <trkpt lat="30.833945" lon="34.744478">
        <ele>490.6</ele>
        <time>2020-05-06T06:19:25Z</time>
      </trkpt>
      <trkpt lat="30.833964" lon="34.744199">
        <ele>491.4</ele>
        <time>2020-05-06T06:19:30Z</time>
      </trkpt>
      <trkpt lat="30.833954" lon="34.743937">
        <ele>491.4</ele>
        <time>2020-05-06T06:19:34Z</time>
      </trkpt>
      <trkpt lat="30.833936" lon="34.743731">
        <ele>492.0</ele>
        <time>2020-05-06T06:19:37Z</time>
      </trkpt>
      <trkpt lat="30.833934" lon="34.743659">
        <ele>492.4</ele>
        <time>2020-05-06T06:19:38Z</time>
      </trkpt>
      <trkpt lat="30.833934" lon="34.743464">
        <ele>493.2</ele>
        <time>2020-05-06T06:19:41Z</time>
      </trkpt>
      <trkpt lat="30.833919" lon="34.743359">
        <ele>493.6</ele>
        <time>2020-05-06T06:19:43Z</time>
      </trkpt>
      <trkpt lat="30.833907" lon="34.743312">
        <ele>493.6</ele>
        <time>2020-05-06T06:19:44Z</time>
      </trkpt>
      <trkpt lat="30.833888" lon="34.743270">
        <ele>493.8</ele>
        <time>2020-05-06T06:19:45Z</time>
      </trkpt>
      <trkpt lat="30.833833" lon="34.743196">
        <ele>494.0</ele>
        <time>2020-05-06T06:19:47Z</time>
      </trkpt>
      <trkpt lat="30.833749" lon="34.743125">
        <ele>494.0</ele>
        <time>2020-05-06T06:19:49Z</time>
      </trkpt>
      <trkpt lat="30.833652" lon="34.743046">
        <ele>494.2</ele>
        <time>2020-05-06T06:19:51Z</time>
      </trkpt>
      <trkpt lat="30.833545" lon="34.742969">
        <ele>494.8</ele>
        <time>2020-05-06T06:19:53Z</time>
      </trkpt>
      <trkpt lat="30.833431" lon="34.742890">
        <ele>495.4</ele>
        <time>2020-05-06T06:19:55Z</time>
      </trkpt>
      <trkpt lat="30.833376" lon="34.742849">
        <ele>495.8</ele>
        <time>2020-05-06T06:19:56Z</time>
      </trkpt>
      <trkpt lat="30.833196" lon="34.742694">
        <ele>497.2</ele>
        <time>2020-05-06T06:19:59Z</time>
      </trkpt>
      <trkpt lat="30.833138" lon="34.742631">
        <ele>497.4</ele>
        <time>2020-05-06T06:20:00Z</time>
      </trkpt>
      <trkpt lat="30.832929" lon="34.742400">
        <ele>497.8</ele>
        <time>2020-05-06T06:20:04Z</time>
      </trkpt>
      <trkpt lat="30.832834" lon="34.742297">
        <ele>498.2</ele>
        <time>2020-05-06T06:20:06Z</time>
      </trkpt>
      <trkpt lat="30.832788" lon="34.742245">
        <ele>498.4</ele>
        <time>2020-05-06T06:20:07Z</time>
      </trkpt>
      <trkpt lat="30.832600" lon="34.742058">
        <ele>499.4</ele>
        <time>2020-05-06T06:20:11Z</time>
      </trkpt>
      <trkpt lat="30.832547" lon="34.742017">
        <ele>499.6</ele>
        <time>2020-05-06T06:20:12Z</time>
      </trkpt>
      <trkpt lat="30.832493" lon="34.741978">
        <ele>499.8</ele>
        <time>2020-05-06T06:20:13Z</time>
      </trkpt>
      <trkpt lat="30.832386" lon="34.741899">
        <ele>500.6</ele>
        <time>2020-05-06T06:20:15Z</time>
      </trkpt>
      <trkpt lat="30.832331" lon="34.741861">
        <ele>500.8</ele>
        <time>2020-05-06T06:20:16Z</time>
      </trkpt>
      <trkpt lat="30.832216" lon="34.741802">
        <ele>501.4</ele>
        <time>2020-05-06T06:20:18Z</time>
      </trkpt>
      <trkpt lat="30.832160" lon="34.741773">
        <ele>501.6</ele>
        <time>2020-05-06T06:20:19Z</time>
      </trkpt>
      <trkpt lat="30.831853" lon="34.741619">
        <ele>502.8</ele>
        <time>2020-05-06T06:20:24Z</time>
      </trkpt>
      <trkpt lat="30.831800" lon="34.741581">
        <ele>503.2</ele>
        <time>2020-05-06T06:20:25Z</time>
      </trkpt>
      <trkpt lat="30.831615" lon="34.741405">
        <ele>504.0</ele>
        <time>2020-05-06T06:20:29Z</time>
      </trkpt>
      <trkpt lat="30.831575" lon="34.741359">
        <ele>504.2</ele>
        <time>2020-05-06T06:20:30Z</time>
      </trkpt>
      <trkpt lat="30.831505" lon="34.741282">
        <ele>504.6</ele>
        <time>2020-05-06T06:20:32Z</time>
      </trkpt>
      <trkpt lat="30.831439" lon="34.741248">
        <ele>505.0</ele>
        <time>2020-05-06T06:20:34Z</time>
      </trkpt>
      <trkpt lat="30.831244" lon="34.741323">
        <ele>505.4</ele>
        <time>2020-05-06T06:20:40Z</time>
      </trkpt>
      <trkpt lat="30.831067" lon="34.741442">
        <ele>505.2</ele>
        <time>2020-05-06T06:20:46Z</time>
      </trkpt>
      <trkpt lat="30.831017" lon="34.741518">
        <ele>505.0</ele>
        <time>2020-05-06T06:20:49Z</time>
      </trkpt>
      <trkpt lat="30.830985" lon="34.741612">
        <ele>504.0</ele>
        <time>2020-05-06T06:20:53Z</time>
      </trkpt>
      <trkpt lat="30.830898" lon="34.741781">
        <ele>503.4</ele>
        <time>2020-05-06T06:21:00Z</time>
      </trkpt>
      <trkpt lat="30.830864" lon="34.741855">
        <ele>503.2</ele>
        <time>2020-05-06T06:21:02Z</time>
      </trkpt>
      <trkpt lat="30.830840" lon="34.742034">
        <ele>503.2</ele>
        <time>2020-05-06T06:21:06Z</time>
      </trkpt>
      <trkpt lat="30.830835" lon="34.742223">
        <ele>504.0</ele>
        <time>2020-05-06T06:21:11Z</time>
      </trkpt>
      <trkpt lat="30.830939" lon="34.742509">
        <ele>504.0</ele>
        <time>2020-05-06T06:21:19Z</time>
      </trkpt>
      <trkpt lat="30.831001" lon="34.742686">
        <ele>503.6</ele>
        <time>2020-05-06T06:21:25Z</time>
      </trkpt>
      <trkpt lat="30.831115" lon="34.742989">
        <ele>504.0</ele>
        <time>2020-05-06T06:21:33Z</time>
      </trkpt>
      <trkpt lat="30.831196" lon="34.743283">
        <ele>503.6</ele>
        <time>2020-05-06T06:21:41Z</time>
      </trkpt>
      <trkpt lat="30.831189" lon="34.743588">
        <ele>503.2</ele>
        <time>2020-05-06T06:21:49Z</time>
      </trkpt>
      <trkpt lat="30.831133" lon="34.743874">
        <ele>503.8</ele>
        <time>2020-05-06T06:21:56Z</time>
      </trkpt>
      <trkpt lat="30.831174" lon="34.744105">
        <ele>504.2</ele>
        <time>2020-05-06T06:22:01Z</time>
      </trkpt>
      <trkpt lat="30.831295" lon="34.744308">
        <ele>504.0</ele>
        <time>2020-05-06T06:22:07Z</time>
      </trkpt>
      <trkpt lat="30.831387" lon="34.744601">
        <ele>504.2</ele>
        <time>2020-05-06T06:22:14Z</time>
      </trkpt>
      <trkpt lat="30.831414" lon="34.744895">
        <ele>504.0</ele>
        <time>2020-05-06T06:22:21Z</time>
      </trkpt>
      <trkpt lat="30.831430" lon="34.745024">
        <ele>504.0</ele>
        <time>2020-05-06T06:22:24Z</time>
      </trkpt>
      <trkpt lat="30.831453" lon="34.745204">
        <ele>504.6</ele>
        <time>2020-05-06T06:22:28Z</time>
      </trkpt>
      <trkpt lat="30.831557" lon="34.745581">
        <ele>505.2</ele>
        <time>2020-05-06T06:22:37Z</time>
      </trkpt>
      <trkpt lat="30.831594" lon="34.745735">
        <ele>505.0</ele>
        <time>2020-05-06T06:22:41Z</time>
      </trkpt>
      <trkpt lat="30.831609" lon="34.745808">
        <ele>505.2</ele>
        <time>2020-05-06T06:22:43Z</time>
      </trkpt>
      <trkpt lat="30.831619" lon="34.745871">
        <ele>505.0</ele>
        <time>2020-05-06T06:22:45Z</time>
      </trkpt>
      <trkpt lat="30.831623" lon="34.745903">
        <ele>505.0</ele>
        <time>2020-05-06T06:22:46Z</time>
      </trkpt>
      <trkpt lat="30.831632" lon="34.746130">
        <ele>504.6</ele>
        <time>2020-05-06T06:22:53Z</time>
      </trkpt>
      <trkpt lat="30.831669" lon="34.746333">
        <ele>505.2</ele>
        <time>2020-05-06T06:22:59Z</time>
      </trkpt>
      <trkpt lat="30.831685" lon="34.746364">
        <ele>505.0</ele>
        <time>2020-05-06T06:23:00Z</time>
      </trkpt>
      <trkpt lat="30.831714" lon="34.746426">
        <ele>504.8</ele>
        <time>2020-05-06T06:23:02Z</time>
      </trkpt>
      <trkpt lat="30.831778" lon="34.746562">
        <ele>503.8</ele>
        <time>2020-05-06T06:23:07Z</time>
      </trkpt>
      <trkpt lat="30.831849" lon="34.746713">
        <ele>503.8</ele>
        <time>2020-05-06T06:23:13Z</time>
      </trkpt>
      <trkpt lat="30.831893" lon="34.746842">
        <ele>504.0</ele>
        <time>2020-05-06T06:23:17Z</time>
      </trkpt>
      <trkpt lat="30.831942" lon="34.747032">
        <ele>503.2</ele>
        <time>2020-05-06T06:23:22Z</time>
      </trkpt>
      <trkpt lat="30.831954" lon="34.747074">
        <ele>503.0</ele>
        <time>2020-05-06T06:23:23Z</time>
      </trkpt>
      <trkpt lat="30.832003" lon="34.747318">
        <ele>501.6</ele>
        <time>2020-05-06T06:23:29Z</time>
      </trkpt>
      <trkpt lat="30.832032" lon="34.747668">
        <ele>501.2</ele>
        <time>2020-05-06T06:23:37Z</time>
      </trkpt>
      <trkpt lat="30.832032" lon="34.747714">
        <ele>501.4</ele>
        <time>2020-05-06T06:23:38Z</time>
      </trkpt>
      <trkpt lat="30.832016" lon="34.747903">
        <ele>501.6</ele>
        <time>2020-05-06T06:23:42Z</time>
      </trkpt>
      <trkpt lat="30.832008" lon="34.748010">
        <ele>501.6</ele>
        <time>2020-05-06T06:23:44Z</time>
      </trkpt>
      <trkpt lat="30.831999" lon="34.748113">
        <ele>501.4</ele>
        <time>2020-05-06T06:23:46Z</time>
      </trkpt>
      <trkpt lat="30.831989" lon="34.748270">
        <ele>501.2</ele>
        <time>2020-05-06T06:23:49Z</time>
      </trkpt>
      <trkpt lat="30.831988" lon="34.748322">
        <ele>501.2</ele>
        <time>2020-05-06T06:23:50Z</time>
      </trkpt>
      <trkpt lat="30.832004" lon="34.748473">
        <ele>501.2</ele>
        <time>2020-05-06T06:23:53Z</time>
      </trkpt>
      <trkpt lat="30.832022" lon="34.748657">
        <ele>501.4</ele>
        <time>2020-05-06T06:23:57Z</time>
      </trkpt>
      <trkpt lat="30.832030" lon="34.748754">
        <ele>501.4</ele>
        <time>2020-05-06T06:23:59Z</time>
      </trkpt>
      <trkpt lat="30.832035" lon="34.748854">
        <ele>501.6</ele>
        <time>2020-05-06T06:24:01Z</time>
      </trkpt>
      <trkpt lat="30.832046" lon="34.749099">
        <ele>501.8</ele>
        <time>2020-05-06T06:24:06Z</time>
      </trkpt>
      <trkpt lat="30.832052" lon="34.749201">
        <ele>501.8</ele>
        <time>2020-05-06T06:24:08Z</time>
      </trkpt>
      <trkpt lat="30.832052" lon="34.749253">
        <ele>501.8</ele>
        <time>2020-05-06T06:24:09Z</time>
      </trkpt>
      <trkpt lat="30.832049" lon="34.749493">
        <ele>502.0</ele>
        <time>2020-05-06T06:24:14Z</time>
      </trkpt>
      <trkpt lat="30.832047" lon="34.749633">
        <ele>503.2</ele>
        <time>2020-05-06T06:24:17Z</time>
      </trkpt>
      <trkpt lat="30.832046" lon="34.749681">
        <ele>503.6</ele>
        <time>2020-05-06T06:24:18Z</time>
      </trkpt>
      <trkpt lat="30.832043" lon="34.749779">
        <ele>504.2</ele>
        <time>2020-05-06T06:24:20Z</time>
      </trkpt>
      <trkpt lat="30.832040" lon="34.749829">
        <ele>504.4</ele>
        <time>2020-05-06T06:24:21Z</time>
      </trkpt>
      <trkpt lat="30.832032" lon="34.750017">
        <ele>505.0</ele>
        <time>2020-05-06T06:24:25Z</time>
      </trkpt>
      <trkpt lat="30.832020" lon="34.750112">
        <ele>505.2</ele>
        <time>2020-05-06T06:24:27Z</time>
      </trkpt>
      <trkpt lat="30.832001" lon="34.750309">
        <ele>505.6</ele>
        <time>2020-05-06T06:24:31Z</time>
      </trkpt>
      <trkpt lat="30.831978" lon="34.750463">
        <ele>506.8</ele>
        <time>2020-05-06T06:24:34Z</time>
      </trkpt>
      <trkpt lat="30.831967" lon="34.750511">
        <ele>507.2</ele>
        <time>2020-05-06T06:24:35Z</time>
      </trkpt>
      <trkpt lat="30.831935" lon="34.750602">
        <ele>507.8</ele>
        <time>2020-05-06T06:24:37Z</time>
      </trkpt>
      <trkpt lat="30.831903" lon="34.750694">
        <ele>509.0</ele>
        <time>2020-05-06T06:24:39Z</time>
      </trkpt>
      <trkpt lat="30.831877" lon="34.750783">
        <ele>509.6</ele>
        <time>2020-05-06T06:24:41Z</time>
      </trkpt>
      <trkpt lat="30.831864" lon="34.750880">
        <ele>509.8</ele>
        <time>2020-05-06T06:24:43Z</time>
      </trkpt>
      <trkpt lat="30.831876" lon="34.750990">
        <ele>510.2</ele>
        <time>2020-05-06T06:24:45Z</time>
      </trkpt>
      <trkpt lat="30.831884" lon="34.751055">
        <ele>510.4</ele>
        <time>2020-05-06T06:24:46Z</time>
      </trkpt>
      <trkpt lat="30.831892" lon="34.751119">
        <ele>510.4</ele>
        <time>2020-05-06T06:24:47Z</time>
      </trkpt>
      <trkpt lat="30.831921" lon="34.751230">
        <ele>510.8</ele>
        <time>2020-05-06T06:24:49Z</time>
      </trkpt>
      <trkpt lat="30.831943" lon="34.751281">
        <ele>511.0</ele>
        <time>2020-05-06T06:24:50Z</time>
      </trkpt>
      <trkpt lat="30.831967" lon="34.751328">
        <ele>511.2</ele>
        <time>2020-05-06T06:24:51Z</time>
      </trkpt>
      <trkpt lat="30.831993" lon="34.751380">
        <ele>511.6</ele>
        <time>2020-05-06T06:24:52Z</time>
      </trkpt>
      <trkpt lat="30.832045" lon="34.751464">
        <ele>512.0</ele>
        <time>2020-05-06T06:24:54Z</time>
      </trkpt>
      <trkpt lat="30.832068" lon="34.751503">
        <ele>512.4</ele>
        <time>2020-05-06T06:24:55Z</time>
      </trkpt>
      <trkpt lat="30.832088" lon="34.751542">
        <ele>512.6</ele>
        <time>2020-05-06T06:24:56Z</time>
      </trkpt>
      <trkpt lat="30.832140" lon="34.751601">
        <ele>513.2</ele>
        <time>2020-05-06T06:24:58Z</time>
      </trkpt>
      <trkpt lat="30.832180" lon="34.751628">
        <ele>513.4</ele>
        <time>2020-05-06T06:24:59Z</time>
      </trkpt>
      <trkpt lat="30.832218" lon="34.751660">
        <ele>513.8</ele>
        <time>2020-05-06T06:25:00Z</time>
      </trkpt>
      <trkpt lat="30.832328" lon="34.751758">
        <ele>514.6</ele>
        <time>2020-05-06T06:25:03Z</time>
      </trkpt>
      <trkpt lat="30.832360" lon="34.751786">
        <ele>515.0</ele>
        <time>2020-05-06T06:25:04Z</time>
      </trkpt>
      <trkpt lat="30.832401" lon="34.751830">
        <ele>515.2</ele>
        <time>2020-05-06T06:25:06Z</time>
      </trkpt>
      <trkpt lat="30.832408" lon="34.751860">
        <ele>515.0</ele>
        <time>2020-05-06T06:25:07Z</time>
      </trkpt>
      <trkpt lat="30.832409" lon="34.751906">
        <ele>515.0</ele>
        <time>2020-05-06T06:25:09Z</time>
      </trkpt>
      <trkpt lat="30.832414" lon="34.751917">
        <ele>514.8</ele>
        <time>2020-05-06T06:25:12Z</time>
      </trkpt>
      <trkpt lat="30.832413" lon="34.751916">
        <ele>515.0</ele>
        <time>2020-05-06T06:25:14Z</time>
      </trkpt>
      <trkpt lat="30.832412" lon="34.751918">
        <ele>515.0</ele>
        <time>2020-05-06T06:25:15Z</time>
      </trkpt>
      <trkpt lat="30.832394" lon="34.751924">
        <ele>515.4</ele>
        <time>2020-05-06T06:25:18Z</time>
      </trkpt>
      <trkpt lat="30.832371" lon="34.751934">
        <ele>515.6</ele>
        <time>2020-05-06T06:25:20Z</time>
      </trkpt>
      <trkpt lat="30.832357" lon="34.751929">
        <ele>516.0</ele>
        <time>2020-05-06T06:25:23Z</time>
      </trkpt>
      <trkpt lat="30.832355" lon="34.751926">
        <ele>516.2</ele>
        <time>2020-05-06T06:25:25Z</time>
      </trkpt>
      <trkpt lat="30.832416" lon="34.751964">
        <ele>517.0</ele>
        <time>2020-05-06T06:25:29Z</time>
      </trkpt>
      <trkpt lat="30.832514" lon="34.752035">
        <ele>518.2</ele>
        <time>2020-05-06T06:25:32Z</time>
      </trkpt>
      <trkpt lat="30.832637" lon="34.752102">
        <ele>519.4</ele>
        <time>2020-05-06T06:25:36Z</time>
      </trkpt>
      <trkpt lat="30.832669" lon="34.752118">
        <ele>519.6</ele>
        <time>2020-05-06T06:25:37Z</time>
      </trkpt>
      <trkpt lat="30.832739" lon="34.752139">
        <ele>519.8</ele>
        <time>2020-05-06T06:25:39Z</time>
      </trkpt>
      <trkpt lat="30.832842" lon="34.752154">
        <ele>520.2</ele>
        <time>2020-05-06T06:25:42Z</time>
      </trkpt>
      <trkpt lat="30.833057" lon="34.752288">
        <ele>521.0</ele>
        <time>2020-05-06T06:25:49Z</time>
      </trkpt>
      <trkpt lat="30.833084" lon="34.752316">
        <ele>521.0</ele>
        <time>2020-05-06T06:25:50Z</time>
      </trkpt>
      <trkpt lat="30.833190" lon="34.752429">
        <ele>521.2</ele>
        <time>2020-05-06T06:25:54Z</time>
      </trkpt>
      <trkpt lat="30.833212" lon="34.752458">
        <ele>521.2</ele>
        <time>2020-05-06T06:25:55Z</time>
      </trkpt>
      <trkpt lat="30.833350" lon="34.752715">
        <ele>521.0</ele>
        <time>2020-05-06T06:26:03Z</time>
      </trkpt>
      <trkpt lat="30.833383" lon="34.752882">
        <ele>521.0</ele>
        <time>2020-05-06T06:26:08Z</time>
      </trkpt>
      <trkpt lat="30.833389" lon="34.752913">
        <ele>520.8</ele>
        <time>2020-05-06T06:26:09Z</time>
      </trkpt>
      <trkpt lat="30.833405" lon="34.752983">
        <ele>520.4</ele>
        <time>2020-05-06T06:26:11Z</time>
      </trkpt>
      <trkpt lat="30.833420" lon="34.753054">
        <ele>520.6</ele>
        <time>2020-05-06T06:26:13Z</time>
      </trkpt>
      <trkpt lat="30.833434" lon="34.753186">
        <ele>521.8</ele>
        <time>2020-05-06T06:26:17Z</time>
      </trkpt>
      <trkpt lat="30.833555" lon="34.753444">
        <ele>523.2</ele>
        <time>2020-05-06T06:26:24Z</time>
      </trkpt>
      <trkpt lat="30.833569" lon="34.753474">
        <ele>522.8</ele>
        <time>2020-05-06T06:26:25Z</time>
      </trkpt>
      <trkpt lat="30.833597" lon="34.753536">
        <ele>522.2</ele>
        <time>2020-05-06T06:26:27Z</time>
      </trkpt>
      <trkpt lat="30.833626" lon="34.753594">
        <ele>522.2</ele>
        <time>2020-05-06T06:26:29Z</time>
      </trkpt>
      <trkpt lat="30.833636" lon="34.753690">
        <ele>523.0</ele>
        <time>2020-05-06T06:26:32Z</time>
      </trkpt>
      <trkpt lat="30.833630" lon="34.753784">
        <ele>524.0</ele>
        <time>2020-05-06T06:26:35Z</time>
      </trkpt>
      <trkpt lat="30.833644" lon="34.753877">
        <ele>525.0</ele>
        <time>2020-05-06T06:26:38Z</time>
      </trkpt>
      <trkpt lat="30.833661" lon="34.753906">
        <ele>525.0</ele>
        <time>2020-05-06T06:26:39Z</time>
      </trkpt>
      <trkpt lat="30.833686" lon="34.753928">
        <ele>525.2</ele>
        <time>2020-05-06T06:26:40Z</time>
      </trkpt>
      <trkpt lat="30.833785" lon="34.753999">
        <ele>524.6</ele>
        <time>2020-05-06T06:26:44Z</time>
      </trkpt>
      <trkpt lat="30.833802" lon="34.754023">
        <ele>524.2</ele>
        <time>2020-05-06T06:26:45Z</time>
      </trkpt>
      <trkpt lat="30.833852" lon="34.754127">
        <ele>523.8</ele>
        <time>2020-05-06T06:26:50Z</time>
      </trkpt>
      <trkpt lat="30.833858" lon="34.754143">
        <ele>523.8</ele>
        <time>2020-05-06T06:26:51Z</time>
      </trkpt>
      <trkpt lat="30.833863" lon="34.754157">
        <ele>523.8</ele>
        <time>2020-05-06T06:26:52Z</time>
      </trkpt>
      <trkpt lat="30.833875" lon="34.754167">
        <ele>523.8</ele>
        <time>2020-05-06T06:27:26Z</time>
      </trkpt>
      <trkpt lat="30.833876" lon="34.754168">
        <ele>523.8</ele>
        <time>2020-05-06T06:27:27Z</time>
      </trkpt>
      <trkpt lat="30.833879" lon="34.754183">
        <ele>523.8</ele>
        <time>2020-05-06T06:27:34Z</time>
      </trkpt>
      <trkpt lat="30.833886" lon="34.754200">
        <ele>524.8</ele>
        <time>2020-05-06T06:43:56Z</time>
      </trkpt>
      <trkpt lat="30.833877" lon="34.754214">
        <ele>524.8</ele>
        <time>2020-05-06T06:44:09Z</time>
      </trkpt>
      <trkpt lat="30.833863" lon="34.754238">
        <ele>524.4</ele>
        <time>2020-05-06T06:44:32Z</time>
      </trkpt>
      <trkpt lat="30.833848" lon="34.754346">
        <ele>524.0</ele>
        <time>2020-05-06T06:44:38Z</time>
      </trkpt>
      <trkpt lat="30.833754" lon="34.754464">
        <ele>524.4</ele>
        <time>2020-05-06T06:44:44Z</time>
      </trkpt>
      <trkpt lat="30.833699" lon="34.754521">
        <ele>524.0</ele>
        <time>2020-05-06T06:44:47Z</time>
      </trkpt>
      <trkpt lat="30.833588" lon="34.754600">
        <ele>523.8</ele>
        <time>2020-05-06T06:44:52Z</time>
      </trkpt>
      <trkpt lat="30.833412" lon="34.754696">
        <ele>523.0</ele>
        <time>2020-05-06T06:44:59Z</time>
      </trkpt>
      <trkpt lat="30.833232" lon="34.754800">
        <ele>523.4</ele>
        <time>2020-05-06T06:45:06Z</time>
      </trkpt>
      <trkpt lat="30.833053" lon="34.754912">
        <ele>523.6</ele>
        <time>2020-05-06T06:45:14Z</time>
      </trkpt>
      <trkpt lat="30.832905" lon="34.754933">
        <ele>523.0</ele>
        <time>2020-05-06T06:45:21Z</time>
      </trkpt>
      <trkpt lat="30.832882" lon="34.754932">
        <ele>523.0</ele>
        <time>2020-05-06T06:45:22Z</time>
      </trkpt>
      <trkpt lat="30.832747" lon="34.754895">
        <ele>522.0</ele>
        <time>2020-05-06T06:45:29Z</time>
      </trkpt>
      <trkpt lat="30.832707" lon="34.754883">
        <ele>521.8</ele>
        <time>2020-05-06T06:45:31Z</time>
      </trkpt>
      <trkpt lat="30.832580" lon="34.754822">
        <ele>521.0</ele>
        <time>2020-05-06T06:45:38Z</time>
      </trkpt>
      <trkpt lat="30.832559" lon="34.754812">
        <ele>520.6</ele>
        <time>2020-05-06T06:45:39Z</time>
      </trkpt>
      <trkpt lat="30.832424" lon="34.754741">
        <ele>519.6</ele>
        <time>2020-05-06T06:45:46Z</time>
      </trkpt>
      <trkpt lat="30.832388" lon="34.754715">
        <ele>519.4</ele>
        <time>2020-05-06T06:45:48Z</time>
      </trkpt>
      <trkpt lat="30.832294" lon="34.754646">
        <ele>518.8</ele>
        <time>2020-05-06T06:45:54Z</time>
      </trkpt>
      <trkpt lat="30.832258" lon="34.754627">
        <ele>518.6</ele>
        <time>2020-05-06T06:45:56Z</time>
      </trkpt>
      <trkpt lat="30.832165" lon="34.754603">
        <ele>517.4</ele>
        <time>2020-05-06T06:46:01Z</time>
      </trkpt>
      <trkpt lat="30.832129" lon="34.754599">
        <ele>517.4</ele>
        <time>2020-05-06T06:46:03Z</time>
      </trkpt>
      <trkpt lat="30.831990" lon="34.754589">
        <ele>516.8</ele>
        <time>2020-05-06T06:46:10Z</time>
      </trkpt>
      <trkpt lat="30.831831" lon="34.754589">
        <ele>516.6</ele>
        <time>2020-05-06T06:46:17Z</time>
      </trkpt>
      <trkpt lat="30.831814" lon="34.754588">
        <ele>516.4</ele>
        <time>2020-05-06T06:46:18Z</time>
      </trkpt>
      <trkpt lat="30.831665" lon="34.754552">
        <ele>515.4</ele>
        <time>2020-05-06T06:46:26Z</time>
      </trkpt>
      <trkpt lat="30.831587" lon="34.754539">
        <ele>515.4</ele>
        <time>2020-05-06T06:46:30Z</time>
      </trkpt>
      <trkpt lat="30.831487" lon="34.754511">
        <ele>515.2</ele>
        <time>2020-05-06T06:46:35Z</time>
      </trkpt>
      <trkpt lat="30.831344" lon="34.754491">
        <ele>514.4</ele>
        <time>2020-05-06T06:46:43Z</time>
      </trkpt>
      <trkpt lat="30.831328" lon="34.754491">
        <ele>514.2</ele>
        <time>2020-05-06T06:46:44Z</time>
      </trkpt>
      <trkpt lat="30.831200" lon="34.754500">
        <ele>513.6</ele>
        <time>2020-05-06T06:46:51Z</time>
      </trkpt>
      <trkpt lat="30.831083" lon="34.754506">
        <ele>513.2</ele>
        <time>2020-05-06T06:46:58Z</time>
      </trkpt>
      <trkpt lat="30.831045" lon="34.754509">
        <ele>513.2</ele>
        <time>2020-05-06T06:47:00Z</time>
      </trkpt>
      <trkpt lat="30.830933" lon="34.754531">
        <ele>512.2</ele>
        <time>2020-05-06T06:47:06Z</time>
      </trkpt>
      <trkpt lat="30.830917" lon="34.754532">
        <ele>512.0</ele>
        <time>2020-05-06T06:47:07Z</time>
      </trkpt>
      <trkpt lat="30.830790" lon="34.754521">
        <ele>511.2</ele>
        <time>2020-05-06T06:47:14Z</time>
      </trkpt>
      <trkpt lat="30.830627" lon="34.754534">
        <ele>510.2</ele>
        <time>2020-05-06T06:47:22Z</time>
      </trkpt>
      <trkpt lat="30.830563" lon="34.754543">
        <ele>510.2</ele>
        <time>2020-05-06T06:47:25Z</time>
      </trkpt>
      <trkpt lat="30.830491" lon="34.754566">
        <ele>509.8</ele>
        <time>2020-05-06T06:47:29Z</time>
      </trkpt>
      <trkpt lat="30.830457" lon="34.754582">
        <ele>509.2</ele>
        <time>2020-05-06T06:47:31Z</time>
      </trkpt>
      <trkpt lat="30.830361" lon="34.754658">
        <ele>508.0</ele>
        <time>2020-05-06T06:47:37Z</time>
      </trkpt>
      <trkpt lat="30.830236" lon="34.754760">
        <ele>508.2</ele>
        <time>2020-05-06T06:47:44Z</time>
      </trkpt>
      <trkpt lat="30.830108" lon="34.754875">
        <ele>507.6</ele>
        <time>2020-05-06T06:47:52Z</time>
      </trkpt>
      <trkpt lat="30.830012" lon="34.755018">
        <ele>507.6</ele>
        <time>2020-05-06T06:47:58Z</time>
      </trkpt>
      <trkpt lat="30.829917" lon="34.755198">
        <ele>507.6</ele>
        <time>2020-05-06T06:48:06Z</time>
      </trkpt>
      <trkpt lat="30.829883" lon="34.755255">
        <ele>507.0</ele>
        <time>2020-05-06T06:48:09Z</time>
      </trkpt>
      <trkpt lat="30.829843" lon="34.755296">
        <ele>506.6</ele>
        <time>2020-05-06T06:48:12Z</time>
      </trkpt>
      <trkpt lat="30.829760" lon="34.755363">
        <ele>506.0</ele>
        <time>2020-05-06T06:48:17Z</time>
      </trkpt>
      <trkpt lat="30.829709" lon="34.755396">
        <ele>505.6</ele>
        <time>2020-05-06T06:48:20Z</time>
      </trkpt>
      <trkpt lat="30.829639" lon="34.755438">
        <ele>505.0</ele>
        <time>2020-05-06T06:48:24Z</time>
      </trkpt>
      <trkpt lat="30.829625" lon="34.755451">
        <ele>504.6</ele>
        <time>2020-05-06T06:48:25Z</time>
      </trkpt>
      <trkpt lat="30.829611" lon="34.755456">
        <ele>504.2</ele>
        <time>2020-05-06T06:48:26Z</time>
      </trkpt>
      <trkpt lat="30.829595" lon="34.755453">
        <ele>503.6</ele>
        <time>2020-05-06T06:48:27Z</time>
      </trkpt>
      <trkpt lat="30.829578" lon="34.755438">
        <ele>503.2</ele>
        <time>2020-05-06T06:48:28Z</time>
      </trkpt>
      <trkpt lat="30.829564" lon="34.755415">
        <ele>503.0</ele>
        <time>2020-05-06T06:48:29Z</time>
      </trkpt>
      <trkpt lat="30.829549" lon="34.755319">
        <ele>502.6</ele>
        <time>2020-05-06T06:48:33Z</time>
      </trkpt>
      <trkpt lat="30.829404" lon="34.755145">
        <ele>502.2</ele>
        <time>2020-05-06T06:48:39Z</time>
      </trkpt>
      <trkpt lat="30.829349" lon="34.755092">
        <ele>502.4</ele>
        <time>2020-05-06T06:48:41Z</time>
      </trkpt>
      <trkpt lat="30.829184" lon="34.754968">
        <ele>503.2</ele>
        <time>2020-05-06T06:48:46Z</time>
      </trkpt>
      <trkpt lat="30.829127" lon="34.754900">
        <ele>503.4</ele>
        <time>2020-05-06T06:48:48Z</time>
      </trkpt>
      <trkpt lat="30.829097" lon="34.754869">
        <ele>503.4</ele>
        <time>2020-05-06T06:48:49Z</time>
      </trkpt>
      <trkpt lat="30.829061" lon="34.754844">
        <ele>503.2</ele>
        <time>2020-05-06T06:48:50Z</time>
      </trkpt>
      <trkpt lat="30.829023" lon="34.754822">
        <ele>502.8</ele>
        <time>2020-05-06T06:48:51Z</time>
      </trkpt>
      <trkpt lat="30.828719" lon="34.754725">
        <ele>502.6</ele>
        <time>2020-05-06T06:48:58Z</time>
      </trkpt>
      <trkpt lat="30.828674" lon="34.754710">
        <ele>502.8</ele>
        <time>2020-05-06T06:48:59Z</time>
      </trkpt>
      <trkpt lat="30.828587" lon="34.754661">
        <ele>503.0</ele>
        <time>2020-05-06T06:49:01Z</time>
      </trkpt>
      <trkpt lat="30.828543" lon="34.754627">
        <ele>503.2</ele>
        <time>2020-05-06T06:49:02Z</time>
      </trkpt>
      <trkpt lat="30.828503" lon="34.754583">
        <ele>503.2</ele>
        <time>2020-05-06T06:49:03Z</time>
      </trkpt>
      <trkpt lat="30.828381" lon="34.754444">
        <ele>503.4</ele>
        <time>2020-05-06T06:49:06Z</time>
      </trkpt>
      <trkpt lat="30.828266" lon="34.754292">
        <ele>504.2</ele>
        <time>2020-05-06T06:49:09Z</time>
      </trkpt>
      <trkpt lat="30.828189" lon="34.754181">
        <ele>504.6</ele>
        <time>2020-05-06T06:49:11Z</time>
      </trkpt>
      <trkpt lat="30.828053" lon="34.754009">
        <ele>505.8</ele>
        <time>2020-05-06T06:49:14Z</time>
      </trkpt>
      <trkpt lat="30.827944" lon="34.753835">
        <ele>506.8</ele>
        <time>2020-05-06T06:49:17Z</time>
      </trkpt>
      <trkpt lat="30.827920" lon="34.753778">
        <ele>507.2</ele>
        <time>2020-05-06T06:49:18Z</time>
      </trkpt>
      <trkpt lat="30.827902" lon="34.753723">
        <ele>507.6</ele>
        <time>2020-05-06T06:49:19Z</time>
      </trkpt>
      <trkpt lat="30.827889" lon="34.753562">
        <ele>508.6</ele>
        <time>2020-05-06T06:49:22Z</time>
      </trkpt>
      <trkpt lat="30.827892" lon="34.753415">
        <ele>509.0</ele>
        <time>2020-05-06T06:49:26Z</time>
      </trkpt>
      <trkpt lat="30.827867" lon="34.753358">
        <ele>508.8</ele>
        <time>2020-05-06T06:49:28Z</time>
      </trkpt>
      <trkpt lat="30.827774" lon="34.753283">
        <ele>508.4</ele>
        <time>2020-05-06T06:49:32Z</time>
      </trkpt>
      <trkpt lat="30.827616" lon="34.753113">
        <ele>508.2</ele>
        <time>2020-05-06T06:49:38Z</time>
      </trkpt>
      <trkpt lat="30.827585" lon="34.753075">
        <ele>508.4</ele>
        <time>2020-05-06T06:49:39Z</time>
      </trkpt>
      <trkpt lat="30.827546" lon="34.752977">
        <ele>509.0</ele>
        <time>2020-05-06T06:49:41Z</time>
      </trkpt>
      <trkpt lat="30.827537" lon="34.752861">
        <ele>509.4</ele>
        <time>2020-05-06T06:49:43Z</time>
      </trkpt>
      <trkpt lat="30.827536" lon="34.752807">
        <ele>509.6</ele>
        <time>2020-05-06T06:49:44Z</time>
      </trkpt>
      <trkpt lat="30.827530" lon="34.752759">
        <ele>509.6</ele>
        <time>2020-05-06T06:49:45Z</time>
      </trkpt>
      <trkpt lat="30.827442" lon="34.752552">
        <ele>510.6</ele>
        <time>2020-05-06T06:49:50Z</time>
      </trkpt>
      <trkpt lat="30.827267" lon="34.752280">
        <ele>510.6</ele>
        <time>2020-05-06T06:49:58Z</time>
      </trkpt>
      <trkpt lat="30.827101" lon="34.752078">
        <ele>510.8</ele>
        <time>2020-05-06T06:50:05Z</time>
      </trkpt>
      <trkpt lat="30.826943" lon="34.751956">
        <ele>511.0</ele>
        <time>2020-05-06T06:50:10Z</time>
      </trkpt>
      <trkpt lat="30.826863" lon="34.751888">
        <ele>510.6</ele>
        <time>2020-05-06T06:50:13Z</time>
      </trkpt>
      <trkpt lat="30.826839" lon="34.751876">
        <ele>510.6</ele>
        <time>2020-05-06T06:50:14Z</time>
      </trkpt>
      <trkpt lat="30.826820" lon="34.751874">
        <ele>510.2</ele>
        <time>2020-05-06T06:50:15Z</time>
      </trkpt>
      <trkpt lat="30.826774" lon="34.751915">
        <ele>509.4</ele>
        <time>2020-05-06T06:50:18Z</time>
      </trkpt>
      <trkpt lat="30.826743" lon="34.751940">
        <ele>508.8</ele>
        <time>2020-05-06T06:50:20Z</time>
      </trkpt>
      <trkpt lat="30.826517" lon="34.752139">
        <ele>507.8</ele>
        <time>2020-05-06T06:50:29Z</time>
      </trkpt>
      <trkpt lat="30.826362" lon="34.752242">
        <ele>508.4</ele>
        <time>2020-05-06T06:50:34Z</time>
      </trkpt>
      <trkpt lat="30.826295" lon="34.752286">
        <ele>509.4</ele>
        <time>2020-05-06T06:50:36Z</time>
      </trkpt>
      <trkpt lat="30.826261" lon="34.752307">
        <ele>509.8</ele>
        <time>2020-05-06T06:50:37Z</time>
      </trkpt>
      <trkpt lat="30.826213" lon="34.752358">
        <ele>510.2</ele>
        <time>2020-05-06T06:50:39Z</time>
      </trkpt>
      <trkpt lat="30.826209" lon="34.752403">
        <ele>510.2</ele>
        <time>2020-05-06T06:50:40Z</time>
      </trkpt>
      <trkpt lat="30.826215" lon="34.752438">
        <ele>510.4</ele>
        <time>2020-05-06T06:50:41Z</time>
      </trkpt>
      <trkpt lat="30.826281" lon="34.752528">
        <ele>510.8</ele>
        <time>2020-05-06T06:50:44Z</time>
      </trkpt>
      <trkpt lat="30.826452" lon="34.752749">
        <ele>511.6</ele>
        <time>2020-05-06T06:50:52Z</time>
      </trkpt>
      <trkpt lat="30.826498" lon="34.752874">
        <ele>512.0</ele>
        <time>2020-05-06T06:50:56Z</time>
      </trkpt>
      <trkpt lat="30.826525" lon="34.753075">
        <ele>511.4</ele>
        <time>2020-05-06T06:51:02Z</time>
      </trkpt>
      <trkpt lat="30.826581" lon="34.753298">
        <ele>511.0</ele>
        <time>2020-05-06T06:51:09Z</time>
      </trkpt>
      <trkpt lat="30.826665" lon="34.753475">
        <ele>510.6</ele>
        <time>2020-05-06T06:51:15Z</time>
      </trkpt>
      <trkpt lat="30.826703" lon="34.753634">
        <ele>511.0</ele>
        <time>2020-05-06T06:51:20Z</time>
      </trkpt>
      <trkpt lat="30.826720" lon="34.753843">
        <ele>511.4</ele>
        <time>2020-05-06T06:51:26Z</time>
      </trkpt>
      <trkpt lat="30.826781" lon="34.754019">
        <ele>511.0</ele>
        <time>2020-05-06T06:51:32Z</time>
      </trkpt>
      <trkpt lat="30.826817" lon="34.754214">
        <ele>510.8</ele>
        <time>2020-05-06T06:51:38Z</time>
      </trkpt>
      <trkpt lat="30.826851" lon="34.754405">
        <ele>511.4</ele>
        <time>2020-05-06T06:51:44Z</time>
      </trkpt>
      <trkpt lat="30.826858" lon="34.754473">
        <ele>511.6</ele>
        <time>2020-05-06T06:51:46Z</time>
      </trkpt>
      <trkpt lat="30.826863" lon="34.754529">
        <ele>511.6</ele>
        <time>2020-05-06T06:51:48Z</time>
      </trkpt>
      <trkpt lat="30.826865" lon="34.754551">
        <ele>511.6</ele>
        <time>2020-05-06T06:51:49Z</time>
      </trkpt>
      <trkpt lat="30.826865" lon="34.754571">
        <ele>511.4</ele>
        <time>2020-05-06T06:51:50Z</time>
      </trkpt>
      <trkpt lat="30.826866" lon="34.754592">
        <ele>511.4</ele>
        <time>2020-05-06T06:51:51Z</time>
      </trkpt>
      <trkpt lat="30.826866" lon="34.754604">
        <ele>511.0</ele>
        <time>2020-05-06T06:51:52Z</time>
      </trkpt>
      <trkpt lat="30.826863" lon="34.754607">
        <ele>510.6</ele>
        <time>2020-05-06T06:51:55Z</time>
      </trkpt>
      <trkpt lat="30.826865" lon="34.754608">
        <ele>510.4</ele>
        <time>2020-05-06T06:51:57Z</time>
      </trkpt>
      <trkpt lat="30.826861" lon="34.754615">
        <ele>511.6</ele>
        <time>2020-05-06T06:52:03Z</time>
      </trkpt>
      <trkpt lat="30.826879" lon="34.754665">
        <ele>510.8</ele>
        <time>2020-05-06T06:52:07Z</time>
      </trkpt>
      <trkpt lat="30.826889" lon="34.754973">
        <ele>511.4</ele>
        <time>2020-05-06T06:52:15Z</time>
      </trkpt>
      <trkpt lat="30.826894" lon="34.755088">
        <ele>511.6</ele>
        <time>2020-05-06T06:52:19Z</time>
      </trkpt>
      <trkpt lat="30.826875" lon="34.755108">
        <ele>511.6</ele>
        <time>2020-05-06T06:52:20Z</time>
      </trkpt>
      <trkpt lat="30.826748" lon="34.755135">
        <ele>511.8</ele>
        <time>2020-05-06T06:52:25Z</time>
      </trkpt>
      <trkpt lat="30.826535" lon="34.755113">
        <ele>512.4</ele>
        <time>2020-05-06T06:52:31Z</time>
      </trkpt>
      <trkpt lat="30.826456" lon="34.755114">
        <ele>512.6</ele>
        <time>2020-05-06T06:52:33Z</time>
      </trkpt>
      <trkpt lat="30.826353" lon="34.755108">
        <ele>512.0</ele>
        <time>2020-05-06T06:52:36Z</time>
      </trkpt>
      <trkpt lat="30.826144" lon="34.755067">
        <ele>511.6</ele>
        <time>2020-05-06T06:52:42Z</time>
      </trkpt>
      <trkpt lat="30.825985" lon="34.755077">
        <ele>511.4</ele>
        <time>2020-05-06T06:52:48Z</time>
      </trkpt>
      <trkpt lat="30.825957" lon="34.755077">
        <ele>511.0</ele>
        <time>2020-05-06T06:52:49Z</time>
      </trkpt>
      <trkpt lat="30.825703" lon="34.755102">
        <ele>510.4</ele>
        <time>2020-05-06T06:52:57Z</time>
      </trkpt>
      <trkpt lat="30.825512" lon="34.755059">
        <ele>510.0</ele>
        <time>2020-05-06T06:53:02Z</time>
      </trkpt>
      <trkpt lat="30.825425" lon="34.755024">
        <ele>510.4</ele>
        <time>2020-05-06T06:53:04Z</time>
      </trkpt>
      <trkpt lat="30.825383" lon="34.755007">
        <ele>510.6</ele>
        <time>2020-05-06T06:53:05Z</time>
      </trkpt>
      <trkpt lat="30.825258" lon="34.754980">
        <ele>511.4</ele>
        <time>2020-05-06T06:53:08Z</time>
      </trkpt>
      <trkpt lat="30.825182" lon="34.754974">
        <ele>512.0</ele>
        <time>2020-05-06T06:53:10Z</time>
      </trkpt>
      <trkpt lat="30.825144" lon="34.754990">
        <ele>512.4</ele>
        <time>2020-05-06T06:53:11Z</time>
      </trkpt>
      <trkpt lat="30.825033" lon="34.755119">
        <ele>513.0</ele>
        <time>2020-05-06T06:53:16Z</time>
      </trkpt>
      <trkpt lat="30.824904" lon="34.755178">
        <ele>512.6</ele>
        <time>2020-05-06T06:53:20Z</time>
      </trkpt>
      <trkpt lat="30.824869" lon="34.755185">
        <ele>512.4</ele>
        <time>2020-05-06T06:53:21Z</time>
      </trkpt>
      <trkpt lat="30.824628" lon="34.755145">
        <ele>511.4</ele>
        <time>2020-05-06T06:53:28Z</time>
      </trkpt>
      <trkpt lat="30.824412" lon="34.755058">
        <ele>511.4</ele>
        <time>2020-05-06T06:53:34Z</time>
      </trkpt>
      <trkpt lat="30.824238" lon="34.754958">
        <ele>511.2</ele>
        <time>2020-05-06T06:53:39Z</time>
      </trkpt>
      <trkpt lat="30.824121" lon="34.754833">
        <ele>511.6</ele>
        <time>2020-05-06T06:53:43Z</time>
      </trkpt>
      <trkpt lat="30.824144" lon="34.754612">
        <ele>512.0</ele>
        <time>2020-05-06T06:53:48Z</time>
      </trkpt>
      <trkpt lat="30.824190" lon="34.754454">
        <ele>512.0</ele>
        <time>2020-05-06T06:53:52Z</time>
      </trkpt>
      <trkpt lat="30.824103" lon="34.754328">
        <ele>511.8</ele>
        <time>2020-05-06T06:53:57Z</time>
      </trkpt>
      <trkpt lat="30.824009" lon="34.754297">
        <ele>511.6</ele>
        <time>2020-05-06T06:54:00Z</time>
      </trkpt>
      <trkpt lat="30.823947" lon="34.754295">
        <ele>511.2</ele>
        <time>2020-05-06T06:54:02Z</time>
      </trkpt>
      <trkpt lat="30.823827" lon="34.754310">
        <ele>510.6</ele>
        <time>2020-05-06T06:54:06Z</time>
      </trkpt>
      <trkpt lat="30.823639" lon="34.754291">
        <ele>510.4</ele>
        <time>2020-05-06T06:54:11Z</time>
      </trkpt>
      <trkpt lat="30.823564" lon="34.754302">
        <ele>510.6</ele>
        <time>2020-05-06T06:54:13Z</time>
      </trkpt>
      <trkpt lat="30.823354" lon="34.754346">
        <ele>510.2</ele>
        <time>2020-05-06T06:54:19Z</time>
      </trkpt>
      <trkpt lat="30.823175" lon="34.754451">
        <ele>510.0</ele>
        <time>2020-05-06T06:54:25Z</time>
      </trkpt>
      <trkpt lat="30.822997" lon="34.754492">
        <ele>509.2</ele>
        <time>2020-05-06T06:54:30Z</time>
      </trkpt>
      <trkpt lat="30.822929" lon="34.754529">
        <ele>509.4</ele>
        <time>2020-05-06T06:54:32Z</time>
      </trkpt>
      <trkpt lat="30.822903" lon="34.754560">
        <ele>509.6</ele>
        <time>2020-05-06T06:54:33Z</time>
      </trkpt>
      <trkpt lat="30.822824" lon="34.754701">
        <ele>510.4</ele>
        <time>2020-05-06T06:54:37Z</time>
      </trkpt>
      <trkpt lat="30.822697" lon="34.754806">
        <ele>510.8</ele>
        <time>2020-05-06T06:54:41Z</time>
      </trkpt>
      <trkpt lat="30.822594" lon="34.754869">
        <ele>512.0</ele>
        <time>2020-05-06T06:54:44Z</time>
      </trkpt>
      <trkpt lat="30.822401" lon="34.754991">
        <ele>511.8</ele>
        <time>2020-05-06T06:54:51Z</time>
      </trkpt>
      <trkpt lat="30.822230" lon="34.755079">
        <ele>512.2</ele>
        <time>2020-05-06T06:54:57Z</time>
      </trkpt>
      <trkpt lat="30.822207" lon="34.755090">
        <ele>512.4</ele>
        <time>2020-05-06T06:54:58Z</time>
      </trkpt>
      <trkpt lat="30.822102" lon="34.755069">
        <ele>512.8</ele>
        <time>2020-05-06T06:55:02Z</time>
      </trkpt>
      <trkpt lat="30.821944" lon="34.754992">
        <ele>512.8</ele>
        <time>2020-05-06T06:55:07Z</time>
      </trkpt>
      <trkpt lat="30.821858" lon="34.754950">
        <ele>512.8</ele>
        <time>2020-05-06T06:55:10Z</time>
      </trkpt>
      <trkpt lat="30.821829" lon="34.754944">
        <ele>512.6</ele>
        <time>2020-05-06T06:55:11Z</time>
      </trkpt>
      <trkpt lat="30.821683" lon="34.754934">
        <ele>512.2</ele>
        <time>2020-05-06T06:55:16Z</time>
      </trkpt>
      <trkpt lat="30.821598" lon="34.754965">
        <ele>511.8</ele>
        <time>2020-05-06T06:55:19Z</time>
      </trkpt>
      <trkpt lat="30.821547" lon="34.754976">
        <ele>511.8</ele>
        <time>2020-05-06T06:55:21Z</time>
      </trkpt>
      <trkpt lat="30.821334" lon="34.755005">
        <ele>511.8</ele>
        <time>2020-05-06T06:55:29Z</time>
      </trkpt>
      <trkpt lat="30.821200" lon="34.754948">
        <ele>511.6</ele>
        <time>2020-05-06T06:55:34Z</time>
      </trkpt>
      <trkpt lat="30.821071" lon="34.754823">
        <ele>511.2</ele>
        <time>2020-05-06T06:55:40Z</time>
      </trkpt>
      <trkpt lat="30.821025" lon="34.754757">
        <ele>511.0</ele>
        <time>2020-05-06T06:55:43Z</time>
      </trkpt>
      <trkpt lat="30.820978" lon="34.754677">
        <ele>510.6</ele>
        <time>2020-05-06T06:55:47Z</time>
      </trkpt>
      <trkpt lat="30.820938" lon="34.754585">
        <ele>509.8</ele>
        <time>2020-05-06T06:55:51Z</time>
      </trkpt>
      <trkpt lat="30.820905" lon="34.754517">
        <ele>509.2</ele>
        <time>2020-05-06T06:55:54Z</time>
      </trkpt>
      <trkpt lat="30.820888" lon="34.754473">
        <ele>508.8</ele>
        <time>2020-05-06T06:55:56Z</time>
      </trkpt>
      <trkpt lat="30.820863" lon="34.754460">
        <ele>508.6</ele>
        <time>2020-05-06T06:55:57Z</time>
      </trkpt>
      <trkpt lat="30.820723" lon="34.754500">
        <ele>508.6</ele>
        <time>2020-05-06T06:56:02Z</time>
      </trkpt>
      <trkpt lat="30.820702" lon="34.754521">
        <ele>508.8</ele>
        <time>2020-05-06T06:56:03Z</time>
      </trkpt>
      <trkpt lat="30.820599" lon="34.754658">
        <ele>508.8</ele>
        <time>2020-05-06T06:56:08Z</time>
      </trkpt>
      <trkpt lat="30.820469" lon="34.754760">
        <ele>509.2</ele>
        <time>2020-05-06T06:56:13Z</time>
      </trkpt>
      <trkpt lat="30.820346" lon="34.754790">
        <ele>508.2</ele>
        <time>2020-05-06T06:56:18Z</time>
      </trkpt>
      <trkpt lat="30.820233" lon="34.754844">
        <ele>508.0</ele>
        <time>2020-05-06T06:56:23Z</time>
      </trkpt>
      <trkpt lat="30.820116" lon="34.754963">
        <ele>508.4</ele>
        <time>2020-05-06T06:56:28Z</time>
      </trkpt>
      <trkpt lat="30.820075" lon="34.755007">
        <ele>508.6</ele>
        <time>2020-05-06T06:56:30Z</time>
      </trkpt>
      <trkpt lat="30.820036" lon="34.755046">
        <ele>508.4</ele>
        <time>2020-05-06T06:56:32Z</time>
      </trkpt>
      <trkpt lat="30.819966" lon="34.755107">
        <ele>507.8</ele>
        <time>2020-05-06T06:56:37Z</time>
      </trkpt>
      <trkpt lat="30.819887" lon="34.755152">
        <ele>506.8</ele>
        <time>2020-05-06T06:56:42Z</time>
      </trkpt>
      <trkpt lat="30.819839" lon="34.755192">
        <ele>507.0</ele>
        <time>2020-05-06T06:56:46Z</time>
      </trkpt>
      <trkpt lat="30.819906" lon="34.755313">
        <ele>507.6</ele>
        <time>2020-05-06T06:56:51Z</time>
      </trkpt>
      <trkpt lat="30.819920" lon="34.755331">
        <ele>507.8</ele>
        <time>2020-05-06T06:56:52Z</time>
      </trkpt>
      <trkpt lat="30.819968" lon="34.755449">
        <ele>508.8</ele>
        <time>2020-05-06T06:56:57Z</time>
      </trkpt>
      <trkpt lat="30.819954" lon="34.755595">
        <ele>510.0</ele>
        <time>2020-05-06T06:57:01Z</time>
      </trkpt>
      <trkpt lat="30.819943" lon="34.755628">
        <ele>510.2</ele>
        <time>2020-05-06T06:57:02Z</time>
      </trkpt>
      <trkpt lat="30.819811" lon="34.755863">
        <ele>510.0</ele>
        <time>2020-05-06T06:57:09Z</time>
      </trkpt>
      <trkpt lat="30.819707" lon="34.756036">
        <ele>510.6</ele>
        <time>2020-05-06T06:57:14Z</time>
      </trkpt>
      <trkpt lat="30.819610" lon="34.756191">
        <ele>510.6</ele>
        <time>2020-05-06T06:57:19Z</time>
      </trkpt>
      <trkpt lat="30.819569" lon="34.756256">
        <ele>511.0</ele>
        <time>2020-05-06T06:57:21Z</time>
      </trkpt>
      <trkpt lat="30.819477" lon="34.756380">
        <ele>511.6</ele>
        <time>2020-05-06T06:57:25Z</time>
      </trkpt>
      <trkpt lat="30.819395" lon="34.756441">
        <ele>511.8</ele>
        <time>2020-05-06T06:57:29Z</time>
      </trkpt>
      <trkpt lat="30.819239" lon="34.756609">
        <ele>512.6</ele>
        <time>2020-05-06T06:57:36Z</time>
      </trkpt>
      <trkpt lat="30.819155" lon="34.756763">
        <ele>512.6</ele>
        <time>2020-05-06T06:57:41Z</time>
      </trkpt>
      <trkpt lat="30.819136" lon="34.756874">
        <ele>512.2</ele>
        <time>2020-05-06T06:57:45Z</time>
      </trkpt>
      <trkpt lat="30.819110" lon="34.756920">
        <ele>511.8</ele>
        <time>2020-05-06T06:57:47Z</time>
      </trkpt>
      <trkpt lat="30.819033" lon="34.757141">
        <ele>511.0</ele>
        <time>2020-05-06T06:57:55Z</time>
      </trkpt>
      <trkpt lat="30.818929" lon="34.757352">
        <ele>511.4</ele>
        <time>2020-05-06T06:58:03Z</time>
      </trkpt>
      <trkpt lat="30.818851" lon="34.757497">
        <ele>511.2</ele>
        <time>2020-05-06T06:58:09Z</time>
      </trkpt>
      <trkpt lat="30.818836" lon="34.757547">
        <ele>510.8</ele>
        <time>2020-05-06T06:58:11Z</time>
      </trkpt>
      <trkpt lat="30.818797" lon="34.757640">
        <ele>510.0</ele>
        <time>2020-05-06T06:58:15Z</time>
      </trkpt>
      <trkpt lat="30.818790" lon="34.757690">
        <ele>509.4</ele>
        <time>2020-05-06T06:58:17Z</time>
      </trkpt>
      <trkpt lat="30.818809" lon="34.757862">
        <ele>508.8</ele>
        <time>2020-05-06T06:58:24Z</time>
      </trkpt>
      <trkpt lat="30.818853" lon="34.757963">
        <ele>507.6</ele>
        <time>2020-05-06T06:58:28Z</time>
      </trkpt>
      <trkpt lat="30.818896" lon="34.758064">
        <ele>507.0</ele>
        <time>2020-05-06T06:58:32Z</time>
      </trkpt>
      <trkpt lat="30.818916" lon="34.758114">
        <ele>506.8</ele>
        <time>2020-05-06T06:58:34Z</time>
      </trkpt>
      <trkpt lat="30.818937" lon="34.758221">
        <ele>506.6</ele>
        <time>2020-05-06T06:58:38Z</time>
      </trkpt>
      <trkpt lat="30.818945" lon="34.758280">
        <ele>506.4</ele>
        <time>2020-05-06T06:58:40Z</time>
      </trkpt>
      <trkpt lat="30.818993" lon="34.758489">
        <ele>505.8</ele>
        <time>2020-05-06T06:58:47Z</time>
      </trkpt>
      <trkpt lat="30.819066" lon="34.758689">
        <ele>506.2</ele>
        <time>2020-05-06T06:58:54Z</time>
      </trkpt>
      <trkpt lat="30.819189" lon="34.758816">
        <ele>506.4</ele>
        <time>2020-05-06T06:59:00Z</time>
      </trkpt>
      <trkpt lat="30.819255" lon="34.758875">
        <ele>505.4</ele>
        <time>2020-05-06T06:59:03Z</time>
      </trkpt>
      <trkpt lat="30.819276" lon="34.758894">
        <ele>504.6</ele>
        <time>2020-05-06T06:59:04Z</time>
      </trkpt>
      <trkpt lat="30.819312" lon="34.758938">
        <ele>504.2</ele>
        <time>2020-05-06T06:59:06Z</time>
      </trkpt>
      <trkpt lat="30.819311" lon="34.758987">
        <ele>504.2</ele>
        <time>2020-05-06T06:59:08Z</time>
      </trkpt>
      <trkpt lat="30.819298" lon="34.759052">
        <ele>504.2</ele>
        <time>2020-05-06T06:59:10Z</time>
      </trkpt>
      <trkpt lat="30.819273" lon="34.759194">
        <ele>504.0</ele>
        <time>2020-05-06T06:59:14Z</time>
      </trkpt>
      <trkpt lat="30.819261" lon="34.759291">
        <ele>504.0</ele>
        <time>2020-05-06T06:59:18Z</time>
      </trkpt>
      <trkpt lat="30.819257" lon="34.759303">
        <ele>504.0</ele>
        <time>2020-05-06T06:59:19Z</time>
      </trkpt>
      <trkpt lat="30.819257" lon="34.759305">
        <ele>504.0</ele>
        <time>2020-05-06T06:59:28Z</time>
      </trkpt>
      <trkpt lat="30.819240" lon="34.759299">
        <ele>504.2</ele>
        <time>2020-05-06T06:59:34Z</time>
      </trkpt>
      <trkpt lat="30.819228" lon="34.759288">
        <ele>504.4</ele>
        <time>2020-05-06T06:59:36Z</time>
      </trkpt>
      <trkpt lat="30.819212" lon="34.759275">
        <ele>504.6</ele>
        <time>2020-05-06T06:59:39Z</time>
      </trkpt>
      <trkpt lat="30.819170" lon="34.759274">
        <ele>504.6</ele>
        <time>2020-05-06T06:59:44Z</time>
      </trkpt>
      <trkpt lat="30.819143" lon="34.759283">
        <ele>504.6</ele>
        <time>2020-05-06T06:59:46Z</time>
      </trkpt>
      <trkpt lat="30.819084" lon="34.759319">
        <ele>505.6</ele>
        <time>2020-05-06T06:59:53Z</time>
      </trkpt>
      <trkpt lat="30.819077" lon="34.759345">
        <ele>505.6</ele>
        <time>2020-05-06T06:59:57Z</time>
      </trkpt>
      <trkpt lat="30.819071" lon="34.759360">
        <ele>505.4</ele>
        <time>2020-05-06T07:00:01Z</time>
      </trkpt>
      <trkpt lat="30.819054" lon="34.759346">
        <ele>505.0</ele>
        <time>2020-05-06T07:00:07Z</time>
      </trkpt>
      <trkpt lat="30.819069" lon="34.759399">
        <ele>505.2</ele>
        <time>2020-05-06T07:00:16Z</time>
      </trkpt>
      <trkpt lat="30.819089" lon="34.759444">
        <ele>505.6</ele>
        <time>2020-05-06T07:00:21Z</time>
      </trkpt>
      <trkpt lat="30.819107" lon="34.759520">
        <ele>505.2</ele>
        <time>2020-05-06T07:00:24Z</time>
      </trkpt>
      <trkpt lat="30.819142" lon="34.759625">
        <ele>504.8</ele>
        <time>2020-05-06T07:00:28Z</time>
      </trkpt>
      <trkpt lat="30.819167" lon="34.759667">
        <ele>504.8</ele>
        <time>2020-05-06T07:00:30Z</time>
      </trkpt>
      <trkpt lat="30.819178" lon="34.759702">
        <ele>504.6</ele>
        <time>2020-05-06T07:00:32Z</time>
      </trkpt>
      <trkpt lat="30.819174" lon="34.759714">
        <ele>504.6</ele>
        <time>2020-05-06T07:00:33Z</time>
      </trkpt>
      <trkpt lat="30.819167" lon="34.759723">
        <ele>504.6</ele>
        <time>2020-05-06T07:00:34Z</time>
      </trkpt>
      <trkpt lat="30.819162" lon="34.759717">
        <ele>504.8</ele>
        <time>2020-05-06T07:00:40Z</time>
      </trkpt>
      <trkpt lat="30.819120" lon="34.759765">
        <ele>504.8</ele>
        <time>2020-05-06T07:00:44Z</time>
      </trkpt>
      <trkpt lat="30.819099" lon="34.759872">
        <ele>505.2</ele>
        <time>2020-05-06T07:00:47Z</time>
      </trkpt>
      <trkpt lat="30.819101" lon="34.759913">
        <ele>505.4</ele>
        <time>2020-05-06T07:00:48Z</time>
      </trkpt>
      <trkpt lat="30.819177" lon="34.760138">
        <ele>506.8</ele>
        <time>2020-05-06T07:00:54Z</time>
      </trkpt>
      <trkpt lat="30.819349" lon="34.760276">
        <ele>506.4</ele>
        <time>2020-05-06T07:01:01Z</time>
      </trkpt>
      <trkpt lat="30.819505" lon="34.760309">
        <ele>506.2</ele>
        <time>2020-05-06T07:01:06Z</time>
      </trkpt>
      <trkpt lat="30.819627" lon="34.760403">
        <ele>506.4</ele>
        <time>2020-05-06T07:01:10Z</time>
      </trkpt>
      <trkpt lat="30.819714" lon="34.760488">
        <ele>506.6</ele>
        <time>2020-05-06T07:01:13Z</time>
      </trkpt>
      <trkpt lat="30.819861" lon="34.760700">
        <ele>507.4</ele>
        <time>2020-05-06T07:01:20Z</time>
      </trkpt>
      <trkpt lat="30.820076" lon="34.760948">
        <ele>507.0</ele>
        <time>2020-05-06T07:01:28Z</time>
      </trkpt>
      <trkpt lat="30.820187" lon="34.761153">
        <ele>507.8</ele>
        <time>2020-05-06T07:01:34Z</time>
      </trkpt>
      <trkpt lat="30.820275" lon="34.761408">
        <ele>508.0</ele>
        <time>2020-05-06T07:01:41Z</time>
      </trkpt>
      <trkpt lat="30.820304" lon="34.761600">
        <ele>507.8</ele>
        <time>2020-05-06T07:01:46Z</time>
      </trkpt>
      <trkpt lat="30.820242" lon="34.761730">
        <ele>507.4</ele>
        <time>2020-05-06T07:01:50Z</time>
      </trkpt>
      <trkpt lat="30.820197" lon="34.761781">
        <ele>507.0</ele>
        <time>2020-05-06T07:01:52Z</time>
      </trkpt>
      <trkpt lat="30.820052" lon="34.761904">
        <ele>506.6</ele>
        <time>2020-05-06T07:01:58Z</time>
      </trkpt>
      <trkpt lat="30.819868" lon="34.762051">
        <ele>506.6</ele>
        <time>2020-05-06T07:02:05Z</time>
      </trkpt>
      <trkpt lat="30.819803" lon="34.762137">
        <ele>506.4</ele>
        <time>2020-05-06T07:02:08Z</time>
      </trkpt>
      <trkpt lat="30.819708" lon="34.762292">
        <ele>506.0</ele>
        <time>2020-05-06T07:02:13Z</time>
      </trkpt>
      <trkpt lat="30.819554" lon="34.762501">
        <ele>506.2</ele>
        <time>2020-05-06T07:02:21Z</time>
      </trkpt>
      <trkpt lat="30.819533" lon="34.762561">
        <ele>506.2</ele>
        <time>2020-05-06T07:02:23Z</time>
      </trkpt>
      <trkpt lat="30.819475" lon="34.762689">
        <ele>506.0</ele>
        <time>2020-05-06T07:02:28Z</time>
      </trkpt>
      <trkpt lat="30.819348" lon="34.762764">
        <ele>504.8</ele>
        <time>2020-05-06T07:02:34Z</time>
      </trkpt>
      <trkpt lat="30.819252" lon="34.762800">
        <ele>505.4</ele>
        <time>2020-05-06T07:02:38Z</time>
      </trkpt>
      <trkpt lat="30.819198" lon="34.763034">
        <ele>505.6</ele>
        <time>2020-05-06T07:02:44Z</time>
      </trkpt>
      <trkpt lat="30.819140" lon="34.763153">
        <ele>505.4</ele>
        <time>2020-05-06T07:02:48Z</time>
      </trkpt>
      <trkpt lat="30.819079" lon="34.763237">
        <ele>505.0</ele>
        <time>2020-05-06T07:02:51Z</time>
      </trkpt>
      <trkpt lat="30.818872" lon="34.763451">
        <ele>504.6</ele>
        <time>2020-05-06T07:02:59Z</time>
      </trkpt>
      <trkpt lat="30.818823" lon="34.763504">
        <ele>504.2</ele>
        <time>2020-05-06T07:03:01Z</time>
      </trkpt>
      <trkpt lat="30.818728" lon="34.763612">
        <ele>504.2</ele>
        <time>2020-05-06T07:03:05Z</time>
      </trkpt>
      <trkpt lat="30.818536" lon="34.763788">
        <ele>503.6</ele>
        <time>2020-05-06T07:03:13Z</time>
      </trkpt>
      <trkpt lat="30.818341" lon="34.763925">
        <ele>503.4</ele>
        <time>2020-05-06T07:03:21Z</time>
      </trkpt>
      <trkpt lat="30.818314" lon="34.763937">
        <ele>503.2</ele>
        <time>2020-05-06T07:03:22Z</time>
      </trkpt>
      <trkpt lat="30.818190" lon="34.764011">
        <ele>502.4</ele>
        <time>2020-05-06T07:03:27Z</time>
      </trkpt>
      <trkpt lat="30.818168" lon="34.764026">
        <ele>502.6</ele>
        <time>2020-05-06T07:03:28Z</time>
      </trkpt>
      <trkpt lat="30.818122" lon="34.764109">
        <ele>502.2</ele>
        <time>2020-05-06T07:03:32Z</time>
      </trkpt>
      <trkpt lat="30.818114" lon="34.764132">
        <ele>502.2</ele>
        <time>2020-05-06T07:03:33Z</time>
      </trkpt>
      <trkpt lat="30.818102" lon="34.764254">
        <ele>501.8</ele>
        <time>2020-05-06T07:03:37Z</time>
      </trkpt>
      <trkpt lat="30.818129" lon="34.764302">
        <ele>501.8</ele>
        <time>2020-05-06T07:03:39Z</time>
      </trkpt>
      <trkpt lat="30.818180" lon="34.764318">
        <ele>501.8</ele>
        <time>2020-05-06T07:03:41Z</time>
      </trkpt>
      <trkpt lat="30.818367" lon="34.764257">
        <ele>501.6</ele>
        <time>2020-05-06T07:03:48Z</time>
      </trkpt>
      <trkpt lat="30.818480" lon="34.764245">
        <ele>501.2</ele>
        <time>2020-05-06T07:03:52Z</time>
      </trkpt>
      <trkpt lat="30.818588" lon="34.764263">
        <ele>500.6</ele>
        <time>2020-05-06T07:03:56Z</time>
      </trkpt>
      <trkpt lat="30.818666" lon="34.764285">
        <ele>500.2</ele>
        <time>2020-05-06T07:03:59Z</time>
      </trkpt>
      <trkpt lat="30.818710" lon="34.764324">
        <ele>499.4</ele>
        <time>2020-05-06T07:04:01Z</time>
      </trkpt>
      <trkpt lat="30.818794" lon="34.764519">
        <ele>499.6</ele>
        <time>2020-05-06T07:04:08Z</time>
      </trkpt>
      <trkpt lat="30.818952" lon="34.764615">
        <ele>499.8</ele>
        <time>2020-05-06T07:04:14Z</time>
      </trkpt>
      <trkpt lat="30.819139" lon="34.764651">
        <ele>499.0</ele>
        <time>2020-05-06T07:04:20Z</time>
      </trkpt>
      <trkpt lat="30.819165" lon="34.764653">
        <ele>498.8</ele>
        <time>2020-05-06T07:04:21Z</time>
      </trkpt>
      <trkpt lat="30.819279" lon="34.764774">
        <ele>498.6</ele>
        <time>2020-05-06T07:04:27Z</time>
      </trkpt>
      <trkpt lat="30.819433" lon="34.764934">
        <ele>498.0</ele>
        <time>2020-05-06T07:04:33Z</time>
      </trkpt>
      <trkpt lat="30.819458" lon="34.764958">
        <ele>497.6</ele>
        <time>2020-05-06T07:04:34Z</time>
      </trkpt>
      <trkpt lat="30.819478" lon="34.764984">
        <ele>497.4</ele>
        <time>2020-05-06T07:04:35Z</time>
      </trkpt>
      <trkpt lat="30.819499" lon="34.765076">
        <ele>496.8</ele>
        <time>2020-05-06T07:04:38Z</time>
      </trkpt>
      <trkpt lat="30.819469" lon="34.765132">
        <ele>496.6</ele>
        <time>2020-05-06T07:04:40Z</time>
      </trkpt>
      <trkpt lat="30.819353" lon="34.765273">
        <ele>496.8</ele>
        <time>2020-05-06T07:04:45Z</time>
      </trkpt>
      <trkpt lat="30.819327" lon="34.765300">
        <ele>496.8</ele>
        <time>2020-05-06T07:04:46Z</time>
      </trkpt>
      <trkpt lat="30.819234" lon="34.765339">
        <ele>497.2</ele>
        <time>2020-05-06T07:04:49Z</time>
      </trkpt>
      <trkpt lat="30.819022" lon="34.765313">
        <ele>498.0</ele>
        <time>2020-05-06T07:04:54Z</time>
      </trkpt>
      <trkpt lat="30.818989" lon="34.765313">
        <ele>498.2</ele>
        <time>2020-05-06T07:04:55Z</time>
      </trkpt>
      <trkpt lat="30.818904" lon="34.765384">
        <ele>497.8</ele>
        <time>2020-05-06T07:04:58Z</time>
      </trkpt>
      <trkpt lat="30.818817" lon="34.765475">
        <ele>497.8</ele>
        <time>2020-05-06T07:05:02Z</time>
      </trkpt>
      <trkpt lat="30.818758" lon="34.765490">
        <ele>497.8</ele>
        <time>2020-05-06T07:05:04Z</time>
      </trkpt>
      <trkpt lat="30.818651" lon="34.765526">
        <ele>497.2</ele>
        <time>2020-05-06T07:05:08Z</time>
      </trkpt>
      <trkpt lat="30.818535" lon="34.765631">
        <ele>497.2</ele>
        <time>2020-05-06T07:05:13Z</time>
      </trkpt>
      <trkpt lat="30.818445" lon="34.765723">
        <ele>497.2</ele>
        <time>2020-05-06T07:05:16Z</time>
      </trkpt>
      <trkpt lat="30.818381" lon="34.765771">
        <ele>497.4</ele>
        <time>2020-05-06T07:05:18Z</time>
      </trkpt>
      <trkpt lat="30.818351" lon="34.765789">
        <ele>497.4</ele>
        <time>2020-05-06T07:05:19Z</time>
      </trkpt>
      <trkpt lat="30.818300" lon="34.765816">
        <ele>497.4</ele>
        <time>2020-05-06T07:05:21Z</time>
      </trkpt>
      <trkpt lat="30.818237" lon="34.765821">
        <ele>497.6</ele>
        <time>2020-05-06T07:05:23Z</time>
      </trkpt>
      <trkpt lat="30.818079" lon="34.765771">
        <ele>497.0</ele>
        <time>2020-05-06T07:05:28Z</time>
      </trkpt>
      <trkpt lat="30.817993" lon="34.765733">
        <ele>496.6</ele>
        <time>2020-05-06T07:05:31Z</time>
      </trkpt>
      <trkpt lat="30.817944" lon="34.765731">
        <ele>496.4</ele>
        <time>2020-05-06T07:05:33Z</time>
      </trkpt>
      <trkpt lat="30.817923" lon="34.765742">
        <ele>496.2</ele>
        <time>2020-05-06T07:05:34Z</time>
      </trkpt>
      <trkpt lat="30.817898" lon="34.765789">
        <ele>495.6</ele>
        <time>2020-05-06T07:05:36Z</time>
      </trkpt>
      <trkpt lat="30.817897" lon="34.765817">
        <ele>495.4</ele>
        <time>2020-05-06T07:05:37Z</time>
      </trkpt>
      <trkpt lat="30.817946" lon="34.765966">
        <ele>493.8</ele>
        <time>2020-05-06T07:05:42Z</time>
      </trkpt>
      <trkpt lat="30.817959" lon="34.765996">
        <ele>493.8</ele>
        <time>2020-05-06T07:05:43Z</time>
      </trkpt>
      <trkpt lat="30.817945" lon="34.766065">
        <ele>493.8</ele>
        <time>2020-05-06T07:05:45Z</time>
      </trkpt>
      <trkpt lat="30.817923" lon="34.766105">
        <ele>494.0</ele>
        <time>2020-05-06T07:05:46Z</time>
      </trkpt>
      <trkpt lat="30.817888" lon="34.766191">
        <ele>494.0</ele>
        <time>2020-05-06T07:05:48Z</time>
      </trkpt>
      <trkpt lat="30.817855" lon="34.766264">
        <ele>494.2</ele>
        <time>2020-05-06T07:05:50Z</time>
      </trkpt>
      <trkpt lat="30.817718" lon="34.766364">
        <ele>494.4</ele>
        <time>2020-05-06T07:05:55Z</time>
      </trkpt>
      <trkpt lat="30.817506" lon="34.766414">
        <ele>494.2</ele>
        <time>2020-05-06T07:06:02Z</time>
      </trkpt>
      <trkpt lat="30.817352" lon="34.766471">
        <ele>494.4</ele>
        <time>2020-05-06T07:06:07Z</time>
      </trkpt>
      <trkpt lat="30.817300" lon="34.766510">
        <ele>494.4</ele>
        <time>2020-05-06T07:06:09Z</time>
      </trkpt>
      <trkpt lat="30.817244" lon="34.766543">
        <ele>494.4</ele>
        <time>2020-05-06T07:06:11Z</time>
      </trkpt>
      <trkpt lat="30.817124" lon="34.766600">
        <ele>494.6</ele>
        <time>2020-05-06T07:06:15Z</time>
      </trkpt>
      <trkpt lat="30.816934" lon="34.766644">
        <ele>494.4</ele>
        <time>2020-05-06T07:06:21Z</time>
      </trkpt>
      <trkpt lat="30.816875" lon="34.766653">
        <ele>495.0</ele>
        <time>2020-05-06T07:06:23Z</time>
      </trkpt>
      <trkpt lat="30.816802" lon="34.766674">
        <ele>496.4</ele>
        <time>2020-05-06T07:06:26Z</time>
      </trkpt>
      <trkpt lat="30.816785" lon="34.766690">
        <ele>496.6</ele>
        <time>2020-05-06T07:06:27Z</time>
      </trkpt>
      <trkpt lat="30.816777" lon="34.766720">
        <ele>496.4</ele>
        <time>2020-05-06T07:06:28Z</time>
      </trkpt>
      <trkpt lat="30.816760" lon="34.766772">
        <ele>496.0</ele>
        <time>2020-05-06T07:06:30Z</time>
      </trkpt>
      <trkpt lat="30.816757" lon="34.766797">
        <ele>495.6</ele>
        <time>2020-05-06T07:06:31Z</time>
      </trkpt>
      <trkpt lat="30.816755" lon="34.766819">
        <ele>495.2</ele>
        <time>2020-05-06T07:06:32Z</time>
      </trkpt>
      <trkpt lat="30.816786" lon="34.767060">
        <ele>495.0</ele>
        <time>2020-05-06T07:06:39Z</time>
      </trkpt>
      <trkpt lat="30.816726" lon="34.767244">
        <ele>494.6</ele>
        <time>2020-05-06T07:06:45Z</time>
      </trkpt>
      <trkpt lat="30.816706" lon="34.767280">
        <ele>494.4</ele>
        <time>2020-05-06T07:06:47Z</time>
      </trkpt>
      <trkpt lat="30.816693" lon="34.767286">
        <ele>494.2</ele>
        <time>2020-05-06T07:06:50Z</time>
      </trkpt>
      <trkpt lat="30.816692" lon="34.767286">
        <ele>494.0</ele>
        <time>2020-05-06T07:06:51Z</time>
      </trkpt>
      <trkpt lat="30.816683" lon="34.767292">
        <ele>494.0</ele>
        <time>2020-05-06T07:06:56Z</time>
      </trkpt>
      <trkpt lat="30.816678" lon="34.767300">
        <ele>494.0</ele>
        <time>2020-05-06T07:06:57Z</time>
      </trkpt>
      <trkpt lat="30.816684" lon="34.767309">
        <ele>494.0</ele>
        <time>2020-05-06T07:07:02Z</time>
      </trkpt>
      <trkpt lat="30.816593" lon="34.767379">
        <ele>493.8</ele>
        <time>2020-05-06T07:07:07Z</time>
      </trkpt>
      <trkpt lat="30.816455" lon="34.767462">
        <ele>494.0</ele>
        <time>2020-05-06T07:07:12Z</time>
      </trkpt>
      <trkpt lat="30.816426" lon="34.767472">
        <ele>494.0</ele>
        <time>2020-05-06T07:07:13Z</time>
      </trkpt>
      <trkpt lat="30.816255" lon="34.767576">
        <ele>494.4</ele>
        <time>2020-05-06T07:07:20Z</time>
      </trkpt>
      <trkpt lat="30.816132" lon="34.767649">
        <ele>494.6</ele>
        <time>2020-05-06T07:07:26Z</time>
      </trkpt>
      <trkpt lat="30.815967" lon="34.767698">
        <ele>493.6</ele>
        <time>2020-05-06T07:07:33Z</time>
      </trkpt>
      <trkpt lat="30.815909" lon="34.767711">
        <ele>493.4</ele>
        <time>2020-05-06T07:07:35Z</time>
      </trkpt>
      <trkpt lat="30.815843" lon="34.767743">
        <ele>494.4</ele>
        <time>2020-05-06T07:07:38Z</time>
      </trkpt>
      <trkpt lat="30.815782" lon="34.767765">
        <ele>493.0</ele>
        <time>2020-05-06T07:07:42Z</time>
      </trkpt>
      <trkpt lat="30.815771" lon="34.767765">
        <ele>493.0</ele>
        <time>2020-05-06T07:07:43Z</time>
      </trkpt>
      <trkpt lat="30.815744" lon="34.767775">
        <ele>493.0</ele>
        <time>2020-05-06T07:07:49Z</time>
      </trkpt>
      <trkpt lat="30.815732" lon="34.767778">
        <ele>493.0</ele>
        <time>2020-05-06T07:07:50Z</time>
      </trkpt>
      <trkpt lat="30.815721" lon="34.767780">
        <ele>493.2</ele>
        <time>2020-05-06T07:07:51Z</time>
      </trkpt>
      <trkpt lat="30.815711" lon="34.767784">
        <ele>493.4</ele>
        <time>2020-05-06T07:07:57Z</time>
      </trkpt>
      <trkpt lat="30.815711" lon="34.767788">
        <ele>493.2</ele>
        <time>2020-05-06T07:08:02Z</time>
      </trkpt>
      <trkpt lat="30.815707" lon="34.767786">
        <ele>493.0</ele>
        <time>2020-05-06T07:08:05Z</time>
      </trkpt>
      <trkpt lat="30.815701" lon="34.767783">
        <ele>492.8</ele>
        <time>2020-05-06T07:08:07Z</time>
      </trkpt>
      <trkpt lat="30.815689" lon="34.767781">
        <ele>493.0</ele>
        <time>2020-05-06T07:08:10Z</time>
      </trkpt>
      <trkpt lat="30.815686" lon="34.767779">
        <ele>493.0</ele>
        <time>2020-05-06T07:08:11Z</time>
      </trkpt>
      <trkpt lat="30.815670" lon="34.767786">
        <ele>493.4</ele>
        <time>2020-05-06T07:08:15Z</time>
      </trkpt>
      <trkpt lat="30.815674" lon="34.767806">
        <ele>493.4</ele>
        <time>2020-05-06T07:08:19Z</time>
      </trkpt>
      <trkpt lat="30.815692" lon="34.767835">
        <ele>493.2</ele>
        <time>2020-05-06T07:08:23Z</time>
      </trkpt>
      <trkpt lat="30.815692" lon="34.767838">
        <ele>493.0</ele>
        <time>2020-05-06T07:08:25Z</time>
      </trkpt>
      <trkpt lat="30.815687" lon="34.767843">
        <ele>493.0</ele>
        <time>2020-05-06T07:08:34Z</time>
      </trkpt>
      <trkpt lat="30.815683" lon="34.767830">
        <ele>493.0</ele>
        <time>2020-05-06T07:08:46Z</time>
      </trkpt>
      <trkpt lat="30.815682" lon="34.767830">
        <ele>493.0</ele>
        <time>2020-05-06T07:08:47Z</time>
      </trkpt>
      <trkpt lat="30.815680" lon="34.767832">
        <ele>492.8</ele>
        <time>2020-05-06T07:08:48Z</time>
      </trkpt>
      <trkpt lat="30.815680" lon="34.767833">
        <ele>492.8</ele>
        <time>2020-05-06T07:08:49Z</time>
      </trkpt>
      <trkpt lat="30.815676" lon="34.767835">
        <ele>492.8</ele>
        <time>2020-05-06T07:08:52Z</time>
      </trkpt>
      <trkpt lat="30.815670" lon="34.767864">
        <ele>493.0</ele>
        <time>2020-05-06T07:08:59Z</time>
      </trkpt>
      <trkpt lat="30.815661" lon="34.767878">
        <ele>492.8</ele>
        <time>2020-05-06T07:09:07Z</time>
      </trkpt>
      <trkpt lat="30.815661" lon="34.767878">
        <ele>493.0</ele>
        <time>2020-05-06T07:09:08Z</time>
      </trkpt>
      <trkpt lat="30.815675" lon="34.767866">
        <ele>493.0</ele>
        <time>2020-05-06T07:09:15Z</time>
      </trkpt>
      <trkpt lat="30.815679" lon="34.767865">
        <ele>493.4</ele>
        <time>2020-05-06T07:09:18Z</time>
      </trkpt>
      <trkpt lat="30.815682" lon="34.767856">
        <ele>493.4</ele>
        <time>2020-05-06T07:09:22Z</time>
      </trkpt>
      <trkpt lat="30.815683" lon="34.767848">
        <ele>493.4</ele>
        <time>2020-05-06T07:09:23Z</time>
      </trkpt>
      <trkpt lat="30.815684" lon="34.767833">
        <ele>493.4</ele>
        <time>2020-05-06T07:09:25Z</time>
      </trkpt>
      <trkpt lat="30.815688" lon="34.767822">
        <ele>493.4</ele>
        <time>2020-05-06T07:09:26Z</time>
      </trkpt>
      <trkpt lat="30.815702" lon="34.767806">
        <ele>493.2</ele>
        <time>2020-05-06T07:09:28Z</time>
      </trkpt>
      <trkpt lat="30.815710" lon="34.767801">
        <ele>493.2</ele>
        <time>2020-05-06T07:09:29Z</time>
      </trkpt>
      <trkpt lat="30.815724" lon="34.767809">
        <ele>493.2</ele>
        <time>2020-05-06T07:09:31Z</time>
      </trkpt>
      <trkpt lat="30.815743" lon="34.767825">
        <ele>493.2</ele>
        <time>2020-05-06T07:09:33Z</time>
      </trkpt>
      <trkpt lat="30.815745" lon="34.767823">
        <ele>493.2</ele>
        <time>2020-05-06T07:09:39Z</time>
      </trkpt>
      <trkpt lat="30.815733" lon="34.767837">
        <ele>493.6</ele>
        <time>2020-05-06T07:09:45Z</time>
      </trkpt>
      <trkpt lat="30.815724" lon="34.767837">
        <ele>493.8</ele>
        <time>2020-05-06T07:09:47Z</time>
      </trkpt>
      <trkpt lat="30.815722" lon="34.767820">
        <ele>494.0</ele>
        <time>2020-05-06T07:09:53Z</time>
      </trkpt>
      <trkpt lat="30.815731" lon="34.767805">
        <ele>493.8</ele>
        <time>2020-05-06T07:09:58Z</time>
      </trkpt>
      <trkpt lat="30.815726" lon="34.767805">
        <ele>493.8</ele>
        <time>2020-05-06T07:10:01Z</time>
      </trkpt>
      <trkpt lat="30.815689" lon="34.767808">
        <ele>493.8</ele>
        <time>2020-05-06T07:10:03Z</time>
      </trkpt>
      <trkpt lat="30.815564" lon="34.767810">
        <ele>493.6</ele>
        <time>2020-05-06T07:10:08Z</time>
      </trkpt>
      <trkpt lat="30.815460" lon="34.767798">
        <ele>494.2</ele>
        <time>2020-05-06T07:10:11Z</time>
      </trkpt>
      <trkpt lat="30.815306" lon="34.767742">
        <ele>494.4</ele>
        <time>2020-05-06T07:10:15Z</time>
      </trkpt>
      <trkpt lat="30.815159" lon="34.767683">
        <ele>494.0</ele>
        <time>2020-05-06T07:10:19Z</time>
      </trkpt>
      <trkpt lat="30.815010" lon="34.767610">
        <ele>493.6</ele>
        <time>2020-05-06T07:10:23Z</time>
      </trkpt>
      <trkpt lat="30.814833" lon="34.767544">
        <ele>494.0</ele>
        <time>2020-05-06T07:10:28Z</time>
      </trkpt>
      <trkpt lat="30.814612" lon="34.767391">
        <ele>494.4</ele>
        <time>2020-05-06T07:10:35Z</time>
      </trkpt>
      <trkpt lat="30.814415" lon="34.767305">
        <ele>494.4</ele>
        <time>2020-05-06T07:10:41Z</time>
      </trkpt>
      <trkpt lat="30.814211" lon="34.767242">
        <ele>494.4</ele>
        <time>2020-05-06T07:10:47Z</time>
      </trkpt>
      <trkpt lat="30.814016" lon="34.767119">
        <ele>494.0</ele>
        <time>2020-05-06T07:10:53Z</time>
      </trkpt>
      <trkpt lat="30.813978" lon="34.767090">
        <ele>494.2</ele>
        <time>2020-05-06T07:10:54Z</time>
      </trkpt>
      <trkpt lat="30.813860" lon="34.766998">
        <ele>495.0</ele>
        <time>2020-05-06T07:10:57Z</time>
      </trkpt>
      <trkpt lat="30.813820" lon="34.766964">
        <ele>495.2</ele>
        <time>2020-05-06T07:10:58Z</time>
      </trkpt>
      <trkpt lat="30.813709" lon="34.766859">
        <ele>495.2</ele>
        <time>2020-05-06T07:11:01Z</time>
      </trkpt>
      <trkpt lat="30.813634" lon="34.766800">
        <ele>495.0</ele>
        <time>2020-05-06T07:11:03Z</time>
      </trkpt>
      <trkpt lat="30.813547" lon="34.766703">
        <ele>495.6</ele>
        <time>2020-05-06T07:11:06Z</time>
      </trkpt>
      <trkpt lat="30.813454" lon="34.766608">
        <ele>496.2</ele>
        <time>2020-05-06T07:11:09Z</time>
      </trkpt>
      <trkpt lat="30.813382" lon="34.766542">
        <ele>496.8</ele>
        <time>2020-05-06T07:11:11Z</time>
      </trkpt>
      <trkpt lat="30.813294" lon="34.766486">
        <ele>497.2</ele>
        <time>2020-05-06T07:11:13Z</time>
      </trkpt>
      <trkpt lat="30.813197" lon="34.766421">
        <ele>498.0</ele>
        <time>2020-05-06T07:11:15Z</time>
      </trkpt>
      <trkpt lat="30.813090" lon="34.766284">
        <ele>498.4</ele>
        <time>2020-05-06T07:11:18Z</time>
      </trkpt>
      <trkpt lat="30.813062" lon="34.766253">
        <ele>498.4</ele>
        <time>2020-05-06T07:11:19Z</time>
      </trkpt>
      <trkpt lat="30.812994" lon="34.766183">
        <ele>498.4</ele>
        <time>2020-05-06T07:11:22Z</time>
      </trkpt>
      <trkpt lat="30.812946" lon="34.766136">
        <ele>498.6</ele>
        <time>2020-05-06T07:11:24Z</time>
      </trkpt>
      <trkpt lat="30.812839" lon="34.766069">
        <ele>499.4</ele>
        <time>2020-05-06T07:11:27Z</time>
      </trkpt>
      <trkpt lat="30.812801" lon="34.766034">
        <ele>499.8</ele>
        <time>2020-05-06T07:11:28Z</time>
      </trkpt>
      <trkpt lat="30.812766" lon="34.765995">
        <ele>500.0</ele>
        <time>2020-05-06T07:11:29Z</time>
      </trkpt>
      <trkpt lat="30.812619" lon="34.765767">
        <ele>500.6</ele>
        <time>2020-05-06T07:11:35Z</time>
      </trkpt>
      <trkpt lat="30.812547" lon="34.765667">
        <ele>500.6</ele>
        <time>2020-05-06T07:11:38Z</time>
      </trkpt>
      <trkpt lat="30.812499" lon="34.765605">
        <ele>500.8</ele>
        <time>2020-05-06T07:11:40Z</time>
      </trkpt>
      <trkpt lat="30.812379" lon="34.765341">
        <ele>501.8</ele>
        <time>2020-05-06T07:11:47Z</time>
      </trkpt>
      <trkpt lat="30.812340" lon="34.765148">
        <ele>502.0</ele>
        <time>2020-05-06T07:11:53Z</time>
      </trkpt>
      <trkpt lat="30.812351" lon="34.765008">
        <ele>502.2</ele>
        <time>2020-05-06T07:11:58Z</time>
      </trkpt>
      <trkpt lat="30.812345" lon="34.764984">
        <ele>502.0</ele>
        <time>2020-05-06T07:11:59Z</time>
      </trkpt>
      <trkpt lat="30.812257" lon="34.764955">
        <ele>501.8</ele>
        <time>2020-05-06T07:12:03Z</time>
      </trkpt>
      <trkpt lat="30.812128" lon="34.764954">
        <ele>501.8</ele>
        <time>2020-05-06T07:12:09Z</time>
      </trkpt>
      <trkpt lat="30.812108" lon="34.764950">
        <ele>501.8</ele>
        <time>2020-05-06T07:12:10Z</time>
      </trkpt>
      <trkpt lat="30.811957" lon="34.764886">
        <ele>500.8</ele>
        <time>2020-05-06T07:12:16Z</time>
      </trkpt>
      <trkpt lat="30.811908" lon="34.764858">
        <ele>500.6</ele>
        <time>2020-05-06T07:12:18Z</time>
      </trkpt>
      <trkpt lat="30.811806" lon="34.764840">
        <ele>500.2</ele>
        <time>2020-05-06T07:12:23Z</time>
      </trkpt>
      <trkpt lat="30.811739" lon="34.764837">
        <ele>499.8</ele>
        <time>2020-05-06T07:12:27Z</time>
      </trkpt>
      <trkpt lat="30.811724" lon="34.764834">
        <ele>499.6</ele>
        <time>2020-05-06T07:12:28Z</time>
      </trkpt>
      <trkpt lat="30.811676" lon="34.764821">
        <ele>498.8</ele>
        <time>2020-05-06T07:12:31Z</time>
      </trkpt>
      <trkpt lat="30.811659" lon="34.764820">
        <ele>498.4</ele>
        <time>2020-05-06T07:12:32Z</time>
      </trkpt>
      <trkpt lat="30.811609" lon="34.764876">
        <ele>497.4</ele>
        <time>2020-05-06T07:12:36Z</time>
      </trkpt>
      <trkpt lat="30.811599" lon="34.764896">
        <ele>497.2</ele>
        <time>2020-05-06T07:12:37Z</time>
      </trkpt>
      <trkpt lat="30.811565" lon="34.764928">
        <ele>497.0</ele>
        <time>2020-05-06T07:12:39Z</time>
      </trkpt>
      <trkpt lat="30.811517" lon="34.764988">
        <ele>496.2</ele>
        <time>2020-05-06T07:12:42Z</time>
      </trkpt>
      <trkpt lat="30.811447" lon="34.765017">
        <ele>495.8</ele>
        <time>2020-05-06T07:12:46Z</time>
      </trkpt>
      <trkpt lat="30.811399" lon="34.765011">
        <ele>495.6</ele>
        <time>2020-05-06T07:12:48Z</time>
      </trkpt>
      <trkpt lat="30.811344" lon="34.765004">
        <ele>495.8</ele>
        <time>2020-05-06T07:12:50Z</time>
      </trkpt>
      <trkpt lat="30.811224" lon="34.764963">
        <ele>496.0</ele>
        <time>2020-05-06T07:12:54Z</time>
      </trkpt>
      <trkpt lat="30.811197" lon="34.764949">
        <ele>496.0</ele>
        <time>2020-05-06T07:12:55Z</time>
      </trkpt>
      <trkpt lat="30.811071" lon="34.764948">
        <ele>495.6</ele>
        <time>2020-05-06T07:12:59Z</time>
      </trkpt>
      <trkpt lat="30.811017" lon="34.764978">
        <ele>495.4</ele>
        <time>2020-05-06T07:13:01Z</time>
      </trkpt>
      <trkpt lat="30.810953" lon="34.765048">
        <ele>495.2</ele>
        <time>2020-05-06T07:13:05Z</time>
      </trkpt>
      <trkpt lat="30.810943" lon="34.765059">
        <ele>495.2</ele>
        <time>2020-05-06T07:13:06Z</time>
      </trkpt>
      <trkpt lat="30.810947" lon="34.765062">
        <ele>495.2</ele>
        <time>2020-05-06T07:13:11Z</time>
      </trkpt>
      <trkpt lat="30.810948" lon="34.765065">
        <ele>495.2</ele>
        <time>2020-05-06T07:13:12Z</time>
      </trkpt>
      <trkpt lat="30.810925" lon="34.765081">
        <ele>495.0</ele>
        <time>2020-05-06T07:13:15Z</time>
      </trkpt>
      <trkpt lat="30.810906" lon="34.765098">
        <ele>495.0</ele>
        <time>2020-05-06T07:13:17Z</time>
      </trkpt>
      <trkpt lat="30.810887" lon="34.765111">
        <ele>495.0</ele>
        <time>2020-05-06T07:13:19Z</time>
      </trkpt>
      <trkpt lat="30.810884" lon="34.765127">
        <ele>495.0</ele>
        <time>2020-05-06T07:13:20Z</time>
      </trkpt>
      <trkpt lat="30.810873" lon="34.765141">
        <ele>495.2</ele>
        <time>2020-05-06T07:13:22Z</time>
      </trkpt>
      <trkpt lat="30.810867" lon="34.765147">
        <ele>495.4</ele>
        <time>2020-05-06T07:13:23Z</time>
      </trkpt>
      <trkpt lat="30.810842" lon="34.765201">
        <ele>496.2</ele>
        <time>2020-05-06T07:13:26Z</time>
      </trkpt>
      <trkpt lat="30.810822" lon="34.765226">
        <ele>496.6</ele>
        <time>2020-05-06T07:13:27Z</time>
      </trkpt>
      <trkpt lat="30.810802" lon="34.765243">
        <ele>497.2</ele>
        <time>2020-05-06T07:13:28Z</time>
      </trkpt>
      <trkpt lat="30.810782" lon="34.765321">
        <ele>498.4</ele>
        <time>2020-05-06T07:13:31Z</time>
      </trkpt>
      <trkpt lat="30.810843" lon="34.765450">
        <ele>499.8</ele>
        <time>2020-05-06T07:13:35Z</time>
      </trkpt>
      <trkpt lat="30.810877" lon="34.765516">
        <ele>500.8</ele>
        <time>2020-05-06T07:13:37Z</time>
      </trkpt>
      <trkpt lat="30.810931" lon="34.765647">
        <ele>501.0</ele>
        <time>2020-05-06T07:13:41Z</time>
      </trkpt>
      <trkpt lat="30.810871" lon="34.765834">
        <ele>501.4</ele>
        <time>2020-05-06T07:13:48Z</time>
      </trkpt>
      <trkpt lat="30.810814" lon="34.765973">
        <ele>501.4</ele>
        <time>2020-05-06T07:13:53Z</time>
      </trkpt>
      <trkpt lat="30.810749" lon="34.766086">
        <ele>501.2</ele>
        <time>2020-05-06T07:13:56Z</time>
      </trkpt>
      <trkpt lat="30.810717" lon="34.766110">
        <ele>501.4</ele>
        <time>2020-05-06T07:13:57Z</time>
      </trkpt>
      <trkpt lat="30.810584" lon="34.766115">
        <ele>501.6</ele>
        <time>2020-05-06T07:14:01Z</time>
      </trkpt>
      <trkpt lat="30.810467" lon="34.766064">
        <ele>501.6</ele>
        <time>2020-05-06T07:14:04Z</time>
      </trkpt>
      <trkpt lat="30.810349" lon="34.765977">
        <ele>501.8</ele>
        <time>2020-05-06T07:14:07Z</time>
      </trkpt>
      <trkpt lat="30.810066" lon="34.765757">
        <ele>501.6</ele>
        <time>2020-05-06T07:14:14Z</time>
      </trkpt>
      <trkpt lat="30.809914" lon="34.765620">
        <ele>501.4</ele>
        <time>2020-05-06T07:14:18Z</time>
      </trkpt>
      <trkpt lat="30.809769" lon="34.765499">
        <ele>501.8</ele>
        <time>2020-05-06T07:14:22Z</time>
      </trkpt>
      <trkpt lat="30.809730" lon="34.765471">
        <ele>501.8</ele>
        <time>2020-05-06T07:14:23Z</time>
      </trkpt>
      <trkpt lat="30.809430" lon="34.765312">
        <ele>502.0</ele>
        <time>2020-05-06T07:14:30Z</time>
      </trkpt>
      <trkpt lat="30.809343" lon="34.765263">
        <ele>502.0</ele>
        <time>2020-05-06T07:14:32Z</time>
      </trkpt>
      <trkpt lat="30.809256" lon="34.765218">
        <ele>502.0</ele>
        <time>2020-05-06T07:14:34Z</time>
      </trkpt>
      <trkpt lat="30.809169" lon="34.765191">
        <ele>501.8</ele>
        <time>2020-05-06T07:14:36Z</time>
      </trkpt>
      <trkpt lat="30.808857" lon="34.765103">
        <ele>501.8</ele>
        <time>2020-05-06T07:14:44Z</time>
      </trkpt>
      <trkpt lat="30.808818" lon="34.765087">
        <ele>502.0</ele>
        <time>2020-05-06T07:14:45Z</time>
      </trkpt>
      <trkpt lat="30.808734" lon="34.765050">
        <ele>502.2</ele>
        <time>2020-05-06T07:14:47Z</time>
      </trkpt>
      <trkpt lat="30.808577" lon="34.764970">
        <ele>502.0</ele>
        <time>2020-05-06T07:14:51Z</time>
      </trkpt>
      <trkpt lat="30.808446" lon="34.764908">
        <ele>502.0</ele>
        <time>2020-05-06T07:14:54Z</time>
      </trkpt>
      <trkpt lat="30.808259" lon="34.764853">
        <ele>502.0</ele>
        <time>2020-05-06T07:14:59Z</time>
      </trkpt>
      <trkpt lat="30.808184" lon="34.764833">
        <ele>502.4</ele>
        <time>2020-05-06T07:15:02Z</time>
      </trkpt>
      <trkpt lat="30.808160" lon="34.764825">
        <ele>503.0</ele>
        <time>2020-05-06T07:15:04Z</time>
      </trkpt>
      <trkpt lat="30.808149" lon="34.764819">
        <ele>503.4</ele>
        <time>2020-05-06T07:15:05Z</time>
      </trkpt>
      <trkpt lat="30.808132" lon="34.764814">
        <ele>503.6</ele>
        <time>2020-05-06T07:15:09Z</time>
      </trkpt>
      <trkpt lat="30.808124" lon="34.764812">
        <ele>503.4</ele>
        <time>2020-05-06T07:15:10Z</time>
      </trkpt>
      <trkpt lat="30.808111" lon="34.764801">
        <ele>503.2</ele>
        <time>2020-05-06T07:15:16Z</time>
      </trkpt>
      <trkpt lat="30.808108" lon="34.764802">
        <ele>503.2</ele>
        <time>2020-05-06T07:15:17Z</time>
      </trkpt>
      <trkpt lat="30.808093" lon="34.764792">
        <ele>503.6</ele>
        <time>2020-05-06T07:15:26Z</time>
      </trkpt>
      <trkpt lat="30.808091" lon="34.764791">
        <ele>503.8</ele>
        <time>2020-05-06T07:15:31Z</time>
      </trkpt>
      <trkpt lat="30.808100" lon="34.764787">
        <ele>503.4</ele>
        <time>2020-05-06T07:15:35Z</time>
      </trkpt>
      <trkpt lat="30.808139" lon="34.764807">
        <ele>502.8</ele>
        <time>2020-05-06T07:15:39Z</time>
      </trkpt>
      <trkpt lat="30.808147" lon="34.764814">
        <ele>502.6</ele>
        <time>2020-05-06T07:15:40Z</time>
      </trkpt>
      <trkpt lat="30.808151" lon="34.764820">
        <ele>502.6</ele>
        <time>2020-05-06T07:15:41Z</time>
      </trkpt>
      <trkpt lat="30.808164" lon="34.764812">
        <ele>502.8</ele>
        <time>2020-05-06T07:15:45Z</time>
      </trkpt>
      <trkpt lat="30.808100" lon="34.764838">
        <ele>503.4</ele>
        <time>2020-05-06T07:15:49Z</time>
      </trkpt>
      <trkpt lat="30.808065" lon="34.764856">
        <ele>503.4</ele>
        <time>2020-05-06T07:15:50Z</time>
      </trkpt>
      <trkpt lat="30.807918" lon="34.764944">
        <ele>503.8</ele>
        <time>2020-05-06T07:15:54Z</time>
      </trkpt>
      <trkpt lat="30.807759" lon="34.765074">
        <ele>504.4</ele>
        <time>2020-05-06T07:15:58Z</time>
      </trkpt>
      <trkpt lat="30.807678" lon="34.765137">
        <ele>505.8</ele>
        <time>2020-05-06T07:16:00Z</time>
      </trkpt>
      <trkpt lat="30.807636" lon="34.765172">
        <ele>506.8</ele>
        <time>2020-05-06T07:16:01Z</time>
      </trkpt>
      <trkpt lat="30.807549" lon="34.765248">
        <ele>508.2</ele>
        <time>2020-05-06T07:16:03Z</time>
      </trkpt>
      <trkpt lat="30.807506" lon="34.765294">
        <ele>508.6</ele>
        <time>2020-05-06T07:16:04Z</time>
      </trkpt>
      <trkpt lat="30.807393" lon="34.765439">
        <ele>509.0</ele>
        <time>2020-05-06T07:16:07Z</time>
      </trkpt>
      <trkpt lat="30.807205" lon="34.765687">
        <ele>509.2</ele>
        <time>2020-05-06T07:16:13Z</time>
      </trkpt>
      <trkpt lat="30.807131" lon="34.765754">
        <ele>510.2</ele>
        <time>2020-05-06T07:16:15Z</time>
      </trkpt>
      <trkpt lat="30.807067" lon="34.765819">
        <ele>511.2</ele>
        <time>2020-05-06T07:16:17Z</time>
      </trkpt>
      <trkpt lat="30.807039" lon="34.765855">
        <ele>511.4</ele>
        <time>2020-05-06T07:16:18Z</time>
      </trkpt>
      <trkpt lat="30.807016" lon="34.765902">
        <ele>511.6</ele>
        <time>2020-05-06T07:16:19Z</time>
      </trkpt>
      <trkpt lat="30.806997" lon="34.765951">
        <ele>512.0</ele>
        <time>2020-05-06T07:16:20Z</time>
      </trkpt>
      <trkpt lat="30.806980" lon="34.765998">
        <ele>512.2</ele>
        <time>2020-05-06T07:16:21Z</time>
      </trkpt>
      <trkpt lat="30.806958" lon="34.766102">
        <ele>512.4</ele>
        <time>2020-05-06T07:16:23Z</time>
      </trkpt>
      <trkpt lat="30.806913" lon="34.766404">
        <ele>512.8</ele>
        <time>2020-05-06T07:16:29Z</time>
      </trkpt>
      <trkpt lat="30.806857" lon="34.766536">
        <ele>513.0</ele>
        <time>2020-05-06T07:16:32Z</time>
      </trkpt>
      <trkpt lat="30.806842" lon="34.766584">
        <ele>513.2</ele>
        <time>2020-05-06T07:16:33Z</time>
      </trkpt>
      <trkpt lat="30.806830" lon="34.766633">
        <ele>513.4</ele>
        <time>2020-05-06T07:16:34Z</time>
      </trkpt>
      <trkpt lat="30.806811" lon="34.766727">
        <ele>513.6</ele>
        <time>2020-05-06T07:16:36Z</time>
      </trkpt>
      <trkpt lat="30.806746" lon="34.766857">
        <ele>514.2</ele>
        <time>2020-05-06T07:16:39Z</time>
      </trkpt>
      <trkpt lat="30.806723" lon="34.766900">
        <ele>513.8</ele>
        <time>2020-05-06T07:16:40Z</time>
      </trkpt>
      <trkpt lat="30.806695" lon="34.766993">
        <ele>513.8</ele>
        <time>2020-05-06T07:16:42Z</time>
      </trkpt>
      <trkpt lat="30.806661" lon="34.767292">
        <ele>512.6</ele>
        <time>2020-05-06T07:16:48Z</time>
      </trkpt>
      <trkpt lat="30.806613" lon="34.767596">
        <ele>513.0</ele>
        <time>2020-05-06T07:16:54Z</time>
      </trkpt>
      <trkpt lat="30.806613" lon="34.767769">
        <ele>513.0</ele>
        <time>2020-05-06T07:16:57Z</time>
      </trkpt>
      <trkpt lat="30.806617" lon="34.767872">
        <ele>514.2</ele>
        <time>2020-05-06T07:16:59Z</time>
      </trkpt>
      <trkpt lat="30.806614" lon="34.767932">
        <ele>514.6</ele>
        <time>2020-05-06T07:17:00Z</time>
      </trkpt>
      <trkpt lat="30.806609" lon="34.767994">
        <ele>514.8</ele>
        <time>2020-05-06T07:17:01Z</time>
      </trkpt>
      <trkpt lat="30.806579" lon="34.768157">
        <ele>515.2</ele>
        <time>2020-05-06T07:17:04Z</time>
      </trkpt>
      <trkpt lat="30.806550" lon="34.768256">
        <ele>515.2</ele>
        <time>2020-05-06T07:17:06Z</time>
      </trkpt>
      <trkpt lat="30.806434" lon="34.768585">
        <ele>515.2</ele>
        <time>2020-05-06T07:17:14Z</time>
      </trkpt>
      <trkpt lat="30.806377" lon="34.768733">
        <ele>515.2</ele>
        <time>2020-05-06T07:17:19Z</time>
      </trkpt>
      <trkpt lat="30.806287" lon="34.768771">
        <ele>514.2</ele>
        <time>2020-05-06T07:17:24Z</time>
      </trkpt>
      <trkpt lat="30.806156" lon="34.768774">
        <ele>514.4</ele>
        <time>2020-05-06T07:17:27Z</time>
      </trkpt>
      <trkpt lat="30.806100" lon="34.768774">
        <ele>514.8</ele>
        <time>2020-05-06T07:17:28Z</time>
      </trkpt>
      <trkpt lat="30.805978" lon="34.768787">
        <ele>515.8</ele>
        <time>2020-05-06T07:17:30Z</time>
      </trkpt>
      <trkpt lat="30.805920" lon="34.768798">
        <ele>516.4</ele>
        <time>2020-05-06T07:17:31Z</time>
      </trkpt>
      <trkpt lat="30.805866" lon="34.768810">
        <ele>517.0</ele>
        <time>2020-05-06T07:17:32Z</time>
      </trkpt>
      <trkpt lat="30.805822" lon="34.768825">
        <ele>517.4</ele>
        <time>2020-05-06T07:17:33Z</time>
      </trkpt>
      <trkpt lat="30.805662" lon="34.768893">
        <ele>518.4</ele>
        <time>2020-05-06T07:17:37Z</time>
      </trkpt>
      <trkpt lat="30.805621" lon="34.768907">
        <ele>518.8</ele>
        <time>2020-05-06T07:17:38Z</time>
      </trkpt>
      <trkpt lat="30.805581" lon="34.768924">
        <ele>519.0</ele>
        <time>2020-05-06T07:17:39Z</time>
      </trkpt>
      <trkpt lat="30.805518" lon="34.768955">
        <ele>519.2</ele>
        <time>2020-05-06T07:17:41Z</time>
      </trkpt>
      <trkpt lat="30.805364" lon="34.769019">
        <ele>519.2</ele>
        <time>2020-05-06T07:17:45Z</time>
      </trkpt>
      <trkpt lat="30.805287" lon="34.769025">
        <ele>519.0</ele>
        <time>2020-05-06T07:17:47Z</time>
      </trkpt>
      <trkpt lat="30.805089" lon="34.768979">
        <ele>519.0</ele>
        <time>2020-05-06T07:17:52Z</time>
      </trkpt>
      <trkpt lat="30.804964" lon="34.768979">
        <ele>520.0</ele>
        <time>2020-05-06T07:17:55Z</time>
      </trkpt>
      <trkpt lat="30.804924" lon="34.768990">
        <ele>520.0</ele>
        <time>2020-05-06T07:17:56Z</time>
      </trkpt>
      <trkpt lat="30.804888" lon="34.769007">
        <ele>520.0</ele>
        <time>2020-05-06T07:17:57Z</time>
      </trkpt>
      <trkpt lat="30.804693" lon="34.769069">
        <ele>518.8</ele>
        <time>2020-05-06T07:18:03Z</time>
      </trkpt>
      <trkpt lat="30.804634" lon="34.769086">
        <ele>518.6</ele>
        <time>2020-05-06T07:18:05Z</time>
      </trkpt>
      <trkpt lat="30.804540" lon="34.769115">
        <ele>519.0</ele>
        <time>2020-05-06T07:18:07Z</time>
      </trkpt>
      <trkpt lat="30.804442" lon="34.769120">
        <ele>520.4</ele>
        <time>2020-05-06T07:18:09Z</time>
      </trkpt>
      <trkpt lat="30.804398" lon="34.769098">
        <ele>520.4</ele>
        <time>2020-05-06T07:18:10Z</time>
      </trkpt>
      <trkpt lat="30.804083" lon="34.768930">
        <ele>519.4</ele>
        <time>2020-05-06T07:18:17Z</time>
      </trkpt>
      <trkpt lat="30.804036" lon="34.768913">
        <ele>519.4</ele>
        <time>2020-05-06T07:18:18Z</time>
      </trkpt>
      <trkpt lat="30.803749" lon="34.768767">
        <ele>519.4</ele>
        <time>2020-05-06T07:18:24Z</time>
      </trkpt>
      <trkpt lat="30.803515" lon="34.768653">
        <ele>519.6</ele>
        <time>2020-05-06T07:18:29Z</time>
      </trkpt>
      <trkpt lat="30.803378" lon="34.768587">
        <ele>520.0</ele>
        <time>2020-05-06T07:18:32Z</time>
      </trkpt>
      <trkpt lat="30.803021" lon="34.768440">
        <ele>520.4</ele>
        <time>2020-05-06T07:18:40Z</time>
      </trkpt>
      <trkpt lat="30.802664" lon="34.768313">
        <ele>520.4</ele>
        <time>2020-05-06T07:18:48Z</time>
      </trkpt>
      <trkpt lat="30.802384" lon="34.768198">
        <ele>520.2</ele>
        <time>2020-05-06T07:18:55Z</time>
      </trkpt>
      <trkpt lat="30.802307" lon="34.768161">
        <ele>520.2</ele>
        <time>2020-05-06T07:18:57Z</time>
      </trkpt>
      <trkpt lat="30.802159" lon="34.768081">
        <ele>520.4</ele>
        <time>2020-05-06T07:19:01Z</time>
      </trkpt>
      <trkpt lat="30.802004" lon="34.768020">
        <ele>521.2</ele>
        <time>2020-05-06T07:19:05Z</time>
      </trkpt>
      <trkpt lat="30.801795" lon="34.767928">
        <ele>520.6</ele>
        <time>2020-05-06T07:19:11Z</time>
      </trkpt>
      <trkpt lat="30.801624" lon="34.767930">
        <ele>521.0</ele>
        <time>2020-05-06T07:19:17Z</time>
      </trkpt>
      <trkpt lat="30.801551" lon="34.767938">
        <ele>520.8</ele>
        <time>2020-05-06T07:19:19Z</time>
      </trkpt>
      <trkpt lat="30.801365" lon="34.767891">
        <ele>520.4</ele>
        <time>2020-05-06T07:19:23Z</time>
      </trkpt>
      <trkpt lat="30.801223" lon="34.767838">
        <ele>520.6</ele>
        <time>2020-05-06T07:19:26Z</time>
      </trkpt>
      <trkpt lat="30.801180" lon="34.767813">
        <ele>520.6</ele>
        <time>2020-05-06T07:19:27Z</time>
      </trkpt>
      <trkpt lat="30.801136" lon="34.767784">
        <ele>520.4</ele>
        <time>2020-05-06T07:19:28Z</time>
      </trkpt>
      <trkpt lat="30.801007" lon="34.767692">
        <ele>520.0</ele>
        <time>2020-05-06T07:19:31Z</time>
      </trkpt>
      <trkpt lat="30.800863" lon="34.767616">
        <ele>519.6</ele>
        <time>2020-05-06T07:19:34Z</time>
      </trkpt>
      <trkpt lat="30.800477" lon="34.767393">
        <ele>519.2</ele>
        <time>2020-05-06T07:19:42Z</time>
      </trkpt>
      <trkpt lat="30.800043" lon="34.767070">
        <ele>519.4</ele>
        <time>2020-05-06T07:19:51Z</time>
      </trkpt>
      <trkpt lat="30.799946" lon="34.767009">
        <ele>519.2</ele>
        <time>2020-05-06T07:19:53Z</time>
      </trkpt>
      <trkpt lat="30.799754" lon="34.766916">
        <ele>519.4</ele>
        <time>2020-05-06T07:19:57Z</time>
      </trkpt>
      <trkpt lat="30.799573" lon="34.766870">
        <ele>519.8</ele>
        <time>2020-05-06T07:20:01Z</time>
      </trkpt>
      <trkpt lat="30.799528" lon="34.766865">
        <ele>519.4</ele>
        <time>2020-05-06T07:20:02Z</time>
      </trkpt>
      <trkpt lat="30.799389" lon="34.766857">
        <ele>519.4</ele>
        <time>2020-05-06T07:20:05Z</time>
      </trkpt>
      <trkpt lat="30.799342" lon="34.766856">
        <ele>519.4</ele>
        <time>2020-05-06T07:20:06Z</time>
      </trkpt>
      <trkpt lat="30.799250" lon="34.766857">
        <ele>519.2</ele>
        <time>2020-05-06T07:20:08Z</time>
      </trkpt>
      <trkpt lat="30.799206" lon="34.766861">
        <ele>519.0</ele>
        <time>2020-05-06T07:20:09Z</time>
      </trkpt>
      <trkpt lat="30.799117" lon="34.766880">
        <ele>518.0</ele>
        <time>2020-05-06T07:20:11Z</time>
      </trkpt>
      <trkpt lat="30.798812" lon="34.767068">
        <ele>517.4</ele>
        <time>2020-05-06T07:20:19Z</time>
      </trkpt>
      <trkpt lat="30.798709" lon="34.767149">
        <ele>518.2</ele>
        <time>2020-05-06T07:20:22Z</time>
      </trkpt>
      <trkpt lat="30.798578" lon="34.767261">
        <ele>518.4</ele>
        <time>2020-05-06T07:20:26Z</time>
      </trkpt>
      <trkpt lat="30.798490" lon="34.767337">
        <ele>519.4</ele>
        <time>2020-05-06T07:20:29Z</time>
      </trkpt>
      <trkpt lat="30.798396" lon="34.767386">
        <ele>519.8</ele>
        <time>2020-05-06T07:20:32Z</time>
      </trkpt>
      <trkpt lat="30.798229" lon="34.767483">
        <ele>520.6</ele>
        <time>2020-05-06T07:20:38Z</time>
      </trkpt>
      <trkpt lat="30.798202" lon="34.767503">
        <ele>520.6</ele>
        <time>2020-05-06T07:20:39Z</time>
      </trkpt>
      <trkpt lat="30.797995" lon="34.767628">
        <ele>521.4</ele>
        <time>2020-05-06T07:20:45Z</time>
      </trkpt>
      <trkpt lat="30.797919" lon="34.767658">
        <ele>521.6</ele>
        <time>2020-05-06T07:20:47Z</time>
      </trkpt>
      <trkpt lat="30.797810" lon="34.767676">
        <ele>521.0</ele>
        <time>2020-05-06T07:20:50Z</time>
      </trkpt>
      <trkpt lat="30.797535" lon="34.767633">
        <ele>519.8</ele>
        <time>2020-05-06T07:20:56Z</time>
      </trkpt>
      <trkpt lat="30.797192" lon="34.767528">
        <ele>519.8</ele>
        <time>2020-05-06T07:21:03Z</time>
      </trkpt>
      <trkpt lat="30.796999" lon="34.767514">
        <ele>520.6</ele>
        <time>2020-05-06T07:21:07Z</time>
      </trkpt>
      <trkpt lat="30.796861" lon="34.767510">
        <ele>521.6</ele>
        <time>2020-05-06T07:21:10Z</time>
      </trkpt>
      <trkpt lat="30.796818" lon="34.767509">
        <ele>522.2</ele>
        <time>2020-05-06T07:21:11Z</time>
      </trkpt>
      <trkpt lat="30.796741" lon="34.767503">
        <ele>522.8</ele>
        <time>2020-05-06T07:21:13Z</time>
      </trkpt>
      <trkpt lat="30.796670" lon="34.767481">
        <ele>522.6</ele>
        <time>2020-05-06T07:21:15Z</time>
      </trkpt>
      <trkpt lat="30.796526" lon="34.767419">
        <ele>521.4</ele>
        <time>2020-05-06T07:21:19Z</time>
      </trkpt>
      <trkpt lat="30.796233" lon="34.767262">
        <ele>521.4</ele>
        <time>2020-05-06T07:21:27Z</time>
      </trkpt>
      <trkpt lat="30.796188" lon="34.767249">
        <ele>521.4</ele>
        <time>2020-05-06T07:21:28Z</time>
      </trkpt>
      <trkpt lat="30.796116" lon="34.767231">
        <ele>521.2</ele>
        <time>2020-05-06T07:21:30Z</time>
      </trkpt>
      <trkpt lat="30.796035" lon="34.767239">
        <ele>521.2</ele>
        <time>2020-05-06T07:21:32Z</time>
      </trkpt>
      <trkpt lat="30.795935" lon="34.767300">
        <ele>521.6</ele>
        <time>2020-05-06T07:21:35Z</time>
      </trkpt>
      <trkpt lat="30.795908" lon="34.767329">
        <ele>521.8</ele>
        <time>2020-05-06T07:21:36Z</time>
      </trkpt>
      <trkpt lat="30.795877" lon="34.767360">
        <ele>522.2</ele>
        <time>2020-05-06T07:21:37Z</time>
      </trkpt>
      <trkpt lat="30.795802" lon="34.767411">
        <ele>522.4</ele>
        <time>2020-05-06T07:21:39Z</time>
      </trkpt>
      <trkpt lat="30.795593" lon="34.767462">
        <ele>522.6</ele>
        <time>2020-05-06T07:21:44Z</time>
      </trkpt>
      <trkpt lat="30.795473" lon="34.767499">
        <ele>522.0</ele>
        <time>2020-05-06T07:21:47Z</time>
      </trkpt>
      <trkpt lat="30.795309" lon="34.767549">
        <ele>522.8</ele>
        <time>2020-05-06T07:21:52Z</time>
      </trkpt>
      <trkpt lat="30.795247" lon="34.767566">
        <ele>523.6</ele>
        <time>2020-05-06T07:21:54Z</time>
      </trkpt>
      <trkpt lat="30.795219" lon="34.767574">
        <ele>524.0</ele>
        <time>2020-05-06T07:21:55Z</time>
      </trkpt>
      <trkpt lat="30.795166" lon="34.767583">
        <ele>524.0</ele>
        <time>2020-05-06T07:21:57Z</time>
      </trkpt>
      <trkpt lat="30.794968" lon="34.767503">
        <ele>524.4</ele>
        <time>2020-05-06T07:22:04Z</time>
      </trkpt>
      <trkpt lat="30.794910" lon="34.767471">
        <ele>524.2</ele>
        <time>2020-05-06T07:22:06Z</time>
      </trkpt>
      <trkpt lat="30.794728" lon="34.767412">
        <ele>522.6</ele>
        <time>2020-05-06T07:22:11Z</time>
      </trkpt>
      <trkpt lat="30.794591" lon="34.767429">
        <ele>522.8</ele>
        <time>2020-05-06T07:22:15Z</time>
      </trkpt>
      <trkpt lat="30.794513" lon="34.767474">
        <ele>522.8</ele>
        <time>2020-05-06T07:22:17Z</time>
      </trkpt>
      <trkpt lat="30.794473" lon="34.767498">
        <ele>522.8</ele>
        <time>2020-05-06T07:22:18Z</time>
      </trkpt>
      <trkpt lat="30.794429" lon="34.767523">
        <ele>523.0</ele>
        <time>2020-05-06T07:22:19Z</time>
      </trkpt>
      <trkpt lat="30.794388" lon="34.767546">
        <ele>523.0</ele>
        <time>2020-05-06T07:22:20Z</time>
      </trkpt>
      <trkpt lat="30.794347" lon="34.767570">
        <ele>523.2</ele>
        <time>2020-05-06T07:22:21Z</time>
      </trkpt>
      <trkpt lat="30.794260" lon="34.767618">
        <ele>523.4</ele>
        <time>2020-05-06T07:22:23Z</time>
      </trkpt>
      <trkpt lat="30.794086" lon="34.767738">
        <ele>523.8</ele>
        <time>2020-05-06T07:22:28Z</time>
      </trkpt>
      <trkpt lat="30.794058" lon="34.767768">
        <ele>523.8</ele>
        <time>2020-05-06T07:22:29Z</time>
      </trkpt>
      <trkpt lat="30.794028" lon="34.767798">
        <ele>523.6</ele>
        <time>2020-05-06T07:22:30Z</time>
      </trkpt>
      <trkpt lat="30.793947" lon="34.767856">
        <ele>523.6</ele>
        <time>2020-05-06T07:22:32Z</time>
      </trkpt>
      <trkpt lat="30.793844" lon="34.767894">
        <ele>523.6</ele>
        <time>2020-05-06T07:22:34Z</time>
      </trkpt>
      <trkpt lat="30.793700" lon="34.767934">
        <ele>524.2</ele>
        <time>2020-05-06T07:22:37Z</time>
      </trkpt>
      <trkpt lat="30.793572" lon="34.767988">
        <ele>525.2</ele>
        <time>2020-05-06T07:22:40Z</time>
      </trkpt>
      <trkpt lat="30.793533" lon="34.768005">
        <ele>525.4</ele>
        <time>2020-05-06T07:22:41Z</time>
      </trkpt>
      <trkpt lat="30.793496" lon="34.768019">
        <ele>525.6</ele>
        <time>2020-05-06T07:22:42Z</time>
      </trkpt>
      <trkpt lat="30.793351" lon="34.768059">
        <ele>526.2</ele>
        <time>2020-05-06T07:22:46Z</time>
      </trkpt>
      <trkpt lat="30.793179" lon="34.768031">
        <ele>525.8</ele>
        <time>2020-05-06T07:22:52Z</time>
      </trkpt>
      <trkpt lat="30.793160" lon="34.768032">
        <ele>525.6</ele>
        <time>2020-05-06T07:22:53Z</time>
      </trkpt>
      <trkpt lat="30.793106" lon="34.768080">
        <ele>525.8</ele>
        <time>2020-05-06T07:22:56Z</time>
      </trkpt>
      <trkpt lat="30.792986" lon="34.768248">
        <ele>526.2</ele>
        <time>2020-05-06T07:23:01Z</time>
      </trkpt>
      <trkpt lat="30.792968" lon="34.768291">
        <ele>526.2</ele>
        <time>2020-05-06T07:23:02Z</time>
      </trkpt>
      <trkpt lat="30.792420" lon="34.768444">
        <ele>526.6</ele>
        <time>2020-05-06T07:43:26Z</time>
      </trkpt>
      <trkpt lat="30.792388" lon="34.768422">
        <ele>526.4</ele>
        <time>2020-05-06T07:43:27Z</time>
      </trkpt>
      <trkpt lat="30.792223" lon="34.768366">
        <ele>524.8</ele>
        <time>2020-05-06T07:43:32Z</time>
      </trkpt>
      <trkpt lat="30.792085" lon="34.768400">
        <ele>524.8</ele>
        <time>2020-05-06T07:43:36Z</time>
      </trkpt>
      <trkpt lat="30.791987" lon="34.768446">
        <ele>525.6</ele>
        <time>2020-05-06T07:43:39Z</time>
      </trkpt>
      <trkpt lat="30.791852" lon="34.768566">
        <ele>527.4</ele>
        <time>2020-05-06T07:43:45Z</time>
      </trkpt>
      <trkpt lat="30.791815" lon="34.768587">
        <ele>527.4</ele>
        <time>2020-05-06T07:43:47Z</time>
      </trkpt>
      <trkpt lat="30.791802" lon="34.768593">
        <ele>527.2</ele>
        <time>2020-05-06T07:43:50Z</time>
      </trkpt>
      <trkpt lat="30.791786" lon="34.768622">
        <ele>527.0</ele>
        <time>2020-05-06T07:43:54Z</time>
      </trkpt>
      <trkpt lat="30.791785" lon="34.768633">
        <ele>527.2</ele>
        <time>2020-05-06T07:43:56Z</time>
      </trkpt>
      <trkpt lat="30.791806" lon="34.768631">
        <ele>528.0</ele>
        <time>2020-05-06T07:44:00Z</time>
      </trkpt>
      <trkpt lat="30.791814" lon="34.768628">
        <ele>528.2</ele>
        <time>2020-05-06T07:44:01Z</time>
      </trkpt>
      <trkpt lat="30.791829" lon="34.768637">
        <ele>529.0</ele>
        <time>2020-05-06T07:44:05Z</time>
      </trkpt>
      <trkpt lat="30.791926" lon="34.768717">
        <ele>528.4</ele>
        <time>2020-05-06T07:44:11Z</time>
      </trkpt>
      <trkpt lat="30.791956" lon="34.768767">
        <ele>527.8</ele>
        <time>2020-05-06T07:44:14Z</time>
      </trkpt>
      <trkpt lat="30.791900" lon="34.768818">
        <ele>528.2</ele>
        <time>2020-05-06T07:44:17Z</time>
      </trkpt>
      <trkpt lat="30.791849" lon="34.768869">
        <ele>528.6</ele>
        <time>2020-05-06T07:44:19Z</time>
      </trkpt>
      <trkpt lat="30.791683" lon="34.768979">
        <ele>529.2</ele>
        <time>2020-05-06T07:44:25Z</time>
      </trkpt>
      <trkpt lat="30.791658" lon="34.769008">
        <ele>529.0</ele>
        <time>2020-05-06T07:44:26Z</time>
      </trkpt>
      <trkpt lat="30.791495" lon="34.769306">
        <ele>528.6</ele>
        <time>2020-05-06T07:44:34Z</time>
      </trkpt>
      <trkpt lat="30.791393" lon="34.769466">
        <ele>528.6</ele>
        <time>2020-05-06T07:44:39Z</time>
      </trkpt>
      <trkpt lat="30.791235" lon="34.769622">
        <ele>529.4</ele>
        <time>2020-05-06T07:44:44Z</time>
      </trkpt>
      <trkpt lat="30.791135" lon="34.769723">
        <ele>530.2</ele>
        <time>2020-05-06T07:44:47Z</time>
      </trkpt>
      <trkpt lat="30.790894" lon="34.770059">
        <ele>530.0</ele>
        <time>2020-05-06T07:44:56Z</time>
      </trkpt>
      <trkpt lat="30.790687" lon="34.770423">
        <ele>529.8</ele>
        <time>2020-05-06T07:45:04Z</time>
      </trkpt>
      <trkpt lat="30.790402" lon="34.770783">
        <ele>530.2</ele>
        <time>2020-05-06T07:45:13Z</time>
      </trkpt>
      <trkpt lat="30.790176" lon="34.771095">
        <ele>530.4</ele>
        <time>2020-05-06T07:45:21Z</time>
      </trkpt>
      <trkpt lat="30.790001" lon="34.771449">
        <ele>531.0</ele>
        <time>2020-05-06T07:45:29Z</time>
      </trkpt>
      <trkpt lat="30.789943" lon="34.771567">
        <ele>531.6</ele>
        <time>2020-05-06T07:45:32Z</time>
      </trkpt>
      <trkpt lat="30.789837" lon="34.771781">
        <ele>532.6</ele>
        <time>2020-05-06T07:45:38Z</time>
      </trkpt>
      <trkpt lat="30.789681" lon="34.772093">
        <ele>532.4</ele>
        <time>2020-05-06T07:45:46Z</time>
      </trkpt>
      <trkpt lat="30.789658" lon="34.772135">
        <ele>532.4</ele>
        <time>2020-05-06T07:45:47Z</time>
      </trkpt>
      <trkpt lat="30.789639" lon="34.772177">
        <ele>532.6</ele>
        <time>2020-05-06T07:45:48Z</time>
      </trkpt>
      <trkpt lat="30.789580" lon="34.772360">
        <ele>533.4</ele>
        <time>2020-05-06T07:45:52Z</time>
      </trkpt>
      <trkpt lat="30.789494" lon="34.772581">
        <ele>533.2</ele>
        <time>2020-05-06T07:45:57Z</time>
      </trkpt>
      <trkpt lat="30.789462" lon="34.772684">
        <ele>533.2</ele>
        <time>2020-05-06T07:45:59Z</time>
      </trkpt>
      <trkpt lat="30.789442" lon="34.772904">
        <ele>533.8</ele>
        <time>2020-05-06T07:46:03Z</time>
      </trkpt>
      <trkpt lat="30.789438" lon="34.772956">
        <ele>534.4</ele>
        <time>2020-05-06T07:46:04Z</time>
      </trkpt>
      <trkpt lat="30.789433" lon="34.773009">
        <ele>535.0</ele>
        <time>2020-05-06T07:46:05Z</time>
      </trkpt>
      <trkpt lat="30.789431" lon="34.773222">
        <ele>536.2</ele>
        <time>2020-05-06T07:46:09Z</time>
      </trkpt>
      <trkpt lat="30.789426" lon="34.773369">
        <ele>536.6</ele>
        <time>2020-05-06T07:46:12Z</time>
      </trkpt>
      <trkpt lat="30.789436" lon="34.773653">
        <ele>537.0</ele>
        <time>2020-05-06T07:46:18Z</time>
      </trkpt>
      <trkpt lat="30.789423" lon="34.773802">
        <ele>537.2</ele>
        <time>2020-05-06T07:46:22Z</time>
      </trkpt>
      <trkpt lat="30.789401" lon="34.773856">
        <ele>538.4</ele>
        <time>2020-05-06T07:46:24Z</time>
      </trkpt>
      <trkpt lat="30.789370" lon="34.773964">
        <ele>539.6</ele>
        <time>2020-05-06T07:46:27Z</time>
      </trkpt>
      <trkpt lat="30.789377" lon="34.774011">
        <ele>539.8</ele>
        <time>2020-05-06T07:46:28Z</time>
      </trkpt>
      <trkpt lat="30.789396" lon="34.774167">
        <ele>540.0</ele>
        <time>2020-05-06T07:46:31Z</time>
      </trkpt>
      <trkpt lat="30.789394" lon="34.774219">
        <ele>540.2</ele>
        <time>2020-05-06T07:46:32Z</time>
      </trkpt>
      <trkpt lat="30.789371" lon="34.774488">
        <ele>540.0</ele>
        <time>2020-05-06T07:46:38Z</time>
      </trkpt>
      <trkpt lat="30.789365" lon="34.774694">
        <ele>540.0</ele>
        <time>2020-05-06T07:46:43Z</time>
      </trkpt>
      <trkpt lat="30.789320" lon="34.774921">
        <ele>540.0</ele>
        <time>2020-05-06T07:46:48Z</time>
      </trkpt>
      <trkpt lat="30.789292" lon="34.775038">
        <ele>540.8</ele>
        <time>2020-05-06T07:46:51Z</time>
      </trkpt>
      <trkpt lat="30.789281" lon="34.775077">
        <ele>541.2</ele>
        <time>2020-05-06T07:46:52Z</time>
      </trkpt>
      <trkpt lat="30.789248" lon="34.775285">
        <ele>542.2</ele>
        <time>2020-05-06T07:46:57Z</time>
      </trkpt>
      <trkpt lat="30.789256" lon="34.775482">
        <ele>541.2</ele>
        <time>2020-05-06T07:47:03Z</time>
      </trkpt>
      <trkpt lat="30.789247" lon="34.775551">
        <ele>541.0</ele>
        <time>2020-05-06T07:47:05Z</time>
      </trkpt>
      <trkpt lat="30.789212" lon="34.775597">
        <ele>540.4</ele>
        <time>2020-05-06T07:47:07Z</time>
      </trkpt>
      <trkpt lat="30.789164" lon="34.775628">
        <ele>539.8</ele>
        <time>2020-05-06T07:47:09Z</time>
      </trkpt>
      <trkpt lat="30.789051" lon="34.775707">
        <ele>538.8</ele>
        <time>2020-05-06T07:47:13Z</time>
      </trkpt>
      <trkpt lat="30.788887" lon="34.775862">
        <ele>537.8</ele>
        <time>2020-05-06T07:47:19Z</time>
      </trkpt>
      <trkpt lat="30.788861" lon="34.775900">
        <ele>537.8</ele>
        <time>2020-05-06T07:47:20Z</time>
      </trkpt>
      <trkpt lat="30.788819" lon="34.775985">
        <ele>537.8</ele>
        <time>2020-05-06T07:47:22Z</time>
      </trkpt>
      <trkpt lat="30.788805" lon="34.776035">
        <ele>538.0</ele>
        <time>2020-05-06T07:47:23Z</time>
      </trkpt>
      <trkpt lat="30.788773" lon="34.776237">
        <ele>537.8</ele>
        <time>2020-05-06T07:47:27Z</time>
      </trkpt>
      <trkpt lat="30.788767" lon="34.776333">
        <ele>538.4</ele>
        <time>2020-05-06T07:47:29Z</time>
      </trkpt>
      <trkpt lat="30.788736" lon="34.776460">
        <ele>539.0</ele>
        <time>2020-05-06T07:47:32Z</time>
      </trkpt>
      <trkpt lat="30.788686" lon="34.776550">
        <ele>539.6</ele>
        <time>2020-05-06T07:47:34Z</time>
      </trkpt>
      <trkpt lat="30.788659" lon="34.776599">
        <ele>539.8</ele>
        <time>2020-05-06T07:47:35Z</time>
      </trkpt>
      <trkpt lat="30.788621" lon="34.776700">
        <ele>540.0</ele>
        <time>2020-05-06T07:47:37Z</time>
      </trkpt>
      <trkpt lat="30.788605" lon="34.776794">
        <ele>540.2</ele>
        <time>2020-05-06T07:47:39Z</time>
      </trkpt>
      <trkpt lat="30.788598" lon="34.776840">
        <ele>540.4</ele>
        <time>2020-05-06T07:47:40Z</time>
      </trkpt>
      <trkpt lat="30.788560" lon="34.777022">
        <ele>541.2</ele>
        <time>2020-05-06T07:47:44Z</time>
      </trkpt>
      <trkpt lat="30.788518" lon="34.777216">
        <ele>541.8</ele>
        <time>2020-05-06T07:47:48Z</time>
      </trkpt>
      <trkpt lat="30.788498" lon="34.777314">
        <ele>542.2</ele>
        <time>2020-05-06T07:47:50Z</time>
      </trkpt>
      <trkpt lat="30.788458" lon="34.777506">
        <ele>543.8</ele>
        <time>2020-05-06T07:47:54Z</time>
      </trkpt>
      <trkpt lat="30.788447" lon="34.777552">
        <ele>543.6</ele>
        <time>2020-05-06T07:47:55Z</time>
      </trkpt>
      <trkpt lat="30.788332" lon="34.777784">
        <ele>544.0</ele>
        <time>2020-05-06T07:48:01Z</time>
      </trkpt>
      <trkpt lat="30.788182" lon="34.777966">
        <ele>543.6</ele>
        <time>2020-05-06T07:48:08Z</time>
      </trkpt>
      <trkpt lat="30.788144" lon="34.778016">
        <ele>543.4</ele>
        <time>2020-05-06T07:48:10Z</time>
      </trkpt>
      <trkpt lat="30.788019" lon="34.778128">
        <ele>542.6</ele>
        <time>2020-05-06T07:48:14Z</time>
      </trkpt>
      <trkpt lat="30.787833" lon="34.778300">
        <ele>542.4</ele>
        <time>2020-05-06T07:48:19Z</time>
      </trkpt>
      <trkpt lat="30.787797" lon="34.778335">
        <ele>542.8</ele>
        <time>2020-05-06T07:48:20Z</time>
      </trkpt>
      <trkpt lat="30.787718" lon="34.778394">
        <ele>543.4</ele>
        <time>2020-05-06T07:48:22Z</time>
      </trkpt>
      <trkpt lat="30.787672" lon="34.778418">
        <ele>543.8</ele>
        <time>2020-05-06T07:48:23Z</time>
      </trkpt>
      <trkpt lat="30.787586" lon="34.778453">
        <ele>545.0</ele>
        <time>2020-05-06T07:48:25Z</time>
      </trkpt>
      <trkpt lat="30.787546" lon="34.778468">
        <ele>545.2</ele>
        <time>2020-05-06T07:48:26Z</time>
      </trkpt>
      <trkpt lat="30.787345" lon="34.778578">
        <ele>546.4</ele>
        <time>2020-05-06T07:48:31Z</time>
      </trkpt>
      <trkpt lat="30.787311" lon="34.778602">
        <ele>546.6</ele>
        <time>2020-05-06T07:48:32Z</time>
      </trkpt>
      <trkpt lat="30.787105" lon="34.778773">
        <ele>546.0</ele>
        <time>2020-05-06T07:48:38Z</time>
      </trkpt>
      <trkpt lat="30.786959" lon="34.778903">
        <ele>546.4</ele>
        <time>2020-05-06T07:48:43Z</time>
      </trkpt>
      <trkpt lat="30.786896" lon="34.778954">
        <ele>547.0</ele>
        <time>2020-05-06T07:48:45Z</time>
      </trkpt>
      <trkpt lat="30.786810" lon="34.779043">
        <ele>547.6</ele>
        <time>2020-05-06T07:48:48Z</time>
      </trkpt>
      <trkpt lat="30.786694" lon="34.779163">
        <ele>548.0</ele>
        <time>2020-05-06T07:48:52Z</time>
      </trkpt>
      <trkpt lat="30.786605" lon="34.779253">
        <ele>548.4</ele>
        <time>2020-05-06T07:48:55Z</time>
      </trkpt>
      <trkpt lat="30.786470" lon="34.779417">
        <ele>548.8</ele>
        <time>2020-05-06T07:49:00Z</time>
      </trkpt>
      <trkpt lat="30.786388" lon="34.779525">
        <ele>549.2</ele>
        <time>2020-05-06T07:49:03Z</time>
      </trkpt>
      <trkpt lat="30.786336" lon="34.779600">
        <ele>549.6</ele>
        <time>2020-05-06T07:49:05Z</time>
      </trkpt>
      <trkpt lat="30.786213" lon="34.779787">
        <ele>550.6</ele>
        <time>2020-05-06T07:49:10Z</time>
      </trkpt>
      <trkpt lat="30.786119" lon="34.779950">
        <ele>550.2</ele>
        <time>2020-05-06T07:49:16Z</time>
      </trkpt>
      <trkpt lat="30.786057" lon="34.780012">
        <ele>549.8</ele>
        <time>2020-05-06T07:49:20Z</time>
      </trkpt>
      <trkpt lat="30.786022" lon="34.780055">
        <ele>548.6</ele>
        <time>2020-05-06T07:49:22Z</time>
      </trkpt>
      <trkpt lat="30.785856" lon="34.780244">
        <ele>546.4</ele>
        <time>2020-05-06T07:49:28Z</time>
      </trkpt>
      <trkpt lat="30.785819" lon="34.780277">
        <ele>546.4</ele>
        <time>2020-05-06T07:49:29Z</time>
      </trkpt>
      <trkpt lat="30.785725" lon="34.780397">
        <ele>547.2</ele>
        <time>2020-05-06T07:49:32Z</time>
      </trkpt>
      <trkpt lat="30.785702" lon="34.780439">
        <ele>547.4</ele>
        <time>2020-05-06T07:49:33Z</time>
      </trkpt>
      <trkpt lat="30.785569" lon="34.780783">
        <ele>548.2</ele>
        <time>2020-05-06T07:49:41Z</time>
      </trkpt>
      <trkpt lat="30.785543" lon="34.780868">
        <ele>548.4</ele>
        <time>2020-05-06T07:49:43Z</time>
      </trkpt>
      <trkpt lat="30.785497" lon="34.781020">
        <ele>549.6</ele>
        <time>2020-05-06T07:49:47Z</time>
      </trkpt>
      <trkpt lat="30.785400" lon="34.781102">
        <ele>549.2</ele>
        <time>2020-05-06T07:49:51Z</time>
      </trkpt>
      <trkpt lat="30.785314" lon="34.781151">
        <ele>549.0</ele>
        <time>2020-05-06T07:49:54Z</time>
      </trkpt>
      <trkpt lat="30.785160" lon="34.781308">
        <ele>549.4</ele>
        <time>2020-05-06T07:50:01Z</time>
      </trkpt>
      <trkpt lat="30.785141" lon="34.781331">
        <ele>549.6</ele>
        <time>2020-05-06T07:50:02Z</time>
      </trkpt>
      <trkpt lat="30.785126" lon="34.781355">
        <ele>549.8</ele>
        <time>2020-05-06T07:50:03Z</time>
      </trkpt>
      <trkpt lat="30.785077" lon="34.781478">
        <ele>550.6</ele>
        <time>2020-05-06T07:50:08Z</time>
      </trkpt>
      <trkpt lat="30.785061" lon="34.781535">
        <ele>550.4</ele>
        <time>2020-05-06T07:50:11Z</time>
      </trkpt>
      <trkpt lat="30.785060" lon="34.781545">
        <ele>550.4</ele>
        <time>2020-05-06T07:50:13Z</time>
      </trkpt>
      <trkpt lat="30.785078" lon="34.781550">
        <ele>551.0</ele>
        <time>2020-05-06T07:50:18Z</time>
      </trkpt>
      <trkpt lat="30.785082" lon="34.781552">
        <ele>551.0</ele>
        <time>2020-05-06T07:50:19Z</time>
      </trkpt>
      <trkpt lat="30.785091" lon="34.781554">
        <ele>550.6</ele>
        <time>2020-05-06T07:50:27Z</time>
      </trkpt>
      <trkpt lat="30.785090" lon="34.781548">
        <ele>550.8</ele>
        <time>2020-05-06T07:50:29Z</time>
      </trkpt>
      <trkpt lat="30.785094" lon="34.781588">
        <ele>550.8</ele>
        <time>2020-05-06T07:50:31Z</time>
      </trkpt>
      <trkpt lat="30.785074" lon="34.781651">
        <ele>551.0</ele>
        <time>2020-05-06T07:50:34Z</time>
      </trkpt>
      <trkpt lat="30.785066" lon="34.781691">
        <ele>551.0</ele>
        <time>2020-05-06T07:50:36Z</time>
      </trkpt>
      <trkpt lat="30.785058" lon="34.781794">
        <ele>550.8</ele>
        <time>2020-05-06T07:50:39Z</time>
      </trkpt>
      <trkpt lat="30.785003" lon="34.781921">
        <ele>550.8</ele>
        <time>2020-05-06T07:50:42Z</time>
      </trkpt>
      <trkpt lat="30.784984" lon="34.781961">
        <ele>550.8</ele>
        <time>2020-05-06T07:50:43Z</time>
      </trkpt>
      <trkpt lat="30.784970" lon="34.781999">
        <ele>550.8</ele>
        <time>2020-05-06T07:50:44Z</time>
      </trkpt>
      <trkpt lat="30.784877" lon="34.782180">
        <ele>551.0</ele>
        <time>2020-05-06T07:50:49Z</time>
      </trkpt>
      <trkpt lat="30.784850" lon="34.782303">
        <ele>551.0</ele>
        <time>2020-05-06T07:50:52Z</time>
      </trkpt>
      <trkpt lat="30.784842" lon="34.782345">
        <ele>551.2</ele>
        <time>2020-05-06T07:50:53Z</time>
      </trkpt>
      <trkpt lat="30.784776" lon="34.782625">
        <ele>551.4</ele>
        <time>2020-05-06T07:50:59Z</time>
      </trkpt>
      <trkpt lat="30.784747" lon="34.782724">
        <ele>551.4</ele>
        <time>2020-05-06T07:51:01Z</time>
      </trkpt>
      <trkpt lat="30.784692" lon="34.782797">
        <ele>551.4</ele>
        <time>2020-05-06T07:51:03Z</time>
      </trkpt>
      <trkpt lat="30.784624" lon="34.782859">
        <ele>551.6</ele>
        <time>2020-05-06T07:51:05Z</time>
      </trkpt>
      <trkpt lat="30.784430" lon="34.782994">
        <ele>552.0</ele>
        <time>2020-05-06T07:51:10Z</time>
      </trkpt>
      <trkpt lat="30.784147" lon="34.783163">
        <ele>552.6</ele>
        <time>2020-05-06T07:51:16Z</time>
      </trkpt>
      <trkpt lat="30.784103" lon="34.783190">
        <ele>552.6</ele>
        <time>2020-05-06T07:51:17Z</time>
      </trkpt>
      <trkpt lat="30.783815" lon="34.783356">
        <ele>553.4</ele>
        <time>2020-05-06T07:51:23Z</time>
      </trkpt>
      <trkpt lat="30.783676" lon="34.783434">
        <ele>553.8</ele>
        <time>2020-05-06T07:51:26Z</time>
      </trkpt>
      <trkpt lat="30.783549" lon="34.783484">
        <ele>554.0</ele>
        <time>2020-05-06T07:51:29Z</time>
      </trkpt>
      <trkpt lat="30.783506" lon="34.783497">
        <ele>554.0</ele>
        <time>2020-05-06T07:51:30Z</time>
      </trkpt>
      <trkpt lat="30.783239" lon="34.783499">
        <ele>553.6</ele>
        <time>2020-05-06T07:51:36Z</time>
      </trkpt>
      <trkpt lat="30.782885" lon="34.783511">
        <ele>554.6</ele>
        <time>2020-05-06T07:51:43Z</time>
      </trkpt>
      <trkpt lat="30.782828" lon="34.783516">
        <ele>554.6</ele>
        <time>2020-05-06T07:51:44Z</time>
      </trkpt>
      <trkpt lat="30.782727" lon="34.783540">
        <ele>554.6</ele>
        <time>2020-05-06T07:51:46Z</time>
      </trkpt>
      <trkpt lat="30.782680" lon="34.783564">
        <ele>554.4</ele>
        <time>2020-05-06T07:51:47Z</time>
      </trkpt>
      <trkpt lat="30.782332" lon="34.783770">
        <ele>554.8</ele>
        <time>2020-05-06T07:51:55Z</time>
      </trkpt>
      <trkpt lat="30.782290" lon="34.783790">
        <ele>554.8</ele>
        <time>2020-05-06T07:51:56Z</time>
      </trkpt>
      <trkpt lat="30.782248" lon="34.783812">
        <ele>555.0</ele>
        <time>2020-05-06T07:51:57Z</time>
      </trkpt>
      <trkpt lat="30.782068" lon="34.783927">
        <ele>556.0</ele>
        <time>2020-05-06T07:52:02Z</time>
      </trkpt>
      <trkpt lat="30.781888" lon="34.784101">
        <ele>555.8</ele>
        <time>2020-05-06T07:52:08Z</time>
      </trkpt>
      <trkpt lat="30.781799" lon="34.784202">
        <ele>556.2</ele>
        <time>2020-05-06T07:52:11Z</time>
      </trkpt>
      <trkpt lat="30.781624" lon="34.784449">
        <ele>556.2</ele>
        <time>2020-05-06T07:52:18Z</time>
      </trkpt>
      <trkpt lat="30.781526" lon="34.784610">
        <ele>556.0</ele>
        <time>2020-05-06T07:52:23Z</time>
      </trkpt>
      <trkpt lat="30.781471" lon="34.784716">
        <ele>556.2</ele>
        <time>2020-05-06T07:52:26Z</time>
      </trkpt>
      <trkpt lat="30.781430" lon="34.784777">
        <ele>556.8</ele>
        <time>2020-05-06T07:52:28Z</time>
      </trkpt>
      <trkpt lat="30.781357" lon="34.784848">
        <ele>557.4</ele>
        <time>2020-05-06T07:52:31Z</time>
      </trkpt>
      <trkpt lat="30.781229" lon="34.784943">
        <ele>557.6</ele>
        <time>2020-05-06T07:52:36Z</time>
      </trkpt>
      <trkpt lat="30.781199" lon="34.784947">
        <ele>558.0</ele>
        <time>2020-05-06T07:52:37Z</time>
      </trkpt>
      <trkpt lat="30.781043" lon="34.784950">
        <ele>558.8</ele>
        <time>2020-05-06T07:52:42Z</time>
      </trkpt>
      <trkpt lat="30.780876" lon="34.784942">
        <ele>558.8</ele>
        <time>2020-05-06T07:52:47Z</time>
      </trkpt>
      <trkpt lat="30.780835" lon="34.784943">
        <ele>559.0</ele>
        <time>2020-05-06T07:52:48Z</time>
      </trkpt>
      <trkpt lat="30.780695" lon="34.784925">
        <ele>560.0</ele>
        <time>2020-05-06T07:52:51Z</time>
      </trkpt>
      <trkpt lat="30.780641" lon="34.784921">
        <ele>560.4</ele>
        <time>2020-05-06T07:52:52Z</time>
      </trkpt>
      <trkpt lat="30.780593" lon="34.784922">
        <ele>561.2</ele>
        <time>2020-05-06T07:52:53Z</time>
      </trkpt>
      <trkpt lat="30.780528" lon="34.784964">
        <ele>562.4</ele>
        <time>2020-05-06T07:52:55Z</time>
      </trkpt>
      <trkpt lat="30.780470" lon="34.785052">
        <ele>563.0</ele>
        <time>2020-05-06T07:52:57Z</time>
      </trkpt>
      <trkpt lat="30.780377" lon="34.785223">
        <ele>563.8</ele>
        <time>2020-05-06T07:53:01Z</time>
      </trkpt>
      <trkpt lat="30.780291" lon="34.785414">
        <ele>564.8</ele>
        <time>2020-05-06T07:53:06Z</time>
      </trkpt>
      <trkpt lat="30.780239" lon="34.785579">
        <ele>564.0</ele>
        <time>2020-05-06T07:53:11Z</time>
      </trkpt>
      <trkpt lat="30.780231" lon="34.785616">
        <ele>564.0</ele>
        <time>2020-05-06T07:53:12Z</time>
      </trkpt>
      <trkpt lat="30.780204" lon="34.785789">
        <ele>564.6</ele>
        <time>2020-05-06T07:53:16Z</time>
      </trkpt>
      <trkpt lat="30.780156" lon="34.785932">
        <ele>564.8</ele>
        <time>2020-05-06T07:53:19Z</time>
      </trkpt>
      <trkpt lat="30.780119" lon="34.786031">
        <ele>565.0</ele>
        <time>2020-05-06T07:53:21Z</time>
      </trkpt>
      <trkpt lat="30.780059" lon="34.786175">
        <ele>565.4</ele>
        <time>2020-05-06T07:53:24Z</time>
      </trkpt>
      <trkpt lat="30.780008" lon="34.786268">
        <ele>566.0</ele>
        <time>2020-05-06T07:53:26Z</time>
      </trkpt>
      <trkpt lat="30.779982" lon="34.786313">
        <ele>566.2</ele>
        <time>2020-05-06T07:53:27Z</time>
      </trkpt>
      <trkpt lat="30.779928" lon="34.786403">
        <ele>567.0</ele>
        <time>2020-05-06T07:53:29Z</time>
      </trkpt>
      <trkpt lat="30.779867" lon="34.786501">
        <ele>568.2</ele>
        <time>2020-05-06T07:53:31Z</time>
      </trkpt>
      <trkpt lat="30.779832" lon="34.786557">
        <ele>568.6</ele>
        <time>2020-05-06T07:53:32Z</time>
      </trkpt>
      <trkpt lat="30.779751" lon="34.786673">
        <ele>569.6</ele>
        <time>2020-05-06T07:53:34Z</time>
      </trkpt>
      <trkpt lat="30.779645" lon="34.786762">
        <ele>570.6</ele>
        <time>2020-05-06T07:53:36Z</time>
      </trkpt>
      <trkpt lat="30.779539" lon="34.786840">
        <ele>571.4</ele>
        <time>2020-05-06T07:53:38Z</time>
      </trkpt>
      <trkpt lat="30.779390" lon="34.786939">
        <ele>572.0</ele>
        <time>2020-05-06T07:53:41Z</time>
      </trkpt>
      <trkpt lat="30.779345" lon="34.786971">
        <ele>572.0</ele>
        <time>2020-05-06T07:53:42Z</time>
      </trkpt>
      <trkpt lat="30.779302" lon="34.787011">
        <ele>572.4</ele>
        <time>2020-05-06T07:53:43Z</time>
      </trkpt>
      <trkpt lat="30.779256" lon="34.787054">
        <ele>573.0</ele>
        <time>2020-05-06T07:53:44Z</time>
      </trkpt>
      <trkpt lat="30.779162" lon="34.787120">
        <ele>574.4</ele>
        <time>2020-05-06T07:53:46Z</time>
      </trkpt>
      <trkpt lat="30.779058" lon="34.787172">
        <ele>576.0</ele>
        <time>2020-05-06T07:53:48Z</time>
      </trkpt>
      <trkpt lat="30.778955" lon="34.787225">
        <ele>577.8</ele>
        <time>2020-05-06T07:53:50Z</time>
      </trkpt>
      <trkpt lat="30.778904" lon="34.787247">
        <ele>577.8</ele>
        <time>2020-05-06T07:53:51Z</time>
      </trkpt>
      <trkpt lat="30.778859" lon="34.787261">
        <ele>578.2</ele>
        <time>2020-05-06T07:53:52Z</time>
      </trkpt>
      <trkpt lat="30.778672" lon="34.787378">
        <ele>579.0</ele>
        <time>2020-05-06T07:53:58Z</time>
      </trkpt>
      <trkpt lat="30.778642" lon="34.787394">
        <ele>579.2</ele>
        <time>2020-05-06T07:53:59Z</time>
      </trkpt>
      <trkpt lat="30.778556" lon="34.787453">
        <ele>579.4</ele>
        <time>2020-05-06T07:54:02Z</time>
      </trkpt>
      <trkpt lat="30.778469" lon="34.787517">
        <ele>579.4</ele>
        <time>2020-05-06T07:54:05Z</time>
      </trkpt>
      <trkpt lat="30.778285" lon="34.787636">
        <ele>579.2</ele>
        <time>2020-05-06T07:54:11Z</time>
      </trkpt>
      <trkpt lat="30.778193" lon="34.787692">
        <ele>579.2</ele>
        <time>2020-05-06T07:54:14Z</time>
      </trkpt>
      <trkpt lat="30.778133" lon="34.787726">
        <ele>579.4</ele>
        <time>2020-05-06T07:54:16Z</time>
      </trkpt>
      <trkpt lat="30.778099" lon="34.787751">
        <ele>579.6</ele>
        <time>2020-05-06T07:54:17Z</time>
      </trkpt>
      <trkpt lat="30.778018" lon="34.787785">
        <ele>580.2</ele>
        <time>2020-05-06T07:54:19Z</time>
      </trkpt>
      <trkpt lat="30.777931" lon="34.787820">
        <ele>581.6</ele>
        <time>2020-05-06T07:54:21Z</time>
      </trkpt>
      <trkpt lat="30.777841" lon="34.787858">
        <ele>582.8</ele>
        <time>2020-05-06T07:54:23Z</time>
      </trkpt>
      <trkpt lat="30.777705" lon="34.787922">
        <ele>583.6</ele>
        <time>2020-05-06T07:54:26Z</time>
      </trkpt>
      <trkpt lat="30.777625" lon="34.787952">
        <ele>583.8</ele>
        <time>2020-05-06T07:54:28Z</time>
      </trkpt>
      <trkpt lat="30.777431" lon="34.788082">
        <ele>583.8</ele>
        <time>2020-05-06T07:54:34Z</time>
      </trkpt>
      <trkpt lat="30.777397" lon="34.788105">
        <ele>583.8</ele>
        <time>2020-05-06T07:54:35Z</time>
      </trkpt>
      <trkpt lat="30.777295" lon="34.788172">
        <ele>584.0</ele>
        <time>2020-05-06T07:54:38Z</time>
      </trkpt>
      <trkpt lat="30.777260" lon="34.788194">
        <ele>584.2</ele>
        <time>2020-05-06T07:54:39Z</time>
      </trkpt>
      <trkpt lat="30.777161" lon="34.788264">
        <ele>584.8</ele>
        <time>2020-05-06T07:54:42Z</time>
      </trkpt>
      <trkpt lat="30.776973" lon="34.788370">
        <ele>585.2</ele>
        <time>2020-05-06T07:54:47Z</time>
      </trkpt>
      <trkpt lat="30.776935" lon="34.788385">
        <ele>585.4</ele>
        <time>2020-05-06T07:54:48Z</time>
      </trkpt>
      <trkpt lat="30.776812" lon="34.788451">
        <ele>585.8</ele>
        <time>2020-05-06T07:54:51Z</time>
      </trkpt>
      <trkpt lat="30.776767" lon="34.788467">
        <ele>586.2</ele>
        <time>2020-05-06T07:54:52Z</time>
      </trkpt>
      <trkpt lat="30.776719" lon="34.788479">
        <ele>586.6</ele>
        <time>2020-05-06T07:54:53Z</time>
      </trkpt>
      <trkpt lat="30.776622" lon="34.788492">
        <ele>587.4</ele>
        <time>2020-05-06T07:54:55Z</time>
      </trkpt>
      <trkpt lat="30.776571" lon="34.788495">
        <ele>587.8</ele>
        <time>2020-05-06T07:54:56Z</time>
      </trkpt>
      <trkpt lat="30.776469" lon="34.788509">
        <ele>588.4</ele>
        <time>2020-05-06T07:54:58Z</time>
      </trkpt>
      <trkpt lat="30.776423" lon="34.788513">
        <ele>588.6</ele>
        <time>2020-05-06T07:54:59Z</time>
      </trkpt>
      <trkpt lat="30.776334" lon="34.788519">
        <ele>589.2</ele>
        <time>2020-05-06T07:55:01Z</time>
      </trkpt>
      <trkpt lat="30.776291" lon="34.788534">
        <ele>589.4</ele>
        <time>2020-05-06T07:55:02Z</time>
      </trkpt>
      <trkpt lat="30.776249" lon="34.788555">
        <ele>589.6</ele>
        <time>2020-05-06T07:55:03Z</time>
      </trkpt>
      <trkpt lat="30.776206" lon="34.788572">
        <ele>589.8</ele>
        <time>2020-05-06T07:55:04Z</time>
      </trkpt>
      <trkpt lat="30.776119" lon="34.788593">
        <ele>590.4</ele>
        <time>2020-05-06T07:55:06Z</time>
      </trkpt>
      <trkpt lat="30.776075" lon="34.788598">
        <ele>590.8</ele>
        <time>2020-05-06T07:55:07Z</time>
      </trkpt>
      <trkpt lat="30.775804" lon="34.788604">
        <ele>591.2</ele>
        <time>2020-05-06T07:55:13Z</time>
      </trkpt>
      <trkpt lat="30.775756" lon="34.788603">
        <ele>591.4</ele>
        <time>2020-05-06T07:55:14Z</time>
      </trkpt>
      <trkpt lat="30.775665" lon="34.788602">
        <ele>592.0</ele>
        <time>2020-05-06T07:55:16Z</time>
      </trkpt>
      <trkpt lat="30.775585" lon="34.788590">
        <ele>593.0</ele>
        <time>2020-05-06T07:55:18Z</time>
      </trkpt>
      <trkpt lat="30.775550" lon="34.788582">
        <ele>593.4</ele>
        <time>2020-05-06T07:55:19Z</time>
      </trkpt>
      <trkpt lat="30.775490" lon="34.788566">
        <ele>594.4</ele>
        <time>2020-05-06T07:55:21Z</time>
      </trkpt>
      <trkpt lat="30.775434" lon="34.788550">
        <ele>596.0</ele>
        <time>2020-05-06T07:55:23Z</time>
      </trkpt>
      <trkpt lat="30.775407" lon="34.788543">
        <ele>596.2</ele>
        <time>2020-05-06T07:55:24Z</time>
      </trkpt>
      <trkpt lat="30.775353" lon="34.788540">
        <ele>597.0</ele>
        <time>2020-05-06T07:55:26Z</time>
      </trkpt>
      <trkpt lat="30.775300" lon="34.788539">
        <ele>597.2</ele>
        <time>2020-05-06T07:55:28Z</time>
      </trkpt>
      <trkpt lat="30.775235" lon="34.788531">
        <ele>598.0</ele>
        <time>2020-05-06T07:55:31Z</time>
      </trkpt>
      <trkpt lat="30.775177" lon="34.788523">
        <ele>599.0</ele>
        <time>2020-05-06T07:55:33Z</time>
      </trkpt>
      <trkpt lat="30.775023" lon="34.788550">
        <ele>599.6</ele>
        <time>2020-05-06T07:55:37Z</time>
      </trkpt>
      <trkpt lat="30.774956" lon="34.788553">
        <ele>600.2</ele>
        <time>2020-05-06T07:55:39Z</time>
      </trkpt>
      <trkpt lat="30.774856" lon="34.788561">
        <ele>600.6</ele>
        <time>2020-05-06T07:55:42Z</time>
      </trkpt>
      <trkpt lat="30.774774" lon="34.788571">
        <ele>600.6</ele>
        <time>2020-05-06T07:55:46Z</time>
      </trkpt>
      <trkpt lat="30.774764" lon="34.788571">
        <ele>601.0</ele>
        <time>2020-05-06T07:55:53Z</time>
      </trkpt>
      <trkpt lat="30.774755" lon="34.788566">
        <ele>601.2</ele>
        <time>2020-05-06T07:56:02Z</time>
      </trkpt>
      <trkpt lat="30.774757" lon="34.788565">
        <ele>601.2</ele>
        <time>2020-05-06T07:56:03Z</time>
      </trkpt>
      <trkpt lat="30.774751" lon="34.788569">
        <ele>601.2</ele>
        <time>2020-05-06T07:56:08Z</time>
      </trkpt>
      <trkpt lat="30.774615" lon="34.788614">
        <ele>602.4</ele>
        <time>2020-05-06T07:56:13Z</time>
      </trkpt>
      <trkpt lat="30.774465" lon="34.788673">
        <ele>603.6</ele>
        <time>2020-05-06T07:56:17Z</time>
      </trkpt>
      <trkpt lat="30.774291" lon="34.788815">
        <ele>604.4</ele>
        <time>2020-05-06T07:56:22Z</time>
      </trkpt>
      <trkpt lat="30.774211" lon="34.788880">
        <ele>604.8</ele>
        <time>2020-05-06T07:56:25Z</time>
      </trkpt>
      <trkpt lat="30.774131" lon="34.788928">
        <ele>605.2</ele>
        <time>2020-05-06T07:56:28Z</time>
      </trkpt>
      <trkpt lat="30.773930" lon="34.789043">
        <ele>606.0</ele>
        <time>2020-05-06T07:56:35Z</time>
      </trkpt>
      <trkpt lat="30.773899" lon="34.789060">
        <ele>605.8</ele>
        <time>2020-05-06T07:56:36Z</time>
      </trkpt>
      <trkpt lat="30.773789" lon="34.789110">
        <ele>606.0</ele>
        <time>2020-05-06T07:56:40Z</time>
      </trkpt>
      <trkpt lat="30.773712" lon="34.789148">
        <ele>605.8</ele>
        <time>2020-05-06T07:56:43Z</time>
      </trkpt>
      <trkpt lat="30.773625" lon="34.789196">
        <ele>605.8</ele>
        <time>2020-05-06T07:56:47Z</time>
      </trkpt>
      <trkpt lat="30.773557" lon="34.789232">
        <ele>606.0</ele>
        <time>2020-05-06T07:56:50Z</time>
      </trkpt>
      <trkpt lat="30.773455" lon="34.789291">
        <ele>606.4</ele>
        <time>2020-05-06T07:56:54Z</time>
      </trkpt>
      <trkpt lat="30.773305" lon="34.789441">
        <ele>606.6</ele>
        <time>2020-05-06T07:57:02Z</time>
      </trkpt>
      <trkpt lat="30.773254" lon="34.789489">
        <ele>606.0</ele>
        <time>2020-05-06T07:57:05Z</time>
      </trkpt>
      <trkpt lat="30.773176" lon="34.789528">
        <ele>606.4</ele>
        <time>2020-05-06T07:57:09Z</time>
      </trkpt>
      <trkpt lat="30.773041" lon="34.789543">
        <ele>606.8</ele>
        <time>2020-05-06T07:57:15Z</time>
      </trkpt>
      <trkpt lat="30.773023" lon="34.789541">
        <ele>606.8</ele>
        <time>2020-05-06T07:57:16Z</time>
      </trkpt>
      <trkpt lat="30.772917" lon="34.789518">
        <ele>606.4</ele>
        <time>2020-05-06T07:57:22Z</time>
      </trkpt>
      <trkpt lat="30.772892" lon="34.789509">
        <ele>606.2</ele>
        <time>2020-05-06T07:57:24Z</time>
      </trkpt>
      <trkpt lat="30.772841" lon="34.789485">
        <ele>605.8</ele>
        <time>2020-05-06T07:57:28Z</time>
      </trkpt>
      <trkpt lat="30.772800" lon="34.789478">
        <ele>605.2</ele>
        <time>2020-05-06T07:57:31Z</time>
      </trkpt>
      <trkpt lat="30.772712" lon="34.789479">
        <ele>605.2</ele>
        <time>2020-05-06T07:57:37Z</time>
      </trkpt>
      <trkpt lat="30.772700" lon="34.789477">
        <ele>605.2</ele>
        <time>2020-05-06T07:57:41Z</time>
      </trkpt>
      <trkpt lat="30.772691" lon="34.789485">
        <ele>605.2</ele>
        <time>2020-05-06T07:57:44Z</time>
      </trkpt>
      <trkpt lat="30.772684" lon="34.789486">
        <ele>605.2</ele>
        <time>2020-05-06T07:57:45Z</time>
      </trkpt>
      <trkpt lat="30.772660" lon="34.789469">
        <ele>605.2</ele>
        <time>2020-05-06T07:57:50Z</time>
      </trkpt>
      <trkpt lat="30.772647" lon="34.789465">
        <ele>605.2</ele>
        <time>2020-05-06T07:57:57Z</time>
      </trkpt>
      <trkpt lat="30.772646" lon="34.789465">
        <ele>605.2</ele>
        <time>2020-05-06T07:57:59Z</time>
      </trkpt>
      <trkpt lat="30.772650" lon="34.789468">
        <ele>605.2</ele>
        <time>2020-05-06T07:58:08Z</time>
      </trkpt>
      <trkpt lat="30.772653" lon="34.789463">
        <ele>605.2</ele>
        <time>2020-05-06T07:58:12Z</time>
      </trkpt>
      <trkpt lat="30.772653" lon="34.789464">
        <ele>605.2</ele>
        <time>2020-05-06T07:58:13Z</time>
      </trkpt>
      <trkpt lat="30.772655" lon="34.789471">
        <ele>605.2</ele>
        <time>2020-05-06T07:58:17Z</time>
      </trkpt>
      <trkpt lat="30.772664" lon="34.789482">
        <ele>605.2</ele>
        <time>2020-05-06T07:58:25Z</time>
      </trkpt>
      <trkpt lat="30.772657" lon="34.789481">
        <ele>605.2</ele>
        <time>2020-05-06T07:58:31Z</time>
      </trkpt>
      <trkpt lat="30.772665" lon="34.789483">
        <ele>605.2</ele>
        <time>2020-05-06T07:58:34Z</time>
      </trkpt>
      <trkpt lat="30.772658" lon="34.789482">
        <ele>605.2</ele>
        <time>2020-05-06T07:58:43Z</time>
      </trkpt>
      <trkpt lat="30.772661" lon="34.789482">
        <ele>605.2</ele>
        <time>2020-05-06T07:58:47Z</time>
      </trkpt>
      <trkpt lat="30.772663" lon="34.789482">
        <ele>605.2</ele>
        <time>2020-05-06T07:58:49Z</time>
      </trkpt>
      <trkpt lat="30.772661" lon="34.789482">
        <ele>605.2</ele>
        <time>2020-05-06T07:58:50Z</time>
      </trkpt>
      <trkpt lat="30.772659" lon="34.789483">
        <ele>605.2</ele>
        <time>2020-05-06T07:58:51Z</time>
      </trkpt>
      <trkpt lat="30.772659" lon="34.789485">
        <ele>604.4</ele>
        <time>2020-05-06T07:58:52Z</time>
      </trkpt>
      <trkpt lat="30.772660" lon="34.789486">
        <ele>604.4</ele>
        <time>2020-05-06T07:58:53Z</time>
      </trkpt>
      <trkpt lat="30.772661" lon="34.789485">
        <ele>604.4</ele>
        <time>2020-05-06T07:58:54Z</time>
      </trkpt>
      <trkpt lat="30.772655" lon="34.789478">
        <ele>604.2</ele>
        <time>2020-05-06T07:59:03Z</time>
      </trkpt>
      <trkpt lat="30.772613" lon="34.789476">
        <ele>604.2</ele>
        <time>2020-05-06T07:59:11Z</time>
      </trkpt>
      <trkpt lat="30.772606" lon="34.789478">
        <ele>604.0</ele>
        <time>2020-05-06T07:59:12Z</time>
      </trkpt>
      <trkpt lat="30.772589" lon="34.789491">
        <ele>604.0</ele>
        <time>2020-05-06T07:59:16Z</time>
      </trkpt>
      <trkpt lat="30.772595" lon="34.789499">
        <ele>604.0</ele>
        <time>2020-05-06T07:59:24Z</time>
      </trkpt>
      <trkpt lat="30.772597" lon="34.789497">
        <ele>604.2</ele>
        <time>2020-05-06T07:59:32Z</time>
      </trkpt>
      <trkpt lat="30.772623" lon="34.789494">
        <ele>604.8</ele>
        <time>2020-05-06T07:59:40Z</time>
      </trkpt>
      <trkpt lat="30.772629" lon="34.789492">
        <ele>604.8</ele>
        <time>2020-05-06T07:59:41Z</time>
      </trkpt>
      <trkpt lat="30.772637" lon="34.789490">
        <ele>604.8</ele>
        <time>2020-05-06T07:59:42Z</time>
      </trkpt>
      <trkpt lat="30.772665" lon="34.789484">
        <ele>604.4</ele>
        <time>2020-05-06T07:59:47Z</time>
      </trkpt>
      <trkpt lat="30.772682" lon="34.789470">
        <ele>604.8</ele>
        <time>2020-05-06T07:59:53Z</time>
      </trkpt>
      <trkpt lat="30.772680" lon="34.789479">
        <ele>605.0</ele>
        <time>2020-05-06T08:00:01Z</time>
      </trkpt>
      <trkpt lat="30.772680" lon="34.789480">
        <ele>605.0</ele>
        <time>2020-05-06T08:00:04Z</time>
      </trkpt>
      <trkpt lat="30.772679" lon="34.789481">
        <ele>605.0</ele>
        <time>2020-05-06T08:00:08Z</time>
      </trkpt>
      <trkpt lat="30.772660" lon="34.789490">
        <ele>605.2</ele>
        <time>2020-05-06T08:00:12Z</time>
      </trkpt>
      <trkpt lat="30.772604" lon="34.789509">
        <ele>605.4</ele>
        <time>2020-05-06T08:00:19Z</time>
      </trkpt>
      <trkpt lat="30.772588" lon="34.789515">
        <ele>605.2</ele>
        <time>2020-05-06T08:00:21Z</time>
      </trkpt>
      <trkpt lat="30.772571" lon="34.789518">
        <ele>604.8</ele>
        <time>2020-05-06T08:00:23Z</time>
      </trkpt>
      <trkpt lat="30.772507" lon="34.789525">
        <ele>604.4</ele>
        <time>2020-05-06T08:00:29Z</time>
      </trkpt>
      <trkpt lat="30.772501" lon="34.789561">
        <ele>604.6</ele>
        <time>2020-05-06T08:00:36Z</time>
      </trkpt>
      <trkpt lat="30.772494" lon="34.789559">
        <ele>604.6</ele>
        <time>2020-05-06T08:00:39Z</time>
      </trkpt>
      <trkpt lat="30.772486" lon="34.789563">
        <ele>604.6</ele>
        <time>2020-05-06T08:00:40Z</time>
      </trkpt>
      <trkpt lat="30.772457" lon="34.789577">
        <ele>604.2</ele>
        <time>2020-05-06T08:00:44Z</time>
      </trkpt>
      <trkpt lat="30.772449" lon="34.789582">
        <ele>604.0</ele>
        <time>2020-05-06T08:00:45Z</time>
      </trkpt>
      <trkpt lat="30.772443" lon="34.789585">
        <ele>603.8</ele>
        <time>2020-05-06T08:00:46Z</time>
      </trkpt>
      <trkpt lat="30.772440" lon="34.789585">
        <ele>603.6</ele>
        <time>2020-05-06T08:00:47Z</time>
      </trkpt>
      <trkpt lat="30.772440" lon="34.789582">
        <ele>603.4</ele>
        <time>2020-05-06T08:00:53Z</time>
      </trkpt>
      <trkpt lat="30.772440" lon="34.789582">
        <ele>603.4</ele>
        <time>2020-05-06T08:00:54Z</time>
      </trkpt>
      <trkpt lat="30.772430" lon="34.789582">
        <ele>602.6</ele>
        <time>2020-05-06T08:00:57Z</time>
      </trkpt>
      <trkpt lat="30.772381" lon="34.789584">
        <ele>601.4</ele>
        <time>2020-05-06T08:01:00Z</time>
      </trkpt>
      <trkpt lat="30.772323" lon="34.789597">
        <ele>601.0</ele>
        <time>2020-05-06T08:01:04Z</time>
      </trkpt>
      <trkpt lat="30.772260" lon="34.789629">
        <ele>600.2</ele>
        <time>2020-05-06T08:01:09Z</time>
      </trkpt>
      <trkpt lat="30.772232" lon="34.789643">
        <ele>599.8</ele>
        <time>2020-05-06T08:01:11Z</time>
      </trkpt>
      <trkpt lat="30.772206" lon="34.789656">
        <ele>599.2</ele>
        <time>2020-05-06T08:01:13Z</time>
      </trkpt>
      <trkpt lat="30.772194" lon="34.789660">
        <ele>599.0</ele>
        <time>2020-05-06T08:01:14Z</time>
      </trkpt>
      <trkpt lat="30.772136" lon="34.789677">
        <ele>598.8</ele>
        <time>2020-05-06T08:01:18Z</time>
      </trkpt>
      <trkpt lat="30.772122" lon="34.789681">
        <ele>598.4</ele>
        <time>2020-05-06T08:01:19Z</time>
      </trkpt>
      <trkpt lat="30.772109" lon="34.789683">
        <ele>598.0</ele>
        <time>2020-05-06T08:01:20Z</time>
      </trkpt>
      <trkpt lat="30.772051" lon="34.789687">
        <ele>597.0</ele>
        <time>2020-05-06T08:01:24Z</time>
      </trkpt>
      <trkpt lat="30.772005" lon="34.789730">
        <ele>596.6</ele>
        <time>2020-05-06T08:01:28Z</time>
      </trkpt>
      <trkpt lat="30.771987" lon="34.789761">
        <ele>596.0</ele>
        <time>2020-05-06T08:01:30Z</time>
      </trkpt>
      <trkpt lat="30.771981" lon="34.789773">
        <ele>595.6</ele>
        <time>2020-05-06T08:01:31Z</time>
      </trkpt>
      <trkpt lat="30.771935" lon="34.789784">
        <ele>594.6</ele>
        <time>2020-05-06T08:01:34Z</time>
      </trkpt>
      <trkpt lat="30.771896" lon="34.789792">
        <ele>593.8</ele>
        <time>2020-05-06T08:01:36Z</time>
      </trkpt>
      <trkpt lat="30.771857" lon="34.789808">
        <ele>593.2</ele>
        <time>2020-05-06T08:01:38Z</time>
      </trkpt>
      <trkpt lat="30.771784" lon="34.789866">
        <ele>592.6</ele>
        <time>2020-05-06T08:01:44Z</time>
      </trkpt>
      <trkpt lat="30.771666" lon="34.789930">
        <ele>592.4</ele>
        <time>2020-05-06T08:01:51Z</time>
      </trkpt>
      <trkpt lat="30.771595" lon="34.789991">
        <ele>592.0</ele>
        <time>2020-05-06T08:01:56Z</time>
      </trkpt>
      <trkpt lat="30.771552" lon="34.790029">
        <ele>591.2</ele>
        <time>2020-05-06T08:01:59Z</time>
      </trkpt>
      <trkpt lat="30.771538" lon="34.790039">
        <ele>591.0</ele>
        <time>2020-05-06T08:02:00Z</time>
      </trkpt>
      <trkpt lat="30.771444" lon="34.790063">
        <ele>590.2</ele>
        <time>2020-05-06T08:02:06Z</time>
      </trkpt>
      <trkpt lat="30.771427" lon="34.790075">
        <ele>590.0</ele>
        <time>2020-05-06T08:02:07Z</time>
      </trkpt>
      <trkpt lat="30.771332" lon="34.790141">
        <ele>588.8</ele>
        <time>2020-05-06T08:02:12Z</time>
      </trkpt>
      <trkpt lat="30.771311" lon="34.790153">
        <ele>588.8</ele>
        <time>2020-05-06T08:02:13Z</time>
      </trkpt>
      <trkpt lat="30.771233" lon="34.790195">
        <ele>587.6</ele>
        <time>2020-05-06T08:02:18Z</time>
      </trkpt>
      <trkpt lat="30.771216" lon="34.790206">
        <ele>587.4</ele>
        <time>2020-05-06T08:02:19Z</time>
      </trkpt>
      <trkpt lat="30.771116" lon="34.790297">
        <ele>586.8</ele>
        <time>2020-05-06T08:02:26Z</time>
      </trkpt>
      <trkpt lat="30.771024" lon="34.790358">
        <ele>586.4</ele>
        <time>2020-05-06T08:02:32Z</time>
      </trkpt>
      <trkpt lat="30.770927" lon="34.790449">
        <ele>585.6</ele>
        <time>2020-05-06T08:02:39Z</time>
      </trkpt>
      <trkpt lat="30.770889" lon="34.790491">
        <ele>585.4</ele>
        <time>2020-05-06T08:02:42Z</time>
      </trkpt>
      <trkpt lat="30.770846" lon="34.790546">
        <ele>585.2</ele>
        <time>2020-05-06T08:02:45Z</time>
      </trkpt>
      <trkpt lat="30.770744" lon="34.790690">
        <ele>584.6</ele>
        <time>2020-05-06T08:02:53Z</time>
      </trkpt>
      <trkpt lat="30.770657" lon="34.790823">
        <ele>584.4</ele>
        <time>2020-05-06T08:03:00Z</time>
      </trkpt>
      <trkpt lat="30.770613" lon="34.790878">
        <ele>584.4</ele>
        <time>2020-05-06T08:03:03Z</time>
      </trkpt>
      <trkpt lat="30.770567" lon="34.790974">
        <ele>583.6</ele>
        <time>2020-05-06T08:03:07Z</time>
      </trkpt>
      <trkpt lat="30.770511" lon="34.791085">
        <ele>583.4</ele>
        <time>2020-05-06T08:03:13Z</time>
      </trkpt>
      <trkpt lat="30.770396" lon="34.791202">
        <ele>582.4</ele>
        <time>2020-05-06T08:03:21Z</time>
      </trkpt>
      <trkpt lat="30.770381" lon="34.791216">
        <ele>582.4</ele>
        <time>2020-05-06T08:03:22Z</time>
      </trkpt>
      <trkpt lat="30.770316" lon="34.791291">
        <ele>581.2</ele>
        <time>2020-05-06T08:03:27Z</time>
      </trkpt>
      <trkpt lat="30.770304" lon="34.791304">
        <ele>581.2</ele>
        <time>2020-05-06T08:03:28Z</time>
      </trkpt>
      <trkpt lat="30.770178" lon="34.791406">
        <ele>580.6</ele>
        <time>2020-05-06T08:03:36Z</time>
      </trkpt>
      <trkpt lat="30.770108" lon="34.791435">
        <ele>580.2</ele>
        <time>2020-05-06T08:03:40Z</time>
      </trkpt>
      <trkpt lat="30.770029" lon="34.791431">
        <ele>579.8</ele>
        <time>2020-05-06T08:03:44Z</time>
      </trkpt>
      <trkpt lat="30.769905" lon="34.791442">
        <ele>579.4</ele>
        <time>2020-05-06T08:03:51Z</time>
      </trkpt>
      <trkpt lat="30.769842" lon="34.791450">
        <ele>579.2</ele>
        <time>2020-05-06T08:03:54Z</time>
      </trkpt>
      <trkpt lat="30.769758" lon="34.791426">
        <ele>578.4</ele>
        <time>2020-05-06T08:03:58Z</time>
      </trkpt>
      <trkpt lat="30.769736" lon="34.791423">
        <ele>578.2</ele>
        <time>2020-05-06T08:03:59Z</time>
      </trkpt>
      <trkpt lat="30.769590" lon="34.791410">
        <ele>577.0</ele>
        <time>2020-05-06T08:04:05Z</time>
      </trkpt>
      <trkpt lat="30.769477" lon="34.791352">
        <ele>577.0</ele>
        <time>2020-05-06T08:04:10Z</time>
      </trkpt>
      <trkpt lat="30.769366" lon="34.791274">
        <ele>577.0</ele>
        <time>2020-05-06T08:04:15Z</time>
      </trkpt>
      <trkpt lat="30.769324" lon="34.791250">
        <ele>576.8</ele>
        <time>2020-05-06T08:04:17Z</time>
      </trkpt>
      <trkpt lat="30.769303" lon="34.791241">
        <ele>576.6</ele>
        <time>2020-05-06T08:04:18Z</time>
      </trkpt>
      <trkpt lat="30.769224" lon="34.791213">
        <ele>575.6</ele>
        <time>2020-05-06T08:04:23Z</time>
      </trkpt>
      <trkpt lat="30.769149" lon="34.791154">
        <ele>575.0</ele>
        <time>2020-05-06T08:04:28Z</time>
      </trkpt>
      <trkpt lat="30.769106" lon="34.791066">
        <ele>575.0</ele>
        <time>2020-05-06T08:04:32Z</time>
      </trkpt>
      <trkpt lat="30.769072" lon="34.790984">
        <ele>575.2</ele>
        <time>2020-05-06T08:04:35Z</time>
      </trkpt>
      <trkpt lat="30.768991" lon="34.790816">
        <ele>575.6</ele>
        <time>2020-05-06T08:04:42Z</time>
      </trkpt>
      <trkpt lat="30.768980" lon="34.790783">
        <ele>575.8</ele>
        <time>2020-05-06T08:04:44Z</time>
      </trkpt>
      <trkpt lat="30.768984" lon="34.790767">
        <ele>575.8</ele>
        <time>2020-05-06T08:04:48Z</time>
      </trkpt>
      <trkpt lat="30.769003" lon="34.790739">
        <ele>576.0</ele>
        <time>2020-05-06T08:04:52Z</time>
      </trkpt>
      <trkpt lat="30.769017" lon="34.790729">
        <ele>576.0</ele>
        <time>2020-05-06T08:04:53Z</time>
      </trkpt>
      <trkpt lat="30.769037" lon="34.790726">
        <ele>576.0</ele>
        <time>2020-05-06T08:04:54Z</time>
      </trkpt>
      <trkpt lat="30.769126" lon="34.790741">
        <ele>575.6</ele>
        <time>2020-05-06T08:04:58Z</time>
      </trkpt>
      <trkpt lat="30.769147" lon="34.790746">
        <ele>575.4</ele>
        <time>2020-05-06T08:04:59Z</time>
      </trkpt>
      <trkpt lat="30.769296" lon="34.790768">
        <ele>574.8</ele>
        <time>2020-05-06T08:05:05Z</time>
      </trkpt>
      <trkpt lat="30.769322" lon="34.790768">
        <ele>574.8</ele>
        <time>2020-05-06T08:05:06Z</time>
      </trkpt>
      <trkpt lat="30.769371" lon="34.790766">
        <ele>575.4</ele>
        <time>2020-05-06T08:05:08Z</time>
      </trkpt>
      <trkpt lat="30.769400" lon="34.790756">
        <ele>575.8</ele>
        <time>2020-05-06T08:05:09Z</time>
      </trkpt>
      <trkpt lat="30.769426" lon="34.790735">
        <ele>576.0</ele>
        <time>2020-05-06T08:05:10Z</time>
      </trkpt>
      <trkpt lat="30.769442" lon="34.790608">
        <ele>576.0</ele>
        <time>2020-05-06T08:05:14Z</time>
      </trkpt>
      <trkpt lat="30.769435" lon="34.790579">
        <ele>576.2</ele>
        <time>2020-05-06T08:05:15Z</time>
      </trkpt>
      <trkpt lat="30.769357" lon="34.790449">
        <ele>576.8</ele>
        <time>2020-05-06T08:05:19Z</time>
      </trkpt>
      <trkpt lat="30.769331" lon="34.790385">
        <ele>577.0</ele>
        <time>2020-05-06T08:05:21Z</time>
      </trkpt>
      <trkpt lat="30.769313" lon="34.790360">
        <ele>577.2</ele>
        <time>2020-05-06T08:05:22Z</time>
      </trkpt>
      <trkpt lat="30.769283" lon="34.790341">
        <ele>577.4</ele>
        <time>2020-05-06T08:05:23Z</time>
      </trkpt>
      <trkpt lat="30.769190" lon="34.790243">
        <ele>577.8</ele>
        <time>2020-05-06T08:05:27Z</time>
      </trkpt>
      <trkpt lat="30.769179" lon="34.790204">
        <ele>578.0</ele>
        <time>2020-05-06T08:05:28Z</time>
      </trkpt>
      <trkpt lat="30.769175" lon="34.790168">
        <ele>578.2</ele>
        <time>2020-05-06T08:05:29Z</time>
      </trkpt>
      <trkpt lat="30.769192" lon="34.790097">
        <ele>579.0</ele>
        <time>2020-05-06T08:05:31Z</time>
      </trkpt>
      <trkpt lat="30.769281" lon="34.789904">
        <ele>579.0</ele>
        <time>2020-05-06T08:05:37Z</time>
      </trkpt>
      <trkpt lat="30.769353" lon="34.789692">
        <ele>579.2</ele>
        <time>2020-05-06T08:05:44Z</time>
      </trkpt>
      <trkpt lat="30.769422" lon="34.789474">
        <ele>579.4</ele>
        <time>2020-05-06T08:05:51Z</time>
      </trkpt>
      <trkpt lat="30.769496" lon="34.789314">
        <ele>579.4</ele>
        <time>2020-05-06T08:05:56Z</time>
      </trkpt>
      <trkpt lat="30.769514" lon="34.789237">
        <ele>579.4</ele>
        <time>2020-05-06T08:05:58Z</time>
      </trkpt>
      <trkpt lat="30.769549" lon="34.789122">
        <ele>579.4</ele>
        <time>2020-05-06T08:06:01Z</time>
      </trkpt>
      <trkpt lat="30.769558" lon="34.789086">
        <ele>579.4</ele>
        <time>2020-05-06T08:06:02Z</time>
      </trkpt>
      <trkpt lat="30.769566" lon="34.789055">
        <ele>579.4</ele>
        <time>2020-05-06T08:06:03Z</time>
      </trkpt>
      <trkpt lat="30.769576" lon="34.789026">
        <ele>579.4</ele>
        <time>2020-05-06T08:06:04Z</time>
      </trkpt>
      <trkpt lat="30.769586" lon="34.788998">
        <ele>579.4</ele>
        <time>2020-05-06T08:06:05Z</time>
      </trkpt>
      <trkpt lat="30.769631" lon="34.788873">
        <ele>578.6</ele>
        <time>2020-05-06T08:06:10Z</time>
      </trkpt>
      <trkpt lat="30.769710" lon="34.788685">
        <ele>578.0</ele>
        <time>2020-05-06T08:06:17Z</time>
      </trkpt>
      <trkpt lat="30.769782" lon="34.788545">
        <ele>578.4</ele>
        <time>2020-05-06T08:06:23Z</time>
      </trkpt>
      <trkpt lat="30.769794" lon="34.788475">
        <ele>578.4</ele>
        <time>2020-05-06T08:06:26Z</time>
      </trkpt>
      <trkpt lat="30.769802" lon="34.788454">
        <ele>578.2</ele>
        <time>2020-05-06T08:06:27Z</time>
      </trkpt>
      <trkpt lat="30.769829" lon="34.788420">
        <ele>577.8</ele>
        <time>2020-05-06T08:06:29Z</time>
      </trkpt>
      <trkpt lat="30.769970" lon="34.788303">
        <ele>577.2</ele>
        <time>2020-05-06T08:06:38Z</time>
      </trkpt>
      <trkpt lat="30.770051" lon="34.788230">
        <ele>576.8</ele>
        <time>2020-05-06T08:06:44Z</time>
      </trkpt>
      <trkpt lat="30.770061" lon="34.788215">
        <ele>576.8</ele>
        <time>2020-05-06T08:06:45Z</time>
      </trkpt>
      <trkpt lat="30.770041" lon="34.788144">
        <ele>577.0</ele>
        <time>2020-05-06T08:06:49Z</time>
      </trkpt>
      <trkpt lat="30.769991" lon="34.788085">
        <ele>576.8</ele>
        <time>2020-05-06T08:06:53Z</time>
      </trkpt>
      <trkpt lat="30.769986" lon="34.788073">
        <ele>576.8</ele>
        <time>2020-05-06T08:06:54Z</time>
      </trkpt>
      <trkpt lat="30.769974" lon="34.788054">
        <ele>576.2</ele>
        <time>2020-05-06T08:06:58Z</time>
      </trkpt>
      <trkpt lat="30.769967" lon="34.788000">
        <ele>575.6</ele>
        <time>2020-05-06T08:07:01Z</time>
      </trkpt>
      <trkpt lat="30.769989" lon="34.787906">
        <ele>575.0</ele>
        <time>2020-05-06T08:07:09Z</time>
      </trkpt>
      <trkpt lat="30.769920" lon="34.787884">
        <ele>577.5</ele>
        <time>2020-05-06T08:07:10Z</time>
      </trkpt>
      <trkpt lat="30.769857" lon="34.787722">
        <ele>577.6</ele>
        <time>2020-05-06T08:12:40Z</time>
      </trkpt>
      <trkpt lat="30.769770" lon="34.787650">
        <ele>578.0</ele>
        <time>2020-05-06T08:12:42Z</time>
      </trkpt>
      <trkpt lat="30.769654" lon="34.787571">
        <ele>577.8</ele>
        <time>2020-05-06T08:12:46Z</time>
      </trkpt>
      <trkpt lat="30.769592" lon="34.787565">
        <ele>578.0</ele>
        <time>2020-05-06T08:12:49Z</time>
      </trkpt>
      <trkpt lat="30.769579" lon="34.787552">
        <ele>577.8</ele>
        <time>2020-05-06T08:12:50Z</time>
      </trkpt>
      <trkpt lat="30.769510" lon="34.787380">
        <ele>577.6</ele>
        <time>2020-05-06T08:12:57Z</time>
      </trkpt>
      <trkpt lat="30.769445" lon="34.787283">
        <ele>577.8</ele>
        <time>2020-05-06T08:13:01Z</time>
      </trkpt>
      <trkpt lat="30.769375" lon="34.787203">
        <ele>577.6</ele>
        <time>2020-05-06T08:13:05Z</time>
      </trkpt>
      <trkpt lat="30.769361" lon="34.787184">
        <ele>577.6</ele>
        <time>2020-05-06T08:13:06Z</time>
      </trkpt>
      <trkpt lat="30.769236" lon="34.787063">
        <ele>576.2</ele>
        <time>2020-05-06T08:13:13Z</time>
      </trkpt>
      <trkpt lat="30.769044" lon="34.786943">
        <ele>575.8</ele>
        <time>2020-05-06T08:13:21Z</time>
      </trkpt>
      <trkpt lat="30.768838" lon="34.786886">
        <ele>576.4</ele>
        <time>2020-05-06T08:13:27Z</time>
      </trkpt>
      <trkpt lat="30.768757" lon="34.786867">
        <ele>576.8</ele>
        <time>2020-05-06T08:13:29Z</time>
      </trkpt>
      <trkpt lat="30.768533" lon="34.786814">
        <ele>577.4</ele>
        <time>2020-05-06T08:13:35Z</time>
      </trkpt>
      <trkpt lat="30.768502" lon="34.786805">
        <ele>577.6</ele>
        <time>2020-05-06T08:13:36Z</time>
      </trkpt>
      <trkpt lat="30.768348" lon="34.786830">
        <ele>578.6</ele>
        <time>2020-05-06T08:13:41Z</time>
      </trkpt>
      <trkpt lat="30.768281" lon="34.786840">
        <ele>578.6</ele>
        <time>2020-05-06T08:13:43Z</time>
      </trkpt>
      <trkpt lat="30.768183" lon="34.786831">
        <ele>579.0</ele>
        <time>2020-05-06T08:13:46Z</time>
      </trkpt>
      <trkpt lat="30.767976" lon="34.786891">
        <ele>579.6</ele>
        <time>2020-05-06T08:13:52Z</time>
      </trkpt>
      <trkpt lat="30.767901" lon="34.786878">
        <ele>579.8</ele>
        <time>2020-05-06T08:13:54Z</time>
      </trkpt>
      <trkpt lat="30.767824" lon="34.786855">
        <ele>580.4</ele>
        <time>2020-05-06T08:13:57Z</time>
      </trkpt>
      <trkpt lat="30.767802" lon="34.786859">
        <ele>580.6</ele>
        <time>2020-05-06T08:13:58Z</time>
      </trkpt>
      <trkpt lat="30.767784" lon="34.786866">
        <ele>580.8</ele>
        <time>2020-05-06T08:13:59Z</time>
      </trkpt>
      <trkpt lat="30.767729" lon="34.786934">
        <ele>581.6</ele>
        <time>2020-05-06T08:14:02Z</time>
      </trkpt>
      <trkpt lat="30.767712" lon="34.786959">
        <ele>581.6</ele>
        <time>2020-05-06T08:14:03Z</time>
      </trkpt>
      <trkpt lat="30.767627" lon="34.787039">
        <ele>581.8</ele>
        <time>2020-05-06T08:14:08Z</time>
      </trkpt>
      <trkpt lat="30.767616" lon="34.787045">
        <ele>582.0</ele>
        <time>2020-05-06T08:14:09Z</time>
      </trkpt>
      <trkpt lat="30.767541" lon="34.787058">
        <ele>582.2</ele>
        <time>2020-05-06T08:14:14Z</time>
      </trkpt>
      <trkpt lat="30.767522" lon="34.787063">
        <ele>582.2</ele>
        <time>2020-05-06T08:14:15Z</time>
      </trkpt>
      <trkpt lat="30.767384" lon="34.787151">
        <ele>581.8</ele>
        <time>2020-05-06T08:14:20Z</time>
      </trkpt>
      <trkpt lat="30.767348" lon="34.787168">
        <ele>582.0</ele>
        <time>2020-05-06T08:14:21Z</time>
      </trkpt>
      <trkpt lat="30.767219" lon="34.787196">
        <ele>582.4</ele>
        <time>2020-05-06T08:14:24Z</time>
      </trkpt>
      <trkpt lat="30.767177" lon="34.787206">
        <ele>582.6</ele>
        <time>2020-05-06T08:14:25Z</time>
      </trkpt>
      <trkpt lat="30.767135" lon="34.787220">
        <ele>582.6</ele>
        <time>2020-05-06T08:14:26Z</time>
      </trkpt>
      <trkpt lat="30.767096" lon="34.787237">
        <ele>582.8</ele>
        <time>2020-05-06T08:14:27Z</time>
      </trkpt>
      <trkpt lat="30.767028" lon="34.787291">
        <ele>583.2</ele>
        <time>2020-05-06T08:14:29Z</time>
      </trkpt>
      <trkpt lat="30.766997" lon="34.787320">
        <ele>583.2</ele>
        <time>2020-05-06T08:14:30Z</time>
      </trkpt>
      <trkpt lat="30.766961" lon="34.787346">
        <ele>583.2</ele>
        <time>2020-05-06T08:14:31Z</time>
      </trkpt>
      <trkpt lat="30.766841" lon="34.787420">
        <ele>584.0</ele>
        <time>2020-05-06T08:14:34Z</time>
      </trkpt>
      <trkpt lat="30.766747" lon="34.787513">
        <ele>584.2</ele>
        <time>2020-05-06T08:14:37Z</time>
      </trkpt>
      <trkpt lat="30.766601" lon="34.787641">
        <ele>584.2</ele>
        <time>2020-05-06T08:14:42Z</time>
      </trkpt>
      <trkpt lat="30.766443" lon="34.787719">
        <ele>584.2</ele>
        <time>2020-05-06T08:14:47Z</time>
      </trkpt>
      <trkpt lat="30.766325" lon="34.787803">
        <ele>584.4</ele>
        <time>2020-05-06T08:14:51Z</time>
      </trkpt>
      <trkpt lat="30.766096" lon="34.787828">
        <ele>584.2</ele>
        <time>2020-05-06T08:14:58Z</time>
      </trkpt>
      <trkpt lat="30.766000" lon="34.787848">
        <ele>585.0</ele>
        <time>2020-05-06T08:15:01Z</time>
      </trkpt>
      <trkpt lat="30.765922" lon="34.787853">
        <ele>585.2</ele>
        <time>2020-05-06T08:15:03Z</time>
      </trkpt>
      <trkpt lat="30.765883" lon="34.787858">
        <ele>585.2</ele>
        <time>2020-05-06T08:15:04Z</time>
      </trkpt>
      <trkpt lat="30.765690" lon="34.787887">
        <ele>586.4</ele>
        <time>2020-05-06T08:15:09Z</time>
      </trkpt>
      <trkpt lat="30.765588" lon="34.787976">
        <ele>585.8</ele>
        <time>2020-05-06T08:15:13Z</time>
      </trkpt>
      <trkpt lat="30.765453" lon="34.787991">
        <ele>586.0</ele>
        <time>2020-05-06T08:15:17Z</time>
      </trkpt>
      <trkpt lat="30.765265" lon="34.787981">
        <ele>585.8</ele>
        <time>2020-05-06T08:15:22Z</time>
      </trkpt>
      <trkpt lat="30.764994" lon="34.787937">
        <ele>586.0</ele>
        <time>2020-05-06T08:15:29Z</time>
      </trkpt>
      <trkpt lat="30.764740" lon="34.787922">
        <ele>586.6</ele>
        <time>2020-05-06T08:15:37Z</time>
      </trkpt>
      <trkpt lat="30.764544" lon="34.787829">
        <ele>586.2</ele>
        <time>2020-05-06T08:15:44Z</time>
      </trkpt>
      <trkpt lat="30.764358" lon="34.787728">
        <ele>586.2</ele>
        <time>2020-05-06T08:15:52Z</time>
      </trkpt>
      <trkpt lat="30.764313" lon="34.787700">
        <ele>586.0</ele>
        <time>2020-05-06T08:15:54Z</time>
      </trkpt>
      <trkpt lat="30.764222" lon="34.787637">
        <ele>586.0</ele>
        <time>2020-05-06T08:15:58Z</time>
      </trkpt>
      <trkpt lat="30.764111" lon="34.787556">
        <ele>585.8</ele>
        <time>2020-05-06T08:16:03Z</time>
      </trkpt>
      <trkpt lat="30.764035" lon="34.787501">
        <ele>585.8</ele>
        <time>2020-05-06T08:16:07Z</time>
      </trkpt>
      <trkpt lat="30.763936" lon="34.787413">
        <ele>585.2</ele>
        <time>2020-05-06T08:16:13Z</time>
      </trkpt>
      <trkpt lat="30.763854" lon="34.787311">
        <ele>584.0</ele>
        <time>2020-05-06T08:16:20Z</time>
      </trkpt>
      <trkpt lat="30.763758" lon="34.787183">
        <ele>582.8</ele>
        <time>2020-05-06T08:16:27Z</time>
      </trkpt>
      <trkpt lat="30.763737" lon="34.787140">
        <ele>582.6</ele>
        <time>2020-05-06T08:16:29Z</time>
      </trkpt>
      <trkpt lat="30.763676" lon="34.786982">
        <ele>581.8</ele>
        <time>2020-05-06T08:16:36Z</time>
      </trkpt>
      <trkpt lat="30.763669" lon="34.786962">
        <ele>581.6</ele>
        <time>2020-05-06T08:16:37Z</time>
      </trkpt>
      <trkpt lat="30.763657" lon="34.786881">
        <ele>580.8</ele>
        <time>2020-05-06T08:16:41Z</time>
      </trkpt>
      <trkpt lat="30.763661" lon="34.786860">
        <ele>580.4</ele>
        <time>2020-05-06T08:16:42Z</time>
      </trkpt>
      <trkpt lat="30.763650" lon="34.786791">
        <ele>579.4</ele>
        <time>2020-05-06T08:16:45Z</time>
      </trkpt>
      <trkpt lat="30.763629" lon="34.786718">
        <ele>578.4</ele>
        <time>2020-05-06T08:16:48Z</time>
      </trkpt>
      <trkpt lat="30.763624" lon="34.786694">
        <ele>578.2</ele>
        <time>2020-05-06T08:16:49Z</time>
      </trkpt>
      <trkpt lat="30.763571" lon="34.786634">
        <ele>577.2</ele>
        <time>2020-05-06T08:16:52Z</time>
      </trkpt>
      <trkpt lat="30.763547" lon="34.786624">
        <ele>577.0</ele>
        <time>2020-05-06T08:16:53Z</time>
      </trkpt>
      <trkpt lat="30.763488" lon="34.786594">
        <ele>576.2</ele>
        <time>2020-05-06T08:16:56Z</time>
      </trkpt>
      <trkpt lat="30.763441" lon="34.786535">
        <ele>575.2</ele>
        <time>2020-05-06T08:16:59Z</time>
      </trkpt>
      <trkpt lat="30.763393" lon="34.786463">
        <ele>574.0</ele>
        <time>2020-05-06T08:17:02Z</time>
      </trkpt>
      <trkpt lat="30.763339" lon="34.786386">
        <ele>573.4</ele>
        <time>2020-05-06T08:17:06Z</time>
      </trkpt>
      <trkpt lat="30.763319" lon="34.786340">
        <ele>572.8</ele>
        <time>2020-05-06T08:17:08Z</time>
      </trkpt>
      <trkpt lat="30.763263" lon="34.786245">
        <ele>571.4</ele>
        <time>2020-05-06T08:17:12Z</time>
      </trkpt>
      <trkpt lat="30.763141" lon="34.786066">
        <ele>571.0</ele>
        <time>2020-05-06T08:17:19Z</time>
      </trkpt>
      <trkpt lat="30.763092" lon="34.785952">
        <ele>571.8</ele>
        <time>2020-05-06T08:17:22Z</time>
      </trkpt>
      <trkpt lat="30.763064" lon="34.785910">
        <ele>572.6</ele>
        <time>2020-05-06T08:17:23Z</time>
      </trkpt>
      <trkpt lat="30.763028" lon="34.785869">
        <ele>573.0</ele>
        <time>2020-05-06T08:17:24Z</time>
      </trkpt>
      <trkpt lat="30.762878" lon="34.785653">
        <ele>573.6</ele>
        <time>2020-05-06T08:17:29Z</time>
      </trkpt>
      <trkpt lat="30.762742" lon="34.785393">
        <ele>573.6</ele>
        <time>2020-05-06T08:17:36Z</time>
      </trkpt>
      <trkpt lat="30.762656" lon="34.785113">
        <ele>573.8</ele>
        <time>2020-05-06T08:17:43Z</time>
      </trkpt>
      <trkpt lat="30.762643" lon="34.785066">
        <ele>573.8</ele>
        <time>2020-05-06T08:17:44Z</time>
      </trkpt>
      <trkpt lat="30.762528" lon="34.784798">
        <ele>574.0</ele>
        <time>2020-05-06T08:17:50Z</time>
      </trkpt>
      <trkpt lat="30.762372" lon="34.784523">
        <ele>573.6</ele>
        <time>2020-05-06T08:17:57Z</time>
      </trkpt>
      <trkpt lat="30.762226" lon="34.784221">
        <ele>574.2</ele>
        <time>2020-05-06T08:18:06Z</time>
      </trkpt>
      <trkpt lat="30.762108" lon="34.783939">
        <ele>573.2</ele>
        <time>2020-05-06T08:18:14Z</time>
      </trkpt>
      <trkpt lat="30.762011" lon="34.783676">
        <ele>573.8</ele>
        <time>2020-05-06T08:18:21Z</time>
      </trkpt>
      <trkpt lat="30.762000" lon="34.783641">
        <ele>573.6</ele>
        <time>2020-05-06T08:18:22Z</time>
      </trkpt>
      <trkpt lat="30.761964" lon="34.783590">
        <ele>573.2</ele>
        <time>2020-05-06T08:18:24Z</time>
      </trkpt>
      <trkpt lat="30.761936" lon="34.783585">
        <ele>573.2</ele>
        <time>2020-05-06T08:18:25Z</time>
      </trkpt>
      <trkpt lat="30.761833" lon="34.783637">
        <ele>572.8</ele>
        <time>2020-05-06T08:18:29Z</time>
      </trkpt>
      <trkpt lat="30.761816" lon="34.783665">
        <ele>572.8</ele>
        <time>2020-05-06T08:18:30Z</time>
      </trkpt>
      <trkpt lat="30.761712" lon="34.783892">
        <ele>573.0</ele>
        <time>2020-05-06T08:18:37Z</time>
      </trkpt>
      <trkpt lat="30.761638" lon="34.784027">
        <ele>573.2</ele>
        <time>2020-05-06T08:18:41Z</time>
      </trkpt>
      <trkpt lat="30.761596" lon="34.784103">
        <ele>574.6</ele>
        <time>2020-05-06T08:18:43Z</time>
      </trkpt>
      <trkpt lat="30.761577" lon="34.784142">
        <ele>575.2</ele>
        <time>2020-05-06T08:18:44Z</time>
      </trkpt>
      <trkpt lat="30.761468" lon="34.784353">
        <ele>575.6</ele>
        <time>2020-05-06T08:18:49Z</time>
      </trkpt>
      <trkpt lat="30.761395" lon="34.784480">
        <ele>576.0</ele>
        <time>2020-05-06T08:18:52Z</time>
      </trkpt>
      <trkpt lat="30.761194" lon="34.784855">
        <ele>576.2</ele>
        <time>2020-05-06T08:19:01Z</time>
      </trkpt>
      <trkpt lat="30.761147" lon="34.784939">
        <ele>576.6</ele>
        <time>2020-05-06T08:19:03Z</time>
      </trkpt>
      <trkpt lat="30.760998" lon="34.785178">
        <ele>577.0</ele>
        <time>2020-05-06T08:19:09Z</time>
      </trkpt>
      <trkpt lat="30.760753" lon="34.785526">
        <ele>577.0</ele>
        <time>2020-05-06T08:19:18Z</time>
      </trkpt>
      <trkpt lat="30.760670" lon="34.785634">
        <ele>577.8</ele>
        <time>2020-05-06T08:19:21Z</time>
      </trkpt>
      <trkpt lat="30.760525" lon="34.785828">
        <ele>578.4</ele>
        <time>2020-05-06T08:19:26Z</time>
      </trkpt>
      <trkpt lat="30.760332" lon="34.786142">
        <ele>579.2</ele>
        <time>2020-05-06T08:19:34Z</time>
      </trkpt>
      <trkpt lat="30.760088" lon="34.786511">
        <ele>579.6</ele>
        <time>2020-05-06T08:19:44Z</time>
      </trkpt>
      <trkpt lat="30.759942" lon="34.786750">
        <ele>579.8</ele>
        <time>2020-05-06T08:19:51Z</time>
      </trkpt>
      <trkpt lat="30.759784" lon="34.787072">
        <ele>579.4</ele>
        <time>2020-05-06T08:20:00Z</time>
      </trkpt>
      <trkpt lat="30.759664" lon="34.787373">
        <ele>579.4</ele>
        <time>2020-05-06T08:20:08Z</time>
      </trkpt>
      <trkpt lat="30.759573" lon="34.787614">
        <ele>579.2</ele>
        <time>2020-05-06T08:20:14Z</time>
      </trkpt>
      <trkpt lat="30.759411" lon="34.787820">
        <ele>579.6</ele>
        <time>2020-05-06T08:20:20Z</time>
      </trkpt>
      <trkpt lat="30.759213" lon="34.787952">
        <ele>579.4</ele>
        <time>2020-05-06T08:20:26Z</time>
      </trkpt>
      <trkpt lat="30.759184" lon="34.787978">
        <ele>579.2</ele>
        <time>2020-05-06T08:20:27Z</time>
      </trkpt>
      <trkpt lat="30.759077" lon="34.788081">
        <ele>579.2</ele>
        <time>2020-05-06T08:20:31Z</time>
      </trkpt>
      <trkpt lat="30.759019" lon="34.788129">
        <ele>579.4</ele>
        <time>2020-05-06T08:20:33Z</time>
      </trkpt>
      <trkpt lat="30.758963" lon="34.788176">
        <ele>579.4</ele>
        <time>2020-05-06T08:20:35Z</time>
      </trkpt>
      <trkpt lat="30.758801" lon="34.788328">
        <ele>579.0</ele>
        <time>2020-05-06T08:20:42Z</time>
      </trkpt>
      <trkpt lat="30.758760" lon="34.788442">
        <ele>577.8</ele>
        <time>2020-05-06T08:20:47Z</time>
      </trkpt>
      <trkpt lat="30.758726" lon="34.788550">
        <ele>577.4</ele>
        <time>2020-05-06T08:20:50Z</time>
      </trkpt>
      <trkpt lat="30.758668" lon="34.788632">
        <ele>577.2</ele>
        <time>2020-05-06T08:20:52Z</time>
      </trkpt>
      <trkpt lat="30.758638" lon="34.788665">
        <ele>577.4</ele>
        <time>2020-05-06T08:20:53Z</time>
      </trkpt>
      <trkpt lat="30.758615" lon="34.788681">
        <ele>577.4</ele>
        <time>2020-05-06T08:20:54Z</time>
      </trkpt>
      <trkpt lat="30.758569" lon="34.788673">
        <ele>577.8</ele>
        <time>2020-05-06T08:20:56Z</time>
      </trkpt>
      <trkpt lat="30.758508" lon="34.788633">
        <ele>578.2</ele>
        <time>2020-05-06T08:20:58Z</time>
      </trkpt>
      <trkpt lat="30.758257" lon="34.788461">
        <ele>578.8</ele>
        <time>2020-05-06T08:21:06Z</time>
      </trkpt>
      <trkpt lat="30.758081" lon="34.788297">
        <ele>579.6</ele>
        <time>2020-05-06T08:21:12Z</time>
      </trkpt>
      <trkpt lat="30.757927" lon="34.788183">
        <ele>579.8</ele>
        <time>2020-05-06T08:21:17Z</time>
      </trkpt>
      <trkpt lat="30.757877" lon="34.788139">
        <ele>579.6</ele>
        <time>2020-05-06T08:21:20Z</time>
      </trkpt>
      <trkpt lat="30.757862" lon="34.788126">
        <ele>579.8</ele>
        <time>2020-05-06T08:21:23Z</time>
      </trkpt>
      <trkpt lat="30.757843" lon="34.788106">
        <ele>580.2</ele>
        <time>2020-05-06T08:21:26Z</time>
      </trkpt>
      <trkpt lat="30.757836" lon="34.788090">
        <ele>580.2</ele>
        <time>2020-05-06T08:21:29Z</time>
      </trkpt>
      <trkpt lat="30.757769" lon="34.788033">
        <ele>580.0</ele>
        <time>2020-05-06T08:21:33Z</time>
      </trkpt>
      <trkpt lat="30.757668" lon="34.787929">
        <ele>580.2</ele>
        <time>2020-05-06T08:21:36Z</time>
      </trkpt>
      <trkpt lat="30.757578" lon="34.787875">
        <ele>580.4</ele>
        <time>2020-05-06T08:21:38Z</time>
      </trkpt>
      <trkpt lat="30.757442" lon="34.787797">
        <ele>580.6</ele>
        <time>2020-05-06T08:21:41Z</time>
      </trkpt>
      <trkpt lat="30.757365" lon="34.787724">
        <ele>580.8</ele>
        <time>2020-05-06T08:21:43Z</time>
      </trkpt>
      <trkpt lat="30.757247" lon="34.787599">
        <ele>581.0</ele>
        <time>2020-05-06T08:21:46Z</time>
      </trkpt>
      <trkpt lat="30.757094" lon="34.787446">
        <ele>581.2</ele>
        <time>2020-05-06T08:21:50Z</time>
      </trkpt>
      <trkpt lat="30.757015" lon="34.787360">
        <ele>581.6</ele>
        <time>2020-05-06T08:21:52Z</time>
      </trkpt>
      <trkpt lat="30.756963" lon="34.787330">
        <ele>582.0</ele>
        <time>2020-05-06T08:21:53Z</time>
      </trkpt>
      <trkpt lat="30.756903" lon="34.787314">
        <ele>582.2</ele>
        <time>2020-05-06T08:21:54Z</time>
      </trkpt>
      <trkpt lat="30.756554" lon="34.787357">
        <ele>583.0</ele>
        <time>2020-05-06T08:22:00Z</time>
      </trkpt>
      <trkpt lat="30.756500" lon="34.787369">
        <ele>583.2</ele>
        <time>2020-05-06T08:22:01Z</time>
      </trkpt>
      <trkpt lat="30.756292" lon="34.787451">
        <ele>583.8</ele>
        <time>2020-05-06T08:22:05Z</time>
      </trkpt>
      <trkpt lat="30.755972" lon="34.787470">
        <ele>584.0</ele>
        <time>2020-05-06T08:22:11Z</time>
      </trkpt>
      <trkpt lat="30.755616" lon="34.787345">
        <ele>584.2</ele>
        <time>2020-05-06T08:22:18Z</time>
      </trkpt>
      <trkpt lat="30.755331" lon="34.787198">
        <ele>584.6</ele>
        <time>2020-05-06T08:22:24Z</time>
      </trkpt>
      <trkpt lat="30.755110" lon="34.787048">
        <ele>584.8</ele>
        <time>2020-05-06T08:22:29Z</time>
      </trkpt>
      <trkpt lat="30.755069" lon="34.787022">
        <ele>584.8</ele>
        <time>2020-05-06T08:22:30Z</time>
      </trkpt>
      <trkpt lat="30.754974" lon="34.786982">
        <ele>585.0</ele>
        <time>2020-05-06T08:22:32Z</time>
      </trkpt>
      <trkpt lat="30.754920" lon="34.786965">
        <ele>585.2</ele>
        <time>2020-05-06T08:22:33Z</time>
      </trkpt>
      <trkpt lat="30.754747" lon="34.786904">
        <ele>586.0</ele>
        <time>2020-05-06T08:22:36Z</time>
      </trkpt>
      <trkpt lat="30.754502" lon="34.786809">
        <ele>586.4</ele>
        <time>2020-05-06T08:22:41Z</time>
      </trkpt>
      <trkpt lat="30.754289" lon="34.786769">
        <ele>587.4</ele>
        <time>2020-05-06T08:22:45Z</time>
      </trkpt>
      <trkpt lat="30.754195" lon="34.786759">
        <ele>587.8</ele>
        <time>2020-05-06T08:22:47Z</time>
      </trkpt>
      <trkpt lat="30.753878" lon="34.786729">
        <ele>588.2</ele>
        <time>2020-05-06T08:22:54Z</time>
      </trkpt>
      <trkpt lat="30.753574" lon="34.786674">
        <ele>588.8</ele>
        <time>2020-05-06T08:23:01Z</time>
      </trkpt>
      <trkpt lat="30.753262" lon="34.786616">
        <ele>588.6</ele>
        <time>2020-05-06T08:23:09Z</time>
      </trkpt>
      <trkpt lat="30.753220" lon="34.786614">
        <ele>588.6</ele>
        <time>2020-05-06T08:23:10Z</time>
      </trkpt>
      <trkpt lat="30.752948" lon="34.786625">
        <ele>589.6</ele>
        <time>2020-05-06T08:23:16Z</time>
      </trkpt>
      <trkpt lat="30.752697" lon="34.786643">
        <ele>589.4</ele>
        <time>2020-05-06T08:23:22Z</time>
      </trkpt>
      <trkpt lat="30.752491" lon="34.786611">
        <ele>589.2</ele>
        <time>2020-05-06T08:23:27Z</time>
      </trkpt>
      <trkpt lat="30.752164" lon="34.786600">
        <ele>589.2</ele>
        <time>2020-05-06T08:23:34Z</time>
      </trkpt>
      <trkpt lat="30.751841" lon="34.786597">
        <ele>589.6</ele>
        <time>2020-05-06T08:23:41Z</time>
      </trkpt>
      <trkpt lat="30.751797" lon="34.786597">
        <ele>589.8</ele>
        <time>2020-05-06T08:23:42Z</time>
      </trkpt>
      <trkpt lat="30.751434" lon="34.786601">
        <ele>590.0</ele>
        <time>2020-05-06T08:23:50Z</time>
      </trkpt>
      <trkpt lat="30.751096" lon="34.786596">
        <ele>589.8</ele>
        <time>2020-05-06T08:23:57Z</time>
      </trkpt>
      <trkpt lat="30.750742" lon="34.786554">
        <ele>590.4</ele>
        <time>2020-05-06T08:24:04Z</time>
      </trkpt>
      <trkpt lat="30.750473" lon="34.786502">
        <ele>590.8</ele>
        <time>2020-05-06T08:24:10Z</time>
      </trkpt>
      <trkpt lat="30.750399" lon="34.786464">
        <ele>591.0</ele>
        <time>2020-05-06T08:24:12Z</time>
      </trkpt>
      <trkpt lat="30.750296" lon="34.786367">
        <ele>590.8</ele>
        <time>2020-05-06T08:24:15Z</time>
      </trkpt>
      <trkpt lat="30.750016" lon="34.786207">
        <ele>590.2</ele>
        <time>2020-05-06T08:24:22Z</time>
      </trkpt>
      <trkpt lat="30.749661" lon="34.785990">
        <ele>590.4</ele>
        <time>2020-05-06T08:24:31Z</time>
      </trkpt>
      <trkpt lat="30.749317" lon="34.785763">
        <ele>590.2</ele>
        <time>2020-05-06T08:24:40Z</time>
      </trkpt>
      <trkpt lat="30.749153" lon="34.785642">
        <ele>590.4</ele>
        <time>2020-05-06T08:24:44Z</time>
      </trkpt>
      <trkpt lat="30.749059" lon="34.785591">
        <ele>590.6</ele>
        <time>2020-05-06T08:24:46Z</time>
      </trkpt>
      <trkpt lat="30.748710" lon="34.785481">
        <ele>591.6</ele>
        <time>2020-05-06T08:24:53Z</time>
      </trkpt>
      <trkpt lat="30.748426" lon="34.785407">
        <ele>592.4</ele>
        <time>2020-05-06T08:24:59Z</time>
      </trkpt>
      <trkpt lat="30.748185" lon="34.785382">
        <ele>592.2</ele>
        <time>2020-05-06T08:25:04Z</time>
      </trkpt>
      <trkpt lat="30.747958" lon="34.785485">
        <ele>591.8</ele>
        <time>2020-05-06T08:25:10Z</time>
      </trkpt>
      <trkpt lat="30.747922" lon="34.785506">
        <ele>591.8</ele>
        <time>2020-05-06T08:25:11Z</time>
      </trkpt>
      <trkpt lat="30.747644" lon="34.785604">
        <ele>591.8</ele>
        <time>2020-05-06T08:25:18Z</time>
      </trkpt>
      <trkpt lat="30.747563" lon="34.785630">
        <ele>591.8</ele>
        <time>2020-05-06T08:25:20Z</time>
      </trkpt>
      <trkpt lat="30.747484" lon="34.785662">
        <ele>592.0</ele>
        <time>2020-05-06T08:25:22Z</time>
      </trkpt>
      <trkpt lat="30.747408" lon="34.785706">
        <ele>591.6</ele>
        <time>2020-05-06T08:25:24Z</time>
      </trkpt>
      <trkpt lat="30.747230" lon="34.785883">
        <ele>591.8</ele>
        <time>2020-05-06T08:25:30Z</time>
      </trkpt>
      <trkpt lat="30.747180" lon="34.785943">
        <ele>592.0</ele>
        <time>2020-05-06T08:25:32Z</time>
      </trkpt>
      <trkpt lat="30.747047" lon="34.786029">
        <ele>592.6</ele>
        <time>2020-05-06T08:25:37Z</time>
      </trkpt>
      <trkpt lat="30.746993" lon="34.786013">
        <ele>592.6</ele>
        <time>2020-05-06T08:25:39Z</time>
      </trkpt>
      <trkpt lat="30.746968" lon="34.785957">
        <ele>592.6</ele>
        <time>2020-05-06T08:25:41Z</time>
      </trkpt>
      <trkpt lat="30.746961" lon="34.785880">
        <ele>592.2</ele>
        <time>2020-05-06T08:25:44Z</time>
      </trkpt>
      <trkpt lat="30.746955" lon="34.785859">
        <ele>592.4</ele>
        <time>2020-05-06T08:25:46Z</time>
      </trkpt>
      <trkpt lat="30.746935" lon="34.785838">
        <ele>593.2</ele>
        <time>2020-05-06T08:25:52Z</time>
      </trkpt>
      <trkpt lat="30.746911" lon="34.785848">
        <ele>592.6</ele>
        <time>2020-05-06T08:25:57Z</time>
      </trkpt>
      <trkpt lat="30.746850" lon="34.785902">
        <ele>592.4</ele>
        <time>2020-05-06T08:26:00Z</time>
      </trkpt>
      <trkpt lat="30.746764" lon="34.785986">
        <ele>592.4</ele>
        <time>2020-05-06T08:26:03Z</time>
      </trkpt>
      <trkpt lat="30.746600" lon="34.786147">
        <ele>592.8</ele>
        <time>2020-05-06T08:26:09Z</time>
      </trkpt>
      <trkpt lat="30.746536" lon="34.786196">
        <ele>592.8</ele>
        <time>2020-05-06T08:26:11Z</time>
      </trkpt>
      <trkpt lat="30.746415" lon="34.786312">
        <ele>593.6</ele>
        <time>2020-05-06T08:26:15Z</time>
      </trkpt>
      <trkpt lat="30.746354" lon="34.786380">
        <ele>593.8</ele>
        <time>2020-05-06T08:26:17Z</time>
      </trkpt>
      <trkpt lat="30.746172" lon="34.786584">
        <ele>594.4</ele>
        <time>2020-05-06T08:26:23Z</time>
      </trkpt>
      <trkpt lat="30.745908" lon="34.786882">
        <ele>594.4</ele>
        <time>2020-05-06T08:26:31Z</time>
      </trkpt>
      <trkpt lat="30.745702" lon="34.787148">
        <ele>594.0</ele>
        <time>2020-05-06T08:26:38Z</time>
      </trkpt>
      <trkpt lat="30.745562" lon="34.787501">
        <ele>594.4</ele>
        <time>2020-05-06T08:26:46Z</time>
      </trkpt>
      <trkpt lat="30.745449" lon="34.787852">
        <ele>594.6</ele>
        <time>2020-05-06T08:26:54Z</time>
      </trkpt>
      <trkpt lat="30.745419" lon="34.787938">
        <ele>594.6</ele>
        <time>2020-05-06T08:26:56Z</time>
      </trkpt>
      <trkpt lat="30.745349" lon="34.788109">
        <ele>595.0</ele>
        <time>2020-05-06T08:27:01Z</time>
      </trkpt>
      <trkpt lat="30.745273" lon="34.788252">
        <ele>595.0</ele>
        <time>2020-05-06T08:27:06Z</time>
      </trkpt>
      <trkpt lat="30.745239" lon="34.788294">
        <ele>594.6</ele>
        <time>2020-05-06T08:27:08Z</time>
      </trkpt>
      <trkpt lat="30.745207" lon="34.788332">
        <ele>593.8</ele>
        <time>2020-05-06T08:27:10Z</time>
      </trkpt>
      <trkpt lat="30.745139" lon="34.788404">
        <ele>593.4</ele>
        <time>2020-05-06T08:27:13Z</time>
      </trkpt>
      <trkpt lat="30.744990" lon="34.788587">
        <ele>593.6</ele>
        <time>2020-05-06T08:27:19Z</time>
      </trkpt>
      <trkpt lat="30.744844" lon="34.788844">
        <ele>593.2</ele>
        <time>2020-05-06T08:27:27Z</time>
      </trkpt>
      <trkpt lat="30.744742" lon="34.788987">
        <ele>592.6</ele>
        <time>2020-05-06T08:27:32Z</time>
      </trkpt>
      <trkpt lat="30.744698" lon="34.789030">
        <ele>592.6</ele>
        <time>2020-05-06T08:27:34Z</time>
      </trkpt>
      <trkpt lat="30.744592" lon="34.789151">
        <ele>592.6</ele>
        <time>2020-05-06T08:27:40Z</time>
      </trkpt>
      <trkpt lat="30.744437" lon="34.789372">
        <ele>592.8</ele>
        <time>2020-05-06T08:27:46Z</time>
      </trkpt>
      <trkpt lat="30.744407" lon="34.789415">
        <ele>593.2</ele>
        <time>2020-05-06T08:27:47Z</time>
      </trkpt>
      <trkpt lat="30.744377" lon="34.789460">
        <ele>594.0</ele>
        <time>2020-05-06T08:27:48Z</time>
      </trkpt>
      <trkpt lat="30.744200" lon="34.789770">
        <ele>594.8</ele>
        <time>2020-05-06T08:27:55Z</time>
      </trkpt>
      <trkpt lat="30.744054" lon="34.790048">
        <ele>594.8</ele>
        <time>2020-05-06T08:28:02Z</time>
      </trkpt>
      <trkpt lat="30.743931" lon="34.790309">
        <ele>595.2</ele>
        <time>2020-05-06T08:28:09Z</time>
      </trkpt>
      <trkpt lat="30.743921" lon="34.790350">
        <ele>595.4</ele>
        <time>2020-05-06T08:28:10Z</time>
      </trkpt>
      <trkpt lat="30.743884" lon="34.790615">
        <ele>594.6</ele>
        <time>2020-05-06T08:28:17Z</time>
      </trkpt>
      <trkpt lat="30.743899" lon="34.790766">
        <ele>595.2</ele>
        <time>2020-05-06T08:28:21Z</time>
      </trkpt>
      <trkpt lat="30.743899" lon="34.790845">
        <ele>595.0</ele>
        <time>2020-05-06T08:28:23Z</time>
      </trkpt>
      <trkpt lat="30.743875" lon="34.790974">
        <ele>595.2</ele>
        <time>2020-05-06T08:28:26Z</time>
      </trkpt>
      <trkpt lat="30.743807" lon="34.791098">
        <ele>595.4</ele>
        <time>2020-05-06T08:28:29Z</time>
      </trkpt>
      <trkpt lat="30.743674" lon="34.791309">
        <ele>595.2</ele>
        <time>2020-05-06T08:28:34Z</time>
      </trkpt>
      <trkpt lat="30.743592" lon="34.791436">
        <ele>595.6</ele>
        <time>2020-05-06T08:28:37Z</time>
      </trkpt>
      <trkpt lat="30.743544" lon="34.791536">
        <ele>596.4</ele>
        <time>2020-05-06T08:28:39Z</time>
      </trkpt>
      <trkpt lat="30.743482" lon="34.791715">
        <ele>597.8</ele>
        <time>2020-05-06T08:28:42Z</time>
      </trkpt>
      <trkpt lat="30.743461" lon="34.791765">
        <ele>598.0</ele>
        <time>2020-05-06T08:28:43Z</time>
      </trkpt>
      <trkpt lat="30.743403" lon="34.791888">
        <ele>598.0</ele>
        <time>2020-05-06T08:28:46Z</time>
      </trkpt>
      <trkpt lat="30.743378" lon="34.791966">
        <ele>597.6</ele>
        <time>2020-05-06T08:28:48Z</time>
      </trkpt>
      <trkpt lat="30.743366" lon="34.792008">
        <ele>597.8</ele>
        <time>2020-05-06T08:28:49Z</time>
      </trkpt>
      <trkpt lat="30.743353" lon="34.792049">
        <ele>597.8</ele>
        <time>2020-05-06T08:28:50Z</time>
      </trkpt>
      <trkpt lat="30.743341" lon="34.792094">
        <ele>598.0</ele>
        <time>2020-05-06T08:28:51Z</time>
      </trkpt>
      <trkpt lat="30.743329" lon="34.792197">
        <ele>598.4</ele>
        <time>2020-05-06T08:28:53Z</time>
      </trkpt>
      <trkpt lat="30.743317" lon="34.792474">
        <ele>598.8</ele>
        <time>2020-05-06T08:28:59Z</time>
      </trkpt>
      <trkpt lat="30.743297" lon="34.792723">
        <ele>599.0</ele>
        <time>2020-05-06T08:29:05Z</time>
      </trkpt>
      <trkpt lat="30.743237" lon="34.792828">
        <ele>599.0</ele>
        <time>2020-05-06T08:29:09Z</time>
      </trkpt>
      <trkpt lat="30.743212" lon="34.792839">
        <ele>599.0</ele>
        <time>2020-05-06T08:29:10Z</time>
      </trkpt>
      <trkpt lat="30.743067" lon="34.792853">
        <ele>598.6</ele>
        <time>2020-05-06T08:29:14Z</time>
      </trkpt>
      <trkpt lat="30.742904" lon="34.792853">
        <ele>599.4</ele>
        <time>2020-05-06T08:29:18Z</time>
      </trkpt>
      <trkpt lat="30.742864" lon="34.792846">
        <ele>599.6</ele>
        <time>2020-05-06T08:29:19Z</time>
      </trkpt>
      <trkpt lat="30.742825" lon="34.792832">
        <ele>599.6</ele>
        <time>2020-05-06T08:29:20Z</time>
      </trkpt>
      <trkpt lat="30.742757" lon="34.792775">
        <ele>599.4</ele>
        <time>2020-05-06T08:29:22Z</time>
      </trkpt>
      <trkpt lat="30.742702" lon="34.792694">
        <ele>599.4</ele>
        <time>2020-05-06T08:29:24Z</time>
      </trkpt>
      <trkpt lat="30.742662" lon="34.792600">
        <ele>599.2</ele>
        <time>2020-05-06T08:29:26Z</time>
      </trkpt>
      <trkpt lat="30.742642" lon="34.792498">
        <ele>599.2</ele>
        <time>2020-05-06T08:29:28Z</time>
      </trkpt>
      <trkpt lat="30.742642" lon="34.792391">
        <ele>599.2</ele>
        <time>2020-05-06T08:29:30Z</time>
      </trkpt>
      <trkpt lat="30.742602" lon="34.791996">
        <ele>599.4</ele>
        <time>2020-05-06T08:29:37Z</time>
      </trkpt>
      <trkpt lat="30.742527" lon="34.791698">
        <ele>598.4</ele>
        <time>2020-05-06T08:29:42Z</time>
      </trkpt>
      <trkpt lat="30.742473" lon="34.791520">
        <ele>598.6</ele>
        <time>2020-05-06T08:29:45Z</time>
      </trkpt>
      <trkpt lat="30.742442" lon="34.791395">
        <ele>598.8</ele>
        <time>2020-05-06T08:29:47Z</time>
      </trkpt>
      <trkpt lat="30.742412" lon="34.791275">
        <ele>599.0</ele>
        <time>2020-05-06T08:29:49Z</time>
      </trkpt>
      <trkpt lat="30.742379" lon="34.791167">
        <ele>599.0</ele>
        <time>2020-05-06T08:29:51Z</time>
      </trkpt>
      <trkpt lat="30.742296" lon="34.790781">
        <ele>599.4</ele>
        <time>2020-05-06T08:29:58Z</time>
      </trkpt>
      <trkpt lat="30.742293" lon="34.790724">
        <ele>599.6</ele>
        <time>2020-05-06T08:29:59Z</time>
      </trkpt>
      <trkpt lat="30.742259" lon="34.790625">
        <ele>599.8</ele>
        <time>2020-05-06T08:30:01Z</time>
      </trkpt>
      <trkpt lat="30.742233" lon="34.790581">
        <ele>600.0</ele>
        <time>2020-05-06T08:30:02Z</time>
      </trkpt>
      <trkpt lat="30.742202" lon="34.790542">
        <ele>600.0</ele>
        <time>2020-05-06T08:30:03Z</time>
      </trkpt>
      <trkpt lat="30.742023" lon="34.790399">
        <ele>600.8</ele>
        <time>2020-05-06T08:30:07Z</time>
      </trkpt>
      <trkpt lat="30.741969" lon="34.790370">
        <ele>601.0</ele>
        <time>2020-05-06T08:30:08Z</time>
      </trkpt>
      <trkpt lat="30.741806" lon="34.790313">
        <ele>602.2</ele>
        <time>2020-05-06T08:30:11Z</time>
      </trkpt>
      <trkpt lat="30.741646" lon="34.790274">
        <ele>603.2</ele>
        <time>2020-05-06T08:30:14Z</time>
      </trkpt>
      <trkpt lat="30.741377" lon="34.790212">
        <ele>603.4</ele>
        <time>2020-05-06T08:30:19Z</time>
      </trkpt>
      <trkpt lat="30.741327" lon="34.790201">
        <ele>603.6</ele>
        <time>2020-05-06T08:30:20Z</time>
      </trkpt>
      <trkpt lat="30.740908" lon="34.790110">
        <ele>604.4</ele>
        <time>2020-05-06T08:30:29Z</time>
      </trkpt>
      <trkpt lat="30.740818" lon="34.790096">
        <ele>604.6</ele>
        <time>2020-05-06T08:30:31Z</time>
      </trkpt>
      <trkpt lat="30.740771" lon="34.790093">
        <ele>604.6</ele>
        <time>2020-05-06T08:30:32Z</time>
      </trkpt>
      <trkpt lat="30.740616" lon="34.790105">
        <ele>604.6</ele>
        <time>2020-05-06T08:30:36Z</time>
      </trkpt>
      <trkpt lat="30.740547" lon="34.790112">
        <ele>604.8</ele>
        <time>2020-05-06T08:30:38Z</time>
      </trkpt>
      <trkpt lat="30.740377" lon="34.790094">
        <ele>604.6</ele>
        <time>2020-05-06T08:30:43Z</time>
      </trkpt>
      <trkpt lat="30.740205" lon="34.790058">
        <ele>604.4</ele>
        <time>2020-05-06T08:30:48Z</time>
      </trkpt>
      <trkpt lat="30.740173" lon="34.790057">
        <ele>604.4</ele>
        <time>2020-05-06T08:30:49Z</time>
      </trkpt>
      <trkpt lat="30.740061" lon="34.790061">
        <ele>603.4</ele>
        <time>2020-05-06T08:30:54Z</time>
      </trkpt>
      <trkpt lat="30.740045" lon="34.790057">
        <ele>603.2</ele>
        <time>2020-05-06T08:30:55Z</time>
      </trkpt>
      <trkpt lat="30.739982" lon="34.790055">
        <ele>602.4</ele>
        <time>2020-05-06T08:30:58Z</time>
      </trkpt>
      <trkpt lat="30.739967" lon="34.790046">
        <ele>602.2</ele>
        <time>2020-05-06T08:30:59Z</time>
      </trkpt>
      <trkpt lat="30.739878" lon="34.789857">
        <ele>601.8</ele>
        <time>2020-05-06T08:31:04Z</time>
      </trkpt>
      <trkpt lat="30.739901" lon="34.789733">
        <ele>601.8</ele>
        <time>2020-05-06T08:31:08Z</time>
      </trkpt>
      <trkpt lat="30.740081" lon="34.789578">
        <ele>601.6</ele>
        <time>2020-05-06T08:31:14Z</time>
      </trkpt>
      <trkpt lat="30.740104" lon="34.789542">
        <ele>601.8</ele>
        <time>2020-05-06T08:31:15Z</time>
      </trkpt>
      <trkpt lat="30.740213" lon="34.789320">
        <ele>601.4</ele>
        <time>2020-05-06T08:31:22Z</time>
      </trkpt>
      <trkpt lat="30.740238" lon="34.789258">
        <ele>601.0</ele>
        <time>2020-05-06T08:31:24Z</time>
      </trkpt>
      <trkpt lat="30.740276" lon="34.789111">
        <ele>600.2</ele>
        <time>2020-05-06T08:31:28Z</time>
      </trkpt>
      <trkpt lat="30.740299" lon="34.788930">
        <ele>599.8</ele>
        <time>2020-05-06T08:31:32Z</time>
      </trkpt>
      <trkpt lat="30.740306" lon="34.788879">
        <ele>600.0</ele>
        <time>2020-05-06T08:31:33Z</time>
      </trkpt>
      <trkpt lat="30.740309" lon="34.788827">
        <ele>600.4</ele>
        <time>2020-05-06T08:31:34Z</time>
      </trkpt>
      <trkpt lat="30.740293" lon="34.788718">
        <ele>601.0</ele>
        <time>2020-05-06T08:31:36Z</time>
      </trkpt>
      <trkpt lat="30.740280" lon="34.788671">
        <ele>601.2</ele>
        <time>2020-05-06T08:31:37Z</time>
      </trkpt>
      <trkpt lat="30.740250" lon="34.788579">
        <ele>602.2</ele>
        <time>2020-05-06T08:31:39Z</time>
      </trkpt>
      <trkpt lat="30.740244" lon="34.788481">
        <ele>603.2</ele>
        <time>2020-05-06T08:31:41Z</time>
      </trkpt>
      <trkpt lat="30.740241" lon="34.788286">
        <ele>603.6</ele>
        <time>2020-05-06T08:31:46Z</time>
      </trkpt>
      <trkpt lat="30.740219" lon="34.788202">
        <ele>603.4</ele>
        <time>2020-05-06T08:31:48Z</time>
      </trkpt>
      <trkpt lat="30.740181" lon="34.788118">
        <ele>603.4</ele>
        <time>2020-05-06T08:31:50Z</time>
      </trkpt>
      <trkpt lat="30.740162" lon="34.788075">
        <ele>603.2</ele>
        <time>2020-05-06T08:31:51Z</time>
      </trkpt>
      <trkpt lat="30.740121" lon="34.787988">
        <ele>603.2</ele>
        <time>2020-05-06T08:31:53Z</time>
      </trkpt>
      <trkpt lat="30.740098" lon="34.787943">
        <ele>603.2</ele>
        <time>2020-05-06T08:31:54Z</time>
      </trkpt>
      <trkpt lat="30.739954" lon="34.787666">
        <ele>603.0</ele>
        <time>2020-05-06T08:32:01Z</time>
      </trkpt>
      <trkpt lat="30.739926" lon="34.787632">
        <ele>603.0</ele>
        <time>2020-05-06T08:32:02Z</time>
      </trkpt>
      <trkpt lat="30.739829" lon="34.787542">
        <ele>603.4</ele>
        <time>2020-05-06T08:32:05Z</time>
      </trkpt>
      <trkpt lat="30.739784" lon="34.787456">
        <ele>603.6</ele>
        <time>2020-05-06T08:32:07Z</time>
      </trkpt>
      <trkpt lat="30.739742" lon="34.787322">
        <ele>604.0</ele>
        <time>2020-05-06T08:32:10Z</time>
      </trkpt>
      <trkpt lat="30.739713" lon="34.787241">
        <ele>604.2</ele>
        <time>2020-05-06T08:32:12Z</time>
      </trkpt>
      <trkpt lat="30.739709" lon="34.787149">
        <ele>604.4</ele>
        <time>2020-05-06T08:32:14Z</time>
      </trkpt>
      <trkpt lat="30.739703" lon="34.787053">
        <ele>604.8</ele>
        <time>2020-05-06T08:32:16Z</time>
      </trkpt>
      <trkpt lat="30.739690" lon="34.786900">
        <ele>604.0</ele>
        <time>2020-05-06T08:32:20Z</time>
      </trkpt>
      <trkpt lat="30.739656" lon="34.786857">
        <ele>604.0</ele>
        <time>2020-05-06T08:32:22Z</time>
      </trkpt>
      <trkpt lat="30.739587" lon="34.786811">
        <ele>604.2</ele>
        <time>2020-05-06T08:32:24Z</time>
      </trkpt>
      <trkpt lat="30.739549" lon="34.786784">
        <ele>604.4</ele>
        <time>2020-05-06T08:32:25Z</time>
      </trkpt>
      <trkpt lat="30.739426" lon="34.786748">
        <ele>604.8</ele>
        <time>2020-05-06T08:32:28Z</time>
      </trkpt>
      <trkpt lat="30.739345" lon="34.786767">
        <ele>604.6</ele>
        <time>2020-05-06T08:32:30Z</time>
      </trkpt>
      <trkpt lat="30.739309" lon="34.786795">
        <ele>604.6</ele>
        <time>2020-05-06T08:32:31Z</time>
      </trkpt>
      <trkpt lat="30.739220" lon="34.786889">
        <ele>604.8</ele>
        <time>2020-05-06T08:32:34Z</time>
      </trkpt>
      <trkpt lat="30.739170" lon="34.786941">
        <ele>605.4</ele>
        <time>2020-05-06T08:32:36Z</time>
      </trkpt>
      <trkpt lat="30.739115" lon="34.786961">
        <ele>605.8</ele>
        <time>2020-05-06T08:32:39Z</time>
      </trkpt>
      <trkpt lat="30.739102" lon="34.786958">
        <ele>606.0</ele>
        <time>2020-05-06T08:32:40Z</time>
      </trkpt>
      <trkpt lat="30.739100" lon="34.786954">
        <ele>606.0</ele>
        <time>2020-05-06T08:32:42Z</time>
      </trkpt>
      <trkpt lat="30.739091" lon="34.786925">
        <ele>606.2</ele>
        <time>2020-05-06T08:32:44Z</time>
      </trkpt>
      <trkpt lat="30.739030" lon="34.786707">
        <ele>607.0</ele>
        <time>2020-05-06T08:32:49Z</time>
      </trkpt>
      <trkpt lat="30.739013" lon="34.786649">
        <ele>607.2</ele>
        <time>2020-05-06T08:32:50Z</time>
      </trkpt>
      <trkpt lat="30.738893" lon="34.786360">
        <ele>607.8</ele>
        <time>2020-05-06T08:32:55Z</time>
      </trkpt>
      <trkpt lat="30.738862" lon="34.786301">
        <ele>608.2</ele>
        <time>2020-05-06T08:32:56Z</time>
      </trkpt>
      <trkpt lat="30.738724" lon="34.786018">
        <ele>609.2</ele>
        <time>2020-05-06T08:33:01Z</time>
      </trkpt>
      <trkpt lat="30.738678" lon="34.785920">
        <ele>609.2</ele>
        <time>2020-05-06T08:33:03Z</time>
      </trkpt>
      <trkpt lat="30.738658" lon="34.785875">
        <ele>609.4</ele>
        <time>2020-05-06T08:33:04Z</time>
      </trkpt>
      <trkpt lat="30.738617" lon="34.785783">
        <ele>609.6</ele>
        <time>2020-05-06T08:33:06Z</time>
      </trkpt>
      <trkpt lat="30.738594" lon="34.785732">
        <ele>609.6</ele>
        <time>2020-05-06T08:33:07Z</time>
      </trkpt>
      <trkpt lat="30.738519" lon="34.785585">
        <ele>610.0</ele>
        <time>2020-05-06T08:33:10Z</time>
      </trkpt>
      <trkpt lat="30.738493" lon="34.785539">
        <ele>610.0</ele>
        <time>2020-05-06T08:33:11Z</time>
      </trkpt>
      <trkpt lat="30.738331" lon="34.785360">
        <ele>610.2</ele>
        <time>2020-05-06T08:33:16Z</time>
      </trkpt>
      <trkpt lat="30.738300" lon="34.785331">
        <ele>610.4</ele>
        <time>2020-05-06T08:33:17Z</time>
      </trkpt>
      <trkpt lat="30.738092" lon="34.785197">
        <ele>611.4</ele>
        <time>2020-05-06T08:33:23Z</time>
      </trkpt>
      <trkpt lat="30.737926" lon="34.785164">
        <ele>611.4</ele>
        <time>2020-05-06T08:33:27Z</time>
      </trkpt>
      <trkpt lat="30.737708" lon="34.785193">
        <ele>611.6</ele>
        <time>2020-05-06T08:33:33Z</time>
      </trkpt>
      <trkpt lat="30.737546" lon="34.785284">
        <ele>611.8</ele>
        <time>2020-05-06T08:33:38Z</time>
      </trkpt>
      <trkpt lat="30.737462" lon="34.785347">
        <ele>612.2</ele>
        <time>2020-05-06T08:33:42Z</time>
      </trkpt>
      <trkpt lat="30.737469" lon="34.785345">
        <ele>612.2</ele>
        <time>2020-05-06T08:33:46Z</time>
      </trkpt>
      <trkpt lat="30.737471" lon="34.785347">
        <ele>612.4</ele>
        <time>2020-05-06T08:33:50Z</time>
      </trkpt>
      <trkpt lat="30.737424" lon="34.785378">
        <ele>611.8</ele>
        <time>2020-05-06T08:33:54Z</time>
      </trkpt>
      <trkpt lat="30.737403" lon="34.785392">
        <ele>611.6</ele>
        <time>2020-05-06T08:33:55Z</time>
      </trkpt>
      <trkpt lat="30.737382" lon="34.785411">
        <ele>611.4</ele>
        <time>2020-05-06T08:33:56Z</time>
      </trkpt>
      <trkpt lat="30.737326" lon="34.785454">
        <ele>611.4</ele>
        <time>2020-05-06T08:33:59Z</time>
      </trkpt>
      <trkpt lat="30.737243" lon="34.785474">
        <ele>611.6</ele>
        <time>2020-05-06T08:34:04Z</time>
      </trkpt>
      <trkpt lat="30.737244" lon="34.785485">
        <ele>611.8</ele>
        <time>2020-05-06T08:34:08Z</time>
      </trkpt>
      <trkpt lat="30.737231" lon="34.785495">
        <ele>611.8</ele>
        <time>2020-05-06T08:34:10Z</time>
      </trkpt>
      <trkpt lat="30.737216" lon="34.785500">
        <ele>611.8</ele>
        <time>2020-05-06T08:34:12Z</time>
      </trkpt>
      <trkpt lat="30.737210" lon="34.785494">
        <ele>611.8</ele>
        <time>2020-05-06T08:34:13Z</time>
      </trkpt>
      <trkpt lat="30.737160" lon="34.785438">
        <ele>611.4</ele>
        <time>2020-05-06T08:34:19Z</time>
      </trkpt>
      <trkpt lat="30.737094" lon="34.785261">
        <ele>612.2</ele>
        <time>2020-05-06T08:36:22Z</time>
      </trkpt>
      <trkpt lat="30.737088" lon="34.785272">
        <ele>612.2</ele>
        <time>2020-05-06T08:36:23Z</time>
      </trkpt>
      <trkpt lat="30.737041" lon="34.785278">
        <ele>612.8</ele>
        <time>2020-05-06T08:36:26Z</time>
      </trkpt>
      <trkpt lat="30.736904" lon="34.785296">
        <ele>613.6</ele>
        <time>2020-05-06T08:36:30Z</time>
      </trkpt>
      <trkpt lat="30.736868" lon="34.785292">
        <ele>614.0</ele>
        <time>2020-05-06T08:36:31Z</time>
      </trkpt>
      <trkpt lat="30.736736" lon="34.785310">
        <ele>615.4</ele>
        <time>2020-05-06T08:36:34Z</time>
      </trkpt>
      <trkpt lat="30.736570" lon="34.785353">
        <ele>616.2</ele>
        <time>2020-05-06T08:36:38Z</time>
      </trkpt>
      <trkpt lat="30.736491" lon="34.785380">
        <ele>616.4</ele>
        <time>2020-05-06T08:36:40Z</time>
      </trkpt>
      <trkpt lat="30.736450" lon="34.785386">
        <ele>616.6</ele>
        <time>2020-05-06T08:36:41Z</time>
      </trkpt>
      <trkpt lat="30.736369" lon="34.785384">
        <ele>617.0</ele>
        <time>2020-05-06T08:36:43Z</time>
      </trkpt>
      <trkpt lat="30.736033" lon="34.785374">
        <ele>617.4</ele>
        <time>2020-05-06T08:36:51Z</time>
      </trkpt>
      <trkpt lat="30.735829" lon="34.785346">
        <ele>617.2</ele>
        <time>2020-05-06T08:36:56Z</time>
      </trkpt>
      <trkpt lat="30.735785" lon="34.785334">
        <ele>617.2</ele>
        <time>2020-05-06T08:36:57Z</time>
      </trkpt>
      <trkpt lat="30.735744" lon="34.785319">
        <ele>617.4</ele>
        <time>2020-05-06T08:36:58Z</time>
      </trkpt>
      <trkpt lat="30.735702" lon="34.785297">
        <ele>617.4</ele>
        <time>2020-05-06T08:36:59Z</time>
      </trkpt>
      <trkpt lat="30.735664" lon="34.785271">
        <ele>617.4</ele>
        <time>2020-05-06T08:37:00Z</time>
      </trkpt>
      <trkpt lat="30.735628" lon="34.785242">
        <ele>617.4</ele>
        <time>2020-05-06T08:37:01Z</time>
      </trkpt>
      <trkpt lat="30.735561" lon="34.785182">
        <ele>617.8</ele>
        <time>2020-05-06T08:37:03Z</time>
      </trkpt>
      <trkpt lat="30.735529" lon="34.785151">
        <ele>617.8</ele>
        <time>2020-05-06T08:37:04Z</time>
      </trkpt>
      <trkpt lat="30.735360" lon="34.784996">
        <ele>617.8</ele>
        <time>2020-05-06T08:37:10Z</time>
      </trkpt>
      <trkpt lat="30.735309" lon="34.784930">
        <ele>618.0</ele>
        <time>2020-05-06T08:37:12Z</time>
      </trkpt>
      <trkpt lat="30.735204" lon="34.784805">
        <ele>618.6</ele>
        <time>2020-05-06T08:37:15Z</time>
      </trkpt>
      <trkpt lat="30.735168" lon="34.784759">
        <ele>618.8</ele>
        <time>2020-05-06T08:37:16Z</time>
      </trkpt>
      <trkpt lat="30.735083" lon="34.784669">
        <ele>619.2</ele>
        <time>2020-05-06T08:37:18Z</time>
      </trkpt>
      <trkpt lat="30.735004" lon="34.784581">
        <ele>619.4</ele>
        <time>2020-05-06T08:37:20Z</time>
      </trkpt>
      <trkpt lat="30.734907" lon="34.784478">
        <ele>620.2</ele>
        <time>2020-05-06T08:37:23Z</time>
      </trkpt>
      <trkpt lat="30.734826" lon="34.784404">
        <ele>620.2</ele>
        <time>2020-05-06T08:37:26Z</time>
      </trkpt>
      <trkpt lat="30.734718" lon="34.784304">
        <ele>619.4</ele>
        <time>2020-05-06T08:37:31Z</time>
      </trkpt>
      <trkpt lat="30.734661" lon="34.784215">
        <ele>619.8</ele>
        <time>2020-05-06T08:37:35Z</time>
      </trkpt>
      <trkpt lat="30.734648" lon="34.784186">
        <ele>620.4</ele>
        <time>2020-05-06T08:37:36Z</time>
      </trkpt>
      <trkpt lat="30.734626" lon="34.784130">
        <ele>621.0</ele>
        <time>2020-05-06T08:37:38Z</time>
      </trkpt>
      <trkpt lat="30.734555" lon="34.784048">
        <ele>621.4</ele>
        <time>2020-05-06T08:37:41Z</time>
      </trkpt>
      <trkpt lat="30.734330" lon="34.783956">
        <ele>622.2</ele>
        <time>2020-05-06T08:37:47Z</time>
      </trkpt>
      <trkpt lat="30.734288" lon="34.783948">
        <ele>622.4</ele>
        <time>2020-05-06T08:37:48Z</time>
      </trkpt>
      <trkpt lat="30.734083" lon="34.783923">
        <ele>622.6</ele>
        <time>2020-05-06T08:37:53Z</time>
      </trkpt>
      <trkpt lat="30.733916" lon="34.783916">
        <ele>621.4</ele>
        <time>2020-05-06T08:37:58Z</time>
      </trkpt>
      <trkpt lat="30.733867" lon="34.783908">
        <ele>621.4</ele>
        <time>2020-05-06T08:38:00Z</time>
      </trkpt>
      <trkpt lat="30.733820" lon="34.783893">
        <ele>621.4</ele>
        <time>2020-05-06T08:38:05Z</time>
      </trkpt>
      <trkpt lat="30.733749" lon="34.783870">
        <ele>621.4</ele>
        <time>2020-05-06T08:38:14Z</time>
      </trkpt>
      <trkpt lat="30.733712" lon="34.783835">
        <ele>621.4</ele>
        <time>2020-05-06T08:38:18Z</time>
      </trkpt>
      <trkpt lat="30.733718" lon="34.783834">
        <ele>621.4</ele>
        <time>2020-05-06T08:38:22Z</time>
      </trkpt>
      <trkpt lat="30.733719" lon="34.783832">
        <ele>621.4</ele>
        <time>2020-05-06T08:38:29Z</time>
      </trkpt>
      <trkpt lat="30.733728" lon="34.783832">
        <ele>621.4</ele>
        <time>2020-05-06T08:38:33Z</time>
      </trkpt>
      <trkpt lat="30.733737" lon="34.783845">
        <ele>621.4</ele>
        <time>2020-05-06T08:38:38Z</time>
      </trkpt>
      <trkpt lat="30.733747" lon="34.783863">
        <ele>621.4</ele>
        <time>2020-05-06T08:38:42Z</time>
      </trkpt>
      <trkpt lat="30.733868" lon="34.783864">
        <ele>621.4</ele>
        <time>2020-05-06T08:38:49Z</time>
      </trkpt>
      <trkpt lat="30.733933" lon="34.783899">
        <ele>621.4</ele>
        <time>2020-05-06T08:38:57Z</time>
      </trkpt>
      <trkpt lat="30.733945" lon="34.783927">
        <ele>621.4</ele>
        <time>2020-05-06T08:39:07Z</time>
      </trkpt>
      <trkpt lat="30.733890" lon="34.783910">
        <ele>621.4</ele>
        <time>2020-05-06T08:39:15Z</time>
      </trkpt>
      <trkpt lat="30.733881" lon="34.783912">
        <ele>621.4</ele>
        <time>2020-05-06T08:39:17Z</time>
      </trkpt>
      <trkpt lat="30.733871" lon="34.783902">
        <ele>621.4</ele>
        <time>2020-05-06T08:39:22Z</time>
      </trkpt>
      <trkpt lat="30.733798" lon="34.783862">
        <ele>621.4</ele>
        <time>2020-05-06T08:39:31Z</time>
      </trkpt>
      <trkpt lat="30.733807" lon="34.783858">
        <ele>621.4</ele>
        <time>2020-05-06T08:39:39Z</time>
      </trkpt>
      <trkpt lat="30.733807" lon="34.783857">
        <ele>621.4</ele>
        <time>2020-05-06T08:39:45Z</time>
      </trkpt>
      <trkpt lat="30.733873" lon="34.783878">
        <ele>621.4</ele>
        <time>2020-05-06T08:39:54Z</time>
      </trkpt>
      <trkpt lat="30.733921" lon="34.783882">
        <ele>621.4</ele>
        <time>2020-05-06T08:40:03Z</time>
      </trkpt>
      <trkpt lat="30.733954" lon="34.783877">
        <ele>621.4</ele>
        <time>2020-05-06T08:40:09Z</time>
      </trkpt>
      <trkpt lat="30.733986" lon="34.783874">
        <ele>621.4</ele>
        <time>2020-05-06T08:40:12Z</time>
      </trkpt>
      <trkpt lat="30.734025" lon="34.783880">
        <ele>621.4</ele>
        <time>2020-05-06T08:40:19Z</time>
      </trkpt>
      <trkpt lat="30.734045" lon="34.783885">
        <ele>621.4</ele>
        <time>2020-05-06T08:40:24Z</time>
      </trkpt>
      <trkpt lat="30.734037" lon="34.783856">
        <ele>621.4</ele>
        <time>2020-05-06T08:40:33Z</time>
      </trkpt>
      <trkpt lat="30.733908" lon="34.783868">
        <ele>621.4</ele>
        <time>2020-05-06T08:40:41Z</time>
      </trkpt>
      <trkpt lat="30.733894" lon="34.783867">
        <ele>621.4</ele>
        <time>2020-05-06T08:40:43Z</time>
      </trkpt>
      <trkpt lat="30.733862" lon="34.783858">
        <ele>621.4</ele>
        <time>2020-05-06T08:40:48Z</time>
      </trkpt>
      <trkpt lat="30.733882" lon="34.783867">
        <ele>621.4</ele>
        <time>2020-05-06T08:40:56Z</time>
      </trkpt>
      <trkpt lat="30.733885" lon="34.783875">
        <ele>621.8</ele>
        <time>2020-05-06T08:41:03Z</time>
      </trkpt>
      <trkpt lat="30.733886" lon="34.783874">
        <ele>621.8</ele>
        <time>2020-05-06T08:41:04Z</time>
      </trkpt>
      <trkpt lat="30.733885" lon="34.783873">
        <ele>621.8</ele>
        <time>2020-05-06T08:41:05Z</time>
      </trkpt>
      <trkpt lat="30.733898" lon="34.783872">
        <ele>621.8</ele>
        <time>2020-05-06T08:41:06Z</time>
      </trkpt>
      <trkpt lat="30.733906" lon="34.783867">
        <ele>621.8</ele>
        <time>2020-05-06T08:41:08Z</time>
      </trkpt>
      <trkpt lat="30.733911" lon="34.783868">
        <ele>622.2</ele>
        <time>2020-05-06T08:41:11Z</time>
      </trkpt>
      <trkpt lat="30.733916" lon="34.783869">
        <ele>622.2</ele>
        <time>2020-05-06T08:41:13Z</time>
      </trkpt>
      <trkpt lat="30.733918" lon="34.783869">
        <ele>622.4</ele>
        <time>2020-05-06T08:41:14Z</time>
      </trkpt>
      <trkpt lat="30.733918" lon="34.783870">
        <ele>621.8</ele>
        <time>2020-05-06T08:41:20Z</time>
      </trkpt>
      <trkpt lat="30.733905" lon="34.783879">
        <ele>621.8</ele>
        <time>2020-05-06T08:41:26Z</time>
      </trkpt>
      <trkpt lat="30.733901" lon="34.783879">
        <ele>621.8</ele>
        <time>2020-05-06T08:41:28Z</time>
      </trkpt>
      <trkpt lat="30.733890" lon="34.783876">
        <ele>621.2</ele>
        <time>2020-05-06T08:41:35Z</time>
      </trkpt>
      <trkpt lat="30.733891" lon="34.783854">
        <ele>621.8</ele>
        <time>2020-05-06T08:41:43Z</time>
      </trkpt>
      <trkpt lat="30.733925" lon="34.783879">
        <ele>622.0</ele>
        <time>2020-05-06T08:41:52Z</time>
      </trkpt>
      <trkpt lat="30.733941" lon="34.783882">
        <ele>622.0</ele>
        <time>2020-05-06T08:42:00Z</time>
      </trkpt>
      <trkpt lat="30.733932" lon="34.783886">
        <ele>622.4</ele>
        <time>2020-05-06T08:42:05Z</time>
      </trkpt>
      <trkpt lat="30.733785" lon="34.783866">
        <ele>622.8</ele>
        <time>2020-05-06T08:42:10Z</time>
      </trkpt>
      <trkpt lat="30.733565" lon="34.783860">
        <ele>623.2</ele>
        <time>2020-05-06T08:42:16Z</time>
      </trkpt>
      <trkpt lat="30.733532" lon="34.783846">
        <ele>623.0</ele>
        <time>2020-05-06T08:42:17Z</time>
      </trkpt>
      <trkpt lat="30.733397" lon="34.783782">
        <ele>623.4</ele>
        <time>2020-05-06T08:42:21Z</time>
      </trkpt>
      <trkpt lat="30.733362" lon="34.783757">
        <ele>623.6</ele>
        <time>2020-05-06T08:42:22Z</time>
      </trkpt>
      <trkpt lat="30.733297" lon="34.783680">
        <ele>623.6</ele>
        <time>2020-05-06T08:42:24Z</time>
      </trkpt>
      <trkpt lat="30.733270" lon="34.783641">
        <ele>623.6</ele>
        <time>2020-05-06T08:42:25Z</time>
      </trkpt>
      <trkpt lat="30.733164" lon="34.783517">
        <ele>624.0</ele>
        <time>2020-05-06T08:42:29Z</time>
      </trkpt>
      <trkpt lat="30.733086" lon="34.783449">
        <ele>624.4</ele>
        <time>2020-05-06T08:42:31Z</time>
      </trkpt>
      <trkpt lat="30.733001" lon="34.783376">
        <ele>624.8</ele>
        <time>2020-05-06T08:42:33Z</time>
      </trkpt>
      <trkpt lat="30.732922" lon="34.783287">
        <ele>625.4</ele>
        <time>2020-05-06T08:42:35Z</time>
      </trkpt>
      <trkpt lat="30.732797" lon="34.783158">
        <ele>626.0</ele>
        <time>2020-05-06T08:42:38Z</time>
      </trkpt>
      <trkpt lat="30.732698" lon="34.783086">
        <ele>626.2</ele>
        <time>2020-05-06T08:42:40Z</time>
      </trkpt>
      <trkpt lat="30.732644" lon="34.783049">
        <ele>626.0</ele>
        <time>2020-05-06T08:42:41Z</time>
      </trkpt>
      <trkpt lat="30.732484" lon="34.782934">
        <ele>626.4</ele>
        <time>2020-05-06T08:42:44Z</time>
      </trkpt>
      <trkpt lat="30.732359" lon="34.782896">
        <ele>626.6</ele>
        <time>2020-05-06T08:42:46Z</time>
      </trkpt>
      <trkpt lat="30.732171" lon="34.782807">
        <ele>627.4</ele>
        <time>2020-05-06T08:42:49Z</time>
      </trkpt>
      <trkpt lat="30.732113" lon="34.782775">
        <ele>627.8</ele>
        <time>2020-05-06T08:42:50Z</time>
      </trkpt>
      <trkpt lat="30.732008" lon="34.782708">
        <ele>628.6</ele>
        <time>2020-05-06T08:42:52Z</time>
      </trkpt>
      <trkpt lat="30.731929" lon="34.782618">
        <ele>628.8</ele>
        <time>2020-05-06T08:42:54Z</time>
      </trkpt>
      <trkpt lat="30.731840" lon="34.782537">
        <ele>629.0</ele>
        <time>2020-05-06T08:42:56Z</time>
      </trkpt>
      <trkpt lat="30.731704" lon="34.782453">
        <ele>629.8</ele>
        <time>2020-05-06T08:42:59Z</time>
      </trkpt>
      <trkpt lat="30.731587" lon="34.782372">
        <ele>630.0</ele>
        <time>2020-05-06T08:43:02Z</time>
      </trkpt>
      <trkpt lat="30.731527" lon="34.782303">
        <ele>630.2</ele>
        <time>2020-05-06T08:43:04Z</time>
      </trkpt>
      <trkpt lat="30.731308" lon="34.781959">
        <ele>630.8</ele>
        <time>2020-05-06T08:43:12Z</time>
      </trkpt>
      <trkpt lat="30.731254" lon="34.781879">
        <ele>630.8</ele>
        <time>2020-05-06T08:43:14Z</time>
      </trkpt>
      <trkpt lat="30.731152" lon="34.781660">
        <ele>630.2</ele>
        <time>2020-05-06T08:43:19Z</time>
      </trkpt>
      <trkpt lat="30.731104" lon="34.781463">
        <ele>630.2</ele>
        <time>2020-05-06T08:43:23Z</time>
      </trkpt>
      <trkpt lat="30.731097" lon="34.781415">
        <ele>630.2</ele>
        <time>2020-05-06T08:43:24Z</time>
      </trkpt>
      <trkpt lat="30.731093" lon="34.781362">
        <ele>630.2</ele>
        <time>2020-05-06T08:43:25Z</time>
      </trkpt>
      <trkpt lat="30.731100" lon="34.781060">
        <ele>630.8</ele>
        <time>2020-05-06T08:43:31Z</time>
      </trkpt>
      <trkpt lat="30.731085" lon="34.780921">
        <ele>631.2</ele>
        <time>2020-05-06T08:43:34Z</time>
      </trkpt>
      <trkpt lat="30.731082" lon="34.780745">
        <ele>631.8</ele>
        <time>2020-05-06T08:43:38Z</time>
      </trkpt>
      <trkpt lat="30.731087" lon="34.780660">
        <ele>632.0</ele>
        <time>2020-05-06T08:43:40Z</time>
      </trkpt>
      <trkpt lat="30.731053" lon="34.780490">
        <ele>632.0</ele>
        <time>2020-05-06T08:43:45Z</time>
      </trkpt>
      <trkpt lat="30.731048" lon="34.780459">
        <ele>632.2</ele>
        <time>2020-05-06T08:43:46Z</time>
      </trkpt>
      <trkpt lat="30.731020" lon="34.780325">
        <ele>633.0</ele>
        <time>2020-05-06T08:43:51Z</time>
      </trkpt>
      <trkpt lat="30.730970" lon="34.780219">
        <ele>633.4</ele>
        <time>2020-05-06T08:43:55Z</time>
      </trkpt>
      <trkpt lat="30.730926" lon="34.780175">
        <ele>633.6</ele>
        <time>2020-05-06T08:43:57Z</time>
      </trkpt>
      <trkpt lat="30.730807" lon="34.780062">
        <ele>634.0</ele>
        <time>2020-05-06T08:44:02Z</time>
      </trkpt>
      <trkpt lat="30.730627" lon="34.780032">
        <ele>634.2</ele>
        <time>2020-05-06T08:44:08Z</time>
      </trkpt>
      <trkpt lat="30.730588" lon="34.780032">
        <ele>634.4</ele>
        <time>2020-05-06T08:44:09Z</time>
      </trkpt>
      <trkpt lat="30.730420" lon="34.780036">
        <ele>635.4</ele>
        <time>2020-05-06T08:44:13Z</time>
      </trkpt>
      <trkpt lat="30.730326" lon="34.780051">
        <ele>635.6</ele>
        <time>2020-05-06T08:44:15Z</time>
      </trkpt>
      <trkpt lat="30.730149" lon="34.780104">
        <ele>635.4</ele>
        <time>2020-05-06T08:44:19Z</time>
      </trkpt>
      <trkpt lat="30.730114" lon="34.780123">
        <ele>635.6</ele>
        <time>2020-05-06T08:44:20Z</time>
      </trkpt>
      <trkpt lat="30.729889" lon="34.780251">
        <ele>636.0</ele>
        <time>2020-05-06T08:44:26Z</time>
      </trkpt>
      <trkpt lat="30.729665" lon="34.780341">
        <ele>636.4</ele>
        <time>2020-05-06T08:44:32Z</time>
      </trkpt>
      <trkpt lat="30.729624" lon="34.780352">
        <ele>636.6</ele>
        <time>2020-05-06T08:44:33Z</time>
      </trkpt>
      <trkpt lat="30.729438" lon="34.780410">
        <ele>637.2</ele>
        <time>2020-05-06T08:44:39Z</time>
      </trkpt>
      <trkpt lat="30.729305" lon="34.780428">
        <ele>636.8</ele>
        <time>2020-05-06T08:44:44Z</time>
      </trkpt>
      <trkpt lat="30.729285" lon="34.780437">
        <ele>637.0</ele>
        <time>2020-05-06T08:44:45Z</time>
      </trkpt>
      <trkpt lat="30.729165" lon="34.780431">
        <ele>637.2</ele>
        <time>2020-05-06T08:44:50Z</time>
      </trkpt>
      <trkpt lat="30.729091" lon="34.780410">
        <ele>637.6</ele>
        <time>2020-05-06T08:44:53Z</time>
      </trkpt>
      <trkpt lat="30.729020" lon="34.780411">
        <ele>638.2</ele>
        <time>2020-05-06T08:44:55Z</time>
      </trkpt>
      <trkpt lat="30.728905" lon="34.780427">
        <ele>638.8</ele>
        <time>2020-05-06T08:44:58Z</time>
      </trkpt>
      <trkpt lat="30.728861" lon="34.780416">
        <ele>638.6</ele>
        <time>2020-05-06T08:44:59Z</time>
      </trkpt>
      <trkpt lat="30.728760" lon="34.780386">
        <ele>639.2</ele>
        <time>2020-05-06T08:45:01Z</time>
      </trkpt>
      <trkpt lat="30.728712" lon="34.780371">
        <ele>639.2</ele>
        <time>2020-05-06T08:45:02Z</time>
      </trkpt>
      <trkpt lat="30.728610" lon="34.780338">
        <ele>639.8</ele>
        <time>2020-05-06T08:45:04Z</time>
      </trkpt>
      <trkpt lat="30.728499" lon="34.780323">
        <ele>640.0</ele>
        <time>2020-05-06T08:45:06Z</time>
      </trkpt>
      <trkpt lat="30.728210" lon="34.780328">
        <ele>640.6</ele>
        <time>2020-05-06T08:45:12Z</time>
      </trkpt>
      <trkpt lat="30.728161" lon="34.780324">
        <ele>640.8</ele>
        <time>2020-05-06T08:45:13Z</time>
      </trkpt>
      <trkpt lat="30.727872" lon="34.780330">
        <ele>641.4</ele>
        <time>2020-05-06T08:45:19Z</time>
      </trkpt>
      <trkpt lat="30.727682" lon="34.780346">
        <ele>642.0</ele>
        <time>2020-05-06T08:45:23Z</time>
      </trkpt>
      <trkpt lat="30.727565" lon="34.780381">
        <ele>642.6</ele>
        <time>2020-05-06T08:45:26Z</time>
      </trkpt>
      <trkpt lat="30.727269" lon="34.780493">
        <ele>643.4</ele>
        <time>2020-05-06T08:45:34Z</time>
      </trkpt>
      <trkpt lat="30.727057" lon="34.780625">
        <ele>643.2</ele>
        <time>2020-05-06T08:45:41Z</time>
      </trkpt>
      <trkpt lat="30.727026" lon="34.780644">
        <ele>643.2</ele>
        <time>2020-05-06T08:45:42Z</time>
      </trkpt>
      <trkpt lat="30.726867" lon="34.780714">
        <ele>643.6</ele>
        <time>2020-05-06T08:45:47Z</time>
      </trkpt>
      <trkpt lat="30.726829" lon="34.780726">
        <ele>643.8</ele>
        <time>2020-05-06T08:45:48Z</time>
      </trkpt>
      <trkpt lat="30.726792" lon="34.780744">
        <ele>644.2</ele>
        <time>2020-05-06T08:45:49Z</time>
      </trkpt>
      <trkpt lat="30.726757" lon="34.780766">
        <ele>644.8</ele>
        <time>2020-05-06T08:45:50Z</time>
      </trkpt>
      <trkpt lat="30.726680" lon="34.780807">
        <ele>645.2</ele>
        <time>2020-05-06T08:45:52Z</time>
      </trkpt>
      <trkpt lat="30.726645" lon="34.780831">
        <ele>645.8</ele>
        <time>2020-05-06T08:45:53Z</time>
      </trkpt>
      <trkpt lat="30.726501" lon="34.780888">
        <ele>646.6</ele>
        <time>2020-05-06T08:45:57Z</time>
      </trkpt>
      <trkpt lat="30.726339" lon="34.780928">
        <ele>647.0</ele>
        <time>2020-05-06T08:46:01Z</time>
      </trkpt>
      <trkpt lat="30.726294" lon="34.780935">
        <ele>646.8</ele>
        <time>2020-05-06T08:46:02Z</time>
      </trkpt>
      <trkpt lat="30.726187" lon="34.780946">
        <ele>646.8</ele>
        <time>2020-05-06T08:46:04Z</time>
      </trkpt>
      <trkpt lat="30.725996" lon="34.780996">
        <ele>646.4</ele>
        <time>2020-05-06T08:46:08Z</time>
      </trkpt>
      <trkpt lat="30.725899" lon="34.781006">
        <ele>646.8</ele>
        <time>2020-05-06T08:46:10Z</time>
      </trkpt>
      <trkpt lat="30.725799" lon="34.781007">
        <ele>647.4</ele>
        <time>2020-05-06T08:46:12Z</time>
      </trkpt>
      <trkpt lat="30.725701" lon="34.780999">
        <ele>648.0</ele>
        <time>2020-05-06T08:46:14Z</time>
      </trkpt>
      <trkpt lat="30.725470" lon="34.780933">
        <ele>647.6</ele>
        <time>2020-05-06T08:46:19Z</time>
      </trkpt>
      <trkpt lat="30.725411" lon="34.780912">
        <ele>647.6</ele>
        <time>2020-05-06T08:46:21Z</time>
      </trkpt>
      <trkpt lat="30.725362" lon="34.780924">
        <ele>647.6</ele>
        <time>2020-05-06T08:46:23Z</time>
      </trkpt>
      <trkpt lat="30.725281" lon="34.780976">
        <ele>647.6</ele>
        <time>2020-05-06T08:46:27Z</time>
      </trkpt>
      <trkpt lat="30.725204" lon="34.780986">
        <ele>648.0</ele>
        <time>2020-05-06T08:46:30Z</time>
      </trkpt>
      <trkpt lat="30.725135" lon="34.781009">
        <ele>648.4</ele>
        <time>2020-05-06T08:46:33Z</time>
      </trkpt>
      <trkpt lat="30.725052" lon="34.781035">
        <ele>649.0</ele>
        <time>2020-05-06T08:46:37Z</time>
      </trkpt>
      <trkpt lat="30.724933" lon="34.781036">
        <ele>650.0</ele>
        <time>2020-05-06T08:46:40Z</time>
      </trkpt>
      <trkpt lat="30.724830" lon="34.781028">
        <ele>651.0</ele>
        <time>2020-05-06T08:46:42Z</time>
      </trkpt>
      <trkpt lat="30.724770" lon="34.781026">
        <ele>651.2</ele>
        <time>2020-05-06T08:46:43Z</time>
      </trkpt>
      <trkpt lat="30.724666" lon="34.781019">
        <ele>652.0</ele>
        <time>2020-05-06T08:46:45Z</time>
      </trkpt>
      <trkpt lat="30.724558" lon="34.781025">
        <ele>652.6</ele>
        <time>2020-05-06T08:46:47Z</time>
      </trkpt>
      <trkpt lat="30.724506" lon="34.781027">
        <ele>652.8</ele>
        <time>2020-05-06T08:46:48Z</time>
      </trkpt>
      <trkpt lat="30.724455" lon="34.781023">
        <ele>653.0</ele>
        <time>2020-05-06T08:46:49Z</time>
      </trkpt>
      <trkpt lat="30.724353" lon="34.781028">
        <ele>653.2</ele>
        <time>2020-05-06T08:46:51Z</time>
      </trkpt>
      <trkpt lat="30.724265" lon="34.781032">
        <ele>653.6</ele>
        <time>2020-05-06T08:46:53Z</time>
      </trkpt>
      <trkpt lat="30.724010" lon="34.781059">
        <ele>653.4</ele>
        <time>2020-05-06T08:46:59Z</time>
      </trkpt>
      <trkpt lat="30.723839" lon="34.781096">
        <ele>653.6</ele>
        <time>2020-05-06T08:47:04Z</time>
      </trkpt>
      <trkpt lat="30.723635" lon="34.781091">
        <ele>655.0</ele>
        <time>2020-05-06T08:47:10Z</time>
      </trkpt>
      <trkpt lat="30.723475" lon="34.781177">
        <ele>654.8</ele>
        <time>2020-05-06T08:47:16Z</time>
      </trkpt>
      <trkpt lat="30.723323" lon="34.781316">
        <ele>654.4</ele>
        <time>2020-05-06T08:47:22Z</time>
      </trkpt>
      <trkpt lat="30.723288" lon="34.781370">
        <ele>654.6</ele>
        <time>2020-05-06T08:47:24Z</time>
      </trkpt>
      <trkpt lat="30.723259" lon="34.781509">
        <ele>655.2</ele>
        <time>2020-05-06T08:47:29Z</time>
      </trkpt>
      <trkpt lat="30.723199" lon="34.781634">
        <ele>654.8</ele>
        <time>2020-05-06T08:47:34Z</time>
      </trkpt>
      <trkpt lat="30.723119" lon="34.781650">
        <ele>655.0</ele>
        <time>2020-05-06T08:47:37Z</time>
      </trkpt>
      <trkpt lat="30.723071" lon="34.781653">
        <ele>655.4</ele>
        <time>2020-05-06T08:47:39Z</time>
      </trkpt>
      <trkpt lat="30.722903" lon="34.781674">
        <ele>655.6</ele>
        <time>2020-05-06T08:47:45Z</time>
      </trkpt>
      <trkpt lat="30.722767" lon="34.781747">
        <ele>655.6</ele>
        <time>2020-05-06T08:47:50Z</time>
      </trkpt>
      <trkpt lat="30.722658" lon="34.781742">
        <ele>655.4</ele>
        <time>2020-05-06T08:47:54Z</time>
      </trkpt>
      <trkpt lat="30.722623" lon="34.781735">
        <ele>655.4</ele>
        <time>2020-05-06T08:47:55Z</time>
      </trkpt>
      <trkpt lat="30.722556" lon="34.781730">
        <ele>655.6</ele>
        <time>2020-05-06T08:47:57Z</time>
      </trkpt>
      <trkpt lat="30.722519" lon="34.781730">
        <ele>655.8</ele>
        <time>2020-05-06T08:47:58Z</time>
      </trkpt>
      <trkpt lat="30.722447" lon="34.781728">
        <ele>656.2</ele>
        <time>2020-05-06T08:48:00Z</time>
      </trkpt>
      <trkpt lat="30.722357" lon="34.781780">
        <ele>656.8</ele>
        <time>2020-05-06T08:48:03Z</time>
      </trkpt>
      <trkpt lat="30.722174" lon="34.781928">
        <ele>657.6</ele>
        <time>2020-05-06T08:48:08Z</time>
      </trkpt>
      <trkpt lat="30.721983" lon="34.782057">
        <ele>658.0</ele>
        <time>2020-05-06T08:48:13Z</time>
      </trkpt>
      <trkpt lat="30.721911" lon="34.782119">
        <ele>658.2</ele>
        <time>2020-05-06T08:48:15Z</time>
      </trkpt>
      <trkpt lat="30.721690" lon="34.782232">
        <ele>658.8</ele>
        <time>2020-05-06T08:48:21Z</time>
      </trkpt>
      <trkpt lat="30.721551" lon="34.782243">
        <ele>659.2</ele>
        <time>2020-05-06T08:48:25Z</time>
      </trkpt>
      <trkpt lat="30.721510" lon="34.782248">
        <ele>659.4</ele>
        <time>2020-05-06T08:48:26Z</time>
      </trkpt>
      <trkpt lat="30.721430" lon="34.782330">
        <ele>659.8</ele>
        <time>2020-05-06T08:48:29Z</time>
      </trkpt>
      <trkpt lat="30.721405" lon="34.782373">
        <ele>660.2</ele>
        <time>2020-05-06T08:48:30Z</time>
      </trkpt>
      <trkpt lat="30.721378" lon="34.782405">
        <ele>660.6</ele>
        <time>2020-05-06T08:48:31Z</time>
      </trkpt>
      <trkpt lat="30.721256" lon="34.782440">
        <ele>661.2</ele>
        <time>2020-05-06T08:48:34Z</time>
      </trkpt>
      <trkpt lat="30.721211" lon="34.782449">
        <ele>661.6</ele>
        <time>2020-05-06T08:48:35Z</time>
      </trkpt>
      <trkpt lat="30.721048" lon="34.782498">
        <ele>662.4</ele>
        <time>2020-05-06T08:48:40Z</time>
      </trkpt>
      <trkpt lat="30.720982" lon="34.782514">
        <ele>662.6</ele>
        <time>2020-05-06T08:48:42Z</time>
      </trkpt>
      <trkpt lat="30.720895" lon="34.782559">
        <ele>663.2</ele>
        <time>2020-05-06T08:48:45Z</time>
      </trkpt>
      <trkpt lat="30.720772" lon="34.782652">
        <ele>663.6</ele>
        <time>2020-05-06T08:48:51Z</time>
      </trkpt>
      <trkpt lat="30.720754" lon="34.782657">
        <ele>663.8</ele>
        <time>2020-05-06T08:48:52Z</time>
      </trkpt>
      <trkpt lat="30.720737" lon="34.782653">
        <ele>664.2</ele>
        <time>2020-05-06T08:48:53Z</time>
      </trkpt>
      <trkpt lat="30.720705" lon="34.782617">
        <ele>664.6</ele>
        <time>2020-05-06T08:48:55Z</time>
      </trkpt>
      <trkpt lat="30.720690" lon="34.782594">
        <ele>664.6</ele>
        <time>2020-05-06T08:48:56Z</time>
      </trkpt>
      <trkpt lat="30.720638" lon="34.782575">
        <ele>665.0</ele>
        <time>2020-05-06T08:48:58Z</time>
      </trkpt>
      <trkpt lat="30.720605" lon="34.782574">
        <ele>665.4</ele>
        <time>2020-05-06T08:48:59Z</time>
      </trkpt>
      <trkpt lat="30.720446" lon="34.782590">
        <ele>666.2</ele>
        <time>2020-05-06T08:49:04Z</time>
      </trkpt>
      <trkpt lat="30.720372" lon="34.782574">
        <ele>666.0</ele>
        <time>2020-05-06T08:49:07Z</time>
      </trkpt>
      <trkpt lat="30.720324" lon="34.782547">
        <ele>666.0</ele>
        <time>2020-05-06T08:49:09Z</time>
      </trkpt>
      <trkpt lat="30.720303" lon="34.782526">
        <ele>666.0</ele>
        <time>2020-05-06T08:49:10Z</time>
      </trkpt>
      <trkpt lat="30.720223" lon="34.782459">
        <ele>666.2</ele>
        <time>2020-05-06T08:49:13Z</time>
      </trkpt>
      <trkpt lat="30.720192" lon="34.782433">
        <ele>666.2</ele>
        <time>2020-05-06T08:49:14Z</time>
      </trkpt>
      <trkpt lat="30.720048" lon="34.782365">
        <ele>666.2</ele>
        <time>2020-05-06T08:49:19Z</time>
      </trkpt>
      <trkpt lat="30.719989" lon="34.782342">
        <ele>666.0</ele>
        <time>2020-05-06T08:49:21Z</time>
      </trkpt>
      <trkpt lat="30.719835" lon="34.782279">
        <ele>665.0</ele>
        <time>2020-05-06T08:49:27Z</time>
      </trkpt>
      <trkpt lat="30.719818" lon="34.782269">
        <ele>664.8</ele>
        <time>2020-05-06T08:49:28Z</time>
      </trkpt>
      <trkpt lat="30.719807" lon="34.782226">
        <ele>665.0</ele>
        <time>2020-05-06T08:49:30Z</time>
      </trkpt>
      <trkpt lat="30.719804" lon="34.782178">
        <ele>665.8</ele>
        <time>2020-05-06T08:49:32Z</time>
      </trkpt>
      <trkpt lat="30.719796" lon="34.782156">
        <ele>666.2</ele>
        <time>2020-05-06T08:49:33Z</time>
      </trkpt>
      <trkpt lat="30.719710" lon="34.782153">
        <ele>666.6</ele>
        <time>2020-05-06T08:49:36Z</time>
      </trkpt>
      <trkpt lat="30.719564" lon="34.782133">
        <ele>667.2</ele>
        <time>2020-05-06T08:49:40Z</time>
      </trkpt>
      <trkpt lat="30.719462" lon="34.782097">
        <ele>667.6</ele>
        <time>2020-05-06T08:49:43Z</time>
      </trkpt>
      <trkpt lat="30.719244" lon="34.782060">
        <ele>668.0</ele>
        <time>2020-05-06T08:49:49Z</time>
      </trkpt>
      <trkpt lat="30.719207" lon="34.782055">
        <ele>668.4</ele>
        <time>2020-05-06T08:49:50Z</time>
      </trkpt>
      <trkpt lat="30.719137" lon="34.782007">
        <ele>669.4</ele>
        <time>2020-05-06T08:49:52Z</time>
      </trkpt>
      <trkpt lat="30.719074" lon="34.781934">
        <ele>670.0</ele>
        <time>2020-05-06T08:49:54Z</time>
      </trkpt>
      <trkpt lat="30.718975" lon="34.781820">
        <ele>670.2</ele>
        <time>2020-05-06T08:49:58Z</time>
      </trkpt>
      <trkpt lat="30.718944" lon="34.781735">
        <ele>670.6</ele>
        <time>2020-05-06T08:50:00Z</time>
      </trkpt>
      <trkpt lat="30.718920" lon="34.781680">
        <ele>670.8</ele>
        <time>2020-05-06T08:50:01Z</time>
      </trkpt>
      <trkpt lat="30.718891" lon="34.781625">
        <ele>671.0</ele>
        <time>2020-05-06T08:50:02Z</time>
      </trkpt>
      <trkpt lat="30.718834" lon="34.781523">
        <ele>671.4</ele>
        <time>2020-05-06T08:50:04Z</time>
      </trkpt>
      <trkpt lat="30.718770" lon="34.781430">
        <ele>671.8</ele>
        <time>2020-05-06T08:50:06Z</time>
      </trkpt>
      <trkpt lat="30.718682" lon="34.781365">
        <ele>672.2</ele>
        <time>2020-05-06T08:50:08Z</time>
      </trkpt>
      <trkpt lat="30.718592" lon="34.781279">
        <ele>672.8</ele>
        <time>2020-05-06T08:50:10Z</time>
      </trkpt>
      <trkpt lat="30.718552" lon="34.781222">
        <ele>673.2</ele>
        <time>2020-05-06T08:50:11Z</time>
      </trkpt>
      <trkpt lat="30.718478" lon="34.781090">
        <ele>674.8</ele>
        <time>2020-05-06T08:50:13Z</time>
      </trkpt>
      <trkpt lat="30.718400" lon="34.780969">
        <ele>675.8</ele>
        <time>2020-05-06T08:50:15Z</time>
      </trkpt>
      <trkpt lat="30.718323" lon="34.780872">
        <ele>677.2</ele>
        <time>2020-05-06T08:50:17Z</time>
      </trkpt>
      <trkpt lat="30.718245" lon="34.780780">
        <ele>678.2</ele>
        <time>2020-05-06T08:50:19Z</time>
      </trkpt>
      <trkpt lat="30.718208" lon="34.780733">
        <ele>678.6</ele>
        <time>2020-05-06T08:50:20Z</time>
      </trkpt>
      <trkpt lat="30.718175" lon="34.780684">
        <ele>679.2</ele>
        <time>2020-05-06T08:50:21Z</time>
      </trkpt>
      <trkpt lat="30.718146" lon="34.780640">
        <ele>679.6</ele>
        <time>2020-05-06T08:50:22Z</time>
      </trkpt>
      <trkpt lat="30.718093" lon="34.780567">
        <ele>680.8</ele>
        <time>2020-05-06T08:50:24Z</time>
      </trkpt>
      <trkpt lat="30.718064" lon="34.780532">
        <ele>681.0</ele>
        <time>2020-05-06T08:50:25Z</time>
      </trkpt>
      <trkpt lat="30.717963" lon="34.780428">
        <ele>682.0</ele>
        <time>2020-05-06T08:50:28Z</time>
      </trkpt>
      <trkpt lat="30.717919" lon="34.780406">
        <ele>682.4</ele>
        <time>2020-05-06T08:50:29Z</time>
      </trkpt>
      <trkpt lat="30.717774" lon="34.780373">
        <ele>683.4</ele>
        <time>2020-05-06T08:50:32Z</time>
      </trkpt>
      <trkpt lat="30.717631" lon="34.780388">
        <ele>684.6</ele>
        <time>2020-05-06T08:50:35Z</time>
      </trkpt>
      <trkpt lat="30.717515" lon="34.780419">
        <ele>685.8</ele>
        <time>2020-05-06T08:50:38Z</time>
      </trkpt>
      <trkpt lat="30.717489" lon="34.780427">
        <ele>686.2</ele>
        <time>2020-05-06T08:50:39Z</time>
      </trkpt>
      <trkpt lat="30.717469" lon="34.780427">
        <ele>686.6</ele>
        <time>2020-05-06T08:50:40Z</time>
      </trkpt>
      <trkpt lat="30.717446" lon="34.780390">
        <ele>686.8</ele>
        <time>2020-05-06T08:50:42Z</time>
      </trkpt>
      <trkpt lat="30.717528" lon="34.780190">
        <ele>687.2</ele>
        <time>2020-05-06T08:50:48Z</time>
      </trkpt>
      <trkpt lat="30.717607" lon="34.779994">
        <ele>687.6</ele>
        <time>2020-05-06T08:50:53Z</time>
      </trkpt>
      <trkpt lat="30.717622" lon="34.779910">
        <ele>687.8</ele>
        <time>2020-05-06T08:50:55Z</time>
      </trkpt>
      <trkpt lat="30.717626" lon="34.779702">
        <ele>689.0</ele>
        <time>2020-05-06T08:51:00Z</time>
      </trkpt>
      <trkpt lat="30.717629" lon="34.779670">
        <ele>689.0</ele>
        <time>2020-05-06T08:51:01Z</time>
      </trkpt>
      <trkpt lat="30.717615" lon="34.779623">
        <ele>688.8</ele>
        <time>2020-05-06T08:51:03Z</time>
      </trkpt>
      <trkpt lat="30.717574" lon="34.779652">
        <ele>689.0</ele>
        <time>2020-05-06T08:51:05Z</time>
      </trkpt>
      <trkpt lat="30.717577" lon="34.779688">
        <ele>689.0</ele>
        <time>2020-05-06T08:51:06Z</time>
      </trkpt>
      <trkpt lat="30.717580" lon="34.779729">
        <ele>689.4</ele>
        <time>2020-05-06T08:51:07Z</time>
      </trkpt>
      <trkpt lat="30.717563" lon="34.779836">
        <ele>690.2</ele>
        <time>2020-05-06T08:51:09Z</time>
      </trkpt>
      <trkpt lat="30.717518" lon="34.779946">
        <ele>691.4</ele>
        <time>2020-05-06T08:51:11Z</time>
      </trkpt>
      <trkpt lat="30.717456" lon="34.780041">
        <ele>692.2</ele>
        <time>2020-05-06T08:51:13Z</time>
      </trkpt>
      <trkpt lat="30.717392" lon="34.780125">
        <ele>692.8</ele>
        <time>2020-05-06T08:51:15Z</time>
      </trkpt>
      <trkpt lat="30.717336" lon="34.780200">
        <ele>694.0</ele>
        <time>2020-05-06T08:51:17Z</time>
      </trkpt>
      <trkpt lat="30.717312" lon="34.780237">
        <ele>695.2</ele>
        <time>2020-05-06T08:51:18Z</time>
      </trkpt>
      <trkpt lat="30.717228" lon="34.780332">
        <ele>697.4</ele>
        <time>2020-05-06T08:51:21Z</time>
      </trkpt>
      <trkpt lat="30.717169" lon="34.780389">
        <ele>698.0</ele>
        <time>2020-05-06T08:51:23Z</time>
      </trkpt>
      <trkpt lat="30.717096" lon="34.780438">
        <ele>698.0</ele>
        <time>2020-05-06T08:51:25Z</time>
      </trkpt>
      <trkpt lat="30.717060" lon="34.780465">
        <ele>698.0</ele>
        <time>2020-05-06T08:51:26Z</time>
      </trkpt>
      <trkpt lat="30.716973" lon="34.780538">
        <ele>698.8</ele>
        <time>2020-05-06T08:51:29Z</time>
      </trkpt>
      <trkpt lat="30.716869" lon="34.780608">
        <ele>700.0</ele>
        <time>2020-05-06T08:51:33Z</time>
      </trkpt>
      <trkpt lat="30.716835" lon="34.780618">
        <ele>700.4</ele>
        <time>2020-05-06T08:51:34Z</time>
      </trkpt>
      <trkpt lat="30.716797" lon="34.780627">
        <ele>701.2</ele>
        <time>2020-05-06T08:51:35Z</time>
      </trkpt>
      <trkpt lat="30.716700" lon="34.780663">
        <ele>701.8</ele>
        <time>2020-05-06T08:51:38Z</time>
      </trkpt>
      <trkpt lat="30.716652" lon="34.780701">
        <ele>702.0</ele>
        <time>2020-05-06T08:51:40Z</time>
      </trkpt>
      <trkpt lat="30.716636" lon="34.780720">
        <ele>702.2</ele>
        <time>2020-05-06T08:51:41Z</time>
      </trkpt>
      <trkpt lat="30.716628" lon="34.780742">
        <ele>702.4</ele>
        <time>2020-05-06T08:51:42Z</time>
      </trkpt>
      <trkpt lat="30.716655" lon="34.780795">
        <ele>703.6</ele>
        <time>2020-05-06T08:51:44Z</time>
      </trkpt>
      <trkpt lat="30.716680" lon="34.780826">
        <ele>704.2</ele>
        <time>2020-05-06T08:51:45Z</time>
      </trkpt>
      <trkpt lat="30.716711" lon="34.780861">
        <ele>704.6</ele>
        <time>2020-05-06T08:51:46Z</time>
      </trkpt>
      <trkpt lat="30.716783" lon="34.780918">
        <ele>705.0</ele>
        <time>2020-05-06T08:51:48Z</time>
      </trkpt>
      <trkpt lat="30.716901" lon="34.780990">
        <ele>705.6</ele>
        <time>2020-05-06T08:51:51Z</time>
      </trkpt>
      <trkpt lat="30.716979" lon="34.781028">
        <ele>706.0</ele>
        <time>2020-05-06T08:51:53Z</time>
      </trkpt>
      <trkpt lat="30.717091" lon="34.781060">
        <ele>706.6</ele>
        <time>2020-05-06T08:51:56Z</time>
      </trkpt>
      <trkpt lat="30.717160" lon="34.781072">
        <ele>707.2</ele>
        <time>2020-05-06T08:51:58Z</time>
      </trkpt>
      <trkpt lat="30.717276" lon="34.781076">
        <ele>708.8</ele>
        <time>2020-05-06T08:52:02Z</time>
      </trkpt>
      <trkpt lat="30.717304" lon="34.781071">
        <ele>708.8</ele>
        <time>2020-05-06T08:52:03Z</time>
      </trkpt>
      <trkpt lat="30.717386" lon="34.781122">
        <ele>709.0</ele>
        <time>2020-05-06T08:52:07Z</time>
      </trkpt>
      <trkpt lat="30.717471" lon="34.781271">
        <ele>708.8</ele>
        <time>2020-05-06T08:52:13Z</time>
      </trkpt>
      <trkpt lat="30.717556" lon="34.781456">
        <ele>709.2</ele>
        <time>2020-05-06T08:52:20Z</time>
      </trkpt>
      <trkpt lat="30.717590" lon="34.781525">
        <ele>708.8</ele>
        <time>2020-05-06T08:52:23Z</time>
      </trkpt>
      <trkpt lat="30.717645" lon="34.781575">
        <ele>708.2</ele>
        <time>2020-05-06T08:52:26Z</time>
      </trkpt>
      <trkpt lat="30.717662" lon="34.781589">
        <ele>708.2</ele>
        <time>2020-05-06T08:52:27Z</time>
      </trkpt>
      <trkpt lat="30.717717" lon="34.781621">
        <ele>707.8</ele>
        <time>2020-05-06T08:52:30Z</time>
      </trkpt>
      <trkpt lat="30.717779" lon="34.781668">
        <ele>708.0</ele>
        <time>2020-05-06T08:52:33Z</time>
      </trkpt>
      <trkpt lat="30.717897" lon="34.781764">
        <ele>707.6</ele>
        <time>2020-05-06T08:52:39Z</time>
      </trkpt>
      <trkpt lat="30.717919" lon="34.781776">
        <ele>707.6</ele>
        <time>2020-05-06T08:52:40Z</time>
      </trkpt>
      <trkpt lat="30.717967" lon="34.781806">
        <ele>706.4</ele>
        <time>2020-05-06T08:52:43Z</time>
      </trkpt>
      <trkpt lat="30.717981" lon="34.781825">
        <ele>705.4</ele>
        <time>2020-05-06T08:52:44Z</time>
      </trkpt>
      <trkpt lat="30.717999" lon="34.781893">
        <ele>703.8</ele>
        <time>2020-05-06T08:52:47Z</time>
      </trkpt>
      <trkpt lat="30.717998" lon="34.781906">
        <ele>703.8</ele>
        <time>2020-05-06T08:52:48Z</time>
      </trkpt>
      <trkpt lat="30.717996" lon="34.781919">
        <ele>704.2</ele>
        <time>2020-05-06T08:52:51Z</time>
      </trkpt>
      <trkpt lat="30.717992" lon="34.781927">
        <ele>705.2</ele>
        <time>2020-05-06T08:52:54Z</time>
      </trkpt>
      <trkpt lat="30.717995" lon="34.781931">
        <ele>705.2</ele>
        <time>2020-05-06T08:53:01Z</time>
      </trkpt>
      <trkpt lat="30.718014" lon="34.781926">
        <ele>704.0</ele>
        <time>2020-05-06T08:53:06Z</time>
      </trkpt>
      <trkpt lat="30.718019" lon="34.781936">
        <ele>704.2</ele>
        <time>2020-05-06T08:53:07Z</time>
      </trkpt>
      <trkpt lat="30.717998" lon="34.781957">
        <ele>704.0</ele>
        <time>2020-05-06T08:53:09Z</time>
      </trkpt>
      <trkpt lat="30.717978" lon="34.781969">
        <ele>704.4</ele>
        <time>2020-05-06T08:53:10Z</time>
      </trkpt>
      <trkpt lat="30.717907" lon="34.781986">
        <ele>705.2</ele>
        <time>2020-05-06T08:53:12Z</time>
      </trkpt>
      <trkpt lat="30.717764" lon="34.782020">
        <ele>706.2</ele>
        <time>2020-05-06T08:53:15Z</time>
      </trkpt>
      <trkpt lat="30.717617" lon="34.782017">
        <ele>707.0</ele>
        <time>2020-05-06T08:53:18Z</time>
      </trkpt>
      <trkpt lat="30.717499" lon="34.781984">
        <ele>707.0</ele>
        <time>2020-05-06T08:53:21Z</time>
      </trkpt>
      <trkpt lat="30.717289" lon="34.782039">
        <ele>707.4</ele>
        <time>2020-05-06T08:53:28Z</time>
      </trkpt>
      <trkpt lat="30.717084" lon="34.782123">
        <ele>707.6</ele>
        <time>2020-05-06T08:53:34Z</time>
      </trkpt>
      <trkpt lat="30.716875" lon="34.782083">
        <ele>708.4</ele>
        <time>2020-05-06T08:53:40Z</time>
      </trkpt>
      <trkpt lat="30.716841" lon="34.782072">
        <ele>708.6</ele>
        <time>2020-05-06T08:53:41Z</time>
      </trkpt>
      <trkpt lat="30.716707" lon="34.782028">
        <ele>708.6</ele>
        <time>2020-05-06T08:53:46Z</time>
      </trkpt>
      <trkpt lat="30.716690" lon="34.782024">
        <ele>708.6</ele>
        <time>2020-05-06T08:53:47Z</time>
      </trkpt>
      <trkpt lat="30.716669" lon="34.782023">
        <ele>709.0</ele>
        <time>2020-05-06T08:53:54Z</time>
      </trkpt>
      <trkpt lat="30.716666" lon="34.782020">
        <ele>709.0</ele>
        <time>2020-05-06T08:53:55Z</time>
      </trkpt>
      <trkpt lat="30.716665" lon="34.782016">
        <ele>709.0</ele>
        <time>2020-05-06T08:53:57Z</time>
      </trkpt>
      <trkpt lat="30.716668" lon="34.782009">
        <ele>709.0</ele>
        <time>2020-05-06T08:54:03Z</time>
      </trkpt>
      <trkpt lat="30.716671" lon="34.782019">
        <ele>709.2</ele>
        <time>2020-05-06T08:54:11Z</time>
      </trkpt>
      <trkpt lat="30.716684" lon="34.782016">
        <ele>708.8</ele>
        <time>2020-05-06T08:54:20Z</time>
      </trkpt>
      <trkpt lat="30.716655" lon="34.782010">
        <ele>709.0</ele>
        <time>2020-05-06T08:54:24Z</time>
      </trkpt>
      <trkpt lat="30.716577" lon="34.782084">
        <ele>708.8</ele>
        <time>2020-05-06T08:54:29Z</time>
      </trkpt>
      <trkpt lat="30.716567" lon="34.782107">
        <ele>708.8</ele>
        <time>2020-05-06T08:54:30Z</time>
      </trkpt>
      <trkpt lat="30.716526" lon="34.782289">
        <ele>708.2</ele>
        <time>2020-05-06T08:54:37Z</time>
      </trkpt>
      <trkpt lat="30.716516" lon="34.782402">
        <ele>708.0</ele>
        <time>2020-05-06T08:54:42Z</time>
      </trkpt>
      <trkpt lat="30.716499" lon="34.782434">
        <ele>707.8</ele>
        <time>2020-05-06T08:54:45Z</time>
      </trkpt>
      <trkpt lat="30.716460" lon="34.782420">
        <ele>707.8</ele>
        <time>2020-05-06T08:54:48Z</time>
      </trkpt>
      <trkpt lat="30.716409" lon="34.782414">
        <ele>708.6</ele>
        <time>2020-05-06T08:54:51Z</time>
      </trkpt>
      <trkpt lat="30.716370" lon="34.782430">
        <ele>709.0</ele>
        <time>2020-05-06T08:54:53Z</time>
      </trkpt>
      <trkpt lat="30.716363" lon="34.782436">
        <ele>722.2</ele>
        <time>2020-09-15T04:16:33Z</time>
      </trkpt>
      <trkpt lat="30.716360" lon="34.782436">
        <ele>722.2</ele>
        <time>2020-09-15T04:16:34Z</time>
      </trkpt>
      <trkpt lat="30.716390" lon="34.782460">
        <ele>722.2</ele>
        <time>2020-09-15T04:16:40Z</time>
      </trkpt>
      <trkpt lat="30.716406" lon="34.782477">
        <ele>722.2</ele>
        <time>2020-09-15T04:16:41Z</time>
      </trkpt>
      <trkpt lat="30.716417" lon="34.782679">
        <ele>722.0</ele>
        <time>2020-09-15T04:16:47Z</time>
      </trkpt>
      <trkpt lat="30.716396" lon="34.782788">
        <ele>720.8</ele>
        <time>2020-09-15T04:16:50Z</time>
      </trkpt>
      <trkpt lat="30.716383" lon="34.782851">
        <ele>721.6</ele>
        <time>2020-09-15T04:16:52Z</time>
      </trkpt>
      <trkpt lat="30.716375" lon="34.782881">
        <ele>721.6</ele>
        <time>2020-09-15T04:16:53Z</time>
      </trkpt>
      <trkpt lat="30.716325" lon="34.782994">
        <ele>722.0</ele>
        <time>2020-09-15T04:16:57Z</time>
      </trkpt>
      <trkpt lat="30.716266" lon="34.783081">
        <ele>722.6</ele>
        <time>2020-09-15T04:17:00Z</time>
      </trkpt>
      <trkpt lat="30.716099" lon="34.783330">
        <ele>721.6</ele>
        <time>2020-09-15T04:17:07Z</time>
      </trkpt>
      <trkpt lat="30.716055" lon="34.783420">
        <ele>721.4</ele>
        <time>2020-09-15T04:17:09Z</time>
      </trkpt>
      <trkpt lat="30.716013" lon="34.783516">
        <ele>721.0</ele>
        <time>2020-09-15T04:17:11Z</time>
      </trkpt>
      <trkpt lat="30.715960" lon="34.783605">
        <ele>721.0</ele>
        <time>2020-09-15T04:17:13Z</time>
      </trkpt>
      <trkpt lat="30.715776" lon="34.783816">
        <ele>720.0</ele>
        <time>2020-09-15T04:17:19Z</time>
      </trkpt>
      <trkpt lat="30.715747" lon="34.783849">
        <ele>719.8</ele>
        <time>2020-09-15T04:17:20Z</time>
      </trkpt>
      <trkpt lat="30.715650" lon="34.783953">
        <ele>719.4</ele>
        <time>2020-09-15T04:17:23Z</time>
      </trkpt>
      <trkpt lat="30.715572" lon="34.784014">
        <ele>718.8</ele>
        <time>2020-09-15T04:17:25Z</time>
      </trkpt>
      <trkpt lat="30.715526" lon="34.784040">
        <ele>718.6</ele>
        <time>2020-09-15T04:17:26Z</time>
      </trkpt>
      <trkpt lat="30.715421" lon="34.784067">
        <ele>718.2</ele>
        <time>2020-09-15T04:17:28Z</time>
      </trkpt>
      <trkpt lat="30.715365" lon="34.784066">
        <ele>718.0</ele>
        <time>2020-09-15T04:17:29Z</time>
      </trkpt>
      <trkpt lat="30.715257" lon="34.784055">
        <ele>717.4</ele>
        <time>2020-09-15T04:17:31Z</time>
      </trkpt>
      <trkpt lat="30.715045" lon="34.784043">
        <ele>716.6</ele>
        <time>2020-09-15T04:17:35Z</time>
      </trkpt>
      <trkpt lat="30.714989" lon="34.784045">
        <ele>716.6</ele>
        <time>2020-09-15T04:17:36Z</time>
      </trkpt>
      <trkpt lat="30.714934" lon="34.784044">
        <ele>716.4</ele>
        <time>2020-09-15T04:17:37Z</time>
      </trkpt>
      <trkpt lat="30.714884" lon="34.784041">
        <ele>716.2</ele>
        <time>2020-09-15T04:17:38Z</time>
      </trkpt>
      <trkpt lat="30.714840" lon="34.784041">
        <ele>716.0</ele>
        <time>2020-09-15T04:17:39Z</time>
      </trkpt>
      <trkpt lat="30.714800" lon="34.784052">
        <ele>715.8</ele>
        <time>2020-09-15T04:17:40Z</time>
      </trkpt>
      <trkpt lat="30.714720" lon="34.784081">
        <ele>715.4</ele>
        <time>2020-09-15T04:17:42Z</time>
      </trkpt>
      <trkpt lat="30.714673" lon="34.784086">
        <ele>715.2</ele>
        <time>2020-09-15T04:17:43Z</time>
      </trkpt>
      <trkpt lat="30.714625" lon="34.784086">
        <ele>715.2</ele>
        <time>2020-09-15T04:17:44Z</time>
      </trkpt>
      <trkpt lat="30.714579" lon="34.784076">
        <ele>715.0</ele>
        <time>2020-09-15T04:17:45Z</time>
      </trkpt>
      <trkpt lat="30.714458" lon="34.784018">
        <ele>714.4</ele>
        <time>2020-09-15T04:17:48Z</time>
      </trkpt>
      <trkpt lat="30.714382" lon="34.783962">
        <ele>714.0</ele>
        <time>2020-09-15T04:17:50Z</time>
      </trkpt>
      <trkpt lat="30.714349" lon="34.783936">
        <ele>713.6</ele>
        <time>2020-09-15T04:17:51Z</time>
      </trkpt>
      <trkpt lat="30.714274" lon="34.783929">
        <ele>713.2</ele>
        <time>2020-09-15T04:17:53Z</time>
      </trkpt>
      <trkpt lat="30.714246" lon="34.783945">
        <ele>713.0</ele>
        <time>2020-09-15T04:17:54Z</time>
      </trkpt>
      <trkpt lat="30.714189" lon="34.784012">
        <ele>713.2</ele>
        <time>2020-09-15T04:17:57Z</time>
      </trkpt>
      <trkpt lat="30.714154" lon="34.784096">
        <ele>713.8</ele>
        <time>2020-09-15T04:18:00Z</time>
      </trkpt>
      <trkpt lat="30.714155" lon="34.784138">
        <ele>714.0</ele>
        <time>2020-09-15T04:18:01Z</time>
      </trkpt>
      <trkpt lat="30.714161" lon="34.784182">
        <ele>714.0</ele>
        <time>2020-09-15T04:18:02Z</time>
      </trkpt>
      <trkpt lat="30.714167" lon="34.784229">
        <ele>714.0</ele>
        <time>2020-09-15T04:18:03Z</time>
      </trkpt>
      <trkpt lat="30.714180" lon="34.784352">
        <ele>713.4</ele>
        <time>2020-09-15T04:18:06Z</time>
      </trkpt>
      <trkpt lat="30.714179" lon="34.784431">
        <ele>713.4</ele>
        <time>2020-09-15T04:18:08Z</time>
      </trkpt>
      <trkpt lat="30.714167" lon="34.784505">
        <ele>713.6</ele>
        <time>2020-09-15T04:18:10Z</time>
      </trkpt>
      <trkpt lat="30.714159" lon="34.784541">
        <ele>713.6</ele>
        <time>2020-09-15T04:18:11Z</time>
      </trkpt>
      <trkpt lat="30.714150" lon="34.784579">
        <ele>713.8</ele>
        <time>2020-09-15T04:18:12Z</time>
      </trkpt>
      <trkpt lat="30.714070" lon="34.784755">
        <ele>713.4</ele>
        <time>2020-09-15T04:18:17Z</time>
      </trkpt>
      <trkpt lat="30.714053" lon="34.784784">
        <ele>713.4</ele>
        <time>2020-09-15T04:18:18Z</time>
      </trkpt>
      <trkpt lat="30.714003" lon="34.784871">
        <ele>713.4</ele>
        <time>2020-09-15T04:18:21Z</time>
      </trkpt>
      <trkpt lat="30.713981" lon="34.784939">
        <ele>713.6</ele>
        <time>2020-09-15T04:18:23Z</time>
      </trkpt>
      <trkpt lat="30.713900" lon="34.785161">
        <ele>713.2</ele>
        <time>2020-09-15T04:18:29Z</time>
      </trkpt>
      <trkpt lat="30.713807" lon="34.785351">
        <ele>713.2</ele>
        <time>2020-09-15T04:18:35Z</time>
      </trkpt>
      <trkpt lat="30.713702" lon="34.785492">
        <ele>713.2</ele>
        <time>2020-09-15T04:18:39Z</time>
      </trkpt>
      <trkpt lat="30.713635" lon="34.785540">
        <ele>713.0</ele>
        <time>2020-09-15T04:18:41Z</time>
      </trkpt>
      <trkpt lat="30.713603" lon="34.785551">
        <ele>712.8</ele>
        <time>2020-09-15T04:18:42Z</time>
      </trkpt>
      <trkpt lat="30.713575" lon="34.785563">
        <ele>712.6</ele>
        <time>2020-09-15T04:18:43Z</time>
      </trkpt>
      <trkpt lat="30.713528" lon="34.785599">
        <ele>712.4</ele>
        <time>2020-09-15T04:18:45Z</time>
      </trkpt>
      <trkpt lat="30.713436" lon="34.785745">
        <ele>713.4</ele>
        <time>2020-09-15T04:18:50Z</time>
      </trkpt>
      <trkpt lat="30.713295" lon="34.786005">
        <ele>712.8</ele>
        <time>2020-09-15T04:18:57Z</time>
      </trkpt>
      <trkpt lat="30.713281" lon="34.786040">
        <ele>712.8</ele>
        <time>2020-09-15T04:18:58Z</time>
      </trkpt>
      <trkpt lat="30.713218" lon="34.786175">
        <ele>712.6</ele>
        <time>2020-09-15T04:19:02Z</time>
      </trkpt>
      <trkpt lat="30.713200" lon="34.786208">
        <ele>712.4</ele>
        <time>2020-09-15T04:19:03Z</time>
      </trkpt>
      <trkpt lat="30.713186" lon="34.786287">
        <ele>712.2</ele>
        <time>2020-09-15T04:19:05Z</time>
      </trkpt>
      <trkpt lat="30.713181" lon="34.786335">
        <ele>712.0</ele>
        <time>2020-09-15T04:19:06Z</time>
      </trkpt>
      <trkpt lat="30.713168" lon="34.786382">
        <ele>711.8</ele>
        <time>2020-09-15T04:19:07Z</time>
      </trkpt>
      <trkpt lat="30.713137" lon="34.786611">
        <ele>711.2</ele>
        <time>2020-09-15T04:19:12Z</time>
      </trkpt>
      <trkpt lat="30.713127" lon="34.786705">
        <ele>710.8</ele>
        <time>2020-09-15T04:19:14Z</time>
      </trkpt>
      <trkpt lat="30.713079" lon="34.786834">
        <ele>710.2</ele>
        <time>2020-09-15T04:19:17Z</time>
      </trkpt>
      <trkpt lat="30.713055" lon="34.786847">
        <ele>710.2</ele>
        <time>2020-09-15T04:19:18Z</time>
      </trkpt>
      <trkpt lat="30.712986" lon="34.786896">
        <ele>710.4</ele>
        <time>2020-09-15T04:19:21Z</time>
      </trkpt>
      <trkpt lat="30.712861" lon="34.787014">
        <ele>710.6</ele>
        <time>2020-09-15T04:19:26Z</time>
      </trkpt>
      <trkpt lat="30.712720" lon="34.787110">
        <ele>709.8</ele>
        <time>2020-09-15T04:19:30Z</time>
      </trkpt>
      <trkpt lat="30.712637" lon="34.787141">
        <ele>709.6</ele>
        <time>2020-09-15T04:19:32Z</time>
      </trkpt>
      <trkpt lat="30.712598" lon="34.787159">
        <ele>709.6</ele>
        <time>2020-09-15T04:19:33Z</time>
      </trkpt>
      <trkpt lat="30.712517" lon="34.787183">
        <ele>709.0</ele>
        <time>2020-09-15T04:19:35Z</time>
      </trkpt>
      <trkpt lat="30.712475" lon="34.787183">
        <ele>708.4</ele>
        <time>2020-09-15T04:19:36Z</time>
      </trkpt>
      <trkpt lat="30.712435" lon="34.787170">
        <ele>708.0</ele>
        <time>2020-09-15T04:19:37Z</time>
      </trkpt>
      <trkpt lat="30.712365" lon="34.787126">
        <ele>707.6</ele>
        <time>2020-09-15T04:19:39Z</time>
      </trkpt>
      <trkpt lat="30.712331" lon="34.787098">
        <ele>707.6</ele>
        <time>2020-09-15T04:19:40Z</time>
      </trkpt>
      <trkpt lat="30.712193" lon="34.786979">
        <ele>707.8</ele>
        <time>2020-09-15T04:19:44Z</time>
      </trkpt>
      <trkpt lat="30.712114" lon="34.786918">
        <ele>707.4</ele>
        <time>2020-09-15T04:19:46Z</time>
      </trkpt>
      <trkpt lat="30.711946" lon="34.786805">
        <ele>707.2</ele>
        <time>2020-09-15T04:19:50Z</time>
      </trkpt>
      <trkpt lat="30.711858" lon="34.786759">
        <ele>706.2</ele>
        <time>2020-09-15T04:19:52Z</time>
      </trkpt>
      <trkpt lat="30.711767" lon="34.786761">
        <ele>705.2</ele>
        <time>2020-09-15T04:19:54Z</time>
      </trkpt>
      <trkpt lat="30.711729" lon="34.786784">
        <ele>704.8</ele>
        <time>2020-09-15T04:19:55Z</time>
      </trkpt>
      <trkpt lat="30.711692" lon="34.786813">
        <ele>704.2</ele>
        <time>2020-09-15T04:19:56Z</time>
      </trkpt>
      <trkpt lat="30.711619" lon="34.786884">
        <ele>703.6</ele>
        <time>2020-09-15T04:19:58Z</time>
      </trkpt>
      <trkpt lat="30.711540" lon="34.786953">
        <ele>703.2</ele>
        <time>2020-09-15T04:20:00Z</time>
      </trkpt>
      <trkpt lat="30.711499" lon="34.786985">
        <ele>702.8</ele>
        <time>2020-09-15T04:20:01Z</time>
      </trkpt>
      <trkpt lat="30.711460" lon="34.787014">
        <ele>702.8</ele>
        <time>2020-09-15T04:20:02Z</time>
      </trkpt>
      <trkpt lat="30.711422" lon="34.787041">
        <ele>702.6</ele>
        <time>2020-09-15T04:20:03Z</time>
      </trkpt>
      <trkpt lat="30.711382" lon="34.787063">
        <ele>702.6</ele>
        <time>2020-09-15T04:20:04Z</time>
      </trkpt>
      <trkpt lat="30.711310" lon="34.787078">
        <ele>703.0</ele>
        <time>2020-09-15T04:20:06Z</time>
      </trkpt>
      <trkpt lat="30.711267" lon="34.787041">
        <ele>703.6</ele>
        <time>2020-09-15T04:20:08Z</time>
      </trkpt>
      <trkpt lat="30.711255" lon="34.787017">
        <ele>703.8</ele>
        <time>2020-09-15T04:20:09Z</time>
      </trkpt>
      <trkpt lat="30.711229" lon="34.786931">
        <ele>704.8</ele>
        <time>2020-09-15T04:20:12Z</time>
      </trkpt>
      <trkpt lat="30.711225" lon="34.786867">
        <ele>704.8</ele>
        <time>2020-09-15T04:20:14Z</time>
      </trkpt>
      <trkpt lat="30.711163" lon="34.786759">
        <ele>704.6</ele>
        <time>2020-09-15T04:20:18Z</time>
      </trkpt>
      <trkpt lat="30.711146" lon="34.786729">
        <ele>704.6</ele>
        <time>2020-09-15T04:20:19Z</time>
      </trkpt>
      <trkpt lat="30.711135" lon="34.786692">
        <ele>704.2</ele>
        <time>2020-09-15T04:20:20Z</time>
      </trkpt>
      <trkpt lat="30.711130" lon="34.786580">
        <ele>703.6</ele>
        <time>2020-09-15T04:20:23Z</time>
      </trkpt>
      <trkpt lat="30.711131" lon="34.786540">
        <ele>703.4</ele>
        <time>2020-09-15T04:20:24Z</time>
      </trkpt>
      <trkpt lat="30.711206" lon="34.786364">
        <ele>702.2</ele>
        <time>2020-09-15T04:20:29Z</time>
      </trkpt>
      <trkpt lat="30.711239" lon="34.786285">
        <ele>701.8</ele>
        <time>2020-09-15T04:20:31Z</time>
      </trkpt>
      <trkpt lat="30.711265" lon="34.786191">
        <ele>701.8</ele>
        <time>2020-09-15T04:20:33Z</time>
      </trkpt>
      <trkpt lat="30.711287" lon="34.786147">
        <ele>701.8</ele>
        <time>2020-09-15T04:20:34Z</time>
      </trkpt>
      <trkpt lat="30.711358" lon="34.786032">
        <ele>700.8</ele>
        <time>2020-09-15T04:20:37Z</time>
      </trkpt>
      <trkpt lat="30.711377" lon="34.785998">
        <ele>700.4</ele>
        <time>2020-09-15T04:20:38Z</time>
      </trkpt>
      <trkpt lat="30.711410" lon="34.785937">
        <ele>700.0</ele>
        <time>2020-09-15T04:20:40Z</time>
      </trkpt>
      <trkpt lat="30.711427" lon="34.785903">
        <ele>699.8</ele>
        <time>2020-09-15T04:20:41Z</time>
      </trkpt>
      <trkpt lat="30.711490" lon="34.785812">
        <ele>699.6</ele>
        <time>2020-09-15T04:20:44Z</time>
      </trkpt>
      <trkpt lat="30.711590" lon="34.785705">
        <ele>699.6</ele>
        <time>2020-09-15T04:20:49Z</time>
      </trkpt>
      <trkpt lat="30.711620" lon="34.785663">
        <ele>699.6</ele>
        <time>2020-09-15T04:20:51Z</time>
      </trkpt>
      <trkpt lat="30.711627" lon="34.785608">
        <ele>699.6</ele>
        <time>2020-09-15T04:20:53Z</time>
      </trkpt>
      <trkpt lat="30.711592" lon="34.785560">
        <ele>699.0</ele>
        <time>2020-09-15T04:20:55Z</time>
      </trkpt>
      <trkpt lat="30.711556" lon="34.785556">
        <ele>698.4</ele>
        <time>2020-09-15T04:20:56Z</time>
      </trkpt>
      <trkpt lat="30.711513" lon="34.785573">
        <ele>698.0</ele>
        <time>2020-09-15T04:20:57Z</time>
      </trkpt>
      <trkpt lat="30.711471" lon="34.785608">
        <ele>697.6</ele>
        <time>2020-09-15T04:20:58Z</time>
      </trkpt>
      <trkpt lat="30.711436" lon="34.785649">
        <ele>697.4</ele>
        <time>2020-09-15T04:20:59Z</time>
      </trkpt>
      <trkpt lat="30.711400" lon="34.785687">
        <ele>697.2</ele>
        <time>2020-09-15T04:21:00Z</time>
      </trkpt>
      <trkpt lat="30.711225" lon="34.785810">
        <ele>696.2</ele>
        <time>2020-09-15T04:21:04Z</time>
      </trkpt>
      <trkpt lat="30.711127" lon="34.785849">
        <ele>695.2</ele>
        <time>2020-09-15T04:21:06Z</time>
      </trkpt>
      <trkpt lat="30.711081" lon="34.785875">
        <ele>694.4</ele>
        <time>2020-09-15T04:21:07Z</time>
      </trkpt>
      <trkpt lat="30.711033" lon="34.785910">
        <ele>693.8</ele>
        <time>2020-09-15T04:21:08Z</time>
      </trkpt>
      <trkpt lat="30.710983" lon="34.785949">
        <ele>693.2</ele>
        <time>2020-09-15T04:21:09Z</time>
      </trkpt>
      <trkpt lat="30.710842" lon="34.786036">
        <ele>692.6</ele>
        <time>2020-09-15T04:21:12Z</time>
      </trkpt>
      <trkpt lat="30.710797" lon="34.786047">
        <ele>692.6</ele>
        <time>2020-09-15T04:21:13Z</time>
      </trkpt>
      <trkpt lat="30.710752" lon="34.786041">
        <ele>692.6</ele>
        <time>2020-09-15T04:21:14Z</time>
      </trkpt>
      <trkpt lat="30.710665" lon="34.785993">
        <ele>692.4</ele>
        <time>2020-09-15T04:21:16Z</time>
      </trkpt>
      <trkpt lat="30.710623" lon="34.785916">
        <ele>691.8</ele>
        <time>2020-09-15T04:21:18Z</time>
      </trkpt>
      <trkpt lat="30.710624" lon="34.785878">
        <ele>691.4</ele>
        <time>2020-09-15T04:21:19Z</time>
      </trkpt>
      <trkpt lat="30.710658" lon="34.785695">
        <ele>690.8</ele>
        <time>2020-09-15T04:21:24Z</time>
      </trkpt>
      <trkpt lat="30.710668" lon="34.785630">
        <ele>690.8</ele>
        <time>2020-09-15T04:21:26Z</time>
      </trkpt>
      <trkpt lat="30.710673" lon="34.785602">
        <ele>690.8</ele>
        <time>2020-09-15T04:21:27Z</time>
      </trkpt>
      <trkpt lat="30.710645" lon="34.785462">
        <ele>691.2</ele>
        <time>2020-09-15T04:21:32Z</time>
      </trkpt>
      <trkpt lat="30.710568" lon="34.785419">
        <ele>691.0</ele>
        <time>2020-09-15T04:21:35Z</time>
      </trkpt>
      <trkpt lat="30.710535" lon="34.785406">
        <ele>690.8</ele>
        <time>2020-09-15T04:21:36Z</time>
      </trkpt>
      <trkpt lat="30.710281" lon="34.785358">
        <ele>690.4</ele>
        <time>2020-09-15T04:21:43Z</time>
      </trkpt>
      <trkpt lat="30.710038" lon="34.785341">
        <ele>689.8</ele>
        <time>2020-09-15T04:21:48Z</time>
      </trkpt>
      <trkpt lat="30.709996" lon="34.785331">
        <ele>689.6</ele>
        <time>2020-09-15T04:21:49Z</time>
      </trkpt>
      <trkpt lat="30.709916" lon="34.785308">
        <ele>689.4</ele>
        <time>2020-09-15T04:21:51Z</time>
      </trkpt>
      <trkpt lat="30.709763" lon="34.785268">
        <ele>689.2</ele>
        <time>2020-09-15T04:21:55Z</time>
      </trkpt>
      <trkpt lat="30.709535" lon="34.785217">
        <ele>689.0</ele>
        <time>2020-09-15T04:22:02Z</time>
      </trkpt>
      <trkpt lat="30.709407" lon="34.785210">
        <ele>689.8</ele>
        <time>2020-09-15T04:22:06Z</time>
      </trkpt>
      <trkpt lat="30.709339" lon="34.785201">
        <ele>689.8</ele>
        <time>2020-09-15T04:22:08Z</time>
      </trkpt>
      <trkpt lat="30.709273" lon="34.785193">
        <ele>689.6</ele>
        <time>2020-09-15T04:22:10Z</time>
      </trkpt>
      <trkpt lat="30.709130" lon="34.785164">
        <ele>689.6</ele>
        <time>2020-09-15T04:22:14Z</time>
      </trkpt>
      <trkpt lat="30.709097" lon="34.785154">
        <ele>689.6</ele>
        <time>2020-09-15T04:22:15Z</time>
      </trkpt>
      <trkpt lat="30.708743" lon="34.785089">
        <ele>689.8</ele>
        <time>2020-09-15T04:22:26Z</time>
      </trkpt>
      <trkpt lat="30.708455" lon="34.785031">
        <ele>689.4</ele>
        <time>2020-09-15T04:22:35Z</time>
      </trkpt>
      <trkpt lat="30.708192" lon="34.784963">
        <ele>689.6</ele>
        <time>2020-09-15T04:22:44Z</time>
      </trkpt>
      <trkpt lat="30.707985" lon="34.784908">
        <ele>690.0</ele>
        <time>2020-09-15T04:22:52Z</time>
      </trkpt>
      <trkpt lat="30.707879" lon="34.784896">
        <ele>690.0</ele>
        <time>2020-09-15T04:22:57Z</time>
      </trkpt>
      <trkpt lat="30.707860" lon="34.784914">
        <ele>689.8</ele>
        <time>2020-09-15T04:22:58Z</time>
      </trkpt>
      <trkpt lat="30.707814" lon="34.785036">
        <ele>689.6</ele>
        <time>2020-09-15T04:23:03Z</time>
      </trkpt>
      <trkpt lat="30.707809" lon="34.785077">
        <ele>690.0</ele>
        <time>2020-09-15T04:23:06Z</time>
      </trkpt>
      <trkpt lat="30.707809" lon="34.785077">
        <ele>690.2</ele>
        <time>2020-09-15T04:23:07Z</time>
      </trkpt>
      <trkpt lat="30.707807" lon="34.785079">
        <ele>690.4</ele>
        <time>2020-09-15T04:23:08Z</time>
      </trkpt>
      <trkpt lat="30.707808" lon="34.785080">
        <ele>690.6</ele>
        <time>2020-09-15T04:23:09Z</time>
      </trkpt>
      <trkpt lat="30.707808" lon="34.785080">
        <ele>690.6</ele>
        <time>2020-09-15T04:23:10Z</time>
      </trkpt>
      <trkpt lat="30.707805" lon="34.785084">
        <ele>690.6</ele>
        <time>2020-09-15T04:23:11Z</time>
      </trkpt>
      <trkpt lat="30.707805" lon="34.785083">
        <ele>690.6</ele>
        <time>2020-09-15T04:23:12Z</time>
      </trkpt>
      <trkpt lat="30.707802" lon="34.785096">
        <ele>690.8</ele>
        <time>2020-09-15T04:23:16Z</time>
      </trkpt>
      <trkpt lat="30.707812" lon="34.785092">
        <ele>690.4</ele>
        <time>2020-09-15T04:23:25Z</time>
      </trkpt>
      <trkpt lat="30.707810" lon="34.785101">
        <ele>690.4</ele>
        <time>2020-09-15T04:23:31Z</time>
      </trkpt>
      <trkpt lat="30.707809" lon="34.785102">
        <ele>690.2</ele>
        <time>2020-09-15T04:23:43Z</time>
      </trkpt>
      <trkpt lat="30.707806" lon="34.785083">
        <ele>690.4</ele>
        <time>2020-09-15T04:23:48Z</time>
      </trkpt>
      <trkpt lat="30.707800" lon="34.785085">
        <ele>690.4</ele>
        <time>2020-09-15T04:23:53Z</time>
      </trkpt>
      <trkpt lat="30.707801" lon="34.785086">
        <ele>690.4</ele>
        <time>2020-09-15T04:23:54Z</time>
      </trkpt>
      <trkpt lat="30.707801" lon="34.785091">
        <ele>690.6</ele>
        <time>2020-09-15T04:23:55Z</time>
      </trkpt>
      <trkpt lat="30.707803" lon="34.785098">
        <ele>690.6</ele>
        <time>2020-09-15T04:23:59Z</time>
      </trkpt>
      <trkpt lat="30.707803" lon="34.785099">
        <ele>690.6</ele>
        <time>2020-09-15T04:24:00Z</time>
      </trkpt>
      <trkpt lat="30.707804" lon="34.785101">
        <ele>690.8</ele>
        <time>2020-09-15T04:24:02Z</time>
      </trkpt>
      <trkpt lat="30.707805" lon="34.785101">
        <ele>690.4</ele>
        <time>2020-09-15T04:24:07Z</time>
      </trkpt>
      <trkpt lat="30.707807" lon="34.785106">
        <ele>690.2</ele>
        <time>2020-09-15T04:24:11Z</time>
      </trkpt>
      <trkpt lat="30.707806" lon="34.785118">
        <ele>690.6</ele>
        <time>2020-09-15T04:24:15Z</time>
      </trkpt>
      <trkpt lat="30.707782" lon="34.785160">
        <ele>690.4</ele>
        <time>2020-09-15T04:24:18Z</time>
      </trkpt>
      <trkpt lat="30.707736" lon="34.785293">
        <ele>690.4</ele>
        <time>2020-09-15T04:24:23Z</time>
      </trkpt>
      <trkpt lat="30.707661" lon="34.785499">
        <ele>691.2</ele>
        <time>2020-09-15T04:24:30Z</time>
      </trkpt>
      <trkpt lat="30.707648" lon="34.785526">
        <ele>691.4</ele>
        <time>2020-09-15T04:24:31Z</time>
      </trkpt>
      <trkpt lat="30.707607" lon="34.785602">
        <ele>691.6</ele>
        <time>2020-09-15T04:24:34Z</time>
      </trkpt>
      <trkpt lat="30.707581" lon="34.785653">
        <ele>691.8</ele>
        <time>2020-09-15T04:24:36Z</time>
      </trkpt>
      <trkpt lat="30.707548" lon="34.785746">
        <ele>692.0</ele>
        <time>2020-09-15T04:24:39Z</time>
      </trkpt>
      <trkpt lat="30.707468" lon="34.785889">
        <ele>692.0</ele>
        <time>2020-09-15T04:24:44Z</time>
      </trkpt>
      <trkpt lat="30.707429" lon="34.785936">
        <ele>692.2</ele>
        <time>2020-09-15T04:24:46Z</time>
      </trkpt>
      <trkpt lat="30.707326" lon="34.786108">
        <ele>692.8</ele>
        <time>2020-09-15T04:24:52Z</time>
      </trkpt>
      <trkpt lat="30.707303" lon="34.786181">
        <ele>693.0</ele>
        <time>2020-09-15T04:24:54Z</time>
      </trkpt>
      <trkpt lat="30.707229" lon="34.786364">
        <ele>693.4</ele>
        <time>2020-09-15T04:24:59Z</time>
      </trkpt>
      <trkpt lat="30.707185" lon="34.786450">
        <ele>693.8</ele>
        <time>2020-09-15T04:25:02Z</time>
      </trkpt>
      <trkpt lat="30.707158" lon="34.786507">
        <ele>694.0</ele>
        <time>2020-09-15T04:25:04Z</time>
      </trkpt>
      <trkpt lat="30.707118" lon="34.786641">
        <ele>694.2</ele>
        <time>2020-09-15T04:25:08Z</time>
      </trkpt>
      <trkpt lat="30.707109" lon="34.786677">
        <ele>694.0</ele>
        <time>2020-09-15T04:25:09Z</time>
      </trkpt>
      <trkpt lat="30.707084" lon="34.786747">
        <ele>693.8</ele>
        <time>2020-09-15T04:25:11Z</time>
      </trkpt>
      <trkpt lat="30.707038" lon="34.786843">
        <ele>693.8</ele>
        <time>2020-09-15T04:25:14Z</time>
      </trkpt>
      <trkpt lat="30.707019" lon="34.786871">
        <ele>694.0</ele>
        <time>2020-09-15T04:25:15Z</time>
      </trkpt>
      <trkpt lat="30.707001" lon="34.786898">
        <ele>694.2</ele>
        <time>2020-09-15T04:25:16Z</time>
      </trkpt>
      <trkpt lat="30.706934" lon="34.786994">
        <ele>695.0</ele>
        <time>2020-09-15T04:25:20Z</time>
      </trkpt>
      <trkpt lat="30.706878" lon="34.787066">
        <ele>695.2</ele>
        <time>2020-09-15T04:25:23Z</time>
      </trkpt>
      <trkpt lat="30.706812" lon="34.787188">
        <ele>695.8</ele>
        <time>2020-09-15T04:25:28Z</time>
      </trkpt>
      <trkpt lat="30.706780" lon="34.787290">
        <ele>695.8</ele>
        <time>2020-09-15T04:25:31Z</time>
      </trkpt>
      <trkpt lat="30.706737" lon="34.787385">
        <ele>695.6</ele>
        <time>2020-09-15T04:25:34Z</time>
      </trkpt>
      <trkpt lat="30.706606" lon="34.787534">
        <ele>696.0</ele>
        <time>2020-09-15T04:25:40Z</time>
      </trkpt>
      <trkpt lat="30.706561" lon="34.787618">
        <ele>696.4</ele>
        <time>2020-09-15T04:25:43Z</time>
      </trkpt>
      <trkpt lat="30.706475" lon="34.787827">
        <ele>697.2</ele>
        <time>2020-09-15T04:25:49Z</time>
      </trkpt>
      <trkpt lat="30.706459" lon="34.787862">
        <ele>697.2</ele>
        <time>2020-09-15T04:25:50Z</time>
      </trkpt>
      <trkpt lat="30.706338" lon="34.788014">
        <ele>696.6</ele>
        <time>2020-09-15T04:25:55Z</time>
      </trkpt>
      <trkpt lat="30.706275" lon="34.788041">
        <ele>696.0</ele>
        <time>2020-09-15T04:25:57Z</time>
      </trkpt>
      <trkpt lat="30.706187" lon="34.788020">
        <ele>695.8</ele>
        <time>2020-09-15T04:26:00Z</time>
      </trkpt>
      <trkpt lat="30.706035" lon="34.787885">
        <ele>696.2</ele>
        <time>2020-09-15T04:26:06Z</time>
      </trkpt>
      <trkpt lat="30.705997" lon="34.787831">
        <ele>696.6</ele>
        <time>2020-09-15T04:26:08Z</time>
      </trkpt>
      <trkpt lat="30.705979" lon="34.787805">
        <ele>697.2</ele>
        <time>2020-09-15T04:26:09Z</time>
      </trkpt>
      <trkpt lat="30.705881" lon="34.787683">
        <ele>698.0</ele>
        <time>2020-09-15T04:26:14Z</time>
      </trkpt>
      <trkpt lat="30.705673" lon="34.787536">
        <ele>697.8</ele>
        <time>2020-09-15T04:26:22Z</time>
      </trkpt>
      <trkpt lat="30.705649" lon="34.787513">
        <ele>697.8</ele>
        <time>2020-09-15T04:26:23Z</time>
      </trkpt>
      <trkpt lat="30.705626" lon="34.787488">
        <ele>697.8</ele>
        <time>2020-09-15T04:26:24Z</time>
      </trkpt>
      <trkpt lat="30.705536" lon="34.787394">
        <ele>697.6</ele>
        <time>2020-09-15T04:26:28Z</time>
      </trkpt>
      <trkpt lat="30.705510" lon="34.787376">
        <ele>697.6</ele>
        <time>2020-09-15T04:26:29Z</time>
      </trkpt>
      <trkpt lat="30.705486" lon="34.787361">
        <ele>697.6</ele>
        <time>2020-09-15T04:26:30Z</time>
      </trkpt>
      <trkpt lat="30.705312" lon="34.787232">
        <ele>697.6</ele>
        <time>2020-09-15T04:26:36Z</time>
      </trkpt>
      <trkpt lat="30.705176" lon="34.787127">
        <ele>697.8</ele>
        <time>2020-09-15T04:26:41Z</time>
      </trkpt>
      <trkpt lat="30.705145" lon="34.787114">
        <ele>698.0</ele>
        <time>2020-09-15T04:26:42Z</time>
      </trkpt>
      <trkpt lat="30.704981" lon="34.787144">
        <ele>696.8</ele>
        <time>2020-09-15T04:26:47Z</time>
      </trkpt>
      <trkpt lat="30.704901" lon="34.787256">
        <ele>696.4</ele>
        <time>2020-09-15T04:26:51Z</time>
      </trkpt>
      <trkpt lat="30.704876" lon="34.787384">
        <ele>696.4</ele>
        <time>2020-09-15T04:26:55Z</time>
      </trkpt>
      <trkpt lat="30.704875" lon="34.787426">
        <ele>696.4</ele>
        <time>2020-09-15T04:26:56Z</time>
      </trkpt>
      <trkpt lat="30.704882" lon="34.787598">
        <ele>696.6</ele>
        <time>2020-09-15T04:27:00Z</time>
      </trkpt>
      <trkpt lat="30.704880" lon="34.787636">
        <ele>696.8</ele>
        <time>2020-09-15T04:27:01Z</time>
      </trkpt>
      <trkpt lat="30.704892" lon="34.787908">
        <ele>697.4</ele>
        <time>2020-09-15T04:27:08Z</time>
      </trkpt>
      <trkpt lat="30.704886" lon="34.787986">
        <ele>697.4</ele>
        <time>2020-09-15T04:27:10Z</time>
      </trkpt>
      <trkpt lat="30.704879" lon="34.788017">
        <ele>697.2</ele>
        <time>2020-09-15T04:27:11Z</time>
      </trkpt>
      <trkpt lat="30.704852" lon="34.788080">
        <ele>697.2</ele>
        <time>2020-09-15T04:27:13Z</time>
      </trkpt>
      <trkpt lat="30.704839" lon="34.788114">
        <ele>697.2</ele>
        <time>2020-09-15T04:27:14Z</time>
      </trkpt>
      <trkpt lat="30.704723" lon="34.788250">
        <ele>697.6</ele>
        <time>2020-09-15T04:27:19Z</time>
      </trkpt>
      <trkpt lat="30.704523" lon="34.788355">
        <ele>697.8</ele>
        <time>2020-09-15T04:27:26Z</time>
      </trkpt>
      <trkpt lat="30.704393" lon="34.788378">
        <ele>698.2</ele>
        <time>2020-09-15T04:27:30Z</time>
      </trkpt>
      <trkpt lat="30.704359" lon="34.788378">
        <ele>698.2</ele>
        <time>2020-09-15T04:27:31Z</time>
      </trkpt>
      <trkpt lat="30.704326" lon="34.788372">
        <ele>698.4</ele>
        <time>2020-09-15T04:27:32Z</time>
      </trkpt>
      <trkpt lat="30.704085" lon="34.788280">
        <ele>698.4</ele>
        <time>2020-09-15T04:27:40Z</time>
      </trkpt>
      <trkpt lat="30.704017" lon="34.788214">
        <ele>699.6</ele>
        <time>2020-09-15T04:27:43Z</time>
      </trkpt>
      <trkpt lat="30.703937" lon="34.788132">
        <ele>700.2</ele>
        <time>2020-09-15T04:27:47Z</time>
      </trkpt>
      <trkpt lat="30.703832" lon="34.788072">
        <ele>700.4</ele>
        <time>2020-09-15T04:27:52Z</time>
      </trkpt>
      <trkpt lat="30.703782" lon="34.788057">
        <ele>700.4</ele>
        <time>2020-09-15T04:27:54Z</time>
      </trkpt>
      <trkpt lat="30.703758" lon="34.788052">
        <ele>700.4</ele>
        <time>2020-09-15T04:27:55Z</time>
      </trkpt>
      <trkpt lat="30.703733" lon="34.788051">
        <ele>700.4</ele>
        <time>2020-09-15T04:27:56Z</time>
      </trkpt>
      <trkpt lat="30.703655" lon="34.788074">
        <ele>700.2</ele>
        <time>2020-09-15T04:27:59Z</time>
      </trkpt>
      <trkpt lat="30.703631" lon="34.788090">
        <ele>700.2</ele>
        <time>2020-09-15T04:28:00Z</time>
      </trkpt>
      <trkpt lat="30.703609" lon="34.788111">
        <ele>700.2</ele>
        <time>2020-09-15T04:28:01Z</time>
      </trkpt>
      <trkpt lat="30.703590" lon="34.788132">
        <ele>700.4</ele>
        <time>2020-09-15T04:28:02Z</time>
      </trkpt>
      <trkpt lat="30.703567" lon="34.788151">
        <ele>700.6</ele>
        <time>2020-09-15T04:28:03Z</time>
      </trkpt>
      <trkpt lat="30.703516" lon="34.788172">
        <ele>701.0</ele>
        <time>2020-09-15T04:28:05Z</time>
      </trkpt>
      <trkpt lat="30.703466" lon="34.788180">
        <ele>701.0</ele>
        <time>2020-09-15T04:28:07Z</time>
      </trkpt>
      <trkpt lat="30.703387" lon="34.788196">
        <ele>701.0</ele>
        <time>2020-09-15T04:28:10Z</time>
      </trkpt>
      <trkpt lat="30.703360" lon="34.788198">
        <ele>701.0</ele>
        <time>2020-09-15T04:28:11Z</time>
      </trkpt>
      <trkpt lat="30.703303" lon="34.788189">
        <ele>701.6</ele>
        <time>2020-09-15T04:28:13Z</time>
      </trkpt>
      <trkpt lat="30.703277" lon="34.788177">
        <ele>701.8</ele>
        <time>2020-09-15T04:28:14Z</time>
      </trkpt>
      <trkpt lat="30.703158" lon="34.788090">
        <ele>702.0</ele>
        <time>2020-09-15T04:28:19Z</time>
      </trkpt>
      <trkpt lat="30.703042" lon="34.787969">
        <ele>702.8</ele>
        <time>2020-09-15T04:28:26Z</time>
      </trkpt>
      <trkpt lat="30.703020" lon="34.787967">
        <ele>703.0</ele>
        <time>2020-09-15T04:28:27Z</time>
      </trkpt>
      <trkpt lat="30.702977" lon="34.787997">
        <ele>702.8</ele>
        <time>2020-09-15T04:28:29Z</time>
      </trkpt>
      <trkpt lat="30.702961" lon="34.788026">
        <ele>702.6</ele>
        <time>2020-09-15T04:28:30Z</time>
      </trkpt>
      <trkpt lat="30.702935" lon="34.788140">
        <ele>702.2</ele>
        <time>2020-09-15T04:28:35Z</time>
      </trkpt>
      <trkpt lat="30.702933" lon="34.788192">
        <ele>702.2</ele>
        <time>2020-09-15T04:28:37Z</time>
      </trkpt>
      <trkpt lat="30.702935" lon="34.788223">
        <ele>702.4</ele>
        <time>2020-09-15T04:28:38Z</time>
      </trkpt>
      <trkpt lat="30.702939" lon="34.788259">
        <ele>702.4</ele>
        <time>2020-09-15T04:28:39Z</time>
      </trkpt>
      <trkpt lat="30.702933" lon="34.788337">
        <ele>702.4</ele>
        <time>2020-09-15T04:28:41Z</time>
      </trkpt>
      <trkpt lat="30.702843" lon="34.788521">
        <ele>702.6</ele>
        <time>2020-09-15T04:28:46Z</time>
      </trkpt>
      <trkpt lat="30.702748" lon="34.788630">
        <ele>703.6</ele>
        <time>2020-09-15T04:28:51Z</time>
      </trkpt>
      <trkpt lat="30.702713" lon="34.788683">
        <ele>703.4</ele>
        <time>2020-09-15T04:28:53Z</time>
      </trkpt>
      <trkpt lat="30.702613" lon="34.788766">
        <ele>703.0</ele>
        <time>2020-09-15T04:28:57Z</time>
      </trkpt>
      <trkpt lat="30.702473" lon="34.788790">
        <ele>703.2</ele>
        <time>2020-09-15T04:29:02Z</time>
      </trkpt>
      <trkpt lat="30.702442" lon="34.788786">
        <ele>703.0</ele>
        <time>2020-09-15T04:29:03Z</time>
      </trkpt>
      <trkpt lat="30.702255" lon="34.788776">
        <ele>703.6</ele>
        <time>2020-09-15T04:29:10Z</time>
      </trkpt>
      <trkpt lat="30.702168" lon="34.788859">
        <ele>703.6</ele>
        <time>2020-09-15T04:29:14Z</time>
      </trkpt>
      <trkpt lat="30.702162" lon="34.788971">
        <ele>704.0</ele>
        <time>2020-09-15T04:29:17Z</time>
      </trkpt>
      <trkpt lat="30.702171" lon="34.789005">
        <ele>703.8</ele>
        <time>2020-09-15T04:29:18Z</time>
      </trkpt>
      <trkpt lat="30.702194" lon="34.789124">
        <ele>703.8</ele>
        <time>2020-09-15T04:29:21Z</time>
      </trkpt>
      <trkpt lat="30.702196" lon="34.789206">
        <ele>703.6</ele>
        <time>2020-09-15T04:29:23Z</time>
      </trkpt>
      <trkpt lat="30.702192" lon="34.789249">
        <ele>703.4</ele>
        <time>2020-09-15T04:29:24Z</time>
      </trkpt>
      <trkpt lat="30.702160" lon="34.789336">
        <ele>702.8</ele>
        <time>2020-09-15T04:29:26Z</time>
      </trkpt>
      <trkpt lat="30.702117" lon="34.789416">
        <ele>702.6</ele>
        <time>2020-09-15T04:29:28Z</time>
      </trkpt>
      <trkpt lat="30.702098" lon="34.789461">
        <ele>702.4</ele>
        <time>2020-09-15T04:29:29Z</time>
      </trkpt>
      <trkpt lat="30.702053" lon="34.789550">
        <ele>702.2</ele>
        <time>2020-09-15T04:29:31Z</time>
      </trkpt>
      <trkpt lat="30.702001" lon="34.789620">
        <ele>702.4</ele>
        <time>2020-09-15T04:29:33Z</time>
      </trkpt>
      <trkpt lat="30.701963" lon="34.789678">
        <ele>702.2</ele>
        <time>2020-09-15T04:29:35Z</time>
      </trkpt>
      <trkpt lat="30.701934" lon="34.789743">
        <ele>702.0</ele>
        <time>2020-09-15T04:29:37Z</time>
      </trkpt>
      <trkpt lat="30.701920" lon="34.789782">
        <ele>701.8</ele>
        <time>2020-09-15T04:29:38Z</time>
      </trkpt>
      <trkpt lat="30.701884" lon="34.789872">
        <ele>701.6</ele>
        <time>2020-09-15T04:29:40Z</time>
      </trkpt>
      <trkpt lat="30.701834" lon="34.790003">
        <ele>701.0</ele>
        <time>2020-09-15T04:29:43Z</time>
      </trkpt>
      <trkpt lat="30.701729" lon="34.790267">
        <ele>701.2</ele>
        <time>2020-09-15T04:29:50Z</time>
      </trkpt>
      <trkpt lat="30.701625" lon="34.790464">
        <ele>701.2</ele>
        <time>2020-09-15T04:29:56Z</time>
      </trkpt>
      <trkpt lat="30.701553" lon="34.790537">
        <ele>701.6</ele>
        <time>2020-09-15T04:29:59Z</time>
      </trkpt>
      <trkpt lat="30.701519" lon="34.790554">
        <ele>701.6</ele>
        <time>2020-09-15T04:30:00Z</time>
      </trkpt>
      <trkpt lat="30.701343" lon="34.790571">
        <ele>701.6</ele>
        <time>2020-09-15T04:30:05Z</time>
      </trkpt>
      <trkpt lat="30.701274" lon="34.790563">
        <ele>701.6</ele>
        <time>2020-09-15T04:30:07Z</time>
      </trkpt>
      <trkpt lat="30.701160" lon="34.790531">
        <ele>700.8</ele>
        <time>2020-09-15T04:30:11Z</time>
      </trkpt>
      <trkpt lat="30.701125" lon="34.790523">
        <ele>700.6</ele>
        <time>2020-09-15T04:30:12Z</time>
      </trkpt>
      <trkpt lat="30.700950" lon="34.790478">
        <ele>700.6</ele>
        <time>2020-09-15T04:30:17Z</time>
      </trkpt>
      <trkpt lat="30.700860" lon="34.790447">
        <ele>700.6</ele>
        <time>2020-09-15T04:30:20Z</time>
      </trkpt>
      <trkpt lat="30.700785" lon="34.790405">
        <ele>700.8</ele>
        <time>2020-09-15T04:30:23Z</time>
      </trkpt>
      <trkpt lat="30.700652" lon="34.790333">
        <ele>701.0</ele>
        <time>2020-09-15T04:30:28Z</time>
      </trkpt>
      <trkpt lat="30.700569" lon="34.790298">
        <ele>701.2</ele>
        <time>2020-09-15T04:30:31Z</time>
      </trkpt>
      <trkpt lat="30.700543" lon="34.790283">
        <ele>701.2</ele>
        <time>2020-09-15T04:30:32Z</time>
      </trkpt>
      <trkpt lat="30.700338" lon="34.790107">
        <ele>701.2</ele>
        <time>2020-09-15T04:30:40Z</time>
      </trkpt>
      <trkpt lat="30.700185" lon="34.789969">
        <ele>701.6</ele>
        <time>2020-09-15T04:30:46Z</time>
      </trkpt>
      <trkpt lat="30.700142" lon="34.789916">
        <ele>701.6</ele>
        <time>2020-09-15T04:30:48Z</time>
      </trkpt>
      <trkpt lat="30.699952" lon="34.789650">
        <ele>701.6</ele>
        <time>2020-09-15T04:30:57Z</time>
      </trkpt>
      <trkpt lat="30.699879" lon="34.789530">
        <ele>701.4</ele>
        <time>2020-09-15T04:31:01Z</time>
      </trkpt>
      <trkpt lat="30.699842" lon="34.789469">
        <ele>701.4</ele>
        <time>2020-09-15T04:31:03Z</time>
      </trkpt>
      <trkpt lat="30.699758" lon="34.789289">
        <ele>700.8</ele>
        <time>2020-09-15T04:31:08Z</time>
      </trkpt>
      <trkpt lat="30.699742" lon="34.789250">
        <ele>700.8</ele>
        <time>2020-09-15T04:31:09Z</time>
      </trkpt>
      <trkpt lat="30.699629" lon="34.789019">
        <ele>701.2</ele>
        <time>2020-09-15T04:31:15Z</time>
      </trkpt>
      <trkpt lat="30.699582" lon="34.788902">
        <ele>701.0</ele>
        <time>2020-09-15T04:31:17Z</time>
      </trkpt>
      <trkpt lat="30.699582" lon="34.788902">
        <ele>700.8</ele>
        <time>2020-09-15T04:31:18Z</time>
      </trkpt>
      <trkpt lat="30.699533" lon="34.788803">
        <ele>701.6</ele>
        <time>2020-09-15T04:31:21Z</time>
      </trkpt>
      <trkpt lat="30.699426" lon="34.788585">
        <ele>701.8</ele>
        <time>2020-09-15T04:31:27Z</time>
      </trkpt>
      <trkpt lat="30.699403" lon="34.788548">
        <ele>701.8</ele>
        <time>2020-09-15T04:31:28Z</time>
      </trkpt>
      <trkpt lat="30.699332" lon="34.788462">
        <ele>701.4</ele>
        <time>2020-09-15T04:31:31Z</time>
      </trkpt>
      <trkpt lat="30.699289" lon="34.788409">
        <ele>701.4</ele>
        <time>2020-09-15T04:31:33Z</time>
      </trkpt>
      <trkpt lat="30.699249" lon="34.788344">
        <ele>701.2</ele>
        <time>2020-09-15T04:31:35Z</time>
      </trkpt>
      <trkpt lat="30.699194" lon="34.788247">
        <ele>701.4</ele>
        <time>2020-09-15T04:31:38Z</time>
      </trkpt>
      <trkpt lat="30.699151" lon="34.788185">
        <ele>701.6</ele>
        <time>2020-09-15T04:31:40Z</time>
      </trkpt>
      <trkpt lat="30.699113" lon="34.788124">
        <ele>702.0</ele>
        <time>2020-09-15T04:31:42Z</time>
      </trkpt>
      <trkpt lat="30.699050" lon="34.788035">
        <ele>702.4</ele>
        <time>2020-09-15T04:31:45Z</time>
      </trkpt>
      <trkpt lat="30.698984" lon="34.787934">
        <ele>702.8</ele>
        <time>2020-09-15T04:31:48Z</time>
      </trkpt>
      <trkpt lat="30.698937" lon="34.787866">
        <ele>702.8</ele>
        <time>2020-09-15T04:31:50Z</time>
      </trkpt>
      <trkpt lat="30.698774" lon="34.787623">
        <ele>703.2</ele>
        <time>2020-09-15T04:31:57Z</time>
      </trkpt>
      <trkpt lat="30.698681" lon="34.787440">
        <ele>703.2</ele>
        <time>2020-09-15T04:32:02Z</time>
      </trkpt>
      <trkpt lat="30.698614" lon="34.787301">
        <ele>703.8</ele>
        <time>2020-09-15T04:32:07Z</time>
      </trkpt>
      <trkpt lat="30.698605" lon="34.787269">
        <ele>704.0</ele>
        <time>2020-09-15T04:32:08Z</time>
      </trkpt>
      <trkpt lat="30.698541" lon="34.787111">
        <ele>704.2</ele>
        <time>2020-09-15T04:32:13Z</time>
      </trkpt>
      <trkpt lat="30.698406" lon="34.786858">
        <ele>704.4</ele>
        <time>2020-09-15T04:32:20Z</time>
      </trkpt>
      <trkpt lat="30.698354" lon="34.786750">
        <ele>705.0</ele>
        <time>2020-09-15T04:32:23Z</time>
      </trkpt>
      <trkpt lat="30.698322" lon="34.786681">
        <ele>705.4</ele>
        <time>2020-09-15T04:32:25Z</time>
      </trkpt>
      <trkpt lat="30.698289" lon="34.786616">
        <ele>705.4</ele>
        <time>2020-09-15T04:32:27Z</time>
      </trkpt>
      <trkpt lat="30.698268" lon="34.786586">
        <ele>705.4</ele>
        <time>2020-09-15T04:32:28Z</time>
      </trkpt>
      <trkpt lat="30.698180" lon="34.786435">
        <ele>706.0</ele>
        <time>2020-09-15T04:32:33Z</time>
      </trkpt>
      <trkpt lat="30.698160" lon="34.786412">
        <ele>706.2</ele>
        <time>2020-09-15T04:32:34Z</time>
      </trkpt>
      <trkpt lat="30.698109" lon="34.786364">
        <ele>706.4</ele>
        <time>2020-09-15T04:32:36Z</time>
      </trkpt>
      <trkpt lat="30.698091" lon="34.786341">
        <ele>706.4</ele>
        <time>2020-09-15T04:32:37Z</time>
      </trkpt>
      <trkpt lat="30.698044" lon="34.786266">
        <ele>705.6</ele>
        <time>2020-09-15T04:32:40Z</time>
      </trkpt>
      <trkpt lat="30.698021" lon="34.786225">
        <ele>705.8</ele>
        <time>2020-09-15T04:32:42Z</time>
      </trkpt>
      <trkpt lat="30.697974" lon="34.786137">
        <ele>707.0</ele>
        <time>2020-09-15T04:32:46Z</time>
      </trkpt>
      <trkpt lat="30.697959" lon="34.786115">
        <ele>707.0</ele>
        <time>2020-09-15T04:32:47Z</time>
      </trkpt>
      <trkpt lat="30.697916" lon="34.786040">
        <ele>707.2</ele>
        <time>2020-09-15T04:32:50Z</time>
      </trkpt>
      <trkpt lat="30.697867" lon="34.785951">
        <ele>707.8</ele>
        <time>2020-09-15T04:32:54Z</time>
      </trkpt>
      <trkpt lat="30.697854" lon="34.785925">
        <ele>707.8</ele>
        <time>2020-09-15T04:32:55Z</time>
      </trkpt>
      <trkpt lat="30.697783" lon="34.785797">
        <ele>708.2</ele>
        <time>2020-09-15T04:33:00Z</time>
      </trkpt>
      <trkpt lat="30.697727" lon="34.785725">
        <ele>708.4</ele>
        <time>2020-09-15T04:33:03Z</time>
      </trkpt>
      <trkpt lat="30.697659" lon="34.785646">
        <ele>708.2</ele>
        <time>2020-09-15T04:33:06Z</time>
      </trkpt>
      <trkpt lat="30.697583" lon="34.785537">
        <ele>707.8</ele>
        <time>2020-09-15T04:33:09Z</time>
      </trkpt>
      <trkpt lat="30.697512" lon="34.785368">
        <ele>707.4</ele>
        <time>2020-09-15T04:33:14Z</time>
      </trkpt>
      <trkpt lat="30.697496" lon="34.785342">
        <ele>707.4</ele>
        <time>2020-09-15T04:33:15Z</time>
      </trkpt>
      <trkpt lat="30.697446" lon="34.785292">
        <ele>707.2</ele>
        <time>2020-09-15T04:33:17Z</time>
      </trkpt>
      <trkpt lat="30.697368" lon="34.785234">
        <ele>706.6</ele>
        <time>2020-09-15T04:33:20Z</time>
      </trkpt>
      <trkpt lat="30.697275" lon="34.785158">
        <ele>706.4</ele>
        <time>2020-09-15T04:33:24Z</time>
      </trkpt>
      <trkpt lat="30.697214" lon="34.785096">
        <ele>706.6</ele>
        <time>2020-09-15T04:33:27Z</time>
      </trkpt>
      <trkpt lat="30.697172" lon="34.785060">
        <ele>706.8</ele>
        <time>2020-09-15T04:33:30Z</time>
      </trkpt>
      <trkpt lat="30.697142" lon="34.785047">
        <ele>707.0</ele>
        <time>2020-09-15T04:33:32Z</time>
      </trkpt>
      <trkpt lat="30.697092" lon="34.785048">
        <ele>708.2</ele>
        <time>2020-09-15T04:33:35Z</time>
      </trkpt>
      <trkpt lat="30.697027" lon="34.785072">
        <ele>708.8</ele>
        <time>2020-09-15T04:33:39Z</time>
      </trkpt>
      <trkpt lat="30.696954" lon="34.785096">
        <ele>709.2</ele>
        <time>2020-09-15T04:33:43Z</time>
      </trkpt>
      <trkpt lat="30.696917" lon="34.785100">
        <ele>709.4</ele>
        <time>2020-09-15T04:33:45Z</time>
      </trkpt>
      <trkpt lat="30.696901" lon="34.785103">
        <ele>709.8</ele>
        <time>2020-09-15T04:33:46Z</time>
      </trkpt>
      <trkpt lat="30.696889" lon="34.785108">
        <ele>709.8</ele>
        <time>2020-09-15T04:33:47Z</time>
      </trkpt>
      <trkpt lat="30.696836" lon="34.785170">
        <ele>710.0</ele>
        <time>2020-09-15T04:33:51Z</time>
      </trkpt>
      <trkpt lat="30.696821" lon="34.785201">
        <ele>710.0</ele>
        <time>2020-09-15T04:33:52Z</time>
      </trkpt>
      <trkpt lat="30.696779" lon="34.785322">
        <ele>709.6</ele>
        <time>2020-09-15T04:33:57Z</time>
      </trkpt>
      <trkpt lat="30.696768" lon="34.785367">
        <ele>709.4</ele>
        <time>2020-09-15T04:34:03Z</time>
      </trkpt>
      <trkpt lat="30.696769" lon="34.785372">
        <ele>709.2</ele>
        <time>2020-09-15T04:34:07Z</time>
      </trkpt>
      <trkpt lat="30.696772" lon="34.785371">
        <ele>709.2</ele>
        <time>2020-09-15T04:34:09Z</time>
      </trkpt>
      <trkpt lat="30.696781" lon="34.785358">
        <ele>709.0</ele>
        <time>2020-09-15T04:34:14Z</time>
      </trkpt>
      <trkpt lat="30.696789" lon="34.785364">
        <ele>709.0</ele>
        <time>2020-09-15T04:34:17Z</time>
      </trkpt>
      <trkpt lat="30.696789" lon="34.785367">
        <ele>709.0</ele>
        <time>2020-09-15T04:34:18Z</time>
      </trkpt>
      <trkpt lat="30.696781" lon="34.785370">
        <ele>709.4</ele>
        <time>2020-09-15T04:34:27Z</time>
      </trkpt>
      <trkpt lat="30.696776" lon="34.785369">
        <ele>709.0</ele>
        <time>2020-09-15T04:34:31Z</time>
      </trkpt>
      <trkpt lat="30.696777" lon="34.785364">
        <ele>709.0</ele>
        <time>2020-09-15T04:34:33Z</time>
      </trkpt>
      <trkpt lat="30.696779" lon="34.785364">
        <ele>708.8</ele>
        <time>2020-09-15T04:34:36Z</time>
      </trkpt>
      <trkpt lat="30.696771" lon="34.785362">
        <ele>709.2</ele>
        <time>2020-09-15T04:34:41Z</time>
      </trkpt>
      <trkpt lat="30.696777" lon="34.785354">
        <ele>709.0</ele>
        <time>2020-09-15T04:34:44Z</time>
      </trkpt>
      <trkpt lat="30.696781" lon="34.785359">
        <ele>708.8</ele>
        <time>2020-09-15T04:34:46Z</time>
      </trkpt>
      <trkpt lat="30.696789" lon="34.785352">
        <ele>708.8</ele>
        <time>2020-09-15T04:34:48Z</time>
      </trkpt>
      <trkpt lat="30.696795" lon="34.785374">
        <ele>709.0</ele>
        <time>2020-09-15T04:34:51Z</time>
      </trkpt>
      <trkpt lat="30.696792" lon="34.785363">
        <ele>709.2</ele>
        <time>2020-09-15T04:34:56Z</time>
      </trkpt>
      <trkpt lat="30.696798" lon="34.785369">
        <ele>709.6</ele>
        <time>2020-09-15T04:34:59Z</time>
      </trkpt>
      <trkpt lat="30.696782" lon="34.785371">
        <ele>709.4</ele>
        <time>2020-09-15T04:35:02Z</time>
      </trkpt>
      <trkpt lat="30.696775" lon="34.785363">
        <ele>709.4</ele>
        <time>2020-09-15T04:35:03Z</time>
      </trkpt>
      <trkpt lat="30.696760" lon="34.785350">
        <ele>709.4</ele>
        <time>2020-09-15T04:35:06Z</time>
      </trkpt>
      <trkpt lat="30.696760" lon="34.785347">
        <ele>710.0</ele>
        <time>2020-09-15T04:35:09Z</time>
      </trkpt>
      <trkpt lat="30.696746" lon="34.785332">
        <ele>709.6</ele>
        <time>2020-09-15T04:35:16Z</time>
      </trkpt>
      <trkpt lat="30.696741" lon="34.785331">
        <ele>709.6</ele>
        <time>2020-09-15T04:35:25Z</time>
      </trkpt>
      <trkpt lat="30.696701" lon="34.785296">
        <ele>709.4</ele>
        <time>2020-09-15T04:35:33Z</time>
      </trkpt>
      <trkpt lat="30.696715" lon="34.785318">
        <ele>709.0</ele>
        <time>2020-09-15T04:35:41Z</time>
      </trkpt>
      <trkpt lat="30.696759" lon="34.785379">
        <ele>708.8</ele>
        <time>2020-09-15T04:35:48Z</time>
      </trkpt>
      <trkpt lat="30.696773" lon="34.785382">
        <ele>708.6</ele>
        <time>2020-09-15T04:35:50Z</time>
      </trkpt>
      <trkpt lat="30.696778" lon="34.785384">
        <ele>708.8</ele>
        <time>2020-09-15T04:35:52Z</time>
      </trkpt>
      <trkpt lat="30.696780" lon="34.785385">
        <ele>708.8</ele>
        <time>2020-09-15T04:35:54Z</time>
      </trkpt>
      <trkpt lat="30.696781" lon="34.785386">
        <ele>708.6</ele>
        <time>2020-09-15T04:35:55Z</time>
      </trkpt>
      <trkpt lat="30.696782" lon="34.785387">
        <ele>708.6</ele>
        <time>2020-09-15T04:35:56Z</time>
      </trkpt>
      <trkpt lat="30.696784" lon="34.785388">
        <ele>708.6</ele>
        <time>2020-09-15T04:35:57Z</time>
      </trkpt>
      <trkpt lat="30.696785" lon="34.785390">
        <ele>708.6</ele>
        <time>2020-09-15T04:35:58Z</time>
      </trkpt>
      <trkpt lat="30.696789" lon="34.785396">
        <ele>708.4</ele>
        <time>2020-09-15T04:36:01Z</time>
      </trkpt>
      <trkpt lat="30.696791" lon="34.785399">
        <ele>708.6</ele>
        <time>2020-09-15T04:36:03Z</time>
      </trkpt>
      <trkpt lat="30.696788" lon="34.785403">
        <ele>708.8</ele>
        <time>2020-09-15T04:36:05Z</time>
      </trkpt>
      <trkpt lat="30.696790" lon="34.785411">
        <ele>708.4</ele>
        <time>2020-09-15T04:36:11Z</time>
      </trkpt>
      <trkpt lat="30.696788" lon="34.785418">
        <ele>708.4</ele>
        <time>2020-09-15T04:36:12Z</time>
      </trkpt>
      <trkpt lat="30.696770" lon="34.785463">
        <ele>708.6</ele>
        <time>2020-09-15T04:36:15Z</time>
      </trkpt>
      <trkpt lat="30.696758" lon="34.785491">
        <ele>708.8</ele>
        <time>2020-09-15T04:36:16Z</time>
      </trkpt>
      <trkpt lat="30.696696" lon="34.785558">
        <ele>708.8</ele>
        <time>2020-09-15T04:36:20Z</time>
      </trkpt>
      <trkpt lat="30.696679" lon="34.785576">
        <ele>709.2</ele>
        <time>2020-09-15T04:36:21Z</time>
      </trkpt>
      <trkpt lat="30.696652" lon="34.785625">
        <ele>708.0</ele>
        <time>2020-09-15T04:36:23Z</time>
      </trkpt>
      <trkpt lat="30.696634" lon="34.785696">
        <ele>707.4</ele>
        <time>2020-09-15T04:36:25Z</time>
      </trkpt>
      <trkpt lat="30.696594" lon="34.785863">
        <ele>707.4</ele>
        <time>2020-09-15T04:36:29Z</time>
      </trkpt>
      <trkpt lat="30.696576" lon="34.785900">
        <ele>707.4</ele>
        <time>2020-09-15T04:36:30Z</time>
      </trkpt>
      <trkpt lat="30.696518" lon="34.785990">
        <ele>707.2</ele>
        <time>2020-09-15T04:36:33Z</time>
      </trkpt>
      <trkpt lat="30.696484" lon="34.786040">
        <ele>707.2</ele>
        <time>2020-09-15T04:36:35Z</time>
      </trkpt>
      <trkpt lat="30.696382" lon="34.786120">
        <ele>707.4</ele>
        <time>2020-09-15T04:36:39Z</time>
      </trkpt>
      <trkpt lat="30.696331" lon="34.786135">
        <ele>707.4</ele>
        <time>2020-09-15T04:36:41Z</time>
      </trkpt>
      <trkpt lat="30.696257" lon="34.786123">
        <ele>707.6</ele>
        <time>2020-09-15T04:36:44Z</time>
      </trkpt>
      <trkpt lat="30.696209" lon="34.786111">
        <ele>708.0</ele>
        <time>2020-09-15T04:36:46Z</time>
      </trkpt>
      <trkpt lat="30.696082" lon="34.786099">
        <ele>708.8</ele>
        <time>2020-09-15T04:36:51Z</time>
      </trkpt>
      <trkpt lat="30.696056" lon="34.786104">
        <ele>708.8</ele>
        <time>2020-09-15T04:36:52Z</time>
      </trkpt>
      <trkpt lat="30.696034" lon="34.786114">
        <ele>709.0</ele>
        <time>2020-09-15T04:36:53Z</time>
      </trkpt>
      <trkpt lat="30.696015" lon="34.786125">
        <ele>709.0</ele>
        <time>2020-09-15T04:36:54Z</time>
      </trkpt>
      <trkpt lat="30.695926" lon="34.786176">
        <ele>709.8</ele>
        <time>2020-09-15T04:36:58Z</time>
      </trkpt>
      <trkpt lat="30.695821" lon="34.786156">
        <ele>709.8</ele>
        <time>2020-09-15T04:37:02Z</time>
      </trkpt>
      <trkpt lat="30.695753" lon="34.786161">
        <ele>710.0</ele>
        <time>2020-09-15T04:37:05Z</time>
      </trkpt>
      <trkpt lat="30.695731" lon="34.786171">
        <ele>710.2</ele>
        <time>2020-09-15T04:37:06Z</time>
      </trkpt>
      <trkpt lat="30.695671" lon="34.786215">
        <ele>710.8</ele>
        <time>2020-09-15T04:37:09Z</time>
      </trkpt>
      <trkpt lat="30.695615" lon="34.786245">
        <ele>711.0</ele>
        <time>2020-09-15T04:37:12Z</time>
      </trkpt>
      <trkpt lat="30.695592" lon="34.786247">
        <ele>711.2</ele>
        <time>2020-09-15T04:37:13Z</time>
      </trkpt>
      <trkpt lat="30.695528" lon="34.786241">
        <ele>712.0</ele>
        <time>2020-09-15T04:37:16Z</time>
      </trkpt>
      <trkpt lat="30.695488" lon="34.786244">
        <ele>712.2</ele>
        <time>2020-09-15T04:37:18Z</time>
      </trkpt>
      <trkpt lat="30.695448" lon="34.786249">
        <ele>712.2</ele>
        <time>2020-09-15T04:37:20Z</time>
      </trkpt>
      <trkpt lat="30.695429" lon="34.786254">
        <ele>712.4</ele>
        <time>2020-09-15T04:37:21Z</time>
      </trkpt>
      <trkpt lat="30.695334" lon="34.786273">
        <ele>712.8</ele>
        <time>2020-09-15T04:37:25Z</time>
      </trkpt>
      <trkpt lat="30.695218" lon="34.786297">
        <ele>713.2</ele>
        <time>2020-09-15T04:37:30Z</time>
      </trkpt>
      <trkpt lat="30.695163" lon="34.786323">
        <ele>713.2</ele>
        <time>2020-09-15T04:37:32Z</time>
      </trkpt>
      <trkpt lat="30.695134" lon="34.786337">
        <ele>713.0</ele>
        <time>2020-09-15T04:37:33Z</time>
      </trkpt>
      <trkpt lat="30.695034" lon="34.786343">
        <ele>713.0</ele>
        <time>2020-09-15T04:37:37Z</time>
      </trkpt>
      <trkpt lat="30.694990" lon="34.786309">
        <ele>713.4</ele>
        <time>2020-09-15T04:37:39Z</time>
      </trkpt>
      <trkpt lat="30.694969" lon="34.786286">
        <ele>713.6</ele>
        <time>2020-09-15T04:37:40Z</time>
      </trkpt>
      <trkpt lat="30.694948" lon="34.786274">
        <ele>713.6</ele>
        <time>2020-09-15T04:37:41Z</time>
      </trkpt>
      <trkpt lat="30.694813" lon="34.786248">
        <ele>713.4</ele>
        <time>2020-09-15T04:37:46Z</time>
      </trkpt>
      <trkpt lat="30.694748" lon="34.786245">
        <ele>713.6</ele>
        <time>2020-09-15T04:37:49Z</time>
      </trkpt>
      <trkpt lat="30.694734" lon="34.786259">
        <ele>713.6</ele>
        <time>2020-09-15T04:37:50Z</time>
      </trkpt>
      <trkpt lat="30.694709" lon="34.786367">
        <ele>713.4</ele>
        <time>2020-09-15T04:37:54Z</time>
      </trkpt>
      <trkpt lat="30.694760" lon="34.786432">
        <ele>712.6</ele>
        <time>2020-09-15T04:37:58Z</time>
      </trkpt>
      <trkpt lat="30.694822" lon="34.786498">
        <ele>713.4</ele>
        <time>2020-09-15T04:38:03Z</time>
      </trkpt>
      <trkpt lat="30.694826" lon="34.786509">
        <ele>713.4</ele>
        <time>2020-09-15T04:38:08Z</time>
      </trkpt>
      <trkpt lat="30.694824" lon="34.786517">
        <ele>713.4</ele>
        <time>2020-09-15T04:38:09Z</time>
      </trkpt>
      <trkpt lat="30.694805" lon="34.786598">
        <ele>713.8</ele>
        <time>2020-09-15T04:38:13Z</time>
      </trkpt>
      <trkpt lat="30.694783" lon="34.786720">
        <ele>714.0</ele>
        <time>2020-09-15T04:38:17Z</time>
      </trkpt>
      <trkpt lat="30.694745" lon="34.786861">
        <ele>714.4</ele>
        <time>2020-09-15T04:38:22Z</time>
      </trkpt>
      <trkpt lat="30.694728" lon="34.786884">
        <ele>714.4</ele>
        <time>2020-09-15T04:38:23Z</time>
      </trkpt>
      <trkpt lat="30.694631" lon="34.787050">
        <ele>715.2</ele>
        <time>2020-09-15T04:38:30Z</time>
      </trkpt>
      <trkpt lat="30.694526" lon="34.787174">
        <ele>715.4</ele>
        <time>2020-09-15T04:38:36Z</time>
      </trkpt>
      <trkpt lat="30.694509" lon="34.787186">
        <ele>715.6</ele>
        <time>2020-09-15T04:38:37Z</time>
      </trkpt>
      <trkpt lat="30.694463" lon="34.787228">
        <ele>716.6</ele>
        <time>2020-09-15T04:38:40Z</time>
      </trkpt>
      <trkpt lat="30.694401" lon="34.787295">
        <ele>717.0</ele>
        <time>2020-09-15T04:38:44Z</time>
      </trkpt>
      <trkpt lat="30.694387" lon="34.787316">
        <ele>716.8</ele>
        <time>2020-09-15T04:38:45Z</time>
      </trkpt>
      <trkpt lat="30.694330" lon="34.787438">
        <ele>717.2</ele>
        <time>2020-09-15T04:38:51Z</time>
      </trkpt>
      <trkpt lat="30.694279" lon="34.787452">
        <ele>717.8</ele>
        <time>2020-09-15T04:38:53Z</time>
      </trkpt>
      <trkpt lat="30.694244" lon="34.787481">
        <ele>717.8</ele>
        <time>2020-09-15T04:38:55Z</time>
      </trkpt>
      <trkpt lat="30.694237" lon="34.787500">
        <ele>717.6</ele>
        <time>2020-09-15T04:38:56Z</time>
      </trkpt>
      <trkpt lat="30.694224" lon="34.787568">
        <ele>717.4</ele>
        <time>2020-09-15T04:38:59Z</time>
      </trkpt>
      <trkpt lat="30.694196" lon="34.787624">
        <ele>717.2</ele>
        <time>2020-09-15T04:39:01Z</time>
      </trkpt>
      <trkpt lat="30.694172" lon="34.787679">
        <ele>717.6</ele>
        <time>2020-09-15T04:39:03Z</time>
      </trkpt>
      <trkpt lat="30.694141" lon="34.787760">
        <ele>717.8</ele>
        <time>2020-09-15T04:39:06Z</time>
      </trkpt>
      <trkpt lat="30.694070" lon="34.787864">
        <ele>718.4</ele>
        <time>2020-09-15T04:39:11Z</time>
      </trkpt>
      <trkpt lat="30.694031" lon="34.787917">
        <ele>718.6</ele>
        <time>2020-09-15T04:39:14Z</time>
      </trkpt>
      <trkpt lat="30.694020" lon="34.787940">
        <ele>718.8</ele>
        <time>2020-09-15T04:39:15Z</time>
      </trkpt>
      <trkpt lat="30.694008" lon="34.787965">
        <ele>718.8</ele>
        <time>2020-09-15T04:39:16Z</time>
      </trkpt>
      <trkpt lat="30.693981" lon="34.788014">
        <ele>719.0</ele>
        <time>2020-09-15T04:39:18Z</time>
      </trkpt>
      <trkpt lat="30.693942" lon="34.788080">
        <ele>719.2</ele>
        <time>2020-09-15T04:39:21Z</time>
      </trkpt>
      <trkpt lat="30.693881" lon="34.788174">
        <ele>719.4</ele>
        <time>2020-09-15T04:39:25Z</time>
      </trkpt>
      <trkpt lat="30.693855" lon="34.788265">
        <ele>719.8</ele>
        <time>2020-09-15T04:39:28Z</time>
      </trkpt>
      <trkpt lat="30.693831" lon="34.788312">
        <ele>720.0</ele>
        <time>2020-09-15T04:39:30Z</time>
      </trkpt>
      <trkpt lat="30.693717" lon="34.788342">
        <ele>720.4</ele>
        <time>2020-09-15T04:39:35Z</time>
      </trkpt>
      <trkpt lat="30.693667" lon="34.788323">
        <ele>720.4</ele>
        <time>2020-09-15T04:39:37Z</time>
      </trkpt>
      <trkpt lat="30.693590" lon="34.788326">
        <ele>720.6</ele>
        <time>2020-09-15T04:39:40Z</time>
      </trkpt>
      <trkpt lat="30.693515" lon="34.788340">
        <ele>721.0</ele>
        <time>2020-09-15T04:39:43Z</time>
      </trkpt>
      <trkpt lat="30.693408" lon="34.788329">
        <ele>721.4</ele>
        <time>2020-09-15T04:39:47Z</time>
      </trkpt>
      <trkpt lat="30.693364" lon="34.788325">
        <ele>721.8</ele>
        <time>2020-09-15T04:39:49Z</time>
      </trkpt>
      <trkpt lat="30.693343" lon="34.788328">
        <ele>722.0</ele>
        <time>2020-09-15T04:39:50Z</time>
      </trkpt>
      <trkpt lat="30.693298" lon="34.788341">
        <ele>722.2</ele>
        <time>2020-09-15T04:39:52Z</time>
      </trkpt>
      <trkpt lat="30.693275" lon="34.788349">
        <ele>722.2</ele>
        <time>2020-09-15T04:39:53Z</time>
      </trkpt>
      <trkpt lat="30.693253" lon="34.788352">
        <ele>722.4</ele>
        <time>2020-09-15T04:39:54Z</time>
      </trkpt>
      <trkpt lat="30.693196" lon="34.788348">
        <ele>723.0</ele>
        <time>2020-09-15T04:39:57Z</time>
      </trkpt>
      <trkpt lat="30.693156" lon="34.788347">
        <ele>723.2</ele>
        <time>2020-09-15T04:39:59Z</time>
      </trkpt>
      <trkpt lat="30.693089" lon="34.788371">
        <ele>723.2</ele>
        <time>2020-09-15T04:40:02Z</time>
      </trkpt>
      <trkpt lat="30.693006" lon="34.788393">
        <ele>723.0</ele>
        <time>2020-09-15T04:40:05Z</time>
      </trkpt>
      <trkpt lat="30.692792" lon="34.788490">
        <ele>723.6</ele>
        <time>2020-09-15T04:40:13Z</time>
      </trkpt>
      <trkpt lat="30.692705" lon="34.788557">
        <ele>723.8</ele>
        <time>2020-09-15T04:40:17Z</time>
      </trkpt>
      <trkpt lat="30.692649" lon="34.788623">
        <ele>724.0</ele>
        <time>2020-09-15T04:40:20Z</time>
      </trkpt>
      <trkpt lat="30.692558" lon="34.788668">
        <ele>724.4</ele>
        <time>2020-09-15T04:40:24Z</time>
      </trkpt>
      <trkpt lat="30.692536" lon="34.788673">
        <ele>724.6</ele>
        <time>2020-09-15T04:40:25Z</time>
      </trkpt>
      <trkpt lat="30.692405" lon="34.788644">
        <ele>724.8</ele>
        <time>2020-09-15T04:40:31Z</time>
      </trkpt>
      <trkpt lat="30.692294" lon="34.788638">
        <ele>725.4</ele>
        <time>2020-09-15T04:40:36Z</time>
      </trkpt>
      <trkpt lat="30.692266" lon="34.788636">
        <ele>725.4</ele>
        <time>2020-09-15T04:40:37Z</time>
      </trkpt>
      <trkpt lat="30.692164" lon="34.788617">
        <ele>724.8</ele>
        <time>2020-09-15T04:40:41Z</time>
      </trkpt>
      <trkpt lat="30.692138" lon="34.788622">
        <ele>724.6</ele>
        <time>2020-09-15T04:40:43Z</time>
      </trkpt>
      <trkpt lat="30.692129" lon="34.788632">
        <ele>724.6</ele>
        <time>2020-09-15T04:40:44Z</time>
      </trkpt>
      <trkpt lat="30.692138" lon="34.788656">
        <ele>724.6</ele>
        <time>2020-09-15T04:40:46Z</time>
      </trkpt>
      <trkpt lat="30.692139" lon="34.788685">
        <ele>725.0</ele>
        <time>2020-09-15T04:40:50Z</time>
      </trkpt>
      <trkpt lat="30.692140" lon="34.788685">
        <ele>725.4</ele>
        <time>2020-09-15T04:40:54Z</time>
      </trkpt>
      <trkpt lat="30.692131" lon="34.788699">
        <ele>725.0</ele>
        <time>2020-09-15T04:40:59Z</time>
      </trkpt>
      <trkpt lat="30.692136" lon="34.788701">
        <ele>725.0</ele>
        <time>2020-09-15T04:41:00Z</time>
      </trkpt>
      <trkpt lat="30.692141" lon="34.788703">
        <ele>725.0</ele>
        <time>2020-09-15T04:41:02Z</time>
      </trkpt>
      <trkpt lat="30.692146" lon="34.788713">
        <ele>725.2</ele>
        <time>2020-09-15T04:41:04Z</time>
      </trkpt>
      <trkpt lat="30.692190" lon="34.788736">
        <ele>725.2</ele>
        <time>2020-09-15T04:41:06Z</time>
      </trkpt>
      <trkpt lat="30.692201" lon="34.788749">
        <ele>725.4</ele>
        <time>2020-09-15T04:41:07Z</time>
      </trkpt>
      <trkpt lat="30.692261" lon="34.788793">
        <ele>725.6</ele>
        <time>2020-09-15T04:41:11Z</time>
      </trkpt>
      <trkpt lat="30.692319" lon="34.788828">
        <ele>725.6</ele>
        <time>2020-09-15T04:41:14Z</time>
      </trkpt>
      <trkpt lat="30.692388" lon="34.788867">
        <ele>725.0</ele>
        <time>2020-09-15T04:41:17Z</time>
      </trkpt>
      <trkpt lat="30.692461" lon="34.788913">
        <ele>724.2</ele>
        <time>2020-09-15T04:41:21Z</time>
      </trkpt>
      <trkpt lat="30.692482" lon="34.788924">
        <ele>724.2</ele>
        <time>2020-09-15T04:41:22Z</time>
      </trkpt>
      <trkpt lat="30.692521" lon="34.788942">
        <ele>724.2</ele>
        <time>2020-09-15T04:41:24Z</time>
      </trkpt>
      <trkpt lat="30.692537" lon="34.788944">
        <ele>724.2</ele>
        <time>2020-09-15T04:41:25Z</time>
      </trkpt>
      <trkpt lat="30.692571" lon="34.788945">
        <ele>724.4</ele>
        <time>2020-09-15T04:41:27Z</time>
      </trkpt>
      <trkpt lat="30.692625" lon="34.788938">
        <ele>724.8</ele>
        <time>2020-09-15T04:41:32Z</time>
      </trkpt>
      <trkpt lat="30.692630" lon="34.788936">
        <ele>725.0</ele>
        <time>2020-09-15T04:41:34Z</time>
      </trkpt>
      <trkpt lat="30.692635" lon="34.788938">
        <ele>725.0</ele>
        <time>2020-09-15T04:41:36Z</time>
      </trkpt>
      <trkpt lat="30.692645" lon="34.788934">
        <ele>725.0</ele>
        <time>2020-09-15T04:41:38Z</time>
      </trkpt>
      <trkpt lat="30.692659" lon="34.788918">
        <ele>725.0</ele>
        <time>2020-09-15T04:41:40Z</time>
      </trkpt>
      <trkpt lat="30.692664" lon="34.788917">
        <ele>725.0</ele>
        <time>2020-09-15T04:41:44Z</time>
      </trkpt>
      <trkpt lat="30.692670" lon="34.788907">
        <ele>725.0</ele>
        <time>2020-09-15T04:41:46Z</time>
      </trkpt>
      <trkpt lat="30.692693" lon="34.788868">
        <ele>725.0</ele>
        <time>2020-09-15T04:41:52Z</time>
      </trkpt>
      <trkpt lat="30.692692" lon="34.788884">
        <ele>724.8</ele>
        <time>2020-09-15T04:41:57Z</time>
      </trkpt>
      <trkpt lat="30.692694" lon="34.788886">
        <ele>724.8</ele>
        <time>2020-09-15T04:42:00Z</time>
      </trkpt>
      <trkpt lat="30.692692" lon="34.788888">
        <ele>725.2</ele>
        <time>2020-09-15T04:42:05Z</time>
      </trkpt>
      <trkpt lat="30.692691" lon="34.788888">
        <ele>725.2</ele>
        <time>2020-09-15T04:42:07Z</time>
      </trkpt>
      <trkpt lat="30.692689" lon="34.788887">
        <ele>725.2</ele>
        <time>2020-09-15T04:42:08Z</time>
      </trkpt>
      <trkpt lat="30.692684" lon="34.788883">
        <ele>725.2</ele>
        <time>2020-09-15T04:42:11Z</time>
      </trkpt>
      <trkpt lat="30.692679" lon="34.788885">
        <ele>725.0</ele>
        <time>2020-09-15T04:42:14Z</time>
      </trkpt>
      <trkpt lat="30.692682" lon="34.788884">
        <ele>725.0</ele>
        <time>2020-09-15T04:42:19Z</time>
      </trkpt>
      <trkpt lat="30.692683" lon="34.788887">
        <ele>724.8</ele>
        <time>2020-09-15T04:42:22Z</time>
      </trkpt>
      <trkpt lat="30.692663" lon="34.788894">
        <ele>724.8</ele>
        <time>2020-09-15T04:42:30Z</time>
      </trkpt>
      <trkpt lat="30.692668" lon="34.788895">
        <ele>724.8</ele>
        <time>2020-09-15T04:42:33Z</time>
      </trkpt>
      <trkpt lat="30.692669" lon="34.788895">
        <ele>724.6</ele>
        <time>2020-09-15T04:42:39Z</time>
      </trkpt>
      <trkpt lat="30.692669" lon="34.788896">
        <ele>725.0</ele>
        <time>2020-09-15T04:42:45Z</time>
      </trkpt>
      <trkpt lat="30.692674" lon="34.788898">
        <ele>724.8</ele>
        <time>2020-09-15T04:42:52Z</time>
      </trkpt>
      <trkpt lat="30.692673" lon="34.788900">
        <ele>725.0</ele>
        <time>2020-09-15T04:42:58Z</time>
      </trkpt>
      <trkpt lat="30.692674" lon="34.788898">
        <ele>725.0</ele>
        <time>2020-09-15T04:43:01Z</time>
      </trkpt>
      <trkpt lat="30.692680" lon="34.788890">
        <ele>725.2</ele>
        <time>2020-09-15T04:43:05Z</time>
      </trkpt>
      <trkpt lat="30.692681" lon="34.788884">
        <ele>726.2</ele>
        <time>2020-09-15T04:43:07Z</time>
      </trkpt>
      <trkpt lat="30.692679" lon="34.788883">
        <ele>726.2</ele>
        <time>2020-09-15T04:43:08Z</time>
      </trkpt>
      <trkpt lat="30.692673" lon="34.788884">
        <ele>726.6</ele>
        <time>2020-09-15T04:43:10Z</time>
      </trkpt>
      <trkpt lat="30.692666" lon="34.788886">
        <ele>724.8</ele>
        <time>2020-09-15T04:43:14Z</time>
      </trkpt>
      <trkpt lat="30.692668" lon="34.788884">
        <ele>725.4</ele>
        <time>2020-09-15T04:43:16Z</time>
      </trkpt>
      <trkpt lat="30.692676" lon="34.788880">
        <ele>725.2</ele>
        <time>2020-09-15T04:43:17Z</time>
      </trkpt>
      <trkpt lat="30.692744" lon="34.788843">
        <ele>725.0</ele>
        <time>2020-09-15T04:43:21Z</time>
      </trkpt>
      <trkpt lat="30.692793" lon="34.788830">
        <ele>724.8</ele>
        <time>2020-09-15T04:43:23Z</time>
      </trkpt>
      <trkpt lat="30.692825" lon="34.788823">
        <ele>724.8</ele>
        <time>2020-09-15T04:43:24Z</time>
      </trkpt>
      <trkpt lat="30.692856" lon="34.788820">
        <ele>725.0</ele>
        <time>2020-09-15T04:43:25Z</time>
      </trkpt>
      <trkpt lat="30.692895" lon="34.788821">
        <ele>724.8</ele>
        <time>2020-09-15T04:43:26Z</time>
      </trkpt>
      <trkpt lat="30.692970" lon="34.788851">
        <ele>724.8</ele>
        <time>2020-09-15T04:43:29Z</time>
      </trkpt>
      <trkpt lat="30.693020" lon="34.788879">
        <ele>725.0</ele>
        <time>2020-09-15T04:43:31Z</time>
      </trkpt>
      <trkpt lat="30.693190" lon="34.788957">
        <ele>724.8</ele>
        <time>2020-09-15T04:43:36Z</time>
      </trkpt>
      <trkpt lat="30.693250" lon="34.789102">
        <ele>724.2</ele>
        <time>2020-09-15T04:43:40Z</time>
      </trkpt>
      <trkpt lat="30.693232" lon="34.789322">
        <ele>724.4</ele>
        <time>2020-09-15T04:43:46Z</time>
      </trkpt>
      <trkpt lat="30.693177" lon="34.789476">
        <ele>724.6</ele>
        <time>2020-09-15T04:43:51Z</time>
      </trkpt>
      <trkpt lat="30.693167" lon="34.789511">
        <ele>724.6</ele>
        <time>2020-09-15T04:43:52Z</time>
      </trkpt>
      <trkpt lat="30.693146" lon="34.789569">
        <ele>724.6</ele>
        <time>2020-09-15T04:43:54Z</time>
      </trkpt>
      <trkpt lat="30.693120" lon="34.789622">
        <ele>724.6</ele>
        <time>2020-09-15T04:43:56Z</time>
      </trkpt>
      <trkpt lat="30.693099" lon="34.789654">
        <ele>724.8</ele>
        <time>2020-09-15T04:43:58Z</time>
      </trkpt>
      <trkpt lat="30.693079" lon="34.789714">
        <ele>725.4</ele>
        <time>2020-09-15T04:44:02Z</time>
      </trkpt>
      <trkpt lat="30.693078" lon="34.789719">
        <ele>725.4</ele>
        <time>2020-09-15T04:44:03Z</time>
      </trkpt>
      <trkpt lat="30.693078" lon="34.789714">
        <ele>725.4</ele>
        <time>2020-09-15T04:44:04Z</time>
      </trkpt>
      <trkpt lat="30.693078" lon="34.789708">
        <ele>725.4</ele>
        <time>2020-09-15T04:44:08Z</time>
      </trkpt>
      <trkpt lat="30.693062" lon="34.789712">
        <ele>725.4</ele>
        <time>2020-09-15T04:44:13Z</time>
      </trkpt>
      <trkpt lat="30.693062" lon="34.789713">
        <ele>725.4</ele>
        <time>2020-09-15T04:44:14Z</time>
      </trkpt>
      <trkpt lat="30.693063" lon="34.789711">
        <ele>725.4</ele>
        <time>2020-09-15T04:44:15Z</time>
      </trkpt>
      <trkpt lat="30.693076" lon="34.789703">
        <ele>725.4</ele>
        <time>2020-09-15T04:44:16Z</time>
      </trkpt>
      <trkpt lat="30.693086" lon="34.789699">
        <ele>725.4</ele>
        <time>2020-09-15T04:44:17Z</time>
      </trkpt>
      <trkpt lat="30.693093" lon="34.789697">
        <ele>725.4</ele>
        <time>2020-09-15T04:44:19Z</time>
      </trkpt>
      <trkpt lat="30.693091" lon="34.789687">
        <ele>725.4</ele>
        <time>2020-09-15T04:44:21Z</time>
      </trkpt>
      <trkpt lat="30.693081" lon="34.789680">
        <ele>725.4</ele>
        <time>2020-09-15T04:44:24Z</time>
      </trkpt>
      <trkpt lat="30.693085" lon="34.789673">
        <ele>725.4</ele>
        <time>2020-09-15T04:44:29Z</time>
      </trkpt>
      <trkpt lat="30.693085" lon="34.789674">
        <ele>725.4</ele>
        <time>2020-09-15T04:44:30Z</time>
      </trkpt>
      <trkpt lat="30.693087" lon="34.789668">
        <ele>725.4</ele>
        <time>2020-09-15T04:44:37Z</time>
      </trkpt>
      <trkpt lat="30.693094" lon="34.789671">
        <ele>725.4</ele>
        <time>2020-09-15T04:44:41Z</time>
      </trkpt>
      <trkpt lat="30.693088" lon="34.789680">
        <ele>725.4</ele>
        <time>2020-09-15T04:44:46Z</time>
      </trkpt>
      <trkpt lat="30.693100" lon="34.789697">
        <ele>725.4</ele>
        <time>2020-09-15T04:44:57Z</time>
      </trkpt>
      <trkpt lat="30.693090" lon="34.789702">
        <ele>725.4</ele>
        <time>2020-09-15T04:45:04Z</time>
      </trkpt>
      <trkpt lat="30.693086" lon="34.789704">
        <ele>725.4</ele>
        <time>2020-09-15T04:45:08Z</time>
      </trkpt>
      <trkpt lat="30.693085" lon="34.789700">
        <ele>725.4</ele>
        <time>2020-09-15T04:45:11Z</time>
      </trkpt>
      <trkpt lat="30.693086" lon="34.789698">
        <ele>725.4</ele>
        <time>2020-09-15T04:45:12Z</time>
      </trkpt>
      <trkpt lat="30.693083" lon="34.789698">
        <ele>725.4</ele>
        <time>2020-09-15T04:45:18Z</time>
      </trkpt>
      <trkpt lat="30.693083" lon="34.789702">
        <ele>725.4</ele>
        <time>2020-09-15T04:45:20Z</time>
      </trkpt>
      <trkpt lat="30.693083" lon="34.789700">
        <ele>725.4</ele>
        <time>2020-09-15T04:45:23Z</time>
      </trkpt>
      <trkpt lat="30.693084" lon="34.789702">
        <ele>725.4</ele>
        <time>2020-09-15T04:45:26Z</time>
      </trkpt>
      <trkpt lat="30.693084" lon="34.789702">
        <ele>725.4</ele>
        <time>2020-09-15T04:45:31Z</time>
      </trkpt>
      <trkpt lat="30.693086" lon="34.789696">
        <ele>725.4</ele>
        <time>2020-09-15T04:45:34Z</time>
      </trkpt>
      <trkpt lat="30.693086" lon="34.789687">
        <ele>725.4</ele>
        <time>2020-09-15T04:45:39Z</time>
      </trkpt>
      <trkpt lat="30.693088" lon="34.789685">
        <ele>725.4</ele>
        <time>2020-09-15T04:45:42Z</time>
      </trkpt>
      <trkpt lat="30.693089" lon="34.789682">
        <ele>725.4</ele>
        <time>2020-09-15T04:45:43Z</time>
      </trkpt>
      <trkpt lat="30.693088" lon="34.789667">
        <ele>725.4</ele>
        <time>2020-09-15T04:45:52Z</time>
      </trkpt>
      <trkpt lat="30.693088" lon="34.789666">
        <ele>725.4</ele>
        <time>2020-09-15T04:45:53Z</time>
      </trkpt>
      <trkpt lat="30.693089" lon="34.789665">
        <ele>725.4</ele>
        <time>2020-09-15T04:45:56Z</time>
      </trkpt>
      <trkpt lat="30.693090" lon="34.789667">
        <ele>725.4</ele>
        <time>2020-09-15T04:46:04Z</time>
      </trkpt>
      <trkpt lat="30.693090" lon="34.789670">
        <ele>725.4</ele>
        <time>2020-09-15T04:46:08Z</time>
      </trkpt>
      <trkpt lat="30.693090" lon="34.789672">
        <ele>725.4</ele>
        <time>2020-09-15T04:46:12Z</time>
      </trkpt>
      <trkpt lat="30.693091" lon="34.789669">
        <ele>725.4</ele>
        <time>2020-09-15T04:46:14Z</time>
      </trkpt>
      <trkpt lat="30.693092" lon="34.789669">
        <ele>725.4</ele>
        <time>2020-09-15T04:46:18Z</time>
      </trkpt>
      <trkpt lat="30.693092" lon="34.789672">
        <ele>725.4</ele>
        <time>2020-09-15T04:46:23Z</time>
      </trkpt>
      <trkpt lat="30.693086" lon="34.789690">
        <ele>725.4</ele>
        <time>2020-09-15T04:46:33Z</time>
      </trkpt>
      <trkpt lat="30.693086" lon="34.789671">
        <ele>725.4</ele>
        <time>2020-09-15T04:46:37Z</time>
      </trkpt>
      <trkpt lat="30.693086" lon="34.789668">
        <ele>725.4</ele>
        <time>2020-09-15T04:46:40Z</time>
      </trkpt>
      <trkpt lat="30.693085" lon="34.789668">
        <ele>725.4</ele>
        <time>2020-09-15T04:46:42Z</time>
      </trkpt>
      <trkpt lat="30.693085" lon="34.789669">
        <ele>725.4</ele>
        <time>2020-09-15T04:46:43Z</time>
      </trkpt>
      <trkpt lat="30.693083" lon="34.789674">
        <ele>725.4</ele>
        <time>2020-09-15T04:46:45Z</time>
      </trkpt>
      <trkpt lat="30.693101" lon="34.789679">
        <ele>725.4</ele>
        <time>2020-09-15T04:46:49Z</time>
      </trkpt>
      <trkpt lat="30.693104" lon="34.789681">
        <ele>725.4</ele>
        <time>2020-09-15T04:46:54Z</time>
      </trkpt>
      <trkpt lat="30.693097" lon="34.789703">
        <ele>725.4</ele>
        <time>2020-09-15T04:46:57Z</time>
      </trkpt>
      <trkpt lat="30.693082" lon="34.789739">
        <ele>725.4</ele>
        <time>2020-09-15T04:46:59Z</time>
      </trkpt>
      <trkpt lat="30.693050" lon="34.789816">
        <ele>725.6</ele>
        <time>2020-09-15T04:47:02Z</time>
      </trkpt>
      <trkpt lat="30.693026" lon="34.789870">
        <ele>725.8</ele>
        <time>2020-09-15T04:47:04Z</time>
      </trkpt>
      <trkpt lat="30.693007" lon="34.789925">
        <ele>726.2</ele>
        <time>2020-09-15T04:47:06Z</time>
      </trkpt>
      <trkpt lat="30.692984" lon="34.790009">
        <ele>726.6</ele>
        <time>2020-09-15T04:47:09Z</time>
      </trkpt>
      <trkpt lat="30.692966" lon="34.790061">
        <ele>726.6</ele>
        <time>2020-09-15T04:47:11Z</time>
      </trkpt>
      <trkpt lat="30.692944" lon="34.790116">
        <ele>726.8</ele>
        <time>2020-09-15T04:47:13Z</time>
      </trkpt>
      <trkpt lat="30.692930" lon="34.790143">
        <ele>726.8</ele>
        <time>2020-09-15T04:47:14Z</time>
      </trkpt>
      <trkpt lat="30.692902" lon="34.790185">
        <ele>727.0</ele>
        <time>2020-09-15T04:47:16Z</time>
      </trkpt>
      <trkpt lat="30.692833" lon="34.790280">
        <ele>727.8</ele>
        <time>2020-09-15T04:47:21Z</time>
      </trkpt>
      <trkpt lat="30.692821" lon="34.790300">
        <ele>727.8</ele>
        <time>2020-09-15T04:47:22Z</time>
      </trkpt>
      <trkpt lat="30.692799" lon="34.790342">
        <ele>728.0</ele>
        <time>2020-09-15T04:47:24Z</time>
      </trkpt>
      <trkpt lat="30.692778" lon="34.790390">
        <ele>728.4</ele>
        <time>2020-09-15T04:47:26Z</time>
      </trkpt>
      <trkpt lat="30.692721" lon="34.790506">
        <ele>729.0</ele>
        <time>2020-09-15T04:47:31Z</time>
      </trkpt>
      <trkpt lat="30.692711" lon="34.790530">
        <ele>729.0</ele>
        <time>2020-09-15T04:47:32Z</time>
      </trkpt>
      <trkpt lat="30.692639" lon="34.790691">
        <ele>729.8</ele>
        <time>2020-09-15T04:47:39Z</time>
      </trkpt>
      <trkpt lat="30.692615" lon="34.790746">
        <ele>730.2</ele>
        <time>2020-09-15T04:47:41Z</time>
      </trkpt>
      <trkpt lat="30.692579" lon="34.790814">
        <ele>730.6</ele>
        <time>2020-09-15T04:47:44Z</time>
      </trkpt>
      <trkpt lat="30.692557" lon="34.790857">
        <ele>730.4</ele>
        <time>2020-09-15T04:47:46Z</time>
      </trkpt>
      <trkpt lat="30.692456" lon="34.791000">
        <ele>730.8</ele>
        <time>2020-09-15T04:47:52Z</time>
      </trkpt>
      <trkpt lat="30.692421" lon="34.791024">
        <ele>731.4</ele>
        <time>2020-09-15T04:47:54Z</time>
      </trkpt>
      <trkpt lat="30.692385" lon="34.791056">
        <ele>731.6</ele>
        <time>2020-09-15T04:47:56Z</time>
      </trkpt>
      <trkpt lat="30.692312" lon="34.791100">
        <ele>732.0</ele>
        <time>2020-09-15T04:48:00Z</time>
      </trkpt>
      <trkpt lat="30.692274" lon="34.791115">
        <ele>732.4</ele>
        <time>2020-09-15T04:48:02Z</time>
      </trkpt>
      <trkpt lat="30.692165" lon="34.791160">
        <ele>733.2</ele>
        <time>2020-09-15T04:48:08Z</time>
      </trkpt>
      <trkpt lat="30.692128" lon="34.791169">
        <ele>733.4</ele>
        <time>2020-09-15T04:48:10Z</time>
      </trkpt>
      <trkpt lat="30.692058" lon="34.791182">
        <ele>734.4</ele>
        <time>2020-09-15T04:48:14Z</time>
      </trkpt>
      <trkpt lat="30.692043" lon="34.791185">
        <ele>734.4</ele>
        <time>2020-09-15T04:48:15Z</time>
      </trkpt>
      <trkpt lat="30.691987" lon="34.791247">
        <ele>735.0</ele>
        <time>2020-09-15T04:48:20Z</time>
      </trkpt>
      <trkpt lat="30.692018" lon="34.791344">
        <ele>735.4</ele>
        <time>2020-09-15T04:48:24Z</time>
      </trkpt>
      <trkpt lat="30.692033" lon="34.791361">
        <ele>735.4</ele>
        <time>2020-09-15T04:48:25Z</time>
      </trkpt>
      <trkpt lat="30.692093" lon="34.791391">
        <ele>735.2</ele>
        <time>2020-09-15T04:48:28Z</time>
      </trkpt>
      <trkpt lat="30.692214" lon="34.791511">
        <ele>735.4</ele>
        <time>2020-09-15T04:48:34Z</time>
      </trkpt>
      <trkpt lat="30.692231" lon="34.791530">
        <ele>735.6</ele>
        <time>2020-09-15T04:48:35Z</time>
      </trkpt>
      <trkpt lat="30.692327" lon="34.791567">
        <ele>735.6</ele>
        <time>2020-09-15T04:48:39Z</time>
      </trkpt>
      <trkpt lat="30.692466" lon="34.791462">
        <ele>735.4</ele>
        <time>2020-09-15T04:48:44Z</time>
      </trkpt>
      <trkpt lat="30.692645" lon="34.791359">
        <ele>735.4</ele>
        <time>2020-09-15T04:48:49Z</time>
      </trkpt>
      <trkpt lat="30.692793" lon="34.791245">
        <ele>734.6</ele>
        <time>2020-09-15T04:48:54Z</time>
      </trkpt>
      <trkpt lat="30.692821" lon="34.791232">
        <ele>734.6</ele>
        <time>2020-09-15T04:48:55Z</time>
      </trkpt>
      <trkpt lat="30.692891" lon="34.791209">
        <ele>734.8</ele>
        <time>2020-09-15T04:48:58Z</time>
      </trkpt>
      <trkpt lat="30.692929" lon="34.791173">
        <ele>734.8</ele>
        <time>2020-09-15T04:49:00Z</time>
      </trkpt>
      <trkpt lat="30.692951" lon="34.791125">
        <ele>734.8</ele>
        <time>2020-09-15T04:49:02Z</time>
      </trkpt>
      <trkpt lat="30.692966" lon="34.791076">
        <ele>734.6</ele>
        <time>2020-09-15T04:49:04Z</time>
      </trkpt>
      <trkpt lat="30.692970" lon="34.791062">
        <ele>734.6</ele>
        <time>2020-09-15T04:49:05Z</time>
      </trkpt>
      <trkpt lat="30.692969" lon="34.791055">
        <ele>734.4</ele>
        <time>2020-09-15T04:49:07Z</time>
      </trkpt>
      <trkpt lat="30.692965" lon="34.791054">
        <ele>734.2</ele>
        <time>2020-09-15T04:49:11Z</time>
      </trkpt>
      <trkpt lat="30.692957" lon="34.791048">
        <ele>734.4</ele>
        <time>2020-09-15T04:49:15Z</time>
      </trkpt>
      <trkpt lat="30.692956" lon="34.791050">
        <ele>734.4</ele>
        <time>2020-09-15T04:49:17Z</time>
      </trkpt>
      <trkpt lat="30.692960" lon="34.791039">
        <ele>734.4</ele>
        <time>2020-09-15T04:49:21Z</time>
      </trkpt>
      <trkpt lat="30.692961" lon="34.791028">
        <ele>734.8</ele>
        <time>2020-09-15T04:49:25Z</time>
      </trkpt>
      <trkpt lat="30.692959" lon="34.791021">
        <ele>734.8</ele>
        <time>2020-09-15T04:49:28Z</time>
      </trkpt>
      <trkpt lat="30.692944" lon="34.791005">
        <ele>734.6</ele>
        <time>2020-09-15T04:49:33Z</time>
      </trkpt>
      <trkpt lat="30.692954" lon="34.791024">
        <ele>734.8</ele>
        <time>2020-09-15T04:49:38Z</time>
      </trkpt>
      <trkpt lat="30.692955" lon="34.791019">
        <ele>734.6</ele>
        <time>2020-09-15T04:49:39Z</time>
      </trkpt>
      <trkpt lat="30.692981" lon="34.790981">
        <ele>734.2</ele>
        <time>2020-09-15T04:49:42Z</time>
      </trkpt>
      <trkpt lat="30.693030" lon="34.790939">
        <ele>734.4</ele>
        <time>2020-09-15T04:49:45Z</time>
      </trkpt>
      <trkpt lat="30.693071" lon="34.790911">
        <ele>734.6</ele>
        <time>2020-09-15T04:49:47Z</time>
      </trkpt>
      <trkpt lat="30.693109" lon="34.790884">
        <ele>735.2</ele>
        <time>2020-09-15T04:49:49Z</time>
      </trkpt>
      <trkpt lat="30.693157" lon="34.790835">
        <ele>735.6</ele>
        <time>2020-09-15T04:49:52Z</time>
      </trkpt>
      <trkpt lat="30.693202" lon="34.790789">
        <ele>735.8</ele>
        <time>2020-09-15T04:49:55Z</time>
      </trkpt>
      <trkpt lat="30.693302" lon="34.790709">
        <ele>735.8</ele>
        <time>2020-09-15T04:50:00Z</time>
      </trkpt>
      <trkpt lat="30.693324" lon="34.790698">
        <ele>736.0</ele>
        <time>2020-09-15T04:50:01Z</time>
      </trkpt>
      <trkpt lat="30.693351" lon="34.790691">
        <ele>736.0</ele>
        <time>2020-09-15T04:50:02Z</time>
      </trkpt>
      <trkpt lat="30.693478" lon="34.790684">
        <ele>736.2</ele>
        <time>2020-09-15T04:50:07Z</time>
      </trkpt>
      <trkpt lat="30.693526" lon="34.790703">
        <ele>736.2</ele>
        <time>2020-09-15T04:50:09Z</time>
      </trkpt>
      <trkpt lat="30.693587" lon="34.790742">
        <ele>736.6</ele>
        <time>2020-09-15T04:50:12Z</time>
      </trkpt>
      <trkpt lat="30.693606" lon="34.790755">
        <ele>736.8</ele>
        <time>2020-09-15T04:50:13Z</time>
      </trkpt>
      <trkpt lat="30.693700" lon="34.790802">
        <ele>737.8</ele>
        <time>2020-09-15T04:50:18Z</time>
      </trkpt>
      <trkpt lat="30.693723" lon="34.790801">
        <ele>738.0</ele>
        <time>2020-09-15T04:50:19Z</time>
      </trkpt>
      <trkpt lat="30.693797" lon="34.790758">
        <ele>738.4</ele>
        <time>2020-09-15T04:50:22Z</time>
      </trkpt>
      <trkpt lat="30.693839" lon="34.790713">
        <ele>738.8</ele>
        <time>2020-09-15T04:50:24Z</time>
      </trkpt>
      <trkpt lat="30.693870" lon="34.790642">
        <ele>739.0</ele>
        <time>2020-09-15T04:50:26Z</time>
      </trkpt>
      <trkpt lat="30.693884" lon="34.790565">
        <ele>739.2</ele>
        <time>2020-09-15T04:50:28Z</time>
      </trkpt>
      <trkpt lat="30.693891" lon="34.790337">
        <ele>739.8</ele>
        <time>2020-09-15T04:50:34Z</time>
      </trkpt>
      <trkpt lat="30.693886" lon="34.790278">
        <ele>740.2</ele>
        <time>2020-09-15T04:50:36Z</time>
      </trkpt>
      <trkpt lat="30.693872" lon="34.790162">
        <ele>740.4</ele>
        <time>2020-09-15T04:50:40Z</time>
      </trkpt>
      <trkpt lat="30.693885" lon="34.790137">
        <ele>740.6</ele>
        <time>2020-09-15T04:50:44Z</time>
      </trkpt>
      <trkpt lat="30.693892" lon="34.790145">
        <ele>740.8</ele>
        <time>2020-09-15T04:50:53Z</time>
      </trkpt>
      <trkpt lat="30.693849" lon="34.790129">
        <ele>740.4</ele>
        <time>2020-09-15T04:51:00Z</time>
      </trkpt>
      <trkpt lat="30.693846" lon="34.790122">
        <ele>740.4</ele>
        <time>2020-09-15T04:51:02Z</time>
      </trkpt>
      <trkpt lat="30.693850" lon="34.790082">
        <ele>740.6</ele>
        <time>2020-09-15T04:51:04Z</time>
      </trkpt>
      <trkpt lat="30.693863" lon="34.790036">
        <ele>741.2</ele>
        <time>2020-09-15T04:51:06Z</time>
      </trkpt>
      <trkpt lat="30.693894" lon="34.789958">
        <ele>741.6</ele>
        <time>2020-09-15T04:51:09Z</time>
      </trkpt>
      <trkpt lat="30.693985" lon="34.789763">
        <ele>742.0</ele>
        <time>2020-09-15T04:51:17Z</time>
      </trkpt>
      <trkpt lat="30.694013" lon="34.789714">
        <ele>742.2</ele>
        <time>2020-09-15T04:51:19Z</time>
      </trkpt>
      <trkpt lat="30.694027" lon="34.789693">
        <ele>742.2</ele>
        <time>2020-09-15T04:51:20Z</time>
      </trkpt>
      <trkpt lat="30.694066" lon="34.789629">
        <ele>742.4</ele>
        <time>2020-09-15T04:51:23Z</time>
      </trkpt>
      <trkpt lat="30.694104" lon="34.789600">
        <ele>742.4</ele>
        <time>2020-09-15T04:51:25Z</time>
      </trkpt>
      <trkpt lat="30.694124" lon="34.789605">
        <ele>742.4</ele>
        <time>2020-09-15T04:51:26Z</time>
      </trkpt>
      <trkpt lat="30.694119" lon="34.789639">
        <ele>742.2</ele>
        <time>2020-09-15T04:51:28Z</time>
      </trkpt>
      <trkpt lat="30.694107" lon="34.789656">
        <ele>742.2</ele>
        <time>2020-09-15T04:51:29Z</time>
      </trkpt>
      <trkpt lat="30.694079" lon="34.789697">
        <ele>742.2</ele>
        <time>2020-09-15T04:51:31Z</time>
      </trkpt>
      <trkpt lat="30.694035" lon="34.789797">
        <ele>742.2</ele>
        <time>2020-09-15T04:51:35Z</time>
      </trkpt>
      <trkpt lat="30.693989" lon="34.789985">
        <ele>742.6</ele>
        <time>2020-09-15T04:51:41Z</time>
      </trkpt>
      <trkpt lat="30.693982" lon="34.790055">
        <ele>742.8</ele>
        <time>2020-09-15T04:51:43Z</time>
      </trkpt>
      <trkpt lat="30.693980" lon="34.790092">
        <ele>743.4</ele>
        <time>2020-09-15T04:51:44Z</time>
      </trkpt>
      <trkpt lat="30.693989" lon="34.790256">
        <ele>743.6</ele>
        <time>2020-09-15T04:51:49Z</time>
      </trkpt>
      <trkpt lat="30.693996" lon="34.790287">
        <ele>743.4</ele>
        <time>2020-09-15T04:51:50Z</time>
      </trkpt>
      <trkpt lat="30.694034" lon="34.790414">
        <ele>744.0</ele>
        <time>2020-09-15T04:51:55Z</time>
      </trkpt>
      <trkpt lat="30.694070" lon="34.790542">
        <ele>744.4</ele>
        <time>2020-09-15T04:52:00Z</time>
      </trkpt>
      <trkpt lat="30.694079" lon="34.790595">
        <ele>744.8</ele>
        <time>2020-09-15T04:52:02Z</time>
      </trkpt>
      <trkpt lat="30.694082" lon="34.790622">
        <ele>745.2</ele>
        <time>2020-09-15T04:52:03Z</time>
      </trkpt>
      <trkpt lat="30.694082" lon="34.790648">
        <ele>745.6</ele>
        <time>2020-09-15T04:52:04Z</time>
      </trkpt>
      <trkpt lat="30.694085" lon="34.790670">
        <ele>745.6</ele>
        <time>2020-09-15T04:52:05Z</time>
      </trkpt>
      <trkpt lat="30.694084" lon="34.790720">
        <ele>745.8</ele>
        <time>2020-09-15T04:52:07Z</time>
      </trkpt>
      <trkpt lat="30.694062" lon="34.790780">
        <ele>746.0</ele>
        <time>2020-09-15T04:52:09Z</time>
      </trkpt>
      <trkpt lat="30.693972" lon="34.790893">
        <ele>746.2</ele>
        <time>2020-09-15T04:52:14Z</time>
      </trkpt>
      <trkpt lat="30.693922" lon="34.790960">
        <ele>746.6</ele>
        <time>2020-09-15T04:52:17Z</time>
      </trkpt>
      <trkpt lat="30.693836" lon="34.791010">
        <ele>746.8</ele>
        <time>2020-09-15T04:52:21Z</time>
      </trkpt>
      <trkpt lat="30.693685" lon="34.790982">
        <ele>746.0</ele>
        <time>2020-09-15T04:52:26Z</time>
      </trkpt>
      <trkpt lat="30.693616" lon="34.790972">
        <ele>745.8</ele>
        <time>2020-09-15T04:52:28Z</time>
      </trkpt>
      <trkpt lat="30.693569" lon="34.790982">
        <ele>745.8</ele>
        <time>2020-09-15T04:52:30Z</time>
      </trkpt>
      <trkpt lat="30.693427" lon="34.791075">
        <ele>747.6</ele>
        <time>2020-09-15T04:52:37Z</time>
      </trkpt>
      <trkpt lat="30.693407" lon="34.791094">
        <ele>747.8</ele>
        <time>2020-09-15T04:52:38Z</time>
      </trkpt>
      <trkpt lat="30.693345" lon="34.791201">
        <ele>748.2</ele>
        <time>2020-09-15T04:52:42Z</time>
      </trkpt>
      <trkpt lat="30.693240" lon="34.791382">
        <ele>748.4</ele>
        <time>2020-09-15T04:52:49Z</time>
      </trkpt>
      <trkpt lat="30.693177" lon="34.791477">
        <ele>748.6</ele>
        <time>2020-09-15T04:52:53Z</time>
      </trkpt>
      <trkpt lat="30.693106" lon="34.791570">
        <ele>749.2</ele>
        <time>2020-09-15T04:52:57Z</time>
      </trkpt>
      <trkpt lat="30.693010" lon="34.791667">
        <ele>749.6</ele>
        <time>2020-09-15T04:53:02Z</time>
      </trkpt>
      <trkpt lat="30.692940" lon="34.791748">
        <ele>750.0</ele>
        <time>2020-09-15T04:53:06Z</time>
      </trkpt>
      <trkpt lat="30.692836" lon="34.791848">
        <ele>750.4</ele>
        <time>2020-09-15T04:53:11Z</time>
      </trkpt>
      <trkpt lat="30.692801" lon="34.791891">
        <ele>750.8</ele>
        <time>2020-09-15T04:53:13Z</time>
      </trkpt>
      <trkpt lat="30.692733" lon="34.791985">
        <ele>752.0</ele>
        <time>2020-09-15T04:53:17Z</time>
      </trkpt>
      <trkpt lat="30.692701" lon="34.792034">
        <ele>752.6</ele>
        <time>2020-09-15T04:53:19Z</time>
      </trkpt>
      <trkpt lat="30.692615" lon="34.792160">
        <ele>753.0</ele>
        <time>2020-09-15T04:53:25Z</time>
      </trkpt>
      <trkpt lat="30.692599" lon="34.792177">
        <ele>752.8</ele>
        <time>2020-09-15T04:53:26Z</time>
      </trkpt>
      <trkpt lat="30.692475" lon="34.792257">
        <ele>753.2</ele>
        <time>2020-09-15T04:53:32Z</time>
      </trkpt>
      <trkpt lat="30.692353" lon="34.792295">
        <ele>753.8</ele>
        <time>2020-09-15T04:53:37Z</time>
      </trkpt>
      <trkpt lat="30.692322" lon="34.792293">
        <ele>753.8</ele>
        <time>2020-09-15T04:53:38Z</time>
      </trkpt>
      <trkpt lat="30.692274" lon="34.792301">
        <ele>753.8</ele>
        <time>2020-09-15T04:53:40Z</time>
      </trkpt>
      <trkpt lat="30.692210" lon="34.792350">
        <ele>753.6</ele>
        <time>2020-09-15T04:53:43Z</time>
      </trkpt>
      <trkpt lat="30.692185" lon="34.792366">
        <ele>753.4</ele>
        <time>2020-09-15T04:53:44Z</time>
      </trkpt>
      <trkpt lat="30.692105" lon="34.792382">
        <ele>753.6</ele>
        <time>2020-09-15T04:53:47Z</time>
      </trkpt>
      <trkpt lat="30.692077" lon="34.792380">
        <ele>753.8</ele>
        <time>2020-09-15T04:53:48Z</time>
      </trkpt>
      <trkpt lat="30.692008" lon="34.792357">
        <ele>754.2</ele>
        <time>2020-09-15T04:53:51Z</time>
      </trkpt>
      <trkpt lat="30.691921" lon="34.792339">
        <ele>754.6</ele>
        <time>2020-09-15T04:53:55Z</time>
      </trkpt>
      <trkpt lat="30.691883" lon="34.792340">
        <ele>755.2</ele>
        <time>2020-09-15T04:53:57Z</time>
      </trkpt>
      <trkpt lat="30.691828" lon="34.792357">
        <ele>755.6</ele>
        <time>2020-09-15T04:54:00Z</time>
      </trkpt>
      <trkpt lat="30.691813" lon="34.792367">
        <ele>755.6</ele>
        <time>2020-09-15T04:54:01Z</time>
      </trkpt>
      <trkpt lat="30.691796" lon="34.792381">
        <ele>755.6</ele>
        <time>2020-09-15T04:54:02Z</time>
      </trkpt>
      <trkpt lat="30.691762" lon="34.792415">
        <ele>755.6</ele>
        <time>2020-09-15T04:54:04Z</time>
      </trkpt>
      <trkpt lat="30.691747" lon="34.792436">
        <ele>755.8</ele>
        <time>2020-09-15T04:54:05Z</time>
      </trkpt>
      <trkpt lat="30.691733" lon="34.792459">
        <ele>755.8</ele>
        <time>2020-09-15T04:54:06Z</time>
      </trkpt>
      <trkpt lat="30.691704" lon="34.792507">
        <ele>755.8</ele>
        <time>2020-09-15T04:54:08Z</time>
      </trkpt>
      <trkpt lat="30.691684" lon="34.792529">
        <ele>755.8</ele>
        <time>2020-09-15T04:54:09Z</time>
      </trkpt>
      <trkpt lat="30.691618" lon="34.792607">
        <ele>756.2</ele>
        <time>2020-09-15T04:54:13Z</time>
      </trkpt>
      <trkpt lat="30.691580" lon="34.792662">
        <ele>756.0</ele>
        <time>2020-09-15T04:54:15Z</time>
      </trkpt>
      <trkpt lat="30.691550" lon="34.792804">
        <ele>755.2</ele>
        <time>2020-09-15T04:54:19Z</time>
      </trkpt>
      <trkpt lat="30.691540" lon="34.792845">
        <ele>754.8</ele>
        <time>2020-09-15T04:54:20Z</time>
      </trkpt>
      <trkpt lat="30.691525" lon="34.792930">
        <ele>754.0</ele>
        <time>2020-09-15T04:54:22Z</time>
      </trkpt>
      <trkpt lat="30.691489" lon="34.793051">
        <ele>753.8</ele>
        <time>2020-09-15T04:54:25Z</time>
      </trkpt>
      <trkpt lat="30.691413" lon="34.793163">
        <ele>752.8</ele>
        <time>2020-09-15T04:54:29Z</time>
      </trkpt>
      <trkpt lat="30.691357" lon="34.793238">
        <ele>752.6</ele>
        <time>2020-09-15T04:54:32Z</time>
      </trkpt>
      <trkpt lat="30.691258" lon="34.793378">
        <ele>753.0</ele>
        <time>2020-09-15T04:54:38Z</time>
      </trkpt>
      <trkpt lat="30.691131" lon="34.793519">
        <ele>752.8</ele>
        <time>2020-09-15T04:54:45Z</time>
      </trkpt>
      <trkpt lat="30.691020" lon="34.793636">
        <ele>753.2</ele>
        <time>2020-09-15T04:54:51Z</time>
      </trkpt>
      <trkpt lat="30.690908" lon="34.793769">
        <ele>753.2</ele>
        <time>2020-09-15T04:54:57Z</time>
      </trkpt>
      <trkpt lat="30.690827" lon="34.793906">
        <ele>752.8</ele>
        <time>2020-09-15T04:55:02Z</time>
      </trkpt>
      <trkpt lat="30.690798" lon="34.793998">
        <ele>752.8</ele>
        <time>2020-09-15T04:55:04Z</time>
      </trkpt>
      <trkpt lat="30.690775" lon="34.794081">
        <ele>752.6</ele>
        <time>2020-09-15T04:55:06Z</time>
      </trkpt>
      <trkpt lat="30.690760" lon="34.794169">
        <ele>752.4</ele>
        <time>2020-09-15T04:55:08Z</time>
      </trkpt>
      <trkpt lat="30.690748" lon="34.794210">
        <ele>752.4</ele>
        <time>2020-09-15T04:55:09Z</time>
      </trkpt>
      <trkpt lat="30.690706" lon="34.794252">
        <ele>751.8</ele>
        <time>2020-09-15T04:55:11Z</time>
      </trkpt>
      <trkpt lat="30.690674" lon="34.794259">
        <ele>751.8</ele>
        <time>2020-09-15T04:55:12Z</time>
      </trkpt>
      <trkpt lat="30.690590" lon="34.794229">
        <ele>752.4</ele>
        <time>2020-09-15T04:55:15Z</time>
      </trkpt>
      <trkpt lat="30.690572" lon="34.794205">
        <ele>752.8</ele>
        <time>2020-09-15T04:55:16Z</time>
      </trkpt>
      <trkpt lat="30.690512" lon="34.794094">
        <ele>754.0</ele>
        <time>2020-09-15T04:55:20Z</time>
      </trkpt>
      <trkpt lat="30.690481" lon="34.794003">
        <ele>754.4</ele>
        <time>2020-09-15T04:55:23Z</time>
      </trkpt>
      <trkpt lat="30.690466" lon="34.793973">
        <ele>754.2</ele>
        <time>2020-09-15T04:55:24Z</time>
      </trkpt>
      <trkpt lat="30.690342" lon="34.793779">
        <ele>754.8</ele>
        <time>2020-09-15T04:55:30Z</time>
      </trkpt>
      <trkpt lat="30.690329" lon="34.793741">
        <ele>755.0</ele>
        <time>2020-09-15T04:55:31Z</time>
      </trkpt>
      <trkpt lat="30.690272" lon="34.793616">
        <ele>755.6</ele>
        <time>2020-09-15T04:55:35Z</time>
      </trkpt>
      <trkpt lat="30.690229" lon="34.793562">
        <ele>755.6</ele>
        <time>2020-09-15T04:55:37Z</time>
      </trkpt>
      <trkpt lat="30.690191" lon="34.793512">
        <ele>755.6</ele>
        <time>2020-09-15T04:55:39Z</time>
      </trkpt>
      <trkpt lat="30.690169" lon="34.793491">
        <ele>755.6</ele>
        <time>2020-09-15T04:55:40Z</time>
      </trkpt>
      <trkpt lat="30.689997" lon="34.793385">
        <ele>756.0</ele>
        <time>2020-09-15T04:55:47Z</time>
      </trkpt>
      <trkpt lat="30.689880" lon="34.793429">
        <ele>756.2</ele>
        <time>2020-09-15T04:55:51Z</time>
      </trkpt>
      <trkpt lat="30.689779" lon="34.793520">
        <ele>757.2</ele>
        <time>2020-09-15T04:55:56Z</time>
      </trkpt>
      <trkpt lat="30.689717" lon="34.793566">
        <ele>757.6</ele>
        <time>2020-09-15T04:55:59Z</time>
      </trkpt>
      <trkpt lat="30.689660" lon="34.793561">
        <ele>757.6</ele>
        <time>2020-09-15T04:56:01Z</time>
      </trkpt>
      <trkpt lat="30.689476" lon="34.793531">
        <ele>757.8</ele>
        <time>2020-09-15T04:56:07Z</time>
      </trkpt>
      <trkpt lat="30.689334" lon="34.793545">
        <ele>757.8</ele>
        <time>2020-09-15T04:56:12Z</time>
      </trkpt>
      <trkpt lat="30.689156" lon="34.793570">
        <ele>758.0</ele>
        <time>2020-09-15T04:56:19Z</time>
      </trkpt>
      <trkpt lat="30.689131" lon="34.793558">
        <ele>758.2</ele>
        <time>2020-09-15T04:56:20Z</time>
      </trkpt>
      <trkpt lat="30.689078" lon="34.793490">
        <ele>758.2</ele>
        <time>2020-09-15T04:56:23Z</time>
      </trkpt>
      <trkpt lat="30.689007" lon="34.793280">
        <ele>758.0</ele>
        <time>2020-09-15T04:56:29Z</time>
      </trkpt>
      <trkpt lat="30.688966" lon="34.793075">
        <ele>758.4</ele>
        <time>2020-09-15T04:56:35Z</time>
      </trkpt>
      <trkpt lat="30.688932" lon="34.792855">
        <ele>758.8</ele>
        <time>2020-09-15T04:56:41Z</time>
      </trkpt>
      <trkpt lat="30.688879" lon="34.792642">
        <ele>759.0</ele>
        <time>2020-09-15T04:56:47Z</time>
      </trkpt>
      <trkpt lat="30.688783" lon="34.792482">
        <ele>758.4</ele>
        <time>2020-09-15T04:56:52Z</time>
      </trkpt>
      <trkpt lat="30.688657" lon="34.792459">
        <ele>759.0</ele>
        <time>2020-09-15T04:56:57Z</time>
      </trkpt>
      <trkpt lat="30.688632" lon="34.792468">
        <ele>759.2</ele>
        <time>2020-09-15T04:56:58Z</time>
      </trkpt>
      <trkpt lat="30.688575" lon="34.792525">
        <ele>759.6</ele>
        <time>2020-09-15T04:57:01Z</time>
      </trkpt>
      <trkpt lat="30.688484" lon="34.792688">
        <ele>759.4</ele>
        <time>2020-09-15T04:57:06Z</time>
      </trkpt>
      <trkpt lat="30.688470" lon="34.792722">
        <ele>759.2</ele>
        <time>2020-09-15T04:57:07Z</time>
      </trkpt>
      <trkpt lat="30.688400" lon="34.792880">
        <ele>759.0</ele>
        <time>2020-09-15T04:57:12Z</time>
      </trkpt>
      <trkpt lat="30.688374" lon="34.792922">
        <ele>759.6</ele>
        <time>2020-09-15T04:57:14Z</time>
      </trkpt>
      <trkpt lat="30.688341" lon="34.792976">
        <ele>760.2</ele>
        <time>2020-09-15T04:57:17Z</time>
      </trkpt>
      <trkpt lat="30.688333" lon="34.792994">
        <ele>760.4</ele>
        <time>2020-09-15T04:57:18Z</time>
      </trkpt>
      <trkpt lat="30.688325" lon="34.793014">
        <ele>760.4</ele>
        <time>2020-09-15T04:57:19Z</time>
      </trkpt>
      <trkpt lat="30.688281" lon="34.793108">
        <ele>760.2</ele>
        <time>2020-09-15T04:57:24Z</time>
      </trkpt>
      <trkpt lat="30.688271" lon="34.793126">
        <ele>760.2</ele>
        <time>2020-09-15T04:57:25Z</time>
      </trkpt>
      <trkpt lat="30.688171" lon="34.793246">
        <ele>761.0</ele>
        <time>2020-09-15T04:57:33Z</time>
      </trkpt>
      <trkpt lat="30.688142" lon="34.793281">
        <ele>761.4</ele>
        <time>2020-09-15T04:57:35Z</time>
      </trkpt>
      <trkpt lat="30.688070" lon="34.793412">
        <ele>761.6</ele>
        <time>2020-09-15T04:57:41Z</time>
      </trkpt>
      <trkpt lat="30.688001" lon="34.793484">
        <ele>762.0</ele>
        <time>2020-09-15T04:57:45Z</time>
      </trkpt>
      <trkpt lat="30.687981" lon="34.793502">
        <ele>762.2</ele>
        <time>2020-09-15T04:57:46Z</time>
      </trkpt>
      <trkpt lat="30.687960" lon="34.793518">
        <ele>762.4</ele>
        <time>2020-09-15T04:57:47Z</time>
      </trkpt>
      <trkpt lat="30.687943" lon="34.793533">
        <ele>762.8</ele>
        <time>2020-09-15T04:57:48Z</time>
      </trkpt>
      <trkpt lat="30.687927" lon="34.793548">
        <ele>763.2</ele>
        <time>2020-09-15T04:57:49Z</time>
      </trkpt>
      <trkpt lat="30.687912" lon="34.793563">
        <ele>763.6</ele>
        <time>2020-09-15T04:57:50Z</time>
      </trkpt>
      <trkpt lat="30.687882" lon="34.793592">
        <ele>764.2</ele>
        <time>2020-09-15T04:57:52Z</time>
      </trkpt>
      <trkpt lat="30.687826" lon="34.793629">
        <ele>764.4</ele>
        <time>2020-09-15T04:57:55Z</time>
      </trkpt>
      <trkpt lat="30.687774" lon="34.793635">
        <ele>764.6</ele>
        <time>2020-09-15T04:57:57Z</time>
      </trkpt>
      <trkpt lat="30.687685" lon="34.793633">
        <ele>764.6</ele>
        <time>2020-09-15T04:58:01Z</time>
      </trkpt>
      <trkpt lat="30.687591" lon="34.793631">
        <ele>764.4</ele>
        <time>2020-09-15T04:58:05Z</time>
      </trkpt>
      <trkpt lat="30.687510" lon="34.793619">
        <ele>764.4</ele>
        <time>2020-09-15T04:58:08Z</time>
      </trkpt>
      <trkpt lat="30.687485" lon="34.793612">
        <ele>764.4</ele>
        <time>2020-09-15T04:58:09Z</time>
      </trkpt>
      <trkpt lat="30.687392" lon="34.793572">
        <ele>764.4</ele>
        <time>2020-09-15T04:58:14Z</time>
      </trkpt>
      <trkpt lat="30.687224" lon="34.793554">
        <ele>765.0</ele>
        <time>2020-09-15T04:58:21Z</time>
      </trkpt>
      <trkpt lat="30.687151" lon="34.793527">
        <ele>765.6</ele>
        <time>2020-09-15T04:58:24Z</time>
      </trkpt>
      <trkpt lat="30.687106" lon="34.793517">
        <ele>766.0</ele>
        <time>2020-09-15T04:58:26Z</time>
      </trkpt>
      <trkpt lat="30.686890" lon="34.793496">
        <ele>766.2</ele>
        <time>2020-09-15T04:58:34Z</time>
      </trkpt>
      <trkpt lat="30.686781" lon="34.793459">
        <ele>766.6</ele>
        <time>2020-09-15T04:58:38Z</time>
      </trkpt>
      <trkpt lat="30.686718" lon="34.793453">
        <ele>766.4</ele>
        <time>2020-09-15T04:58:40Z</time>
      </trkpt>
      <trkpt lat="30.686685" lon="34.793448">
        <ele>766.2</ele>
        <time>2020-09-15T04:58:41Z</time>
      </trkpt>
      <trkpt lat="30.686602" lon="34.793418">
        <ele>765.6</ele>
        <time>2020-09-15T04:58:44Z</time>
      </trkpt>
      <trkpt lat="30.686581" lon="34.793415">
        <ele>765.4</ele>
        <time>2020-09-15T04:58:45Z</time>
      </trkpt>
      <trkpt lat="30.686447" lon="34.793407">
        <ele>766.0</ele>
        <time>2020-09-15T04:58:51Z</time>
      </trkpt>
      <trkpt lat="30.686361" lon="34.793472">
        <ele>765.6</ele>
        <time>2020-09-15T04:58:55Z</time>
      </trkpt>
      <trkpt lat="30.686223" lon="34.793602">
        <ele>765.8</ele>
        <time>2020-09-15T04:59:02Z</time>
      </trkpt>
      <trkpt lat="30.686122" lon="34.793694">
        <ele>766.0</ele>
        <time>2020-09-15T04:59:09Z</time>
      </trkpt>
      <trkpt lat="30.686100" lon="34.793717">
        <ele>766.8</ele>
        <time>2020-09-15T04:59:11Z</time>
      </trkpt>
      <trkpt lat="30.686024" lon="34.793808">
        <ele>767.6</ele>
        <time>2020-09-15T04:59:17Z</time>
      </trkpt>
      <trkpt lat="30.686010" lon="34.793821">
        <ele>767.8</ele>
        <time>2020-09-15T04:59:18Z</time>
      </trkpt>
      <trkpt lat="30.685910" lon="34.793899">
        <ele>769.0</ele>
        <time>2020-09-15T04:59:25Z</time>
      </trkpt>
      <trkpt lat="30.685883" lon="34.793923">
        <ele>769.4</ele>
        <time>2020-09-15T04:59:27Z</time>
      </trkpt>
      <trkpt lat="30.685787" lon="34.794011">
        <ele>769.8</ele>
        <time>2020-09-15T04:59:33Z</time>
      </trkpt>
      <trkpt lat="30.685767" lon="34.794032">
        <ele>769.6</ele>
        <time>2020-09-15T04:59:34Z</time>
      </trkpt>
      <trkpt lat="30.685605" lon="34.794189">
        <ele>769.4</ele>
        <time>2020-09-15T04:59:41Z</time>
      </trkpt>
      <trkpt lat="30.685442" lon="34.794331">
        <ele>768.0</ele>
        <time>2020-09-15T04:59:45Z</time>
      </trkpt>
      <trkpt lat="30.685401" lon="34.794379">
        <ele>767.8</ele>
        <time>2020-09-15T04:59:46Z</time>
      </trkpt>
      <trkpt lat="30.685247" lon="34.794551">
        <ele>767.6</ele>
        <time>2020-09-15T04:59:51Z</time>
      </trkpt>
      <trkpt lat="30.685099" lon="34.794683">
        <ele>767.8</ele>
        <time>2020-09-15T04:59:56Z</time>
      </trkpt>
      <trkpt lat="30.685071" lon="34.794707">
        <ele>768.0</ele>
        <time>2020-09-15T04:59:57Z</time>
      </trkpt>
      <trkpt lat="30.685015" lon="34.794754">
        <ele>768.8</ele>
        <time>2020-09-15T04:59:59Z</time>
      </trkpt>
      <trkpt lat="30.684989" lon="34.794774">
        <ele>769.0</ele>
        <time>2020-09-15T05:00:00Z</time>
      </trkpt>
      <trkpt lat="30.684818" lon="34.794924">
        <ele>769.4</ele>
        <time>2020-09-15T05:00:06Z</time>
      </trkpt>
      <trkpt lat="30.684789" lon="34.794952">
        <ele>769.4</ele>
        <time>2020-09-15T05:00:07Z</time>
      </trkpt>
      <trkpt lat="30.684604" lon="34.795121">
        <ele>770.0</ele>
        <time>2020-09-15T05:00:14Z</time>
      </trkpt>
      <trkpt lat="30.684580" lon="34.795143">
        <ele>770.4</ele>
        <time>2020-09-15T05:00:15Z</time>
      </trkpt>
      <trkpt lat="30.684489" lon="34.795212">
        <ele>771.2</ele>
        <time>2020-09-15T05:00:19Z</time>
      </trkpt>
      <trkpt lat="30.684446" lon="34.795250">
        <ele>771.4</ele>
        <time>2020-09-15T05:00:21Z</time>
      </trkpt>
      <trkpt lat="30.684367" lon="34.795328">
        <ele>772.2</ele>
        <time>2020-09-15T05:00:25Z</time>
      </trkpt>
      <trkpt lat="30.684339" lon="34.795374">
        <ele>772.4</ele>
        <time>2020-09-15T05:00:27Z</time>
      </trkpt>
      <trkpt lat="30.684286" lon="34.795422">
        <ele>773.4</ele>
        <time>2020-09-15T05:00:30Z</time>
      </trkpt>
      <trkpt lat="30.684217" lon="34.795475">
        <ele>774.6</ele>
        <time>2020-09-15T05:00:34Z</time>
      </trkpt>
      <trkpt lat="30.684127" lon="34.795551">
        <ele>775.8</ele>
        <time>2020-09-15T05:00:39Z</time>
      </trkpt>
      <trkpt lat="30.684076" lon="34.795610">
        <ele>776.0</ele>
        <time>2020-09-15T05:00:42Z</time>
      </trkpt>
      <trkpt lat="30.684045" lon="34.795655">
        <ele>776.2</ele>
        <time>2020-09-15T05:00:44Z</time>
      </trkpt>
      <trkpt lat="30.684028" lon="34.795701">
        <ele>776.6</ele>
        <time>2020-09-15T05:00:46Z</time>
      </trkpt>
      <trkpt lat="30.684021" lon="34.795727">
        <ele>776.8</ele>
        <time>2020-09-15T05:00:47Z</time>
      </trkpt>
      <trkpt lat="30.684004" lon="34.795777">
        <ele>777.0</ele>
        <time>2020-09-15T05:00:49Z</time>
      </trkpt>
      <trkpt lat="30.683936" lon="34.795965">
        <ele>777.2</ele>
        <time>2020-09-15T05:00:56Z</time>
      </trkpt>
      <trkpt lat="30.683925" lon="34.795989">
        <ele>777.2</ele>
        <time>2020-09-15T05:00:57Z</time>
      </trkpt>
      <trkpt lat="30.683805" lon="34.796191">
        <ele>777.8</ele>
        <time>2020-09-15T05:01:06Z</time>
      </trkpt>
      <trkpt lat="30.683789" lon="34.796217">
        <ele>778.0</ele>
        <time>2020-09-15T05:01:07Z</time>
      </trkpt>
      <trkpt lat="30.683686" lon="34.796387">
        <ele>778.2</ele>
        <time>2020-09-15T05:01:14Z</time>
      </trkpt>
      <trkpt lat="30.683661" lon="34.796438">
        <ele>778.2</ele>
        <time>2020-09-15T05:01:16Z</time>
      </trkpt>
      <trkpt lat="30.683548" lon="34.796621">
        <ele>778.2</ele>
        <time>2020-09-15T05:01:24Z</time>
      </trkpt>
      <trkpt lat="30.683487" lon="34.796703">
        <ele>779.0</ele>
        <time>2020-09-15T05:01:28Z</time>
      </trkpt>
      <trkpt lat="30.683396" lon="34.796843">
        <ele>779.2</ele>
        <time>2020-09-15T05:01:34Z</time>
      </trkpt>
      <trkpt lat="30.683303" lon="34.796978">
        <ele>778.6</ele>
        <time>2020-09-15T05:01:40Z</time>
      </trkpt>
      <trkpt lat="30.683269" lon="34.797028">
        <ele>778.8</ele>
        <time>2020-09-15T05:01:42Z</time>
      </trkpt>
      <trkpt lat="30.683104" lon="34.797307">
        <ele>778.8</ele>
        <time>2020-09-15T05:01:52Z</time>
      </trkpt>
      <trkpt lat="30.682980" lon="34.797497">
        <ele>777.8</ele>
        <time>2020-09-15T05:01:59Z</time>
      </trkpt>
      <trkpt lat="30.682965" lon="34.797525">
        <ele>778.0</ele>
        <time>2020-09-15T05:02:00Z</time>
      </trkpt>
      <trkpt lat="30.682829" lon="34.797815">
        <ele>778.6</ele>
        <time>2020-09-15T05:02:09Z</time>
      </trkpt>
      <trkpt lat="30.682690" lon="34.798039">
        <ele>777.2</ele>
        <time>2020-09-15T05:02:15Z</time>
      </trkpt>
      <trkpt lat="30.682640" lon="34.798118">
        <ele>777.0</ele>
        <time>2020-09-15T05:02:17Z</time>
      </trkpt>
      <trkpt lat="30.682622" lon="34.798154">
        <ele>776.8</ele>
        <time>2020-09-15T05:02:18Z</time>
      </trkpt>
      <trkpt lat="30.682601" lon="34.798207">
        <ele>776.6</ele>
        <time>2020-09-15T05:02:20Z</time>
      </trkpt>
      <trkpt lat="30.682584" lon="34.798258">
        <ele>776.4</ele>
        <time>2020-09-15T05:02:22Z</time>
      </trkpt>
      <trkpt lat="30.682540" lon="34.798392">
        <ele>776.0</ele>
        <time>2020-09-15T05:02:27Z</time>
      </trkpt>
      <trkpt lat="30.682491" lon="34.798450">
        <ele>775.6</ele>
        <time>2020-09-15T05:02:30Z</time>
      </trkpt>
      <trkpt lat="30.682464" lon="34.798504">
        <ele>775.4</ele>
        <time>2020-09-15T05:02:32Z</time>
      </trkpt>
      <trkpt lat="30.682432" lon="34.798599">
        <ele>775.4</ele>
        <time>2020-09-15T05:02:35Z</time>
      </trkpt>
      <trkpt lat="30.682364" lon="34.798712">
        <ele>775.6</ele>
        <time>2020-09-15T05:02:40Z</time>
      </trkpt>
      <trkpt lat="30.682298" lon="34.798796">
        <ele>776.8</ele>
        <time>2020-09-15T05:02:45Z</time>
      </trkpt>
      <trkpt lat="30.682269" lon="34.798859">
        <ele>777.2</ele>
        <time>2020-09-15T05:02:48Z</time>
      </trkpt>
      <trkpt lat="30.682224" lon="34.798969">
        <ele>777.6</ele>
        <time>2020-09-15T05:02:53Z</time>
      </trkpt>
      <trkpt lat="30.682202" lon="34.799014">
        <ele>778.0</ele>
        <time>2020-09-15T05:02:55Z</time>
      </trkpt>
      <trkpt lat="30.682181" lon="34.799058">
        <ele>778.2</ele>
        <time>2020-09-15T05:02:57Z</time>
      </trkpt>
      <trkpt lat="30.682154" lon="34.799123">
        <ele>779.0</ele>
        <time>2020-09-15T05:03:00Z</time>
      </trkpt>
      <trkpt lat="30.682094" lon="34.799238">
        <ele>779.4</ele>
        <time>2020-09-15T05:03:06Z</time>
      </trkpt>
      <trkpt lat="30.682077" lon="34.799280">
        <ele>779.4</ele>
        <time>2020-09-15T05:03:08Z</time>
      </trkpt>
      <trkpt lat="30.682048" lon="34.799346">
        <ele>780.2</ele>
        <time>2020-09-15T05:03:11Z</time>
      </trkpt>
      <trkpt lat="30.682020" lon="34.799404">
        <ele>781.2</ele>
        <time>2020-09-15T05:03:14Z</time>
      </trkpt>
      <trkpt lat="30.682011" lon="34.799424">
        <ele>781.6</ele>
        <time>2020-09-15T05:03:15Z</time>
      </trkpt>
      <trkpt lat="30.681992" lon="34.799466">
        <ele>782.4</ele>
        <time>2020-09-15T05:03:17Z</time>
      </trkpt>
      <trkpt lat="30.681946" lon="34.799556">
        <ele>783.4</ele>
        <time>2020-09-15T05:03:23Z</time>
      </trkpt>
      <trkpt lat="30.681940" lon="34.799572">
        <ele>783.6</ele>
        <time>2020-09-15T05:03:24Z</time>
      </trkpt>
      <trkpt lat="30.681912" lon="34.799651">
        <ele>784.6</ele>
        <time>2020-09-15T05:03:29Z</time>
      </trkpt>
      <trkpt lat="30.681904" lon="34.799668">
        <ele>784.8</ele>
        <time>2020-09-15T05:03:30Z</time>
      </trkpt>
      <trkpt lat="30.681884" lon="34.799690">
        <ele>785.2</ele>
        <time>2020-09-15T05:03:32Z</time>
      </trkpt>
      <trkpt lat="30.681874" lon="34.799702">
        <ele>785.2</ele>
        <time>2020-09-15T05:03:33Z</time>
      </trkpt>
      <trkpt lat="30.681856" lon="34.799726">
        <ele>785.8</ele>
        <time>2020-09-15T05:03:35Z</time>
      </trkpt>
      <trkpt lat="30.681833" lon="34.799771">
        <ele>786.6</ele>
        <time>2020-09-15T05:03:38Z</time>
      </trkpt>
      <trkpt lat="30.681825" lon="34.799785">
        <ele>786.8</ele>
        <time>2020-09-15T05:03:39Z</time>
      </trkpt>
      <trkpt lat="30.681781" lon="34.799886">
        <ele>787.2</ele>
        <time>2020-09-15T05:03:45Z</time>
      </trkpt>
      <trkpt lat="30.681726" lon="34.799963">
        <ele>787.4</ele>
        <time>2020-09-15T05:03:50Z</time>
      </trkpt>
      <trkpt lat="30.681714" lon="34.799971">
        <ele>787.6</ele>
        <time>2020-09-15T05:03:51Z</time>
      </trkpt>
      <trkpt lat="30.681689" lon="34.799985">
        <ele>788.0</ele>
        <time>2020-09-15T05:03:53Z</time>
      </trkpt>
      <trkpt lat="30.681635" lon="34.800051">
        <ele>789.0</ele>
        <time>2020-09-15T05:03:58Z</time>
      </trkpt>
      <trkpt lat="30.681585" lon="34.800206">
        <ele>788.6</ele>
        <time>2020-09-15T05:04:05Z</time>
      </trkpt>
      <trkpt lat="30.681482" lon="34.800360">
        <ele>790.0</ele>
        <time>2020-09-15T05:04:14Z</time>
      </trkpt>
      <trkpt lat="30.681393" lon="34.800500">
        <ele>790.6</ele>
        <time>2020-09-15T05:04:22Z</time>
      </trkpt>
      <trkpt lat="30.681382" lon="34.800569">
        <ele>791.0</ele>
        <time>2020-09-15T05:04:25Z</time>
      </trkpt>
      <trkpt lat="30.681333" lon="34.800651">
        <ele>791.4</ele>
        <time>2020-09-15T05:04:29Z</time>
      </trkpt>
      <trkpt lat="30.681211" lon="34.800794">
        <ele>792.0</ele>
        <time>2020-09-15T05:04:37Z</time>
      </trkpt>
      <trkpt lat="30.681127" lon="34.800852">
        <ele>792.2</ele>
        <time>2020-09-15T05:04:41Z</time>
      </trkpt>
      <trkpt lat="30.681035" lon="34.800911">
        <ele>792.0</ele>
        <time>2020-09-15T05:04:45Z</time>
      </trkpt>
      <trkpt lat="30.680858" lon="34.801014">
        <ele>791.8</ele>
        <time>2020-09-15T05:04:53Z</time>
      </trkpt>
      <trkpt lat="30.680670" lon="34.801121">
        <ele>792.4</ele>
        <time>2020-09-15T05:05:01Z</time>
      </trkpt>
      <trkpt lat="30.680531" lon="34.801199">
        <ele>793.0</ele>
        <time>2020-09-15T05:05:07Z</time>
      </trkpt>
      <trkpt lat="30.680480" lon="34.801232">
        <ele>793.0</ele>
        <time>2020-09-15T05:05:09Z</time>
      </trkpt>
      <trkpt lat="30.680314" lon="34.801336">
        <ele>793.0</ele>
        <time>2020-09-15T05:05:16Z</time>
      </trkpt>
      <trkpt lat="30.680268" lon="34.801365">
        <ele>793.2</ele>
        <time>2020-09-15T05:05:18Z</time>
      </trkpt>
      <trkpt lat="30.680116" lon="34.801470">
        <ele>794.2</ele>
        <time>2020-09-15T05:05:25Z</time>
      </trkpt>
      <trkpt lat="30.679943" lon="34.801589">
        <ele>794.2</ele>
        <time>2020-09-15T05:05:33Z</time>
      </trkpt>
      <trkpt lat="30.679793" lon="34.801685">
        <ele>793.8</ele>
        <time>2020-09-15T05:05:40Z</time>
      </trkpt>
      <trkpt lat="30.679622" lon="34.801795">
        <ele>792.8</ele>
        <time>2020-09-15T05:05:45Z</time>
      </trkpt>
      <trkpt lat="30.679461" lon="34.801899">
        <ele>792.4</ele>
        <time>2020-09-15T05:05:50Z</time>
      </trkpt>
      <trkpt lat="30.679310" lon="34.801979">
        <ele>793.2</ele>
        <time>2020-09-15T05:05:56Z</time>
      </trkpt>
      <trkpt lat="30.679287" lon="34.801992">
        <ele>793.6</ele>
        <time>2020-09-15T05:05:57Z</time>
      </trkpt>
      <trkpt lat="30.679261" lon="34.802004">
        <ele>794.0</ele>
        <time>2020-09-15T05:05:58Z</time>
      </trkpt>
      <trkpt lat="30.679152" lon="34.802055">
        <ele>795.0</ele>
        <time>2020-09-15T05:06:02Z</time>
      </trkpt>
      <trkpt lat="30.679124" lon="34.802070">
        <ele>795.2</ele>
        <time>2020-09-15T05:06:03Z</time>
      </trkpt>
      <trkpt lat="30.679076" lon="34.802089">
        <ele>796.0</ele>
        <time>2020-09-15T05:06:05Z</time>
      </trkpt>
      <trkpt lat="30.679053" lon="34.802094">
        <ele>796.4</ele>
        <time>2020-09-15T05:06:06Z</time>
      </trkpt>
      <trkpt lat="30.678936" lon="34.802153">
        <ele>797.2</ele>
        <time>2020-09-15T05:06:11Z</time>
      </trkpt>
      <trkpt lat="30.678907" lon="34.802174">
        <ele>797.2</ele>
        <time>2020-09-15T05:06:12Z</time>
      </trkpt>
      <trkpt lat="30.678844" lon="34.802217">
        <ele>797.2</ele>
        <time>2020-09-15T05:06:14Z</time>
      </trkpt>
      <trkpt lat="30.678730" lon="34.802277">
        <ele>796.8</ele>
        <time>2020-09-15T05:06:18Z</time>
      </trkpt>
      <trkpt lat="30.678630" lon="34.802323">
        <ele>797.0</ele>
        <time>2020-09-15T05:06:22Z</time>
      </trkpt>
      <trkpt lat="30.678586" lon="34.802349">
        <ele>797.4</ele>
        <time>2020-09-15T05:06:24Z</time>
      </trkpt>
      <trkpt lat="30.678538" lon="34.802376">
        <ele>797.8</ele>
        <time>2020-09-15T05:06:26Z</time>
      </trkpt>
      <trkpt lat="30.678464" lon="34.802413">
        <ele>798.0</ele>
        <time>2020-09-15T05:06:29Z</time>
      </trkpt>
      <trkpt lat="30.678385" lon="34.802457">
        <ele>798.6</ele>
        <time>2020-09-15T05:06:32Z</time>
      </trkpt>
      <trkpt lat="30.678325" lon="34.802490">
        <ele>798.8</ele>
        <time>2020-09-15T05:06:34Z</time>
      </trkpt>
      <trkpt lat="30.678041" lon="34.802667">
        <ele>798.2</ele>
        <time>2020-09-15T05:06:44Z</time>
      </trkpt>
      <trkpt lat="30.677861" lon="34.802803">
        <ele>798.4</ele>
        <time>2020-09-15T05:06:51Z</time>
      </trkpt>
      <trkpt lat="30.677738" lon="34.802883">
        <ele>798.4</ele>
        <time>2020-09-15T05:06:57Z</time>
      </trkpt>
      <trkpt lat="30.677722" lon="34.802897">
        <ele>798.4</ele>
        <time>2020-09-15T05:06:58Z</time>
      </trkpt>
      <trkpt lat="30.677576" lon="34.803052">
        <ele>798.2</ele>
        <time>2020-09-15T05:07:06Z</time>
      </trkpt>
      <trkpt lat="30.677453" lon="34.803202">
        <ele>798.0</ele>
        <time>2020-09-15T05:07:11Z</time>
      </trkpt>
      <trkpt lat="30.677427" lon="34.803235">
        <ele>797.8</ele>
        <time>2020-09-15T05:07:12Z</time>
      </trkpt>
      <trkpt lat="30.677367" lon="34.803345">
        <ele>797.6</ele>
        <time>2020-09-15T05:07:15Z</time>
      </trkpt>
      <trkpt lat="30.677335" lon="34.803422">
        <ele>797.6</ele>
        <time>2020-09-15T05:07:17Z</time>
      </trkpt>
      <trkpt lat="30.677309" lon="34.803501">
        <ele>797.4</ele>
        <time>2020-09-15T05:07:19Z</time>
      </trkpt>
      <trkpt lat="30.677274" lon="34.803681">
        <ele>796.6</ele>
        <time>2020-09-15T05:07:23Z</time>
      </trkpt>
      <trkpt lat="30.677259" lon="34.803728">
        <ele>796.4</ele>
        <time>2020-09-15T05:07:24Z</time>
      </trkpt>
      <trkpt lat="30.677238" lon="34.803774">
        <ele>796.2</ele>
        <time>2020-09-15T05:07:25Z</time>
      </trkpt>
      <trkpt lat="30.677180" lon="34.803942">
        <ele>795.4</ele>
        <time>2020-09-15T05:07:29Z</time>
      </trkpt>
      <trkpt lat="30.677163" lon="34.803986">
        <ele>795.2</ele>
        <time>2020-09-15T05:07:30Z</time>
      </trkpt>
      <trkpt lat="30.677122" lon="34.804086">
        <ele>794.6</ele>
        <time>2020-09-15T05:07:32Z</time>
      </trkpt>
      <trkpt lat="30.677105" lon="34.804141">
        <ele>794.4</ele>
        <time>2020-09-15T05:07:33Z</time>
      </trkpt>
      <trkpt lat="30.677044" lon="34.804299">
        <ele>793.8</ele>
        <time>2020-09-15T05:07:36Z</time>
      </trkpt>
      <trkpt lat="30.677005" lon="34.804405">
        <ele>793.4</ele>
        <time>2020-09-15T05:07:38Z</time>
      </trkpt>
      <trkpt lat="30.676970" lon="34.804520">
        <ele>793.0</ele>
        <time>2020-09-15T05:07:40Z</time>
      </trkpt>
      <trkpt lat="30.676955" lon="34.804649">
        <ele>792.6</ele>
        <time>2020-09-15T05:07:42Z</time>
      </trkpt>
      <trkpt lat="30.676952" lon="34.804710">
        <ele>792.2</ele>
        <time>2020-09-15T05:07:43Z</time>
      </trkpt>
      <trkpt lat="30.676926" lon="34.804853">
        <ele>791.4</ele>
        <time>2020-09-15T05:07:46Z</time>
      </trkpt>
      <trkpt lat="30.676903" lon="34.804894">
        <ele>791.2</ele>
        <time>2020-09-15T05:07:47Z</time>
      </trkpt>
      <trkpt lat="30.676857" lon="34.804979">
        <ele>790.4</ele>
        <time>2020-09-15T05:07:49Z</time>
      </trkpt>
      <trkpt lat="30.676841" lon="34.805028">
        <ele>790.0</ele>
        <time>2020-09-15T05:07:50Z</time>
      </trkpt>
      <trkpt lat="30.676830" lon="34.805082">
        <ele>789.6</ele>
        <time>2020-09-15T05:07:51Z</time>
      </trkpt>
      <trkpt lat="30.676803" lon="34.805188">
        <ele>788.8</ele>
        <time>2020-09-15T05:07:53Z</time>
      </trkpt>
      <trkpt lat="30.676767" lon="34.805244">
        <ele>788.2</ele>
        <time>2020-09-15T05:07:55Z</time>
      </trkpt>
      <trkpt lat="30.676752" lon="34.805272">
        <ele>788.0</ele>
        <time>2020-09-15T05:07:56Z</time>
      </trkpt>
      <trkpt lat="30.676763" lon="34.805305">
        <ele>788.0</ele>
        <time>2020-09-15T05:07:58Z</time>
      </trkpt>
      <trkpt lat="30.676810" lon="34.805257">
        <ele>787.8</ele>
        <time>2020-09-15T05:08:01Z</time>
      </trkpt>
      <trkpt lat="30.676826" lon="34.805226">
        <ele>787.8</ele>
        <time>2020-09-15T05:08:02Z</time>
      </trkpt>
      <trkpt lat="30.676912" lon="34.805098">
        <ele>786.6</ele>
        <time>2020-09-15T05:08:06Z</time>
      </trkpt>
      <trkpt lat="30.676943" lon="34.805074">
        <ele>786.4</ele>
        <time>2020-09-15T05:08:07Z</time>
      </trkpt>
      <trkpt lat="30.677043" lon="34.805018">
        <ele>785.4</ele>
        <time>2020-09-15T05:08:10Z</time>
      </trkpt>
      <trkpt lat="30.677075" lon="34.804997">
        <ele>785.2</ele>
        <time>2020-09-15T05:08:11Z</time>
      </trkpt>
      <trkpt lat="30.677120" lon="34.804946">
        <ele>785.2</ele>
        <time>2020-09-15T05:08:13Z</time>
      </trkpt>
      <trkpt lat="30.677152" lon="34.804918">
        <ele>785.0</ele>
        <time>2020-09-15T05:08:14Z</time>
      </trkpt>
      <trkpt lat="30.677184" lon="34.804949">
        <ele>784.6</ele>
        <time>2020-09-15T05:08:16Z</time>
      </trkpt>
      <trkpt lat="30.677175" lon="34.804974">
        <ele>784.4</ele>
        <time>2020-09-15T05:08:17Z</time>
      </trkpt>
      <trkpt lat="30.677125" lon="34.805027">
        <ele>784.0</ele>
        <time>2020-09-15T05:08:19Z</time>
      </trkpt>
      <trkpt lat="30.676999" lon="34.805164">
        <ele>783.2</ele>
        <time>2020-09-15T05:08:24Z</time>
      </trkpt>
      <trkpt lat="30.676973" lon="34.805260">
        <ele>783.2</ele>
        <time>2020-09-15T05:08:26Z</time>
      </trkpt>
      <trkpt lat="30.676957" lon="34.805372">
        <ele>783.2</ele>
        <time>2020-09-15T05:08:28Z</time>
      </trkpt>
      <trkpt lat="30.676906" lon="34.805480">
        <ele>783.4</ele>
        <time>2020-09-15T05:08:31Z</time>
      </trkpt>
      <trkpt lat="30.676880" lon="34.805489">
        <ele>783.6</ele>
        <time>2020-09-15T05:08:32Z</time>
      </trkpt>
      <trkpt lat="30.676760" lon="34.805448">
        <ele>784.2</ele>
        <time>2020-09-15T05:08:37Z</time>
      </trkpt>
      <trkpt lat="30.676737" lon="34.805436">
        <ele>784.4</ele>
        <time>2020-09-15T05:08:38Z</time>
      </trkpt>
      <trkpt lat="30.676638" lon="34.805373">
        <ele>784.0</ele>
        <time>2020-09-15T05:08:43Z</time>
      </trkpt>
      <trkpt lat="30.676614" lon="34.805357">
        <ele>783.8</ele>
        <time>2020-09-15T05:08:44Z</time>
      </trkpt>
      <trkpt lat="30.676524" lon="34.805297">
        <ele>783.6</ele>
        <time>2020-09-15T05:08:48Z</time>
      </trkpt>
      <trkpt lat="30.676476" lon="34.805286">
        <ele>783.8</ele>
        <time>2020-09-15T05:08:50Z</time>
      </trkpt>
      <trkpt lat="30.676449" lon="34.805285">
        <ele>783.6</ele>
        <time>2020-09-15T05:08:51Z</time>
      </trkpt>
      <trkpt lat="30.676387" lon="34.805286">
        <ele>783.0</ele>
        <time>2020-09-15T05:08:54Z</time>
      </trkpt>
      <trkpt lat="30.676327" lon="34.805289">
        <ele>782.0</ele>
        <time>2020-09-15T05:08:57Z</time>
      </trkpt>
      <trkpt lat="30.676305" lon="34.805288">
        <ele>781.8</ele>
        <time>2020-09-15T05:08:58Z</time>
      </trkpt>
      <trkpt lat="30.676189" lon="34.805257">
        <ele>781.2</ele>
        <time>2020-09-15T05:09:03Z</time>
      </trkpt>
      <trkpt lat="30.676104" lon="34.805218">
        <ele>780.8</ele>
        <time>2020-09-15T05:09:06Z</time>
      </trkpt>
      <trkpt lat="30.675998" lon="34.805180">
        <ele>779.6</ele>
        <time>2020-09-15T05:09:09Z</time>
      </trkpt>
      <trkpt lat="30.675873" lon="34.805174">
        <ele>779.0</ele>
        <time>2020-09-15T05:09:13Z</time>
      </trkpt>
      <trkpt lat="30.675855" lon="34.805175">
        <ele>778.8</ele>
        <time>2020-09-15T05:09:15Z</time>
      </trkpt>
      <trkpt lat="30.675856" lon="34.805177">
        <ele>778.8</ele>
        <time>2020-09-15T05:09:17Z</time>
      </trkpt>
      <trkpt lat="30.675858" lon="34.805177">
        <ele>778.6</ele>
        <time>2020-09-15T05:09:18Z</time>
      </trkpt>
      <trkpt lat="30.675867" lon="34.805182">
        <ele>778.2</ele>
        <time>2020-09-15T05:09:25Z</time>
      </trkpt>
      <trkpt lat="30.675868" lon="34.805172">
        <ele>778.0</ele>
        <time>2020-09-15T05:09:34Z</time>
      </trkpt>
      <trkpt lat="30.675866" lon="34.805173">
        <ele>778.2</ele>
        <time>2020-09-15T05:09:36Z</time>
      </trkpt>
      <trkpt lat="30.675864" lon="34.805174">
        <ele>778.4</ele>
        <time>2020-09-15T05:09:39Z</time>
      </trkpt>
      <trkpt lat="30.675864" lon="34.805175">
        <ele>778.2</ele>
        <time>2020-09-15T05:09:43Z</time>
      </trkpt>
      <trkpt lat="30.675863" lon="34.805176">
        <ele>778.2</ele>
        <time>2020-09-15T05:09:44Z</time>
      </trkpt>
      <trkpt lat="30.675860" lon="34.805179">
        <ele>778.2</ele>
        <time>2020-09-15T05:09:48Z</time>
      </trkpt>
      <trkpt lat="30.675857" lon="34.805183">
        <ele>778.2</ele>
        <time>2020-09-15T05:09:53Z</time>
      </trkpt>
      <trkpt lat="30.675857" lon="34.805184">
        <ele>778.2</ele>
        <time>2020-09-15T05:09:54Z</time>
      </trkpt>
      <trkpt lat="30.675858" lon="34.805184">
        <ele>778.2</ele>
        <time>2020-09-15T05:09:55Z</time>
      </trkpt>
      <trkpt lat="30.675857" lon="34.805184">
        <ele>778.0</ele>
        <time>2020-09-15T05:09:57Z</time>
      </trkpt>
      <trkpt lat="30.675841" lon="34.805185">
        <ele>778.0</ele>
        <time>2020-09-15T05:10:02Z</time>
      </trkpt>
      <trkpt lat="30.675820" lon="34.805186">
        <ele>777.8</ele>
        <time>2020-09-15T05:10:03Z</time>
      </trkpt>
      <trkpt lat="30.675700" lon="34.805166">
        <ele>777.6</ele>
        <time>2020-09-15T05:10:07Z</time>
      </trkpt>
      <trkpt lat="30.675627" lon="34.805148">
        <ele>777.2</ele>
        <time>2020-09-15T05:10:09Z</time>
      </trkpt>
      <trkpt lat="30.675487" lon="34.805107">
        <ele>776.4</ele>
        <time>2020-09-15T05:10:13Z</time>
      </trkpt>
      <trkpt lat="30.675443" lon="34.805112">
        <ele>776.0</ele>
        <time>2020-09-15T05:10:14Z</time>
      </trkpt>
      <trkpt lat="30.675398" lon="34.805125">
        <ele>775.6</ele>
        <time>2020-09-15T05:10:15Z</time>
      </trkpt>
      <trkpt lat="30.675348" lon="34.805137">
        <ele>775.2</ele>
        <time>2020-09-15T05:10:16Z</time>
      </trkpt>
      <trkpt lat="30.675295" lon="34.805138">
        <ele>775.0</ele>
        <time>2020-09-15T05:10:17Z</time>
      </trkpt>
      <trkpt lat="30.675244" lon="34.805131">
        <ele>774.8</ele>
        <time>2020-09-15T05:10:18Z</time>
      </trkpt>
      <trkpt lat="30.675086" lon="34.805100">
        <ele>774.2</ele>
        <time>2020-09-15T05:10:21Z</time>
      </trkpt>
      <trkpt lat="30.674957" lon="34.805116">
        <ele>773.4</ele>
        <time>2020-09-15T05:10:23Z</time>
      </trkpt>
      <trkpt lat="30.674890" lon="34.805134">
        <ele>772.8</ele>
        <time>2020-09-15T05:10:24Z</time>
      </trkpt>
      <trkpt lat="30.674831" lon="34.805141">
        <ele>772.4</ele>
        <time>2020-09-15T05:10:25Z</time>
      </trkpt>
      <trkpt lat="30.674770" lon="34.805141">
        <ele>772.2</ele>
        <time>2020-09-15T05:10:26Z</time>
      </trkpt>
      <trkpt lat="30.674710" lon="34.805133">
        <ele>771.8</ele>
        <time>2020-09-15T05:10:27Z</time>
      </trkpt>
      <trkpt lat="30.674653" lon="34.805116">
        <ele>771.6</ele>
        <time>2020-09-15T05:10:28Z</time>
      </trkpt>
      <trkpt lat="30.674606" lon="34.805091">
        <ele>771.6</ele>
        <time>2020-09-15T05:10:29Z</time>
      </trkpt>
      <trkpt lat="30.674561" lon="34.805064">
        <ele>771.4</ele>
        <time>2020-09-15T05:10:30Z</time>
      </trkpt>
      <trkpt lat="30.674512" lon="34.805041">
        <ele>771.4</ele>
        <time>2020-09-15T05:10:31Z</time>
      </trkpt>
      <trkpt lat="30.674406" lon="34.804986">
        <ele>771.2</ele>
        <time>2020-09-15T05:10:33Z</time>
      </trkpt>
      <trkpt lat="30.674330" lon="34.804922">
        <ele>771.6</ele>
        <time>2020-09-15T05:10:35Z</time>
      </trkpt>
      <trkpt lat="30.674300" lon="34.804913">
        <ele>771.4</ele>
        <time>2020-09-15T05:10:36Z</time>
      </trkpt>
      <trkpt lat="30.674278" lon="34.804983">
        <ele>771.4</ele>
        <time>2020-09-15T05:10:38Z</time>
      </trkpt>
      <trkpt lat="30.674349" lon="34.805084">
        <ele>771.0</ele>
        <time>2020-09-15T05:10:41Z</time>
      </trkpt>
      <trkpt lat="30.674407" lon="34.805169">
        <ele>770.6</ele>
        <time>2020-09-15T05:10:43Z</time>
      </trkpt>
      <trkpt lat="30.674460" lon="34.805253">
        <ele>770.4</ele>
        <time>2020-09-15T05:10:45Z</time>
      </trkpt>
      <trkpt lat="30.674595" lon="34.805366">
        <ele>769.4</ele>
        <time>2020-09-15T05:10:49Z</time>
      </trkpt>
      <trkpt lat="30.674674" lon="34.805417">
        <ele>768.8</ele>
        <time>2020-09-15T05:10:51Z</time>
      </trkpt>
      <trkpt lat="30.674807" lon="34.805490">
        <ele>768.0</ele>
        <time>2020-09-15T05:10:54Z</time>
      </trkpt>
      <trkpt lat="30.674858" lon="34.805513">
        <ele>768.0</ele>
        <time>2020-09-15T05:10:55Z</time>
      </trkpt>
      <trkpt lat="30.674955" lon="34.805555">
        <ele>767.6</ele>
        <time>2020-09-15T05:10:57Z</time>
      </trkpt>
      <trkpt lat="30.675002" lon="34.805574">
        <ele>767.6</ele>
        <time>2020-09-15T05:10:58Z</time>
      </trkpt>
      <trkpt lat="30.675091" lon="34.805597">
        <ele>767.0</ele>
        <time>2020-09-15T05:11:00Z</time>
      </trkpt>
      <trkpt lat="30.675133" lon="34.805600">
        <ele>766.8</ele>
        <time>2020-09-15T05:11:01Z</time>
      </trkpt>
      <trkpt lat="30.675181" lon="34.805597">
        <ele>766.6</ele>
        <time>2020-09-15T05:11:02Z</time>
      </trkpt>
      <trkpt lat="30.675230" lon="34.805589">
        <ele>766.8</ele>
        <time>2020-09-15T05:11:03Z</time>
      </trkpt>
      <trkpt lat="30.675275" lon="34.805581">
        <ele>767.0</ele>
        <time>2020-09-15T05:11:04Z</time>
      </trkpt>
      <trkpt lat="30.675313" lon="34.805572">
        <ele>767.0</ele>
        <time>2020-09-15T05:11:05Z</time>
      </trkpt>
      <trkpt lat="30.675379" lon="34.805545">
        <ele>767.6</ele>
        <time>2020-09-15T05:11:07Z</time>
      </trkpt>
      <trkpt lat="30.675419" lon="34.805535">
        <ele>768.0</ele>
        <time>2020-09-15T05:11:08Z</time>
      </trkpt>
      <trkpt lat="30.675551" lon="34.805524">
        <ele>768.6</ele>
        <time>2020-09-15T05:11:12Z</time>
      </trkpt>
      <trkpt lat="30.675623" lon="34.805519">
        <ele>769.0</ele>
        <time>2020-09-15T05:11:14Z</time>
      </trkpt>
      <trkpt lat="30.675771" lon="34.805520">
        <ele>769.8</ele>
        <time>2020-09-15T05:11:18Z</time>
      </trkpt>
      <trkpt lat="30.675866" lon="34.805509">
        <ele>770.0</ele>
        <time>2020-09-15T05:11:21Z</time>
      </trkpt>
      <trkpt lat="30.675897" lon="34.805521">
        <ele>770.2</ele>
        <time>2020-09-15T05:11:22Z</time>
      </trkpt>
      <trkpt lat="30.675920" lon="34.805542">
        <ele>770.2</ele>
        <time>2020-09-15T05:11:23Z</time>
      </trkpt>
      <trkpt lat="30.675939" lon="34.805566">
        <ele>770.2</ele>
        <time>2020-09-15T05:11:24Z</time>
      </trkpt>
      <trkpt lat="30.676004" lon="34.805669">
        <ele>770.6</ele>
        <time>2020-09-15T05:11:27Z</time>
      </trkpt>
      <trkpt lat="30.676120" lon="34.805797">
        <ele>770.6</ele>
        <time>2020-09-15T05:11:30Z</time>
      </trkpt>
      <trkpt lat="30.676166" lon="34.805833">
        <ele>770.0</ele>
        <time>2020-09-15T05:11:31Z</time>
      </trkpt>
      <trkpt lat="30.676212" lon="34.805863">
        <ele>769.0</ele>
        <time>2020-09-15T05:11:32Z</time>
      </trkpt>
      <trkpt lat="30.676260" lon="34.805885">
        <ele>768.0</ele>
        <time>2020-09-15T05:11:33Z</time>
      </trkpt>
      <trkpt lat="30.676309" lon="34.805900">
        <ele>767.2</ele>
        <time>2020-09-15T05:11:34Z</time>
      </trkpt>
      <trkpt lat="30.676362" lon="34.805912">
        <ele>767.0</ele>
        <time>2020-09-15T05:11:35Z</time>
      </trkpt>
      <trkpt lat="30.676457" lon="34.805944">
        <ele>767.6</ele>
        <time>2020-09-15T05:11:37Z</time>
      </trkpt>
      <trkpt lat="30.676533" lon="34.805999">
        <ele>767.2</ele>
        <time>2020-09-15T05:11:39Z</time>
      </trkpt>
      <trkpt lat="30.676567" lon="34.806036">
        <ele>766.8</ele>
        <time>2020-09-15T05:11:40Z</time>
      </trkpt>
      <trkpt lat="30.676606" lon="34.806083">
        <ele>766.2</ele>
        <time>2020-09-15T05:11:41Z</time>
      </trkpt>
      <trkpt lat="30.676644" lon="34.806136">
        <ele>765.0</ele>
        <time>2020-09-15T05:11:42Z</time>
      </trkpt>
      <trkpt lat="30.676680" lon="34.806193">
        <ele>763.8</ele>
        <time>2020-09-15T05:11:43Z</time>
      </trkpt>
      <trkpt lat="30.676718" lon="34.806249">
        <ele>763.4</ele>
        <time>2020-09-15T05:11:44Z</time>
      </trkpt>
      <trkpt lat="30.676823" lon="34.806351">
        <ele>762.6</ele>
        <time>2020-09-15T05:11:46Z</time>
      </trkpt>
      <trkpt lat="30.676883" lon="34.806388">
        <ele>762.2</ele>
        <time>2020-09-15T05:11:47Z</time>
      </trkpt>
      <trkpt lat="30.677005" lon="34.806454">
        <ele>762.4</ele>
        <time>2020-09-15T05:11:49Z</time>
      </trkpt>
      <trkpt lat="30.677150" lon="34.806577">
        <ele>761.6</ele>
        <time>2020-09-15T05:11:52Z</time>
      </trkpt>
      <trkpt lat="30.677236" lon="34.806652">
        <ele>761.6</ele>
        <time>2020-09-15T05:11:54Z</time>
      </trkpt>
      <trkpt lat="30.677268" lon="34.806695">
        <ele>761.6</ele>
        <time>2020-09-15T05:11:55Z</time>
      </trkpt>
      <trkpt lat="30.677295" lon="34.806741">
        <ele>761.6</ele>
        <time>2020-09-15T05:11:56Z</time>
      </trkpt>
      <trkpt lat="30.677318" lon="34.806832">
        <ele>761.6</ele>
        <time>2020-09-15T05:11:58Z</time>
      </trkpt>
      <trkpt lat="30.677309" lon="34.806922">
        <ele>761.4</ele>
        <time>2020-09-15T05:12:00Z</time>
      </trkpt>
      <trkpt lat="30.677285" lon="34.807077">
        <ele>760.4</ele>
        <time>2020-09-15T05:12:04Z</time>
      </trkpt>
      <trkpt lat="30.677291" lon="34.807113">
        <ele>760.4</ele>
        <time>2020-09-15T05:12:05Z</time>
      </trkpt>
      <trkpt lat="30.677310" lon="34.807217">
        <ele>760.8</ele>
        <time>2020-09-15T05:12:10Z</time>
      </trkpt>
      <trkpt lat="30.677304" lon="34.807199">
        <ele>761.0</ele>
        <time>2020-09-15T05:12:19Z</time>
      </trkpt>
      <trkpt lat="30.677301" lon="34.807185">
        <ele>760.4</ele>
        <time>2020-09-15T05:12:26Z</time>
      </trkpt>
      <trkpt lat="30.677301" lon="34.807184">
        <ele>760.8</ele>
        <time>2020-09-15T05:12:34Z</time>
      </trkpt>
      <trkpt lat="30.677300" lon="34.807184">
        <ele>760.6</ele>
        <time>2020-09-15T05:12:35Z</time>
      </trkpt>
      <trkpt lat="30.677306" lon="34.807187">
        <ele>760.4</ele>
        <time>2020-09-15T05:12:40Z</time>
      </trkpt>
      <trkpt lat="30.677308" lon="34.807191">
        <ele>760.4</ele>
        <time>2020-09-15T05:12:43Z</time>
      </trkpt>
      <trkpt lat="30.677310" lon="34.807199">
        <ele>760.4</ele>
        <time>2020-09-15T05:12:44Z</time>
      </trkpt>
      <trkpt lat="30.677325" lon="34.807254">
        <ele>760.6</ele>
        <time>2020-09-15T05:12:47Z</time>
      </trkpt>
      <trkpt lat="30.677394" lon="34.807473">
        <ele>760.0</ele>
        <time>2020-09-15T05:12:54Z</time>
      </trkpt>
      <trkpt lat="30.677423" lon="34.807535">
        <ele>760.0</ele>
        <time>2020-09-15T05:12:56Z</time>
      </trkpt>
      <trkpt lat="30.677442" lon="34.807559">
        <ele>760.2</ele>
        <time>2020-09-15T05:12:57Z</time>
      </trkpt>
      <trkpt lat="30.677487" lon="34.807609">
        <ele>760.2</ele>
        <time>2020-09-15T05:12:59Z</time>
      </trkpt>
      <trkpt lat="30.677513" lon="34.807637">
        <ele>760.2</ele>
        <time>2020-09-15T05:13:00Z</time>
      </trkpt>
      <trkpt lat="30.677715" lon="34.807767">
        <ele>759.4</ele>
        <time>2020-09-15T05:13:07Z</time>
      </trkpt>
      <trkpt lat="30.677744" lon="34.807777">
        <ele>759.6</ele>
        <time>2020-09-15T05:13:08Z</time>
      </trkpt>
      <trkpt lat="30.677825" lon="34.807795">
        <ele>759.6</ele>
        <time>2020-09-15T05:13:11Z</time>
      </trkpt>
      <trkpt lat="30.677908" lon="34.807812">
        <ele>759.8</ele>
        <time>2020-09-15T05:13:14Z</time>
      </trkpt>
      <trkpt lat="30.678086" lon="34.807834">
        <ele>759.4</ele>
        <time>2020-09-15T05:13:20Z</time>
      </trkpt>
      <trkpt lat="30.678111" lon="34.807843">
        <ele>759.0</ele>
        <time>2020-09-15T05:13:21Z</time>
      </trkpt>
      <trkpt lat="30.678258" lon="34.807952">
        <ele>758.4</ele>
        <time>2020-09-15T05:13:25Z</time>
      </trkpt>
      <trkpt lat="30.678562" lon="34.808226">
        <ele>757.2</ele>
        <time>2020-09-15T05:13:33Z</time>
      </trkpt>
      <trkpt lat="30.678600" lon="34.808266">
        <ele>757.2</ele>
        <time>2020-09-15T05:13:34Z</time>
      </trkpt>
      <trkpt lat="30.678670" lon="34.808354">
        <ele>757.0</ele>
        <time>2020-09-15T05:13:36Z</time>
      </trkpt>
      <trkpt lat="30.678732" lon="34.808446">
        <ele>757.0</ele>
        <time>2020-09-15T05:13:38Z</time>
      </trkpt>
      <trkpt lat="30.678848" lon="34.808602">
        <ele>756.2</ele>
        <time>2020-09-15T05:13:42Z</time>
      </trkpt>
      <trkpt lat="30.678903" lon="34.808658">
        <ele>755.6</ele>
        <time>2020-09-15T05:13:44Z</time>
      </trkpt>
      <trkpt lat="30.678978" lon="34.808742">
        <ele>755.4</ele>
        <time>2020-09-15T05:13:47Z</time>
      </trkpt>
      <trkpt lat="30.679028" lon="34.808795">
        <ele>755.0</ele>
        <time>2020-09-15T05:13:49Z</time>
      </trkpt>
      <trkpt lat="30.679068" lon="34.808856">
        <ele>754.8</ele>
        <time>2020-09-15T05:13:51Z</time>
      </trkpt>
      <trkpt lat="30.679075" lon="34.808954">
        <ele>754.6</ele>
        <time>2020-09-15T05:13:53Z</time>
      </trkpt>
      <trkpt lat="30.679067" lon="34.809010">
        <ele>754.4</ele>
        <time>2020-09-15T05:13:54Z</time>
      </trkpt>
      <trkpt lat="30.679068" lon="34.809144">
        <ele>754.4</ele>
        <time>2020-09-15T05:13:57Z</time>
      </trkpt>
      <trkpt lat="30.679080" lon="34.809176">
        <ele>754.4</ele>
        <time>2020-09-15T05:13:58Z</time>
      </trkpt>
      <trkpt lat="30.679170" lon="34.809342">
        <ele>754.4</ele>
        <time>2020-09-15T05:14:04Z</time>
      </trkpt>
      <trkpt lat="30.679167" lon="34.809478">
        <ele>754.8</ele>
        <time>2020-09-15T05:14:08Z</time>
      </trkpt>
      <trkpt lat="30.679042" lon="34.809594">
        <ele>755.2</ele>
        <time>2020-09-15T05:14:13Z</time>
      </trkpt>
      <trkpt lat="30.678949" lon="34.809667">
        <ele>755.4</ele>
        <time>2020-09-15T05:14:17Z</time>
      </trkpt>
      <trkpt lat="30.678928" lon="34.809691">
        <ele>755.2</ele>
        <time>2020-09-15T05:14:18Z</time>
      </trkpt>
      <trkpt lat="30.678835" lon="34.809791">
        <ele>755.2</ele>
        <time>2020-09-15T05:14:22Z</time>
      </trkpt>
      <trkpt lat="30.678756" lon="34.809857">
        <ele>755.4</ele>
        <time>2020-09-15T05:14:25Z</time>
      </trkpt>
      <trkpt lat="30.678680" lon="34.809912">
        <ele>755.8</ele>
        <time>2020-09-15T05:14:28Z</time>
      </trkpt>
      <trkpt lat="30.678631" lon="34.809948">
        <ele>756.2</ele>
        <time>2020-09-15T05:14:30Z</time>
      </trkpt>
      <trkpt lat="30.678525" lon="34.810026">
        <ele>756.4</ele>
        <time>2020-09-15T05:14:34Z</time>
      </trkpt>
      <trkpt lat="30.678376" lon="34.810125">
        <ele>756.6</ele>
        <time>2020-09-15T05:14:39Z</time>
      </trkpt>
      <trkpt lat="30.678106" lon="34.810260">
        <ele>757.0</ele>
        <time>2020-09-15T05:14:48Z</time>
      </trkpt>
      <trkpt lat="30.678044" lon="34.810288">
        <ele>757.2</ele>
        <time>2020-09-15T05:14:50Z</time>
      </trkpt>
      <trkpt lat="30.677823" lon="34.810368">
        <ele>757.4</ele>
        <time>2020-09-15T05:14:56Z</time>
      </trkpt>
      <trkpt lat="30.677599" lon="34.810408">
        <ele>756.8</ele>
        <time>2020-09-15T05:15:02Z</time>
      </trkpt>
      <trkpt lat="30.677567" lon="34.810421">
        <ele>756.8</ele>
        <time>2020-09-15T05:15:03Z</time>
      </trkpt>
      <trkpt lat="30.677511" lon="34.810453">
        <ele>757.0</ele>
        <time>2020-09-15T05:15:05Z</time>
      </trkpt>
      <trkpt lat="30.677349" lon="34.810532">
        <ele>757.6</ele>
        <time>2020-09-15T05:15:11Z</time>
      </trkpt>
      <trkpt lat="30.677233" lon="34.810570">
        <ele>757.8</ele>
        <time>2020-09-15T05:15:15Z</time>
      </trkpt>
      <trkpt lat="30.677172" lon="34.810589">
        <ele>757.6</ele>
        <time>2020-09-15T05:15:17Z</time>
      </trkpt>
      <trkpt lat="30.677108" lon="34.810610">
        <ele>757.8</ele>
        <time>2020-09-15T05:15:19Z</time>
      </trkpt>
      <trkpt lat="30.677009" lon="34.810630">
        <ele>757.6</ele>
        <time>2020-09-15T05:15:22Z</time>
      </trkpt>
      <trkpt lat="30.676829" lon="34.810659">
        <ele>758.2</ele>
        <time>2020-09-15T05:15:27Z</time>
      </trkpt>
      <trkpt lat="30.676793" lon="34.810660">
        <ele>758.2</ele>
        <time>2020-09-15T05:15:28Z</time>
      </trkpt>
      <trkpt lat="30.676456" lon="34.810668">
        <ele>758.6</ele>
        <time>2020-09-15T05:15:37Z</time>
      </trkpt>
      <trkpt lat="30.676212" lon="34.810671">
        <ele>758.4</ele>
        <time>2020-09-15T05:15:44Z</time>
      </trkpt>
      <trkpt lat="30.676177" lon="34.810676">
        <ele>758.6</ele>
        <time>2020-09-15T05:15:45Z</time>
      </trkpt>
      <trkpt lat="30.676108" lon="34.810675">
        <ele>758.8</ele>
        <time>2020-09-15T05:15:47Z</time>
      </trkpt>
      <trkpt lat="30.676037" lon="34.810667">
        <ele>759.0</ele>
        <time>2020-09-15T05:15:49Z</time>
      </trkpt>
      <trkpt lat="30.675963" lon="34.810666">
        <ele>759.0</ele>
        <time>2020-09-15T05:15:51Z</time>
      </trkpt>
      <trkpt lat="30.675931" lon="34.810667">
        <ele>759.0</ele>
        <time>2020-09-15T05:15:52Z</time>
      </trkpt>
      <trkpt lat="30.675677" lon="34.810692">
        <ele>759.0</ele>
        <time>2020-09-15T05:16:00Z</time>
      </trkpt>
      <trkpt lat="30.675460" lon="34.810719">
        <ele>759.2</ele>
        <time>2020-09-15T05:16:07Z</time>
      </trkpt>
      <trkpt lat="30.675359" lon="34.810737">
        <ele>759.2</ele>
        <time>2020-09-15T05:16:10Z</time>
      </trkpt>
      <trkpt lat="30.675323" lon="34.810742">
        <ele>759.2</ele>
        <time>2020-09-15T05:16:11Z</time>
      </trkpt>
      <trkpt lat="30.675224" lon="34.810736">
        <ele>759.4</ele>
        <time>2020-09-15T05:16:14Z</time>
      </trkpt>
      <trkpt lat="30.675193" lon="34.810721">
        <ele>759.4</ele>
        <time>2020-09-15T05:16:15Z</time>
      </trkpt>
      <trkpt lat="30.675121" lon="34.810645">
        <ele>759.2</ele>
        <time>2020-09-15T05:16:18Z</time>
      </trkpt>
      <trkpt lat="30.674965" lon="34.810602">
        <ele>760.0</ele>
        <time>2020-09-15T05:16:23Z</time>
      </trkpt>
      <trkpt lat="30.674893" lon="34.810611">
        <ele>760.4</ele>
        <time>2020-09-15T05:16:25Z</time>
      </trkpt>
      <trkpt lat="30.674713" lon="34.810636">
        <ele>761.0</ele>
        <time>2020-09-15T05:16:31Z</time>
      </trkpt>
      <trkpt lat="30.674544" lon="34.810581">
        <ele>760.6</ele>
        <time>2020-09-15T05:16:37Z</time>
      </trkpt>
      <trkpt lat="30.674371" lon="34.810504">
        <ele>761.2</ele>
        <time>2020-09-15T05:16:43Z</time>
      </trkpt>
      <trkpt lat="30.674342" lon="34.810501">
        <ele>761.4</ele>
        <time>2020-09-15T05:16:44Z</time>
      </trkpt>
      <trkpt lat="30.674197" lon="34.810511">
        <ele>761.6</ele>
        <time>2020-09-15T05:16:49Z</time>
      </trkpt>
      <trkpt lat="30.674074" lon="34.810534">
        <ele>761.8</ele>
        <time>2020-09-15T05:16:53Z</time>
      </trkpt>
      <trkpt lat="30.674041" lon="34.810539">
        <ele>762.0</ele>
        <time>2020-09-15T05:16:54Z</time>
      </trkpt>
      <trkpt lat="30.674006" lon="34.810545">
        <ele>761.8</ele>
        <time>2020-09-15T05:16:55Z</time>
      </trkpt>
      <trkpt lat="30.673936" lon="34.810555">
        <ele>762.0</ele>
        <time>2020-09-15T05:16:57Z</time>
      </trkpt>
      <trkpt lat="30.673565" lon="34.810588">
        <ele>762.2</ele>
        <time>2020-09-15T05:17:08Z</time>
      </trkpt>
      <trkpt lat="30.673511" lon="34.810585">
        <ele>762.6</ele>
        <time>2020-09-15T05:17:10Z</time>
      </trkpt>
      <trkpt lat="30.673437" lon="34.810612">
        <ele>763.0</ele>
        <time>2020-09-15T05:17:13Z</time>
      </trkpt>
      <trkpt lat="30.673231" lon="34.810643">
        <ele>763.0</ele>
        <time>2020-09-15T05:17:20Z</time>
      </trkpt>
      <trkpt lat="30.673038" lon="34.810710">
        <ele>763.2</ele>
        <time>2020-09-15T05:17:26Z</time>
      </trkpt>
      <trkpt lat="30.672792" lon="34.810812">
        <ele>763.6</ele>
        <time>2020-09-15T05:17:34Z</time>
      </trkpt>
      <trkpt lat="30.672514" lon="34.810928">
        <ele>764.0</ele>
        <time>2020-09-15T05:17:43Z</time>
      </trkpt>
      <trkpt lat="30.672454" lon="34.810957">
        <ele>764.2</ele>
        <time>2020-09-15T05:17:45Z</time>
      </trkpt>
      <trkpt lat="30.672229" lon="34.811043">
        <ele>764.2</ele>
        <time>2020-09-15T05:17:52Z</time>
      </trkpt>
      <trkpt lat="30.672055" lon="34.811142">
        <ele>764.6</ele>
        <time>2020-09-15T05:17:58Z</time>
      </trkpt>
      <trkpt lat="30.672006" lon="34.811182">
        <ele>764.6</ele>
        <time>2020-09-15T05:18:00Z</time>
      </trkpt>
      <trkpt lat="30.671817" lon="34.811349">
        <ele>765.4</ele>
        <time>2020-09-15T05:18:08Z</time>
      </trkpt>
      <trkpt lat="30.671700" lon="34.811477">
        <ele>765.8</ele>
        <time>2020-09-15T05:18:13Z</time>
      </trkpt>
      <trkpt lat="30.671603" lon="34.811566">
        <ele>766.0</ele>
        <time>2020-09-15T05:18:17Z</time>
      </trkpt>
      <trkpt lat="30.671456" lon="34.811735">
        <ele>766.6</ele>
        <time>2020-09-15T05:18:24Z</time>
      </trkpt>
      <trkpt lat="30.671391" lon="34.811824">
        <ele>766.8</ele>
        <time>2020-09-15T05:18:27Z</time>
      </trkpt>
      <trkpt lat="30.671286" lon="34.811903">
        <ele>767.0</ele>
        <time>2020-09-15T05:18:31Z</time>
      </trkpt>
      <trkpt lat="30.671205" lon="34.811956">
        <ele>767.2</ele>
        <time>2020-09-15T05:18:34Z</time>
      </trkpt>
      <trkpt lat="30.671105" lon="34.812012">
        <ele>767.4</ele>
        <time>2020-09-15T05:18:38Z</time>
      </trkpt>
      <trkpt lat="30.671022" lon="34.812071">
        <ele>768.0</ele>
        <time>2020-09-15T05:18:41Z</time>
      </trkpt>
      <trkpt lat="30.670986" lon="34.812127">
        <ele>768.0</ele>
        <time>2020-09-15T05:18:43Z</time>
      </trkpt>
      <trkpt lat="30.670817" lon="34.812277">
        <ele>767.6</ele>
        <time>2020-09-15T05:18:50Z</time>
      </trkpt>
      <trkpt lat="30.670568" lon="34.812293">
        <ele>768.4</ele>
        <time>2020-09-15T05:18:57Z</time>
      </trkpt>
      <trkpt lat="30.670317" lon="34.812303">
        <ele>768.4</ele>
        <time>2020-09-15T05:19:04Z</time>
      </trkpt>
      <trkpt lat="30.670047" lon="34.812296">
        <ele>768.8</ele>
        <time>2020-09-15T05:19:12Z</time>
      </trkpt>
      <trkpt lat="30.669925" lon="34.812348">
        <ele>769.0</ele>
        <time>2020-09-15T05:19:16Z</time>
      </trkpt>
      <trkpt lat="30.669902" lon="34.812366">
        <ele>769.0</ele>
        <time>2020-09-15T05:19:17Z</time>
      </trkpt>
      <trkpt lat="30.669743" lon="34.812514">
        <ele>769.2</ele>
        <time>2020-09-15T05:19:24Z</time>
      </trkpt>
      <trkpt lat="30.669698" lon="34.812681">
        <ele>769.6</ele>
        <time>2020-09-15T05:19:29Z</time>
      </trkpt>
      <trkpt lat="30.669645" lon="34.812771">
        <ele>770.0</ele>
        <time>2020-09-15T05:19:32Z</time>
      </trkpt>
      <trkpt lat="30.669612" lon="34.812829">
        <ele>770.0</ele>
        <time>2020-09-15T05:19:34Z</time>
      </trkpt>
      <trkpt lat="30.669548" lon="34.812915">
        <ele>770.2</ele>
        <time>2020-09-15T05:19:37Z</time>
      </trkpt>
      <trkpt lat="30.669482" lon="34.812994">
        <ele>770.2</ele>
        <time>2020-09-15T05:19:40Z</time>
      </trkpt>
      <trkpt lat="30.669459" lon="34.813021">
        <ele>770.4</ele>
        <time>2020-09-15T05:19:41Z</time>
      </trkpt>
      <trkpt lat="30.669361" lon="34.813116">
        <ele>771.2</ele>
        <time>2020-09-15T05:19:45Z</time>
      </trkpt>
      <trkpt lat="30.669262" lon="34.813192">
        <ele>772.4</ele>
        <time>2020-09-15T05:19:49Z</time>
      </trkpt>
      <trkpt lat="30.669042" lon="34.813311">
        <ele>772.0</ele>
        <time>2020-09-15T05:19:57Z</time>
      </trkpt>
      <trkpt lat="30.668864" lon="34.813407">
        <ele>773.6</ele>
        <time>2020-09-15T05:20:04Z</time>
      </trkpt>
      <trkpt lat="30.668835" lon="34.813415">
        <ele>773.8</ele>
        <time>2020-09-15T05:20:05Z</time>
      </trkpt>
      <trkpt lat="30.668620" lon="34.813429">
        <ele>773.6</ele>
        <time>2020-09-15T05:20:12Z</time>
      </trkpt>
      <trkpt lat="30.668356" lon="34.813439">
        <ele>774.0</ele>
        <time>2020-09-15T05:20:20Z</time>
      </trkpt>
      <trkpt lat="30.668101" lon="34.813503">
        <ele>774.2</ele>
        <time>2020-09-15T05:20:28Z</time>
      </trkpt>
      <trkpt lat="30.668045" lon="34.813517">
        <ele>774.6</ele>
        <time>2020-09-15T05:20:30Z</time>
      </trkpt>
      <trkpt lat="30.667963" lon="34.813543">
        <ele>775.0</ele>
        <time>2020-09-15T05:20:33Z</time>
      </trkpt>
      <trkpt lat="30.667935" lon="34.813555">
        <ele>775.4</ele>
        <time>2020-09-15T05:20:34Z</time>
      </trkpt>
      <trkpt lat="30.667844" lon="34.813589">
        <ele>775.6</ele>
        <time>2020-09-15T05:20:37Z</time>
      </trkpt>
      <trkpt lat="30.667810" lon="34.813601">
        <ele>775.6</ele>
        <time>2020-09-15T05:20:38Z</time>
      </trkpt>
      <trkpt lat="30.667640" lon="34.813623">
        <ele>775.2</ele>
        <time>2020-09-15T05:20:43Z</time>
      </trkpt>
      <trkpt lat="30.667435" lon="34.813604">
        <ele>776.4</ele>
        <time>2020-09-15T05:20:50Z</time>
      </trkpt>
      <trkpt lat="30.667375" lon="34.813604">
        <ele>776.8</ele>
        <time>2020-09-15T05:20:52Z</time>
      </trkpt>
      <trkpt lat="30.667232" lon="34.813620">
        <ele>777.0</ele>
        <time>2020-09-15T05:20:57Z</time>
      </trkpt>
      <trkpt lat="30.667005" lon="34.813633">
        <ele>777.2</ele>
        <time>2020-09-15T05:21:04Z</time>
      </trkpt>
      <trkpt lat="30.666802" lon="34.813663">
        <ele>777.8</ele>
        <time>2020-09-15T05:21:11Z</time>
      </trkpt>
      <trkpt lat="30.666747" lon="34.813669">
        <ele>778.4</ele>
        <time>2020-09-15T05:21:13Z</time>
      </trkpt>
      <trkpt lat="30.666489" lon="34.813680">
        <ele>778.4</ele>
        <time>2020-09-15T05:21:22Z</time>
      </trkpt>
      <trkpt lat="30.666404" lon="34.813681">
        <ele>778.8</ele>
        <time>2020-09-15T05:21:25Z</time>
      </trkpt>
      <trkpt lat="30.666250" lon="34.813704">
        <ele>780.0</ele>
        <time>2020-09-15T05:21:31Z</time>
      </trkpt>
      <trkpt lat="30.666047" lon="34.813718">
        <ele>780.4</ele>
        <time>2020-09-15T05:21:38Z</time>
      </trkpt>
      <trkpt lat="30.665913" lon="34.813686">
        <ele>781.2</ele>
        <time>2020-09-15T05:21:43Z</time>
      </trkpt>
      <trkpt lat="30.665841" lon="34.813659">
        <ele>782.0</ele>
        <time>2020-09-15T05:21:46Z</time>
      </trkpt>
      <trkpt lat="30.665819" lon="34.813650">
        <ele>782.4</ele>
        <time>2020-09-15T05:21:47Z</time>
      </trkpt>
      <trkpt lat="30.665673" lon="34.813595">
        <ele>783.4</ele>
        <time>2020-09-15T05:21:53Z</time>
      </trkpt>
      <trkpt lat="30.665499" lon="34.813519">
        <ele>783.6</ele>
        <time>2020-09-15T05:22:00Z</time>
      </trkpt>
      <trkpt lat="30.665459" lon="34.813501">
        <ele>784.4</ele>
        <time>2020-09-15T05:22:02Z</time>
      </trkpt>
      <trkpt lat="30.665356" lon="34.813462">
        <ele>785.0</ele>
        <time>2020-09-15T05:22:06Z</time>
      </trkpt>
      <trkpt lat="30.665254" lon="34.813435">
        <ele>785.6</ele>
        <time>2020-09-15T05:22:11Z</time>
      </trkpt>
      <trkpt lat="30.665199" lon="34.813418">
        <ele>786.6</ele>
        <time>2020-09-15T05:22:14Z</time>
      </trkpt>
      <trkpt lat="30.665081" lon="34.813392">
        <ele>787.8</ele>
        <time>2020-09-15T05:22:20Z</time>
      </trkpt>
      <trkpt lat="30.665067" lon="34.813382">
        <ele>787.8</ele>
        <time>2020-09-15T05:22:21Z</time>
      </trkpt>
      <trkpt lat="30.665025" lon="34.813332">
        <ele>788.6</ele>
        <time>2020-09-15T05:22:27Z</time>
      </trkpt>
      <trkpt lat="30.665034" lon="34.813331">
        <ele>788.4</ele>
        <time>2020-09-15T05:22:36Z</time>
      </trkpt>
      <trkpt lat="30.665035" lon="34.813337">
        <ele>788.6</ele>
        <time>2020-09-15T05:22:42Z</time>
      </trkpt>
      <trkpt lat="30.665035" lon="34.813336">
        <ele>788.6</ele>
        <time>2020-09-15T05:22:46Z</time>
      </trkpt>
      <trkpt lat="30.665034" lon="34.813339">
        <ele>788.6</ele>
        <time>2020-09-15T05:22:54Z</time>
      </trkpt>
      <trkpt lat="30.665034" lon="34.813339">
        <ele>788.6</ele>
        <time>2020-09-15T05:22:55Z</time>
      </trkpt>
      <trkpt lat="30.665037" lon="34.813337">
        <ele>788.8</ele>
        <time>2020-09-15T05:23:02Z</time>
      </trkpt>
      <trkpt lat="30.665037" lon="34.813339">
        <ele>789.0</ele>
        <time>2020-09-15T05:23:06Z</time>
      </trkpt>
      <trkpt lat="30.665021" lon="34.813321">
        <ele>788.4</ele>
        <time>2020-09-15T05:23:15Z</time>
      </trkpt>
      <trkpt lat="30.665020" lon="34.813321">
        <ele>789.2</ele>
        <time>2020-09-15T05:23:23Z</time>
      </trkpt>
      <trkpt lat="30.665015" lon="34.813327">
        <ele>788.4</ele>
        <time>2020-09-15T05:23:31Z</time>
      </trkpt>
      <trkpt lat="30.665018" lon="34.813325">
        <ele>788.2</ele>
        <time>2020-09-15T05:23:38Z</time>
      </trkpt>
      <trkpt lat="30.665018" lon="34.813325">
        <ele>788.2</ele>
        <time>2020-09-15T05:23:39Z</time>
      </trkpt>
      <trkpt lat="30.665018" lon="34.813326">
        <ele>788.4</ele>
        <time>2020-09-15T05:23:40Z</time>
      </trkpt>
      <trkpt lat="30.665018" lon="34.813328">
        <ele>788.4</ele>
        <time>2020-09-15T05:23:41Z</time>
      </trkpt>
      <trkpt lat="30.665023" lon="34.813328">
        <ele>789.0</ele>
        <time>2020-09-15T05:23:44Z</time>
      </trkpt>
      <trkpt lat="30.665026" lon="34.813326">
        <ele>789.2</ele>
        <time>2020-09-15T05:23:50Z</time>
      </trkpt>
      <trkpt lat="30.665032" lon="34.813323">
        <ele>788.8</ele>
        <time>2020-09-15T05:23:57Z</time>
      </trkpt>
      <trkpt lat="30.665035" lon="34.813320">
        <ele>788.8</ele>
        <time>2020-09-15T05:23:59Z</time>
      </trkpt>
      <trkpt lat="30.665036" lon="34.813321">
        <ele>788.8</ele>
        <time>2020-09-15T05:24:01Z</time>
      </trkpt>
      <trkpt lat="30.665038" lon="34.813325">
        <ele>789.0</ele>
        <time>2020-09-15T05:24:04Z</time>
      </trkpt>
      <trkpt lat="30.665038" lon="34.813321">
        <ele>789.2</ele>
        <time>2020-09-15T05:24:06Z</time>
      </trkpt>
      <trkpt lat="30.665035" lon="34.813314">
        <ele>789.4</ele>
        <time>2020-09-15T05:24:07Z</time>
      </trkpt>
      <trkpt lat="30.665029" lon="34.813288">
        <ele>789.4</ele>
        <time>2020-09-15T05:24:09Z</time>
      </trkpt>
      <trkpt lat="30.665019" lon="34.813248">
        <ele>789.4</ele>
        <time>2020-09-15T05:24:11Z</time>
      </trkpt>
      <trkpt lat="30.664953" lon="34.813090">
        <ele>789.0</ele>
        <time>2020-09-15T05:24:16Z</time>
      </trkpt>
      <trkpt lat="30.664937" lon="34.812935">
        <ele>788.6</ele>
        <time>2020-09-15T05:24:21Z</time>
      </trkpt>
      <trkpt lat="30.664937" lon="34.812789">
        <ele>788.2</ele>
        <time>2020-09-15T05:24:25Z</time>
      </trkpt>
      <trkpt lat="30.664921" lon="34.812736">
        <ele>788.2</ele>
        <time>2020-09-15T05:24:26Z</time>
      </trkpt>
      <trkpt lat="30.664896" lon="34.812627">
        <ele>787.8</ele>
        <time>2020-09-15T05:24:28Z</time>
      </trkpt>
      <trkpt lat="30.664889" lon="34.812573">
        <ele>787.2</ele>
        <time>2020-09-15T05:24:29Z</time>
      </trkpt>
      <trkpt lat="30.664877" lon="34.812453">
        <ele>786.4</ele>
        <time>2020-09-15T05:24:31Z</time>
      </trkpt>
      <trkpt lat="30.664861" lon="34.812391">
        <ele>786.2</ele>
        <time>2020-09-15T05:24:32Z</time>
      </trkpt>
      <trkpt lat="30.664787" lon="34.812199">
        <ele>784.6</ele>
        <time>2020-09-15T05:24:35Z</time>
      </trkpt>
      <trkpt lat="30.664742" lon="34.812060">
        <ele>783.6</ele>
        <time>2020-09-15T05:24:37Z</time>
      </trkpt>
      <trkpt lat="30.664702" lon="34.811908">
        <ele>782.4</ele>
        <time>2020-09-15T05:24:39Z</time>
      </trkpt>
      <trkpt lat="30.664648" lon="34.811746">
        <ele>781.4</ele>
        <time>2020-09-15T05:24:41Z</time>
      </trkpt>
      <trkpt lat="30.664625" lon="34.811669">
        <ele>781.0</ele>
        <time>2020-09-15T05:24:42Z</time>
      </trkpt>
      <trkpt lat="30.664585" lon="34.811436">
        <ele>780.2</ele>
        <time>2020-09-15T05:24:45Z</time>
      </trkpt>
      <trkpt lat="30.664580" lon="34.811362">
        <ele>779.4</ele>
        <time>2020-09-15T05:24:46Z</time>
      </trkpt>
      <trkpt lat="30.664578" lon="34.811291">
        <ele>778.8</ele>
        <time>2020-09-15T05:24:47Z</time>
      </trkpt>
      <trkpt lat="30.664568" lon="34.810969">
        <ele>777.6</ele>
        <time>2020-09-15T05:24:52Z</time>
      </trkpt>
      <trkpt lat="30.664570" lon="34.810844">
        <ele>777.4</ele>
        <time>2020-09-15T05:24:54Z</time>
      </trkpt>
      <trkpt lat="30.664553" lon="34.810741">
        <ele>777.2</ele>
        <time>2020-09-15T05:24:56Z</time>
      </trkpt>
      <trkpt lat="30.664529" lon="34.810688">
        <ele>776.6</ele>
        <time>2020-09-15T05:24:59Z</time>
      </trkpt>
      <trkpt lat="30.664534" lon="34.810672">
        <ele>776.6</ele>
        <time>2020-09-15T05:25:00Z</time>
      </trkpt>
      <trkpt lat="30.664541" lon="34.810654">
        <ele>776.6</ele>
        <time>2020-09-15T05:25:01Z</time>
      </trkpt>
      <trkpt lat="30.664584" lon="34.810601">
        <ele>776.8</ele>
        <time>2020-09-15T05:25:05Z</time>
      </trkpt>
      <trkpt lat="30.664591" lon="34.810598">
        <ele>777.0</ele>
        <time>2020-09-15T05:25:06Z</time>
      </trkpt>
      <trkpt lat="30.664597" lon="34.810604">
        <ele>777.0</ele>
        <time>2020-09-15T05:25:12Z</time>
      </trkpt>
      <trkpt lat="30.664597" lon="34.810605">
        <ele>776.6</ele>
        <time>2020-09-15T05:25:13Z</time>
      </trkpt>
      <trkpt lat="30.664596" lon="34.810605">
        <ele>776.2</ele>
        <time>2020-09-15T05:25:15Z</time>
      </trkpt>
      <trkpt lat="30.664592" lon="34.810608">
        <ele>776.2</ele>
        <time>2020-09-15T05:25:26Z</time>
      </trkpt>
      <trkpt lat="30.664596" lon="34.810616">
        <ele>776.8</ele>
        <time>2020-09-15T05:25:37Z</time>
      </trkpt>
      <trkpt lat="30.664596" lon="34.810617">
        <ele>776.8</ele>
        <time>2020-09-15T05:25:38Z</time>
      </trkpt>
      <trkpt lat="30.664596" lon="34.810617">
        <ele>776.8</ele>
        <time>2020-09-15T05:25:39Z</time>
      </trkpt>
      <trkpt lat="30.664596" lon="34.810618">
        <ele>777.0</ele>
        <time>2020-09-15T05:25:48Z</time>
      </trkpt>
      <trkpt lat="30.664594" lon="34.810622">
        <ele>777.2</ele>
        <time>2020-09-15T05:25:56Z</time>
      </trkpt>
      <trkpt lat="30.664597" lon="34.810617">
        <ele>777.0</ele>
        <time>2020-09-15T05:26:01Z</time>
      </trkpt>
      <trkpt lat="30.664597" lon="34.810611">
        <ele>777.2</ele>
        <time>2020-09-15T05:26:05Z</time>
      </trkpt>
      <trkpt lat="30.664598" lon="34.810612">
        <ele>777.2</ele>
        <time>2020-09-15T05:26:06Z</time>
      </trkpt>
      <trkpt lat="30.664599" lon="34.810615">
        <ele>776.8</ele>
        <time>2020-09-15T05:26:07Z</time>
      </trkpt>
      <trkpt lat="30.664599" lon="34.810618">
        <ele>776.8</ele>
        <time>2020-09-15T05:26:09Z</time>
      </trkpt>
      <trkpt lat="30.664598" lon="34.810621">
        <ele>776.6</ele>
        <time>2020-09-15T05:26:10Z</time>
      </trkpt>
      <trkpt lat="30.664597" lon="34.810623">
        <ele>776.6</ele>
        <time>2020-09-15T05:26:11Z</time>
      </trkpt>
      <trkpt lat="30.664590" lon="34.810617">
        <ele>776.8</ele>
        <time>2020-09-15T05:26:16Z</time>
      </trkpt>
      <trkpt lat="30.664594" lon="34.810648">
        <ele>776.4</ele>
        <time>2020-09-15T05:26:23Z</time>
      </trkpt>
      <trkpt lat="30.664593" lon="34.810649">
        <ele>776.0</ele>
        <time>2020-09-15T05:26:27Z</time>
      </trkpt>
      <trkpt lat="30.664594" lon="34.810648">
        <ele>775.6</ele>
        <time>2020-09-15T05:26:32Z</time>
      </trkpt>
      <trkpt lat="30.664595" lon="34.810645">
        <ele>776.6</ele>
        <time>2020-09-15T05:26:37Z</time>
      </trkpt>
      <trkpt lat="30.664596" lon="34.810640">
        <ele>776.8</ele>
        <time>2020-09-15T05:26:39Z</time>
      </trkpt>
      <trkpt lat="30.664596" lon="34.810638">
        <ele>776.8</ele>
        <time>2020-09-15T05:26:40Z</time>
      </trkpt>
      <trkpt lat="30.664596" lon="34.810636">
        <ele>776.8</ele>
        <time>2020-09-15T05:26:41Z</time>
      </trkpt>
      <trkpt lat="30.664594" lon="34.810635">
        <ele>777.0</ele>
        <time>2020-09-15T05:26:48Z</time>
      </trkpt>
      <trkpt lat="30.664595" lon="34.810633">
        <ele>777.0</ele>
        <time>2020-09-15T05:26:50Z</time>
      </trkpt>
      <trkpt lat="30.664595" lon="34.810633">
        <ele>777.0</ele>
        <time>2020-09-15T05:26:51Z</time>
      </trkpt>
      <trkpt lat="30.664595" lon="34.810632">
        <ele>776.6</ele>
        <time>2020-09-15T05:26:59Z</time>
      </trkpt>
      <trkpt lat="30.664593" lon="34.810633">
        <ele>776.8</ele>
        <time>2020-09-15T05:27:03Z</time>
      </trkpt>
      <trkpt lat="30.664594" lon="34.810630">
        <ele>776.6</ele>
        <time>2020-09-15T05:27:09Z</time>
      </trkpt>
      <trkpt lat="30.664594" lon="34.810630">
        <ele>776.4</ele>
        <time>2020-09-15T05:27:10Z</time>
      </trkpt>
      <trkpt lat="30.664594" lon="34.810629">
        <ele>776.8</ele>
        <time>2020-09-15T05:27:13Z</time>
      </trkpt>
      <trkpt lat="30.664594" lon="34.810629">
        <ele>777.0</ele>
        <time>2020-09-15T05:27:15Z</time>
      </trkpt>
      <trkpt lat="30.664594" lon="34.810626">
        <ele>777.0</ele>
        <time>2020-09-15T05:27:19Z</time>
      </trkpt>
      <trkpt lat="30.664598" lon="34.810621">
        <ele>776.6</ele>
        <time>2020-09-15T05:27:23Z</time>
      </trkpt>
      <trkpt lat="30.664591" lon="34.810624">
        <ele>776.6</ele>
        <time>2020-09-15T05:27:31Z</time>
      </trkpt>
      <trkpt lat="30.664592" lon="34.810622">
        <ele>776.6</ele>
        <time>2020-09-15T05:27:41Z</time>
      </trkpt>
      <trkpt lat="30.664591" lon="34.810622">
        <ele>776.8</ele>
        <time>2020-09-15T05:27:42Z</time>
      </trkpt>
      <trkpt lat="30.664592" lon="34.810622">
        <ele>776.2</ele>
        <time>2020-09-15T05:27:54Z</time>
      </trkpt>
      <trkpt lat="30.664599" lon="34.810611">
        <ele>776.0</ele>
        <time>2020-09-15T05:28:02Z</time>
      </trkpt>
      <trkpt lat="30.664602" lon="34.810608">
        <ele>776.2</ele>
        <time>2020-09-15T05:28:03Z</time>
      </trkpt>
      <trkpt lat="30.664603" lon="34.810607">
        <ele>776.2</ele>
        <time>2020-09-15T05:28:04Z</time>
      </trkpt>
      <trkpt lat="30.664607" lon="34.810610">
        <ele>776.4</ele>
        <time>2020-09-15T05:28:07Z</time>
      </trkpt>
      <trkpt lat="30.664612" lon="34.810610">
        <ele>776.8</ele>
        <time>2020-09-15T05:28:13Z</time>
      </trkpt>
      <trkpt lat="30.664619" lon="34.810605">
        <ele>776.8</ele>
        <time>2020-09-15T05:28:22Z</time>
      </trkpt>
      <trkpt lat="30.664621" lon="34.810597">
        <ele>776.8</ele>
        <time>2020-09-15T05:28:29Z</time>
      </trkpt>
      <trkpt lat="30.664605" lon="34.810596">
        <ele>776.8</ele>
        <time>2020-09-15T05:28:31Z</time>
      </trkpt>
      <trkpt lat="30.664514" lon="34.810594">
        <ele>776.8</ele>
        <time>2020-09-15T05:28:35Z</time>
      </trkpt>
      <trkpt lat="30.664432" lon="34.810569">
        <ele>775.4</ele>
        <time>2020-09-15T05:28:38Z</time>
      </trkpt>
      <trkpt lat="30.664401" lon="34.810563">
        <ele>775.6</ele>
        <time>2020-09-15T05:28:39Z</time>
      </trkpt>
      <trkpt lat="30.664361" lon="34.810561">
        <ele>776.6</ele>
        <time>2020-09-15T05:28:40Z</time>
      </trkpt>
      <trkpt lat="30.664320" lon="34.810555">
        <ele>776.2</ele>
        <time>2020-09-15T05:28:41Z</time>
      </trkpt>
      <trkpt lat="30.664273" lon="34.810548">
        <ele>776.6</ele>
        <time>2020-09-15T05:28:42Z</time>
      </trkpt>
      <trkpt lat="30.664112" lon="34.810518">
        <ele>774.8</ele>
        <time>2020-09-15T05:28:45Z</time>
      </trkpt>
      <trkpt lat="30.664054" lon="34.810509">
        <ele>775.0</ele>
        <time>2020-09-15T05:28:46Z</time>
      </trkpt>
      <trkpt lat="30.663688" lon="34.810437">
        <ele>774.0</ele>
        <time>2020-09-15T05:28:51Z</time>
      </trkpt>
      <trkpt lat="30.663484" lon="34.810351">
        <ele>773.4</ele>
        <time>2020-09-15T05:28:54Z</time>
      </trkpt>
      <trkpt lat="30.663286" lon="34.810234">
        <ele>772.6</ele>
        <time>2020-09-15T05:28:57Z</time>
      </trkpt>
      <trkpt lat="30.663217" lon="34.810202">
        <ele>772.4</ele>
        <time>2020-09-15T05:28:58Z</time>
      </trkpt>
      <trkpt lat="30.662906" lon="34.810031">
        <ele>771.4</ele>
        <time>2020-09-15T05:29:03Z</time>
      </trkpt>
      <trkpt lat="30.662842" lon="34.809992">
        <ele>771.2</ele>
        <time>2020-09-15T05:29:04Z</time>
      </trkpt>
      <trkpt lat="30.662652" lon="34.809867">
        <ele>770.0</ele>
        <time>2020-09-15T05:29:07Z</time>
      </trkpt>
      <trkpt lat="30.662527" lon="34.809787">
        <ele>769.6</ele>
        <time>2020-09-15T05:29:09Z</time>
      </trkpt>
      <trkpt lat="30.662464" lon="34.809745">
        <ele>769.4</ele>
        <time>2020-09-15T05:29:10Z</time>
      </trkpt>
      <trkpt lat="30.662401" lon="34.809707">
        <ele>769.0</ele>
        <time>2020-09-15T05:29:11Z</time>
      </trkpt>
      <trkpt lat="30.662337" lon="34.809670">
        <ele>768.6</ele>
        <time>2020-09-15T05:29:12Z</time>
      </trkpt>
      <trkpt lat="30.662277" lon="34.809638">
        <ele>768.2</ele>
        <time>2020-09-15T05:29:13Z</time>
      </trkpt>
      <trkpt lat="30.662219" lon="34.809607">
        <ele>768.0</ele>
        <time>2020-09-15T05:29:14Z</time>
      </trkpt>
      <trkpt lat="30.662159" lon="34.809576">
        <ele>767.8</ele>
        <time>2020-09-15T05:29:15Z</time>
      </trkpt>
      <trkpt lat="30.662103" lon="34.809542">
        <ele>767.8</ele>
        <time>2020-09-15T05:29:16Z</time>
      </trkpt>
      <trkpt lat="30.662048" lon="34.809506">
        <ele>767.6</ele>
        <time>2020-09-15T05:29:17Z</time>
      </trkpt>
      <trkpt lat="30.661995" lon="34.809478">
        <ele>767.6</ele>
        <time>2020-09-15T05:29:18Z</time>
      </trkpt>
      <trkpt lat="30.661891" lon="34.809454">
        <ele>767.4</ele>
        <time>2020-09-15T05:29:20Z</time>
      </trkpt>
      <trkpt lat="30.661840" lon="34.809459">
        <ele>767.0</ele>
        <time>2020-09-15T05:29:21Z</time>
      </trkpt>
      <trkpt lat="30.661793" lon="34.809477">
        <ele>766.8</ele>
        <time>2020-09-15T05:29:22Z</time>
      </trkpt>
      <trkpt lat="30.661748" lon="34.809501">
        <ele>766.8</ele>
        <time>2020-09-15T05:29:23Z</time>
      </trkpt>
      <trkpt lat="30.661705" lon="34.809531">
        <ele>766.6</ele>
        <time>2020-09-15T05:29:24Z</time>
      </trkpt>
      <trkpt lat="30.661664" lon="34.809562">
        <ele>766.4</ele>
        <time>2020-09-15T05:29:25Z</time>
      </trkpt>
      <trkpt lat="30.661535" lon="34.809644">
        <ele>766.2</ele>
        <time>2020-09-15T05:29:28Z</time>
      </trkpt>
      <trkpt lat="30.661357" lon="34.809725">
        <ele>766.0</ele>
        <time>2020-09-15T05:29:32Z</time>
      </trkpt>
      <trkpt lat="30.661021" lon="34.809823">
        <ele>766.0</ele>
        <time>2020-09-15T05:29:40Z</time>
      </trkpt>
      <trkpt lat="30.660977" lon="34.809836">
        <ele>766.0</ele>
        <time>2020-09-15T05:29:41Z</time>
      </trkpt>
      <trkpt lat="30.660814" lon="34.809888">
        <ele>765.8</ele>
        <time>2020-09-15T05:29:45Z</time>
      </trkpt>
      <trkpt lat="30.660674" lon="34.809945">
        <ele>766.0</ele>
        <time>2020-09-15T05:29:49Z</time>
      </trkpt>
      <trkpt lat="30.660545" lon="34.809954">
        <ele>766.6</ele>
        <time>2020-09-15T05:29:53Z</time>
      </trkpt>
      <trkpt lat="30.660518" lon="34.809946">
        <ele>766.8</ele>
        <time>2020-09-15T05:29:54Z</time>
      </trkpt>
      <trkpt lat="30.660491" lon="34.809932">
        <ele>766.6</ele>
        <time>2020-09-15T05:29:55Z</time>
      </trkpt>
      <trkpt lat="30.660465" lon="34.809910">
        <ele>766.6</ele>
        <time>2020-09-15T05:29:56Z</time>
      </trkpt>
      <trkpt lat="30.660420" lon="34.809862">
        <ele>766.6</ele>
        <time>2020-09-15T05:29:58Z</time>
      </trkpt>
      <trkpt lat="30.660389" lon="34.809828">
        <ele>766.4</ele>
        <time>2020-09-15T05:30:00Z</time>
      </trkpt>
      <trkpt lat="30.660378" lon="34.809812">
        <ele>766.6</ele>
        <time>2020-09-15T05:30:02Z</time>
      </trkpt>
      <trkpt lat="30.660380" lon="34.809813">
        <ele>766.6</ele>
        <time>2020-09-15T05:30:05Z</time>
      </trkpt>
      <trkpt lat="30.660379" lon="34.809811">
        <ele>766.8</ele>
        <time>2020-09-15T05:30:07Z</time>
      </trkpt>
      <trkpt lat="30.660380" lon="34.809815">
        <ele>766.8</ele>
        <time>2020-09-15T05:30:09Z</time>
      </trkpt>
      <trkpt lat="30.660382" lon="34.809816">
        <ele>766.4</ele>
        <time>2020-09-15T05:30:19Z</time>
      </trkpt>
      <trkpt lat="30.660382" lon="34.809804">
        <ele>767.0</ele>
        <time>2020-09-15T05:30:29Z</time>
      </trkpt>
      <trkpt lat="30.660383" lon="34.809799">
        <ele>767.0</ele>
        <time>2020-09-15T05:30:31Z</time>
      </trkpt>
      <trkpt lat="30.660384" lon="34.809798">
        <ele>767.0</ele>
        <time>2020-09-15T05:30:32Z</time>
      </trkpt>
      <trkpt lat="30.660385" lon="34.809801">
        <ele>767.0</ele>
        <time>2020-09-15T05:30:33Z</time>
      </trkpt>
      <trkpt lat="30.660385" lon="34.809802">
        <ele>766.8</ele>
        <time>2020-09-15T05:30:34Z</time>
      </trkpt>
      <trkpt lat="30.660385" lon="34.809803">
        <ele>766.8</ele>
        <time>2020-09-15T05:30:35Z</time>
      </trkpt>
      <trkpt lat="30.660384" lon="34.809804">
        <ele>766.6</ele>
        <time>2020-09-15T05:30:36Z</time>
      </trkpt>
      <trkpt lat="30.660383" lon="34.809806">
        <ele>766.6</ele>
        <time>2020-09-15T05:30:37Z</time>
      </trkpt>
      <trkpt lat="30.660383" lon="34.809808">
        <ele>766.6</ele>
        <time>2020-09-15T05:30:38Z</time>
      </trkpt>
      <trkpt lat="30.660383" lon="34.809809">
        <ele>766.4</ele>
        <time>2020-09-15T05:30:39Z</time>
      </trkpt>
      <trkpt lat="30.660381" lon="34.809811">
        <ele>766.4</ele>
        <time>2020-09-15T05:30:48Z</time>
      </trkpt>
      <trkpt lat="30.660381" lon="34.809811">
        <ele>766.6</ele>
        <time>2020-09-15T05:30:51Z</time>
      </trkpt>
      <trkpt lat="30.660381" lon="34.809811">
        <ele>766.6</ele>
        <time>2020-09-15T05:30:56Z</time>
      </trkpt>
      <trkpt lat="30.660382" lon="34.809811">
        <ele>766.6</ele>
        <time>2020-09-15T05:31:01Z</time>
      </trkpt>
      <trkpt lat="30.660382" lon="34.809810">
        <ele>766.0</ele>
        <time>2020-09-15T05:31:04Z</time>
      </trkpt>
      <trkpt lat="30.660382" lon="34.809811">
        <ele>766.0</ele>
        <time>2020-09-15T05:31:07Z</time>
      </trkpt>
      <trkpt lat="30.660381" lon="34.809811">
        <ele>766.0</ele>
        <time>2020-09-15T05:31:18Z</time>
      </trkpt>
      <trkpt lat="30.660381" lon="34.809811">
        <ele>766.0</ele>
        <time>2020-09-15T05:31:21Z</time>
      </trkpt>
      <trkpt lat="30.660382" lon="34.809811">
        <ele>766.0</ele>
        <time>2020-09-15T05:31:30Z</time>
      </trkpt>
      <trkpt lat="30.660382" lon="34.809811">
        <ele>766.0</ele>
        <time>2020-09-15T05:31:31Z</time>
      </trkpt>
      <trkpt lat="30.660379" lon="34.809802">
        <ele>766.0</ele>
        <time>2020-09-15T05:31:40Z</time>
      </trkpt>
      <trkpt lat="30.660377" lon="34.809801">
        <ele>766.0</ele>
        <time>2020-09-15T05:31:41Z</time>
      </trkpt>
      <trkpt lat="30.660382" lon="34.809790">
        <ele>766.0</ele>
        <time>2020-09-15T05:31:46Z</time>
      </trkpt>
      <trkpt lat="30.660382" lon="34.809770">
        <ele>766.0</ele>
        <time>2020-09-15T05:31:49Z</time>
      </trkpt>
      <trkpt lat="30.660344" lon="34.809660">
        <ele>766.6</ele>
        <time>2020-09-15T05:31:54Z</time>
      </trkpt>
      <trkpt lat="30.660343" lon="34.809541">
        <ele>767.0</ele>
        <time>2020-09-15T05:31:58Z</time>
      </trkpt>
      <trkpt lat="30.660351" lon="34.809522">
        <ele>766.8</ele>
        <time>2020-09-15T05:31:59Z</time>
      </trkpt>
      <trkpt lat="30.660363" lon="34.809475">
        <ele>766.8</ele>
        <time>2020-09-15T05:32:01Z</time>
      </trkpt>
      <trkpt lat="30.660354" lon="34.809412">
        <ele>767.0</ele>
        <time>2020-09-15T05:32:03Z</time>
      </trkpt>
      <trkpt lat="30.660347" lon="34.809379">
        <ele>767.0</ele>
        <time>2020-09-15T05:32:04Z</time>
      </trkpt>
      <trkpt lat="30.660308" lon="34.809242">
        <ele>766.8</ele>
        <time>2020-09-15T05:32:08Z</time>
      </trkpt>
      <trkpt lat="30.660277" lon="34.809147">
        <ele>766.8</ele>
        <time>2020-09-15T05:32:11Z</time>
      </trkpt>
      <trkpt lat="30.660215" lon="34.808918">
        <ele>766.6</ele>
        <time>2020-09-15T05:32:19Z</time>
      </trkpt>
      <trkpt lat="30.660207" lon="34.808888">
        <ele>766.6</ele>
        <time>2020-09-15T05:32:20Z</time>
      </trkpt>
      <trkpt lat="30.660199" lon="34.808857">
        <ele>766.6</ele>
        <time>2020-09-15T05:32:21Z</time>
      </trkpt>
      <trkpt lat="30.660186" lon="34.808798">
        <ele>766.4</ele>
        <time>2020-09-15T05:32:23Z</time>
      </trkpt>
      <trkpt lat="30.660130" lon="34.808557">
        <ele>767.0</ele>
        <time>2020-09-15T05:32:30Z</time>
      </trkpt>
      <trkpt lat="30.660047" lon="34.808215">
        <ele>767.4</ele>
        <time>2020-09-15T05:32:40Z</time>
      </trkpt>
      <trkpt lat="30.660004" lon="34.808034">
        <ele>766.8</ele>
        <time>2020-09-15T05:32:45Z</time>
      </trkpt>
      <trkpt lat="30.659968" lon="34.807909">
        <ele>766.2</ele>
        <time>2020-09-15T05:32:48Z</time>
      </trkpt>
      <trkpt lat="30.659957" lon="34.807867">
        <ele>766.0</ele>
        <time>2020-09-15T05:32:49Z</time>
      </trkpt>
      <trkpt lat="30.659946" lon="34.807826">
        <ele>766.0</ele>
        <time>2020-09-15T05:32:50Z</time>
      </trkpt>
      <trkpt lat="30.659933" lon="34.807784">
        <ele>766.0</ele>
        <time>2020-09-15T05:32:51Z</time>
      </trkpt>
      <trkpt lat="30.659919" lon="34.807741">
        <ele>766.0</ele>
        <time>2020-09-15T05:32:52Z</time>
      </trkpt>
      <trkpt lat="30.659905" lon="34.807697">
        <ele>765.8</ele>
        <time>2020-09-15T05:32:53Z</time>
      </trkpt>
      <trkpt lat="30.659891" lon="34.807652">
        <ele>765.8</ele>
        <time>2020-09-15T05:32:54Z</time>
      </trkpt>
      <trkpt lat="30.659877" lon="34.807605">
        <ele>765.6</ele>
        <time>2020-09-15T05:32:55Z</time>
      </trkpt>
      <trkpt lat="30.659864" lon="34.807558">
        <ele>765.4</ele>
        <time>2020-09-15T05:32:56Z</time>
      </trkpt>
      <trkpt lat="30.659851" lon="34.807512">
        <ele>765.2</ele>
        <time>2020-09-15T05:32:57Z</time>
      </trkpt>
      <trkpt lat="30.659838" lon="34.807466">
        <ele>765.2</ele>
        <time>2020-09-15T05:32:58Z</time>
      </trkpt>
      <trkpt lat="30.659744" lon="34.807177">
        <ele>764.6</ele>
        <time>2020-09-15T05:33:04Z</time>
      </trkpt>
      <trkpt lat="30.659728" lon="34.807130">
        <ele>764.2</ele>
        <time>2020-09-15T05:33:05Z</time>
      </trkpt>
      <trkpt lat="30.659693" lon="34.807033">
        <ele>763.8</ele>
        <time>2020-09-15T05:33:07Z</time>
      </trkpt>
      <trkpt lat="30.659623" lon="34.806833">
        <ele>763.2</ele>
        <time>2020-09-15T05:33:11Z</time>
      </trkpt>
      <trkpt lat="30.659523" lon="34.806552">
        <ele>763.4</ele>
        <time>2020-09-15T05:33:17Z</time>
      </trkpt>
      <trkpt lat="30.659504" lon="34.806503">
        <ele>763.2</ele>
        <time>2020-09-15T05:33:18Z</time>
      </trkpt>
      <trkpt lat="30.659361" lon="34.806148">
        <ele>762.4</ele>
        <time>2020-09-15T05:33:25Z</time>
      </trkpt>
      <trkpt lat="30.659294" lon="34.805994">
        <ele>762.6</ele>
        <time>2020-09-15T05:33:28Z</time>
      </trkpt>
      <trkpt lat="30.659029" lon="34.805419">
        <ele>762.6</ele>
        <time>2020-09-15T05:33:39Z</time>
      </trkpt>
      <trkpt lat="30.659004" lon="34.805369">
        <ele>762.6</ele>
        <time>2020-09-15T05:33:40Z</time>
      </trkpt>
      <trkpt lat="30.658831" lon="34.805028">
        <ele>763.0</ele>
        <time>2020-09-15T05:33:47Z</time>
      </trkpt>
      <trkpt lat="30.658596" lon="34.804610">
        <ele>762.8</ele>
        <time>2020-09-15T05:33:55Z</time>
      </trkpt>
      <trkpt lat="30.658532" lon="34.804503">
        <ele>762.6</ele>
        <time>2020-09-15T05:33:57Z</time>
      </trkpt>
      <trkpt lat="30.658434" lon="34.804345">
        <ele>762.2</ele>
        <time>2020-09-15T05:34:00Z</time>
      </trkpt>
      <trkpt lat="30.658369" lon="34.804236">
        <ele>762.0</ele>
        <time>2020-09-15T05:34:02Z</time>
      </trkpt>
      <trkpt lat="30.658335" lon="34.804184">
        <ele>762.0</ele>
        <time>2020-09-15T05:34:03Z</time>
      </trkpt>
      <trkpt lat="30.658300" lon="34.804132">
        <ele>762.0</ele>
        <time>2020-09-15T05:34:04Z</time>
      </trkpt>
      <trkpt lat="30.658238" lon="34.804031">
        <ele>762.0</ele>
        <time>2020-09-15T05:34:06Z</time>
      </trkpt>
      <trkpt lat="30.658207" lon="34.803984">
        <ele>762.0</ele>
        <time>2020-09-15T05:34:07Z</time>
      </trkpt>
      <trkpt lat="30.657986" lon="34.803671">
        <ele>762.2</ele>
        <time>2020-09-15T05:34:14Z</time>
      </trkpt>
      <trkpt lat="30.657795" lon="34.803405">
        <ele>761.2</ele>
        <time>2020-09-15T05:34:20Z</time>
      </trkpt>
      <trkpt lat="30.657761" lon="34.803359">
        <ele>761.2</ele>
        <time>2020-09-15T05:34:21Z</time>
      </trkpt>
      <trkpt lat="30.657725" lon="34.803312">
        <ele>761.0</ele>
        <time>2020-09-15T05:34:22Z</time>
      </trkpt>
      <trkpt lat="30.657588" lon="34.803117">
        <ele>760.8</ele>
        <time>2020-09-15T05:34:26Z</time>
      </trkpt>
      <trkpt lat="30.657415" lon="34.802878">
        <ele>760.8</ele>
        <time>2020-09-15T05:34:31Z</time>
      </trkpt>
      <trkpt lat="30.657148" lon="34.802508">
        <ele>761.0</ele>
        <time>2020-09-15T05:34:39Z</time>
      </trkpt>
      <trkpt lat="30.656868" lon="34.802122">
        <ele>761.0</ele>
        <time>2020-09-15T05:34:48Z</time>
      </trkpt>
      <trkpt lat="30.656613" lon="34.801765">
        <ele>761.0</ele>
        <time>2020-09-15T05:34:58Z</time>
      </trkpt>
      <trkpt lat="30.656457" lon="34.801549">
        <ele>760.6</ele>
        <time>2020-09-15T05:35:04Z</time>
      </trkpt>
      <trkpt lat="30.656328" lon="34.801368">
        <ele>761.2</ele>
        <time>2020-09-15T05:35:09Z</time>
      </trkpt>
      <trkpt lat="30.656064" lon="34.801000">
        <ele>761.4</ele>
        <time>2020-09-15T05:35:19Z</time>
      </trkpt>
      <trkpt lat="30.655805" lon="34.800636">
        <ele>760.8</ele>
        <time>2020-09-15T05:35:29Z</time>
      </trkpt>
      <trkpt lat="30.655707" lon="34.800489">
        <ele>760.8</ele>
        <time>2020-09-15T05:35:33Z</time>
      </trkpt>
      <trkpt lat="30.655497" lon="34.800198">
        <ele>761.2</ele>
        <time>2020-09-15T05:35:41Z</time>
      </trkpt>
      <trkpt lat="30.655370" lon="34.800022">
        <ele>761.4</ele>
        <time>2020-09-15T05:35:46Z</time>
      </trkpt>
      <trkpt lat="30.655271" lon="34.799877">
        <ele>761.0</ele>
        <time>2020-09-15T05:35:50Z</time>
      </trkpt>
      <trkpt lat="30.655011" lon="34.799508">
        <ele>762.0</ele>
        <time>2020-09-15T05:36:00Z</time>
      </trkpt>
      <trkpt lat="30.654957" lon="34.799433">
        <ele>762.0</ele>
        <time>2020-09-15T05:36:02Z</time>
      </trkpt>
      <trkpt lat="30.654931" lon="34.799394">
        <ele>762.2</ele>
        <time>2020-09-15T05:36:03Z</time>
      </trkpt>
      <trkpt lat="30.654909" lon="34.799355">
        <ele>762.4</ele>
        <time>2020-09-15T05:36:04Z</time>
      </trkpt>
      <trkpt lat="30.654887" lon="34.799316">
        <ele>762.4</ele>
        <time>2020-09-15T05:36:05Z</time>
      </trkpt>
      <trkpt lat="30.654821" lon="34.799195">
        <ele>762.2</ele>
        <time>2020-09-15T05:36:08Z</time>
      </trkpt>
      <trkpt lat="30.654615" lon="34.798846">
        <ele>761.8</ele>
        <time>2020-09-15T05:36:17Z</time>
      </trkpt>
      <trkpt lat="30.654393" lon="34.798563">
        <ele>763.0</ele>
        <time>2020-09-15T05:36:26Z</time>
      </trkpt>
      <trkpt lat="30.654351" lon="34.798506">
        <ele>763.4</ele>
        <time>2020-09-15T05:36:28Z</time>
      </trkpt>
      <trkpt lat="30.654233" lon="34.798337">
        <ele>764.0</ele>
        <time>2020-09-15T05:36:34Z</time>
      </trkpt>
      <trkpt lat="30.654175" lon="34.798149">
        <ele>764.0</ele>
        <time>2020-09-15T05:36:40Z</time>
      </trkpt>
      <trkpt lat="30.654189" lon="34.798011">
        <ele>764.4</ele>
        <time>2020-09-15T05:36:44Z</time>
      </trkpt>
      <trkpt lat="30.654204" lon="34.797870">
        <ele>764.6</ele>
        <time>2020-09-15T05:36:48Z</time>
      </trkpt>
      <trkpt lat="30.654168" lon="34.797667">
        <ele>765.2</ele>
        <time>2020-09-15T05:36:54Z</time>
      </trkpt>
      <trkpt lat="30.654099" lon="34.797555">
        <ele>765.4</ele>
        <time>2020-09-15T05:36:58Z</time>
      </trkpt>
      <trkpt lat="30.654042" lon="34.797478">
        <ele>765.6</ele>
        <time>2020-09-15T05:37:01Z</time>
      </trkpt>
      <trkpt lat="30.653988" lon="34.797376">
        <ele>766.6</ele>
        <time>2020-09-15T05:37:05Z</time>
      </trkpt>
      <trkpt lat="30.653957" lon="34.797285">
        <ele>767.2</ele>
        <time>2020-09-15T05:37:08Z</time>
      </trkpt>
      <trkpt lat="30.653932" lon="34.797070">
        <ele>767.2</ele>
        <time>2020-09-15T05:37:15Z</time>
      </trkpt>
      <trkpt lat="30.653931" lon="34.797041">
        <ele>767.4</ele>
        <time>2020-09-15T05:37:16Z</time>
      </trkpt>
      <trkpt lat="30.653928" lon="34.796978">
        <ele>767.6</ele>
        <time>2020-09-15T05:37:18Z</time>
      </trkpt>
      <trkpt lat="30.653920" lon="34.796914">
        <ele>767.6</ele>
        <time>2020-09-15T05:37:20Z</time>
      </trkpt>
      <trkpt lat="30.653886" lon="34.796824">
        <ele>767.2</ele>
        <time>2020-09-15T05:37:23Z</time>
      </trkpt>
      <trkpt lat="30.653854" lon="34.796769">
        <ele>767.4</ele>
        <time>2020-09-15T05:37:25Z</time>
      </trkpt>
      <trkpt lat="30.653729" lon="34.796577">
        <ele>767.8</ele>
        <time>2020-09-15T05:37:32Z</time>
      </trkpt>
      <trkpt lat="30.653656" lon="34.796464">
        <ele>768.6</ele>
        <time>2020-09-15T05:37:36Z</time>
      </trkpt>
      <trkpt lat="30.653546" lon="34.796270">
        <ele>767.8</ele>
        <time>2020-09-15T05:37:42Z</time>
      </trkpt>
      <trkpt lat="30.653527" lon="34.796235">
        <ele>767.4</ele>
        <time>2020-09-15T05:37:43Z</time>
      </trkpt>
      <trkpt lat="30.653477" lon="34.796130">
        <ele>767.8</ele>
        <time>2020-09-15T05:37:46Z</time>
      </trkpt>
      <trkpt lat="30.653450" lon="34.796064">
        <ele>768.0</ele>
        <time>2020-09-15T05:37:48Z</time>
      </trkpt>
      <trkpt lat="30.653423" lon="34.796000">
        <ele>768.0</ele>
        <time>2020-09-15T05:37:50Z</time>
      </trkpt>
      <trkpt lat="30.653395" lon="34.795936">
        <ele>768.0</ele>
        <time>2020-09-15T05:37:52Z</time>
      </trkpt>
      <trkpt lat="30.653281" lon="34.795705">
        <ele>768.6</ele>
        <time>2020-09-15T05:37:59Z</time>
      </trkpt>
      <trkpt lat="30.653096" lon="34.795446">
        <ele>768.8</ele>
        <time>2020-09-15T05:38:08Z</time>
      </trkpt>
      <trkpt lat="30.652944" lon="34.795257">
        <ele>768.2</ele>
        <time>2020-09-15T05:38:15Z</time>
      </trkpt>
      <trkpt lat="30.652907" lon="34.795195">
        <ele>768.2</ele>
        <time>2020-09-15T05:38:17Z</time>
      </trkpt>
      <trkpt lat="30.652825" lon="34.795027">
        <ele>768.6</ele>
        <time>2020-09-15T05:38:22Z</time>
      </trkpt>
      <trkpt lat="30.652773" lon="34.794925">
        <ele>768.0</ele>
        <time>2020-09-15T05:38:25Z</time>
      </trkpt>
      <trkpt lat="30.652692" lon="34.794802">
        <ele>767.6</ele>
        <time>2020-09-15T05:38:29Z</time>
      </trkpt>
      <trkpt lat="30.652591" lon="34.794680">
        <ele>767.8</ele>
        <time>2020-09-15T05:38:34Z</time>
      </trkpt>
      <trkpt lat="30.652419" lon="34.794579">
        <ele>767.6</ele>
        <time>2020-09-15T05:38:41Z</time>
      </trkpt>
      <trkpt lat="30.652209" lon="34.794543">
        <ele>768.0</ele>
        <time>2020-09-15T05:38:48Z</time>
      </trkpt>
      <trkpt lat="30.652148" lon="34.794534">
        <ele>768.0</ele>
        <time>2020-09-15T05:38:50Z</time>
      </trkpt>
      <trkpt lat="30.651879" lon="34.794490">
        <ele>768.6</ele>
        <time>2020-09-15T05:38:59Z</time>
      </trkpt>
      <trkpt lat="30.651789" lon="34.794426">
        <ele>769.0</ele>
        <time>2020-09-15T05:39:04Z</time>
      </trkpt>
      <trkpt lat="30.651791" lon="34.794270">
        <ele>768.4</ele>
        <time>2020-09-15T05:39:10Z</time>
      </trkpt>
      <trkpt lat="30.651789" lon="34.794237">
        <ele>768.2</ele>
        <time>2020-09-15T05:39:11Z</time>
      </trkpt>
      <trkpt lat="30.651756" lon="34.794190">
        <ele>768.2</ele>
        <time>2020-09-15T05:39:14Z</time>
      </trkpt>
      <trkpt lat="30.651741" lon="34.794182">
        <ele>768.2</ele>
        <time>2020-09-15T05:39:15Z</time>
      </trkpt>
      <trkpt lat="30.651725" lon="34.794175">
        <ele>768.0</ele>
        <time>2020-09-15T05:39:16Z</time>
      </trkpt>
      <trkpt lat="30.651704" lon="34.794157">
        <ele>767.8</ele>
        <time>2020-09-15T05:39:17Z</time>
      </trkpt>
      <trkpt lat="30.651679" lon="34.794144">
        <ele>767.8</ele>
        <time>2020-09-15T05:39:18Z</time>
      </trkpt>
      <trkpt lat="30.651658" lon="34.794137">
        <ele>767.6</ele>
        <time>2020-09-15T05:39:19Z</time>
      </trkpt>
      <trkpt lat="30.651643" lon="34.794133">
        <ele>767.4</ele>
        <time>2020-09-15T05:39:20Z</time>
      </trkpt>
      <trkpt lat="30.651620" lon="34.794132">
        <ele>767.4</ele>
        <time>2020-09-15T05:39:24Z</time>
      </trkpt>
      <trkpt lat="30.651624" lon="34.794138">
        <ele>767.2</ele>
        <time>2020-09-15T05:39:31Z</time>
      </trkpt>
      <trkpt lat="30.651626" lon="34.794140">
        <ele>767.2</ele>
        <time>2020-09-15T05:39:34Z</time>
      </trkpt>
      <trkpt lat="30.651623" lon="34.794145">
        <ele>767.4</ele>
        <time>2020-09-15T05:39:37Z</time>
      </trkpt>
      <trkpt lat="30.651623" lon="34.794142">
        <ele>767.0</ele>
        <time>2020-09-15T05:39:45Z</time>
      </trkpt>
      <trkpt lat="30.651632" lon="34.794134">
        <ele>766.6</ele>
        <time>2020-09-15T05:39:48Z</time>
      </trkpt>
      <trkpt lat="30.651636" lon="34.794128">
        <ele>766.4</ele>
        <time>2020-09-15T05:39:52Z</time>
      </trkpt>
      <trkpt lat="30.651636" lon="34.794129">
        <ele>766.4</ele>
        <time>2020-09-15T05:39:53Z</time>
      </trkpt>
      <trkpt lat="30.651634" lon="34.794129">
        <ele>766.6</ele>
        <time>2020-09-15T05:39:54Z</time>
      </trkpt>
      <trkpt lat="30.651633" lon="34.794125">
        <ele>767.2</ele>
        <time>2020-09-15T05:40:00Z</time>
      </trkpt>
      <trkpt lat="30.651634" lon="34.794122">
        <ele>767.2</ele>
        <time>2020-09-15T05:40:02Z</time>
      </trkpt>
      <trkpt lat="30.651634" lon="34.794119">
        <ele>767.0</ele>
        <time>2020-09-15T05:40:10Z</time>
      </trkpt>
      <trkpt lat="30.651637" lon="34.794117">
        <ele>767.0</ele>
        <time>2020-09-15T05:40:19Z</time>
      </trkpt>
      <trkpt lat="30.651635" lon="34.794117">
        <ele>767.0</ele>
        <time>2020-09-15T05:40:22Z</time>
      </trkpt>
      <trkpt lat="30.651636" lon="34.794112">
        <ele>767.0</ele>
        <time>2020-09-15T05:40:26Z</time>
      </trkpt>
      <trkpt lat="30.651635" lon="34.794109">
        <ele>767.0</ele>
        <time>2020-09-15T05:40:29Z</time>
      </trkpt>
      <trkpt lat="30.651634" lon="34.794108">
        <ele>767.0</ele>
        <time>2020-09-15T05:40:30Z</time>
      </trkpt>
      <trkpt lat="30.651626" lon="34.794108">
        <ele>767.0</ele>
        <time>2020-09-15T05:40:31Z</time>
      </trkpt>
      <trkpt lat="30.651567" lon="34.794096">
        <ele>767.0</ele>
        <time>2020-09-15T05:40:34Z</time>
      </trkpt>
      <trkpt lat="30.651518" lon="34.794072">
        <ele>767.0</ele>
        <time>2020-09-15T05:40:36Z</time>
      </trkpt>
      <trkpt lat="30.651430" lon="34.794011">
        <ele>766.8</ele>
        <time>2020-09-15T05:40:40Z</time>
      </trkpt>
      <trkpt lat="30.651313" lon="34.793917">
        <ele>767.2</ele>
        <time>2020-09-15T05:40:46Z</time>
      </trkpt>
      <trkpt lat="30.651123" lon="34.793864">
        <ele>766.8</ele>
        <time>2020-09-15T05:40:53Z</time>
      </trkpt>
      <trkpt lat="30.650980" lon="34.793776">
        <ele>766.6</ele>
        <time>2020-09-15T05:40:58Z</time>
      </trkpt>
      <trkpt lat="30.650881" lon="34.793664">
        <ele>766.2</ele>
        <time>2020-09-15T05:41:02Z</time>
      </trkpt>
      <trkpt lat="30.650774" lon="34.793565">
        <ele>765.8</ele>
        <time>2020-09-15T05:41:06Z</time>
      </trkpt>
      <trkpt lat="30.650503" lon="34.793305">
        <ele>765.8</ele>
        <time>2020-09-15T05:41:15Z</time>
      </trkpt>
      <trkpt lat="30.650332" lon="34.793050">
        <ele>766.2</ele>
        <time>2020-09-15T05:41:22Z</time>
      </trkpt>
      <trkpt lat="30.650170" lon="34.792705">
        <ele>765.6</ele>
        <time>2020-09-15T05:41:31Z</time>
      </trkpt>
      <trkpt lat="30.650077" lon="34.792507">
        <ele>765.6</ele>
        <time>2020-09-15T05:41:36Z</time>
      </trkpt>
      <trkpt lat="30.650058" lon="34.792466">
        <ele>765.6</ele>
        <time>2020-09-15T05:41:37Z</time>
      </trkpt>
      <trkpt lat="30.650021" lon="34.792380">
        <ele>765.6</ele>
        <time>2020-09-15T05:41:39Z</time>
      </trkpt>
      <trkpt lat="30.649986" lon="34.792296">
        <ele>765.2</ele>
        <time>2020-09-15T05:41:41Z</time>
      </trkpt>
      <trkpt lat="30.649862" lon="34.791980">
        <ele>764.6</ele>
        <time>2020-09-15T05:41:48Z</time>
      </trkpt>
      <trkpt lat="30.649828" lon="34.791892">
        <ele>764.4</ele>
        <time>2020-09-15T05:41:50Z</time>
      </trkpt>
      <trkpt lat="30.649769" lon="34.791751">
        <ele>764.4</ele>
        <time>2020-09-15T05:41:53Z</time>
      </trkpt>
      <trkpt lat="30.649690" lon="34.791560">
        <ele>764.0</ele>
        <time>2020-09-15T05:41:57Z</time>
      </trkpt>
      <trkpt lat="30.649567" lon="34.791264">
        <ele>763.8</ele>
        <time>2020-09-15T05:42:03Z</time>
      </trkpt>
      <trkpt lat="30.649466" lon="34.791017">
        <ele>764.0</ele>
        <time>2020-09-15T05:42:08Z</time>
      </trkpt>
      <trkpt lat="30.649412" lon="34.790873">
        <ele>763.6</ele>
        <time>2020-09-15T05:42:11Z</time>
      </trkpt>
      <trkpt lat="30.649378" lon="34.790784">
        <ele>763.2</ele>
        <time>2020-09-15T05:42:13Z</time>
      </trkpt>
      <trkpt lat="30.649345" lon="34.790700">
        <ele>763.0</ele>
        <time>2020-09-15T05:42:15Z</time>
      </trkpt>
      <trkpt lat="30.649297" lon="34.790555">
        <ele>762.8</ele>
        <time>2020-09-15T05:42:19Z</time>
      </trkpt>
      <trkpt lat="30.649246" lon="34.790405">
        <ele>763.0</ele>
        <time>2020-09-15T05:42:25Z</time>
      </trkpt>
      <trkpt lat="30.649213" lon="34.790411">
        <ele>763.0</ele>
        <time>2020-09-15T05:42:28Z</time>
      </trkpt>
      <trkpt lat="30.649189" lon="34.790418">
        <ele>763.2</ele>
        <time>2020-09-15T05:42:30Z</time>
      </trkpt>
      <trkpt lat="30.649184" lon="34.790413">
        <ele>762.8</ele>
        <time>2020-09-15T05:42:35Z</time>
      </trkpt>
      <trkpt lat="30.649191" lon="34.790406">
        <ele>762.2</ele>
        <time>2020-09-15T05:42:41Z</time>
      </trkpt>
      <trkpt lat="30.649193" lon="34.790404">
        <ele>762.2</ele>
        <time>2020-09-15T05:42:42Z</time>
      </trkpt>
      <trkpt lat="30.649194" lon="34.790404">
        <ele>762.4</ele>
        <time>2020-09-15T05:42:43Z</time>
      </trkpt>
      <trkpt lat="30.649194" lon="34.790402">
        <ele>762.8</ele>
        <time>2020-09-15T05:42:44Z</time>
      </trkpt>
      <trkpt lat="30.649195" lon="34.790393">
        <ele>763.4</ele>
        <time>2020-09-15T05:42:48Z</time>
      </trkpt>
      <trkpt lat="30.649196" lon="34.790391">
        <ele>763.4</ele>
        <time>2020-09-15T05:42:52Z</time>
      </trkpt>
      <trkpt lat="30.649198" lon="34.790389">
        <ele>763.4</ele>
        <time>2020-09-15T05:42:54Z</time>
      </trkpt>
      <trkpt lat="30.649199" lon="34.790390">
        <ele>763.4</ele>
        <time>2020-09-15T05:42:55Z</time>
      </trkpt>
      <trkpt lat="30.649201" lon="34.790390">
        <ele>763.4</ele>
        <time>2020-09-15T05:42:56Z</time>
      </trkpt>
      <trkpt lat="30.649200" lon="34.790391">
        <ele>763.4</ele>
        <time>2020-09-15T05:42:57Z</time>
      </trkpt>
      <trkpt lat="30.649201" lon="34.790391">
        <ele>763.2</ele>
        <time>2020-09-15T05:42:59Z</time>
      </trkpt>
      <trkpt lat="30.649202" lon="34.790391">
        <ele>763.0</ele>
        <time>2020-09-15T05:43:00Z</time>
      </trkpt>
      <trkpt lat="30.649208" lon="34.790390">
        <ele>763.2</ele>
        <time>2020-09-15T05:43:10Z</time>
      </trkpt>
      <trkpt lat="30.649212" lon="34.790393">
        <ele>762.8</ele>
        <time>2020-09-15T05:43:17Z</time>
      </trkpt>
      <trkpt lat="30.649206" lon="34.790399">
        <ele>763.2</ele>
        <time>2020-09-15T05:43:26Z</time>
      </trkpt>
      <trkpt lat="30.649200" lon="34.790398">
        <ele>762.8</ele>
        <time>2020-09-15T05:43:28Z</time>
      </trkpt>
      <trkpt lat="30.649155" lon="34.790406">
        <ele>762.4</ele>
        <time>2020-09-15T05:43:31Z</time>
      </trkpt>
      <trkpt lat="30.649012" lon="34.790399">
        <ele>762.8</ele>
        <time>2020-09-15T05:43:37Z</time>
      </trkpt>
      <trkpt lat="30.648849" lon="34.790408">
        <ele>762.6</ele>
        <time>2020-09-15T05:43:43Z</time>
      </trkpt>
      <trkpt lat="30.648819" lon="34.790406">
        <ele>762.8</ele>
        <time>2020-09-15T05:43:44Z</time>
      </trkpt>
      <trkpt lat="30.648581" lon="34.790410">
        <ele>762.4</ele>
        <time>2020-09-15T05:43:52Z</time>
      </trkpt>
      <trkpt lat="30.648242" lon="34.790417">
        <ele>762.4</ele>
        <time>2020-09-15T05:44:01Z</time>
      </trkpt>
      <trkpt lat="30.648111" lon="34.790421">
        <ele>762.0</ele>
        <time>2020-09-15T05:44:04Z</time>
      </trkpt>
      <trkpt lat="30.647888" lon="34.790420">
        <ele>762.2</ele>
        <time>2020-09-15T05:44:09Z</time>
      </trkpt>
      <trkpt lat="30.647803" lon="34.790419">
        <ele>762.2</ele>
        <time>2020-09-15T05:44:11Z</time>
      </trkpt>
      <trkpt lat="30.647411" lon="34.790431">
        <ele>762.2</ele>
        <time>2020-09-15T05:44:20Z</time>
      </trkpt>
      <trkpt lat="30.647326" lon="34.790449">
        <ele>762.2</ele>
        <time>2020-09-15T05:44:22Z</time>
      </trkpt>
      <trkpt lat="30.647207" lon="34.790510">
        <ele>761.6</ele>
        <time>2020-09-15T05:44:25Z</time>
      </trkpt>
      <trkpt lat="30.647102" lon="34.790605">
        <ele>761.4</ele>
        <time>2020-09-15T05:44:28Z</time>
      </trkpt>
      <trkpt lat="30.647045" lon="34.790681">
        <ele>761.4</ele>
        <time>2020-09-15T05:44:30Z</time>
      </trkpt>
      <trkpt lat="30.647021" lon="34.790721">
        <ele>761.6</ele>
        <time>2020-09-15T05:44:31Z</time>
      </trkpt>
      <trkpt lat="30.646807" lon="34.791075">
        <ele>761.6</ele>
        <time>2020-09-15T05:44:40Z</time>
      </trkpt>
      <trkpt lat="30.646658" lon="34.791328">
        <ele>761.6</ele>
        <time>2020-09-15T05:44:46Z</time>
      </trkpt>
      <trkpt lat="30.646582" lon="34.791455">
        <ele>761.6</ele>
        <time>2020-09-15T05:44:49Z</time>
      </trkpt>
      <trkpt lat="30.646507" lon="34.791579">
        <ele>761.8</ele>
        <time>2020-09-15T05:44:52Z</time>
      </trkpt>
      <trkpt lat="30.646384" lon="34.791775">
        <ele>762.0</ele>
        <time>2020-09-15T05:44:57Z</time>
      </trkpt>
      <trkpt lat="30.646360" lon="34.791813">
        <ele>762.2</ele>
        <time>2020-09-15T05:44:58Z</time>
      </trkpt>
      <trkpt lat="30.646181" lon="34.792120">
        <ele>762.4</ele>
        <time>2020-09-15T05:45:06Z</time>
      </trkpt>
      <trkpt lat="30.646158" lon="34.792160">
        <ele>762.4</ele>
        <time>2020-09-15T05:45:07Z</time>
      </trkpt>
      <trkpt lat="30.646010" lon="34.792426">
        <ele>762.4</ele>
        <time>2020-09-15T05:45:14Z</time>
      </trkpt>
      <trkpt lat="30.645871" lon="34.792469">
        <ele>762.4</ele>
        <time>2020-09-15T05:45:18Z</time>
      </trkpt>
      <trkpt lat="30.645719" lon="34.792443">
        <ele>762.0</ele>
        <time>2020-09-15T05:45:23Z</time>
      </trkpt>
      <trkpt lat="30.645667" lon="34.792430">
        <ele>762.2</ele>
        <time>2020-09-15T05:45:25Z</time>
      </trkpt>
      <trkpt lat="30.645426" lon="34.792371">
        <ele>762.2</ele>
        <time>2020-09-15T05:45:33Z</time>
      </trkpt>
      <trkpt lat="30.645130" lon="34.792293">
        <ele>763.2</ele>
        <time>2020-09-15T05:45:42Z</time>
      </trkpt>
      <trkpt lat="30.644896" lon="34.792289">
        <ele>763.6</ele>
        <time>2020-09-15T05:45:49Z</time>
      </trkpt>
      <trkpt lat="30.644800" lon="34.792301">
        <ele>763.8</ele>
        <time>2020-09-15T05:45:52Z</time>
      </trkpt>
      <trkpt lat="30.644631" lon="34.792344">
        <ele>763.8</ele>
        <time>2020-09-15T05:45:57Z</time>
      </trkpt>
      <trkpt lat="30.644376" lon="34.792458">
        <ele>764.2</ele>
        <time>2020-09-15T05:46:05Z</time>
      </trkpt>
      <trkpt lat="30.644246" lon="34.792524">
        <ele>764.6</ele>
        <time>2020-09-15T05:46:09Z</time>
      </trkpt>
      <trkpt lat="30.644014" lon="34.792633">
        <ele>764.4</ele>
        <time>2020-09-15T05:46:16Z</time>
      </trkpt>
      <trkpt lat="30.643846" lon="34.792713">
        <ele>764.8</ele>
        <time>2020-09-15T05:46:21Z</time>
      </trkpt>
      <trkpt lat="30.643751" lon="34.792777">
        <ele>765.0</ele>
        <time>2020-09-15T05:46:24Z</time>
      </trkpt>
      <trkpt lat="30.643633" lon="34.792876">
        <ele>765.6</ele>
        <time>2020-09-15T05:46:28Z</time>
      </trkpt>
      <trkpt lat="30.643604" lon="34.792902">
        <ele>765.8</ele>
        <time>2020-09-15T05:46:29Z</time>
      </trkpt>
      <trkpt lat="30.643492" lon="34.793013">
        <ele>766.2</ele>
        <time>2020-09-15T05:46:33Z</time>
      </trkpt>
      <trkpt lat="30.643391" lon="34.793109">
        <ele>766.8</ele>
        <time>2020-09-15T05:46:37Z</time>
      </trkpt>
      <trkpt lat="30.643349" lon="34.793144">
        <ele>766.8</ele>
        <time>2020-09-15T05:46:39Z</time>
      </trkpt>
      <trkpt lat="30.643237" lon="34.793151">
        <ele>766.8</ele>
        <time>2020-09-15T05:46:44Z</time>
      </trkpt>
      <trkpt lat="30.643179" lon="34.793102">
        <ele>767.0</ele>
        <time>2020-09-15T05:46:49Z</time>
      </trkpt>
      <trkpt lat="30.643179" lon="34.793087">
        <ele>767.4</ele>
        <time>2020-09-15T05:46:54Z</time>
      </trkpt>
      <trkpt lat="30.643178" lon="34.793086">
        <ele>767.0</ele>
        <time>2020-09-15T05:46:57Z</time>
      </trkpt>
      <trkpt lat="30.643173" lon="34.793082">
        <ele>766.8</ele>
        <time>2020-09-15T05:47:00Z</time>
      </trkpt>
      <trkpt lat="30.643168" lon="34.793072">
        <ele>766.8</ele>
        <time>2020-09-15T05:47:01Z</time>
      </trkpt>
      <trkpt lat="30.643149" lon="34.793034">
        <ele>767.4</ele>
        <time>2020-09-15T05:47:04Z</time>
      </trkpt>
      <trkpt lat="30.643140" lon="34.793016">
        <ele>767.6</ele>
        <time>2020-09-15T05:47:07Z</time>
      </trkpt>
      <trkpt lat="30.643142" lon="34.793017">
        <ele>767.2</ele>
        <time>2020-09-15T05:47:13Z</time>
      </trkpt>
      <trkpt lat="30.643139" lon="34.793004">
        <ele>767.2</ele>
        <time>2020-09-15T05:47:14Z</time>
      </trkpt>
      <trkpt lat="30.643133" lon="34.792991">
        <ele>767.4</ele>
        <time>2020-09-15T05:47:17Z</time>
      </trkpt>
      <trkpt lat="30.643133" lon="34.792989">
        <ele>767.2</ele>
        <time>2020-09-15T05:47:19Z</time>
      </trkpt>
      <trkpt lat="30.643125" lon="34.792978">
        <ele>767.0</ele>
        <time>2020-09-15T05:47:22Z</time>
      </trkpt>
      <trkpt lat="30.643084" lon="34.792962">
        <ele>767.0</ele>
        <time>2020-09-15T05:47:25Z</time>
      </trkpt>
      <trkpt lat="30.642920" lon="34.792898">
        <ele>767.6</ele>
        <time>2020-09-15T05:47:32Z</time>
      </trkpt>
      <trkpt lat="30.642899" lon="34.792882">
        <ele>767.6</ele>
        <time>2020-09-15T05:47:33Z</time>
      </trkpt>
      <trkpt lat="30.642878" lon="34.792865">
        <ele>767.8</ele>
        <time>2020-09-15T05:47:34Z</time>
      </trkpt>
      <trkpt lat="30.642794" lon="34.792758">
        <ele>768.8</ele>
        <time>2020-09-15T05:47:39Z</time>
      </trkpt>
      <trkpt lat="30.642778" lon="34.792737">
        <ele>769.0</ele>
        <time>2020-09-15T05:47:40Z</time>
      </trkpt>
      <trkpt lat="30.642700" lon="34.792663">
        <ele>769.2</ele>
        <time>2020-09-15T05:47:44Z</time>
      </trkpt>
      <trkpt lat="30.642633" lon="34.792635">
        <ele>769.0</ele>
        <time>2020-09-15T05:47:47Z</time>
      </trkpt>
      <trkpt lat="30.642445" lon="34.792646">
        <ele>769.4</ele>
        <time>2020-09-15T05:47:55Z</time>
      </trkpt>
      <trkpt lat="30.642290" lon="34.792614">
        <ele>770.0</ele>
        <time>2020-09-15T05:48:01Z</time>
      </trkpt>
      <trkpt lat="30.642264" lon="34.792601">
        <ele>770.0</ele>
        <time>2020-09-15T05:48:02Z</time>
      </trkpt>
      <trkpt lat="30.642105" lon="34.792503">
        <ele>771.0</ele>
        <time>2020-09-15T05:48:09Z</time>
      </trkpt>
      <trkpt lat="30.642057" lon="34.792488">
        <ele>771.2</ele>
        <time>2020-09-15T05:48:11Z</time>
      </trkpt>
      <trkpt lat="30.641951" lon="34.792428">
        <ele>771.6</ele>
        <time>2020-09-15T05:48:16Z</time>
      </trkpt>
      <trkpt lat="30.641936" lon="34.792415">
        <ele>771.6</ele>
        <time>2020-09-15T05:48:17Z</time>
      </trkpt>
      <trkpt lat="30.641835" lon="34.792310">
        <ele>771.4</ele>
        <time>2020-09-15T05:48:24Z</time>
      </trkpt>
      <trkpt lat="30.641687" lon="34.792265">
        <ele>771.6</ele>
        <time>2020-09-15T05:48:32Z</time>
      </trkpt>
      <trkpt lat="30.641627" lon="34.792290">
        <ele>771.8</ele>
        <time>2020-09-15T05:48:35Z</time>
      </trkpt>
      <trkpt lat="30.641566" lon="34.792337">
        <ele>772.2</ele>
        <time>2020-09-15T05:48:38Z</time>
      </trkpt>
      <trkpt lat="30.641545" lon="34.792351">
        <ele>772.4</ele>
        <time>2020-09-15T05:48:39Z</time>
      </trkpt>
      <trkpt lat="30.641522" lon="34.792363">
        <ele>772.4</ele>
        <time>2020-09-15T05:48:40Z</time>
      </trkpt>
      <trkpt lat="30.641427" lon="34.792383">
        <ele>772.6</ele>
        <time>2020-09-15T05:48:44Z</time>
      </trkpt>
      <trkpt lat="30.641382" lon="34.792372">
        <ele>772.8</ele>
        <time>2020-09-15T05:48:46Z</time>
      </trkpt>
      <trkpt lat="30.641359" lon="34.792367">
        <ele>772.8</ele>
        <time>2020-09-15T05:48:47Z</time>
      </trkpt>
      <trkpt lat="30.641336" lon="34.792362">
        <ele>773.0</ele>
        <time>2020-09-15T05:48:48Z</time>
      </trkpt>
      <trkpt lat="30.641311" lon="34.792360">
        <ele>773.2</ele>
        <time>2020-09-15T05:48:49Z</time>
      </trkpt>
      <trkpt lat="30.641285" lon="34.792360">
        <ele>773.4</ele>
        <time>2020-09-15T05:48:50Z</time>
      </trkpt>
      <trkpt lat="30.641235" lon="34.792355">
        <ele>773.4</ele>
        <time>2020-09-15T05:48:52Z</time>
      </trkpt>
      <trkpt lat="30.641110" lon="34.792275">
        <ele>773.8</ele>
        <time>2020-09-15T05:48:58Z</time>
      </trkpt>
      <trkpt lat="30.641090" lon="34.792264">
        <ele>774.2</ele>
        <time>2020-09-15T05:48:59Z</time>
      </trkpt>
      <trkpt lat="30.641040" lon="34.792231">
        <ele>775.0</ele>
        <time>2020-09-15T05:49:02Z</time>
      </trkpt>
      <trkpt lat="30.641025" lon="34.792222">
        <ele>775.0</ele>
        <time>2020-09-15T05:49:03Z</time>
      </trkpt>
      <trkpt lat="30.640989" lon="34.792207">
        <ele>775.2</ele>
        <time>2020-09-15T05:49:05Z</time>
      </trkpt>
      <trkpt lat="30.640950" lon="34.792196">
        <ele>775.2</ele>
        <time>2020-09-15T05:49:07Z</time>
      </trkpt>
      <trkpt lat="30.640931" lon="34.792194">
        <ele>775.4</ele>
        <time>2020-09-15T05:49:08Z</time>
      </trkpt>
      <trkpt lat="30.640844" lon="34.792192">
        <ele>775.8</ele>
        <time>2020-09-15T05:49:13Z</time>
      </trkpt>
      <trkpt lat="30.640828" lon="34.792193">
        <ele>776.0</ele>
        <time>2020-09-15T05:49:14Z</time>
      </trkpt>
      <trkpt lat="30.640780" lon="34.792204">
        <ele>776.4</ele>
        <time>2020-09-15T05:49:17Z</time>
      </trkpt>
      <trkpt lat="30.640711" lon="34.792217">
        <ele>776.8</ele>
        <time>2020-09-15T05:49:22Z</time>
      </trkpt>
      <trkpt lat="30.640622" lon="34.792223">
        <ele>777.6</ele>
        <time>2020-09-15T05:49:28Z</time>
      </trkpt>
      <trkpt lat="30.640585" lon="34.792221">
        <ele>777.8</ele>
        <time>2020-09-15T05:49:31Z</time>
      </trkpt>
      <trkpt lat="30.640558" lon="34.792222">
        <ele>777.8</ele>
        <time>2020-09-15T05:49:33Z</time>
      </trkpt>
      <trkpt lat="30.640544" lon="34.792224">
        <ele>777.8</ele>
        <time>2020-09-15T05:49:34Z</time>
      </trkpt>
      <trkpt lat="30.640516" lon="34.792230">
        <ele>777.8</ele>
        <time>2020-09-15T05:49:36Z</time>
      </trkpt>
      <trkpt lat="30.640485" lon="34.792233">
        <ele>778.4</ele>
        <time>2020-09-15T05:49:38Z</time>
      </trkpt>
      <trkpt lat="30.640446" lon="34.792240">
        <ele>778.6</ele>
        <time>2020-09-15T05:49:41Z</time>
      </trkpt>
      <trkpt lat="30.640433" lon="34.792243">
        <ele>779.0</ele>
        <time>2020-09-15T05:49:42Z</time>
      </trkpt>
      <trkpt lat="30.640340" lon="34.792275">
        <ele>778.8</ele>
        <time>2020-09-15T05:49:49Z</time>
      </trkpt>
      <trkpt lat="30.640203" lon="34.792276">
        <ele>779.2</ele>
        <time>2020-09-15T05:49:57Z</time>
      </trkpt>
      <trkpt lat="30.640053" lon="34.792266">
        <ele>779.8</ele>
        <time>2020-09-15T05:50:05Z</time>
      </trkpt>
      <trkpt lat="30.639996" lon="34.792261">
        <ele>780.4</ele>
        <time>2020-09-15T05:50:08Z</time>
      </trkpt>
      <trkpt lat="30.639901" lon="34.792236">
        <ele>781.0</ele>
        <time>2020-09-15T05:50:13Z</time>
      </trkpt>
      <trkpt lat="30.639847" lon="34.792226">
        <ele>781.4</ele>
        <time>2020-09-15T05:50:16Z</time>
      </trkpt>
      <trkpt lat="30.639765" lon="34.792267">
        <ele>781.8</ele>
        <time>2020-09-15T05:50:20Z</time>
      </trkpt>
      <trkpt lat="30.639704" lon="34.792340">
        <ele>782.4</ele>
        <time>2020-09-15T05:50:24Z</time>
      </trkpt>
      <trkpt lat="30.639671" lon="34.792404">
        <ele>782.8</ele>
        <time>2020-09-15T05:50:27Z</time>
      </trkpt>
      <trkpt lat="30.639615" lon="34.792548">
        <ele>783.6</ele>
        <time>2020-09-15T05:50:33Z</time>
      </trkpt>
      <trkpt lat="30.639594" lon="34.792587">
        <ele>784.0</ele>
        <time>2020-09-15T05:50:35Z</time>
      </trkpt>
      <trkpt lat="30.639494" lon="34.792712">
        <ele>784.4</ele>
        <time>2020-09-15T05:50:42Z</time>
      </trkpt>
      <trkpt lat="30.639467" lon="34.792773">
        <ele>784.6</ele>
        <time>2020-09-15T05:50:45Z</time>
      </trkpt>
      <trkpt lat="30.639458" lon="34.792800">
        <ele>784.8</ele>
        <time>2020-09-15T05:50:46Z</time>
      </trkpt>
      <trkpt lat="30.639439" lon="34.792861">
        <ele>784.8</ele>
        <time>2020-09-15T05:50:48Z</time>
      </trkpt>
      <trkpt lat="30.639435" lon="34.792891">
        <ele>784.8</ele>
        <time>2020-09-15T05:50:49Z</time>
      </trkpt>
      <trkpt lat="30.639483" lon="34.793037">
        <ele>785.6</ele>
        <time>2020-09-15T05:50:55Z</time>
      </trkpt>
      <trkpt lat="30.639506" lon="34.793192">
        <ele>785.8</ele>
        <time>2020-09-15T05:51:01Z</time>
      </trkpt>
      <trkpt lat="30.639492" lon="34.793209">
        <ele>786.0</ele>
        <time>2020-09-15T05:51:02Z</time>
      </trkpt>
      <trkpt lat="30.639455" lon="34.793231">
        <ele>786.0</ele>
        <time>2020-09-15T05:51:04Z</time>
      </trkpt>
      <trkpt lat="30.639409" lon="34.793235">
        <ele>786.0</ele>
        <time>2020-09-15T05:51:06Z</time>
      </trkpt>
      <trkpt lat="30.639300" lon="34.793190">
        <ele>786.4</ele>
        <time>2020-09-15T05:51:11Z</time>
      </trkpt>
      <trkpt lat="30.639264" lon="34.793155">
        <ele>787.0</ele>
        <time>2020-09-15T05:51:13Z</time>
      </trkpt>
      <trkpt lat="30.639193" lon="34.793046">
        <ele>787.4</ele>
        <time>2020-09-15T05:51:18Z</time>
      </trkpt>
      <trkpt lat="30.639111" lon="34.792856">
        <ele>787.4</ele>
        <time>2020-09-15T05:51:26Z</time>
      </trkpt>
      <trkpt lat="30.639025" lon="34.792741">
        <ele>788.0</ele>
        <time>2020-09-15T05:51:32Z</time>
      </trkpt>
      <trkpt lat="30.638976" lon="34.792675">
        <ele>788.4</ele>
        <time>2020-09-15T05:51:35Z</time>
      </trkpt>
      <trkpt lat="30.638930" lon="34.792527">
        <ele>789.0</ele>
        <time>2020-09-15T05:51:41Z</time>
      </trkpt>
      <trkpt lat="30.638929" lon="34.792505">
        <ele>789.0</ele>
        <time>2020-09-15T05:51:42Z</time>
      </trkpt>
      <trkpt lat="30.638942" lon="34.792384">
        <ele>790.2</ele>
        <time>2020-09-15T05:51:47Z</time>
      </trkpt>
      <trkpt lat="30.638946" lon="34.792358">
        <ele>790.4</ele>
        <time>2020-09-15T05:51:48Z</time>
      </trkpt>
      <trkpt lat="30.638992" lon="34.792233">
        <ele>790.4</ele>
        <time>2020-09-15T05:51:53Z</time>
      </trkpt>
      <trkpt lat="30.639020" lon="34.792181">
        <ele>790.4</ele>
        <time>2020-09-15T05:51:55Z</time>
      </trkpt>
      <trkpt lat="30.639158" lon="34.791997">
        <ele>789.8</ele>
        <time>2020-09-15T05:52:03Z</time>
      </trkpt>
      <trkpt lat="30.639162" lon="34.791829">
        <ele>790.2</ele>
        <time>2020-09-15T05:52:08Z</time>
      </trkpt>
      <trkpt lat="30.639123" lon="34.791726">
        <ele>790.4</ele>
        <time>2020-09-15T05:52:11Z</time>
      </trkpt>
      <trkpt lat="30.639048" lon="34.791613">
        <ele>790.2</ele>
        <time>2020-09-15T05:52:15Z</time>
      </trkpt>
      <trkpt lat="30.638904" lon="34.791485">
        <ele>790.2</ele>
        <time>2020-09-15T05:52:21Z</time>
      </trkpt>
      <trkpt lat="30.638771" lon="34.791259">
        <ele>789.8</ele>
        <time>2020-09-15T05:52:29Z</time>
      </trkpt>
      <trkpt lat="30.638577" lon="34.791112">
        <ele>790.2</ele>
        <time>2020-09-15T05:52:37Z</time>
      </trkpt>
      <trkpt lat="30.638383" lon="34.791080">
        <ele>790.6</ele>
        <time>2020-09-15T05:52:44Z</time>
      </trkpt>
      <trkpt lat="30.638207" lon="34.791163">
        <ele>791.0</ele>
        <time>2020-09-15T05:52:51Z</time>
      </trkpt>
      <trkpt lat="30.638184" lon="34.791181">
        <ele>791.4</ele>
        <time>2020-09-15T05:52:52Z</time>
      </trkpt>
      <trkpt lat="30.638044" lon="34.791225">
        <ele>791.6</ele>
        <time>2020-09-15T05:52:57Z</time>
      </trkpt>
      <trkpt lat="30.637885" lon="34.791171">
        <ele>792.2</ele>
        <time>2020-09-15T05:53:03Z</time>
      </trkpt>
      <trkpt lat="30.637858" lon="34.791154">
        <ele>792.4</ele>
        <time>2020-09-15T05:53:04Z</time>
      </trkpt>
      <trkpt lat="30.637786" lon="34.791089">
        <ele>792.8</ele>
        <time>2020-09-15T05:53:07Z</time>
      </trkpt>
      <trkpt lat="30.637751" lon="34.791042">
        <ele>792.8</ele>
        <time>2020-09-15T05:53:09Z</time>
      </trkpt>
      <trkpt lat="30.637643" lon="34.790895">
        <ele>792.6</ele>
        <time>2020-09-15T05:53:15Z</time>
      </trkpt>
      <trkpt lat="30.637490" lon="34.790824">
        <ele>793.2</ele>
        <time>2020-09-15T05:53:21Z</time>
      </trkpt>
      <trkpt lat="30.637410" lon="34.790814">
        <ele>793.4</ele>
        <time>2020-09-15T05:53:24Z</time>
      </trkpt>
      <trkpt lat="30.637256" lon="34.790758">
        <ele>793.8</ele>
        <time>2020-09-15T05:53:30Z</time>
      </trkpt>
      <trkpt lat="30.637102" lon="34.790638">
        <ele>794.4</ele>
        <time>2020-09-15T05:53:37Z</time>
      </trkpt>
      <trkpt lat="30.637083" lon="34.790614">
        <ele>794.8</ele>
        <time>2020-09-15T05:53:38Z</time>
      </trkpt>
      <trkpt lat="30.636991" lon="34.790437">
        <ele>794.0</ele>
        <time>2020-09-15T05:53:45Z</time>
      </trkpt>
      <trkpt lat="30.636935" lon="34.790376">
        <ele>794.2</ele>
        <time>2020-09-15T05:53:48Z</time>
      </trkpt>
      <trkpt lat="30.636852" lon="34.790314">
        <ele>794.2</ele>
        <time>2020-09-15T05:53:52Z</time>
      </trkpt>
      <trkpt lat="30.636767" lon="34.790230">
        <ele>794.6</ele>
        <time>2020-09-15T05:53:56Z</time>
      </trkpt>
      <trkpt lat="30.636746" lon="34.790206">
        <ele>794.6</ele>
        <time>2020-09-15T05:53:57Z</time>
      </trkpt>
      <trkpt lat="30.636669" lon="34.790063">
        <ele>794.4</ele>
        <time>2020-09-15T05:54:03Z</time>
      </trkpt>
      <trkpt lat="30.636564" lon="34.789873">
        <ele>794.2</ele>
        <time>2020-09-15T05:54:11Z</time>
      </trkpt>
      <trkpt lat="30.636544" lon="34.789758">
        <ele>795.0</ele>
        <time>2020-09-15T05:54:15Z</time>
      </trkpt>
      <trkpt lat="30.636514" lon="34.789675">
        <ele>795.6</ele>
        <time>2020-09-15T05:54:18Z</time>
      </trkpt>
      <trkpt lat="30.636500" lon="34.789650">
        <ele>795.8</ele>
        <time>2020-09-15T05:54:19Z</time>
      </trkpt>
      <trkpt lat="30.636393" lon="34.789526">
        <ele>796.0</ele>
        <time>2020-09-15T05:54:25Z</time>
      </trkpt>
      <trkpt lat="30.636269" lon="34.789479">
        <ele>795.8</ele>
        <time>2020-09-15T05:54:30Z</time>
      </trkpt>
      <trkpt lat="30.636244" lon="34.789476">
        <ele>795.8</ele>
        <time>2020-09-15T05:54:31Z</time>
      </trkpt>
      <trkpt lat="30.636129" lon="34.789480">
        <ele>796.8</ele>
        <time>2020-09-15T05:54:36Z</time>
      </trkpt>
      <trkpt lat="30.636110" lon="34.789478">
        <ele>797.4</ele>
        <time>2020-09-15T05:54:38Z</time>
      </trkpt>
      <trkpt lat="30.636073" lon="34.789475">
        <ele>798.0</ele>
        <time>2020-09-15T05:54:40Z</time>
      </trkpt>
      <trkpt lat="30.635942" lon="34.789425">
        <ele>798.4</ele>
        <time>2020-09-15T05:54:45Z</time>
      </trkpt>
      <trkpt lat="30.635793" lon="34.789327">
        <ele>798.6</ele>
        <time>2020-09-15T05:54:54Z</time>
      </trkpt>
      <trkpt lat="30.635734" lon="34.789306">
        <ele>798.8</ele>
        <time>2020-09-15T05:54:57Z</time>
      </trkpt>
      <trkpt lat="30.635713" lon="34.789303">
        <ele>799.0</ele>
        <time>2020-09-15T05:54:58Z</time>
      </trkpt>
      <trkpt lat="30.635670" lon="34.789307">
        <ele>799.4</ele>
        <time>2020-09-15T05:55:00Z</time>
      </trkpt>
      <trkpt lat="30.635580" lon="34.789327">
        <ele>800.2</ele>
        <time>2020-09-15T05:55:04Z</time>
      </trkpt>
      <trkpt lat="30.635472" lon="34.789344">
        <ele>801.0</ele>
        <time>2020-09-15T05:55:09Z</time>
      </trkpt>
      <trkpt lat="30.635408" lon="34.789338">
        <ele>801.2</ele>
        <time>2020-09-15T05:55:12Z</time>
      </trkpt>
      <trkpt lat="30.635387" lon="34.789333">
        <ele>801.2</ele>
        <time>2020-09-15T05:55:13Z</time>
      </trkpt>
      <trkpt lat="30.635365" lon="34.789330">
        <ele>801.2</ele>
        <time>2020-09-15T05:55:14Z</time>
      </trkpt>
      <trkpt lat="30.635297" lon="34.789325">
        <ele>801.4</ele>
        <time>2020-09-15T05:55:17Z</time>
      </trkpt>
      <trkpt lat="30.635274" lon="34.789323">
        <ele>801.4</ele>
        <time>2020-09-15T05:55:18Z</time>
      </trkpt>
      <trkpt lat="30.635148" lon="34.789295">
        <ele>802.2</ele>
        <time>2020-09-15T05:55:23Z</time>
      </trkpt>
      <trkpt lat="30.635103" lon="34.789292">
        <ele>802.6</ele>
        <time>2020-09-15T05:55:25Z</time>
      </trkpt>
      <trkpt lat="30.635083" lon="34.789292">
        <ele>802.8</ele>
        <time>2020-09-15T05:55:27Z</time>
      </trkpt>
      <trkpt lat="30.635064" lon="34.789291">
        <ele>803.0</ele>
        <time>2020-09-15T05:55:28Z</time>
      </trkpt>
      <trkpt lat="30.635009" lon="34.789304">
        <ele>803.4</ele>
        <time>2020-09-15T05:55:31Z</time>
      </trkpt>
      <trkpt lat="30.634971" lon="34.789318">
        <ele>803.6</ele>
        <time>2020-09-15T05:55:32Z</time>
      </trkpt>
      <trkpt lat="30.634971" lon="34.789318">
        <ele>803.8</ele>
        <time>2020-09-15T05:55:33Z</time>
      </trkpt>
      <trkpt lat="30.634858" lon="34.789425">
        <ele>804.4</ele>
        <time>2020-09-15T05:55:40Z</time>
      </trkpt>
      <trkpt lat="30.634731" lon="34.789535">
        <ele>804.6</ele>
        <time>2020-09-15T05:55:47Z</time>
      </trkpt>
      <trkpt lat="30.634712" lon="34.789539">
        <ele>805.0</ele>
        <time>2020-09-15T05:55:49Z</time>
      </trkpt>
      <trkpt lat="30.634693" lon="34.789541">
        <ele>805.0</ele>
        <time>2020-09-15T05:55:50Z</time>
      </trkpt>
      <trkpt lat="30.634674" lon="34.789540">
        <ele>805.2</ele>
        <time>2020-09-15T05:55:51Z</time>
      </trkpt>
      <trkpt lat="30.634655" lon="34.789536">
        <ele>805.4</ele>
        <time>2020-09-15T05:55:52Z</time>
      </trkpt>
      <trkpt lat="30.634623" lon="34.789523">
        <ele>806.0</ele>
        <time>2020-09-15T05:55:54Z</time>
      </trkpt>
      <trkpt lat="30.634547" lon="34.789489">
        <ele>806.8</ele>
        <time>2020-09-15T05:55:57Z</time>
      </trkpt>
      <trkpt lat="30.634511" lon="34.789460">
        <ele>808.0</ele>
        <time>2020-09-15T05:56:00Z</time>
      </trkpt>
      <trkpt lat="30.634426" lon="34.789333">
        <ele>808.6</ele>
        <time>2020-09-15T05:56:07Z</time>
      </trkpt>
      <trkpt lat="30.634376" lon="34.789279">
        <ele>808.2</ele>
        <time>2020-09-15T05:56:10Z</time>
      </trkpt>
      <trkpt lat="30.634314" lon="34.789234">
        <ele>808.4</ele>
        <time>2020-09-15T05:56:14Z</time>
      </trkpt>
      <trkpt lat="30.634295" lon="34.789223">
        <ele>808.4</ele>
        <time>2020-09-15T05:56:15Z</time>
      </trkpt>
      <trkpt lat="30.634186" lon="34.789184">
        <ele>808.8</ele>
        <time>2020-09-15T05:56:21Z</time>
      </trkpt>
      <trkpt lat="30.634186" lon="34.789184">
        <ele>809.2</ele>
        <time>2020-09-15T05:56:22Z</time>
      </trkpt>
      <trkpt lat="30.634156" lon="34.789172">
        <ele>809.8</ele>
        <time>2020-09-15T05:56:24Z</time>
      </trkpt>
      <trkpt lat="30.634109" lon="34.789134">
        <ele>810.2</ele>
        <time>2020-09-15T05:56:26Z</time>
      </trkpt>
      <trkpt lat="30.634109" lon="34.789134">
        <ele>810.2</ele>
        <time>2020-09-15T05:56:27Z</time>
      </trkpt>
      <trkpt lat="30.634081" lon="34.789114">
        <ele>810.4</ele>
        <time>2020-09-15T05:56:29Z</time>
      </trkpt>
      <trkpt lat="30.634001" lon="34.789001">
        <ele>811.2</ele>
        <time>2020-09-15T05:56:35Z</time>
      </trkpt>
      <trkpt lat="30.634001" lon="34.789001">
        <ele>811.4</ele>
        <time>2020-09-15T05:56:36Z</time>
      </trkpt>
      <trkpt lat="30.633978" lon="34.788949">
        <ele>811.4</ele>
        <time>2020-09-15T05:56:39Z</time>
      </trkpt>
      <trkpt lat="30.633958" lon="34.788895">
        <ele>811.4</ele>
        <time>2020-09-15T05:56:42Z</time>
      </trkpt>
      <trkpt lat="30.633908" lon="34.788788">
        <ele>812.0</ele>
        <time>2020-09-15T05:56:49Z</time>
      </trkpt>
      <trkpt lat="30.633891" lon="34.788761">
        <ele>812.0</ele>
        <time>2020-09-15T05:56:50Z</time>
      </trkpt>
      <trkpt lat="30.633861" lon="34.788690">
        <ele>812.0</ele>
        <time>2020-09-15T05:56:55Z</time>
      </trkpt>
      <trkpt lat="30.633853" lon="34.788655">
        <ele>812.2</ele>
        <time>2020-09-15T05:56:56Z</time>
      </trkpt>
      <trkpt lat="30.633852" lon="34.788634">
        <ele>812.4</ele>
        <time>2020-09-15T05:56:58Z</time>
      </trkpt>
      <trkpt lat="30.633852" lon="34.788564">
        <ele>813.0</ele>
        <time>2020-09-15T05:57:01Z</time>
      </trkpt>
      <trkpt lat="30.633898" lon="34.788433">
        <ele>813.4</ele>
        <time>2020-09-15T05:57:08Z</time>
      </trkpt>
      <trkpt lat="30.633898" lon="34.788433">
        <ele>813.6</ele>
        <time>2020-09-15T05:57:09Z</time>
      </trkpt>
      <trkpt lat="30.633987" lon="34.788341">
        <ele>814.0</ele>
        <time>2020-09-15T05:57:17Z</time>
      </trkpt>
      <trkpt lat="30.634026" lon="34.788282">
        <ele>814.4</ele>
        <time>2020-09-15T05:57:21Z</time>
      </trkpt>
      <trkpt lat="30.634036" lon="34.788266">
        <ele>814.4</ele>
        <time>2020-09-15T05:57:22Z</time>
      </trkpt>
      <trkpt lat="30.634057" lon="34.788225">
        <ele>814.4</ele>
        <time>2020-09-15T05:57:24Z</time>
      </trkpt>
      <trkpt lat="30.634072" lon="34.788192">
        <ele>814.6</ele>
        <time>2020-09-15T05:57:26Z</time>
      </trkpt>
      <trkpt lat="30.634080" lon="34.788176">
        <ele>814.4</ele>
        <time>2020-09-15T05:57:27Z</time>
      </trkpt>
      <trkpt lat="30.634094" lon="34.788141">
        <ele>814.2</ele>
        <time>2020-09-15T05:57:28Z</time>
      </trkpt>
      <trkpt lat="30.634105" lon="34.788098">
        <ele>814.4</ele>
        <time>2020-09-15T05:57:31Z</time>
      </trkpt>
      <trkpt lat="30.634116" lon="34.788039">
        <ele>814.4</ele>
        <time>2020-09-15T05:57:33Z</time>
      </trkpt>
      <trkpt lat="30.634119" lon="34.788017">
        <ele>814.6</ele>
        <time>2020-09-15T05:57:34Z</time>
      </trkpt>
      <trkpt lat="30.634121" lon="34.787938">
        <ele>815.6</ele>
        <time>2020-09-15T05:57:38Z</time>
      </trkpt>
      <trkpt lat="30.634116" lon="34.787893">
        <ele>815.8</ele>
        <time>2020-09-15T05:57:40Z</time>
      </trkpt>
      <trkpt lat="30.634079" lon="34.787775">
        <ele>816.6</ele>
        <time>2020-09-15T05:57:46Z</time>
      </trkpt>
      <trkpt lat="30.634067" lon="34.787756">
        <ele>816.8</ele>
        <time>2020-09-15T05:57:47Z</time>
      </trkpt>
      <trkpt lat="30.633982" lon="34.787669">
        <ele>817.0</ele>
        <time>2020-09-15T05:57:52Z</time>
      </trkpt>
      <trkpt lat="30.633967" lon="34.787658">
        <ele>817.0</ele>
        <time>2020-09-15T05:57:54Z</time>
      </trkpt>
      <trkpt lat="30.633907" lon="34.787607">
        <ele>817.6</ele>
        <time>2020-09-15T05:57:58Z</time>
      </trkpt>
      <trkpt lat="30.633857" lon="34.787547">
        <ele>818.4</ele>
        <time>2020-09-15T05:58:02Z</time>
      </trkpt>
      <trkpt lat="30.633847" lon="34.787530">
        <ele>818.6</ele>
        <time>2020-09-15T05:58:03Z</time>
      </trkpt>
      <trkpt lat="30.633777" lon="34.787399">
        <ele>818.2</ele>
        <time>2020-09-15T05:58:09Z</time>
      </trkpt>
      <trkpt lat="30.633665" lon="34.787294">
        <ele>817.8</ele>
        <time>2020-09-15T05:58:14Z</time>
      </trkpt>
      <trkpt lat="30.633626" lon="34.787289">
        <ele>817.6</ele>
        <time>2020-09-15T05:58:16Z</time>
      </trkpt>
      <trkpt lat="30.633558" lon="34.787281">
        <ele>817.8</ele>
        <time>2020-09-15T05:58:19Z</time>
      </trkpt>
      <trkpt lat="30.633497" lon="34.787287">
        <ele>818.2</ele>
        <time>2020-09-15T05:58:22Z</time>
      </trkpt>
      <trkpt lat="30.633438" lon="34.787299">
        <ele>818.8</ele>
        <time>2020-09-15T05:58:24Z</time>
      </trkpt>
      <trkpt lat="30.633438" lon="34.787299">
        <ele>819.0</ele>
        <time>2020-09-15T05:58:25Z</time>
      </trkpt>
      <trkpt lat="30.633277" lon="34.787360">
        <ele>819.2</ele>
        <time>2020-09-15T05:58:33Z</time>
      </trkpt>
      <trkpt lat="30.633107" lon="34.787409">
        <ele>818.8</ele>
        <time>2020-09-15T05:58:38Z</time>
      </trkpt>
      <trkpt lat="30.633080" lon="34.787421">
        <ele>818.6</ele>
        <time>2020-09-15T05:58:39Z</time>
      </trkpt>
      <trkpt lat="30.632977" lon="34.787545">
        <ele>817.8</ele>
        <time>2020-09-15T05:58:45Z</time>
      </trkpt>
      <trkpt lat="30.632919" lon="34.787629">
        <ele>817.6</ele>
        <time>2020-09-15T05:58:48Z</time>
      </trkpt>
      <trkpt lat="30.632827" lon="34.787743">
        <ele>816.6</ele>
        <time>2020-09-15T05:58:51Z</time>
      </trkpt>
      <trkpt lat="30.632793" lon="34.787782">
        <ele>816.4</ele>
        <time>2020-09-15T05:58:52Z</time>
      </trkpt>
      <trkpt lat="30.632711" lon="34.787836">
        <ele>816.0</ele>
        <time>2020-09-15T05:58:54Z</time>
      </trkpt>
      <trkpt lat="30.632675" lon="34.787843">
        <ele>815.8</ele>
        <time>2020-09-15T05:58:55Z</time>
      </trkpt>
      <trkpt lat="30.632611" lon="34.787833">
        <ele>815.8</ele>
        <time>2020-09-15T05:58:57Z</time>
      </trkpt>
      <trkpt lat="30.632544" lon="34.787798">
        <ele>816.4</ele>
        <time>2020-09-15T05:59:00Z</time>
      </trkpt>
      <trkpt lat="30.632315" lon="34.787663">
        <ele>817.0</ele>
        <time>2020-09-15T05:59:07Z</time>
      </trkpt>
      <trkpt lat="30.632146" lon="34.787611">
        <ele>817.6</ele>
        <time>2020-09-15T05:59:14Z</time>
      </trkpt>
      <trkpt lat="30.632093" lon="34.787584">
        <ele>818.0</ele>
        <time>2020-09-15T05:59:15Z</time>
      </trkpt>
      <trkpt lat="30.632069" lon="34.787568">
        <ele>818.2</ele>
        <time>2020-09-15T05:59:17Z</time>
      </trkpt>
      <trkpt lat="30.631998" lon="34.787476">
        <ele>818.8</ele>
        <time>2020-09-15T05:59:21Z</time>
      </trkpt>
      <trkpt lat="30.631944" lon="34.787277">
        <ele>819.8</ele>
        <time>2020-09-15T05:59:28Z</time>
      </trkpt>
      <trkpt lat="30.631867" lon="34.787032">
        <ele>821.0</ele>
        <time>2020-09-15T05:59:36Z</time>
      </trkpt>
      <trkpt lat="30.631792" lon="34.786799">
        <ele>821.8</ele>
        <time>2020-09-15T05:59:43Z</time>
      </trkpt>
      <trkpt lat="30.631784" lon="34.786731">
        <ele>822.0</ele>
        <time>2020-09-15T05:59:44Z</time>
      </trkpt>
      <trkpt lat="30.631784" lon="34.786731">
        <ele>822.2</ele>
        <time>2020-09-15T05:59:45Z</time>
      </trkpt>
      <trkpt lat="30.631766" lon="34.786533">
        <ele>823.2</ele>
        <time>2020-09-15T05:59:51Z</time>
      </trkpt>
      <trkpt lat="30.631711" lon="34.786302">
        <ele>823.2</ele>
        <time>2020-09-15T05:59:58Z</time>
      </trkpt>
      <trkpt lat="30.631650" lon="34.786139">
        <ele>823.2</ele>
        <time>2020-09-15T06:00:04Z</time>
      </trkpt>
      <trkpt lat="30.631571" lon="34.785984">
        <ele>823.2</ele>
        <time>2020-09-15T06:00:09Z</time>
      </trkpt>
      <trkpt lat="30.631561" lon="34.785961">
        <ele>823.2</ele>
        <time>2020-09-15T06:00:10Z</time>
      </trkpt>
      <trkpt lat="30.631449" lon="34.785799">
        <ele>823.0</ele>
        <time>2020-09-15T06:00:17Z</time>
      </trkpt>
      <trkpt lat="30.631308" lon="34.785661">
        <ele>822.4</ele>
        <time>2020-09-15T06:00:23Z</time>
      </trkpt>
      <trkpt lat="30.631271" lon="34.785633">
        <ele>822.0</ele>
        <time>2020-09-15T06:00:24Z</time>
      </trkpt>
      <trkpt lat="30.631140" lon="34.785590">
        <ele>821.0</ele>
        <time>2020-09-15T06:00:27Z</time>
      </trkpt>
      <trkpt lat="30.631094" lon="34.785586">
        <ele>820.6</ele>
        <time>2020-09-15T06:00:28Z</time>
      </trkpt>
      <trkpt lat="30.630919" lon="34.785576">
        <ele>819.2</ele>
        <time>2020-09-15T06:00:31Z</time>
      </trkpt>
      <trkpt lat="30.630887" lon="34.785557">
        <ele>818.8</ele>
        <time>2020-09-15T06:00:33Z</time>
      </trkpt>
      <trkpt lat="30.630832" lon="34.785502">
        <ele>818.4</ele>
        <time>2020-09-15T06:00:35Z</time>
      </trkpt>
      <trkpt lat="30.630788" lon="34.785433">
        <ele>818.0</ele>
        <time>2020-09-15T06:00:37Z</time>
      </trkpt>
      <trkpt lat="30.630781" lon="34.785420">
        <ele>818.0</ele>
        <time>2020-09-15T06:00:39Z</time>
      </trkpt>
      <trkpt lat="30.630762" lon="34.785393">
        <ele>817.8</ele>
        <time>2020-09-15T06:00:40Z</time>
      </trkpt>
      <trkpt lat="30.630735" lon="34.785367">
        <ele>816.8</ele>
        <time>2020-09-15T06:00:43Z</time>
      </trkpt>
      <trkpt lat="30.630722" lon="34.785355">
        <ele>816.4</ele>
        <time>2020-09-15T06:00:48Z</time>
      </trkpt>
      <trkpt lat="30.630722" lon="34.785349">
        <ele>816.6</ele>
        <time>2020-09-15T06:00:52Z</time>
      </trkpt>
      <trkpt lat="30.630726" lon="34.785345">
        <ele>816.8</ele>
        <time>2020-09-15T06:00:56Z</time>
      </trkpt>
      <trkpt lat="30.630729" lon="34.785336">
        <ele>816.4</ele>
        <time>2020-09-15T06:01:01Z</time>
      </trkpt>
      <trkpt lat="30.630729" lon="34.785336">
        <ele>816.4</ele>
        <time>2020-09-15T06:01:07Z</time>
      </trkpt>
      <trkpt lat="30.630730" lon="34.785337">
        <ele>816.2</ele>
        <time>2020-09-15T06:01:08Z</time>
      </trkpt>
      <trkpt lat="30.630725" lon="34.785334">
        <ele>816.6</ele>
        <time>2020-09-15T06:01:16Z</time>
      </trkpt>
      <trkpt lat="30.630720" lon="34.785333">
        <ele>816.6</ele>
        <time>2020-09-15T06:01:25Z</time>
      </trkpt>
      <trkpt lat="30.630722" lon="34.785327">
        <ele>816.6</ele>
        <time>2020-09-15T06:01:32Z</time>
      </trkpt>
      <trkpt lat="30.630723" lon="34.785333">
        <ele>816.4</ele>
        <time>2020-09-15T06:01:40Z</time>
      </trkpt>
      <trkpt lat="30.630726" lon="34.785339">
        <ele>816.4</ele>
        <time>2020-09-15T06:01:43Z</time>
      </trkpt>
      <trkpt lat="30.630725" lon="34.785342">
        <ele>816.2</ele>
        <time>2020-09-15T06:01:45Z</time>
      </trkpt>
      <trkpt lat="30.630725" lon="34.785340">
        <ele>816.0</ele>
        <time>2020-09-15T06:01:49Z</time>
      </trkpt>
      <trkpt lat="30.630725" lon="34.785339">
        <ele>816.0</ele>
        <time>2020-09-15T06:01:51Z</time>
      </trkpt>
      <trkpt lat="30.630730" lon="34.785338">
        <ele>816.0</ele>
        <time>2020-09-15T06:02:00Z</time>
      </trkpt>
      <trkpt lat="30.630731" lon="34.785347">
        <ele>815.8</ele>
        <time>2020-09-15T06:02:05Z</time>
      </trkpt>
      <trkpt lat="30.630739" lon="34.785372">
        <ele>816.4</ele>
        <time>2020-09-15T06:02:11Z</time>
      </trkpt>
      <trkpt lat="30.630748" lon="34.785376">
        <ele>816.4</ele>
        <time>2020-09-15T06:02:13Z</time>
      </trkpt>
      <trkpt lat="30.630747" lon="34.785376">
        <ele>816.0</ele>
        <time>2020-09-15T06:02:16Z</time>
      </trkpt>
      <trkpt lat="30.630748" lon="34.785373">
        <ele>816.0</ele>
        <time>2020-09-15T06:02:17Z</time>
      </trkpt>
      <trkpt lat="30.630748" lon="34.785370">
        <ele>815.8</ele>
        <time>2020-09-15T06:02:19Z</time>
      </trkpt>
      <trkpt lat="30.630758" lon="34.785363">
        <ele>815.6</ele>
        <time>2020-09-15T06:02:29Z</time>
      </trkpt>
      <trkpt lat="30.630762" lon="34.785363">
        <ele>815.6</ele>
        <time>2020-09-15T06:02:33Z</time>
      </trkpt>
      <trkpt lat="30.630764" lon="34.785362">
        <ele>815.6</ele>
        <time>2020-09-15T06:02:35Z</time>
      </trkpt>
      <trkpt lat="30.630766" lon="34.785361">
        <ele>815.6</ele>
        <time>2020-09-15T06:02:38Z</time>
      </trkpt>
      <trkpt lat="30.630769" lon="34.785362">
        <ele>815.8</ele>
        <time>2020-09-15T06:02:42Z</time>
      </trkpt>
      <trkpt lat="30.630769" lon="34.785361">
        <ele>815.8</ele>
        <time>2020-09-15T06:02:43Z</time>
      </trkpt>
      <trkpt lat="30.630768" lon="34.785362">
        <ele>815.8</ele>
        <time>2020-09-15T06:02:44Z</time>
      </trkpt>
      <trkpt lat="30.630767" lon="34.785363">
        <ele>815.6</ele>
        <time>2020-09-15T06:02:45Z</time>
      </trkpt>
      <trkpt lat="30.630767" lon="34.785364">
        <ele>815.4</ele>
        <time>2020-09-15T06:02:46Z</time>
      </trkpt>
      <trkpt lat="30.630768" lon="34.785365">
        <ele>815.4</ele>
        <time>2020-09-15T06:02:47Z</time>
      </trkpt>
      <trkpt lat="30.630770" lon="34.785363">
        <ele>815.4</ele>
        <time>2020-09-15T06:02:48Z</time>
      </trkpt>
      <trkpt lat="30.630770" lon="34.785362">
        <ele>815.4</ele>
        <time>2020-09-15T06:02:50Z</time>
      </trkpt>
      <trkpt lat="30.630781" lon="34.785356">
        <ele>815.6</ele>
        <time>2020-09-15T06:02:59Z</time>
      </trkpt>
      <trkpt lat="30.630783" lon="34.785352">
        <ele>815.4</ele>
        <time>2020-09-15T06:03:08Z</time>
      </trkpt>
      <trkpt lat="30.630784" lon="34.785352">
        <ele>815.4</ele>
        <time>2020-09-15T06:03:12Z</time>
      </trkpt>
      <trkpt lat="30.630782" lon="34.785348">
        <ele>815.2</ele>
        <time>2020-09-15T06:03:21Z</time>
      </trkpt>
      <trkpt lat="30.630774" lon="34.785356">
        <ele>815.0</ele>
        <time>2020-09-15T06:03:30Z</time>
      </trkpt>
      <trkpt lat="30.630753" lon="34.785379">
        <ele>815.2</ele>
        <time>2020-09-15T06:03:39Z</time>
      </trkpt>
      <trkpt lat="30.630753" lon="34.785378">
        <ele>815.0</ele>
        <time>2020-09-15T06:03:48Z</time>
      </trkpt>
      <trkpt lat="30.630756" lon="34.785374">
        <ele>815.0</ele>
        <time>2020-09-15T06:03:57Z</time>
      </trkpt>
      <trkpt lat="30.630755" lon="34.785374">
        <ele>814.8</ele>
        <time>2020-09-15T06:04:01Z</time>
      </trkpt>
      <trkpt lat="30.630754" lon="34.785376">
        <ele>814.8</ele>
        <time>2020-09-15T06:04:03Z</time>
      </trkpt>
      <trkpt lat="30.630754" lon="34.785378">
        <ele>814.6</ele>
        <time>2020-09-15T06:04:04Z</time>
      </trkpt>
      <trkpt lat="30.630766" lon="34.785373">
        <ele>814.8</ele>
        <time>2020-09-15T06:04:13Z</time>
      </trkpt>
      <trkpt lat="30.630755" lon="34.785376">
        <ele>814.8</ele>
        <time>2020-09-15T06:04:19Z</time>
      </trkpt>
      <trkpt lat="30.630756" lon="34.785373">
        <ele>814.8</ele>
        <time>2020-09-15T06:04:28Z</time>
      </trkpt>
      <trkpt lat="30.630749" lon="34.785379">
        <ele>814.8</ele>
        <time>2020-09-15T06:04:38Z</time>
      </trkpt>
      <trkpt lat="30.630747" lon="34.785384">
        <ele>814.8</ele>
        <time>2020-09-15T06:04:40Z</time>
      </trkpt>
      <trkpt lat="30.630746" lon="34.785390">
        <ele>814.2</ele>
        <time>2020-09-15T06:04:47Z</time>
      </trkpt>
      <trkpt lat="30.630759" lon="34.785383">
        <ele>815.2</ele>
        <time>2020-09-15T06:04:54Z</time>
      </trkpt>
      <trkpt lat="30.630763" lon="34.785376">
        <ele>815.2</ele>
        <time>2020-09-15T06:04:55Z</time>
      </trkpt>
      <trkpt lat="30.630767" lon="34.785375">
        <ele>815.0</ele>
        <time>2020-09-15T06:04:56Z</time>
      </trkpt>
      <trkpt lat="30.630757" lon="34.785390">
        <ele>814.8</ele>
        <time>2020-09-15T06:05:03Z</time>
      </trkpt>
      <trkpt lat="30.630755" lon="34.785392">
        <ele>814.8</ele>
        <time>2020-09-15T06:05:04Z</time>
      </trkpt>
      <trkpt lat="30.630751" lon="34.785399">
        <ele>814.8</ele>
        <time>2020-09-15T06:05:10Z</time>
      </trkpt>
      <trkpt lat="30.630751" lon="34.785399">
        <ele>814.8</ele>
        <time>2020-09-15T06:05:11Z</time>
      </trkpt>
      <trkpt lat="30.630747" lon="34.785397">
        <ele>814.8</ele>
        <time>2020-09-15T06:05:14Z</time>
      </trkpt>
      <trkpt lat="30.630727" lon="34.785389">
        <ele>814.8</ele>
        <time>2020-09-15T06:05:18Z</time>
      </trkpt>
      <trkpt lat="30.630730" lon="34.785372">
        <ele>816.2</ele>
        <time>2020-09-15T06:05:19Z</time>
      </trkpt>
      <trkpt lat="30.630739" lon="34.785348">
        <ele>816.0</ele>
        <time>2020-09-15T06:05:23Z</time>
      </trkpt>
      <trkpt lat="30.630731" lon="34.785344">
        <ele>816.0</ele>
        <time>2020-09-15T06:05:28Z</time>
      </trkpt>
      <trkpt lat="30.630721" lon="34.785341">
        <ele>816.2</ele>
        <time>2020-09-15T06:05:33Z</time>
      </trkpt>
      <trkpt lat="30.630723" lon="34.785344">
        <ele>816.6</ele>
        <time>2020-09-15T06:05:39Z</time>
      </trkpt>
      <trkpt lat="30.630724" lon="34.785346">
        <ele>816.2</ele>
        <time>2020-09-15T06:05:48Z</time>
      </trkpt>
      <trkpt lat="30.630718" lon="34.785328">
        <ele>816.0</ele>
        <time>2020-09-15T06:06:03Z</time>
      </trkpt>
      <trkpt lat="30.630718" lon="34.785326">
        <ele>816.0</ele>
        <time>2020-09-15T06:06:06Z</time>
      </trkpt>
      <trkpt lat="30.630722" lon="34.785324">
        <ele>816.2</ele>
        <time>2020-09-15T06:06:10Z</time>
      </trkpt>
      <trkpt lat="30.630724" lon="34.785321">
        <ele>816.2</ele>
        <time>2020-09-15T06:06:17Z</time>
      </trkpt>
      <trkpt lat="30.630725" lon="34.785314">
        <ele>816.0</ele>
        <time>2020-09-15T06:06:22Z</time>
      </trkpt>
      <trkpt lat="30.630728" lon="34.785313">
        <ele>816.0</ele>
        <time>2020-09-15T06:06:24Z</time>
      </trkpt>
      <trkpt lat="30.630728" lon="34.785313">
        <ele>816.0</ele>
        <time>2020-09-15T06:06:29Z</time>
      </trkpt>
      <trkpt lat="30.630728" lon="34.785314">
        <ele>816.0</ele>
        <time>2020-09-15T06:06:31Z</time>
      </trkpt>
      <trkpt lat="30.630727" lon="34.785313">
        <ele>815.8</ele>
        <time>2020-09-15T06:06:36Z</time>
      </trkpt>
      <trkpt lat="30.630727" lon="34.785313">
        <ele>815.8</ele>
        <time>2020-09-15T06:06:37Z</time>
      </trkpt>
      <trkpt lat="30.630734" lon="34.785321">
        <ele>816.6</ele>
        <time>2020-09-15T06:06:49Z</time>
      </trkpt>
      <trkpt lat="30.630735" lon="34.785326">
        <ele>816.6</ele>
        <time>2020-09-15T06:06:50Z</time>
      </trkpt>
      <trkpt lat="30.630736" lon="34.785329">
        <ele>816.0</ele>
        <time>2020-09-15T06:06:51Z</time>
      </trkpt>
      <trkpt lat="30.630739" lon="34.785332">
        <ele>816.0</ele>
        <time>2020-09-15T06:06:52Z</time>
      </trkpt>
      <trkpt lat="30.630744" lon="34.785341">
        <ele>816.0</ele>
        <time>2020-09-15T06:06:58Z</time>
      </trkpt>
      <trkpt lat="30.630760" lon="34.785368">
        <ele>816.0</ele>
        <time>2020-09-15T06:07:08Z</time>
      </trkpt>
      <trkpt lat="30.630753" lon="34.785372">
        <ele>816.0</ele>
        <time>2020-09-15T06:07:11Z</time>
      </trkpt>
      <trkpt lat="30.630751" lon="34.785372">
        <ele>816.0</ele>
        <time>2020-09-15T06:07:12Z</time>
      </trkpt>
      <trkpt lat="30.630751" lon="34.785372">
        <ele>816.0</ele>
        <time>2020-09-15T06:07:13Z</time>
      </trkpt>
      <trkpt lat="30.630751" lon="34.785372">
        <ele>816.0</ele>
        <time>2020-09-15T06:07:14Z</time>
      </trkpt>
      <trkpt lat="30.630751" lon="34.785372">
        <ele>816.0</ele>
        <time>2020-09-15T06:07:15Z</time>
      </trkpt>
      <trkpt lat="30.630750" lon="34.785366">
        <ele>816.0</ele>
        <time>2020-09-15T06:07:27Z</time>
      </trkpt>
      <trkpt lat="30.630746" lon="34.785343">
        <ele>816.0</ele>
        <time>2020-09-15T06:07:43Z</time>
      </trkpt>
      <trkpt lat="30.630742" lon="34.785354">
        <ele>816.0</ele>
        <time>2020-09-15T06:07:51Z</time>
      </trkpt>
      <trkpt lat="30.630740" lon="34.785355">
        <ele>816.0</ele>
        <time>2020-09-15T06:08:02Z</time>
      </trkpt>
      <trkpt lat="30.630741" lon="34.785356">
        <ele>816.0</ele>
        <time>2020-09-15T06:08:09Z</time>
      </trkpt>
      <trkpt lat="30.630738" lon="34.785349">
        <ele>816.0</ele>
        <time>2020-09-15T06:08:38Z</time>
      </trkpt>
      <trkpt lat="30.630731" lon="34.785346">
        <ele>816.0</ele>
        <time>2020-09-15T06:08:42Z</time>
      </trkpt>
      <trkpt lat="30.630724" lon="34.785342">
        <ele>816.0</ele>
        <time>2020-09-15T06:08:47Z</time>
      </trkpt>
      <trkpt lat="30.630715" lon="34.785345">
        <ele>816.0</ele>
        <time>2020-09-15T06:08:56Z</time>
      </trkpt>
      <trkpt lat="30.630713" lon="34.785344">
        <ele>816.0</ele>
        <time>2020-09-15T06:09:23Z</time>
      </trkpt>
      <trkpt lat="30.630727" lon="34.785347">
        <ele>816.0</ele>
        <time>2020-09-15T06:09:39Z</time>
      </trkpt>
      <trkpt lat="30.630729" lon="34.785351">
        <ele>816.0</ele>
        <time>2020-09-15T06:09:50Z</time>
      </trkpt>
      <trkpt lat="30.630726" lon="34.785351">
        <ele>816.0</ele>
        <time>2020-09-15T06:09:52Z</time>
      </trkpt>
      <trkpt lat="30.630724" lon="34.785349">
        <ele>816.0</ele>
        <time>2020-09-15T06:09:53Z</time>
      </trkpt>
      <trkpt lat="30.630731" lon="34.785344">
        <ele>816.0</ele>
        <time>2020-09-15T06:09:55Z</time>
      </trkpt>
      <trkpt lat="30.630734" lon="34.785339">
        <ele>816.0</ele>
        <time>2020-09-15T06:10:05Z</time>
      </trkpt>
      <trkpt lat="30.630734" lon="34.785338">
        <ele>816.0</ele>
        <time>2020-09-15T06:10:06Z</time>
      </trkpt>
      <trkpt lat="30.630733" lon="34.785338">
        <ele>816.0</ele>
        <time>2020-09-15T06:10:07Z</time>
      </trkpt>
      <trkpt lat="30.630736" lon="34.785336">
        <ele>816.0</ele>
        <time>2020-09-15T06:10:17Z</time>
      </trkpt>
      <trkpt lat="30.630737" lon="34.785336">
        <ele>816.0</ele>
        <time>2020-09-15T06:10:18Z</time>
      </trkpt>
      <trkpt lat="30.630738" lon="34.785336">
        <ele>816.0</ele>
        <time>2020-09-15T06:10:19Z</time>
      </trkpt>
      <trkpt lat="30.630739" lon="34.785336">
        <ele>816.0</ele>
        <time>2020-09-15T06:10:20Z</time>
      </trkpt>
      <trkpt lat="30.630740" lon="34.785336">
        <ele>816.0</ele>
        <time>2020-09-15T06:10:22Z</time>
      </trkpt>
      <trkpt lat="30.630742" lon="34.785341">
        <ele>816.0</ele>
        <time>2020-09-15T06:10:28Z</time>
      </trkpt>
      <trkpt lat="30.630742" lon="34.785345">
        <ele>816.0</ele>
        <time>2020-09-15T06:10:30Z</time>
      </trkpt>
      <trkpt lat="30.630737" lon="34.785363">
        <ele>816.0</ele>
        <time>2020-09-15T06:10:37Z</time>
      </trkpt>
      <trkpt lat="30.630738" lon="34.785358">
        <ele>816.0</ele>
        <time>2020-09-15T06:10:39Z</time>
      </trkpt>
      <trkpt lat="30.630738" lon="34.785337">
        <ele>816.0</ele>
        <time>2020-09-15T06:10:50Z</time>
      </trkpt>
      <trkpt lat="30.630739" lon="34.785337">
        <ele>816.0</ele>
        <time>2020-09-15T06:10:51Z</time>
      </trkpt>
      <trkpt lat="30.630734" lon="34.785325">
        <ele>816.0</ele>
        <time>2020-09-15T06:10:57Z</time>
      </trkpt>
      <trkpt lat="30.630716" lon="34.785264">
        <ele>816.0</ele>
        <time>2020-09-15T06:11:07Z</time>
      </trkpt>
      <trkpt lat="30.630706" lon="34.785237">
        <ele>815.0</ele>
        <time>2020-09-15T06:11:08Z</time>
      </trkpt>
      <trkpt lat="30.630696" lon="34.785206">
        <ele>814.6</ele>
        <time>2020-09-15T06:11:09Z</time>
      </trkpt>
      <trkpt lat="30.630659" lon="34.785120">
        <ele>815.0</ele>
        <time>2020-09-15T06:11:12Z</time>
      </trkpt>
      <trkpt lat="30.630633" lon="34.785066">
        <ele>815.2</ele>
        <time>2020-09-15T06:11:14Z</time>
      </trkpt>
      <trkpt lat="30.630622" lon="34.785043">
        <ele>815.2</ele>
        <time>2020-09-15T06:11:15Z</time>
      </trkpt>
      <trkpt lat="30.630529" lon="34.784888">
        <ele>815.2</ele>
        <time>2020-09-15T06:11:20Z</time>
      </trkpt>
      <trkpt lat="30.630484" lon="34.784807">
        <ele>815.4</ele>
        <time>2020-09-15T06:11:22Z</time>
      </trkpt>
      <trkpt lat="30.630441" lon="34.784690">
        <ele>815.4</ele>
        <time>2020-09-15T06:11:25Z</time>
      </trkpt>
      <trkpt lat="30.630412" lon="34.784591">
        <ele>815.6</ele>
        <time>2020-09-15T06:11:29Z</time>
      </trkpt>
      <trkpt lat="30.630359" lon="34.784481">
        <ele>815.4</ele>
        <time>2020-09-15T06:11:33Z</time>
      </trkpt>
      <trkpt lat="30.630320" lon="34.784415">
        <ele>815.2</ele>
        <time>2020-09-15T06:11:35Z</time>
      </trkpt>
      <trkpt lat="30.630252" lon="34.784285">
        <ele>814.8</ele>
        <time>2020-09-15T06:11:38Z</time>
      </trkpt>
      <trkpt lat="30.630223" lon="34.784180">
        <ele>814.8</ele>
        <time>2020-09-15T06:11:40Z</time>
      </trkpt>
      <trkpt lat="30.630208" lon="34.783992">
        <ele>814.2</ele>
        <time>2020-09-15T06:11:45Z</time>
      </trkpt>
      <trkpt lat="30.630153" lon="34.783878">
        <ele>814.0</ele>
        <time>2020-09-15T06:11:48Z</time>
      </trkpt>
      <trkpt lat="30.630113" lon="34.783838">
        <ele>814.0</ele>
        <time>2020-09-15T06:11:49Z</time>
      </trkpt>
      <trkpt lat="30.630070" lon="34.783810">
        <ele>814.0</ele>
        <time>2020-09-15T06:11:50Z</time>
      </trkpt>
      <trkpt lat="30.629954" lon="34.783777">
        <ele>813.0</ele>
        <time>2020-09-15T06:11:53Z</time>
      </trkpt>
      <trkpt lat="30.629836" lon="34.783777">
        <ele>811.8</ele>
        <time>2020-09-15T06:11:56Z</time>
      </trkpt>
      <trkpt lat="30.629689" lon="34.783759">
        <ele>810.6</ele>
        <time>2020-09-15T06:11:59Z</time>
      </trkpt>
      <trkpt lat="30.629578" lon="34.783772">
        <ele>810.4</ele>
        <time>2020-09-15T06:12:01Z</time>
      </trkpt>
      <trkpt lat="30.629467" lon="34.783815">
        <ele>810.4</ele>
        <time>2020-09-15T06:12:03Z</time>
      </trkpt>
      <trkpt lat="30.629386" lon="34.783896">
        <ele>809.6</ele>
        <time>2020-09-15T06:12:05Z</time>
      </trkpt>
      <trkpt lat="30.629325" lon="34.783996">
        <ele>809.2</ele>
        <time>2020-09-15T06:12:07Z</time>
      </trkpt>
      <trkpt lat="30.629279" lon="34.784090">
        <ele>808.8</ele>
        <time>2020-09-15T06:12:09Z</time>
      </trkpt>
      <trkpt lat="30.629260" lon="34.784135">
        <ele>808.6</ele>
        <time>2020-09-15T06:12:10Z</time>
      </trkpt>
      <trkpt lat="30.629234" lon="34.784207">
        <ele>808.8</ele>
        <time>2020-09-15T06:12:12Z</time>
      </trkpt>
      <trkpt lat="30.629207" lon="34.784326">
        <ele>808.8</ele>
        <time>2020-09-15T06:12:15Z</time>
      </trkpt>
      <trkpt lat="30.629175" lon="34.784454">
        <ele>808.8</ele>
        <time>2020-09-15T06:12:18Z</time>
      </trkpt>
      <trkpt lat="30.629122" lon="34.784691">
        <ele>808.8</ele>
        <time>2020-09-15T06:12:24Z</time>
      </trkpt>
      <trkpt lat="30.629101" lon="34.784805">
        <ele>808.6</ele>
        <time>2020-09-15T06:12:27Z</time>
      </trkpt>
      <trkpt lat="30.629092" lon="34.784883">
        <ele>808.6</ele>
        <time>2020-09-15T06:12:29Z</time>
      </trkpt>
      <trkpt lat="30.629092" lon="34.784922">
        <ele>808.4</ele>
        <time>2020-09-15T06:12:30Z</time>
      </trkpt>
      <trkpt lat="30.629086" lon="34.784995">
        <ele>808.4</ele>
        <time>2020-09-15T06:12:32Z</time>
      </trkpt>
      <trkpt lat="30.629010" lon="34.785177">
        <ele>808.2</ele>
        <time>2020-09-15T06:12:38Z</time>
      </trkpt>
      <trkpt lat="30.628887" lon="34.785182">
        <ele>808.0</ele>
        <time>2020-09-15T06:12:42Z</time>
      </trkpt>
      <trkpt lat="30.628781" lon="34.785130">
        <ele>807.2</ele>
        <time>2020-09-15T06:12:45Z</time>
      </trkpt>
      <trkpt lat="30.628615" lon="34.785067">
        <ele>806.2</ele>
        <time>2020-09-15T06:12:49Z</time>
      </trkpt>
      <trkpt lat="30.628568" lon="34.785048">
        <ele>805.8</ele>
        <time>2020-09-15T06:12:50Z</time>
      </trkpt>
      <trkpt lat="30.628388" lon="34.784947">
        <ele>805.4</ele>
        <time>2020-09-15T06:12:54Z</time>
      </trkpt>
      <trkpt lat="30.628260" lon="34.784882">
        <ele>805.0</ele>
        <time>2020-09-15T06:12:57Z</time>
      </trkpt>
      <trkpt lat="30.628221" lon="34.784863">
        <ele>804.8</ele>
        <time>2020-09-15T06:12:58Z</time>
      </trkpt>
      <trkpt lat="30.628143" lon="34.784843">
        <ele>805.0</ele>
        <time>2020-09-15T06:13:00Z</time>
      </trkpt>
      <trkpt lat="30.628105" lon="34.784838">
        <ele>805.2</ele>
        <time>2020-09-15T06:13:01Z</time>
      </trkpt>
      <trkpt lat="30.627971" lon="34.784790">
        <ele>805.4</ele>
        <time>2020-09-15T06:13:05Z</time>
      </trkpt>
      <trkpt lat="30.627948" lon="34.784766">
        <ele>805.6</ele>
        <time>2020-09-15T06:13:06Z</time>
      </trkpt>
      <trkpt lat="30.627920" lon="34.784706">
        <ele>805.4</ele>
        <time>2020-09-15T06:13:08Z</time>
      </trkpt>
      <trkpt lat="30.627917" lon="34.784630">
        <ele>805.6</ele>
        <time>2020-09-15T06:13:10Z</time>
      </trkpt>
      <trkpt lat="30.627943" lon="34.784535">
        <ele>805.4</ele>
        <time>2020-09-15T06:13:13Z</time>
      </trkpt>
      <trkpt lat="30.627974" lon="34.784460">
        <ele>805.6</ele>
        <time>2020-09-15T06:13:16Z</time>
      </trkpt>
      <trkpt lat="30.627989" lon="34.784414">
        <ele>806.2</ele>
        <time>2020-09-15T06:13:18Z</time>
      </trkpt>
      <trkpt lat="30.627975" lon="34.784280">
        <ele>807.0</ele>
        <time>2020-09-15T06:13:23Z</time>
      </trkpt>
      <trkpt lat="30.627957" lon="34.784258">
        <ele>807.2</ele>
        <time>2020-09-15T06:13:24Z</time>
      </trkpt>
      <trkpt lat="30.627901" lon="34.784231">
        <ele>807.0</ele>
        <time>2020-09-15T06:13:26Z</time>
      </trkpt>
      <trkpt lat="30.627872" lon="34.784218">
        <ele>806.8</ele>
        <time>2020-09-15T06:13:27Z</time>
      </trkpt>
      <trkpt lat="30.627733" lon="34.784095">
        <ele>806.8</ele>
        <time>2020-09-15T06:13:32Z</time>
      </trkpt>
      <trkpt lat="30.627575" lon="34.783985">
        <ele>807.0</ele>
        <time>2020-09-15T06:13:38Z</time>
      </trkpt>
      <trkpt lat="30.627464" lon="34.783991">
        <ele>806.4</ele>
        <time>2020-09-15T06:13:41Z</time>
      </trkpt>
      <trkpt lat="30.627371" lon="34.784012">
        <ele>805.8</ele>
        <time>2020-09-15T06:13:43Z</time>
      </trkpt>
      <trkpt lat="30.627258" lon="34.783977">
        <ele>805.0</ele>
        <time>2020-09-15T06:13:46Z</time>
      </trkpt>
      <trkpt lat="30.627236" lon="34.783952">
        <ele>805.0</ele>
        <time>2020-09-15T06:13:47Z</time>
      </trkpt>
      <trkpt lat="30.627183" lon="34.783800">
        <ele>805.2</ele>
        <time>2020-09-15T06:13:52Z</time>
      </trkpt>
      <trkpt lat="30.627145" lon="34.783550">
        <ele>805.6</ele>
        <time>2020-09-15T06:13:59Z</time>
      </trkpt>
      <trkpt lat="30.627097" lon="34.783505">
        <ele>805.6</ele>
        <time>2020-09-15T06:14:01Z</time>
      </trkpt>
      <trkpt lat="30.627070" lon="34.783496">
        <ele>805.6</ele>
        <time>2020-09-15T06:14:02Z</time>
      </trkpt>
      <trkpt lat="30.627042" lon="34.783491">
        <ele>805.6</ele>
        <time>2020-09-15T06:14:03Z</time>
      </trkpt>
      <trkpt lat="30.626883" lon="34.783505">
        <ele>805.6</ele>
        <time>2020-09-15T06:14:08Z</time>
      </trkpt>
      <trkpt lat="30.626693" lon="34.783521">
        <ele>805.6</ele>
        <time>2020-09-15T06:14:14Z</time>
      </trkpt>
      <trkpt lat="30.626664" lon="34.783527">
        <ele>805.6</ele>
        <time>2020-09-15T06:14:15Z</time>
      </trkpt>
      <trkpt lat="30.626551" lon="34.783519">
        <ele>804.8</ele>
        <time>2020-09-15T06:14:20Z</time>
      </trkpt>
      <trkpt lat="30.626561" lon="34.783528">
        <ele>805.0</ele>
        <time>2020-09-15T06:14:25Z</time>
      </trkpt>
      <trkpt lat="30.626560" lon="34.783526">
        <ele>805.0</ele>
        <time>2020-09-15T06:14:26Z</time>
      </trkpt>
      <trkpt lat="30.626557" lon="34.783522">
        <ele>804.8</ele>
        <time>2020-09-15T06:14:33Z</time>
      </trkpt>
      <trkpt lat="30.626555" lon="34.783523">
        <ele>804.8</ele>
        <time>2020-09-15T06:14:35Z</time>
      </trkpt>
      <trkpt lat="30.626557" lon="34.783531">
        <ele>804.8</ele>
        <time>2020-09-15T06:14:41Z</time>
      </trkpt>
      <trkpt lat="30.626557" lon="34.783532">
        <ele>804.8</ele>
        <time>2020-09-15T06:14:43Z</time>
      </trkpt>
      <trkpt lat="30.626556" lon="34.783532">
        <ele>804.8</ele>
        <time>2020-09-15T06:14:44Z</time>
      </trkpt>
      <trkpt lat="30.626554" lon="34.783533">
        <ele>805.0</ele>
        <time>2020-09-15T06:14:49Z</time>
      </trkpt>
      <trkpt lat="30.626556" lon="34.783529">
        <ele>805.0</ele>
        <time>2020-09-15T06:14:53Z</time>
      </trkpt>
      <trkpt lat="30.626559" lon="34.783530">
        <ele>805.0</ele>
        <time>2020-09-15T06:14:54Z</time>
      </trkpt>
      <trkpt lat="30.626561" lon="34.783528">
        <ele>804.8</ele>
        <time>2020-09-15T06:14:57Z</time>
      </trkpt>
      <trkpt lat="30.626564" lon="34.783527">
        <ele>804.6</ele>
        <time>2020-09-15T06:14:59Z</time>
      </trkpt>
      <trkpt lat="30.626569" lon="34.783524">
        <ele>804.8</ele>
        <time>2020-09-15T06:15:04Z</time>
      </trkpt>
      <trkpt lat="30.626562" lon="34.783518">
        <ele>804.2</ele>
        <time>2020-09-15T06:15:09Z</time>
      </trkpt>
      <trkpt lat="30.626553" lon="34.783510">
        <ele>804.0</ele>
        <time>2020-09-15T06:15:10Z</time>
      </trkpt>
      <trkpt lat="30.626537" lon="34.783500">
        <ele>804.0</ele>
        <time>2020-09-15T06:15:11Z</time>
      </trkpt>
      <trkpt lat="30.626472" lon="34.783379">
        <ele>803.6</ele>
        <time>2020-09-15T06:15:16Z</time>
      </trkpt>
      <trkpt lat="30.626469" lon="34.783254">
        <ele>803.8</ele>
        <time>2020-09-15T06:15:19Z</time>
      </trkpt>
      <trkpt lat="30.626466" lon="34.783146">
        <ele>804.0</ele>
        <time>2020-09-15T06:15:22Z</time>
      </trkpt>
      <trkpt lat="30.626439" lon="34.783083">
        <ele>804.2</ele>
        <time>2020-09-15T06:15:24Z</time>
      </trkpt>
      <trkpt lat="30.626369" lon="34.783022">
        <ele>804.4</ele>
        <time>2020-09-15T06:15:27Z</time>
      </trkpt>
      <trkpt lat="30.626197" lon="34.783007">
        <ele>803.6</ele>
        <time>2020-09-15T06:15:33Z</time>
      </trkpt>
      <trkpt lat="30.626063" lon="34.783048">
        <ele>803.4</ele>
        <time>2020-09-15T06:15:36Z</time>
      </trkpt>
      <trkpt lat="30.626008" lon="34.783061">
        <ele>803.0</ele>
        <time>2020-09-15T06:15:37Z</time>
      </trkpt>
      <trkpt lat="30.625949" lon="34.783070">
        <ele>802.8</ele>
        <time>2020-09-15T06:15:38Z</time>
      </trkpt>
      <trkpt lat="30.625845" lon="34.783087">
        <ele>802.0</ele>
        <time>2020-09-15T06:15:40Z</time>
      </trkpt>
      <trkpt lat="30.625793" lon="34.783103">
        <ele>801.6</ele>
        <time>2020-09-15T06:15:41Z</time>
      </trkpt>
      <trkpt lat="30.625743" lon="34.783126">
        <ele>801.2</ele>
        <time>2020-09-15T06:15:42Z</time>
      </trkpt>
      <trkpt lat="30.625691" lon="34.783146">
        <ele>801.0</ele>
        <time>2020-09-15T06:15:43Z</time>
      </trkpt>
      <trkpt lat="30.625636" lon="34.783161">
        <ele>801.0</ele>
        <time>2020-09-15T06:15:44Z</time>
      </trkpt>
      <trkpt lat="30.625582" lon="34.783166">
        <ele>801.0</ele>
        <time>2020-09-15T06:15:45Z</time>
      </trkpt>
      <trkpt lat="30.625529" lon="34.783164">
        <ele>801.0</ele>
        <time>2020-09-15T06:15:46Z</time>
      </trkpt>
      <trkpt lat="30.625478" lon="34.783155">
        <ele>801.0</ele>
        <time>2020-09-15T06:15:47Z</time>
      </trkpt>
      <trkpt lat="30.625380" lon="34.783118">
        <ele>800.2</ele>
        <time>2020-09-15T06:15:49Z</time>
      </trkpt>
      <trkpt lat="30.625328" lon="34.783093">
        <ele>799.8</ele>
        <time>2020-09-15T06:15:50Z</time>
      </trkpt>
      <trkpt lat="30.625279" lon="34.783058">
        <ele>799.4</ele>
        <time>2020-09-15T06:15:51Z</time>
      </trkpt>
      <trkpt lat="30.625234" lon="34.783016">
        <ele>799.0</ele>
        <time>2020-09-15T06:15:52Z</time>
      </trkpt>
      <trkpt lat="30.625147" lon="34.782924">
        <ele>798.6</ele>
        <time>2020-09-15T06:15:54Z</time>
      </trkpt>
      <trkpt lat="30.625041" lon="34.782865">
        <ele>798.0</ele>
        <time>2020-09-15T06:15:56Z</time>
      </trkpt>
      <trkpt lat="30.624979" lon="34.782856">
        <ele>797.4</ele>
        <time>2020-09-15T06:15:57Z</time>
      </trkpt>
      <trkpt lat="30.624914" lon="34.782865">
        <ele>797.0</ele>
        <time>2020-09-15T06:15:58Z</time>
      </trkpt>
      <trkpt lat="30.624804" lon="34.782935">
        <ele>796.2</ele>
        <time>2020-09-15T06:16:00Z</time>
      </trkpt>
      <trkpt lat="30.624729" lon="34.783061">
        <ele>795.8</ele>
        <time>2020-09-15T06:16:02Z</time>
      </trkpt>
      <trkpt lat="30.624699" lon="34.783129">
        <ele>795.6</ele>
        <time>2020-09-15T06:16:03Z</time>
      </trkpt>
      <trkpt lat="30.624660" lon="34.783195">
        <ele>795.6</ele>
        <time>2020-09-15T06:16:04Z</time>
      </trkpt>
      <trkpt lat="30.624544" lon="34.783292">
        <ele>794.6</ele>
        <time>2020-09-15T06:16:06Z</time>
      </trkpt>
      <trkpt lat="30.624407" lon="34.783361">
        <ele>793.8</ele>
        <time>2020-09-15T06:16:08Z</time>
      </trkpt>
      <trkpt lat="30.624337" lon="34.783380">
        <ele>793.6</ele>
        <time>2020-09-15T06:16:09Z</time>
      </trkpt>
      <trkpt lat="30.624268" lon="34.783389">
        <ele>793.4</ele>
        <time>2020-09-15T06:16:10Z</time>
      </trkpt>
      <trkpt lat="30.624089" lon="34.783353">
        <ele>793.2</ele>
        <time>2020-09-15T06:16:13Z</time>
      </trkpt>
      <trkpt lat="30.624035" lon="34.783329">
        <ele>793.2</ele>
        <time>2020-09-15T06:16:14Z</time>
      </trkpt>
      <trkpt lat="30.623947" lon="34.783268">
        <ele>793.2</ele>
        <time>2020-09-15T06:16:16Z</time>
      </trkpt>
      <trkpt lat="30.623913" lon="34.783236">
        <ele>793.4</ele>
        <time>2020-09-15T06:16:17Z</time>
      </trkpt>
      <trkpt lat="30.623837" lon="34.783193">
        <ele>793.4</ele>
        <time>2020-09-15T06:16:19Z</time>
      </trkpt>
      <trkpt lat="30.623798" lon="34.783180">
        <ele>793.4</ele>
        <time>2020-09-15T06:16:20Z</time>
      </trkpt>
      <trkpt lat="30.623646" lon="34.783167">
        <ele>793.4</ele>
        <time>2020-09-15T06:16:24Z</time>
      </trkpt>
      <trkpt lat="30.623539" lon="34.783184">
        <ele>793.6</ele>
        <time>2020-09-15T06:16:27Z</time>
      </trkpt>
      <trkpt lat="30.623459" lon="34.783223">
        <ele>793.4</ele>
        <time>2020-09-15T06:16:29Z</time>
      </trkpt>
      <trkpt lat="30.623385" lon="34.783277">
        <ele>793.2</ele>
        <time>2020-09-15T06:16:31Z</time>
      </trkpt>
      <trkpt lat="30.623330" lon="34.783350">
        <ele>793.0</ele>
        <time>2020-09-15T06:16:33Z</time>
      </trkpt>
      <trkpt lat="30.623309" lon="34.783393">
        <ele>792.8</ele>
        <time>2020-09-15T06:16:34Z</time>
      </trkpt>
      <trkpt lat="30.623271" lon="34.783496">
        <ele>792.6</ele>
        <time>2020-09-15T06:16:36Z</time>
      </trkpt>
      <trkpt lat="30.623236" lon="34.783618">
        <ele>792.4</ele>
        <time>2020-09-15T06:16:38Z</time>
      </trkpt>
      <trkpt lat="30.623212" lon="34.783674">
        <ele>792.4</ele>
        <time>2020-09-15T06:16:39Z</time>
      </trkpt>
      <trkpt lat="30.623143" lon="34.783755">
        <ele>792.4</ele>
        <time>2020-09-15T06:16:41Z</time>
      </trkpt>
      <trkpt lat="30.623111" lon="34.783791">
        <ele>792.4</ele>
        <time>2020-09-15T06:16:42Z</time>
      </trkpt>
      <trkpt lat="30.623077" lon="34.783948">
        <ele>792.4</ele>
        <time>2020-09-15T06:16:46Z</time>
      </trkpt>
      <trkpt lat="30.623078" lon="34.784019">
        <ele>792.6</ele>
        <time>2020-09-15T06:16:48Z</time>
      </trkpt>
      <trkpt lat="30.623063" lon="34.784180">
        <ele>793.2</ele>
        <time>2020-09-15T06:16:53Z</time>
      </trkpt>
      <trkpt lat="30.623046" lon="34.784273">
        <ele>793.4</ele>
        <time>2020-09-15T06:16:56Z</time>
      </trkpt>
      <trkpt lat="30.623043" lon="34.784306">
        <ele>793.6</ele>
        <time>2020-09-15T06:16:57Z</time>
      </trkpt>
      <trkpt lat="30.623045" lon="34.784374">
        <ele>794.2</ele>
        <time>2020-09-15T06:16:59Z</time>
      </trkpt>
      <trkpt lat="30.623064" lon="34.784463">
        <ele>794.8</ele>
        <time>2020-09-15T06:17:02Z</time>
      </trkpt>
      <trkpt lat="30.623105" lon="34.784576">
        <ele>795.0</ele>
        <time>2020-09-15T06:17:06Z</time>
      </trkpt>
      <trkpt lat="30.623138" lon="34.784778">
        <ele>795.8</ele>
        <time>2020-09-15T06:17:12Z</time>
      </trkpt>
      <trkpt lat="30.623146" lon="34.784841">
        <ele>795.8</ele>
        <time>2020-09-15T06:17:14Z</time>
      </trkpt>
      <trkpt lat="30.623152" lon="34.784870">
        <ele>795.8</ele>
        <time>2020-09-15T06:17:15Z</time>
      </trkpt>
      <trkpt lat="30.623207" lon="34.785018">
        <ele>795.6</ele>
        <time>2020-09-15T06:17:20Z</time>
      </trkpt>
      <trkpt lat="30.623243" lon="34.785077">
        <ele>795.6</ele>
        <time>2020-09-15T06:17:22Z</time>
      </trkpt>
      <trkpt lat="30.623328" lon="34.785202">
        <ele>795.6</ele>
        <time>2020-09-15T06:17:26Z</time>
      </trkpt>
      <trkpt lat="30.623453" lon="34.785446">
        <ele>795.4</ele>
        <time>2020-09-15T06:17:31Z</time>
      </trkpt>
      <trkpt lat="30.623524" lon="34.785584">
        <ele>794.8</ele>
        <time>2020-09-15T06:17:35Z</time>
      </trkpt>
      <trkpt lat="30.623536" lon="34.785660">
        <ele>794.8</ele>
        <time>2020-09-15T06:17:37Z</time>
      </trkpt>
      <trkpt lat="30.623517" lon="34.785776">
        <ele>794.8</ele>
        <time>2020-09-15T06:17:40Z</time>
      </trkpt>
      <trkpt lat="30.623455" lon="34.785959">
        <ele>795.6</ele>
        <time>2020-09-15T06:17:46Z</time>
      </trkpt>
      <trkpt lat="30.623432" lon="34.786068">
        <ele>795.8</ele>
        <time>2020-09-15T06:17:50Z</time>
      </trkpt>
      <trkpt lat="30.623409" lon="34.786126">
        <ele>796.0</ele>
        <time>2020-09-15T06:17:52Z</time>
      </trkpt>
      <trkpt lat="30.623398" lon="34.786150">
        <ele>796.2</ele>
        <time>2020-09-15T06:17:53Z</time>
      </trkpt>
      <trkpt lat="30.623292" lon="34.786270">
        <ele>796.8</ele>
        <time>2020-09-15T06:17:59Z</time>
      </trkpt>
      <trkpt lat="30.623184" lon="34.786293">
        <ele>797.6</ele>
        <time>2020-09-15T06:18:04Z</time>
      </trkpt>
      <trkpt lat="30.623164" lon="34.786295">
        <ele>797.8</ele>
        <time>2020-09-15T06:18:05Z</time>
      </trkpt>
      <trkpt lat="30.623143" lon="34.786295">
        <ele>797.8</ele>
        <time>2020-09-15T06:18:06Z</time>
      </trkpt>
      <trkpt lat="30.623122" lon="34.786293">
        <ele>798.0</ele>
        <time>2020-09-15T06:18:07Z</time>
      </trkpt>
      <trkpt lat="30.623103" lon="34.786289">
        <ele>798.0</ele>
        <time>2020-09-15T06:18:08Z</time>
      </trkpt>
      <trkpt lat="30.623064" lon="34.786281">
        <ele>798.6</ele>
        <time>2020-09-15T06:18:10Z</time>
      </trkpt>
      <trkpt lat="30.623047" lon="34.786277">
        <ele>799.0</ele>
        <time>2020-09-15T06:18:11Z</time>
      </trkpt>
      <trkpt lat="30.623030" lon="34.786277">
        <ele>799.2</ele>
        <time>2020-09-15T06:18:12Z</time>
      </trkpt>
      <trkpt lat="30.622893" lon="34.786295">
        <ele>800.0</ele>
        <time>2020-09-15T06:18:19Z</time>
      </trkpt>
      <trkpt lat="30.622875" lon="34.786294">
        <ele>800.0</ele>
        <time>2020-09-15T06:18:20Z</time>
      </trkpt>
      <trkpt lat="30.622768" lon="34.786279">
        <ele>800.4</ele>
        <time>2020-09-15T06:18:26Z</time>
      </trkpt>
      <trkpt lat="30.622749" lon="34.786280">
        <ele>800.6</ele>
        <time>2020-09-15T06:18:27Z</time>
      </trkpt>
      <trkpt lat="30.622716" lon="34.786288">
        <ele>801.2</ele>
        <time>2020-09-15T06:18:29Z</time>
      </trkpt>
      <trkpt lat="30.622618" lon="34.786319">
        <ele>802.2</ele>
        <time>2020-09-15T06:18:35Z</time>
      </trkpt>
      <trkpt lat="30.622583" lon="34.786328">
        <ele>802.6</ele>
        <time>2020-09-15T06:18:37Z</time>
      </trkpt>
      <trkpt lat="30.622440" lon="34.786311">
        <ele>803.4</ele>
        <time>2020-09-15T06:18:45Z</time>
      </trkpt>
      <trkpt lat="30.622367" lon="34.786283">
        <ele>804.4</ele>
        <time>2020-09-15T06:18:49Z</time>
      </trkpt>
      <trkpt lat="30.622306" lon="34.786260">
        <ele>804.6</ele>
        <time>2020-09-15T06:18:52Z</time>
      </trkpt>
      <trkpt lat="30.622201" lon="34.786126">
        <ele>805.0</ele>
        <time>2020-09-15T06:18:59Z</time>
      </trkpt>
      <trkpt lat="30.622075" lon="34.785967">
        <ele>805.4</ele>
        <time>2020-09-15T06:19:07Z</time>
      </trkpt>
      <trkpt lat="30.621932" lon="34.785863">
        <ele>806.2</ele>
        <time>2020-09-15T06:19:14Z</time>
      </trkpt>
      <trkpt lat="30.621912" lon="34.785853">
        <ele>806.2</ele>
        <time>2020-09-15T06:19:15Z</time>
      </trkpt>
      <trkpt lat="30.621871" lon="34.785841">
        <ele>806.4</ele>
        <time>2020-09-15T06:19:17Z</time>
      </trkpt>
      <trkpt lat="30.621748" lon="34.785797">
        <ele>807.2</ele>
        <time>2020-09-15T06:19:23Z</time>
      </trkpt>
      <trkpt lat="30.621708" lon="34.785760">
        <ele>807.6</ele>
        <time>2020-09-15T06:19:25Z</time>
      </trkpt>
      <trkpt lat="30.621692" lon="34.785739">
        <ele>807.6</ele>
        <time>2020-09-15T06:19:26Z</time>
      </trkpt>
      <trkpt lat="30.621636" lon="34.785656">
        <ele>808.0</ele>
        <time>2020-09-15T06:19:30Z</time>
      </trkpt>
      <trkpt lat="30.621577" lon="34.785615">
        <ele>808.6</ele>
        <time>2020-09-15T06:19:33Z</time>
      </trkpt>
      <trkpt lat="30.621489" lon="34.785587">
        <ele>809.4</ele>
        <time>2020-09-15T06:19:37Z</time>
      </trkpt>
      <trkpt lat="30.621378" lon="34.785556">
        <ele>809.8</ele>
        <time>2020-09-15T06:19:42Z</time>
      </trkpt>
      <trkpt lat="30.621306" lon="34.785503">
        <ele>810.4</ele>
        <time>2020-09-15T06:19:46Z</time>
      </trkpt>
      <trkpt lat="30.621229" lon="34.785405">
        <ele>810.8</ele>
        <time>2020-09-15T06:19:51Z</time>
      </trkpt>
      <trkpt lat="30.621177" lon="34.785341">
        <ele>812.0</ele>
        <time>2020-09-15T06:19:54Z</time>
      </trkpt>
      <trkpt lat="30.621071" lon="34.785214">
        <ele>811.4</ele>
        <time>2020-09-15T06:20:00Z</time>
      </trkpt>
      <trkpt lat="30.620956" lon="34.785085">
        <ele>811.8</ele>
        <time>2020-09-15T06:20:06Z</time>
      </trkpt>
      <trkpt lat="30.620876" lon="34.784993">
        <ele>813.0</ele>
        <time>2020-09-15T06:20:10Z</time>
      </trkpt>
      <trkpt lat="30.620786" lon="34.784894">
        <ele>812.6</ele>
        <time>2020-09-15T06:20:14Z</time>
      </trkpt>
      <trkpt lat="30.620667" lon="34.784791">
        <ele>812.6</ele>
        <time>2020-09-15T06:20:19Z</time>
      </trkpt>
      <trkpt lat="30.620646" lon="34.784773">
        <ele>812.8</ele>
        <time>2020-09-15T06:20:20Z</time>
      </trkpt>
      <trkpt lat="30.620600" lon="34.784706">
        <ele>814.2</ele>
        <time>2020-09-15T06:20:23Z</time>
      </trkpt>
      <trkpt lat="30.620550" lon="34.784617">
        <ele>814.2</ele>
        <time>2020-09-15T06:20:26Z</time>
      </trkpt>
      <trkpt lat="30.620531" lon="34.784554">
        <ele>814.0</ele>
        <time>2020-09-15T06:20:28Z</time>
      </trkpt>
      <trkpt lat="30.620496" lon="34.784426">
        <ele>814.4</ele>
        <time>2020-09-15T06:20:32Z</time>
      </trkpt>
      <trkpt lat="30.620363" lon="34.784225">
        <ele>814.8</ele>
        <time>2020-09-15T06:20:39Z</time>
      </trkpt>
      <trkpt lat="30.620311" lon="34.784185">
        <ele>815.0</ele>
        <time>2020-09-15T06:20:41Z</time>
      </trkpt>
      <trkpt lat="30.620203" lon="34.784115">
        <ele>815.0</ele>
        <time>2020-09-15T06:20:46Z</time>
      </trkpt>
      <trkpt lat="30.620144" lon="34.784109">
        <ele>815.2</ele>
        <time>2020-09-15T06:20:51Z</time>
      </trkpt>
      <trkpt lat="30.620142" lon="34.784110">
        <ele>815.2</ele>
        <time>2020-09-15T06:20:52Z</time>
      </trkpt>
      <trkpt lat="30.620138" lon="34.784102">
        <ele>815.8</ele>
        <time>2020-09-15T06:21:00Z</time>
      </trkpt>
      <trkpt lat="30.620144" lon="34.784099">
        <ele>815.8</ele>
        <time>2020-09-15T06:21:03Z</time>
      </trkpt>
      <trkpt lat="30.620150" lon="34.784099">
        <ele>815.4</ele>
        <time>2020-09-15T06:21:06Z</time>
      </trkpt>
      <trkpt lat="30.620151" lon="34.784106">
        <ele>815.4</ele>
        <time>2020-09-15T06:21:08Z</time>
      </trkpt>
      <trkpt lat="30.620159" lon="34.784121">
        <ele>815.4</ele>
        <time>2020-09-15T06:21:15Z</time>
      </trkpt>
      <trkpt lat="30.620159" lon="34.784123">
        <ele>815.4</ele>
        <time>2020-09-15T06:21:16Z</time>
      </trkpt>
      <trkpt lat="30.620147" lon="34.784116">
        <ele>815.2</ele>
        <time>2020-09-15T06:21:24Z</time>
      </trkpt>
      <trkpt lat="30.620127" lon="34.784102">
        <ele>815.0</ele>
        <time>2020-09-15T06:21:27Z</time>
      </trkpt>
      <trkpt lat="30.620085" lon="34.784096">
        <ele>815.2</ele>
        <time>2020-09-15T06:21:31Z</time>
      </trkpt>
      <trkpt lat="30.620058" lon="34.784098">
        <ele>815.0</ele>
        <time>2020-09-15T06:21:34Z</time>
      </trkpt>
      <trkpt lat="30.619998" lon="34.784099">
        <ele>814.8</ele>
        <time>2020-09-15T06:21:40Z</time>
      </trkpt>
      <trkpt lat="30.619977" lon="34.784093">
        <ele>815.0</ele>
        <time>2020-09-15T06:21:46Z</time>
      </trkpt>
      <trkpt lat="30.619975" lon="34.784094">
        <ele>815.0</ele>
        <time>2020-09-15T06:21:47Z</time>
      </trkpt>
      <trkpt lat="30.619972" lon="34.784097">
        <ele>815.0</ele>
        <time>2020-09-15T06:21:51Z</time>
      </trkpt>
      <trkpt lat="30.619972" lon="34.784098">
        <ele>814.8</ele>
        <time>2020-09-15T06:21:55Z</time>
      </trkpt>
      <trkpt lat="30.619972" lon="34.784098">
        <ele>814.8</ele>
        <time>2020-09-15T06:21:58Z</time>
      </trkpt>
      <trkpt lat="30.619978" lon="34.784095">
        <ele>814.4</ele>
        <time>2020-09-15T06:22:06Z</time>
      </trkpt>
      <trkpt lat="30.619983" lon="34.784100">
        <ele>814.8</ele>
        <time>2020-09-15T06:22:13Z</time>
      </trkpt>
      <trkpt lat="30.619984" lon="34.784098">
        <ele>815.2</ele>
        <time>2020-09-15T06:22:20Z</time>
      </trkpt>
      <trkpt lat="30.619979" lon="34.784096">
        <ele>815.4</ele>
        <time>2020-09-15T06:22:23Z</time>
      </trkpt>
      <trkpt lat="30.619989" lon="34.784092">
        <ele>815.0</ele>
        <time>2020-09-15T06:22:34Z</time>
      </trkpt>
      <trkpt lat="30.619993" lon="34.784092">
        <ele>814.8</ele>
        <time>2020-09-15T06:22:41Z</time>
      </trkpt>
      <trkpt lat="30.619994" lon="34.784092">
        <ele>814.8</ele>
        <time>2020-09-15T06:22:44Z</time>
      </trkpt>
      <trkpt lat="30.619993" lon="34.784092">
        <ele>814.8</ele>
        <time>2020-09-15T06:22:45Z</time>
      </trkpt>
      <trkpt lat="30.619993" lon="34.784093">
        <ele>814.8</ele>
        <time>2020-09-15T06:22:46Z</time>
      </trkpt>
      <trkpt lat="30.619992" lon="34.784094">
        <ele>814.8</ele>
        <time>2020-09-15T06:22:47Z</time>
      </trkpt>
      <trkpt lat="30.619992" lon="34.784094">
        <ele>814.8</ele>
        <time>2020-09-15T06:22:48Z</time>
      </trkpt>
      <trkpt lat="30.619991" lon="34.784094">
        <ele>815.0</ele>
        <time>2020-09-15T06:22:49Z</time>
      </trkpt>
      <trkpt lat="30.619991" lon="34.784095">
        <ele>815.0</ele>
        <time>2020-09-15T06:22:50Z</time>
      </trkpt>
      <trkpt lat="30.619989" lon="34.784097">
        <ele>815.0</ele>
        <time>2020-09-15T06:22:54Z</time>
      </trkpt>
      <trkpt lat="30.619984" lon="34.784095">
        <ele>814.6</ele>
        <time>2020-09-15T06:22:59Z</time>
      </trkpt>
      <trkpt lat="30.619981" lon="34.784095">
        <ele>814.6</ele>
        <time>2020-09-15T06:23:00Z</time>
      </trkpt>
      <trkpt lat="30.619972" lon="34.784097">
        <ele>814.6</ele>
        <time>2020-09-15T06:23:04Z</time>
      </trkpt>
      <trkpt lat="30.619966" lon="34.784093">
        <ele>814.8</ele>
        <time>2020-09-15T06:23:06Z</time>
      </trkpt>
      <trkpt lat="30.619953" lon="34.784090">
        <ele>815.0</ele>
        <time>2020-09-15T06:23:08Z</time>
      </trkpt>
      <trkpt lat="30.619924" lon="34.784093">
        <ele>815.0</ele>
        <time>2020-09-15T06:23:10Z</time>
      </trkpt>
      <trkpt lat="30.619843" lon="34.784122">
        <ele>815.4</ele>
        <time>2020-09-15T06:23:14Z</time>
      </trkpt>
      <trkpt lat="30.619784" lon="34.784151">
        <ele>815.8</ele>
        <time>2020-09-15T06:23:17Z</time>
      </trkpt>
      <trkpt lat="30.619764" lon="34.784162">
        <ele>816.2</ele>
        <time>2020-09-15T06:23:18Z</time>
      </trkpt>
      <trkpt lat="30.619717" lon="34.784176">
        <ele>817.0</ele>
        <time>2020-09-15T06:23:20Z</time>
      </trkpt>
      <trkpt lat="30.619654" lon="34.784172">
        <ele>817.0</ele>
        <time>2020-09-15T06:23:23Z</time>
      </trkpt>
      <trkpt lat="30.619610" lon="34.784161">
        <ele>817.0</ele>
        <time>2020-09-15T06:23:25Z</time>
      </trkpt>
      <trkpt lat="30.619564" lon="34.784145">
        <ele>817.0</ele>
        <time>2020-09-15T06:23:27Z</time>
      </trkpt>
      <trkpt lat="30.619495" lon="34.784114">
        <ele>817.4</ele>
        <time>2020-09-15T06:23:30Z</time>
      </trkpt>
      <trkpt lat="30.619400" lon="34.784074">
        <ele>817.6</ele>
        <time>2020-09-15T06:23:34Z</time>
      </trkpt>
      <trkpt lat="30.619321" lon="34.784075">
        <ele>817.6</ele>
        <time>2020-09-15T06:23:37Z</time>
      </trkpt>
      <trkpt lat="30.619118" lon="34.784111">
        <ele>818.2</ele>
        <time>2020-09-15T06:23:45Z</time>
      </trkpt>
      <trkpt lat="30.619078" lon="34.784137">
        <ele>818.4</ele>
        <time>2020-09-15T06:23:47Z</time>
      </trkpt>
      <trkpt lat="30.619010" lon="34.784207">
        <ele>819.4</ele>
        <time>2020-09-15T06:23:51Z</time>
      </trkpt>
      <trkpt lat="30.618981" lon="34.784251">
        <ele>819.8</ele>
        <time>2020-09-15T06:23:53Z</time>
      </trkpt>
      <trkpt lat="30.618954" lon="34.784323">
        <ele>820.4</ele>
        <time>2020-09-15T06:23:56Z</time>
      </trkpt>
      <trkpt lat="30.618946" lon="34.784352">
        <ele>820.6</ele>
        <time>2020-09-15T06:23:57Z</time>
      </trkpt>
      <trkpt lat="30.618938" lon="34.784379">
        <ele>820.6</ele>
        <time>2020-09-15T06:23:58Z</time>
      </trkpt>
      <trkpt lat="30.618929" lon="34.784433">
        <ele>820.8</ele>
        <time>2020-09-15T06:24:00Z</time>
      </trkpt>
      <trkpt lat="30.618908" lon="34.784568">
        <ele>821.0</ele>
        <time>2020-09-15T06:24:05Z</time>
      </trkpt>
      <trkpt lat="30.618899" lon="34.784629">
        <ele>821.6</ele>
        <time>2020-09-15T06:24:07Z</time>
      </trkpt>
      <trkpt lat="30.618868" lon="34.784741">
        <ele>822.2</ele>
        <time>2020-09-15T06:24:11Z</time>
      </trkpt>
      <trkpt lat="30.618742" lon="34.784950">
        <ele>822.6</ele>
        <time>2020-09-15T06:24:20Z</time>
      </trkpt>
      <trkpt lat="30.618616" lon="34.785078">
        <ele>823.6</ele>
        <time>2020-09-15T06:24:27Z</time>
      </trkpt>
      <trkpt lat="30.618594" lon="34.785089">
        <ele>824.0</ele>
        <time>2020-09-15T06:24:28Z</time>
      </trkpt>
      <trkpt lat="30.618447" lon="34.785109">
        <ele>824.2</ele>
        <time>2020-09-15T06:24:34Z</time>
      </trkpt>
      <trkpt lat="30.618305" lon="34.785057">
        <ele>825.0</ele>
        <time>2020-09-15T06:24:40Z</time>
      </trkpt>
      <trkpt lat="30.618285" lon="34.785044">
        <ele>825.0</ele>
        <time>2020-09-15T06:24:41Z</time>
      </trkpt>
      <trkpt lat="30.618112" lon="34.784996">
        <ele>825.8</ele>
        <time>2020-09-15T06:24:49Z</time>
      </trkpt>
      <trkpt lat="30.617999" lon="34.785041">
        <ele>826.0</ele>
        <time>2020-09-15T06:24:55Z</time>
      </trkpt>
      <trkpt lat="30.617965" lon="34.785072">
        <ele>826.2</ele>
        <time>2020-09-15T06:24:57Z</time>
      </trkpt>
      <trkpt lat="30.617892" lon="34.785138">
        <ele>827.0</ele>
        <time>2020-09-15T06:25:01Z</time>
      </trkpt>
      <trkpt lat="30.617843" lon="34.785183">
        <ele>827.4</ele>
        <time>2020-09-15T06:25:04Z</time>
      </trkpt>
      <trkpt lat="30.617802" lon="34.785195">
        <ele>827.4</ele>
        <time>2020-09-15T06:25:06Z</time>
      </trkpt>
      <trkpt lat="30.617712" lon="34.785201">
        <ele>827.2</ele>
        <time>2020-09-15T06:25:10Z</time>
      </trkpt>
      <trkpt lat="30.617559" lon="34.785165">
        <ele>828.0</ele>
        <time>2020-09-15T06:25:17Z</time>
      </trkpt>
      <trkpt lat="30.617540" lon="34.785153">
        <ele>828.2</ele>
        <time>2020-09-15T06:25:18Z</time>
      </trkpt>
      <trkpt lat="30.617383" lon="34.785052">
        <ele>828.2</ele>
        <time>2020-09-15T06:25:26Z</time>
      </trkpt>
      <trkpt lat="30.617362" lon="34.785047">
        <ele>828.4</ele>
        <time>2020-09-15T06:25:27Z</time>
      </trkpt>
      <trkpt lat="30.617341" lon="34.785043">
        <ele>828.4</ele>
        <time>2020-09-15T06:25:28Z</time>
      </trkpt>
      <trkpt lat="30.617211" lon="34.785051">
        <ele>829.6</ele>
        <time>2020-09-15T06:25:34Z</time>
      </trkpt>
      <trkpt lat="30.617050" lon="34.785148">
        <ele>830.0</ele>
        <time>2020-09-15T06:25:42Z</time>
      </trkpt>
      <trkpt lat="30.616950" lon="34.785256">
        <ele>830.6</ele>
        <time>2020-09-15T06:25:48Z</time>
      </trkpt>
      <trkpt lat="30.616928" lon="34.785272">
        <ele>830.8</ele>
        <time>2020-09-15T06:25:49Z</time>
      </trkpt>
      <trkpt lat="30.616779" lon="34.785341">
        <ele>830.8</ele>
        <time>2020-09-15T06:25:56Z</time>
      </trkpt>
      <trkpt lat="30.616619" lon="34.785327">
        <ele>831.6</ele>
        <time>2020-09-15T06:26:03Z</time>
      </trkpt>
      <trkpt lat="30.616597" lon="34.785322">
        <ele>831.8</ele>
        <time>2020-09-15T06:26:04Z</time>
      </trkpt>
      <trkpt lat="30.616439" lon="34.785331">
        <ele>832.4</ele>
        <time>2020-09-15T06:26:11Z</time>
      </trkpt>
      <trkpt lat="30.616291" lon="34.785439">
        <ele>832.6</ele>
        <time>2020-09-15T06:26:19Z</time>
      </trkpt>
      <trkpt lat="30.616274" lon="34.785457">
        <ele>832.8</ele>
        <time>2020-09-15T06:26:20Z</time>
      </trkpt>
      <trkpt lat="30.616168" lon="34.785631">
        <ele>833.4</ele>
        <time>2020-09-15T06:26:28Z</time>
      </trkpt>
      <trkpt lat="30.616066" lon="34.785735">
        <ele>834.0</ele>
        <time>2020-09-15T06:26:34Z</time>
      </trkpt>
      <trkpt lat="30.616048" lon="34.785746">
        <ele>834.4</ele>
        <time>2020-09-15T06:26:35Z</time>
      </trkpt>
      <trkpt lat="30.615900" lon="34.785808">
        <ele>834.4</ele>
        <time>2020-09-15T06:26:42Z</time>
      </trkpt>
      <trkpt lat="30.615766" lon="34.785865">
        <ele>834.0</ele>
        <time>2020-09-15T06:26:48Z</time>
      </trkpt>
      <trkpt lat="30.615632" lon="34.785967">
        <ele>833.8</ele>
        <time>2020-09-15T06:26:55Z</time>
      </trkpt>
      <trkpt lat="30.615606" lon="34.785978">
        <ele>834.0</ele>
        <time>2020-09-15T06:26:56Z</time>
      </trkpt>
      <trkpt lat="30.615481" lon="34.785997">
        <ele>833.8</ele>
        <time>2020-09-15T06:27:00Z</time>
      </trkpt>
      <trkpt lat="30.615407" lon="34.785981">
        <ele>833.4</ele>
        <time>2020-09-15T06:27:02Z</time>
      </trkpt>
      <trkpt lat="30.615294" lon="34.785960">
        <ele>832.8</ele>
        <time>2020-09-15T06:27:05Z</time>
      </trkpt>
      <trkpt lat="30.615223" lon="34.785971">
        <ele>833.0</ele>
        <time>2020-09-15T06:27:07Z</time>
      </trkpt>
      <trkpt lat="30.615153" lon="34.786024">
        <ele>833.0</ele>
        <time>2020-09-15T06:27:10Z</time>
      </trkpt>
      <trkpt lat="30.615114" lon="34.786073">
        <ele>833.2</ele>
        <time>2020-09-15T06:27:12Z</time>
      </trkpt>
      <trkpt lat="30.615030" lon="34.786217">
        <ele>834.0</ele>
        <time>2020-09-15T06:27:17Z</time>
      </trkpt>
      <trkpt lat="30.615013" lon="34.786241">
        <ele>834.4</ele>
        <time>2020-09-15T06:27:18Z</time>
      </trkpt>
      <trkpt lat="30.614996" lon="34.786262">
        <ele>834.4</ele>
        <time>2020-09-15T06:27:19Z</time>
      </trkpt>
      <trkpt lat="30.614928" lon="34.786322">
        <ele>834.4</ele>
        <time>2020-09-15T06:27:23Z</time>
      </trkpt>
      <trkpt lat="30.614887" lon="34.786339">
        <ele>834.0</ele>
        <time>2020-09-15T06:27:25Z</time>
      </trkpt>
      <trkpt lat="30.614783" lon="34.786340">
        <ele>833.8</ele>
        <time>2020-09-15T06:27:30Z</time>
      </trkpt>
      <trkpt lat="30.614713" lon="34.786319">
        <ele>833.0</ele>
        <time>2020-09-15T06:27:35Z</time>
      </trkpt>
      <trkpt lat="30.614707" lon="34.786317">
        <ele>833.2</ele>
        <time>2020-09-15T06:27:41Z</time>
      </trkpt>
      <trkpt lat="30.614712" lon="34.786317">
        <ele>832.6</ele>
        <time>2020-09-15T06:27:49Z</time>
      </trkpt>
      <trkpt lat="30.614717" lon="34.786342">
        <ele>833.0</ele>
        <time>2020-09-15T06:27:58Z</time>
      </trkpt>
      <trkpt lat="30.614730" lon="34.786345">
        <ele>832.6</ele>
        <time>2020-09-15T06:28:07Z</time>
      </trkpt>
      <trkpt lat="30.614730" lon="34.786350">
        <ele>832.6</ele>
        <time>2020-09-15T06:28:15Z</time>
      </trkpt>
      <trkpt lat="30.614744" lon="34.786349">
        <ele>832.2</ele>
        <time>2020-09-15T06:28:23Z</time>
      </trkpt>
      <trkpt lat="30.614734" lon="34.786325">
        <ele>832.4</ele>
        <time>2020-09-15T06:28:29Z</time>
      </trkpt>
      <trkpt lat="30.614727" lon="34.786322">
        <ele>832.6</ele>
        <time>2020-09-15T06:28:31Z</time>
      </trkpt>
      <trkpt lat="30.614713" lon="34.786299">
        <ele>832.8</ele>
        <time>2020-09-15T06:28:35Z</time>
      </trkpt>
      <trkpt lat="30.614679" lon="34.786282">
        <ele>832.8</ele>
        <time>2020-09-15T06:28:38Z</time>
      </trkpt>
      <trkpt lat="30.614653" lon="34.786267">
        <ele>832.6</ele>
        <time>2020-09-15T06:28:40Z</time>
      </trkpt>
      <trkpt lat="30.614547" lon="34.786180">
        <ele>832.4</ele>
        <time>2020-09-15T06:28:45Z</time>
      </trkpt>
      <trkpt lat="30.614456" lon="34.785972">
        <ele>832.0</ele>
        <time>2020-09-15T06:28:50Z</time>
      </trkpt>
      <trkpt lat="30.614432" lon="34.785924">
        <ele>831.8</ele>
        <time>2020-09-15T06:28:51Z</time>
      </trkpt>
      <trkpt lat="30.614371" lon="34.785835">
        <ele>831.4</ele>
        <time>2020-09-15T06:28:53Z</time>
      </trkpt>
      <trkpt lat="30.614335" lon="34.785808">
        <ele>831.4</ele>
        <time>2020-09-15T06:28:54Z</time>
      </trkpt>
      <trkpt lat="30.614217" lon="34.785792">
        <ele>831.2</ele>
        <time>2020-09-15T06:28:58Z</time>
      </trkpt>
      <trkpt lat="30.614037" lon="34.785772">
        <ele>831.2</ele>
        <time>2020-09-15T06:29:04Z</time>
      </trkpt>
      <trkpt lat="30.613895" lon="34.785722">
        <ele>831.0</ele>
        <time>2020-09-15T06:29:08Z</time>
      </trkpt>
      <trkpt lat="30.613859" lon="34.785706">
        <ele>831.2</ele>
        <time>2020-09-15T06:29:09Z</time>
      </trkpt>
      <trkpt lat="30.613827" lon="34.785690">
        <ele>831.2</ele>
        <time>2020-09-15T06:29:10Z</time>
      </trkpt>
      <trkpt lat="30.613770" lon="34.785655">
        <ele>831.0</ele>
        <time>2020-09-15T06:29:12Z</time>
      </trkpt>
      <trkpt lat="30.613718" lon="34.785617">
        <ele>831.0</ele>
        <time>2020-09-15T06:29:14Z</time>
      </trkpt>
      <trkpt lat="30.613673" lon="34.785570">
        <ele>831.0</ele>
        <time>2020-09-15T06:29:16Z</time>
      </trkpt>
      <trkpt lat="30.613593" lon="34.785435">
        <ele>830.8</ele>
        <time>2020-09-15T06:29:20Z</time>
      </trkpt>
      <trkpt lat="30.613574" lon="34.785397">
        <ele>830.8</ele>
        <time>2020-09-15T06:29:21Z</time>
      </trkpt>
      <trkpt lat="30.613551" lon="34.785361">
        <ele>830.8</ele>
        <time>2020-09-15T06:29:22Z</time>
      </trkpt>
      <trkpt lat="30.613430" lon="34.785233">
        <ele>830.2</ele>
        <time>2020-09-15T06:29:26Z</time>
      </trkpt>
      <trkpt lat="30.613366" lon="34.785163">
        <ele>830.0</ele>
        <time>2020-09-15T06:29:28Z</time>
      </trkpt>
      <trkpt lat="30.613190" lon="34.785000">
        <ele>830.4</ele>
        <time>2020-09-15T06:29:34Z</time>
      </trkpt>
      <trkpt lat="30.613029" lon="34.784985">
        <ele>830.8</ele>
        <time>2020-09-15T06:29:39Z</time>
      </trkpt>
      <trkpt lat="30.612767" lon="34.784959">
        <ele>831.0</ele>
        <time>2020-09-15T06:29:46Z</time>
      </trkpt>
      <trkpt lat="30.612576" lon="34.784975">
        <ele>831.6</ele>
        <time>2020-09-15T06:29:51Z</time>
      </trkpt>
      <trkpt lat="30.612540" lon="34.784985">
        <ele>831.8</ele>
        <time>2020-09-15T06:29:52Z</time>
      </trkpt>
      <trkpt lat="30.612435" lon="34.785023">
        <ele>832.0</ele>
        <time>2020-09-15T06:29:55Z</time>
      </trkpt>
      <trkpt lat="30.612314" lon="34.785048">
        <ele>832.2</ele>
        <time>2020-09-15T06:29:58Z</time>
      </trkpt>
      <trkpt lat="30.612136" lon="34.785089">
        <ele>833.0</ele>
        <time>2020-09-15T06:30:03Z</time>
      </trkpt>
      <trkpt lat="30.612077" lon="34.785122">
        <ele>833.8</ele>
        <time>2020-09-15T06:30:05Z</time>
      </trkpt>
      <trkpt lat="30.612050" lon="34.785140">
        <ele>834.4</ele>
        <time>2020-09-15T06:30:06Z</time>
      </trkpt>
      <trkpt lat="30.611947" lon="34.785225">
        <ele>835.4</ele>
        <time>2020-09-15T06:30:10Z</time>
      </trkpt>
      <trkpt lat="30.611808" lon="34.785383">
        <ele>835.4</ele>
        <time>2020-09-15T06:30:16Z</time>
      </trkpt>
      <trkpt lat="30.611604" lon="34.785473">
        <ele>836.4</ele>
        <time>2020-09-15T06:30:23Z</time>
      </trkpt>
      <trkpt lat="30.611437" lon="34.785568">
        <ele>837.2</ele>
        <time>2020-09-15T06:30:29Z</time>
      </trkpt>
      <trkpt lat="30.611396" lon="34.785644">
        <ele>837.6</ele>
        <time>2020-09-15T06:30:31Z</time>
      </trkpt>
      <trkpt lat="30.611380" lon="34.785751">
        <ele>838.2</ele>
        <time>2020-09-15T06:30:34Z</time>
      </trkpt>
      <trkpt lat="30.611412" lon="34.785875">
        <ele>838.4</ele>
        <time>2020-09-15T06:30:38Z</time>
      </trkpt>
      <trkpt lat="30.611445" lon="34.785927">
        <ele>838.4</ele>
        <time>2020-09-15T06:30:40Z</time>
      </trkpt>
      <trkpt lat="30.611460" lon="34.785951">
        <ele>838.4</ele>
        <time>2020-09-15T06:30:41Z</time>
      </trkpt>
      <trkpt lat="30.611487" lon="34.785998">
        <ele>838.6</ele>
        <time>2020-09-15T06:30:43Z</time>
      </trkpt>
      <trkpt lat="30.611514" lon="34.786118">
        <ele>839.0</ele>
        <time>2020-09-15T06:30:47Z</time>
      </trkpt>
      <trkpt lat="30.611453" lon="34.786308">
        <ele>839.4</ele>
        <time>2020-09-15T06:30:53Z</time>
      </trkpt>
      <trkpt lat="30.611433" lon="34.786330">
        <ele>839.6</ele>
        <time>2020-09-15T06:30:54Z</time>
      </trkpt>
      <trkpt lat="30.611306" lon="34.786399">
        <ele>840.8</ele>
        <time>2020-09-15T06:30:59Z</time>
      </trkpt>
      <trkpt lat="30.611122" lon="34.786456">
        <ele>840.8</ele>
        <time>2020-09-15T06:31:05Z</time>
      </trkpt>
      <trkpt lat="30.611092" lon="34.786470">
        <ele>840.4</ele>
        <time>2020-09-15T06:31:06Z</time>
      </trkpt>
      <trkpt lat="30.611009" lon="34.786503">
        <ele>840.2</ele>
        <time>2020-09-15T06:31:08Z</time>
      </trkpt>
      <trkpt lat="30.610912" lon="34.786536">
        <ele>840.0</ele>
        <time>2020-09-15T06:31:10Z</time>
      </trkpt>
      <trkpt lat="30.610859" lon="34.786559">
        <ele>839.6</ele>
        <time>2020-09-15T06:31:11Z</time>
      </trkpt>
      <trkpt lat="30.610718" lon="34.786637">
        <ele>839.2</ele>
        <time>2020-09-15T06:31:14Z</time>
      </trkpt>
      <trkpt lat="30.610691" lon="34.786668">
        <ele>839.4</ele>
        <time>2020-09-15T06:31:15Z</time>
      </trkpt>
      <trkpt lat="30.610612" lon="34.786796">
        <ele>839.6</ele>
        <time>2020-09-15T06:31:19Z</time>
      </trkpt>
      <trkpt lat="30.610569" lon="34.786850">
        <ele>840.0</ele>
        <time>2020-09-15T06:31:21Z</time>
      </trkpt>
      <trkpt lat="30.610513" lon="34.786920">
        <ele>840.8</ele>
        <time>2020-09-15T06:31:24Z</time>
      </trkpt>
      <trkpt lat="30.610443" lon="34.786981">
        <ele>841.6</ele>
        <time>2020-09-15T06:31:27Z</time>
      </trkpt>
      <trkpt lat="30.610419" lon="34.786986">
        <ele>841.8</ele>
        <time>2020-09-15T06:31:28Z</time>
      </trkpt>
      <trkpt lat="30.610355" lon="34.786939">
        <ele>842.4</ele>
        <time>2020-09-15T06:31:31Z</time>
      </trkpt>
      <trkpt lat="30.610314" lon="34.786882">
        <ele>842.6</ele>
        <time>2020-09-15T06:31:33Z</time>
      </trkpt>
      <trkpt lat="30.610269" lon="34.786829">
        <ele>842.8</ele>
        <time>2020-09-15T06:31:35Z</time>
      </trkpt>
      <trkpt lat="30.610204" lon="34.786743">
        <ele>842.8</ele>
        <time>2020-09-15T06:31:38Z</time>
      </trkpt>
      <trkpt lat="30.610152" lon="34.786654">
        <ele>843.2</ele>
        <time>2020-09-15T06:31:41Z</time>
      </trkpt>
      <trkpt lat="30.610096" lon="34.786582">
        <ele>843.8</ele>
        <time>2020-09-15T06:31:44Z</time>
      </trkpt>
      <trkpt lat="30.610076" lon="34.786559">
        <ele>844.0</ele>
        <time>2020-09-15T06:31:45Z</time>
      </trkpt>
      <trkpt lat="30.609903" lon="34.786443">
        <ele>844.2</ele>
        <time>2020-09-15T06:31:52Z</time>
      </trkpt>
      <trkpt lat="30.609769" lon="34.786352">
        <ele>845.0</ele>
        <time>2020-09-15T06:31:57Z</time>
      </trkpt>
      <trkpt lat="30.609722" lon="34.786310">
        <ele>845.2</ele>
        <time>2020-09-15T06:31:59Z</time>
      </trkpt>
      <trkpt lat="30.609555" lon="34.786152">
        <ele>845.6</ele>
        <time>2020-09-15T06:32:06Z</time>
      </trkpt>
      <trkpt lat="30.609463" lon="34.786083">
        <ele>846.0</ele>
        <time>2020-09-15T06:32:09Z</time>
      </trkpt>
      <trkpt lat="30.609339" lon="34.785972">
        <ele>846.6</ele>
        <time>2020-09-15T06:32:13Z</time>
      </trkpt>
      <trkpt lat="30.609162" lon="34.785747">
        <ele>846.6</ele>
        <time>2020-09-15T06:32:21Z</time>
      </trkpt>
      <trkpt lat="30.609098" lon="34.785660">
        <ele>847.0</ele>
        <time>2020-09-15T06:32:24Z</time>
      </trkpt>
      <trkpt lat="30.609035" lon="34.785512">
        <ele>847.4</ele>
        <time>2020-09-15T06:32:27Z</time>
      </trkpt>
      <trkpt lat="30.608986" lon="34.785312">
        <ele>847.8</ele>
        <time>2020-09-15T06:32:33Z</time>
      </trkpt>
      <trkpt lat="30.608859" lon="34.784981">
        <ele>848.0</ele>
        <time>2020-09-15T06:32:41Z</time>
      </trkpt>
      <trkpt lat="30.608859" lon="34.784981">
        <ele>848.2</ele>
        <time>2020-09-15T06:32:42Z</time>
      </trkpt>
      <trkpt lat="30.608793" lon="34.784858">
        <ele>847.0</ele>
        <time>2020-09-15T06:32:46Z</time>
      </trkpt>
      <trkpt lat="30.608752" lon="34.784782">
        <ele>846.4</ele>
        <time>2020-09-15T06:32:49Z</time>
      </trkpt>
      <trkpt lat="30.608675" lon="34.784722">
        <ele>846.0</ele>
        <time>2020-09-15T06:32:52Z</time>
      </trkpt>
      <trkpt lat="30.608615" lon="34.784693">
        <ele>846.0</ele>
        <time>2020-09-15T06:32:54Z</time>
      </trkpt>
      <trkpt lat="30.608402" lon="34.784647">
        <ele>847.0</ele>
        <time>2020-09-15T06:33:00Z</time>
      </trkpt>
      <trkpt lat="30.608338" lon="34.784653">
        <ele>847.2</ele>
        <time>2020-09-15T06:33:03Z</time>
      </trkpt>
      <trkpt lat="30.608170" lon="34.784667">
        <ele>848.2</ele>
        <time>2020-09-15T06:33:08Z</time>
      </trkpt>
      <trkpt lat="30.608002" lon="34.784660">
        <ele>849.6</ele>
        <time>2020-09-15T06:33:13Z</time>
      </trkpt>
      <trkpt lat="30.607939" lon="34.784648">
        <ele>850.2</ele>
        <time>2020-09-15T06:33:15Z</time>
      </trkpt>
      <trkpt lat="30.607767" lon="34.784610">
        <ele>850.6</ele>
        <time>2020-09-15T06:33:21Z</time>
      </trkpt>
      <trkpt lat="30.607736" lon="34.784608">
        <ele>850.6</ele>
        <time>2020-09-15T06:33:22Z</time>
      </trkpt>
      <trkpt lat="30.607548" lon="34.784647">
        <ele>850.8</ele>
        <time>2020-09-15T06:33:28Z</time>
      </trkpt>
      <trkpt lat="30.607330" lon="34.784683">
        <ele>851.0</ele>
        <time>2020-09-15T06:33:35Z</time>
      </trkpt>
      <trkpt lat="30.607216" lon="34.784660">
        <ele>851.8</ele>
        <time>2020-09-15T06:33:39Z</time>
      </trkpt>
      <trkpt lat="30.607129" lon="34.784623">
        <ele>852.8</ele>
        <time>2020-09-15T06:33:42Z</time>
      </trkpt>
      <trkpt lat="30.607099" lon="34.784606">
        <ele>853.2</ele>
        <time>2020-09-15T06:33:43Z</time>
      </trkpt>
      <trkpt lat="30.606932" lon="34.784564">
        <ele>853.8</ele>
        <time>2020-09-15T06:33:48Z</time>
      </trkpt>
      <trkpt lat="30.606899" lon="34.784566">
        <ele>854.0</ele>
        <time>2020-09-15T06:33:49Z</time>
      </trkpt>
      <trkpt lat="30.606708" lon="34.784585">
        <ele>853.6</ele>
        <time>2020-09-15T06:33:55Z</time>
      </trkpt>
      <trkpt lat="30.606547" lon="34.784496">
        <ele>854.2</ele>
        <time>2020-09-15T06:34:01Z</time>
      </trkpt>
      <trkpt lat="30.606458" lon="34.784330">
        <ele>854.0</ele>
        <time>2020-09-15T06:34:06Z</time>
      </trkpt>
      <trkpt lat="30.606414" lon="34.784222">
        <ele>853.8</ele>
        <time>2020-09-15T06:34:09Z</time>
      </trkpt>
      <trkpt lat="30.606380" lon="34.784134">
        <ele>853.4</ele>
        <time>2020-09-15T06:34:11Z</time>
      </trkpt>
      <trkpt lat="30.606342" lon="34.783990">
        <ele>853.2</ele>
        <time>2020-09-15T06:34:14Z</time>
      </trkpt>
      <trkpt lat="30.606276" lon="34.783833">
        <ele>853.6</ele>
        <time>2020-09-15T06:34:17Z</time>
      </trkpt>
      <trkpt lat="30.606087" lon="34.783504">
        <ele>853.0</ele>
        <time>2020-09-15T06:34:27Z</time>
      </trkpt>
      <trkpt lat="30.605996" lon="34.783393">
        <ele>852.8</ele>
        <time>2020-09-15T06:34:31Z</time>
      </trkpt>
      <trkpt lat="30.605958" lon="34.783330">
        <ele>852.8</ele>
        <time>2020-09-15T06:34:33Z</time>
      </trkpt>
      <trkpt lat="30.605798" lon="34.783071">
        <ele>852.6</ele>
        <time>2020-09-15T06:34:40Z</time>
      </trkpt>
      <trkpt lat="30.605791" lon="34.782929">
        <ele>852.0</ele>
        <time>2020-09-15T06:34:43Z</time>
      </trkpt>
      <trkpt lat="30.605800" lon="34.782887">
        <ele>851.6</ele>
        <time>2020-09-15T06:34:44Z</time>
      </trkpt>
      <trkpt lat="30.605797" lon="34.782794">
        <ele>850.8</ele>
        <time>2020-09-15T06:34:47Z</time>
      </trkpt>
      <trkpt lat="30.605783" lon="34.782768">
        <ele>850.2</ele>
        <time>2020-09-15T06:34:48Z</time>
      </trkpt>
      <trkpt lat="30.605736" lon="34.782729">
        <ele>849.8</ele>
        <time>2020-09-15T06:34:50Z</time>
      </trkpt>
      <trkpt lat="30.605700" lon="34.782711">
        <ele>849.4</ele>
        <time>2020-09-15T06:34:51Z</time>
      </trkpt>
      <trkpt lat="30.605663" lon="34.782701">
        <ele>849.0</ele>
        <time>2020-09-15T06:34:52Z</time>
      </trkpt>
      <trkpt lat="30.605618" lon="34.782699">
        <ele>848.6</ele>
        <time>2020-09-15T06:34:53Z</time>
      </trkpt>
      <trkpt lat="30.605506" lon="34.782710">
        <ele>848.4</ele>
        <time>2020-09-15T06:34:56Z</time>
      </trkpt>
      <trkpt lat="30.605399" lon="34.782773">
        <ele>849.0</ele>
        <time>2020-09-15T06:35:01Z</time>
      </trkpt>
      <trkpt lat="30.605226" lon="34.782874">
        <ele>849.2</ele>
        <time>2020-09-15T06:35:08Z</time>
      </trkpt>
      <trkpt lat="30.605060" lon="34.782872">
        <ele>849.6</ele>
        <time>2020-09-15T06:35:13Z</time>
      </trkpt>
      <trkpt lat="30.605028" lon="34.782866">
        <ele>849.8</ele>
        <time>2020-09-15T06:35:14Z</time>
      </trkpt>
      <trkpt lat="30.604861" lon="34.782820">
        <ele>850.4</ele>
        <time>2020-09-15T06:35:19Z</time>
      </trkpt>
      <trkpt lat="30.604828" lon="34.782810">
        <ele>850.8</ele>
        <time>2020-09-15T06:35:20Z</time>
      </trkpt>
      <trkpt lat="30.604757" lon="34.782788">
        <ele>851.0</ele>
        <time>2020-09-15T06:35:22Z</time>
      </trkpt>
      <trkpt lat="30.604634" lon="34.782715">
        <ele>851.2</ele>
        <time>2020-09-15T06:35:26Z</time>
      </trkpt>
      <trkpt lat="30.604582" lon="34.782657">
        <ele>851.2</ele>
        <time>2020-09-15T06:35:28Z</time>
      </trkpt>
      <trkpt lat="30.604531" lon="34.782588">
        <ele>851.2</ele>
        <time>2020-09-15T06:35:30Z</time>
      </trkpt>
      <trkpt lat="30.604480" lon="34.782460">
        <ele>851.0</ele>
        <time>2020-09-15T06:35:33Z</time>
      </trkpt>
      <trkpt lat="30.604365" lon="34.782296">
        <ele>849.8</ele>
        <time>2020-09-15T06:35:38Z</time>
      </trkpt>
      <trkpt lat="30.604325" lon="34.782303">
        <ele>849.2</ele>
        <time>2020-09-15T06:35:39Z</time>
      </trkpt>
      <trkpt lat="30.604254" lon="34.782341">
        <ele>848.6</ele>
        <time>2020-09-15T06:35:41Z</time>
      </trkpt>
      <trkpt lat="30.604101" lon="34.782473">
        <ele>848.8</ele>
        <time>2020-09-15T06:35:46Z</time>
      </trkpt>
      <trkpt lat="30.603931" lon="34.782492">
        <ele>849.0</ele>
        <time>2020-09-15T06:35:51Z</time>
      </trkpt>
      <trkpt lat="30.603690" lon="34.782479">
        <ele>849.0</ele>
        <time>2020-09-15T06:35:57Z</time>
      </trkpt>
      <trkpt lat="30.603437" lon="34.782491">
        <ele>849.4</ele>
        <time>2020-09-15T06:36:04Z</time>
      </trkpt>
      <trkpt lat="30.603248" lon="34.782435">
        <ele>848.8</ele>
        <time>2020-09-15T06:36:09Z</time>
      </trkpt>
      <trkpt lat="30.603052" lon="34.782293">
        <ele>849.2</ele>
        <time>2020-09-15T06:36:16Z</time>
      </trkpt>
      <trkpt lat="30.602932" lon="34.782193">
        <ele>850.0</ele>
        <time>2020-09-15T06:36:21Z</time>
      </trkpt>
      <trkpt lat="30.602920" lon="34.782120">
        <ele>850.2</ele>
        <time>2020-09-15T06:36:23Z</time>
      </trkpt>
      <trkpt lat="30.602923" lon="34.782054">
        <ele>850.6</ele>
        <time>2020-09-15T06:36:25Z</time>
      </trkpt>
      <trkpt lat="30.602871" lon="34.781955">
        <ele>850.2</ele>
        <time>2020-09-15T06:36:30Z</time>
      </trkpt>
      <trkpt lat="30.602849" lon="34.781952">
        <ele>850.0</ele>
        <time>2020-09-15T06:36:31Z</time>
      </trkpt>
      <trkpt lat="30.602780" lon="34.781970">
        <ele>849.4</ele>
        <time>2020-09-15T06:36:33Z</time>
      </trkpt>
      <trkpt lat="30.602736" lon="34.781991">
        <ele>849.0</ele>
        <time>2020-09-15T06:36:34Z</time>
      </trkpt>
      <trkpt lat="30.602685" lon="34.782017">
        <ele>848.8</ele>
        <time>2020-09-15T06:36:35Z</time>
      </trkpt>
      <trkpt lat="30.602623" lon="34.782098">
        <ele>847.6</ele>
        <time>2020-09-15T06:36:37Z</time>
      </trkpt>
      <trkpt lat="30.602569" lon="34.782210">
        <ele>846.8</ele>
        <time>2020-09-15T06:36:39Z</time>
      </trkpt>
      <trkpt lat="30.602535" lon="34.782256">
        <ele>846.4</ele>
        <time>2020-09-15T06:36:40Z</time>
      </trkpt>
      <trkpt lat="30.602497" lon="34.782298">
        <ele>846.0</ele>
        <time>2020-09-15T06:36:41Z</time>
      </trkpt>
      <trkpt lat="30.602412" lon="34.782371">
        <ele>845.4</ele>
        <time>2020-09-15T06:36:43Z</time>
      </trkpt>
      <trkpt lat="30.602377" lon="34.782412">
        <ele>845.0</ele>
        <time>2020-09-15T06:36:44Z</time>
      </trkpt>
      <trkpt lat="30.602348" lon="34.782455">
        <ele>844.8</ele>
        <time>2020-09-15T06:36:45Z</time>
      </trkpt>
      <trkpt lat="30.602317" lon="34.782498">
        <ele>844.4</ele>
        <time>2020-09-15T06:36:46Z</time>
      </trkpt>
      <trkpt lat="30.602241" lon="34.782581">
        <ele>844.4</ele>
        <time>2020-09-15T06:36:48Z</time>
      </trkpt>
      <trkpt lat="30.602196" lon="34.782614">
        <ele>844.4</ele>
        <time>2020-09-15T06:36:49Z</time>
      </trkpt>
      <trkpt lat="30.602051" lon="34.782714">
        <ele>844.6</ele>
        <time>2020-09-15T06:36:53Z</time>
      </trkpt>
      <trkpt lat="30.601984" lon="34.782843">
        <ele>845.6</ele>
        <time>2020-09-15T06:36:58Z</time>
      </trkpt>
      <trkpt lat="30.601983" lon="34.782980">
        <ele>846.2</ele>
        <time>2020-09-15T06:37:05Z</time>
      </trkpt>
      <trkpt lat="30.602004" lon="34.782988">
        <ele>846.4</ele>
        <time>2020-09-15T06:37:12Z</time>
      </trkpt>
      <trkpt lat="30.601983" lon="34.782994">
        <ele>846.2</ele>
        <time>2020-09-15T06:37:15Z</time>
      </trkpt>
      <trkpt lat="30.601934" lon="34.782984">
        <ele>846.4</ele>
        <time>2020-09-15T06:37:19Z</time>
      </trkpt>
      <trkpt lat="30.601926" lon="34.782926">
        <ele>846.8</ele>
        <time>2020-09-15T06:37:25Z</time>
      </trkpt>
      <trkpt lat="30.601918" lon="34.782908">
        <ele>846.4</ele>
        <time>2020-09-15T06:37:31Z</time>
      </trkpt>
      <trkpt lat="30.601919" lon="34.782893">
        <ele>846.0</ele>
        <time>2020-09-15T06:37:40Z</time>
      </trkpt>
      <trkpt lat="30.601917" lon="34.782900">
        <ele>845.8</ele>
        <time>2020-09-15T06:37:51Z</time>
      </trkpt>
      <trkpt lat="30.601936" lon="34.782904">
        <ele>846.4</ele>
        <time>2020-09-15T06:37:57Z</time>
      </trkpt>
      <trkpt lat="30.601949" lon="34.782895">
        <ele>846.4</ele>
        <time>2020-09-15T06:37:59Z</time>
      </trkpt>
      <trkpt lat="30.601957" lon="34.782891">
        <ele>846.4</ele>
        <time>2020-09-15T06:38:00Z</time>
      </trkpt>
      <trkpt lat="30.601975" lon="34.782905">
        <ele>846.2</ele>
        <time>2020-09-15T06:38:03Z</time>
      </trkpt>
      <trkpt lat="30.601980" lon="34.782917">
        <ele>846.2</ele>
        <time>2020-09-15T06:38:05Z</time>
      </trkpt>
      <trkpt lat="30.601987" lon="34.782922">
        <ele>846.2</ele>
        <time>2020-09-15T06:38:06Z</time>
      </trkpt>
      <trkpt lat="30.602002" lon="34.782949">
        <ele>846.2</ele>
        <time>2020-09-15T06:38:10Z</time>
      </trkpt>
      <trkpt lat="30.601998" lon="34.782960">
        <ele>846.2</ele>
        <time>2020-09-15T06:38:12Z</time>
      </trkpt>
      <trkpt lat="30.602009" lon="34.782965">
        <ele>845.8</ele>
        <time>2020-09-15T06:38:18Z</time>
      </trkpt>
      <trkpt lat="30.601989" lon="34.782991">
        <ele>846.2</ele>
        <time>2020-09-15T06:38:24Z</time>
      </trkpt>
      <trkpt lat="30.601974" lon="34.782989">
        <ele>846.2</ele>
        <time>2020-09-15T06:38:26Z</time>
      </trkpt>
      <trkpt lat="30.601969" lon="34.782990">
        <ele>846.2</ele>
        <time>2020-09-15T06:38:27Z</time>
      </trkpt>
      <trkpt lat="30.601960" lon="34.782994">
        <ele>846.2</ele>
        <time>2020-09-15T06:38:28Z</time>
      </trkpt>
      <trkpt lat="30.601924" lon="34.783003">
        <ele>846.4</ele>
        <time>2020-09-15T06:38:34Z</time>
      </trkpt>
      <trkpt lat="30.601932" lon="34.783003">
        <ele>846.2</ele>
        <time>2020-09-15T06:38:37Z</time>
      </trkpt>
      <trkpt lat="30.601932" lon="34.783003">
        <ele>846.2</ele>
        <time>2020-09-15T06:38:38Z</time>
      </trkpt>
      <trkpt lat="30.601931" lon="34.783003">
        <ele>846.0</ele>
        <time>2020-09-15T06:38:39Z</time>
      </trkpt>
      <trkpt lat="30.601931" lon="34.783002">
        <ele>846.2</ele>
        <time>2020-09-15T06:38:43Z</time>
      </trkpt>
      <trkpt lat="30.601946" lon="34.782991">
        <ele>846.6</ele>
        <time>2020-09-15T06:38:51Z</time>
      </trkpt>
      <trkpt lat="30.601950" lon="34.782987">
        <ele>845.6</ele>
        <time>2020-09-15T06:38:58Z</time>
      </trkpt>
      <trkpt lat="30.601950" lon="34.782986">
        <ele>845.6</ele>
        <time>2020-09-15T06:38:59Z</time>
      </trkpt>
      <trkpt lat="30.601949" lon="34.782992">
        <ele>845.6</ele>
        <time>2020-09-15T06:39:06Z</time>
      </trkpt>
      <trkpt lat="30.601954" lon="34.782990">
        <ele>845.4</ele>
        <time>2020-09-15T06:39:11Z</time>
      </trkpt>
      <trkpt lat="30.601948" lon="34.782988">
        <ele>845.8</ele>
        <time>2020-09-15T06:39:15Z</time>
      </trkpt>
      <trkpt lat="30.601945" lon="34.782986">
        <ele>846.0</ele>
        <time>2020-09-15T06:39:19Z</time>
      </trkpt>
      <trkpt lat="30.601960" lon="34.782977">
        <ele>846.0</ele>
        <time>2020-09-15T06:39:21Z</time>
      </trkpt>
      <trkpt lat="30.601971" lon="34.782976">
        <ele>845.8</ele>
        <time>2020-09-15T06:39:23Z</time>
      </trkpt>
      <trkpt lat="30.601967" lon="34.782971">
        <ele>845.6</ele>
        <time>2020-09-15T06:39:26Z</time>
      </trkpt>
      <trkpt lat="30.601982" lon="34.782956">
        <ele>846.2</ele>
        <time>2020-09-15T06:39:35Z</time>
      </trkpt>
      <trkpt lat="30.601985" lon="34.782940">
        <ele>846.0</ele>
        <time>2020-09-15T06:39:40Z</time>
      </trkpt>
      <trkpt lat="30.601980" lon="34.782936">
        <ele>846.0</ele>
        <time>2020-09-15T06:39:42Z</time>
      </trkpt>
      <trkpt lat="30.601978" lon="34.782936">
        <ele>845.6</ele>
        <time>2020-09-15T06:39:43Z</time>
      </trkpt>
      <trkpt lat="30.601977" lon="34.782936">
        <ele>845.8</ele>
        <time>2020-09-15T06:39:48Z</time>
      </trkpt>
      <trkpt lat="30.601981" lon="34.782938">
        <ele>845.8</ele>
        <time>2020-09-15T06:39:52Z</time>
      </trkpt>
      <trkpt lat="30.601989" lon="34.782937">
        <ele>845.4</ele>
        <time>2020-09-15T06:39:53Z</time>
      </trkpt>
      <trkpt lat="30.602000" lon="34.782941">
        <ele>845.2</ele>
        <time>2020-09-15T06:39:54Z</time>
      </trkpt>
      <trkpt lat="30.602014" lon="34.782950">
        <ele>845.0</ele>
        <time>2020-09-15T06:39:56Z</time>
      </trkpt>
      <trkpt lat="30.601997" lon="34.782971">
        <ele>845.2</ele>
        <time>2020-09-15T06:40:02Z</time>
      </trkpt>
      <trkpt lat="30.601995" lon="34.782972">
        <ele>845.4</ele>
        <time>2020-09-15T06:40:04Z</time>
      </trkpt>
      <trkpt lat="30.601993" lon="34.782970">
        <ele>845.8</ele>
        <time>2020-09-15T06:40:06Z</time>
      </trkpt>
      <trkpt lat="30.601992" lon="34.782960">
        <ele>846.0</ele>
        <time>2020-09-15T06:40:10Z</time>
      </trkpt>
      <trkpt lat="30.601993" lon="34.782960">
        <ele>846.0</ele>
        <time>2020-09-15T06:40:11Z</time>
      </trkpt>
      <trkpt lat="30.601993" lon="34.782960">
        <ele>846.4</ele>
        <time>2020-09-15T06:40:21Z</time>
      </trkpt>
      <trkpt lat="30.601994" lon="34.782961">
        <ele>846.6</ele>
        <time>2020-09-15T06:40:26Z</time>
      </trkpt>
      <trkpt lat="30.601995" lon="34.782961">
        <ele>846.2</ele>
        <time>2020-09-15T06:40:31Z</time>
      </trkpt>
      <trkpt lat="30.601995" lon="34.782961">
        <ele>846.0</ele>
        <time>2020-09-15T06:40:34Z</time>
      </trkpt>
      <trkpt lat="30.601995" lon="34.782961">
        <ele>846.0</ele>
        <time>2020-09-15T06:40:35Z</time>
      </trkpt>
      <trkpt lat="30.601997" lon="34.782960">
        <ele>846.4</ele>
        <time>2020-09-15T06:40:44Z</time>
      </trkpt>
      <trkpt lat="30.601995" lon="34.782971">
        <ele>846.0</ele>
        <time>2020-09-15T06:40:53Z</time>
      </trkpt>
      <trkpt lat="30.601996" lon="34.782973">
        <ele>846.2</ele>
        <time>2020-09-15T06:40:57Z</time>
      </trkpt>
      <trkpt lat="30.601994" lon="34.782968">
        <ele>846.2</ele>
        <time>2020-09-15T06:41:00Z</time>
      </trkpt>
      <trkpt lat="30.602008" lon="34.782979">
        <ele>845.2</ele>
        <time>2020-09-15T06:41:17Z</time>
      </trkpt>
      <trkpt lat="30.602009" lon="34.782984">
        <ele>845.6</ele>
        <time>2020-09-15T06:41:23Z</time>
      </trkpt>
      <trkpt lat="30.602008" lon="34.782986">
        <ele>846.0</ele>
        <time>2020-09-15T06:41:28Z</time>
      </trkpt>
      <trkpt lat="30.602010" lon="34.782989">
        <ele>846.2</ele>
        <time>2020-09-15T06:41:31Z</time>
      </trkpt>
      <trkpt lat="30.602008" lon="34.782991">
        <ele>846.4</ele>
        <time>2020-09-15T06:41:37Z</time>
      </trkpt>
      <trkpt lat="30.602005" lon="34.782992">
        <ele>846.2</ele>
        <time>2020-09-15T06:41:51Z</time>
      </trkpt>
      <trkpt lat="30.602005" lon="34.782992">
        <ele>845.8</ele>
        <time>2020-09-15T06:42:03Z</time>
      </trkpt>
      <trkpt lat="30.602009" lon="34.782985">
        <ele>846.2</ele>
        <time>2020-09-15T06:42:28Z</time>
      </trkpt>
      <trkpt lat="30.602008" lon="34.782984">
        <ele>846.0</ele>
        <time>2020-09-15T06:42:35Z</time>
      </trkpt>
      <trkpt lat="30.602007" lon="34.782982">
        <ele>845.6</ele>
        <time>2020-09-15T06:42:45Z</time>
      </trkpt>
      <trkpt lat="30.602007" lon="34.782982">
        <ele>845.8</ele>
        <time>2020-09-15T06:42:47Z</time>
      </trkpt>
      <trkpt lat="30.602007" lon="34.782983">
        <ele>846.0</ele>
        <time>2020-09-15T06:42:48Z</time>
      </trkpt>
      <trkpt lat="30.602006" lon="34.782981">
        <ele>846.2</ele>
        <time>2020-09-15T06:42:51Z</time>
      </trkpt>
      <trkpt lat="30.602005" lon="34.782983">
        <ele>846.4</ele>
        <time>2020-09-15T06:42:56Z</time>
      </trkpt>
      <trkpt lat="30.602005" lon="34.782985">
        <ele>845.8</ele>
        <time>2020-09-15T06:43:00Z</time>
      </trkpt>
      <trkpt lat="30.602006" lon="34.782985">
        <ele>845.8</ele>
        <time>2020-09-15T06:43:01Z</time>
      </trkpt>
      <trkpt lat="30.602006" lon="34.782987">
        <ele>846.2</ele>
        <time>2020-09-15T06:43:12Z</time>
      </trkpt>
      <trkpt lat="30.602006" lon="34.782987">
        <ele>846.2</ele>
        <time>2020-09-15T06:43:13Z</time>
      </trkpt>
      <trkpt lat="30.602008" lon="34.782998">
        <ele>845.6</ele>
        <time>2020-09-15T06:43:17Z</time>
      </trkpt>
      <trkpt lat="30.602011" lon="34.783014">
        <ele>845.2</ele>
        <time>2020-09-15T06:43:18Z</time>
      </trkpt>
      <trkpt lat="30.602024" lon="34.783060">
        <ele>844.8</ele>
        <time>2020-09-15T06:43:20Z</time>
      </trkpt>
      <trkpt lat="30.602091" lon="34.783160">
        <ele>844.6</ele>
        <time>2020-09-15T06:43:24Z</time>
      </trkpt>
      <trkpt lat="30.602213" lon="34.783171">
        <ele>845.0</ele>
        <time>2020-09-15T06:43:28Z</time>
      </trkpt>
      <trkpt lat="30.602442" lon="34.783110">
        <ele>844.6</ele>
        <time>2020-09-15T06:43:36Z</time>
      </trkpt>
      <trkpt lat="30.602507" lon="34.783112">
        <ele>843.8</ele>
        <time>2020-09-15T06:43:38Z</time>
      </trkpt>
      <trkpt lat="30.602603" lon="34.783113">
        <ele>842.8</ele>
        <time>2020-09-15T06:43:41Z</time>
      </trkpt>
      <trkpt lat="30.602705" lon="34.783091">
        <ele>841.8</ele>
        <time>2020-09-15T06:43:44Z</time>
      </trkpt>
      <trkpt lat="30.602911" lon="34.783059">
        <ele>841.8</ele>
        <time>2020-09-15T06:43:50Z</time>
      </trkpt>
      <trkpt lat="30.602938" lon="34.783074">
        <ele>841.8</ele>
        <time>2020-09-15T06:43:51Z</time>
      </trkpt>
      <trkpt lat="30.602990" lon="34.783120">
        <ele>841.8</ele>
        <time>2020-09-15T06:43:53Z</time>
      </trkpt>
      <trkpt lat="30.603016" lon="34.783147">
        <ele>841.8</ele>
        <time>2020-09-15T06:43:54Z</time>
      </trkpt>
      <trkpt lat="30.603068" lon="34.783206">
        <ele>841.4</ele>
        <time>2020-09-15T06:43:56Z</time>
      </trkpt>
      <trkpt lat="30.603090" lon="34.783236">
        <ele>841.4</ele>
        <time>2020-09-15T06:43:57Z</time>
      </trkpt>
      <trkpt lat="30.603135" lon="34.783293">
        <ele>841.2</ele>
        <time>2020-09-15T06:43:59Z</time>
      </trkpt>
      <trkpt lat="30.603305" lon="34.783472">
        <ele>842.4</ele>
        <time>2020-09-15T06:44:06Z</time>
      </trkpt>
      <trkpt lat="30.603355" lon="34.783497">
        <ele>842.8</ele>
        <time>2020-09-15T06:44:08Z</time>
      </trkpt>
      <trkpt lat="30.603401" lon="34.783498">
        <ele>843.4</ele>
        <time>2020-09-15T06:44:10Z</time>
      </trkpt>
      <trkpt lat="30.603518" lon="34.783409">
        <ele>843.8</ele>
        <time>2020-09-15T06:44:15Z</time>
      </trkpt>
      <trkpt lat="30.603712" lon="34.783300">
        <ele>842.4</ele>
        <time>2020-09-15T06:44:21Z</time>
      </trkpt>
      <trkpt lat="30.603846" lon="34.783314">
        <ele>841.8</ele>
        <time>2020-09-15T06:44:24Z</time>
      </trkpt>
      <trkpt lat="30.604019" lon="34.783372">
        <ele>841.4</ele>
        <time>2020-09-15T06:44:28Z</time>
      </trkpt>
      <trkpt lat="30.604214" lon="34.783450">
        <ele>840.8</ele>
        <time>2020-09-15T06:44:33Z</time>
      </trkpt>
      <trkpt lat="30.604292" lon="34.783485">
        <ele>840.6</ele>
        <time>2020-09-15T06:44:35Z</time>
      </trkpt>
      <trkpt lat="30.604378" lon="34.783528">
        <ele>840.4</ele>
        <time>2020-09-15T06:44:37Z</time>
      </trkpt>
      <trkpt lat="30.604526" lon="34.783591">
        <ele>839.6</ele>
        <time>2020-09-15T06:44:40Z</time>
      </trkpt>
      <trkpt lat="30.604633" lon="34.783615">
        <ele>839.2</ele>
        <time>2020-09-15T06:44:42Z</time>
      </trkpt>
      <trkpt lat="30.604685" lon="34.783616">
        <ele>839.2</ele>
        <time>2020-09-15T06:44:43Z</time>
      </trkpt>
      <trkpt lat="30.604887" lon="34.783585">
        <ele>838.4</ele>
        <time>2020-09-15T06:44:47Z</time>
      </trkpt>
      <trkpt lat="30.604979" lon="34.783565">
        <ele>838.2</ele>
        <time>2020-09-15T06:44:49Z</time>
      </trkpt>
      <trkpt lat="30.605023" lon="34.783562">
        <ele>838.0</ele>
        <time>2020-09-15T06:44:50Z</time>
      </trkpt>
      <trkpt lat="30.605065" lon="34.783567">
        <ele>837.8</ele>
        <time>2020-09-15T06:44:51Z</time>
      </trkpt>
      <trkpt lat="30.605109" lon="34.783579">
        <ele>838.0</ele>
        <time>2020-09-15T06:44:52Z</time>
      </trkpt>
      <trkpt lat="30.605149" lon="34.783593">
        <ele>838.2</ele>
        <time>2020-09-15T06:44:53Z</time>
      </trkpt>
      <trkpt lat="30.605296" lon="34.783656">
        <ele>836.8</ele>
        <time>2020-09-15T06:44:57Z</time>
      </trkpt>
      <trkpt lat="30.605346" lon="34.783695">
        <ele>835.8</ele>
        <time>2020-09-15T06:44:59Z</time>
      </trkpt>
      <trkpt lat="30.605451" lon="34.783835">
        <ele>835.4</ele>
        <time>2020-09-15T06:45:04Z</time>
      </trkpt>
      <trkpt lat="30.605485" lon="34.783966">
        <ele>835.2</ele>
        <time>2020-09-15T06:45:08Z</time>
      </trkpt>
      <trkpt lat="30.605493" lon="34.783998">
        <ele>835.2</ele>
        <time>2020-09-15T06:45:09Z</time>
      </trkpt>
      <trkpt lat="30.605508" lon="34.784073">
        <ele>834.6</ele>
        <time>2020-09-15T06:45:11Z</time>
      </trkpt>
      <trkpt lat="30.605515" lon="34.784148">
        <ele>834.8</ele>
        <time>2020-09-15T06:45:13Z</time>
      </trkpt>
      <trkpt lat="30.605516" lon="34.784189">
        <ele>834.6</ele>
        <time>2020-09-15T06:45:14Z</time>
      </trkpt>
      <trkpt lat="30.605518" lon="34.784268">
        <ele>834.6</ele>
        <time>2020-09-15T06:45:16Z</time>
      </trkpt>
      <trkpt lat="30.605531" lon="34.784425">
        <ele>834.2</ele>
        <time>2020-09-15T06:45:20Z</time>
      </trkpt>
      <trkpt lat="30.605554" lon="34.784567">
        <ele>834.2</ele>
        <time>2020-09-15T06:45:24Z</time>
      </trkpt>
      <trkpt lat="30.605561" lon="34.784601">
        <ele>834.0</ele>
        <time>2020-09-15T06:45:25Z</time>
      </trkpt>
      <trkpt lat="30.605612" lon="34.784814">
        <ele>833.6</ele>
        <time>2020-09-15T06:45:31Z</time>
      </trkpt>
      <trkpt lat="30.605733" lon="34.784975">
        <ele>833.6</ele>
        <time>2020-09-15T06:45:36Z</time>
      </trkpt>
      <trkpt lat="30.605787" lon="34.785037">
        <ele>833.6</ele>
        <time>2020-09-15T06:45:38Z</time>
      </trkpt>
      <trkpt lat="30.605811" lon="34.785070">
        <ele>833.6</ele>
        <time>2020-09-15T06:45:39Z</time>
      </trkpt>
      <trkpt lat="30.605833" lon="34.785103">
        <ele>833.4</ele>
        <time>2020-09-15T06:45:40Z</time>
      </trkpt>
      <trkpt lat="30.605869" lon="34.785169">
        <ele>833.6</ele>
        <time>2020-09-15T06:45:42Z</time>
      </trkpt>
      <trkpt lat="30.605923" lon="34.785307">
        <ele>834.2</ele>
        <time>2020-09-15T06:45:46Z</time>
      </trkpt>
      <trkpt lat="30.605936" lon="34.785340">
        <ele>834.2</ele>
        <time>2020-09-15T06:45:47Z</time>
      </trkpt>
      <trkpt lat="30.606011" lon="34.785533">
        <ele>834.2</ele>
        <time>2020-09-15T06:45:52Z</time>
      </trkpt>
      <trkpt lat="30.606022" lon="34.785579">
        <ele>834.0</ele>
        <time>2020-09-15T06:45:53Z</time>
      </trkpt>
      <trkpt lat="30.606036" lon="34.785626">
        <ele>833.8</ele>
        <time>2020-09-15T06:45:54Z</time>
      </trkpt>
      <trkpt lat="30.606069" lon="34.785725">
        <ele>833.6</ele>
        <time>2020-09-15T06:45:56Z</time>
      </trkpt>
      <trkpt lat="30.606109" lon="34.785823">
        <ele>833.4</ele>
        <time>2020-09-15T06:45:58Z</time>
      </trkpt>
      <trkpt lat="30.606133" lon="34.785866">
        <ele>833.2</ele>
        <time>2020-09-15T06:45:59Z</time>
      </trkpt>
      <trkpt lat="30.606297" lon="34.786036">
        <ele>832.8</ele>
        <time>2020-09-15T06:46:05Z</time>
      </trkpt>
      <trkpt lat="30.606354" lon="34.786090">
        <ele>833.2</ele>
        <time>2020-09-15T06:46:07Z</time>
      </trkpt>
      <trkpt lat="30.606427" lon="34.786191">
        <ele>832.8</ele>
        <time>2020-09-15T06:46:10Z</time>
      </trkpt>
      <trkpt lat="30.606456" lon="34.786221">
        <ele>832.6</ele>
        <time>2020-09-15T06:46:11Z</time>
      </trkpt>
      <trkpt lat="30.606550" lon="34.786292">
        <ele>831.8</ele>
        <time>2020-09-15T06:46:13Z</time>
      </trkpt>
      <trkpt lat="30.606581" lon="34.786317">
        <ele>831.8</ele>
        <time>2020-09-15T06:46:15Z</time>
      </trkpt>
      <trkpt lat="30.606649" lon="34.786363">
        <ele>831.6</ele>
        <time>2020-09-15T06:46:17Z</time>
      </trkpt>
      <trkpt lat="30.606685" lon="34.786383">
        <ele>831.4</ele>
        <time>2020-09-15T06:46:18Z</time>
      </trkpt>
      <trkpt lat="30.606723" lon="34.786400">
        <ele>831.4</ele>
        <time>2020-09-15T06:46:19Z</time>
      </trkpt>
      <trkpt lat="30.606796" lon="34.786442">
        <ele>831.4</ele>
        <time>2020-09-15T06:46:21Z</time>
      </trkpt>
      <trkpt lat="30.606823" lon="34.786480">
        <ele>831.0</ele>
        <time>2020-09-15T06:46:22Z</time>
      </trkpt>
      <trkpt lat="30.606845" lon="34.786525">
        <ele>830.8</ele>
        <time>2020-09-15T06:46:23Z</time>
      </trkpt>
      <trkpt lat="30.606872" lon="34.786614">
        <ele>830.2</ele>
        <time>2020-09-15T06:46:25Z</time>
      </trkpt>
      <trkpt lat="30.606871" lon="34.786646">
        <ele>830.4</ele>
        <time>2020-09-15T06:46:26Z</time>
      </trkpt>
      <trkpt lat="30.606845" lon="34.786711">
        <ele>830.2</ele>
        <time>2020-09-15T06:46:28Z</time>
      </trkpt>
      <trkpt lat="30.606829" lon="34.786727">
        <ele>830.2</ele>
        <time>2020-09-15T06:46:30Z</time>
      </trkpt>
      <trkpt lat="30.606756" lon="34.786736">
        <ele>830.6</ele>
        <time>2020-09-15T06:46:34Z</time>
      </trkpt>
      <trkpt lat="30.606712" lon="34.786731">
        <ele>831.2</ele>
        <time>2020-09-15T06:46:36Z</time>
      </trkpt>
      <trkpt lat="30.606685" lon="34.786728">
        <ele>831.4</ele>
        <time>2020-09-15T06:46:37Z</time>
      </trkpt>
      <trkpt lat="30.606604" lon="34.786733">
        <ele>831.8</ele>
        <time>2020-09-15T06:46:41Z</time>
      </trkpt>
      <trkpt lat="30.606548" lon="34.786744">
        <ele>831.8</ele>
        <time>2020-09-15T06:46:44Z</time>
      </trkpt>
      <trkpt lat="30.606530" lon="34.786748">
        <ele>832.2</ele>
        <time>2020-09-15T06:46:45Z</time>
      </trkpt>
      <trkpt lat="30.606511" lon="34.786753">
        <ele>832.6</ele>
        <time>2020-09-15T06:46:46Z</time>
      </trkpt>
      <trkpt lat="30.606429" lon="34.786785">
        <ele>833.6</ele>
        <time>2020-09-15T06:46:51Z</time>
      </trkpt>
      <trkpt lat="30.606329" lon="34.786798">
        <ele>834.4</ele>
        <time>2020-09-15T06:46:57Z</time>
      </trkpt>
      <trkpt lat="30.606313" lon="34.786793">
        <ele>834.4</ele>
        <time>2020-09-15T06:46:58Z</time>
      </trkpt>
      <trkpt lat="30.606229" lon="34.786772">
        <ele>834.6</ele>
        <time>2020-09-15T06:47:02Z</time>
      </trkpt>
      <trkpt lat="30.606151" lon="34.786753">
        <ele>834.8</ele>
        <time>2020-09-15T06:47:05Z</time>
      </trkpt>
      <trkpt lat="30.606025" lon="34.786754">
        <ele>835.0</ele>
        <time>2020-09-15T06:47:10Z</time>
      </trkpt>
      <trkpt lat="30.605954" lon="34.786769">
        <ele>835.2</ele>
        <time>2020-09-15T06:47:13Z</time>
      </trkpt>
      <trkpt lat="30.605863" lon="34.786802">
        <ele>835.6</ele>
        <time>2020-09-15T06:47:17Z</time>
      </trkpt>
      <trkpt lat="30.605824" lon="34.786823">
        <ele>835.8</ele>
        <time>2020-09-15T06:47:19Z</time>
      </trkpt>
      <trkpt lat="30.605787" lon="34.786848">
        <ele>836.0</ele>
        <time>2020-09-15T06:47:21Z</time>
      </trkpt>
      <trkpt lat="30.605666" lon="34.786934">
        <ele>836.6</ele>
        <time>2020-09-15T06:47:27Z</time>
      </trkpt>
      <trkpt lat="30.605620" lon="34.786968">
        <ele>836.8</ele>
        <time>2020-09-15T06:47:29Z</time>
      </trkpt>
      <trkpt lat="30.605527" lon="34.787090">
        <ele>837.4</ele>
        <time>2020-09-15T06:47:35Z</time>
      </trkpt>
      <trkpt lat="30.605511" lon="34.787115">
        <ele>837.6</ele>
        <time>2020-09-15T06:47:36Z</time>
      </trkpt>
      <trkpt lat="30.605496" lon="34.787141">
        <ele>837.8</ele>
        <time>2020-09-15T06:47:37Z</time>
      </trkpt>
      <trkpt lat="30.605481" lon="34.787166">
        <ele>838.2</ele>
        <time>2020-09-15T06:47:38Z</time>
      </trkpt>
      <trkpt lat="30.605439" lon="34.787262">
        <ele>838.8</ele>
        <time>2020-09-15T06:47:42Z</time>
      </trkpt>
      <trkpt lat="30.605415" lon="34.787301">
        <ele>839.2</ele>
        <time>2020-09-15T06:47:44Z</time>
      </trkpt>
      <trkpt lat="30.605338" lon="34.787431">
        <ele>840.0</ele>
        <time>2020-09-15T06:47:50Z</time>
      </trkpt>
      <trkpt lat="30.605326" lon="34.787453">
        <ele>840.0</ele>
        <time>2020-09-15T06:47:51Z</time>
      </trkpt>
      <trkpt lat="30.605279" lon="34.787622">
        <ele>841.2</ele>
        <time>2020-09-15T06:47:57Z</time>
      </trkpt>
      <trkpt lat="30.605273" lon="34.787648">
        <ele>841.6</ele>
        <time>2020-09-15T06:47:58Z</time>
      </trkpt>
      <trkpt lat="30.605249" lon="34.787723">
        <ele>842.2</ele>
        <time>2020-09-15T06:48:01Z</time>
      </trkpt>
      <trkpt lat="30.605238" lon="34.787747">
        <ele>842.2</ele>
        <time>2020-09-15T06:48:02Z</time>
      </trkpt>
      <trkpt lat="30.605189" lon="34.787841">
        <ele>842.6</ele>
        <time>2020-09-15T06:48:06Z</time>
      </trkpt>
      <trkpt lat="30.605104" lon="34.788017">
        <ele>843.2</ele>
        <time>2020-09-15T06:48:13Z</time>
      </trkpt>
      <trkpt lat="30.605000" lon="34.788221">
        <ele>844.0</ele>
        <time>2020-09-15T06:48:21Z</time>
      </trkpt>
      <trkpt lat="30.604977" lon="34.788263">
        <ele>844.2</ele>
        <time>2020-09-15T06:48:23Z</time>
      </trkpt>
      <trkpt lat="30.604890" lon="34.788412">
        <ele>844.4</ele>
        <time>2020-09-15T06:48:30Z</time>
      </trkpt>
      <trkpt lat="30.604756" lon="34.788620">
        <ele>845.2</ele>
        <time>2020-09-15T06:48:38Z</time>
      </trkpt>
      <trkpt lat="30.604727" lon="34.788684">
        <ele>845.2</ele>
        <time>2020-09-15T06:48:40Z</time>
      </trkpt>
      <trkpt lat="30.604648" lon="34.788813">
        <ele>846.4</ele>
        <time>2020-09-15T06:48:45Z</time>
      </trkpt>
      <trkpt lat="30.604632" lon="34.788836">
        <ele>846.6</ele>
        <time>2020-09-15T06:48:46Z</time>
      </trkpt>
      <trkpt lat="30.604575" lon="34.788903">
        <ele>847.0</ele>
        <time>2020-09-15T06:48:49Z</time>
      </trkpt>
      <trkpt lat="30.604462" lon="34.789034">
        <ele>847.0</ele>
        <time>2020-09-15T06:48:55Z</time>
      </trkpt>
      <trkpt lat="30.604418" lon="34.789103">
        <ele>847.6</ele>
        <time>2020-09-15T06:48:58Z</time>
      </trkpt>
      <trkpt lat="30.604355" lon="34.789190">
        <ele>848.2</ele>
        <time>2020-09-15T06:49:02Z</time>
      </trkpt>
      <trkpt lat="30.604304" lon="34.789246">
        <ele>848.6</ele>
        <time>2020-09-15T06:49:05Z</time>
      </trkpt>
      <trkpt lat="30.604217" lon="34.789368">
        <ele>848.6</ele>
        <time>2020-09-15T06:49:11Z</time>
      </trkpt>
      <trkpt lat="30.604096" lon="34.789547">
        <ele>849.6</ele>
        <time>2020-09-15T06:49:20Z</time>
      </trkpt>
      <trkpt lat="30.604036" lon="34.789645">
        <ele>850.8</ele>
        <time>2020-09-15T06:49:25Z</time>
      </trkpt>
      <trkpt lat="30.604025" lon="34.789663">
        <ele>851.0</ele>
        <time>2020-09-15T06:49:26Z</time>
      </trkpt>
      <trkpt lat="30.604014" lon="34.789680">
        <ele>851.4</ele>
        <time>2020-09-15T06:49:27Z</time>
      </trkpt>
      <trkpt lat="30.604004" lon="34.789697">
        <ele>851.4</ele>
        <time>2020-09-15T06:49:28Z</time>
      </trkpt>
      <trkpt lat="30.603941" lon="34.789780">
        <ele>851.6</ele>
        <time>2020-09-15T06:49:33Z</time>
      </trkpt>
      <trkpt lat="30.603904" lon="34.789829">
        <ele>851.8</ele>
        <time>2020-09-15T06:49:36Z</time>
      </trkpt>
      <trkpt lat="30.603884" lon="34.789863">
        <ele>852.2</ele>
        <time>2020-09-15T06:49:38Z</time>
      </trkpt>
      <trkpt lat="30.603873" lon="34.789880">
        <ele>852.2</ele>
        <time>2020-09-15T06:49:39Z</time>
      </trkpt>
      <trkpt lat="30.603806" lon="34.789979">
        <ele>853.0</ele>
        <time>2020-09-15T06:49:45Z</time>
      </trkpt>
      <trkpt lat="30.603791" lon="34.789996">
        <ele>853.0</ele>
        <time>2020-09-15T06:49:46Z</time>
      </trkpt>
      <trkpt lat="30.603670" lon="34.790101">
        <ele>852.2</ele>
        <time>2020-09-15T06:49:52Z</time>
      </trkpt>
      <trkpt lat="30.603557" lon="34.790226">
        <ele>852.0</ele>
        <time>2020-09-15T06:49:57Z</time>
      </trkpt>
      <trkpt lat="30.603413" lon="34.790429">
        <ele>852.8</ele>
        <time>2020-09-15T06:50:06Z</time>
      </trkpt>
      <trkpt lat="30.603381" lon="34.790474">
        <ele>853.0</ele>
        <time>2020-09-15T06:50:08Z</time>
      </trkpt>
      <trkpt lat="30.603271" lon="34.790631">
        <ele>853.2</ele>
        <time>2020-09-15T06:50:15Z</time>
      </trkpt>
      <trkpt lat="30.603258" lon="34.790653">
        <ele>853.2</ele>
        <time>2020-09-15T06:50:16Z</time>
      </trkpt>
      <trkpt lat="30.603182" lon="34.790811">
        <ele>853.8</ele>
        <time>2020-09-15T06:50:23Z</time>
      </trkpt>
      <trkpt lat="30.603150" lon="34.790871">
        <ele>854.0</ele>
        <time>2020-09-15T06:50:26Z</time>
      </trkpt>
      <trkpt lat="30.603112" lon="34.790961">
        <ele>854.4</ele>
        <time>2020-09-15T06:50:30Z</time>
      </trkpt>
      <trkpt lat="30.603036" lon="34.791214">
        <ele>854.6</ele>
        <time>2020-09-15T06:50:40Z</time>
      </trkpt>
      <trkpt lat="30.602945" lon="34.791362">
        <ele>854.8</ele>
        <time>2020-09-15T06:50:47Z</time>
      </trkpt>
      <trkpt lat="30.602848" lon="34.791465">
        <ele>855.0</ele>
        <time>2020-09-15T06:50:53Z</time>
      </trkpt>
      <trkpt lat="30.602833" lon="34.791480">
        <ele>855.2</ele>
        <time>2020-09-15T06:50:54Z</time>
      </trkpt>
      <trkpt lat="30.602791" lon="34.791526">
        <ele>855.6</ele>
        <time>2020-09-15T06:50:57Z</time>
      </trkpt>
      <trkpt lat="30.602711" lon="34.791614">
        <ele>855.8</ele>
        <time>2020-09-15T06:51:02Z</time>
      </trkpt>
      <trkpt lat="30.602683" lon="34.791652">
        <ele>856.0</ele>
        <time>2020-09-15T06:51:04Z</time>
      </trkpt>
      <trkpt lat="30.602624" lon="34.791785">
        <ele>856.4</ele>
        <time>2020-09-15T06:51:10Z</time>
      </trkpt>
      <trkpt lat="30.602604" lon="34.791863">
        <ele>856.4</ele>
        <time>2020-09-15T06:51:13Z</time>
      </trkpt>
      <trkpt lat="30.602595" lon="34.791937">
        <ele>856.4</ele>
        <time>2020-09-15T06:51:16Z</time>
      </trkpt>
      <trkpt lat="30.602590" lon="34.791960">
        <ele>856.4</ele>
        <time>2020-09-15T06:51:17Z</time>
      </trkpt>
      <trkpt lat="30.602533" lon="34.792118">
        <ele>856.8</ele>
        <time>2020-09-15T06:51:23Z</time>
      </trkpt>
      <trkpt lat="30.602518" lon="34.792141">
        <ele>856.6</ele>
        <time>2020-09-15T06:51:24Z</time>
      </trkpt>
      <trkpt lat="30.602462" lon="34.792234">
        <ele>857.0</ele>
        <time>2020-09-15T06:51:28Z</time>
      </trkpt>
      <trkpt lat="30.602449" lon="34.792259">
        <ele>857.2</ele>
        <time>2020-09-15T06:51:29Z</time>
      </trkpt>
      <trkpt lat="30.602401" lon="34.792380">
        <ele>857.2</ele>
        <time>2020-09-15T06:51:33Z</time>
      </trkpt>
      <trkpt lat="30.602272" lon="34.792587">
        <ele>856.6</ele>
        <time>2020-09-15T06:51:39Z</time>
      </trkpt>
      <trkpt lat="30.602179" lon="34.792735">
        <ele>856.2</ele>
        <time>2020-09-14T09:56:03Z</time>
      </trkpt>
      <trkpt lat="30.602041" lon="34.792882">
        <ele>854.6</ele>
        <time>2020-09-15T06:54:38Z</time>
      </trkpt>
      <trkpt lat="30.602038" lon="34.792878">
        <ele>855.6</ele>
        <time>2020-09-15T06:54:50Z</time>
      </trkpt>
      <trkpt lat="30.602023" lon="34.792922">
        <ele>855.6</ele>
        <time>2020-09-15T06:54:53Z</time>
      </trkpt>
      <trkpt lat="30.602031" lon="34.793079">
        <ele>854.4</ele>
        <time>2020-09-15T06:54:59Z</time>
      </trkpt>
      <trkpt lat="30.602101" lon="34.793259">
        <ele>853.8</ele>
        <time>2020-09-15T06:55:05Z</time>
      </trkpt>
      <trkpt lat="30.602153" lon="34.793338">
        <ele>853.8</ele>
        <time>2020-09-15T06:55:08Z</time>
      </trkpt>
      <trkpt lat="30.602234" lon="34.793431">
        <ele>853.8</ele>
        <time>2020-09-15T06:55:12Z</time>
      </trkpt>
      <trkpt lat="30.602308" lon="34.793545">
        <ele>854.2</ele>
        <time>2020-09-15T06:55:16Z</time>
      </trkpt>
      <trkpt lat="30.602319" lon="34.793576">
        <ele>854.0</ele>
        <time>2020-09-15T06:55:17Z</time>
      </trkpt>
      <trkpt lat="30.602392" lon="34.793791">
        <ele>853.4</ele>
        <time>2020-09-15T06:55:23Z</time>
      </trkpt>
      <trkpt lat="30.602397" lon="34.793977">
        <ele>853.4</ele>
        <time>2020-09-15T06:55:28Z</time>
      </trkpt>
      <trkpt lat="30.602393" lon="34.794025">
        <ele>853.2</ele>
        <time>2020-09-15T06:55:29Z</time>
      </trkpt>
      <trkpt lat="30.602385" lon="34.794073">
        <ele>853.2</ele>
        <time>2020-09-15T06:55:30Z</time>
      </trkpt>
      <trkpt lat="30.602334" lon="34.794242">
        <ele>852.6</ele>
        <time>2020-09-15T06:55:34Z</time>
      </trkpt>
      <trkpt lat="30.602314" lon="34.794375">
        <ele>852.8</ele>
        <time>2020-09-15T06:55:38Z</time>
      </trkpt>
      <trkpt lat="30.602327" lon="34.794427">
        <ele>853.0</ele>
        <time>2020-09-15T06:55:40Z</time>
      </trkpt>
      <trkpt lat="30.602429" lon="34.794530">
        <ele>853.4</ele>
        <time>2020-09-15T06:55:46Z</time>
      </trkpt>
      <trkpt lat="30.602557" lon="34.794598">
        <ele>853.6</ele>
        <time>2020-09-15T06:55:51Z</time>
      </trkpt>
      <trkpt lat="30.602587" lon="34.794610">
        <ele>853.6</ele>
        <time>2020-09-15T06:55:52Z</time>
      </trkpt>
      <trkpt lat="30.602804" lon="34.794721">
        <ele>853.2</ele>
        <time>2020-09-15T06:55:59Z</time>
      </trkpt>
      <trkpt lat="30.602837" lon="34.794779">
        <ele>853.2</ele>
        <time>2020-09-15T06:56:01Z</time>
      </trkpt>
      <trkpt lat="30.602857" lon="34.794845">
        <ele>853.2</ele>
        <time>2020-09-15T06:56:03Z</time>
      </trkpt>
      <trkpt lat="30.602862" lon="34.794883">
        <ele>853.4</ele>
        <time>2020-09-15T06:56:04Z</time>
      </trkpt>
      <trkpt lat="30.602857" lon="34.794999">
        <ele>853.4</ele>
        <time>2020-09-15T06:56:07Z</time>
      </trkpt>
      <trkpt lat="30.602826" lon="34.795116">
        <ele>853.6</ele>
        <time>2020-09-15T06:56:10Z</time>
      </trkpt>
      <trkpt lat="30.602731" lon="34.795304">
        <ele>853.8</ele>
        <time>2020-09-15T06:56:16Z</time>
      </trkpt>
      <trkpt lat="30.602643" lon="34.795429">
        <ele>854.6</ele>
        <time>2020-09-15T06:56:21Z</time>
      </trkpt>
      <trkpt lat="30.602638" lon="34.795462">
        <ele>854.8</ele>
        <time>2020-09-15T06:56:22Z</time>
      </trkpt>
      <trkpt lat="30.602661" lon="34.795593">
        <ele>855.2</ele>
        <time>2020-09-15T06:56:26Z</time>
      </trkpt>
      <trkpt lat="30.602672" lon="34.795618">
        <ele>855.2</ele>
        <time>2020-09-15T06:56:27Z</time>
      </trkpt>
      <trkpt lat="30.602699" lon="34.795657">
        <ele>855.4</ele>
        <time>2020-09-15T06:56:29Z</time>
      </trkpt>
      <trkpt lat="30.602744" lon="34.795687">
        <ele>855.6</ele>
        <time>2020-09-15T06:56:31Z</time>
      </trkpt>
      <trkpt lat="30.602771" lon="34.795696">
        <ele>855.8</ele>
        <time>2020-09-15T06:56:32Z</time>
      </trkpt>
      <trkpt lat="30.602826" lon="34.795708">
        <ele>855.8</ele>
        <time>2020-09-15T06:56:34Z</time>
      </trkpt>
      <trkpt lat="30.602969" lon="34.795737">
        <ele>855.6</ele>
        <time>2020-09-15T06:56:39Z</time>
      </trkpt>
      <trkpt lat="30.603097" lon="34.795837">
        <ele>856.2</ele>
        <time>2020-09-15T06:56:45Z</time>
      </trkpt>
      <trkpt lat="30.603144" lon="34.795900">
        <ele>856.8</ele>
        <time>2020-09-15T06:56:48Z</time>
      </trkpt>
      <trkpt lat="30.603190" lon="34.795974">
        <ele>857.4</ele>
        <time>2020-09-15T06:56:52Z</time>
      </trkpt>
      <trkpt lat="30.603206" lon="34.795995">
        <ele>856.4</ele>
        <time>2020-09-15T06:56:56Z</time>
      </trkpt>
      <trkpt lat="30.603202" lon="34.796003">
        <ele>856.4</ele>
        <time>2020-09-15T06:57:03Z</time>
      </trkpt>
      <trkpt lat="30.603203" lon="34.796003">
        <ele>856.4</ele>
        <time>2020-09-15T06:57:08Z</time>
      </trkpt>
      <trkpt lat="30.603204" lon="34.796003">
        <ele>856.4</ele>
        <time>2020-09-15T06:57:12Z</time>
      </trkpt>
      <trkpt lat="30.603208" lon="34.796007">
        <ele>856.4</ele>
        <time>2020-09-15T06:57:20Z</time>
      </trkpt>
      <trkpt lat="30.603209" lon="34.796006">
        <ele>856.4</ele>
        <time>2020-09-15T06:57:28Z</time>
      </trkpt>
      <trkpt lat="30.603208" lon="34.796005">
        <ele>856.4</ele>
        <time>2020-09-15T06:57:29Z</time>
      </trkpt>
      <trkpt lat="30.603200" lon="34.796005">
        <ele>856.4</ele>
        <time>2020-09-15T06:57:35Z</time>
      </trkpt>
      <trkpt lat="30.603200" lon="34.796004">
        <ele>856.4</ele>
        <time>2020-09-15T06:57:36Z</time>
      </trkpt>
      <trkpt lat="30.603202" lon="34.796004">
        <ele>856.4</ele>
        <time>2020-09-15T06:57:42Z</time>
      </trkpt>
      <trkpt lat="30.603201" lon="34.796004">
        <ele>856.4</ele>
        <time>2020-09-15T06:57:43Z</time>
      </trkpt>
      <trkpt lat="30.603199" lon="34.796003">
        <ele>856.4</ele>
        <time>2020-09-15T06:57:50Z</time>
      </trkpt>
      <trkpt lat="30.603198" lon="34.796003">
        <ele>856.4</ele>
        <time>2020-09-15T06:57:51Z</time>
      </trkpt>
      <trkpt lat="30.603197" lon="34.796004">
        <ele>856.4</ele>
        <time>2020-09-15T06:57:52Z</time>
      </trkpt>
      <trkpt lat="30.603194" lon="34.796005">
        <ele>856.4</ele>
        <time>2020-09-15T06:57:54Z</time>
      </trkpt>
      <trkpt lat="30.603194" lon="34.796004">
        <ele>856.4</ele>
        <time>2020-09-15T06:57:57Z</time>
      </trkpt>
      <trkpt lat="30.603195" lon="34.796003">
        <ele>856.4</ele>
        <time>2020-09-15T06:57:58Z</time>
      </trkpt>
      <trkpt lat="30.603197" lon="34.796000">
        <ele>856.4</ele>
        <time>2020-09-15T06:58:00Z</time>
      </trkpt>
      <trkpt lat="30.603199" lon="34.796000">
        <ele>856.4</ele>
        <time>2020-09-15T06:58:02Z</time>
      </trkpt>
      <trkpt lat="30.603198" lon="34.796000">
        <ele>856.4</ele>
        <time>2020-09-15T06:58:04Z</time>
      </trkpt>
      <trkpt lat="30.603196" lon="34.796002">
        <ele>856.4</ele>
        <time>2020-09-15T06:58:09Z</time>
      </trkpt>
      <trkpt lat="30.603194" lon="34.796000">
        <ele>856.4</ele>
        <time>2020-09-15T06:58:12Z</time>
      </trkpt>
      <trkpt lat="30.603195" lon="34.796000">
        <ele>856.4</ele>
        <time>2020-09-15T06:58:14Z</time>
      </trkpt>
      <trkpt lat="30.603194" lon="34.795997">
        <ele>856.4</ele>
        <time>2020-09-15T06:58:19Z</time>
      </trkpt>
      <trkpt lat="30.603192" lon="34.795996">
        <ele>856.4</ele>
        <time>2020-09-15T06:58:24Z</time>
      </trkpt>
      <trkpt lat="30.603192" lon="34.795996">
        <ele>856.4</ele>
        <time>2020-09-15T06:58:36Z</time>
      </trkpt>
      <trkpt lat="30.603192" lon="34.795995">
        <ele>856.4</ele>
        <time>2020-09-15T06:58:43Z</time>
      </trkpt>
      <trkpt lat="30.603191" lon="34.795994">
        <ele>856.4</ele>
        <time>2020-09-15T06:59:02Z</time>
      </trkpt>
      <trkpt lat="30.603191" lon="34.795994">
        <ele>856.4</ele>
        <time>2020-09-15T06:59:07Z</time>
      </trkpt>
      <trkpt lat="30.603191" lon="34.795992">
        <ele>856.4</ele>
        <time>2020-09-15T06:59:18Z</time>
      </trkpt>
      <trkpt lat="30.603199" lon="34.796000">
        <ele>856.4</ele>
        <time>2020-09-15T06:59:27Z</time>
      </trkpt>
      <trkpt lat="30.603241" lon="34.796032">
        <ele>856.4</ele>
        <time>2020-09-15T06:59:30Z</time>
      </trkpt>
      <trkpt lat="30.603368" lon="34.796188">
        <ele>855.8</ele>
        <time>2020-09-15T06:59:37Z</time>
      </trkpt>
      <trkpt lat="30.603390" lon="34.796218">
        <ele>855.6</ele>
        <time>2020-09-15T06:59:38Z</time>
      </trkpt>
      <trkpt lat="30.603474" lon="34.796370">
        <ele>855.4</ele>
        <time>2020-09-15T06:59:43Z</time>
      </trkpt>
      <trkpt lat="30.603488" lon="34.796397">
        <ele>855.4</ele>
        <time>2020-09-15T06:59:44Z</time>
      </trkpt>
      <trkpt lat="30.603536" lon="34.796555">
        <ele>856.2</ele>
        <time>2020-09-15T06:59:50Z</time>
      </trkpt>
      <trkpt lat="30.603554" lon="34.796654">
        <ele>856.2</ele>
        <time>2020-09-15T06:59:54Z</time>
      </trkpt>
      <trkpt lat="30.603571" lon="34.796738">
        <ele>856.0</ele>
        <time>2020-09-15T06:59:58Z</time>
      </trkpt>
      <trkpt lat="30.603580" lon="34.796793">
        <ele>856.0</ele>
        <time>2020-09-15T07:00:01Z</time>
      </trkpt>
      <trkpt lat="30.603581" lon="34.796820">
        <ele>855.8</ele>
        <time>2020-09-15T07:00:03Z</time>
      </trkpt>
      <trkpt lat="30.603532" lon="34.796905">
        <ele>855.6</ele>
        <time>2020-09-15T07:00:08Z</time>
      </trkpt>
      <trkpt lat="30.603419" lon="34.797072">
        <ele>855.8</ele>
        <time>2020-09-15T07:00:14Z</time>
      </trkpt>
      <trkpt lat="30.603400" lon="34.797108">
        <ele>855.6</ele>
        <time>2020-09-15T07:00:15Z</time>
      </trkpt>
      <trkpt lat="30.603365" lon="34.797188">
        <ele>855.4</ele>
        <time>2020-09-15T07:00:17Z</time>
      </trkpt>
      <trkpt lat="30.603348" lon="34.797231">
        <ele>855.2</ele>
        <time>2020-09-15T07:00:18Z</time>
      </trkpt>
      <trkpt lat="30.603328" lon="34.797275">
        <ele>855.0</ele>
        <time>2020-09-15T07:00:19Z</time>
      </trkpt>
      <trkpt lat="30.603286" lon="34.797357">
        <ele>854.8</ele>
        <time>2020-09-15T07:00:21Z</time>
      </trkpt>
      <trkpt lat="30.603156" lon="34.797565">
        <ele>855.6</ele>
        <time>2020-09-15T07:00:27Z</time>
      </trkpt>
      <trkpt lat="30.603138" lon="34.797599">
        <ele>855.8</ele>
        <time>2020-09-15T07:00:28Z</time>
      </trkpt>
      <trkpt lat="30.603006" lon="34.797758">
        <ele>856.2</ele>
        <time>2020-09-15T07:00:34Z</time>
      </trkpt>
      <trkpt lat="30.602917" lon="34.797829">
        <ele>856.8</ele>
        <time>2020-09-15T07:00:38Z</time>
      </trkpt>
      <trkpt lat="30.602878" lon="34.797907">
        <ele>857.0</ele>
        <time>2020-09-15T07:00:41Z</time>
      </trkpt>
      <trkpt lat="30.602858" lon="34.798116">
        <ele>856.4</ele>
        <time>2020-09-15T07:00:48Z</time>
      </trkpt>
      <trkpt lat="30.602876" lon="34.798175">
        <ele>856.0</ele>
        <time>2020-09-15T07:00:50Z</time>
      </trkpt>
      <trkpt lat="30.602931" lon="34.798243">
        <ele>855.8</ele>
        <time>2020-09-15T07:00:53Z</time>
      </trkpt>
      <trkpt lat="30.602974" lon="34.798278">
        <ele>856.0</ele>
        <time>2020-09-15T07:00:55Z</time>
      </trkpt>
      <trkpt lat="30.602995" lon="34.798299">
        <ele>856.4</ele>
        <time>2020-09-15T07:00:56Z</time>
      </trkpt>
      <trkpt lat="30.603016" lon="34.798322">
        <ele>856.4</ele>
        <time>2020-09-15T07:00:57Z</time>
      </trkpt>
      <trkpt lat="30.603033" lon="34.798346">
        <ele>856.6</ele>
        <time>2020-09-15T07:00:58Z</time>
      </trkpt>
      <trkpt lat="30.603049" lon="34.798370">
        <ele>856.6</ele>
        <time>2020-09-15T07:00:59Z</time>
      </trkpt>
      <trkpt lat="30.603085" lon="34.798417">
        <ele>856.6</ele>
        <time>2020-09-15T07:01:01Z</time>
      </trkpt>
      <trkpt lat="30.603187" lon="34.798525">
        <ele>857.2</ele>
        <time>2020-09-15T07:01:07Z</time>
      </trkpt>
      <trkpt lat="30.603249" lon="34.798560">
        <ele>857.6</ele>
        <time>2020-09-15T07:01:10Z</time>
      </trkpt>
      <trkpt lat="30.603305" lon="34.798572">
        <ele>858.0</ele>
        <time>2020-09-15T07:01:12Z</time>
      </trkpt>
      <trkpt lat="30.603330" lon="34.798573">
        <ele>858.0</ele>
        <time>2020-09-15T07:01:13Z</time>
      </trkpt>
      <trkpt lat="30.603435" lon="34.798534">
        <ele>858.2</ele>
        <time>2020-09-15T07:01:17Z</time>
      </trkpt>
      <trkpt lat="30.603469" lon="34.798507">
        <ele>858.2</ele>
        <time>2020-09-15T07:01:18Z</time>
      </trkpt>
      <trkpt lat="30.603545" lon="34.798446">
        <ele>857.8</ele>
        <time>2020-09-15T07:01:20Z</time>
      </trkpt>
      <trkpt lat="30.603587" lon="34.798423">
        <ele>857.8</ele>
        <time>2020-09-15T07:01:21Z</time>
      </trkpt>
      <trkpt lat="30.603717" lon="34.798360">
        <ele>856.6</ele>
        <time>2020-09-15T07:01:24Z</time>
      </trkpt>
      <trkpt lat="30.603836" lon="34.798328">
        <ele>855.4</ele>
        <time>2020-09-15T07:01:27Z</time>
      </trkpt>
      <trkpt lat="30.603907" lon="34.798391">
        <ele>854.6</ele>
        <time>2020-09-15T07:01:29Z</time>
      </trkpt>
      <trkpt lat="30.603930" lon="34.798432">
        <ele>854.2</ele>
        <time>2020-09-15T07:01:30Z</time>
      </trkpt>
      <trkpt lat="30.603988" lon="34.798568">
        <ele>853.0</ele>
        <time>2020-09-15T07:01:33Z</time>
      </trkpt>
      <trkpt lat="30.604027" lon="34.798679">
        <ele>852.6</ele>
        <time>2020-09-15T07:01:35Z</time>
      </trkpt>
      <trkpt lat="30.604042" lon="34.798736">
        <ele>852.4</ele>
        <time>2020-09-15T07:01:36Z</time>
      </trkpt>
      <trkpt lat="30.604049" lon="34.798796">
        <ele>852.0</ele>
        <time>2020-09-15T07:01:37Z</time>
      </trkpt>
      <trkpt lat="30.604042" lon="34.798913">
        <ele>851.4</ele>
        <time>2020-09-15T07:01:39Z</time>
      </trkpt>
      <trkpt lat="30.604030" lon="34.798970">
        <ele>851.2</ele>
        <time>2020-09-15T07:01:40Z</time>
      </trkpt>
      <trkpt lat="30.603997" lon="34.799075">
        <ele>851.2</ele>
        <time>2020-09-15T07:01:42Z</time>
      </trkpt>
      <trkpt lat="30.603934" lon="34.799220">
        <ele>851.4</ele>
        <time>2020-09-15T07:01:45Z</time>
      </trkpt>
      <trkpt lat="30.603870" lon="34.799383">
        <ele>850.8</ele>
        <time>2020-09-15T07:01:49Z</time>
      </trkpt>
      <trkpt lat="30.603858" lon="34.799431">
        <ele>850.6</ele>
        <time>2020-09-15T07:01:50Z</time>
      </trkpt>
      <trkpt lat="30.603849" lon="34.799480">
        <ele>850.6</ele>
        <time>2020-09-15T07:01:51Z</time>
      </trkpt>
      <trkpt lat="30.603834" lon="34.799642">
        <ele>850.2</ele>
        <time>2020-09-15T07:01:54Z</time>
      </trkpt>
      <trkpt lat="30.603809" lon="34.799781">
        <ele>850.0</ele>
        <time>2020-09-15T07:01:57Z</time>
      </trkpt>
      <trkpt lat="30.603775" lon="34.799885">
        <ele>850.4</ele>
        <time>2020-09-15T07:02:00Z</time>
      </trkpt>
      <trkpt lat="30.603759" lon="34.799979">
        <ele>850.2</ele>
        <time>2020-09-15T07:02:03Z</time>
      </trkpt>
      <trkpt lat="30.603767" lon="34.800015">
        <ele>850.0</ele>
        <time>2020-09-15T07:02:04Z</time>
      </trkpt>
      <trkpt lat="30.603779" lon="34.800054">
        <ele>849.6</ele>
        <time>2020-09-15T07:02:05Z</time>
      </trkpt>
      <trkpt lat="30.603798" lon="34.800160">
        <ele>848.6</ele>
        <time>2020-09-15T07:02:07Z</time>
      </trkpt>
      <trkpt lat="30.603791" lon="34.800227">
        <ele>848.2</ele>
        <time>2020-09-15T07:02:08Z</time>
      </trkpt>
      <trkpt lat="30.603774" lon="34.800280">
        <ele>847.8</ele>
        <time>2020-09-15T07:02:09Z</time>
      </trkpt>
      <trkpt lat="30.603752" lon="34.800321">
        <ele>847.8</ele>
        <time>2020-09-15T07:02:10Z</time>
      </trkpt>
      <trkpt lat="30.603735" lon="34.800342">
        <ele>848.0</ele>
        <time>2020-09-15T07:02:13Z</time>
      </trkpt>
      <trkpt lat="30.603732" lon="34.800350">
        <ele>848.8</ele>
        <time>2020-09-15T07:02:22Z</time>
      </trkpt>
      <trkpt lat="30.603734" lon="34.800349">
        <ele>849.2</ele>
        <time>2020-09-15T07:02:27Z</time>
      </trkpt>
      <trkpt lat="30.603735" lon="34.800350">
        <ele>849.2</ele>
        <time>2020-09-15T07:02:30Z</time>
      </trkpt>
      <trkpt lat="30.603736" lon="34.800350">
        <ele>849.2</ele>
        <time>2020-09-15T07:02:31Z</time>
      </trkpt>
      <trkpt lat="30.603734" lon="34.800340">
        <ele>848.8</ele>
        <time>2020-09-15T07:02:38Z</time>
      </trkpt>
      <trkpt lat="30.603735" lon="34.800337">
        <ele>848.6</ele>
        <time>2020-09-15T07:02:40Z</time>
      </trkpt>
      <trkpt lat="30.603737" lon="34.800335">
        <ele>848.6</ele>
        <time>2020-09-15T07:02:42Z</time>
      </trkpt>
      <trkpt lat="30.603740" lon="34.800320">
        <ele>848.6</ele>
        <time>2020-09-15T07:02:49Z</time>
      </trkpt>
      <trkpt lat="30.603742" lon="34.800309">
        <ele>848.6</ele>
        <time>2020-09-15T07:02:56Z</time>
      </trkpt>
      <trkpt lat="30.603747" lon="34.800310">
        <ele>848.4</ele>
        <time>2020-09-15T07:03:04Z</time>
      </trkpt>
      <trkpt lat="30.603739" lon="34.800323">
        <ele>848.6</ele>
        <time>2020-09-15T07:03:07Z</time>
      </trkpt>
      <trkpt lat="30.603708" lon="34.800350">
        <ele>848.4</ele>
        <time>2020-09-15T07:03:10Z</time>
      </trkpt>
      <trkpt lat="30.603694" lon="34.800360">
        <ele>848.4</ele>
        <time>2020-09-15T07:03:11Z</time>
      </trkpt>
      <trkpt lat="30.603634" lon="34.800432">
        <ele>848.0</ele>
        <time>2020-09-15T07:03:15Z</time>
      </trkpt>
      <trkpt lat="30.603619" lon="34.800455">
        <ele>848.0</ele>
        <time>2020-09-15T07:03:16Z</time>
      </trkpt>
      <trkpt lat="30.603611" lon="34.800486">
        <ele>847.8</ele>
        <time>2020-09-15T07:03:17Z</time>
      </trkpt>
      <trkpt lat="30.603607" lon="34.800522">
        <ele>847.8</ele>
        <time>2020-09-15T07:03:18Z</time>
      </trkpt>
      <trkpt lat="30.603609" lon="34.800556">
        <ele>847.8</ele>
        <time>2020-09-15T07:03:19Z</time>
      </trkpt>
      <trkpt lat="30.603611" lon="34.800580">
        <ele>847.6</ele>
        <time>2020-09-15T07:03:20Z</time>
      </trkpt>
      <trkpt lat="30.603617" lon="34.800596">
        <ele>847.4</ele>
        <time>2020-09-15T07:03:21Z</time>
      </trkpt>
      <trkpt lat="30.603668" lon="34.800612">
        <ele>847.8</ele>
        <time>2020-09-15T07:03:25Z</time>
      </trkpt>
      <trkpt lat="30.603724" lon="34.800624">
        <ele>847.8</ele>
        <time>2020-09-15T07:03:28Z</time>
      </trkpt>
      <trkpt lat="30.603747" lon="34.800633">
        <ele>847.6</ele>
        <time>2020-09-15T07:03:29Z</time>
      </trkpt>
      <trkpt lat="30.603805" lon="34.800653">
        <ele>847.4</ele>
        <time>2020-09-15T07:03:31Z</time>
      </trkpt>
      <trkpt lat="30.603836" lon="34.800668">
        <ele>847.2</ele>
        <time>2020-09-15T07:03:32Z</time>
      </trkpt>
      <trkpt lat="30.603862" lon="34.800685">
        <ele>846.8</ele>
        <time>2020-09-15T07:03:33Z</time>
      </trkpt>
      <trkpt lat="30.603913" lon="34.800731">
        <ele>846.2</ele>
        <time>2020-09-15T07:03:36Z</time>
      </trkpt>
      <trkpt lat="30.603927" lon="34.800738">
        <ele>845.8</ele>
        <time>2020-09-15T07:03:38Z</time>
      </trkpt>
      <trkpt lat="30.603939" lon="34.800738">
        <ele>845.4</ele>
        <time>2020-09-15T07:03:41Z</time>
      </trkpt>
      <trkpt lat="30.603947" lon="34.800745">
        <ele>845.2</ele>
        <time>2020-09-15T07:03:48Z</time>
      </trkpt>
      <trkpt lat="30.603949" lon="34.800741">
        <ele>844.6</ele>
        <time>2020-09-15T07:03:52Z</time>
      </trkpt>
      <trkpt lat="30.603950" lon="34.800739">
        <ele>844.6</ele>
        <time>2020-09-15T07:04:05Z</time>
      </trkpt>
      <trkpt lat="30.603947" lon="34.800732">
        <ele>844.0</ele>
        <time>2020-09-15T07:05:30Z</time>
      </trkpt>
      <trkpt lat="30.603946" lon="34.800732">
        <ele>843.4</ele>
        <time>2020-09-15T07:05:41Z</time>
      </trkpt>
      <trkpt lat="30.603951" lon="34.800728">
        <ele>843.4</ele>
        <time>2020-09-15T07:06:45Z</time>
      </trkpt>
      <trkpt lat="30.603950" lon="34.800729">
        <ele>843.4</ele>
        <time>2020-09-15T07:08:39Z</time>
      </trkpt>
      <trkpt lat="30.603952" lon="34.800730">
        <ele>843.4</ele>
        <time>2020-09-15T07:08:46Z</time>
      </trkpt>
      <trkpt lat="30.603944" lon="34.800731">
        <ele>843.4</ele>
        <time>2020-09-15T07:08:58Z</time>
      </trkpt>
      <trkpt lat="30.603943" lon="34.800730">
        <ele>843.4</ele>
        <time>2020-09-15T07:08:59Z</time>
      </trkpt>
      <trkpt lat="30.603941" lon="34.800729">
        <ele>843.4</ele>
        <time>2020-09-15T07:09:00Z</time>
      </trkpt>
      <trkpt lat="30.603937" lon="34.800730">
        <ele>843.4</ele>
        <time>2020-09-15T07:09:02Z</time>
      </trkpt>
      <trkpt lat="30.603935" lon="34.800731">
        <ele>843.4</ele>
        <time>2020-09-15T07:09:03Z</time>
      </trkpt>
      <trkpt lat="30.603933" lon="34.800732">
        <ele>843.4</ele>
        <time>2020-09-15T07:09:05Z</time>
      </trkpt>
      <trkpt lat="30.603928" lon="34.800735">
        <ele>843.4</ele>
        <time>2020-09-15T07:09:25Z</time>
      </trkpt>
      <trkpt lat="30.603929" lon="34.800734">
        <ele>843.4</ele>
        <time>2020-09-15T07:09:37Z</time>
      </trkpt>
      <trkpt lat="30.603928" lon="34.800735">
        <ele>843.4</ele>
        <time>2020-09-15T07:09:51Z</time>
      </trkpt>
      <trkpt lat="30.603930" lon="34.800735">
        <ele>843.4</ele>
        <time>2020-09-15T07:09:59Z</time>
      </trkpt>
      <trkpt lat="30.603930" lon="34.800734">
        <ele>843.4</ele>
        <time>2020-09-15T07:10:02Z</time>
      </trkpt>
      <trkpt lat="30.603942" lon="34.800723">
        <ele>843.4</ele>
        <time>2020-09-15T07:10:10Z</time>
      </trkpt>
      <trkpt lat="30.603958" lon="34.800719">
        <ele>843.4</ele>
        <time>2020-09-15T07:10:11Z</time>
      </trkpt>
      <trkpt lat="30.604061" lon="34.800784">
        <ele>844.0</ele>
        <time>2020-09-15T07:10:16Z</time>
      </trkpt>
      <trkpt lat="30.604192" lon="34.800867">
        <ele>843.8</ele>
        <time>2020-09-15T07:10:21Z</time>
      </trkpt>
      <trkpt lat="30.604301" lon="34.800851">
        <ele>844.4</ele>
        <time>2020-09-15T07:10:27Z</time>
      </trkpt>
      <trkpt lat="30.604320" lon="34.800848">
        <ele>844.6</ele>
        <time>2020-09-15T07:10:28Z</time>
      </trkpt>
      <trkpt lat="30.604341" lon="34.800845">
        <ele>844.6</ele>
        <time>2020-09-15T07:10:29Z</time>
      </trkpt>
      <trkpt lat="30.604361" lon="34.800843">
        <ele>844.8</ele>
        <time>2020-09-15T07:10:30Z</time>
      </trkpt>
      <trkpt lat="30.604380" lon="34.800841">
        <ele>845.0</ele>
        <time>2020-09-15T07:10:31Z</time>
      </trkpt>
      <trkpt lat="30.604438" lon="34.800834">
        <ele>845.4</ele>
        <time>2020-09-15T07:10:34Z</time>
      </trkpt>
      <trkpt lat="30.604472" lon="34.800830">
        <ele>846.2</ele>
        <time>2020-09-15T07:10:36Z</time>
      </trkpt>
      <trkpt lat="30.604489" lon="34.800828">
        <ele>846.6</ele>
        <time>2020-09-15T07:10:37Z</time>
      </trkpt>
      <trkpt lat="30.604522" lon="34.800822">
        <ele>846.8</ele>
        <time>2020-09-15T07:10:39Z</time>
      </trkpt>
      <trkpt lat="30.604612" lon="34.800783">
        <ele>846.8</ele>
        <time>2020-09-15T07:10:45Z</time>
      </trkpt>
      <trkpt lat="30.604639" lon="34.800769">
        <ele>846.8</ele>
        <time>2020-09-15T07:10:47Z</time>
      </trkpt>
      <trkpt lat="30.604646" lon="34.800769">
        <ele>846.4</ele>
        <time>2020-09-15T07:10:50Z</time>
      </trkpt>
      <trkpt lat="30.604658" lon="34.800764">
        <ele>846.4</ele>
        <time>2020-09-15T07:10:53Z</time>
      </trkpt>
      <trkpt lat="30.604657" lon="34.800762">
        <ele>846.0</ele>
        <time>2020-09-15T07:10:56Z</time>
      </trkpt>
      <trkpt lat="30.604657" lon="34.800761">
        <ele>846.0</ele>
        <time>2020-09-15T07:10:58Z</time>
      </trkpt>
      <trkpt lat="30.604656" lon="34.800759">
        <ele>846.0</ele>
        <time>2020-09-15T07:11:03Z</time>
      </trkpt>
      <trkpt lat="30.604655" lon="34.800755">
        <ele>846.2</ele>
        <time>2020-09-15T07:11:11Z</time>
      </trkpt>
      <trkpt lat="30.604657" lon="34.800758">
        <ele>846.6</ele>
        <time>2020-09-15T07:11:16Z</time>
      </trkpt>
      <trkpt lat="30.604660" lon="34.800762">
        <ele>846.6</ele>
        <time>2020-09-15T07:11:18Z</time>
      </trkpt>
      <trkpt lat="30.604674" lon="34.800779">
        <ele>846.8</ele>
        <time>2020-09-15T07:11:21Z</time>
      </trkpt>
      <trkpt lat="30.604682" lon="34.800787">
        <ele>846.8</ele>
        <time>2020-09-15T07:11:22Z</time>
      </trkpt>
      <trkpt lat="30.604726" lon="34.800839">
        <ele>847.2</ele>
        <time>2020-09-15T07:11:29Z</time>
      </trkpt>
      <trkpt lat="30.604743" lon="34.800863">
        <ele>847.6</ele>
        <time>2020-09-15T07:11:33Z</time>
      </trkpt>
      <trkpt lat="30.604769" lon="34.800873">
        <ele>847.8</ele>
        <time>2020-09-15T07:11:36Z</time>
      </trkpt>
      <trkpt lat="30.604777" lon="34.800874">
        <ele>847.8</ele>
        <time>2020-09-15T07:11:37Z</time>
      </trkpt>
      <trkpt lat="30.604813" lon="34.800887">
        <ele>847.6</ele>
        <time>2020-09-15T07:11:40Z</time>
      </trkpt>
      <trkpt lat="30.604836" lon="34.800913">
        <ele>848.4</ele>
        <time>2020-09-15T07:11:44Z</time>
      </trkpt>
      <trkpt lat="30.604844" lon="34.800921">
        <ele>848.6</ele>
        <time>2020-09-15T07:11:45Z</time>
      </trkpt>
      <trkpt lat="30.604892" lon="34.800946">
        <ele>849.2</ele>
        <time>2020-09-15T07:11:49Z</time>
      </trkpt>
      <trkpt lat="30.604900" lon="34.800955">
        <ele>849.2</ele>
        <time>2020-09-15T07:11:50Z</time>
      </trkpt>
      <trkpt lat="30.604905" lon="34.800966">
        <ele>849.4</ele>
        <time>2020-09-15T07:11:51Z</time>
      </trkpt>
      <trkpt lat="30.604908" lon="34.800990">
        <ele>849.6</ele>
        <time>2020-09-15T07:11:53Z</time>
      </trkpt>
      <trkpt lat="30.604910" lon="34.801053">
        <ele>850.6</ele>
        <time>2020-09-15T07:11:58Z</time>
      </trkpt>
      <trkpt lat="30.604899" lon="34.801131">
        <ele>850.4</ele>
        <time>2020-09-15T07:12:05Z</time>
      </trkpt>
      <trkpt lat="30.604898" lon="34.801139">
        <ele>850.6</ele>
        <time>2020-09-15T07:12:06Z</time>
      </trkpt>
      <trkpt lat="30.604897" lon="34.801165">
        <ele>851.6</ele>
        <time>2020-09-15T07:12:08Z</time>
      </trkpt>
      <trkpt lat="30.604897" lon="34.801177">
        <ele>851.8</ele>
        <time>2020-09-15T07:12:09Z</time>
      </trkpt>
      <trkpt lat="30.604922" lon="34.801241">
        <ele>852.0</ele>
        <time>2020-09-15T07:12:16Z</time>
      </trkpt>
      <trkpt lat="30.604938" lon="34.801293">
        <ele>852.2</ele>
        <time>2020-09-15T07:12:24Z</time>
      </trkpt>
      <trkpt lat="30.604944" lon="34.801301">
        <ele>852.2</ele>
        <time>2020-09-15T07:12:25Z</time>
      </trkpt>
      <trkpt lat="30.604965" lon="34.801328">
        <ele>852.0</ele>
        <time>2020-09-15T07:12:27Z</time>
      </trkpt>
      <trkpt lat="30.604974" lon="34.801355">
        <ele>852.0</ele>
        <time>2020-09-15T07:12:28Z</time>
      </trkpt>
      <trkpt lat="30.604980" lon="34.801532">
        <ele>851.8</ele>
        <time>2020-09-15T07:12:33Z</time>
      </trkpt>
      <trkpt lat="30.605013" lon="34.801668">
        <ele>852.0</ele>
        <time>2020-09-15T07:12:37Z</time>
      </trkpt>
      <trkpt lat="30.605018" lon="34.801723">
        <ele>852.0</ele>
        <time>2020-09-15T07:12:39Z</time>
      </trkpt>
      <trkpt lat="30.605032" lon="34.801854">
        <ele>853.0</ele>
        <time>2020-09-15T07:12:44Z</time>
      </trkpt>
      <trkpt lat="30.605036" lon="34.801875">
        <ele>853.0</ele>
        <time>2020-09-15T07:12:45Z</time>
      </trkpt>
      <trkpt lat="30.605039" lon="34.801898">
        <ele>853.0</ele>
        <time>2020-09-15T07:12:46Z</time>
      </trkpt>
      <trkpt lat="30.605041" lon="34.801922">
        <ele>853.0</ele>
        <time>2020-09-15T07:12:47Z</time>
      </trkpt>
      <trkpt lat="30.605059" lon="34.802049">
        <ele>854.0</ele>
        <time>2020-09-15T07:12:52Z</time>
      </trkpt>
      <trkpt lat="30.605068" lon="34.802072">
        <ele>854.4</ele>
        <time>2020-09-15T07:12:53Z</time>
      </trkpt>
      <trkpt lat="30.605146" lon="34.802228">
        <ele>855.2</ele>
        <time>2020-09-15T07:13:00Z</time>
      </trkpt>
      <trkpt lat="30.605163" lon="34.802273">
        <ele>855.4</ele>
        <time>2020-09-15T07:13:02Z</time>
      </trkpt>
      <trkpt lat="30.605162" lon="34.802374">
        <ele>856.2</ele>
        <time>2020-09-15T07:13:06Z</time>
      </trkpt>
      <trkpt lat="30.605161" lon="34.802432">
        <ele>856.6</ele>
        <time>2020-09-15T07:13:08Z</time>
      </trkpt>
      <trkpt lat="30.605193" lon="34.802573">
        <ele>857.2</ele>
        <time>2020-09-15T07:13:13Z</time>
      </trkpt>
      <trkpt lat="30.605201" lon="34.802599">
        <ele>857.2</ele>
        <time>2020-09-15T07:13:14Z</time>
      </trkpt>
      <trkpt lat="30.605208" lon="34.802622">
        <ele>857.2</ele>
        <time>2020-09-15T07:13:15Z</time>
      </trkpt>
      <trkpt lat="30.605215" lon="34.802643">
        <ele>857.2</ele>
        <time>2020-09-15T07:13:16Z</time>
      </trkpt>
      <trkpt lat="30.605226" lon="34.802657">
        <ele>857.2</ele>
        <time>2020-09-15T07:13:17Z</time>
      </trkpt>
      <trkpt lat="30.605258" lon="34.802664">
        <ele>857.4</ele>
        <time>2020-09-15T07:13:19Z</time>
      </trkpt>
      <trkpt lat="30.605320" lon="34.802685">
        <ele>857.6</ele>
        <time>2020-09-15T07:13:22Z</time>
      </trkpt>
      <trkpt lat="30.605348" lon="34.802733">
        <ele>858.0</ele>
        <time>2020-09-15T07:13:24Z</time>
      </trkpt>
      <trkpt lat="30.605354" lon="34.802761">
        <ele>858.4</ele>
        <time>2020-09-15T07:13:25Z</time>
      </trkpt>
      <trkpt lat="30.605323" lon="34.802859">
        <ele>859.2</ele>
        <time>2020-09-15T07:13:29Z</time>
      </trkpt>
      <trkpt lat="30.605313" lon="34.802912">
        <ele>859.4</ele>
        <time>2020-09-15T07:13:30Z</time>
      </trkpt>
      <trkpt lat="30.605330" lon="34.802989">
        <ele>859.4</ele>
        <time>2020-09-15T07:13:34Z</time>
      </trkpt>
      <trkpt lat="30.605403" lon="34.803168">
        <ele>859.6</ele>
        <time>2020-09-15T07:13:42Z</time>
      </trkpt>
      <trkpt lat="30.605569" lon="34.803309">
        <ele>860.2</ele>
        <time>2020-09-15T07:13:50Z</time>
      </trkpt>
      <trkpt lat="30.605616" lon="34.803384">
        <ele>860.4</ele>
        <time>2020-09-15T07:13:53Z</time>
      </trkpt>
      <trkpt lat="30.605654" lon="34.803470">
        <ele>860.2</ele>
        <time>2020-09-15T07:13:56Z</time>
      </trkpt>
      <trkpt lat="30.605661" lon="34.803500">
        <ele>860.2</ele>
        <time>2020-09-15T07:13:57Z</time>
      </trkpt>
      <trkpt lat="30.605731" lon="34.803726">
        <ele>859.8</ele>
        <time>2020-09-15T07:14:05Z</time>
      </trkpt>
      <trkpt lat="30.605816" lon="34.803868">
        <ele>859.8</ele>
        <time>2020-09-15T07:14:11Z</time>
      </trkpt>
      <trkpt lat="30.605940" lon="34.803915">
        <ele>860.0</ele>
        <time>2020-09-15T07:14:16Z</time>
      </trkpt>
      <trkpt lat="30.606043" lon="34.804060">
        <ele>859.4</ele>
        <time>2020-09-15T07:14:21Z</time>
      </trkpt>
      <trkpt lat="30.606065" lon="34.804129">
        <ele>859.2</ele>
        <time>2020-09-15T07:14:23Z</time>
      </trkpt>
      <trkpt lat="30.606114" lon="34.804216">
        <ele>859.0</ele>
        <time>2020-09-15T07:14:26Z</time>
      </trkpt>
      <trkpt lat="30.606211" lon="34.804325">
        <ele>858.2</ele>
        <time>2020-09-15T07:14:32Z</time>
      </trkpt>
      <trkpt lat="30.606212" lon="34.804327">
        <ele>858.2</ele>
        <time>2020-09-15T07:14:33Z</time>
      </trkpt>
      <trkpt lat="30.606248" lon="34.804353">
        <ele>857.4</ele>
        <time>2020-09-15T07:21:15Z</time>
      </trkpt>
      <trkpt lat="30.606276" lon="34.804336">
        <ele>857.4</ele>
        <time>2020-09-15T07:22:41Z</time>
      </trkpt>
      <trkpt lat="30.606286" lon="34.804328">
        <ele>857.4</ele>
        <time>2020-09-15T07:22:42Z</time>
      </trkpt>
      <trkpt lat="30.606364" lon="34.804223">
        <ele>857.2</ele>
        <time>2020-09-15T07:22:49Z</time>
      </trkpt>
      <trkpt lat="30.606378" lon="34.804202">
        <ele>857.0</ele>
        <time>2020-09-15T07:22:50Z</time>
      </trkpt>
      <trkpt lat="30.606415" lon="34.804156">
        <ele>856.4</ele>
        <time>2020-09-15T07:22:52Z</time>
      </trkpt>
      <trkpt lat="30.606436" lon="34.804136">
        <ele>856.2</ele>
        <time>2020-09-15T07:22:53Z</time>
      </trkpt>
      <trkpt lat="30.606463" lon="34.804113">
        <ele>856.0</ele>
        <time>2020-09-15T07:22:54Z</time>
      </trkpt>
      <trkpt lat="30.606497" lon="34.804090">
        <ele>855.8</ele>
        <time>2020-09-15T07:22:55Z</time>
      </trkpt>
      <trkpt lat="30.606532" lon="34.804069">
        <ele>855.2</ele>
        <time>2020-09-15T07:22:56Z</time>
      </trkpt>
      <trkpt lat="30.606561" lon="34.804052">
        <ele>855.0</ele>
        <time>2020-09-15T07:22:57Z</time>
      </trkpt>
      <trkpt lat="30.606673" lon="34.803996">
        <ele>854.0</ele>
        <time>2020-09-15T07:23:01Z</time>
      </trkpt>
      <trkpt lat="30.606691" lon="34.803978">
        <ele>854.0</ele>
        <time>2020-09-15T07:23:02Z</time>
      </trkpt>
      <trkpt lat="30.606706" lon="34.803960">
        <ele>853.6</ele>
        <time>2020-09-15T07:23:03Z</time>
      </trkpt>
      <trkpt lat="30.606783" lon="34.803880">
        <ele>853.4</ele>
        <time>2020-09-15T07:23:08Z</time>
      </trkpt>
      <trkpt lat="30.606814" lon="34.803854">
        <ele>853.4</ele>
        <time>2020-09-15T07:23:10Z</time>
      </trkpt>
      <trkpt lat="30.606849" lon="34.803823">
        <ele>853.4</ele>
        <time>2020-09-15T07:23:12Z</time>
      </trkpt>
      <trkpt lat="30.606918" lon="34.803771">
        <ele>852.8</ele>
        <time>2020-09-15T07:23:15Z</time>
      </trkpt>
      <trkpt lat="30.606938" lon="34.803752">
        <ele>852.6</ele>
        <time>2020-09-15T07:23:16Z</time>
      </trkpt>
      <trkpt lat="30.607033" lon="34.803685">
        <ele>852.0</ele>
        <time>2020-09-15T07:23:20Z</time>
      </trkpt>
      <trkpt lat="30.607057" lon="34.803665">
        <ele>851.8</ele>
        <time>2020-09-15T07:23:21Z</time>
      </trkpt>
      <trkpt lat="30.607101" lon="34.803629">
        <ele>851.4</ele>
        <time>2020-09-15T07:23:23Z</time>
      </trkpt>
      <trkpt lat="30.607144" lon="34.803597">
        <ele>851.4</ele>
        <time>2020-09-15T07:23:25Z</time>
      </trkpt>
      <trkpt lat="30.607239" lon="34.803523">
        <ele>850.8</ele>
        <time>2020-09-15T07:23:29Z</time>
      </trkpt>
      <trkpt lat="30.607291" lon="34.803484">
        <ele>850.2</ele>
        <time>2020-09-15T07:23:31Z</time>
      </trkpt>
      <trkpt lat="30.607461" lon="34.803367">
        <ele>849.2</ele>
        <time>2020-09-15T07:23:37Z</time>
      </trkpt>
      <trkpt lat="30.607587" lon="34.803279">
        <ele>848.0</ele>
        <time>2020-09-15T07:23:41Z</time>
      </trkpt>
      <trkpt lat="30.607617" lon="34.803258">
        <ele>847.2</ele>
        <time>2020-09-15T07:23:42Z</time>
      </trkpt>
      <trkpt lat="30.607646" lon="34.803240">
        <ele>846.4</ele>
        <time>2020-09-15T07:23:43Z</time>
      </trkpt>
      <trkpt lat="30.607672" lon="34.803223">
        <ele>846.0</ele>
        <time>2020-09-15T07:23:44Z</time>
      </trkpt>
      <trkpt lat="30.607723" lon="34.803187">
        <ele>845.6</ele>
        <time>2020-09-15T07:23:46Z</time>
      </trkpt>
      <trkpt lat="30.607749" lon="34.803166">
        <ele>845.8</ele>
        <time>2020-09-15T07:23:47Z</time>
      </trkpt>
      <trkpt lat="30.607777" lon="34.803142">
        <ele>845.6</ele>
        <time>2020-09-15T07:23:48Z</time>
      </trkpt>
      <trkpt lat="30.607872" lon="34.803069">
        <ele>845.4</ele>
        <time>2020-09-15T07:23:51Z</time>
      </trkpt>
      <trkpt lat="30.608020" lon="34.802954">
        <ele>844.2</ele>
        <time>2020-09-15T07:23:55Z</time>
      </trkpt>
      <trkpt lat="30.608123" lon="34.802880">
        <ele>843.2</ele>
        <time>2020-09-15T07:23:58Z</time>
      </trkpt>
      <trkpt lat="30.608178" lon="34.802851">
        <ele>843.0</ele>
        <time>2020-09-15T07:24:00Z</time>
      </trkpt>
      <trkpt lat="30.608222" lon="34.802848">
        <ele>842.2</ele>
        <time>2020-09-15T07:24:03Z</time>
      </trkpt>
      <trkpt lat="30.608244" lon="34.802846">
        <ele>842.0</ele>
        <time>2020-09-15T07:24:04Z</time>
      </trkpt>
      <trkpt lat="30.608253" lon="34.802845">
        <ele>841.4</ele>
        <time>2020-09-15T07:24:07Z</time>
      </trkpt>
      <trkpt lat="30.608258" lon="34.802847">
        <ele>841.4</ele>
        <time>2020-09-15T07:24:10Z</time>
      </trkpt>
      <trkpt lat="30.608261" lon="34.802849">
        <ele>841.8</ele>
        <time>2020-09-15T07:24:16Z</time>
      </trkpt>
      <trkpt lat="30.608262" lon="34.802849">
        <ele>841.6</ele>
        <time>2020-09-15T07:24:19Z</time>
      </trkpt>
      <trkpt lat="30.608261" lon="34.802850">
        <ele>842.0</ele>
        <time>2020-09-15T07:24:28Z</time>
      </trkpt>
      <trkpt lat="30.608289" lon="34.802847">
        <ele>841.6</ele>
        <time>2020-09-15T07:24:41Z</time>
      </trkpt>
      <trkpt lat="30.608288" lon="34.802845">
        <ele>841.6</ele>
        <time>2020-09-15T07:24:44Z</time>
      </trkpt>
      <trkpt lat="30.608285" lon="34.802843">
        <ele>841.4</ele>
        <time>2020-09-15T07:24:54Z</time>
      </trkpt>
      <trkpt lat="30.608288" lon="34.802843">
        <ele>841.6</ele>
        <time>2020-09-15T07:25:04Z</time>
      </trkpt>
      <trkpt lat="30.608288" lon="34.802843">
        <ele>841.2</ele>
        <time>2020-09-15T07:25:07Z</time>
      </trkpt>
      <trkpt lat="30.608287" lon="34.802843">
        <ele>841.2</ele>
        <time>2020-09-15T07:25:09Z</time>
      </trkpt>
      <trkpt lat="30.608288" lon="34.802844">
        <ele>841.2</ele>
        <time>2020-09-15T07:25:12Z</time>
      </trkpt>
      <trkpt lat="30.608292" lon="34.802844">
        <ele>841.2</ele>
        <time>2020-09-15T07:25:20Z</time>
      </trkpt>
      <trkpt lat="30.608327" lon="34.802871">
        <ele>842.0</ele>
        <time>2020-09-15T07:25:27Z</time>
      </trkpt>
      <trkpt lat="30.608463" lon="34.803006">
        <ele>842.0</ele>
        <time>2020-09-15T07:25:33Z</time>
      </trkpt>
      <trkpt lat="30.608514" lon="34.803053">
        <ele>842.0</ele>
        <time>2020-09-15T07:25:35Z</time>
      </trkpt>
      <trkpt lat="30.608534" lon="34.803075">
        <ele>842.2</ele>
        <time>2020-09-15T07:25:36Z</time>
      </trkpt>
      <trkpt lat="30.608581" lon="34.803134">
        <ele>842.6</ele>
        <time>2020-09-15T07:25:39Z</time>
      </trkpt>
      <trkpt lat="30.608617" lon="34.803195">
        <ele>842.8</ele>
        <time>2020-09-15T07:25:42Z</time>
      </trkpt>
      <trkpt lat="30.608636" lon="34.803241">
        <ele>842.8</ele>
        <time>2020-09-15T07:25:44Z</time>
      </trkpt>
      <trkpt lat="30.608664" lon="34.803284">
        <ele>842.8</ele>
        <time>2020-09-15T07:25:46Z</time>
      </trkpt>
      <trkpt lat="30.608675" lon="34.803303">
        <ele>842.8</ele>
        <time>2020-09-15T07:25:47Z</time>
      </trkpt>
      <trkpt lat="30.608707" lon="34.803368">
        <ele>843.0</ele>
        <time>2020-09-15T07:25:50Z</time>
      </trkpt>
      <trkpt lat="30.608781" lon="34.803475">
        <ele>842.8</ele>
        <time>2020-09-15T07:25:55Z</time>
      </trkpt>
      <trkpt lat="30.608843" lon="34.803554">
        <ele>843.0</ele>
        <time>2020-09-15T07:25:59Z</time>
      </trkpt>
      <trkpt lat="30.608907" lon="34.803645">
        <ele>843.0</ele>
        <time>2020-09-15T07:26:03Z</time>
      </trkpt>
      <trkpt lat="30.608937" lon="34.803692">
        <ele>843.0</ele>
        <time>2020-09-15T07:26:05Z</time>
      </trkpt>
      <trkpt lat="30.608951" lon="34.803715">
        <ele>843.2</ele>
        <time>2020-09-15T07:26:06Z</time>
      </trkpt>
      <trkpt lat="30.609017" lon="34.803809">
        <ele>843.6</ele>
        <time>2020-09-15T07:26:11Z</time>
      </trkpt>
      <trkpt lat="30.609043" lon="34.803852">
        <ele>843.4</ele>
        <time>2020-09-15T07:26:14Z</time>
      </trkpt>
      <trkpt lat="30.609073" lon="34.803882">
        <ele>843.6</ele>
        <time>2020-09-15T07:26:16Z</time>
      </trkpt>
      <trkpt lat="30.609141" lon="34.803953">
        <ele>843.4</ele>
        <time>2020-09-15T07:26:20Z</time>
      </trkpt>
      <trkpt lat="30.609305" lon="34.804099">
        <ele>842.8</ele>
        <time>2020-09-15T07:26:28Z</time>
      </trkpt>
      <trkpt lat="30.609435" lon="34.804180">
        <ele>842.2</ele>
        <time>2020-09-15T07:26:32Z</time>
      </trkpt>
      <trkpt lat="30.609505" lon="34.804223">
        <ele>841.8</ele>
        <time>2020-09-15T07:26:34Z</time>
      </trkpt>
      <trkpt lat="30.609672" lon="34.804310">
        <ele>840.6</ele>
        <time>2020-09-15T07:26:38Z</time>
      </trkpt>
      <trkpt lat="30.609717" lon="34.804331">
        <ele>840.4</ele>
        <time>2020-09-15T07:26:39Z</time>
      </trkpt>
      <trkpt lat="30.609766" lon="34.804353">
        <ele>840.0</ele>
        <time>2020-09-15T07:26:40Z</time>
      </trkpt>
      <trkpt lat="30.609857" lon="34.804393">
        <ele>839.2</ele>
        <time>2020-09-15T07:26:42Z</time>
      </trkpt>
      <trkpt lat="30.610028" lon="34.804457">
        <ele>838.2</ele>
        <time>2020-09-15T07:26:45Z</time>
      </trkpt>
      <trkpt lat="30.610144" lon="34.804502">
        <ele>838.0</ele>
        <time>2020-09-15T07:26:47Z</time>
      </trkpt>
      <trkpt lat="30.610353" lon="34.804571">
        <ele>837.4</ele>
        <time>2020-09-15T07:26:51Z</time>
      </trkpt>
      <trkpt lat="30.610395" lon="34.804588">
        <ele>837.2</ele>
        <time>2020-09-15T07:26:52Z</time>
      </trkpt>
      <trkpt lat="30.610435" lon="34.804603">
        <ele>837.2</ele>
        <time>2020-09-15T07:26:53Z</time>
      </trkpt>
      <trkpt lat="30.610594" lon="34.804668">
        <ele>837.6</ele>
        <time>2020-09-15T07:26:57Z</time>
      </trkpt>
      <trkpt lat="30.610674" lon="34.804719">
        <ele>838.2</ele>
        <time>2020-09-15T07:27:00Z</time>
      </trkpt>
      <trkpt lat="30.610711" lon="34.804750">
        <ele>838.0</ele>
        <time>2020-09-15T07:27:02Z</time>
      </trkpt>
      <trkpt lat="30.610800" lon="34.804763">
        <ele>838.2</ele>
        <time>2020-09-15T07:27:07Z</time>
      </trkpt>
      <trkpt lat="30.610821" lon="34.804750">
        <ele>838.4</ele>
        <time>2020-09-15T07:27:08Z</time>
      </trkpt>
      <trkpt lat="30.610911" lon="34.804662">
        <ele>838.8</ele>
        <time>2020-09-15T07:27:13Z</time>
      </trkpt>
      <trkpt lat="30.610931" lon="34.804643">
        <ele>838.8</ele>
        <time>2020-09-15T07:27:14Z</time>
      </trkpt>
      <trkpt lat="30.610982" lon="34.804589">
        <ele>839.0</ele>
        <time>2020-09-15T07:27:17Z</time>
      </trkpt>
      <trkpt lat="30.611029" lon="34.804542">
        <ele>839.0</ele>
        <time>2020-09-15T07:27:20Z</time>
      </trkpt>
      <trkpt lat="30.611051" lon="34.804519">
        <ele>838.6</ele>
        <time>2020-09-15T07:27:21Z</time>
      </trkpt>
      <trkpt lat="30.611189" lon="34.804409">
        <ele>837.4</ele>
        <time>2020-09-15T07:27:27Z</time>
      </trkpt>
      <trkpt lat="30.611303" lon="34.804392">
        <ele>837.6</ele>
        <time>2020-09-15T07:27:32Z</time>
      </trkpt>
      <trkpt lat="30.611340" lon="34.804382">
        <ele>837.4</ele>
        <time>2020-09-15T07:27:34Z</time>
      </trkpt>
      <trkpt lat="30.611400" lon="34.804365">
        <ele>837.2</ele>
        <time>2020-09-15T07:27:37Z</time>
      </trkpt>
      <trkpt lat="30.611469" lon="34.804353">
        <ele>836.6</ele>
        <time>2020-09-15T07:27:40Z</time>
      </trkpt>
      <trkpt lat="30.611490" lon="34.804349">
        <ele>836.6</ele>
        <time>2020-09-15T07:27:41Z</time>
      </trkpt>
      <trkpt lat="30.611514" lon="34.804343">
        <ele>836.4</ele>
        <time>2020-09-15T07:27:42Z</time>
      </trkpt>
      <trkpt lat="30.611540" lon="34.804335">
        <ele>836.6</ele>
        <time>2020-09-15T07:27:43Z</time>
      </trkpt>
      <trkpt lat="30.611641" lon="34.804292">
        <ele>836.4</ele>
        <time>2020-09-15T07:27:47Z</time>
      </trkpt>
      <trkpt lat="30.611713" lon="34.804244">
        <ele>836.0</ele>
        <time>2020-09-15T07:27:50Z</time>
      </trkpt>
      <trkpt lat="30.611771" lon="34.804196">
        <ele>835.8</ele>
        <time>2020-09-15T07:27:52Z</time>
      </trkpt>
      <trkpt lat="30.611801" lon="34.804165">
        <ele>835.6</ele>
        <time>2020-09-15T07:27:53Z</time>
      </trkpt>
      <trkpt lat="30.611831" lon="34.804128">
        <ele>835.2</ele>
        <time>2020-09-15T07:27:54Z</time>
      </trkpt>
      <trkpt lat="30.611862" lon="34.804091">
        <ele>834.8</ele>
        <time>2020-09-15T07:27:55Z</time>
      </trkpt>
      <trkpt lat="30.611939" lon="34.804032">
        <ele>834.8</ele>
        <time>2020-09-15T07:27:57Z</time>
      </trkpt>
      <trkpt lat="30.611983" lon="34.804013">
        <ele>834.6</ele>
        <time>2020-09-15T07:27:58Z</time>
      </trkpt>
      <trkpt lat="30.612180" lon="34.803954">
        <ele>834.0</ele>
        <time>2020-09-15T07:28:02Z</time>
      </trkpt>
      <trkpt lat="30.612233" lon="34.803942">
        <ele>833.6</ele>
        <time>2020-09-15T07:28:03Z</time>
      </trkpt>
      <trkpt lat="30.612281" lon="34.803931">
        <ele>833.2</ele>
        <time>2020-09-15T07:28:04Z</time>
      </trkpt>
      <trkpt lat="30.612393" lon="34.803915">
        <ele>832.6</ele>
        <time>2020-09-15T07:28:07Z</time>
      </trkpt>
      <trkpt lat="30.612436" lon="34.803914">
        <ele>832.0</ele>
        <time>2020-09-15T07:28:09Z</time>
      </trkpt>
      <trkpt lat="30.612459" lon="34.803912">
        <ele>831.6</ele>
        <time>2020-09-15T07:28:11Z</time>
      </trkpt>
      <trkpt lat="30.612491" lon="34.803913">
        <ele>831.4</ele>
        <time>2020-09-15T07:28:12Z</time>
      </trkpt>
      <trkpt lat="30.612504" lon="34.803908">
        <ele>831.2</ele>
        <time>2020-09-15T07:28:14Z</time>
      </trkpt>
      <trkpt lat="30.612514" lon="34.803903">
        <ele>830.8</ele>
        <time>2020-09-15T07:28:16Z</time>
      </trkpt>
    </trkseg>
  </trk>
</gpx>
